<?xml version='1.0' encoding='UTF-8'?><gpx version="1.1" creator="JPX - https://github.com/jenetics/jpx" xmlns="http://www.topografix.com/GPX/1/1"><trk><trkseg><trkpt lat="42.5217213" lon="14.1522638"><ele>0.0</ele><time>2026-05-01T06:52:57.935Z</time></trkpt><trkpt lat="42.5217889" lon="14.1522829"><ele>0.0</ele><time>2026-05-01T06:54:32.938Z</time></trkpt><trkpt lat="42.5218501" lon="14.152303"><ele>0.0</ele><time>2026-05-01T06:54:37.938Z</time></trkpt><trkpt lat="42.5219069" lon="14.1523492"><ele>0.0</ele><time>2026-05-01T06:54:47.935Z</time></trkpt><trkpt lat="42.5219257" lon="14.152432"><ele>0.0</ele><time>2026-05-01T06:57:19.939Z</time></trkpt><trkpt lat="42.5219731" lon="14.1525335"><ele>0.0</ele><time>2026-05-01T07:01:40.933Z</time></trkpt><trkpt lat="42.5220045" lon="14.1526324"><ele>0.0</ele><time>2026-05-01T07:02:53.943Z</time></trkpt><trkpt lat="42.5220531" lon="14.152764"><ele>0.4</ele><time>2026-05-01T07:03:33.933Z</time></trkpt><trkpt lat="42.5221077" lon="14.1529037"><ele>0.8</ele><time>2026-05-01T07:03:35.929Z</time></trkpt><trkpt lat="42.5221373" lon="14.15298"><ele>1.2000000000000002</ele><time>2026-05-01T07:03:36.937Z</time></trkpt><trkpt lat="42.5222018" lon="14.1531079"><ele>1.6</ele><time>2026-05-01T07:03:38.934Z</time></trkpt><trkpt lat="42.5222779" lon="14.1531551"><ele>2.0</ele><time>2026-05-01T07:03:40.925Z</time></trkpt><trkpt lat="42.5223516" lon="14.1531313"><ele>2.0</ele><time>2026-05-01T07:03:42.938Z</time></trkpt><trkpt lat="42.5224067" lon="14.1530793"><ele>1.9999999999999998</ele><time>2026-05-01T07:03:45.934Z</time></trkpt><trkpt lat="42.522468" lon="14.1530338"><ele>2.0</ele><time>2026-05-01T07:03:57.936Z</time></trkpt><trkpt lat="42.5225367" lon="14.1529694"><ele>2.0</ele><time>2026-05-01T07:04:00.943Z</time></trkpt><trkpt lat="42.5225902" lon="14.1529203"><ele>1.9999999999999998</ele><time>2026-05-01T07:04:02.947Z</time></trkpt><trkpt lat="42.5226544" lon="14.1528964"><ele>2.0</ele><time>2026-05-01T07:04:04.937Z</time></trkpt><trkpt lat="42.5227094" lon="14.1529577"><ele>2.0</ele><time>2026-05-01T07:04:06.935Z</time></trkpt><trkpt lat="42.5226694" lon="14.1530642"><ele>1.9999999999999998</ele><time>2026-05-01T07:04:09.931Z</time></trkpt><trkpt lat="42.522602" lon="14.1531147"><ele>2.0</ele><time>2026-05-01T07:04:10.935Z</time></trkpt><trkpt lat="42.5225333" lon="14.1531642"><ele>2.0</ele><time>2026-05-01T07:04:11.939Z</time></trkpt><trkpt lat="42.5224712" lon="14.1532199"><ele>2.0</ele><time>2026-05-01T07:04:12.928Z</time></trkpt><trkpt lat="42.5224052" lon="14.1532782"><ele>1.9999999999999998</ele><time>2026-05-01T07:04:13.947Z</time></trkpt><trkpt lat="42.5223376" lon="14.1533316"><ele>2.0</ele><time>2026-05-01T07:04:14.926Z</time></trkpt><trkpt lat="42.5222803" lon="14.1533773"><ele>1.9999999999999998</ele><time>2026-05-01T07:04:15.942Z</time></trkpt><trkpt lat="42.5222221" lon="14.1534219"><ele>2.0</ele><time>2026-05-01T07:04:16.942Z</time></trkpt><trkpt lat="42.5221609" lon="14.1534704"><ele>2.0</ele><time>2026-05-01T07:04:17.942Z</time></trkpt><trkpt lat="42.5221057" lon="14.15352"><ele>2.0</ele><time>2026-05-01T07:04:18.943Z</time></trkpt><trkpt lat="42.5220115" lon="14.1536016"><ele>1.9999999999999998</ele><time>2026-05-01T07:04:20.933Z</time></trkpt><trkpt lat="42.521957" lon="14.1536617"><ele>2.0</ele><time>2026-05-01T07:04:22.937Z</time></trkpt><trkpt lat="42.5219495" lon="14.1538124"><ele>1.8</ele><time>2026-05-01T07:04:24.935Z</time></trkpt><trkpt lat="42.5219698" lon="14.15393"><ele>1.6</ele><time>2026-05-01T07:04:25.935Z</time></trkpt><trkpt lat="42.5219961" lon="14.1540542"><ele>1.4000000000000001</ele><time>2026-05-01T07:04:26.946Z</time></trkpt><trkpt lat="42.5220318" lon="14.1541764"><ele>1.2000000000000002</ele><time>2026-05-01T07:04:27.933Z</time></trkpt><trkpt lat="42.5220661" lon="14.154308"><ele>1.0</ele><time>2026-05-01T07:04:28.947Z</time></trkpt><trkpt lat="42.5220998" lon="14.1544432"><ele>2.4000000000000004</ele><time>2026-05-01T07:04:29.939Z</time></trkpt><trkpt lat="42.5221269" lon="14.1545807"><ele>3.8000000000000003</ele><time>2026-05-01T07:04:30.93Z</time></trkpt><trkpt lat="42.5221491" lon="14.1547187"><ele>5.200000000000001</ele><time>2026-05-01T07:04:31.929Z</time></trkpt><trkpt lat="42.5221629" lon="14.1548605"><ele>6.6000000000000005</ele><time>2026-05-01T07:04:32.941Z</time></trkpt><trkpt lat="42.5221756" lon="14.1550092"><ele>8.0</ele><time>2026-05-01T07:04:33.934Z</time></trkpt><trkpt lat="42.5221773" lon="14.1551585"><ele>7.6000000000000005</ele><time>2026-05-01T07:04:34.949Z</time></trkpt><trkpt lat="42.522172" lon="14.1553029"><ele>7.200000000000001</ele><time>2026-05-01T07:04:35.939Z</time></trkpt><trkpt lat="42.5221562" lon="14.1554375"><ele>6.8</ele><time>2026-05-01T07:04:36.935Z</time></trkpt><trkpt lat="42.5221382" lon="14.1555699"><ele>6.4</ele><time>2026-05-01T07:04:37.944Z</time></trkpt><trkpt lat="42.5221094" lon="14.1557086"><ele>6.0</ele><time>2026-05-01T07:04:38.937Z</time></trkpt><trkpt lat="42.5220723" lon="14.155849"><ele>5.3999999999999995</ele><time>2026-05-01T07:04:39.937Z</time></trkpt><trkpt lat="42.5220311" lon="14.155985"><ele>4.8</ele><time>2026-05-01T07:04:40.936Z</time></trkpt><trkpt lat="42.5219743" lon="14.1561242"><ele>4.199999999999999</ele><time>2026-05-01T07:04:41.933Z</time></trkpt><trkpt lat="42.5219138" lon="14.1562541"><ele>3.5999999999999996</ele><time>2026-05-01T07:04:42.942Z</time></trkpt><trkpt lat="42.5218447" lon="14.1563696"><ele>3.0</ele><time>2026-05-01T07:04:43.936Z</time></trkpt><trkpt lat="42.5217748" lon="14.1564767"><ele>2.8</ele><time>2026-05-01T07:04:44.932Z</time></trkpt><trkpt lat="42.5217014" lon="14.1565845"><ele>2.5999999999999996</ele><time>2026-05-01T07:04:45.944Z</time></trkpt><trkpt lat="42.5216267" lon="14.1566791"><ele>2.4000000000000004</ele><time>2026-05-01T07:04:46.931Z</time></trkpt><trkpt lat="42.5215499" lon="14.1567706"><ele>2.2</ele><time>2026-05-01T07:04:47.932Z</time></trkpt><trkpt lat="42.5214749" lon="14.1568546"><ele>2.0</ele><time>2026-05-01T07:04:48.933Z</time></trkpt><trkpt lat="42.5214005" lon="14.1569351"><ele>2.0</ele><time>2026-05-01T07:04:49.933Z</time></trkpt><trkpt lat="42.5213249" lon="14.1570173"><ele>2.0</ele><time>2026-05-01T07:04:50.945Z</time></trkpt><trkpt lat="42.5212516" lon="14.1570933"><ele>2.0</ele><time>2026-05-01T07:04:51.936Z</time></trkpt><trkpt lat="42.5211789" lon="14.1571678"><ele>2.0</ele><time>2026-05-01T07:04:52.934Z</time></trkpt><trkpt lat="42.5211065" lon="14.1572443"><ele>2.0</ele><time>2026-05-01T07:04:53.936Z</time></trkpt><trkpt lat="42.5210311" lon="14.1573272"><ele>2.0</ele><time>2026-05-01T07:04:54.937Z</time></trkpt><trkpt lat="42.5209517" lon="14.1574174"><ele>2.0</ele><time>2026-05-01T07:04:55.945Z</time></trkpt><trkpt lat="42.5208645" lon="14.1575127"><ele>2.0</ele><time>2026-05-01T07:04:56.935Z</time></trkpt><trkpt lat="42.520773" lon="14.1576141"><ele>2.0</ele><time>2026-05-01T07:04:57.933Z</time></trkpt><trkpt lat="42.5206781" lon="14.1577234"><ele>2.0</ele><time>2026-05-01T07:04:58.935Z</time></trkpt><trkpt lat="42.5205785" lon="14.1578469"><ele>2.0</ele><time>2026-05-01T07:04:59.933Z</time></trkpt><trkpt lat="42.5204732" lon="14.1579658"><ele>2.0</ele><time>2026-05-01T07:05:00.946Z</time></trkpt><trkpt lat="42.5203573" lon="14.1580791"><ele>2.0</ele><time>2026-05-01T07:05:01.931Z</time></trkpt><trkpt lat="42.5202395" lon="14.1581933"><ele>2.25</ele><time>2026-05-01T07:05:02.932Z</time></trkpt><trkpt lat="42.5201293" lon="14.1583028"><ele>2.5</ele><time>2026-05-01T07:05:03.944Z</time></trkpt><trkpt lat="42.5200204" lon="14.1584098"><ele>2.75</ele><time>2026-05-01T07:05:04.938Z</time></trkpt><trkpt lat="42.5199092" lon="14.1585284"><ele>3.0</ele><time>2026-05-01T07:05:05.937Z</time></trkpt><trkpt lat="42.5198021" lon="14.1586473"><ele>3.0</ele><time>2026-05-01T07:05:06.936Z</time></trkpt><trkpt lat="42.5196943" lon="14.1587639"><ele>3.0</ele><time>2026-05-01T07:05:07.929Z</time></trkpt><trkpt lat="42.5195888" lon="14.1588781"><ele>3.0</ele><time>2026-05-01T07:05:08.93Z</time></trkpt><trkpt lat="42.5194898" lon="14.1589828"><ele>3.0</ele><time>2026-05-01T07:05:09.935Z</time></trkpt><trkpt lat="42.5193886" lon="14.1590986"><ele>2.75</ele><time>2026-05-01T07:05:10.934Z</time></trkpt><trkpt lat="42.5192882" lon="14.1592025"><ele>2.5</ele><time>2026-05-01T07:05:11.941Z</time></trkpt><trkpt lat="42.5191849" lon="14.1593069"><ele>2.25</ele><time>2026-05-01T07:05:12.93Z</time></trkpt><trkpt lat="42.5190843" lon="14.1594194"><ele>2.0</ele><time>2026-05-01T07:05:13.94Z</time></trkpt><trkpt lat="42.5189844" lon="14.1595286"><ele>2.0</ele><time>2026-05-01T07:05:14.932Z</time></trkpt><trkpt lat="42.5188875" lon="14.1596226"><ele>2.0</ele><time>2026-05-01T07:05:15.926Z</time></trkpt><trkpt lat="42.5188003" lon="14.1597155"><ele>2.0</ele><time>2026-05-01T07:05:16.936Z</time></trkpt><trkpt lat="42.5187177" lon="14.1598026"><ele>2.0</ele><time>2026-05-01T07:05:17.934Z</time></trkpt><trkpt lat="42.5186353" lon="14.1598881"><ele>2.0</ele><time>2026-05-01T07:05:18.934Z</time></trkpt><trkpt lat="42.5185574" lon="14.1599723"><ele>1.4000000000000001</ele><time>2026-05-01T07:05:19.935Z</time></trkpt><trkpt lat="42.5184747" lon="14.1600644"><ele>0.8000000000000002</ele><time>2026-05-01T07:05:20.932Z</time></trkpt><trkpt lat="42.5183949" lon="14.160159"><ele>0.19999999999999996</ele><time>2026-05-01T07:05:21.932Z</time></trkpt><trkpt lat="42.5183153" lon="14.1602454"><ele>-0.4</ele><time>2026-05-01T07:05:22.949Z</time></trkpt><trkpt lat="42.5182418" lon="14.1603237"><ele>-1.0</ele><time>2026-05-01T07:05:23.942Z</time></trkpt><trkpt lat="42.5181694" lon="14.1604027"><ele>-1.0</ele><time>2026-05-01T07:05:24.933Z</time></trkpt><trkpt lat="42.5180952" lon="14.1604881"><ele>-1.0</ele><time>2026-05-01T07:05:25.933Z</time></trkpt><trkpt lat="42.5180194" lon="14.1605669"><ele>-1.0</ele><time>2026-05-01T07:05:26.932Z</time></trkpt><trkpt lat="42.5179494" lon="14.1606407"><ele>-1.0</ele><time>2026-05-01T07:05:27.93Z</time></trkpt><trkpt lat="42.5178833" lon="14.1607133"><ele>-1.0</ele><time>2026-05-01T07:05:28.937Z</time></trkpt><trkpt lat="42.5178161" lon="14.1607897"><ele>-0.33333333333333326</ele><time>2026-05-01T07:05:29.928Z</time></trkpt><trkpt lat="42.517741" lon="14.1608694"><ele>0.33333333333333337</ele><time>2026-05-01T07:05:30.943Z</time></trkpt><trkpt lat="42.5176674" lon="14.1609379"><ele>1.0</ele><time>2026-05-01T07:05:31.935Z</time></trkpt><trkpt lat="42.5175957" lon="14.1610066"><ele>1.6666666666666667</ele><time>2026-05-01T07:05:32.93Z</time></trkpt><trkpt lat="42.5175255" lon="14.1610714"><ele>2.3333333333333335</ele><time>2026-05-01T07:05:33.936Z</time></trkpt><trkpt lat="42.5174624" lon="14.1611351"><ele>3.0</ele><time>2026-05-01T07:05:34.931Z</time></trkpt><trkpt lat="42.5173898" lon="14.1612087"><ele>3.0</ele><time>2026-05-01T07:05:35.953Z</time></trkpt><trkpt lat="42.517315" lon="14.1612799"><ele>3.0</ele><time>2026-05-01T07:05:36.935Z</time></trkpt><trkpt lat="42.5172383" lon="14.1613526"><ele>3.0</ele><time>2026-05-01T07:05:37.927Z</time></trkpt><trkpt lat="42.5171641" lon="14.1614311"><ele>3.0</ele><time>2026-05-01T07:05:38.93Z</time></trkpt><trkpt lat="42.5170942" lon="14.1615028"><ele>3.0</ele><time>2026-05-01T07:05:39.935Z</time></trkpt><trkpt lat="42.5170287" lon="14.1615625"><ele>3.0</ele><time>2026-05-01T07:05:40.941Z</time></trkpt><trkpt lat="42.5169771" lon="14.161637"><ele>3.1666666666666665</ele><time>2026-05-01T07:05:41.938Z</time></trkpt><trkpt lat="42.5169201" lon="14.1617037"><ele>3.333333333333333</ele><time>2026-05-01T07:05:42.935Z</time></trkpt><trkpt lat="42.5168722" lon="14.1617634"><ele>3.5</ele><time>2026-05-01T07:05:43.933Z</time></trkpt><trkpt lat="42.5168222" lon="14.1618266"><ele>3.6666666666666665</ele><time>2026-05-01T07:05:44.928Z</time></trkpt><trkpt lat="42.5167318" lon="14.1619185"><ele>3.833333333333333</ele><time>2026-05-01T07:05:46.932Z</time></trkpt><trkpt lat="42.5166536" lon="14.1620097"><ele>4.0</ele><time>2026-05-01T07:05:48.944Z</time></trkpt><trkpt lat="42.5165754" lon="14.1621023"><ele>4.0</ele><time>2026-05-01T07:05:50.93Z</time></trkpt><trkpt lat="42.5165034" lon="14.162188"><ele>4.0</ele><time>2026-05-01T07:05:52.945Z</time></trkpt><trkpt lat="42.5164068" lon="14.1622804"><ele>4.0</ele><time>2026-05-01T07:05:54.935Z</time></trkpt><trkpt lat="42.5163494" lon="14.1623405"><ele>4.0</ele><time>2026-05-01T07:05:55.932Z</time></trkpt><trkpt lat="42.5162853" lon="14.1624034"><ele>4.0</ele><time>2026-05-01T07:05:56.933Z</time></trkpt><trkpt lat="42.51621" lon="14.1624812"><ele>4.0</ele><time>2026-05-01T07:05:57.933Z</time></trkpt><trkpt lat="42.5161366" lon="14.1625605"><ele>4.0</ele><time>2026-05-01T07:05:58.929Z</time></trkpt><trkpt lat="42.5160577" lon="14.1626509"><ele>4.0</ele><time>2026-05-01T07:05:59.935Z</time></trkpt><trkpt lat="42.515974" lon="14.1627391"><ele>4.0</ele><time>2026-05-01T07:06:00.931Z</time></trkpt><trkpt lat="42.5158857" lon="14.1628374"><ele>4.0</ele><time>2026-05-01T07:06:01.941Z</time></trkpt><trkpt lat="42.5157925" lon="14.1629457"><ele>4.0</ele><time>2026-05-01T07:06:02.936Z</time></trkpt><trkpt lat="42.5156973" lon="14.1630589"><ele>4.0</ele><time>2026-05-01T07:06:03.932Z</time></trkpt><trkpt lat="42.5155986" lon="14.1631747"><ele>4.0</ele><time>2026-05-01T07:06:04.93Z</time></trkpt><trkpt lat="42.5154929" lon="14.1632946"><ele>4.0</ele><time>2026-05-01T07:06:05.935Z</time></trkpt><trkpt lat="42.5153876" lon="14.1634063"><ele>3.5</ele><time>2026-05-01T07:06:06.931Z</time></trkpt><trkpt lat="42.5152867" lon="14.1635032"><ele>3.0</ele><time>2026-05-01T07:06:07.942Z</time></trkpt><trkpt lat="42.5151882" lon="14.1636003"><ele>2.5</ele><time>2026-05-01T07:06:08.933Z</time></trkpt><trkpt lat="42.5151028" lon="14.1636878"><ele>2.0</ele><time>2026-05-01T07:06:09.935Z</time></trkpt><trkpt lat="42.5150206" lon="14.1637754"><ele>1.9999999999999998</ele><time>2026-05-01T07:06:10.935Z</time></trkpt><trkpt lat="42.5149455" lon="14.1638541"><ele>2.0</ele><time>2026-05-01T07:06:11.943Z</time></trkpt><trkpt lat="42.5148797" lon="14.1639254"><ele>2.0</ele><time>2026-05-01T07:06:12.931Z</time></trkpt><trkpt lat="42.5148231" lon="14.1639877"><ele>2.0</ele><time>2026-05-01T07:06:13.946Z</time></trkpt><trkpt lat="42.5147634" lon="14.1640498"><ele>1.9999999999999998</ele><time>2026-05-01T07:06:14.933Z</time></trkpt><trkpt lat="42.5146906" lon="14.1641288"><ele>2.0</ele><time>2026-05-01T07:06:15.941Z</time></trkpt><trkpt lat="42.514608" lon="14.1642281"><ele>1.75</ele><time>2026-05-01T07:06:16.939Z</time></trkpt><trkpt lat="42.51452" lon="14.1643254"><ele>1.5</ele><time>2026-05-01T07:06:17.928Z</time></trkpt><trkpt lat="42.5144218" lon="14.1644301"><ele>1.25</ele><time>2026-05-01T07:06:18.939Z</time></trkpt><trkpt lat="42.5143127" lon="14.1645365"><ele>1.0</ele><time>2026-05-01T07:06:19.936Z</time></trkpt><trkpt lat="42.5142061" lon="14.1646437"><ele>1.0</ele><time>2026-05-01T07:06:20.943Z</time></trkpt><trkpt lat="42.514102" lon="14.1647517"><ele>1.0</ele><time>2026-05-01T07:06:21.945Z</time></trkpt><trkpt lat="42.5140063" lon="14.1648575"><ele>1.0</ele><time>2026-05-01T07:06:22.937Z</time></trkpt><trkpt lat="42.5139109" lon="14.1649576"><ele>1.0</ele><time>2026-05-01T07:06:23.941Z</time></trkpt><trkpt lat="42.5138174" lon="14.1650555"><ele>1.25</ele><time>2026-05-01T07:06:24.94Z</time></trkpt><trkpt lat="42.5137274" lon="14.1651515"><ele>1.5</ele><time>2026-05-01T07:06:25.939Z</time></trkpt><trkpt lat="42.5136393" lon="14.1652496"><ele>1.75</ele><time>2026-05-01T07:06:26.943Z</time></trkpt><trkpt lat="42.5135503" lon="14.1653449"><ele>2.0</ele><time>2026-05-01T07:06:27.93Z</time></trkpt><trkpt lat="42.5134626" lon="14.1654412"><ele>2.0</ele><time>2026-05-01T07:06:28.935Z</time></trkpt><trkpt lat="42.5133828" lon="14.1655271"><ele>2.0</ele><time>2026-05-01T07:06:29.938Z</time></trkpt><trkpt lat="42.5133077" lon="14.1656093"><ele>2.0</ele><time>2026-05-01T07:06:30.939Z</time></trkpt><trkpt lat="42.5132321" lon="14.1656959"><ele>2.0</ele><time>2026-05-01T07:06:31.941Z</time></trkpt><trkpt lat="42.5131509" lon="14.1657818"><ele>2.0</ele><time>2026-05-01T07:06:32.94Z</time></trkpt><trkpt lat="42.5130638" lon="14.1658712"><ele>2.0</ele><time>2026-05-01T07:06:33.932Z</time></trkpt><trkpt lat="42.5129824" lon="14.1659544"><ele>2.0</ele><time>2026-05-01T07:06:34.943Z</time></trkpt><trkpt lat="42.5129011" lon="14.1660369"><ele>2.0</ele><time>2026-05-01T07:06:35.928Z</time></trkpt><trkpt lat="42.5128277" lon="14.1661235"><ele>2.0</ele><time>2026-05-01T07:06:36.941Z</time></trkpt><trkpt lat="42.5127552" lon="14.1662041"><ele>2.0</ele><time>2026-05-01T07:06:37.93Z</time></trkpt><trkpt lat="42.5126755" lon="14.1662863"><ele>2.0</ele><time>2026-05-01T07:06:38.938Z</time></trkpt><trkpt lat="42.5125909" lon="14.1663731"><ele>2.0</ele><time>2026-05-01T07:06:39.929Z</time></trkpt><trkpt lat="42.5125038" lon="14.1664678"><ele>2.0</ele><time>2026-05-01T07:06:40.944Z</time></trkpt><trkpt lat="42.5124234" lon="14.1665585"><ele>2.0</ele><time>2026-05-01T07:06:41.936Z</time></trkpt><trkpt lat="42.5123548" lon="14.1666334"><ele>2.0</ele><time>2026-05-01T07:06:42.94Z</time></trkpt><trkpt lat="42.5122896" lon="14.1667002"><ele>1.9999999999999998</ele><time>2026-05-01T07:06:43.93Z</time></trkpt><trkpt lat="42.5122275" lon="14.1667715"><ele>2.0</ele><time>2026-05-01T07:06:44.929Z</time></trkpt><trkpt lat="42.5121659" lon="14.1668368"><ele>2.0</ele><time>2026-05-01T07:06:45.937Z</time></trkpt><trkpt lat="42.5121014" lon="14.1669057"><ele>2.0</ele><time>2026-05-01T07:06:46.941Z</time></trkpt><trkpt lat="42.5120336" lon="14.1669786"><ele>1.9999999999999998</ele><time>2026-05-01T07:06:47.938Z</time></trkpt><trkpt lat="42.5119611" lon="14.1670559"><ele>2.0</ele><time>2026-05-01T07:06:48.937Z</time></trkpt><trkpt lat="42.5118844" lon="14.1671416"><ele>2.0</ele><time>2026-05-01T07:06:49.936Z</time></trkpt><trkpt lat="42.5118041" lon="14.1672244"><ele>2.0</ele><time>2026-05-01T07:06:50.936Z</time></trkpt><trkpt lat="42.5117246" lon="14.1673009"><ele>2.0</ele><time>2026-05-01T07:06:51.936Z</time></trkpt><trkpt lat="42.511652" lon="14.167377"><ele>2.0</ele><time>2026-05-01T07:06:52.934Z</time></trkpt><trkpt lat="42.5115729" lon="14.1674588"><ele>2.0</ele><time>2026-05-01T07:06:53.937Z</time></trkpt><trkpt lat="42.5114934" lon="14.1675467"><ele>1.9999999999999998</ele><time>2026-05-01T07:06:54.937Z</time></trkpt><trkpt lat="42.5114204" lon="14.1676278"><ele>2.0</ele><time>2026-05-01T07:06:55.931Z</time></trkpt><trkpt lat="42.5113449" lon="14.1676972"><ele>2.0</ele><time>2026-05-01T07:06:56.929Z</time></trkpt><trkpt lat="42.5112769" lon="14.1677713"><ele>2.0</ele><time>2026-05-01T07:06:57.937Z</time></trkpt><trkpt lat="42.5112159" lon="14.1678339"><ele>1.9999999999999998</ele><time>2026-05-01T07:06:58.935Z</time></trkpt><trkpt lat="42.5111577" lon="14.1678896"><ele>2.0</ele><time>2026-05-01T07:06:59.942Z</time></trkpt><trkpt lat="42.5111038" lon="14.1679516"><ele>2.0</ele><time>2026-05-01T07:07:00.939Z</time></trkpt><trkpt lat="42.5110433" lon="14.1680107"><ele>1.9999999999999998</ele><time>2026-05-01T07:07:01.929Z</time></trkpt><trkpt lat="42.510985" lon="14.168075"><ele>2.0</ele><time>2026-05-01T07:07:02.94Z</time></trkpt><trkpt lat="42.5109306" lon="14.168138"><ele>2.0</ele><time>2026-05-01T07:07:03.933Z</time></trkpt><trkpt lat="42.5108754" lon="14.1681944"><ele>1.9999999999999998</ele><time>2026-05-01T07:07:04.946Z</time></trkpt><trkpt lat="42.5108233" lon="14.168253"><ele>2.0</ele><time>2026-05-01T07:07:05.943Z</time></trkpt><trkpt lat="42.510767" lon="14.1683174"><ele>2.0</ele><time>2026-05-01T07:07:06.928Z</time></trkpt><trkpt lat="42.5107056" lon="14.1683812"><ele>1.9999999999999998</ele><time>2026-05-01T07:07:07.941Z</time></trkpt><trkpt lat="42.5106399" lon="14.1684532"><ele>2.0</ele><time>2026-05-01T07:07:08.941Z</time></trkpt><trkpt lat="42.5105801" lon="14.1685193"><ele>2.0</ele><time>2026-05-01T07:07:09.934Z</time></trkpt><trkpt lat="42.510519" lon="14.1685825"><ele>2.0</ele><time>2026-05-01T07:07:10.931Z</time></trkpt><trkpt lat="42.510463" lon="14.168643"><ele>1.9999999999999998</ele><time>2026-05-01T07:07:11.93Z</time></trkpt><trkpt lat="42.5104075" lon="14.1687016"><ele>2.0</ele><time>2026-05-01T07:07:12.944Z</time></trkpt><trkpt lat="42.5103516" lon="14.1687595"><ele>1.8</ele><time>2026-05-01T07:07:13.932Z</time></trkpt><trkpt lat="42.5102973" lon="14.1688145"><ele>1.6</ele><time>2026-05-01T07:07:14.948Z</time></trkpt><trkpt lat="42.5102372" lon="14.1688702"><ele>1.4000000000000001</ele><time>2026-05-01T07:07:15.943Z</time></trkpt><trkpt lat="42.5101793" lon="14.1689232"><ele>1.2000000000000002</ele><time>2026-05-01T07:07:16.933Z</time></trkpt><trkpt lat="42.5100668" lon="14.1689752"><ele>1.0</ele><time>2026-05-01T07:07:18.957Z</time></trkpt><trkpt lat="42.5099479" lon="14.1689398"><ele>1.0</ele><time>2026-05-01T07:07:20.943Z</time></trkpt><trkpt lat="42.509888" lon="14.1688781"><ele>1.0</ele><time>2026-05-01T07:07:21.94Z</time></trkpt><trkpt lat="42.5098328" lon="14.1687911"><ele>1.0</ele><time>2026-05-01T07:07:22.939Z</time></trkpt><trkpt lat="42.509781" lon="14.1686955"><ele>1.0</ele><time>2026-05-01T07:07:23.934Z</time></trkpt><trkpt lat="42.5097119" lon="14.16858"><ele>1.0</ele><time>2026-05-01T07:07:24.944Z</time></trkpt><trkpt lat="42.5096306" lon="14.168458"><ele>1.2000000000000002</ele><time>2026-05-01T07:07:25.929Z</time></trkpt><trkpt lat="42.5095516" lon="14.1683445"><ele>1.4000000000000001</ele><time>2026-05-01T07:07:26.935Z</time></trkpt><trkpt lat="42.5094743" lon="14.1682349"><ele>1.6</ele><time>2026-05-01T07:07:27.935Z</time></trkpt><trkpt lat="42.5094068" lon="14.168132"><ele>1.8</ele><time>2026-05-01T07:07:28.941Z</time></trkpt><trkpt lat="42.5093325" lon="14.1680284"><ele>2.0</ele><time>2026-05-01T07:07:29.935Z</time></trkpt><trkpt lat="42.5092472" lon="14.1679216"><ele>2.2</ele><time>2026-05-01T07:07:30.94Z</time></trkpt><trkpt lat="42.5091685" lon="14.1677988"><ele>2.4000000000000004</ele><time>2026-05-01T07:07:31.935Z</time></trkpt><trkpt lat="42.5091012" lon="14.1676875"><ele>2.5999999999999996</ele><time>2026-05-01T07:07:32.938Z</time></trkpt><trkpt lat="42.5090396" lon="14.1675835"><ele>2.8</ele><time>2026-05-01T07:07:33.933Z</time></trkpt><trkpt lat="42.5089781" lon="14.167481"><ele>3.0</ele><time>2026-05-01T07:07:34.934Z</time></trkpt><trkpt lat="42.5089163" lon="14.1673835"><ele>3.0</ele><time>2026-05-01T07:07:35.934Z</time></trkpt><trkpt lat="42.5088511" lon="14.1672844"><ele>3.0</ele><time>2026-05-01T07:07:36.936Z</time></trkpt><trkpt lat="42.5087742" lon="14.1671756"><ele>3.0</ele><time>2026-05-01T07:07:37.934Z</time></trkpt><trkpt lat="42.508696" lon="14.1670496"><ele>3.0</ele><time>2026-05-01T07:07:38.947Z</time></trkpt><trkpt lat="42.5086239" lon="14.1669178"><ele>2.8</ele><time>2026-05-01T07:07:39.968Z</time></trkpt><trkpt lat="42.5085581" lon="14.1667945"><ele>2.5999999999999996</ele><time>2026-05-01T07:07:40.934Z</time></trkpt><trkpt lat="42.5084852" lon="14.1666728"><ele>2.4000000000000004</ele><time>2026-05-01T07:07:41.938Z</time></trkpt><trkpt lat="42.5084152" lon="14.1665561"><ele>2.2</ele><time>2026-05-01T07:07:42.938Z</time></trkpt><trkpt lat="42.5083503" lon="14.1664532"><ele>2.0</ele><time>2026-05-01T07:07:43.945Z</time></trkpt><trkpt lat="42.5082871" lon="14.1663519"><ele>2.6</ele><time>2026-05-01T07:07:44.935Z</time></trkpt><trkpt lat="42.50823" lon="14.1662494"><ele>3.2</ele><time>2026-05-01T07:07:45.938Z</time></trkpt><trkpt lat="42.5081741" lon="14.1661504"><ele>3.8</ele><time>2026-05-01T07:07:46.932Z</time></trkpt><trkpt lat="42.5081147" lon="14.1660605"><ele>4.4</ele><time>2026-05-01T07:07:47.938Z</time></trkpt><trkpt lat="42.5080466" lon="14.1659749"><ele>5.0</ele><time>2026-05-01T07:07:48.942Z</time></trkpt><trkpt lat="42.5079846" lon="14.1658854"><ele>5.0</ele><time>2026-05-01T07:07:49.933Z</time></trkpt><trkpt lat="42.5079259" lon="14.1657889"><ele>5.0</ele><time>2026-05-01T07:07:50.939Z</time></trkpt><trkpt lat="42.5078613" lon="14.1656923"><ele>5.0</ele><time>2026-05-01T07:07:51.93Z</time></trkpt><trkpt lat="42.5077987" lon="14.1656049"><ele>5.0</ele><time>2026-05-01T07:07:52.938Z</time></trkpt><trkpt lat="42.5077392" lon="14.1655169"><ele>5.0</ele><time>2026-05-01T07:07:53.943Z</time></trkpt><trkpt lat="42.5076889" lon="14.1654354"><ele>5.0</ele><time>2026-05-01T07:07:54.937Z</time></trkpt><trkpt lat="42.5076429" lon="14.1653548"><ele>4.666666666666667</ele><time>2026-05-01T07:07:55.943Z</time></trkpt><trkpt lat="42.5075932" lon="14.1652831"><ele>4.333333333333334</ele><time>2026-05-01T07:07:56.946Z</time></trkpt><trkpt lat="42.5075447" lon="14.1652054"><ele>4.0</ele><time>2026-05-01T07:07:57.95Z</time></trkpt><trkpt lat="42.5074977" lon="14.1651405"><ele>3.666666666666667</ele><time>2026-05-01T07:07:58.933Z</time></trkpt><trkpt lat="42.5074278" lon="14.1650381"><ele>3.3333333333333335</ele><time>2026-05-01T07:08:00.94Z</time></trkpt><trkpt lat="42.5073751" lon="14.1649409"><ele>3.0</ele><time>2026-05-01T07:08:02.944Z</time></trkpt><trkpt lat="42.5073102" lon="14.1648552"><ele>2.8333333333333335</ele><time>2026-05-01T07:08:04.945Z</time></trkpt><trkpt lat="42.5072163" lon="14.1647209"><ele>2.6666666666666665</ele><time>2026-05-01T07:08:06.93Z</time></trkpt><trkpt lat="42.5071605" lon="14.1646548"><ele>2.5</ele><time>2026-05-01T07:08:07.934Z</time></trkpt><trkpt lat="42.5071074" lon="14.1645903"><ele>2.333333333333333</ele><time>2026-05-01T07:08:08.931Z</time></trkpt><trkpt lat="42.5070588" lon="14.1645215"><ele>2.1666666666666665</ele><time>2026-05-01T07:08:09.936Z</time></trkpt><trkpt lat="42.5070105" lon="14.1644592"><ele>2.0</ele><time>2026-05-01T07:08:10.934Z</time></trkpt><trkpt lat="42.5069598" lon="14.1643941"><ele>1.9999999999999998</ele><time>2026-05-01T07:08:11.936Z</time></trkpt><trkpt lat="42.5069039" lon="14.164323"><ele>2.0</ele><time>2026-05-01T07:08:12.936Z</time></trkpt><trkpt lat="42.5068507" lon="14.1642467"><ele>2.0</ele><time>2026-05-01T07:08:13.933Z</time></trkpt><trkpt lat="42.5067987" lon="14.1641691"><ele>2.0</ele><time>2026-05-01T07:08:14.945Z</time></trkpt><trkpt lat="42.5067539" lon="14.1640982"><ele>1.9999999999999998</ele><time>2026-05-01T07:08:15.931Z</time></trkpt><trkpt lat="42.5067083" lon="14.164039"><ele>2.0</ele><time>2026-05-01T07:08:16.939Z</time></trkpt><trkpt lat="42.5066265" lon="14.1639466"><ele>1.8333333333333333</ele><time>2026-05-01T07:08:18.925Z</time></trkpt><trkpt lat="42.5065604" lon="14.1638169"><ele>1.6666666666666665</ele><time>2026-05-01T07:08:20.936Z</time></trkpt><trkpt lat="42.5065191" lon="14.1637455"><ele>1.5</ele><time>2026-05-01T07:08:21.932Z</time></trkpt><trkpt lat="42.5064705" lon="14.1636704"><ele>1.3333333333333333</ele><time>2026-05-01T07:08:22.934Z</time></trkpt><trkpt lat="42.5064155" lon="14.1635962"><ele>1.1666666666666665</ele><time>2026-05-01T07:08:23.932Z</time></trkpt><trkpt lat="42.5063627" lon="14.1635186"><ele>1.0</ele><time>2026-05-01T07:08:24.935Z</time></trkpt><trkpt lat="42.5063161" lon="14.1634488"><ele>1.2000000000000002</ele><time>2026-05-01T07:08:25.94Z</time></trkpt><trkpt lat="42.5062388" lon="14.1633296"><ele>1.4000000000000001</ele><time>2026-05-01T07:08:27.936Z</time></trkpt><trkpt lat="42.5061776" lon="14.1632219"><ele>1.6</ele><time>2026-05-01T07:08:29.93Z</time></trkpt><trkpt lat="42.5061362" lon="14.1631355"><ele>1.8</ele><time>2026-05-01T07:08:31.94Z</time></trkpt><trkpt lat="42.506098" lon="14.1630667"><ele>2.0</ele><time>2026-05-01T07:08:34.935Z</time></trkpt><trkpt lat="42.5060394" lon="14.1629489"><ele>2.0</ele><time>2026-05-01T07:09:41.936Z</time></trkpt><trkpt lat="42.505986" lon="14.1628814"><ele>2.0</ele><time>2026-05-01T07:09:43.95Z</time></trkpt><trkpt lat="42.5059159" lon="14.1628507"><ele>2.0</ele><time>2026-05-01T07:09:45.933Z</time></trkpt><trkpt lat="42.5057953" lon="14.1629294"><ele>2.0</ele><time>2026-05-01T07:09:47.938Z</time></trkpt><trkpt lat="42.5057358" lon="14.1630097"><ele>2.0</ele><time>2026-05-01T07:09:48.941Z</time></trkpt><trkpt lat="42.5056666" lon="14.1631125"><ele>2.0</ele><time>2026-05-01T07:09:49.938Z</time></trkpt><trkpt lat="42.505592" lon="14.1632162"><ele>2.0</ele><time>2026-05-01T07:09:50.928Z</time></trkpt><trkpt lat="42.5055063" lon="14.1633241"><ele>2.0</ele><time>2026-05-01T07:09:51.935Z</time></trkpt><trkpt lat="42.5054188" lon="14.163434"><ele>2.0</ele><time>2026-05-01T07:09:52.936Z</time></trkpt><trkpt lat="42.5053315" lon="14.1635277"><ele>2.25</ele><time>2026-05-01T07:09:53.937Z</time></trkpt><trkpt lat="42.5052508" lon="14.163617"><ele>2.5</ele><time>2026-05-01T07:09:54.939Z</time></trkpt><trkpt lat="42.5051624" lon="14.163725"><ele>2.75</ele><time>2026-05-01T07:09:55.935Z</time></trkpt><trkpt lat="42.50507" lon="14.1638368"><ele>3.0</ele><time>2026-05-01T07:09:56.944Z</time></trkpt><trkpt lat="42.5049759" lon="14.1639489"><ele>2.75</ele><time>2026-05-01T07:09:57.939Z</time></trkpt><trkpt lat="42.5048806" lon="14.1640604"><ele>2.5</ele><time>2026-05-01T07:09:58.928Z</time></trkpt><trkpt lat="42.504788" lon="14.1641748"><ele>2.25</ele><time>2026-05-01T07:09:59.943Z</time></trkpt><trkpt lat="42.5046937" lon="14.1642868"><ele>2.0</ele><time>2026-05-01T07:10:00.935Z</time></trkpt><trkpt lat="42.5045985" lon="14.1643995"><ele>2.0</ele><time>2026-05-01T07:10:01.936Z</time></trkpt><trkpt lat="42.5045008" lon="14.1645186"><ele>2.0</ele><time>2026-05-01T07:10:02.941Z</time></trkpt><trkpt lat="42.504399" lon="14.164643"><ele>2.0</ele><time>2026-05-01T07:10:03.936Z</time></trkpt><trkpt lat="42.5043" lon="14.164769"><ele>2.0</ele><time>2026-05-01T07:10:04.93Z</time></trkpt><trkpt lat="42.5042011" lon="14.1648876"><ele>2.0</ele><time>2026-05-01T07:10:05.931Z</time></trkpt><trkpt lat="42.5041007" lon="14.1650111"><ele>2.0</ele><time>2026-05-01T07:10:06.936Z</time></trkpt><trkpt lat="42.5040031" lon="14.1651287"><ele>2.0</ele><time>2026-05-01T07:10:07.938Z</time></trkpt><trkpt lat="42.5039107" lon="14.1652367"><ele>2.0</ele><time>2026-05-01T07:10:08.941Z</time></trkpt><trkpt lat="42.5038182" lon="14.1653429"><ele>2.75</ele><time>2026-05-01T07:10:09.935Z</time></trkpt><trkpt lat="42.50372" lon="14.1654488"><ele>3.5</ele><time>2026-05-01T07:10:10.937Z</time></trkpt><trkpt lat="42.503624" lon="14.1655627"><ele>4.25</ele><time>2026-05-01T07:10:11.935Z</time></trkpt><trkpt lat="42.503529" lon="14.1656857"><ele>5.0</ele><time>2026-05-01T07:10:12.933Z</time></trkpt><trkpt lat="42.503437" lon="14.1658037"><ele>5.0</ele><time>2026-05-01T07:10:13.938Z</time></trkpt><trkpt lat="42.5033527" lon="14.1659064"><ele>5.0</ele><time>2026-05-01T07:10:14.953Z</time></trkpt><trkpt lat="42.5032842" lon="14.1659955"><ele>5.0</ele><time>2026-05-01T07:10:15.93Z</time></trkpt><trkpt lat="42.503227" lon="14.166063"><ele>5.0</ele><time>2026-05-01T07:10:16.942Z</time></trkpt><trkpt lat="42.5031397" lon="14.1661652"><ele>5.0</ele><time>2026-05-01T07:10:18.933Z</time></trkpt><trkpt lat="42.5030495" lon="14.1662637"><ele>5.0</ele><time>2026-05-01T07:10:20.938Z</time></trkpt><trkpt lat="42.5029996" lon="14.166321"><ele>5.0</ele><time>2026-05-01T07:10:21.937Z</time></trkpt><trkpt lat="42.5029411" lon="14.1663967"><ele>5.0</ele><time>2026-05-01T07:10:22.934Z</time></trkpt><trkpt lat="42.5028627" lon="14.1664946"><ele>5.0</ele><time>2026-05-01T07:10:23.942Z</time></trkpt><trkpt lat="42.5027809" lon="14.1665956"><ele>5.0</ele><time>2026-05-01T07:10:24.934Z</time></trkpt><trkpt lat="42.5026955" lon="14.1667041"><ele>4.75</ele><time>2026-05-01T07:10:25.936Z</time></trkpt><trkpt lat="42.5026078" lon="14.1668093"><ele>4.5</ele><time>2026-05-01T07:10:26.939Z</time></trkpt><trkpt lat="42.5025162" lon="14.1669191"><ele>4.25</ele><time>2026-05-01T07:10:27.94Z</time></trkpt><trkpt lat="42.502424" lon="14.1670245"><ele>4.0</ele><time>2026-05-01T07:10:28.935Z</time></trkpt><trkpt lat="42.5023283" lon="14.1671428"><ele>4.0</ele><time>2026-05-01T07:10:29.936Z</time></trkpt><trkpt lat="42.5022261" lon="14.1672742"><ele>4.0</ele><time>2026-05-01T07:10:30.93Z</time></trkpt><trkpt lat="42.5021235" lon="14.1674031"><ele>4.0</ele><time>2026-05-01T07:10:31.939Z</time></trkpt><trkpt lat="42.5020246" lon="14.1675215"><ele>4.0</ele><time>2026-05-01T07:10:32.932Z</time></trkpt><trkpt lat="42.5019365" lon="14.1676311"><ele>4.0</ele><time>2026-05-01T07:10:33.927Z</time></trkpt><trkpt lat="42.5018462" lon="14.167733"><ele>4.0</ele><time>2026-05-01T07:10:34.933Z</time></trkpt><trkpt lat="42.5017554" lon="14.1678421"><ele>4.0</ele><time>2026-05-01T07:10:35.933Z</time></trkpt><trkpt lat="42.5016587" lon="14.1679536"><ele>4.0</ele><time>2026-05-01T07:10:36.935Z</time></trkpt><trkpt lat="42.5015635" lon="14.1680734"><ele>4.0</ele><time>2026-05-01T07:10:37.932Z</time></trkpt><trkpt lat="42.5014679" lon="14.1681851"><ele>4.0</ele><time>2026-05-01T07:10:38.942Z</time></trkpt><trkpt lat="42.5013697" lon="14.168292"><ele>4.0</ele><time>2026-05-01T07:10:39.936Z</time></trkpt><trkpt lat="42.5012708" lon="14.1684043"><ele>4.0</ele><time>2026-05-01T07:10:40.933Z</time></trkpt><trkpt lat="42.5011771" lon="14.1685222"><ele>4.0</ele><time>2026-05-01T07:10:41.936Z</time></trkpt><trkpt lat="42.5010893" lon="14.1686366"><ele>4.0</ele><time>2026-05-01T07:10:42.939Z</time></trkpt><trkpt lat="42.5010051" lon="14.1687487"><ele>4.0</ele><time>2026-05-01T07:10:43.934Z</time></trkpt><trkpt lat="42.5009187" lon="14.1688593"><ele>4.0</ele><time>2026-05-01T07:10:44.935Z</time></trkpt><trkpt lat="42.500827" lon="14.1689712"><ele>4.0</ele><time>2026-05-01T07:10:45.94Z</time></trkpt><trkpt lat="42.5007302" lon="14.1690775"><ele>4.0</ele><time>2026-05-01T07:10:46.942Z</time></trkpt><trkpt lat="42.5006348" lon="14.1691875"><ele>4.0</ele><time>2026-05-01T07:10:47.933Z</time></trkpt><trkpt lat="42.5005388" lon="14.1693051"><ele>4.0</ele><time>2026-05-01T07:10:48.946Z</time></trkpt><trkpt lat="42.5004477" lon="14.1694237"><ele>3.75</ele><time>2026-05-01T07:10:49.932Z</time></trkpt><trkpt lat="42.5003561" lon="14.1695378"><ele>3.5</ele><time>2026-05-01T07:10:50.929Z</time></trkpt><trkpt lat="42.500271" lon="14.1696442"><ele>3.25</ele><time>2026-05-01T07:10:51.931Z</time></trkpt><trkpt lat="42.5001822" lon="14.1697556"><ele>3.0</ele><time>2026-05-01T07:10:52.932Z</time></trkpt><trkpt lat="42.5000921" lon="14.1698689"><ele>2.8</ele><time>2026-05-01T07:10:53.931Z</time></trkpt><trkpt lat="42.5000055" lon="14.1699781"><ele>2.5999999999999996</ele><time>2026-05-01T07:10:54.935Z</time></trkpt><trkpt lat="42.4999234" lon="14.1700779"><ele>2.4000000000000004</ele><time>2026-05-01T07:10:55.932Z</time></trkpt><trkpt lat="42.4998447" lon="14.1701763"><ele>2.2</ele><time>2026-05-01T07:10:56.939Z</time></trkpt><trkpt lat="42.4997669" lon="14.1702705"><ele>2.0</ele><time>2026-05-01T07:10:57.94Z</time></trkpt><trkpt lat="42.4996892" lon="14.170361"><ele>2.0</ele><time>2026-05-01T07:10:58.938Z</time></trkpt><trkpt lat="42.4996084" lon="14.1704518"><ele>2.0</ele><time>2026-05-01T07:10:59.936Z</time></trkpt><trkpt lat="42.499529" lon="14.1705501"><ele>2.0</ele><time>2026-05-01T07:11:00.935Z</time></trkpt><trkpt lat="42.4994462" lon="14.1706492"><ele>2.0</ele><time>2026-05-01T07:11:01.944Z</time></trkpt><trkpt lat="42.4993632" lon="14.1707481"><ele>2.0</ele><time>2026-05-01T07:11:02.936Z</time></trkpt><trkpt lat="42.4992783" lon="14.1708467"><ele>2.5</ele><time>2026-05-01T07:11:03.925Z</time></trkpt><trkpt lat="42.4991889" lon="14.1709535"><ele>3.0</ele><time>2026-05-01T07:11:04.945Z</time></trkpt><trkpt lat="42.4991046" lon="14.1710628"><ele>3.5</ele><time>2026-05-01T07:11:05.94Z</time></trkpt><trkpt lat="42.499023" lon="14.1711673"><ele>4.0</ele><time>2026-05-01T07:11:06.946Z</time></trkpt><trkpt lat="42.4989421" lon="14.1712691"><ele>4.0</ele><time>2026-05-01T07:11:07.935Z</time></trkpt><trkpt lat="42.4988554" lon="14.1713739"><ele>4.0</ele><time>2026-05-01T07:11:08.944Z</time></trkpt><trkpt lat="42.4987725" lon="14.1714732"><ele>4.0</ele><time>2026-05-01T07:11:09.939Z</time></trkpt><trkpt lat="42.4986952" lon="14.1715694"><ele>4.0</ele><time>2026-05-01T07:11:10.937Z</time></trkpt><trkpt lat="42.4986217" lon="14.1716613"><ele>4.0</ele><time>2026-05-01T07:11:11.94Z</time></trkpt><trkpt lat="42.4985424" lon="14.171756"><ele>3.8000000000000003</ele><time>2026-05-01T07:11:12.937Z</time></trkpt><trkpt lat="42.4984626" lon="14.1718536"><ele>3.6000000000000005</ele><time>2026-05-01T07:11:13.935Z</time></trkpt><trkpt lat="42.4983811" lon="14.1719494"><ele>3.4</ele><time>2026-05-01T07:11:14.945Z</time></trkpt><trkpt lat="42.4983108" lon="14.1720306"><ele>3.2</ele><time>2026-05-01T07:11:15.934Z</time></trkpt><trkpt lat="42.498244" lon="14.1721004"><ele>3.0</ele><time>2026-05-01T07:11:16.947Z</time></trkpt><trkpt lat="42.498184" lon="14.1721685"><ele>3.0</ele><time>2026-05-01T07:11:17.937Z</time></trkpt><trkpt lat="42.4981258" lon="14.172229"><ele>3.0</ele><time>2026-05-01T07:11:18.94Z</time></trkpt><trkpt lat="42.4980661" lon="14.1723142"><ele>3.0</ele><time>2026-05-01T07:11:19.932Z</time></trkpt><trkpt lat="42.4979985" lon="14.1724087"><ele>3.0</ele><time>2026-05-01T07:11:20.935Z</time></trkpt><trkpt lat="42.4979264" lon="14.1725035"><ele>3.0</ele><time>2026-05-01T07:11:21.94Z</time></trkpt><trkpt lat="42.4978499" lon="14.1725988"><ele>3.4</ele><time>2026-05-01T07:11:22.936Z</time></trkpt><trkpt lat="42.4977674" lon="14.1726971"><ele>3.8</ele><time>2026-05-01T07:11:23.949Z</time></trkpt><trkpt lat="42.4976901" lon="14.1727884"><ele>4.2</ele><time>2026-05-01T07:11:24.933Z</time></trkpt><trkpt lat="42.4976189" lon="14.1728728"><ele>4.6</ele><time>2026-05-01T07:11:25.932Z</time></trkpt><trkpt lat="42.4975474" lon="14.1729581"><ele>5.0</ele><time>2026-05-01T07:11:26.93Z</time></trkpt><trkpt lat="42.4974767" lon="14.1730461"><ele>5.0</ele><time>2026-05-01T07:11:27.932Z</time></trkpt><trkpt lat="42.4974049" lon="14.173132"><ele>5.0</ele><time>2026-05-01T07:11:28.935Z</time></trkpt><trkpt lat="42.4973375" lon="14.1732091"><ele>5.0</ele><time>2026-05-01T07:11:29.933Z</time></trkpt><trkpt lat="42.4972704" lon="14.1732845"><ele>5.0</ele><time>2026-05-01T07:11:30.947Z</time></trkpt><trkpt lat="42.4972069" lon="14.1733635"><ele>5.0</ele><time>2026-05-01T07:11:31.929Z</time></trkpt><trkpt lat="42.4971447" lon="14.1734371"><ele>5.0</ele><time>2026-05-01T07:11:32.94Z</time></trkpt><trkpt lat="42.4970947" lon="14.1734963"><ele>5.0</ele><time>2026-05-01T07:11:33.936Z</time></trkpt><trkpt lat="42.4970162" lon="14.1735925"><ele>5.0</ele><time>2026-05-01T07:11:35.932Z</time></trkpt><trkpt lat="42.4969516" lon="14.1736775"><ele>5.0</ele><time>2026-05-01T07:11:37.938Z</time></trkpt><trkpt lat="42.4968932" lon="14.1737469"><ele>5.0</ele><time>2026-05-01T07:11:40.937Z</time></trkpt><trkpt lat="42.4968239" lon="14.1738261"><ele>5.0</ele><time>2026-05-01T07:12:00.933Z</time></trkpt><trkpt lat="42.4967822" lon="14.1739041"><ele>5.0</ele><time>2026-05-01T07:12:02.937Z</time></trkpt><trkpt lat="42.4967903" lon="14.1740087"><ele>4.6</ele><time>2026-05-01T07:12:04.934Z</time></trkpt><trkpt lat="42.4968762" lon="14.1741547"><ele>4.2</ele><time>2026-05-01T07:12:06.94Z</time></trkpt><trkpt lat="42.4969212" lon="14.1742322"><ele>3.8</ele><time>2026-05-01T07:12:07.943Z</time></trkpt><trkpt lat="42.4969716" lon="14.1743153"><ele>3.4</ele><time>2026-05-01T07:12:08.931Z</time></trkpt><trkpt lat="42.4970312" lon="14.174408"><ele>3.0</ele><time>2026-05-01T07:12:09.941Z</time></trkpt><trkpt lat="42.497084" lon="14.1744967"><ele>3.0</ele><time>2026-05-01T07:12:10.932Z</time></trkpt><trkpt lat="42.4971469" lon="14.174588"><ele>3.0</ele><time>2026-05-01T07:12:11.931Z</time></trkpt><trkpt lat="42.4972049" lon="14.1746799"><ele>3.0</ele><time>2026-05-01T07:12:12.935Z</time></trkpt><trkpt lat="42.4972619" lon="14.1747659"><ele>3.0</ele><time>2026-05-01T07:12:13.935Z</time></trkpt><trkpt lat="42.4973164" lon="14.1748577"><ele>3.0</ele><time>2026-05-01T07:12:14.941Z</time></trkpt><trkpt lat="42.4973713" lon="14.1749392"><ele>3.0</ele><time>2026-05-01T07:12:15.933Z</time></trkpt><trkpt lat="42.4974237" lon="14.1750193"><ele>3.0</ele><time>2026-05-01T07:12:16.947Z</time></trkpt><trkpt lat="42.4974785" lon="14.1751043"><ele>3.0</ele><time>2026-05-01T07:12:17.936Z</time></trkpt><trkpt lat="42.4975313" lon="14.1751865"><ele>3.0</ele><time>2026-05-01T07:12:18.932Z</time></trkpt><trkpt lat="42.4975844" lon="14.1752712"><ele>3.0</ele><time>2026-05-01T07:12:19.928Z</time></trkpt><trkpt lat="42.4976486" lon="14.1753615"><ele>3.0</ele><time>2026-05-01T07:12:20.931Z</time></trkpt><trkpt lat="42.4977087" lon="14.1754475"><ele>3.0</ele><time>2026-05-01T07:12:21.942Z</time></trkpt><trkpt lat="42.4977641" lon="14.1755228"><ele>3.0</ele><time>2026-05-01T07:12:22.936Z</time></trkpt><trkpt lat="42.4978144" lon="14.1755972"><ele>3.0</ele><time>2026-05-01T07:12:23.93Z</time></trkpt><trkpt lat="42.497864" lon="14.175672"><ele>3.0</ele><time>2026-05-01T07:12:24.933Z</time></trkpt><trkpt lat="42.4979079" lon="14.1757429"><ele>3.0</ele><time>2026-05-01T07:12:25.933Z</time></trkpt><trkpt lat="42.4979573" lon="14.1757975"><ele>3.0</ele><time>2026-05-01T07:12:26.94Z</time></trkpt><trkpt lat="42.4980338" lon="14.1759246"><ele>3.0</ele><time>2026-05-01T07:12:28.943Z</time></trkpt><trkpt lat="42.4981053" lon="14.1760431"><ele>3.2</ele><time>2026-05-01T07:12:30.938Z</time></trkpt><trkpt lat="42.4981837" lon="14.1761629"><ele>3.4</ele><time>2026-05-01T07:12:32.942Z</time></trkpt><trkpt lat="42.4982655" lon="14.1763023"><ele>3.6000000000000005</ele><time>2026-05-01T07:12:34.93Z</time></trkpt><trkpt lat="42.4983158" lon="14.1763779"><ele>3.8000000000000003</ele><time>2026-05-01T07:12:35.935Z</time></trkpt><trkpt lat="42.4983689" lon="14.176465"><ele>4.0</ele><time>2026-05-01T07:12:36.934Z</time></trkpt><trkpt lat="42.4984313" lon="14.1765459"><ele>4.166666666666666</ele><time>2026-05-01T07:12:37.932Z</time></trkpt><trkpt lat="42.4984842" lon="14.176632"><ele>4.333333333333333</ele><time>2026-05-01T07:12:38.935Z</time></trkpt><trkpt lat="42.4985338" lon="14.1767099"><ele>4.5</ele><time>2026-05-01T07:12:39.94Z</time></trkpt><trkpt lat="42.4985857" lon="14.1767813"><ele>4.666666666666667</ele><time>2026-05-01T07:12:40.931Z</time></trkpt><trkpt lat="42.4986371" lon="14.1768569"><ele>4.833333333333334</ele><time>2026-05-01T07:12:41.943Z</time></trkpt><trkpt lat="42.4986984" lon="14.1769396"><ele>5.0</ele><time>2026-05-01T07:12:42.93Z</time></trkpt><trkpt lat="42.4987609" lon="14.1770349"><ele>5.0</ele><time>2026-05-01T07:12:43.934Z</time></trkpt><trkpt lat="42.498824" lon="14.177132"><ele>5.0</ele><time>2026-05-01T07:12:44.939Z</time></trkpt><trkpt lat="42.4988859" lon="14.1772128"><ele>5.0</ele><time>2026-05-01T07:12:45.931Z</time></trkpt><trkpt lat="42.4989447" lon="14.1772928"><ele>5.0</ele><time>2026-05-01T07:12:46.944Z</time></trkpt><trkpt lat="42.4989986" lon="14.1773826"><ele>5.0</ele><time>2026-05-01T07:12:47.935Z</time></trkpt><trkpt lat="42.4990609" lon="14.1774822"><ele>5.0</ele><time>2026-05-01T07:12:48.938Z</time></trkpt><trkpt lat="42.4991289" lon="14.1775616"><ele>5.2</ele><time>2026-05-01T07:12:49.936Z</time></trkpt><trkpt lat="42.4991923" lon="14.1776542"><ele>5.4</ele><time>2026-05-01T07:12:50.932Z</time></trkpt><trkpt lat="42.4992481" lon="14.1777557"><ele>5.6</ele><time>2026-05-01T07:12:51.931Z</time></trkpt><trkpt lat="42.4993142" lon="14.1778512"><ele>5.8</ele><time>2026-05-01T07:12:52.929Z</time></trkpt><trkpt lat="42.499381" lon="14.1779409"><ele>6.0</ele><time>2026-05-01T07:12:53.944Z</time></trkpt><trkpt lat="42.4994402" lon="14.1780217"><ele>6.0</ele><time>2026-05-01T07:12:54.932Z</time></trkpt><trkpt lat="42.499492" lon="14.1781077"><ele>6.0</ele><time>2026-05-01T07:12:55.931Z</time></trkpt><trkpt lat="42.4995394" lon="14.1781947"><ele>6.0</ele><time>2026-05-01T07:12:56.932Z</time></trkpt><trkpt lat="42.4995775" lon="14.1782768"><ele>6.0</ele><time>2026-05-01T07:12:57.933Z</time></trkpt><trkpt lat="42.4996533" lon="14.1784027"><ele>6.0</ele><time>2026-05-01T07:12:59.936Z</time></trkpt><trkpt lat="42.4997142" lon="14.1785088"><ele>5.8</ele><time>2026-05-01T07:13:01.933Z</time></trkpt><trkpt lat="42.4997774" lon="14.178606"><ele>5.6</ele><time>2026-05-01T07:13:03.931Z</time></trkpt><trkpt lat="42.4997772" lon="14.1787491"><ele>5.4</ele><time>2026-05-01T07:13:05.93Z</time></trkpt><trkpt lat="42.4997292" lon="14.1788317"><ele>5.2</ele><time>2026-05-01T07:13:06.933Z</time></trkpt><trkpt lat="42.4996637" lon="14.1789099"><ele>5.0</ele><time>2026-05-01T07:13:07.928Z</time></trkpt><trkpt lat="42.4995806" lon="14.1789915"><ele>4.75</ele><time>2026-05-01T07:13:08.938Z</time></trkpt><trkpt lat="42.4994935" lon="14.1790807"><ele>4.5</ele><time>2026-05-01T07:13:09.939Z</time></trkpt><trkpt lat="42.4993953" lon="14.1791724"><ele>4.25</ele><time>2026-05-01T07:13:10.939Z</time></trkpt><trkpt lat="42.4992959" lon="14.179269"><ele>4.0</ele><time>2026-05-01T07:13:11.95Z</time></trkpt><trkpt lat="42.4991866" lon="14.1793711"><ele>4.0</ele><time>2026-05-01T07:13:12.94Z</time></trkpt><trkpt lat="42.4990742" lon="14.1794742"><ele>4.0</ele><time>2026-05-01T07:13:13.938Z</time></trkpt><trkpt lat="42.4989713" lon="14.1795749"><ele>4.0</ele><time>2026-05-01T07:13:14.936Z</time></trkpt><trkpt lat="42.4988688" lon="14.1796809"><ele>4.0</ele><time>2026-05-01T07:13:15.932Z</time></trkpt><trkpt lat="42.4987611" lon="14.1797876"><ele>4.25</ele><time>2026-05-01T07:13:16.942Z</time></trkpt><trkpt lat="42.4986528" lon="14.1799005"><ele>4.5</ele><time>2026-05-01T07:13:17.929Z</time></trkpt><trkpt lat="42.4985412" lon="14.1800102"><ele>4.75</ele><time>2026-05-01T07:13:18.943Z</time></trkpt><trkpt lat="42.498432" lon="14.1801186"><ele>5.0</ele><time>2026-05-01T07:13:19.934Z</time></trkpt><trkpt lat="42.4983262" lon="14.1802234"><ele>5.0</ele><time>2026-05-01T07:13:20.936Z</time></trkpt><trkpt lat="42.498225" lon="14.1803248"><ele>5.0</ele><time>2026-05-01T07:13:21.941Z</time></trkpt><trkpt lat="42.4981239" lon="14.1804281"><ele>5.0</ele><time>2026-05-01T07:13:22.931Z</time></trkpt><trkpt lat="42.4980251" lon="14.1805243"><ele>5.0</ele><time>2026-05-01T07:13:23.932Z</time></trkpt><trkpt lat="42.4979286" lon="14.1806206"><ele>5.25</ele><time>2026-05-01T07:13:24.928Z</time></trkpt><trkpt lat="42.4978342" lon="14.1807267"><ele>5.5</ele><time>2026-05-01T07:13:25.931Z</time></trkpt><trkpt lat="42.497735" lon="14.1808276"><ele>5.75</ele><time>2026-05-01T07:13:26.944Z</time></trkpt><trkpt lat="42.4976321" lon="14.1809313"><ele>6.0</ele><time>2026-05-01T07:13:27.932Z</time></trkpt><trkpt lat="42.4975238" lon="14.181043"><ele>6.0</ele><time>2026-05-01T07:13:28.935Z</time></trkpt><trkpt lat="42.4974147" lon="14.1811522"><ele>6.0</ele><time>2026-05-01T07:13:29.928Z</time></trkpt><trkpt lat="42.4973039" lon="14.1812544"><ele>6.0</ele><time>2026-05-01T07:13:30.941Z</time></trkpt><trkpt lat="42.4971971" lon="14.1813652"><ele>6.0</ele><time>2026-05-01T07:13:31.932Z</time></trkpt><trkpt lat="42.4970892" lon="14.1814783"><ele>5.75</ele><time>2026-05-01T07:13:32.93Z</time></trkpt><trkpt lat="42.4969757" lon="14.1815924"><ele>5.5</ele><time>2026-05-01T07:13:33.945Z</time></trkpt><trkpt lat="42.4968701" lon="14.1817054"><ele>5.25</ele><time>2026-05-01T07:13:34.943Z</time></trkpt><trkpt lat="42.4967634" lon="14.1818156"><ele>5.0</ele><time>2026-05-01T07:13:35.928Z</time></trkpt><trkpt lat="42.4966604" lon="14.1819282"><ele>5.0</ele><time>2026-05-01T07:13:36.942Z</time></trkpt><trkpt lat="42.4965588" lon="14.1820327"><ele>5.0</ele><time>2026-05-01T07:13:37.937Z</time></trkpt><trkpt lat="42.4964638" lon="14.182133"><ele>5.0</ele><time>2026-05-01T07:13:38.924Z</time></trkpt><trkpt lat="42.4963603" lon="14.1822384"><ele>5.0</ele><time>2026-05-01T07:13:39.931Z</time></trkpt><trkpt lat="42.4962632" lon="14.1823388"><ele>4.25</ele><time>2026-05-01T07:13:40.941Z</time></trkpt><trkpt lat="42.4961708" lon="14.1824394"><ele>3.5</ele><time>2026-05-01T07:13:41.94Z</time></trkpt><trkpt lat="42.4960754" lon="14.1825391"><ele>2.75</ele><time>2026-05-01T07:13:42.931Z</time></trkpt><trkpt lat="42.4959871" lon="14.1826272"><ele>2.0</ele><time>2026-05-01T07:13:43.937Z</time></trkpt><trkpt lat="42.4959066" lon="14.1827148"><ele>2.0</ele><time>2026-05-01T07:13:44.943Z</time></trkpt><trkpt lat="42.4958264" lon="14.1828071"><ele>2.0</ele><time>2026-05-01T07:13:45.941Z</time></trkpt><trkpt lat="42.4957419" lon="14.1828946"><ele>2.0</ele><time>2026-05-01T07:13:46.932Z</time></trkpt><trkpt lat="42.4956547" lon="14.1829762"><ele>2.0</ele><time>2026-05-01T07:13:47.943Z</time></trkpt><trkpt lat="42.4955642" lon="14.1830603"><ele>2.0</ele><time>2026-05-01T07:13:48.929Z</time></trkpt><trkpt lat="42.4954669" lon="14.1831575"><ele>2.75</ele><time>2026-05-01T07:13:49.934Z</time></trkpt><trkpt lat="42.4953631" lon="14.1832632"><ele>3.5</ele><time>2026-05-01T07:13:50.934Z</time></trkpt><trkpt lat="42.4952593" lon="14.1833712"><ele>4.25</ele><time>2026-05-01T07:13:51.938Z</time></trkpt><trkpt lat="42.4951551" lon="14.1834801"><ele>5.0</ele><time>2026-05-01T07:13:52.947Z</time></trkpt><trkpt lat="42.4950486" lon="14.1835873"><ele>5.0</ele><time>2026-05-01T07:13:53.927Z</time></trkpt><trkpt lat="42.4949466" lon="14.1836913"><ele>5.0</ele><time>2026-05-01T07:13:54.93Z</time></trkpt><trkpt lat="42.4948541" lon="14.1837895"><ele>5.0</ele><time>2026-05-01T07:13:55.937Z</time></trkpt><trkpt lat="42.4947678" lon="14.1838808"><ele>5.0</ele><time>2026-05-01T07:13:56.938Z</time></trkpt><trkpt lat="42.4946855" lon="14.1839672"><ele>5.0</ele><time>2026-05-01T07:13:57.936Z</time></trkpt><trkpt lat="42.4946015" lon="14.1840524"><ele>5.0</ele><time>2026-05-01T07:13:58.931Z</time></trkpt><trkpt lat="42.4945077" lon="14.1841488"><ele>5.0</ele><time>2026-05-01T07:13:59.944Z</time></trkpt><trkpt lat="42.4944093" lon="14.1842525"><ele>5.0</ele><time>2026-05-01T07:14:00.934Z</time></trkpt><trkpt lat="42.4943034" lon="14.1843581"><ele>5.0</ele><time>2026-05-01T07:14:01.95Z</time></trkpt><trkpt lat="42.4942005" lon="14.1844599"><ele>5.0</ele><time>2026-05-01T07:14:02.933Z</time></trkpt><trkpt lat="42.4941026" lon="14.1845522"><ele>5.0</ele><time>2026-05-01T07:14:03.934Z</time></trkpt><trkpt lat="42.4940105" lon="14.1846433"><ele>5.0</ele><time>2026-05-01T07:14:04.937Z</time></trkpt><trkpt lat="42.4939177" lon="14.1847378"><ele>5.0</ele><time>2026-05-01T07:14:05.937Z</time></trkpt><trkpt lat="42.4938251" lon="14.184837"><ele>5.0</ele><time>2026-05-01T07:14:06.933Z</time></trkpt><trkpt lat="42.4937301" lon="14.1849376"><ele>5.0</ele><time>2026-05-01T07:14:07.935Z</time></trkpt><trkpt lat="42.4936344" lon="14.1850346"><ele>5.0</ele><time>2026-05-01T07:14:08.931Z</time></trkpt><trkpt lat="42.493549" lon="14.1851296"><ele>4.8</ele><time>2026-05-01T07:14:09.93Z</time></trkpt><trkpt lat="42.4934693" lon="14.1852219"><ele>4.6</ele><time>2026-05-01T07:14:10.934Z</time></trkpt><trkpt lat="42.493388" lon="14.1853139"><ele>4.4</ele><time>2026-05-01T07:14:11.936Z</time></trkpt><trkpt lat="42.4933082" lon="14.1854092"><ele>4.2</ele><time>2026-05-01T07:14:12.946Z</time></trkpt><trkpt lat="42.493228" lon="14.1854974"><ele>4.0</ele><time>2026-05-01T07:14:13.933Z</time></trkpt><trkpt lat="42.4931465" lon="14.1855868"><ele>4.4</ele><time>2026-05-01T07:14:14.938Z</time></trkpt><trkpt lat="42.4930651" lon="14.1856804"><ele>4.800000000000001</ele><time>2026-05-01T07:14:15.93Z</time></trkpt><trkpt lat="42.4929832" lon="14.1857727"><ele>5.199999999999999</ele><time>2026-05-01T07:14:16.932Z</time></trkpt><trkpt lat="42.4928996" lon="14.1858699"><ele>5.6</ele><time>2026-05-01T07:14:17.936Z</time></trkpt><trkpt lat="42.4928168" lon="14.1859636"><ele>6.0</ele><time>2026-05-01T07:14:18.935Z</time></trkpt><trkpt lat="42.4927371" lon="14.1860556"><ele>6.0</ele><time>2026-05-01T07:14:19.935Z</time></trkpt><trkpt lat="42.4926565" lon="14.1861456"><ele>6.0</ele><time>2026-05-01T07:14:20.935Z</time></trkpt><trkpt lat="42.4925754" lon="14.1862448"><ele>6.0</ele><time>2026-05-01T07:14:21.942Z</time></trkpt><trkpt lat="42.4924884" lon="14.1863472"><ele>6.0</ele><time>2026-05-01T07:14:22.969Z</time></trkpt><trkpt lat="42.4923996" lon="14.1864454"><ele>6.0</ele><time>2026-05-01T07:14:23.933Z</time></trkpt><trkpt lat="42.492308" lon="14.1865489"><ele>5.5</ele><time>2026-05-01T07:14:24.938Z</time></trkpt><trkpt lat="42.4922133" lon="14.186657"><ele>5.0</ele><time>2026-05-01T07:14:25.934Z</time></trkpt><trkpt lat="42.4921176" lon="14.1867622"><ele>4.5</ele><time>2026-05-01T07:14:26.929Z</time></trkpt><trkpt lat="42.4920198" lon="14.1868669"><ele>4.0</ele><time>2026-05-01T07:14:27.933Z</time></trkpt><trkpt lat="42.4919218" lon="14.1869758"><ele>4.0</ele><time>2026-05-01T07:14:28.936Z</time></trkpt><trkpt lat="42.4918227" lon="14.1870859"><ele>4.0</ele><time>2026-05-01T07:14:29.944Z</time></trkpt><trkpt lat="42.4917251" lon="14.187196"><ele>4.0</ele><time>2026-05-01T07:14:30.928Z</time></trkpt><trkpt lat="42.4916249" lon="14.1873061"><ele>4.0</ele><time>2026-05-01T07:14:31.939Z</time></trkpt><trkpt lat="42.4915237" lon="14.1874127"><ele>4.0</ele><time>2026-05-01T07:14:32.933Z</time></trkpt><trkpt lat="42.4914228" lon="14.1875211"><ele>4.0</ele><time>2026-05-01T07:14:33.934Z</time></trkpt><trkpt lat="42.4913245" lon="14.1876312"><ele>4.0</ele><time>2026-05-01T07:14:34.936Z</time></trkpt><trkpt lat="42.4912256" lon="14.187739"><ele>4.0</ele><time>2026-05-01T07:14:35.931Z</time></trkpt><trkpt lat="42.4911274" lon="14.187843"><ele>4.25</ele><time>2026-05-01T07:14:36.932Z</time></trkpt><trkpt lat="42.4910286" lon="14.1879514"><ele>4.5</ele><time>2026-05-01T07:14:37.933Z</time></trkpt><trkpt lat="42.4909296" lon="14.1880619"><ele>4.75</ele><time>2026-05-01T07:14:38.933Z</time></trkpt><trkpt lat="42.4908319" lon="14.18817"><ele>5.0</ele><time>2026-05-01T07:14:39.932Z</time></trkpt><trkpt lat="42.4907349" lon="14.1882805"><ele>5.25</ele><time>2026-05-01T07:14:40.931Z</time></trkpt><trkpt lat="42.4906368" lon="14.1883846"><ele>5.5</ele><time>2026-05-01T07:14:41.937Z</time></trkpt><trkpt lat="42.4905359" lon="14.1884936"><ele>5.75</ele><time>2026-05-01T07:14:42.939Z</time></trkpt><trkpt lat="42.4904351" lon="14.1886082"><ele>6.0</ele><time>2026-05-01T07:14:43.934Z</time></trkpt><trkpt lat="42.490332" lon="14.188726"><ele>6.0</ele><time>2026-05-01T07:14:44.939Z</time></trkpt><trkpt lat="42.4902258" lon="14.1888425"><ele>6.0</ele><time>2026-05-01T07:14:45.934Z</time></trkpt><trkpt lat="42.490119" lon="14.1889582"><ele>6.0</ele><time>2026-05-01T07:14:46.936Z</time></trkpt><trkpt lat="42.4900115" lon="14.1890722"><ele>6.0</ele><time>2026-05-01T07:14:47.933Z</time></trkpt><trkpt lat="42.4899042" lon="14.1891889"><ele>6.0</ele><time>2026-05-01T07:14:48.935Z</time></trkpt><trkpt lat="42.4897948" lon="14.1893062"><ele>6.0</ele><time>2026-05-01T07:14:49.937Z</time></trkpt><trkpt lat="42.489685" lon="14.1894222"><ele>6.0</ele><time>2026-05-01T07:14:50.928Z</time></trkpt><trkpt lat="42.4895736" lon="14.1895443"><ele>6.0</ele><time>2026-05-01T07:14:51.932Z</time></trkpt><trkpt lat="42.4894699" lon="14.1896602"><ele>6.0</ele><time>2026-05-01T07:14:52.937Z</time></trkpt><trkpt lat="42.4893718" lon="14.1897696"><ele>6.0</ele><time>2026-05-01T07:14:53.934Z</time></trkpt><trkpt lat="42.4892698" lon="14.1898798"><ele>6.0</ele><time>2026-05-01T07:14:54.939Z</time></trkpt><trkpt lat="42.4891678" lon="14.1899925"><ele>6.0</ele><time>2026-05-01T07:14:55.934Z</time></trkpt><trkpt lat="42.489064" lon="14.1901021"><ele>5.25</ele><time>2026-05-01T07:14:56.933Z</time></trkpt><trkpt lat="42.4889688" lon="14.1902047"><ele>4.5</ele><time>2026-05-01T07:14:57.933Z</time></trkpt><trkpt lat="42.4888788" lon="14.1903011"><ele>3.75</ele><time>2026-05-01T07:14:58.939Z</time></trkpt><trkpt lat="42.4887863" lon="14.1903997"><ele>3.0</ele><time>2026-05-01T07:14:59.936Z</time></trkpt><trkpt lat="42.4886919" lon="14.1905072"><ele>3.0</ele><time>2026-05-01T07:15:00.939Z</time></trkpt><trkpt lat="42.4885954" lon="14.1906129"><ele>3.0</ele><time>2026-05-01T07:15:01.939Z</time></trkpt><trkpt lat="42.4884935" lon="14.1907171"><ele>3.0</ele><time>2026-05-01T07:15:02.935Z</time></trkpt><trkpt lat="42.4883909" lon="14.190821"><ele>3.0</ele><time>2026-05-01T07:15:03.932Z</time></trkpt><trkpt lat="42.4882878" lon="14.1909286"><ele>3.5</ele><time>2026-05-01T07:15:04.936Z</time></trkpt><trkpt lat="42.4881858" lon="14.1910408"><ele>4.0</ele><time>2026-05-01T07:15:05.935Z</time></trkpt><trkpt lat="42.4880882" lon="14.1911526"><ele>4.5</ele><time>2026-05-01T07:15:06.932Z</time></trkpt><trkpt lat="42.4879879" lon="14.1912631"><ele>5.0</ele><time>2026-05-01T07:15:07.939Z</time></trkpt><trkpt lat="42.4878882" lon="14.1913715"><ele>5.25</ele><time>2026-05-01T07:15:08.926Z</time></trkpt><trkpt lat="42.4877886" lon="14.1914849"><ele>5.5</ele><time>2026-05-01T07:15:09.934Z</time></trkpt><trkpt lat="42.4876876" lon="14.1916014"><ele>5.75</ele><time>2026-05-01T07:15:10.936Z</time></trkpt><trkpt lat="42.4875855" lon="14.1917204"><ele>6.0</ele><time>2026-05-01T07:15:11.933Z</time></trkpt><trkpt lat="42.4874817" lon="14.1918351"><ele>6.0</ele><time>2026-05-01T07:15:12.932Z</time></trkpt><trkpt lat="42.48738" lon="14.1919478"><ele>6.0</ele><time>2026-05-01T07:15:13.935Z</time></trkpt><trkpt lat="42.487276" lon="14.192063"><ele>6.0</ele><time>2026-05-01T07:15:14.952Z</time></trkpt><trkpt lat="42.4871728" lon="14.1921827"><ele>6.0</ele><time>2026-05-01T07:15:15.925Z</time></trkpt><trkpt lat="42.4870644" lon="14.1923029"><ele>5.25</ele><time>2026-05-01T07:15:16.934Z</time></trkpt><trkpt lat="42.4869572" lon="14.1924207"><ele>4.5</ele><time>2026-05-01T07:15:17.94Z</time></trkpt><trkpt lat="42.4868466" lon="14.1925341"><ele>3.75</ele><time>2026-05-01T07:15:18.93Z</time></trkpt><trkpt lat="42.486733" lon="14.1926492"><ele>3.0</ele><time>2026-05-01T07:15:19.932Z</time></trkpt><trkpt lat="42.4866207" lon="14.1927637"><ele>3.0</ele><time>2026-05-01T07:15:20.932Z</time></trkpt><trkpt lat="42.4865131" lon="14.1928811"><ele>3.0</ele><time>2026-05-01T07:15:21.937Z</time></trkpt><trkpt lat="42.486408" lon="14.1929919"><ele>3.0</ele><time>2026-05-01T07:15:22.934Z</time></trkpt><trkpt lat="42.4863054" lon="14.1930916"><ele>3.0</ele><time>2026-05-01T07:15:23.934Z</time></trkpt><trkpt lat="42.4862045" lon="14.1931905"><ele>3.25</ele><time>2026-05-01T07:15:24.936Z</time></trkpt><trkpt lat="42.4861087" lon="14.1932876"><ele>3.5</ele><time>2026-05-01T07:15:25.932Z</time></trkpt><trkpt lat="42.4860098" lon="14.1933895"><ele>3.75</ele><time>2026-05-01T07:15:26.938Z</time></trkpt><trkpt lat="42.4859163" lon="14.1934847"><ele>4.0</ele><time>2026-05-01T07:15:27.939Z</time></trkpt><trkpt lat="42.4858275" lon="14.1935671"><ele>4.0</ele><time>2026-05-01T07:15:28.937Z</time></trkpt><trkpt lat="42.4857481" lon="14.1936503"><ele>4.0</ele><time>2026-05-01T07:15:29.934Z</time></trkpt><trkpt lat="42.4856685" lon="14.1937421"><ele>4.0</ele><time>2026-05-01T07:15:30.936Z</time></trkpt><trkpt lat="42.4855927" lon="14.1938309"><ele>4.0</ele><time>2026-05-01T07:15:31.939Z</time></trkpt><trkpt lat="42.4855176" lon="14.1939241"><ele>4.0</ele><time>2026-05-01T07:15:32.931Z</time></trkpt><trkpt lat="42.485436" lon="14.194026"><ele>3.8000000000000003</ele><time>2026-05-01T07:15:33.947Z</time></trkpt><trkpt lat="42.4853552" lon="14.194128"><ele>3.6000000000000005</ele><time>2026-05-01T07:15:34.939Z</time></trkpt><trkpt lat="42.4852721" lon="14.1942248"><ele>3.4</ele><time>2026-05-01T07:15:35.938Z</time></trkpt><trkpt lat="42.4851919" lon="14.1943239"><ele>3.2</ele><time>2026-05-01T07:15:36.936Z</time></trkpt><trkpt lat="42.4851096" lon="14.1944282"><ele>3.0</ele><time>2026-05-01T07:15:37.937Z</time></trkpt><trkpt lat="42.4850296" lon="14.194533"><ele>3.0</ele><time>2026-05-01T07:15:38.937Z</time></trkpt><trkpt lat="42.4849504" lon="14.1946393"><ele>3.0</ele><time>2026-05-01T07:15:39.932Z</time></trkpt><trkpt lat="42.4848708" lon="14.1947399"><ele>3.0</ele><time>2026-05-01T07:15:40.933Z</time></trkpt><trkpt lat="42.4847958" lon="14.1948298"><ele>3.0</ele><time>2026-05-01T07:15:41.935Z</time></trkpt><trkpt lat="42.4847223" lon="14.1949265"><ele>3.0</ele><time>2026-05-01T07:15:42.934Z</time></trkpt><trkpt lat="42.4846511" lon="14.1950214"><ele>2.8</ele><time>2026-05-01T07:15:43.941Z</time></trkpt><trkpt lat="42.4845777" lon="14.195118"><ele>2.5999999999999996</ele><time>2026-05-01T07:15:44.934Z</time></trkpt><trkpt lat="42.4845078" lon="14.1952091"><ele>2.4000000000000004</ele><time>2026-05-01T07:15:45.933Z</time></trkpt><trkpt lat="42.4844457" lon="14.1952894"><ele>2.2</ele><time>2026-05-01T07:15:46.939Z</time></trkpt><trkpt lat="42.4843801" lon="14.1953722"><ele>2.0</ele><time>2026-05-01T07:15:47.945Z</time></trkpt><trkpt lat="42.4843109" lon="14.1954657"><ele>2.0</ele><time>2026-05-01T07:15:48.939Z</time></trkpt><trkpt lat="42.4842357" lon="14.1955644"><ele>2.0</ele><time>2026-05-01T07:15:49.94Z</time></trkpt><trkpt lat="42.4841611" lon="14.1956683"><ele>2.0</ele><time>2026-05-01T07:15:50.942Z</time></trkpt><trkpt lat="42.4840889" lon="14.1957717"><ele>2.0</ele><time>2026-05-01T07:15:51.943Z</time></trkpt><trkpt lat="42.4840167" lon="14.1958794"><ele>2.0</ele><time>2026-05-01T07:15:52.944Z</time></trkpt><trkpt lat="42.483942" lon="14.1959862"><ele>1.8</ele><time>2026-05-01T07:15:53.94Z</time></trkpt><trkpt lat="42.4838682" lon="14.1960835"><ele>1.6</ele><time>2026-05-01T07:15:54.938Z</time></trkpt><trkpt lat="42.4837893" lon="14.1961907"><ele>1.4000000000000001</ele><time>2026-05-01T07:15:55.939Z</time></trkpt><trkpt lat="42.4837159" lon="14.1963017"><ele>1.2000000000000002</ele><time>2026-05-01T07:15:56.942Z</time></trkpt><trkpt lat="42.4836426" lon="14.1963964"><ele>1.0</ele><time>2026-05-01T07:15:57.946Z</time></trkpt><trkpt lat="42.4835694" lon="14.1964914"><ele>2.0</ele><time>2026-05-01T07:15:58.941Z</time></trkpt><trkpt lat="42.4834989" lon="14.196592"><ele>3.0</ele><time>2026-05-01T07:15:59.944Z</time></trkpt><trkpt lat="42.4834358" lon="14.196686"><ele>3.9999999999999996</ele><time>2026-05-01T07:16:00.947Z</time></trkpt><trkpt lat="42.4833661" lon="14.1967836"><ele>5.0</ele><time>2026-05-01T07:16:01.935Z</time></trkpt><trkpt lat="42.4833008" lon="14.1968817"><ele>6.0</ele><time>2026-05-01T07:16:02.945Z</time></trkpt><trkpt lat="42.483234" lon="14.1969798"><ele>6.0</ele><time>2026-05-01T07:16:03.939Z</time></trkpt><trkpt lat="42.4831631" lon="14.1970682"><ele>6.0</ele><time>2026-05-01T07:16:04.939Z</time></trkpt><trkpt lat="42.4831001" lon="14.1971549"><ele>6.0</ele><time>2026-05-01T07:16:05.942Z</time></trkpt><trkpt lat="42.4830385" lon="14.1972426"><ele>6.0</ele><time>2026-05-01T07:16:06.934Z</time></trkpt><trkpt lat="42.4829768" lon="14.1973284"><ele>6.0</ele><time>2026-05-01T07:16:07.935Z</time></trkpt><trkpt lat="42.4829136" lon="14.197417"><ele>6.199999999999999</ele><time>2026-05-01T07:16:08.938Z</time></trkpt><trkpt lat="42.4828544" lon="14.1975082"><ele>6.3999999999999995</ele><time>2026-05-01T07:16:09.936Z</time></trkpt><trkpt lat="42.4827909" lon="14.1976057"><ele>6.6</ele><time>2026-05-01T07:16:10.935Z</time></trkpt><trkpt lat="42.4827273" lon="14.1977006"><ele>6.8</ele><time>2026-05-01T07:16:11.936Z</time></trkpt><trkpt lat="42.4826586" lon="14.1977941"><ele>7.0</ele><time>2026-05-01T07:16:12.938Z</time></trkpt><trkpt lat="42.4825875" lon="14.1978927"><ele>7.0</ele><time>2026-05-01T07:16:13.939Z</time></trkpt><trkpt lat="42.4825237" lon="14.1979885"><ele>6.999999999999999</ele><time>2026-05-01T07:16:14.934Z</time></trkpt><trkpt lat="42.4824554" lon="14.1980811"><ele>6.999999999999999</ele><time>2026-05-01T07:16:15.938Z</time></trkpt><trkpt lat="42.4823842" lon="14.1981809"><ele>7.0</ele><time>2026-05-01T07:16:16.942Z</time></trkpt><trkpt lat="42.4823117" lon="14.1982924"><ele>7.0</ele><time>2026-05-01T07:16:17.938Z</time></trkpt><trkpt lat="42.4822386" lon="14.1983976"><ele>6.3999999999999995</ele><time>2026-05-01T07:16:18.932Z</time></trkpt><trkpt lat="42.4821636" lon="14.1985104"><ele>5.799999999999999</ele><time>2026-05-01T07:16:19.927Z</time></trkpt><trkpt lat="42.4820925" lon="14.1986216"><ele>5.2</ele><time>2026-05-01T07:16:20.935Z</time></trkpt><trkpt lat="42.4820188" lon="14.1987396"><ele>4.6</ele><time>2026-05-01T07:16:21.939Z</time></trkpt><trkpt lat="42.4819421" lon="14.1988555"><ele>4.0</ele><time>2026-05-01T07:16:22.94Z</time></trkpt><trkpt lat="42.4818567" lon="14.1989778"><ele>4.75</ele><time>2026-05-01T07:16:23.939Z</time></trkpt><trkpt lat="42.48177" lon="14.1990952"><ele>5.5</ele><time>2026-05-01T07:16:24.933Z</time></trkpt><trkpt lat="42.4816867" lon="14.1992097"><ele>6.25</ele><time>2026-05-01T07:16:25.929Z</time></trkpt><trkpt lat="42.4816069" lon="14.1993279"><ele>7.0</ele><time>2026-05-01T07:16:26.945Z</time></trkpt><trkpt lat="42.481524" lon="14.1994576"><ele>7.0</ele><time>2026-05-01T07:16:27.938Z</time></trkpt><trkpt lat="42.4814354" lon="14.1995947"><ele>7.0</ele><time>2026-05-01T07:16:28.928Z</time></trkpt><trkpt lat="42.4813502" lon="14.1997258"><ele>7.0</ele><time>2026-05-01T07:16:29.931Z</time></trkpt><trkpt lat="42.4812647" lon="14.1998564"><ele>7.0</ele><time>2026-05-01T07:16:30.929Z</time></trkpt><trkpt lat="42.4811765" lon="14.1999829"><ele>6.0</ele><time>2026-05-01T07:16:31.934Z</time></trkpt><trkpt lat="42.4810873" lon="14.2001164"><ele>5.0</ele><time>2026-05-01T07:16:32.941Z</time></trkpt><trkpt lat="42.4810035" lon="14.2002469"><ele>4.0</ele><time>2026-05-01T07:16:33.931Z</time></trkpt><trkpt lat="42.4809143" lon="14.2003773"><ele>3.0</ele><time>2026-05-01T07:16:34.936Z</time></trkpt><trkpt lat="42.4808211" lon="14.2005059"><ele>3.0</ele><time>2026-05-01T07:16:35.948Z</time></trkpt><trkpt lat="42.4807327" lon="14.2006264"><ele>3.0</ele><time>2026-05-01T07:16:36.931Z</time></trkpt><trkpt lat="42.4806496" lon="14.2007373"><ele>3.0</ele><time>2026-05-01T07:16:37.944Z</time></trkpt><trkpt lat="42.4805674" lon="14.2008495"><ele>3.0</ele><time>2026-05-01T07:16:38.932Z</time></trkpt><trkpt lat="42.4804865" lon="14.2009659"><ele>3.75</ele><time>2026-05-01T07:16:39.942Z</time></trkpt><trkpt lat="42.4804088" lon="14.2010817"><ele>4.5</ele><time>2026-05-01T07:16:40.929Z</time></trkpt><trkpt lat="42.4803336" lon="14.2011951"><ele>5.25</ele><time>2026-05-01T07:16:41.931Z</time></trkpt><trkpt lat="42.4802546" lon="14.201316"><ele>6.0</ele><time>2026-05-01T07:16:42.94Z</time></trkpt><trkpt lat="42.4801743" lon="14.2014342"><ele>5.75</ele><time>2026-05-01T07:16:43.934Z</time></trkpt><trkpt lat="42.4800937" lon="14.2015544"><ele>5.5</ele><time>2026-05-01T07:16:44.935Z</time></trkpt><trkpt lat="42.4800121" lon="14.2016722"><ele>5.25</ele><time>2026-05-01T07:16:45.936Z</time></trkpt><trkpt lat="42.4799305" lon="14.201789"><ele>5.0</ele><time>2026-05-01T07:16:46.931Z</time></trkpt><trkpt lat="42.4798445" lon="14.2018981"><ele>5.0</ele><time>2026-05-01T07:16:47.935Z</time></trkpt><trkpt lat="42.4797591" lon="14.2020055"><ele>5.0</ele><time>2026-05-01T07:16:48.934Z</time></trkpt><trkpt lat="42.4796795" lon="14.20211"><ele>5.0</ele><time>2026-05-01T07:16:49.927Z</time></trkpt><trkpt lat="42.4796097" lon="14.2022174"><ele>5.0</ele><time>2026-05-01T07:16:50.931Z</time></trkpt><trkpt lat="42.4795371" lon="14.2023319"><ele>5.0</ele><time>2026-05-01T07:16:51.934Z</time></trkpt><trkpt lat="42.4794611" lon="14.2024474"><ele>4.75</ele><time>2026-05-01T07:16:52.932Z</time></trkpt><trkpt lat="42.4793801" lon="14.2025645"><ele>4.5</ele><time>2026-05-01T07:16:53.932Z</time></trkpt><trkpt lat="42.479299" lon="14.202689"><ele>4.25</ele><time>2026-05-01T07:16:54.935Z</time></trkpt><trkpt lat="42.4792169" lon="14.2028126"><ele>4.0</ele><time>2026-05-01T07:16:55.946Z</time></trkpt><trkpt lat="42.4791347" lon="14.2029344"><ele>4.0</ele><time>2026-05-01T07:16:56.933Z</time></trkpt><trkpt lat="42.4790533" lon="14.2030571"><ele>4.0</ele><time>2026-05-01T07:16:57.946Z</time></trkpt><trkpt lat="42.4789742" lon="14.2031786"><ele>4.0</ele><time>2026-05-01T07:16:58.932Z</time></trkpt><trkpt lat="42.4788905" lon="14.203292"><ele>4.0</ele><time>2026-05-01T07:16:59.946Z</time></trkpt><trkpt lat="42.478819" lon="14.2034084"><ele>4.800000000000001</ele><time>2026-05-01T07:17:00.936Z</time></trkpt><trkpt lat="42.478746" lon="14.2035106"><ele>5.6000000000000005</ele><time>2026-05-01T07:17:01.939Z</time></trkpt><trkpt lat="42.4786773" lon="14.2036102"><ele>6.4</ele><time>2026-05-01T07:17:02.927Z</time></trkpt><trkpt lat="42.4786098" lon="14.2037164"><ele>7.2</ele><time>2026-05-01T07:17:03.924Z</time></trkpt><trkpt lat="42.4785362" lon="14.2038196"><ele>8.0</ele><time>2026-05-01T07:17:04.93Z</time></trkpt><trkpt lat="42.4784695" lon="14.203931"><ele>7.0</ele><time>2026-05-01T07:17:05.942Z</time></trkpt><trkpt lat="42.4784058" lon="14.2040473"><ele>6.0</ele><time>2026-05-01T07:17:06.929Z</time></trkpt><trkpt lat="42.4783287" lon="14.2041588"><ele>5.0</ele><time>2026-05-01T07:17:07.94Z</time></trkpt><trkpt lat="42.4782529" lon="14.2042676"><ele>4.0</ele><time>2026-05-01T07:17:08.968Z</time></trkpt><trkpt lat="42.4781681" lon="14.204385"><ele>4.0</ele><time>2026-05-01T07:17:09.946Z</time></trkpt><trkpt lat="42.4780763" lon="14.2045152"><ele>4.0</ele><time>2026-05-01T07:17:10.951Z</time></trkpt><trkpt lat="42.4779886" lon="14.2046398"><ele>4.0</ele><time>2026-05-01T07:17:11.936Z</time></trkpt><trkpt lat="42.4778895" lon="14.2047748"><ele>4.0</ele><time>2026-05-01T07:17:12.936Z</time></trkpt><trkpt lat="42.4777969" lon="14.2049146"><ele>4.5</ele><time>2026-05-01T07:17:13.933Z</time></trkpt><trkpt lat="42.4776969" lon="14.205047"><ele>5.0</ele><time>2026-05-01T07:17:14.941Z</time></trkpt><trkpt lat="42.477609" lon="14.2051835"><ele>5.5</ele><time>2026-05-01T07:17:15.951Z</time></trkpt><trkpt lat="42.477521" lon="14.20531"><ele>6.0</ele><time>2026-05-01T07:17:16.936Z</time></trkpt><trkpt lat="42.4774284" lon="14.2054394"><ele>6.0</ele><time>2026-05-01T07:17:17.937Z</time></trkpt><trkpt lat="42.4773368" lon="14.2055649"><ele>6.0</ele><time>2026-05-01T07:17:18.94Z</time></trkpt><trkpt lat="42.4772549" lon="14.2057072"><ele>6.0</ele><time>2026-05-01T07:17:19.945Z</time></trkpt><trkpt lat="42.4771758" lon="14.2058332"><ele>6.0</ele><time>2026-05-01T07:17:20.943Z</time></trkpt><trkpt lat="42.4770955" lon="14.2059436"><ele>5.8</ele><time>2026-05-01T07:17:21.946Z</time></trkpt><trkpt lat="42.4770283" lon="14.2060425"><ele>5.6</ele><time>2026-05-01T07:17:22.944Z</time></trkpt><trkpt lat="42.4769609" lon="14.2061524"><ele>5.4</ele><time>2026-05-01T07:17:23.95Z</time></trkpt><trkpt lat="42.476889" lon="14.2062663"><ele>5.2</ele><time>2026-05-01T07:17:24.937Z</time></trkpt><trkpt lat="42.4768067" lon="14.206387"><ele>5.0</ele><time>2026-05-01T07:17:25.941Z</time></trkpt><trkpt lat="42.4767279" lon="14.2065022"><ele>4.0</ele><time>2026-05-01T07:17:26.938Z</time></trkpt><trkpt lat="42.4766516" lon="14.2066319"><ele>3.0</ele><time>2026-05-01T07:17:27.942Z</time></trkpt><trkpt lat="42.4765615" lon="14.2067593"><ele>2.0</ele><time>2026-05-01T07:17:28.937Z</time></trkpt><trkpt lat="42.4764739" lon="14.2068931"><ele>1.0</ele><time>2026-05-01T07:17:29.936Z</time></trkpt><trkpt lat="42.4763784" lon="14.2070281"><ele>1.0</ele><time>2026-05-01T07:17:30.948Z</time></trkpt><trkpt lat="42.4762906" lon="14.2071665"><ele>1.0</ele><time>2026-05-01T07:17:31.945Z</time></trkpt><trkpt lat="42.4761944" lon="14.2073081"><ele>1.0</ele><time>2026-05-01T07:17:32.938Z</time></trkpt><trkpt lat="42.4761071" lon="14.2074413"><ele>1.0</ele><time>2026-05-01T07:17:33.934Z</time></trkpt><trkpt lat="42.4760147" lon="14.2075797"><ele>1.75</ele><time>2026-05-01T07:17:34.947Z</time></trkpt><trkpt lat="42.4759233" lon="14.2077172"><ele>2.5</ele><time>2026-05-01T07:17:35.948Z</time></trkpt><trkpt lat="42.4758463" lon="14.2078404"><ele>3.25</ele><time>2026-05-01T07:17:36.942Z</time></trkpt><trkpt lat="42.4757757" lon="14.2079575"><ele>4.0</ele><time>2026-05-01T07:17:37.952Z</time></trkpt><trkpt lat="42.475703" lon="14.208037"><ele>4.0</ele><time>2026-05-01T07:17:38.945Z</time></trkpt><trkpt lat="42.4756379" lon="14.2081176"><ele>4.0</ele><time>2026-05-01T07:17:40.939Z</time></trkpt><trkpt lat="42.4755538" lon="14.2082136"><ele>4.0</ele><time>2026-05-01T07:17:43.953Z</time></trkpt><trkpt lat="42.4755052" lon="14.2082871"><ele>4.0</ele><time>2026-05-01T07:17:44.943Z</time></trkpt><trkpt lat="42.4754487" lon="14.208374"><ele>4.0</ele><time>2026-05-01T07:17:45.946Z</time></trkpt><trkpt lat="42.4753795" lon="14.2084853"><ele>4.25</ele><time>2026-05-01T07:17:46.955Z</time></trkpt><trkpt lat="42.4753046" lon="14.2085974"><ele>4.5</ele><time>2026-05-01T07:17:47.951Z</time></trkpt><trkpt lat="42.4752193" lon="14.2087169"><ele>4.75</ele><time>2026-05-01T07:17:48.947Z</time></trkpt><trkpt lat="42.4751309" lon="14.2088448"><ele>5.0</ele><time>2026-05-01T07:17:49.948Z</time></trkpt><trkpt lat="42.475036" lon="14.2090011"><ele>3.75</ele><time>2026-05-01T07:17:50.944Z</time></trkpt><trkpt lat="42.4749393" lon="14.2091514"><ele>2.5</ele><time>2026-05-01T07:17:51.941Z</time></trkpt><trkpt lat="42.4748394" lon="14.2092987"><ele>1.25</ele><time>2026-05-01T07:17:52.95Z</time></trkpt><trkpt lat="42.47474" lon="14.2094462"><ele>0.0</ele><time>2026-05-01T07:17:53.939Z</time></trkpt><trkpt lat="42.4746424" lon="14.2095947"><ele>0.5</ele><time>2026-05-01T07:17:54.947Z</time></trkpt><trkpt lat="42.4745488" lon="14.2097262"><ele>1.0</ele><time>2026-05-01T07:17:55.938Z</time></trkpt><trkpt lat="42.4744618" lon="14.2098529"><ele>1.5</ele><time>2026-05-01T07:17:56.945Z</time></trkpt><trkpt lat="42.4743729" lon="14.2099774"><ele>2.0</ele><time>2026-05-01T07:17:57.94Z</time></trkpt><trkpt lat="42.4742804" lon="14.2101092"><ele>2.0</ele><time>2026-05-01T07:17:58.942Z</time></trkpt><trkpt lat="42.4741943" lon="14.210237"><ele>2.0</ele><time>2026-05-01T07:17:59.943Z</time></trkpt><trkpt lat="42.4741089" lon="14.2103555"><ele>2.0</ele><time>2026-05-01T07:18:00.956Z</time></trkpt><trkpt lat="42.4740286" lon="14.2104746"><ele>2.0</ele><time>2026-05-01T07:18:01.942Z</time></trkpt><trkpt lat="42.4739499" lon="14.2105986"><ele>1.4000000000000001</ele><time>2026-05-01T07:18:02.947Z</time></trkpt><trkpt lat="42.4738693" lon="14.2107232"><ele>0.8000000000000002</ele><time>2026-05-01T07:18:03.935Z</time></trkpt><trkpt lat="42.4737915" lon="14.2108394"><ele>0.19999999999999996</ele><time>2026-05-01T07:18:04.941Z</time></trkpt><trkpt lat="42.4737246" lon="14.2109375"><ele>-0.4</ele><time>2026-05-01T07:18:05.95Z</time></trkpt><trkpt lat="42.4736707" lon="14.2110216"><ele>-1.0</ele><time>2026-05-01T07:18:06.946Z</time></trkpt><trkpt lat="42.4736193" lon="14.2111105"><ele>-0.6666666666666666</ele><time>2026-05-01T07:18:07.954Z</time></trkpt><trkpt lat="42.4735731" lon="14.211201"><ele>-0.3333333333333333</ele><time>2026-05-01T07:18:08.947Z</time></trkpt><trkpt lat="42.4735231" lon="14.2112906"><ele>0.0</ele><time>2026-05-01T07:18:09.942Z</time></trkpt><trkpt lat="42.4734629" lon="14.2113801"><ele>0.3333333333333333</ele><time>2026-05-01T07:18:10.958Z</time></trkpt><trkpt lat="42.4734072" lon="14.2114585"><ele>0.6666666666666666</ele><time>2026-05-01T07:18:11.939Z</time></trkpt><trkpt lat="42.4733434" lon="14.2115494"><ele>1.0</ele><time>2026-05-01T07:18:12.952Z</time></trkpt><trkpt lat="42.4732795" lon="14.2116392"><ele>1.0</ele><time>2026-05-01T07:18:13.948Z</time></trkpt><trkpt lat="42.4732181" lon="14.2117378"><ele>1.0</ele><time>2026-05-01T07:18:14.944Z</time></trkpt><trkpt lat="42.4731558" lon="14.2118504"><ele>1.0</ele><time>2026-05-01T07:18:15.958Z</time></trkpt><trkpt lat="42.4730899" lon="14.2119658"><ele>1.0</ele><time>2026-05-01T07:18:16.939Z</time></trkpt><trkpt lat="42.4730192" lon="14.2120963"><ele>1.0</ele><time>2026-05-01T07:18:17.951Z</time></trkpt><trkpt lat="42.4729447" lon="14.2122323"><ele>1.5</ele><time>2026-05-01T07:18:18.946Z</time></trkpt><trkpt lat="42.4728615" lon="14.2123708"><ele>2.0</ele><time>2026-05-01T07:18:19.943Z</time></trkpt><trkpt lat="42.4727696" lon="14.2125222"><ele>2.5</ele><time>2026-05-01T07:18:20.946Z</time></trkpt><trkpt lat="42.472669" lon="14.2126822"><ele>3.0</ele><time>2026-05-01T07:18:21.943Z</time></trkpt><trkpt lat="42.4725738" lon="14.2128425"><ele>3.0</ele><time>2026-05-01T07:18:22.938Z</time></trkpt><trkpt lat="42.4724871" lon="14.2129913"><ele>3.0</ele><time>2026-05-01T07:18:23.951Z</time></trkpt><trkpt lat="42.472401" lon="14.2131328"><ele>3.0</ele><time>2026-05-01T07:18:24.944Z</time></trkpt><trkpt lat="42.4723159" lon="14.2132828"><ele>3.0</ele><time>2026-05-01T07:18:25.944Z</time></trkpt><trkpt lat="42.4722283" lon="14.2134296"><ele>3.0</ele><time>2026-05-01T07:18:26.947Z</time></trkpt><trkpt lat="42.4721451" lon="14.2135613"><ele>3.0</ele><time>2026-05-01T07:18:27.945Z</time></trkpt><trkpt lat="42.4720632" lon="14.2136931"><ele>3.0</ele><time>2026-05-01T07:18:28.943Z</time></trkpt><trkpt lat="42.4719781" lon="14.2138343"><ele>3.0</ele><time>2026-05-01T07:18:29.949Z</time></trkpt><trkpt lat="42.471899" lon="14.21397"><ele>3.75</ele><time>2026-05-01T07:18:30.948Z</time></trkpt><trkpt lat="42.4718228" lon="14.2140932"><ele>4.5</ele><time>2026-05-01T07:18:31.951Z</time></trkpt><trkpt lat="42.4717498" lon="14.2142229"><ele>5.25</ele><time>2026-05-01T07:18:32.937Z</time></trkpt><trkpt lat="42.4716732" lon="14.2143529"><ele>6.0</ele><time>2026-05-01T07:18:33.947Z</time></trkpt><trkpt lat="42.4715983" lon="14.2144768"><ele>6.0</ele><time>2026-05-01T07:18:34.937Z</time></trkpt><trkpt lat="42.471521" lon="14.2145982"><ele>6.0</ele><time>2026-05-01T07:18:35.949Z</time></trkpt><trkpt lat="42.4714485" lon="14.2147269"><ele>6.0</ele><time>2026-05-01T07:18:36.95Z</time></trkpt><trkpt lat="42.4713785" lon="14.2148482"><ele>6.0</ele><time>2026-05-01T07:18:37.944Z</time></trkpt><trkpt lat="42.4713069" lon="14.2149643"><ele>6.0</ele><time>2026-05-01T07:18:38.947Z</time></trkpt><trkpt lat="42.471234" lon="14.2150835"><ele>6.0</ele><time>2026-05-01T07:18:39.938Z</time></trkpt><trkpt lat="42.4711565" lon="14.2152069"><ele>6.0</ele><time>2026-05-01T07:18:40.939Z</time></trkpt><trkpt lat="42.4710811" lon="14.2153316"><ele>6.0</ele><time>2026-05-01T07:18:41.94Z</time></trkpt><trkpt lat="42.4710158" lon="14.2154533"><ele>6.0</ele><time>2026-05-01T07:18:42.953Z</time></trkpt><trkpt lat="42.4709507" lon="14.2155707"><ele>6.0</ele><time>2026-05-01T07:18:43.945Z</time></trkpt><trkpt lat="42.4708812" lon="14.2156982"><ele>6.0</ele><time>2026-05-01T07:18:44.948Z</time></trkpt><trkpt lat="42.4708036" lon="14.2158274"><ele>6.0</ele><time>2026-05-01T07:18:45.945Z</time></trkpt><trkpt lat="42.4707264" lon="14.2159533"><ele>6.0</ele><time>2026-05-01T07:18:46.949Z</time></trkpt><trkpt lat="42.4706545" lon="14.2160777"><ele>6.0</ele><time>2026-05-01T07:18:47.941Z</time></trkpt><trkpt lat="42.4705763" lon="14.2161987"><ele>6.0</ele><time>2026-05-01T07:18:48.941Z</time></trkpt><trkpt lat="42.4705014" lon="14.2163209"><ele>6.0</ele><time>2026-05-01T07:18:49.942Z</time></trkpt><trkpt lat="42.4704319" lon="14.2164395"><ele>5.6</ele><time>2026-05-01T07:18:50.941Z</time></trkpt><trkpt lat="42.4703676" lon="14.2165599"><ele>5.199999999999999</ele><time>2026-05-01T07:18:51.939Z</time></trkpt><trkpt lat="42.4703019" lon="14.2166734"><ele>4.800000000000001</ele><time>2026-05-01T07:18:52.949Z</time></trkpt><trkpt lat="42.470241" lon="14.2167866"><ele>4.4</ele><time>2026-05-01T07:18:53.944Z</time></trkpt><trkpt lat="42.4701774" lon="14.2168985"><ele>4.0</ele><time>2026-05-01T07:18:54.942Z</time></trkpt><trkpt lat="42.4701155" lon="14.2170087"><ele>4.0</ele><time>2026-05-01T07:18:55.95Z</time></trkpt><trkpt lat="42.4700552" lon="14.2171171"><ele>4.0</ele><time>2026-05-01T07:18:56.947Z</time></trkpt><trkpt lat="42.4700001" lon="14.2172167"><ele>4.0</ele><time>2026-05-01T07:18:57.936Z</time></trkpt><trkpt lat="42.4699475" lon="14.2173115"><ele>4.0</ele><time>2026-05-01T07:18:58.936Z</time></trkpt><trkpt lat="42.4698908" lon="14.2174182"><ele>4.0</ele><time>2026-05-01T07:18:59.936Z</time></trkpt><trkpt lat="42.4698293" lon="14.2175255"><ele>3.9999999999999996</ele><time>2026-05-01T07:19:00.958Z</time></trkpt><trkpt lat="42.4697751" lon="14.2176234"><ele>4.0</ele><time>2026-05-01T07:19:01.944Z</time></trkpt><trkpt lat="42.46972" lon="14.2177192"><ele>4.0</ele><time>2026-05-01T07:19:02.95Z</time></trkpt><trkpt lat="42.4696682" lon="14.2178025"><ele>4.0</ele><time>2026-05-01T07:19:03.954Z</time></trkpt><trkpt lat="42.4696175" lon="14.2178851"><ele>3.9999999999999996</ele><time>2026-05-01T07:19:04.942Z</time></trkpt><trkpt lat="42.4695685" lon="14.2179714"><ele>4.0</ele><time>2026-05-01T07:19:05.937Z</time></trkpt><trkpt lat="42.4695181" lon="14.2180616"><ele>3.9999999999999996</ele><time>2026-05-01T07:19:06.942Z</time></trkpt><trkpt lat="42.4694694" lon="14.2181468"><ele>4.0</ele><time>2026-05-01T07:19:07.946Z</time></trkpt><trkpt lat="42.4694202" lon="14.2182301"><ele>4.0</ele><time>2026-05-01T07:19:08.944Z</time></trkpt><trkpt lat="42.4693675" lon="14.2183164"><ele>4.0</ele><time>2026-05-01T07:19:09.95Z</time></trkpt><trkpt lat="42.4693126" lon="14.2184022"><ele>3.9999999999999996</ele><time>2026-05-01T07:19:10.94Z</time></trkpt><trkpt lat="42.4692638" lon="14.2184981"><ele>4.0</ele><time>2026-05-01T07:19:11.943Z</time></trkpt><trkpt lat="42.4692072" lon="14.2185903"><ele>3.9999999999999996</ele><time>2026-05-01T07:19:12.942Z</time></trkpt><trkpt lat="42.4691534" lon="14.2186809"><ele>4.0</ele><time>2026-05-01T07:19:13.941Z</time></trkpt><trkpt lat="42.469098" lon="14.2187721"><ele>4.0</ele><time>2026-05-01T07:19:14.958Z</time></trkpt><trkpt lat="42.469053" lon="14.2188659"><ele>4.0</ele><time>2026-05-01T07:19:15.942Z</time></trkpt><trkpt lat="42.469003" lon="14.21895"><ele>3.9999999999999996</ele><time>2026-05-01T07:19:16.948Z</time></trkpt><trkpt lat="42.4689522" lon="14.2190394"><ele>4.0</ele><time>2026-05-01T07:19:17.944Z</time></trkpt><trkpt lat="42.4689035" lon="14.2191281"><ele>4.166666666666666</ele><time>2026-05-01T07:19:18.944Z</time></trkpt><trkpt lat="42.4688497" lon="14.2192175"><ele>4.333333333333333</ele><time>2026-05-01T07:19:19.944Z</time></trkpt><trkpt lat="42.4687951" lon="14.2193079"><ele>4.5</ele><time>2026-05-01T07:19:20.945Z</time></trkpt><trkpt lat="42.4687411" lon="14.2193967"><ele>4.666666666666667</ele><time>2026-05-01T07:19:21.942Z</time></trkpt><trkpt lat="42.4686912" lon="14.2194827"><ele>4.833333333333334</ele><time>2026-05-01T07:19:22.946Z</time></trkpt><trkpt lat="42.4686418" lon="14.2195731"><ele>5.0</ele><time>2026-05-01T07:19:23.95Z</time></trkpt><trkpt lat="42.4685919" lon="14.2196559"><ele>5.0</ele><time>2026-05-01T07:19:24.939Z</time></trkpt><trkpt lat="42.468536" lon="14.2197298"><ele>5.0</ele><time>2026-05-01T07:19:25.95Z</time></trkpt><trkpt lat="42.4684819" lon="14.2198038"><ele>5.0</ele><time>2026-05-01T07:19:26.949Z</time></trkpt><trkpt lat="42.4684308" lon="14.2198869"><ele>5.0</ele><time>2026-05-01T07:19:27.947Z</time></trkpt><trkpt lat="42.4683809" lon="14.2199775"><ele>5.0</ele><time>2026-05-01T07:19:28.948Z</time></trkpt><trkpt lat="42.4683354" lon="14.2200659"><ele>5.0</ele><time>2026-05-01T07:19:29.94Z</time></trkpt><trkpt lat="42.4682876" lon="14.2201548"><ele>4.666666666666667</ele><time>2026-05-01T07:19:30.945Z</time></trkpt><trkpt lat="42.4682401" lon="14.2202383"><ele>4.333333333333334</ele><time>2026-05-01T07:19:31.946Z</time></trkpt><trkpt lat="42.4681921" lon="14.2203231"><ele>4.0</ele><time>2026-05-01T07:19:32.94Z</time></trkpt><trkpt lat="42.4681385" lon="14.220402"><ele>3.666666666666667</ele><time>2026-05-01T07:19:33.952Z</time></trkpt><trkpt lat="42.4680881" lon="14.2204802"><ele>3.3333333333333335</ele><time>2026-05-01T07:19:34.948Z</time></trkpt><trkpt lat="42.4680411" lon="14.2205607"><ele>3.0</ele><time>2026-05-01T07:19:35.941Z</time></trkpt><trkpt lat="42.4680031" lon="14.220647"><ele>2.8</ele><time>2026-05-01T07:19:36.95Z</time></trkpt><trkpt lat="42.4679627" lon="14.2207235"><ele>2.5999999999999996</ele><time>2026-05-01T07:19:37.938Z</time></trkpt><trkpt lat="42.4678817" lon="14.2208641"><ele>2.4000000000000004</ele><time>2026-05-01T07:19:39.945Z</time></trkpt><trkpt lat="42.4678155" lon="14.2209695"><ele>2.2</ele><time>2026-05-01T07:19:41.943Z</time></trkpt><trkpt lat="42.4677485" lon="14.2210429"><ele>2.0</ele><time>2026-05-01T07:19:44.962Z</time></trkpt><trkpt lat="42.4676812" lon="14.2211084"><ele>2.0</ele><time>2026-05-01T07:19:47.939Z</time></trkpt><trkpt lat="42.4676204" lon="14.221224"><ele>2.0</ele><time>2026-05-01T07:19:49.937Z</time></trkpt><trkpt lat="42.4675461" lon="14.221359"><ele>2.0</ele><time>2026-05-01T07:19:51.94Z</time></trkpt><trkpt lat="42.4675017" lon="14.2214421"><ele>2.0</ele><time>2026-05-01T07:19:52.932Z</time></trkpt><trkpt lat="42.467452" lon="14.2215326"><ele>2.0</ele><time>2026-05-01T07:19:53.933Z</time></trkpt><trkpt lat="42.4674065" lon="14.2216205"><ele>1.857142857142857</ele><time>2026-05-01T07:19:54.939Z</time></trkpt><trkpt lat="42.4673665" lon="14.2216951"><ele>1.714285714285714</ele><time>2026-05-01T07:19:55.933Z</time></trkpt><trkpt lat="42.4673277" lon="14.2217625"><ele>1.5714285714285714</ele><time>2026-05-01T07:19:56.944Z</time></trkpt><trkpt lat="42.467284" lon="14.2218317"><ele>1.4285714285714284</ele><time>2026-05-01T07:19:57.931Z</time></trkpt><trkpt lat="42.4672346" lon="14.2219071"><ele>1.2857142857142856</ele><time>2026-05-01T07:19:58.938Z</time></trkpt><trkpt lat="42.4671817" lon="14.2219765"><ele>1.1428571428571428</ele><time>2026-05-01T07:19:59.931Z</time></trkpt><trkpt lat="42.4671299" lon="14.2220423"><ele>1.0</ele><time>2026-05-01T07:20:00.945Z</time></trkpt><trkpt lat="42.4670685" lon="14.2220916"><ele>1.5</ele><time>2026-05-01T07:20:01.936Z</time></trkpt><trkpt lat="42.4669993" lon="14.2221297"><ele>2.0</ele><time>2026-05-01T07:20:02.934Z</time></trkpt><trkpt lat="42.4669282" lon="14.2221464"><ele>2.5</ele><time>2026-05-01T07:20:03.94Z</time></trkpt><trkpt lat="42.4668554" lon="14.222148"><ele>3.0</ele><time>2026-05-01T07:20:04.94Z</time></trkpt><trkpt lat="42.4667801" lon="14.2221324"><ele>3.4999999999999996</ele><time>2026-05-01T07:20:05.93Z</time></trkpt><trkpt lat="42.4667046" lon="14.2220969"><ele>4.0</ele><time>2026-05-01T07:20:06.944Z</time></trkpt><trkpt lat="42.466629" lon="14.2220562"><ele>3.9999999999999996</ele><time>2026-05-01T07:20:07.933Z</time></trkpt><trkpt lat="42.4665495" lon="14.222005"><ele>4.0</ele><time>2026-05-01T07:20:08.927Z</time></trkpt><trkpt lat="42.4664752" lon="14.2219498"><ele>4.0</ele><time>2026-05-01T07:20:09.945Z</time></trkpt><trkpt lat="42.4664042" lon="14.2218905"><ele>4.0</ele><time>2026-05-01T07:20:10.935Z</time></trkpt><trkpt lat="42.4663297" lon="14.2218366"><ele>3.9999999999999996</ele><time>2026-05-01T07:20:11.943Z</time></trkpt><trkpt lat="42.4662513" lon="14.2217803"><ele>4.0</ele><time>2026-05-01T07:20:12.937Z</time></trkpt><trkpt lat="42.466174" lon="14.2217189"><ele>3.833333333333333</ele><time>2026-05-01T07:20:13.936Z</time></trkpt><trkpt lat="42.4661088" lon="14.2216506"><ele>3.6666666666666665</ele><time>2026-05-01T07:20:14.94Z</time></trkpt><trkpt lat="42.4660494" lon="14.2215737"><ele>3.5</ele><time>2026-05-01T07:20:15.935Z</time></trkpt><trkpt lat="42.465991" lon="14.221492"><ele>3.333333333333333</ele><time>2026-05-01T07:20:16.948Z</time></trkpt><trkpt lat="42.4659434" lon="14.2213911"><ele>3.1666666666666665</ele><time>2026-05-01T07:20:17.958Z</time></trkpt><trkpt lat="42.4658989" lon="14.2212842"><ele>3.0</ele><time>2026-05-01T07:20:18.947Z</time></trkpt><trkpt lat="42.4658596" lon="14.2211627"><ele>3.8</ele><time>2026-05-01T07:20:19.935Z</time></trkpt><trkpt lat="42.4658246" lon="14.2210325"><ele>4.6</ele><time>2026-05-01T07:20:20.959Z</time></trkpt><trkpt lat="42.4657842" lon="14.2208918"><ele>5.3999999999999995</ele><time>2026-05-01T07:20:21.939Z</time></trkpt><trkpt lat="42.4657462" lon="14.2207504"><ele>6.199999999999999</ele><time>2026-05-01T07:20:22.944Z</time></trkpt><trkpt lat="42.4657109" lon="14.220611"><ele>7.0</ele><time>2026-05-01T07:20:23.939Z</time></trkpt><trkpt lat="42.4656747" lon="14.2204705"><ele>6.6</ele><time>2026-05-01T07:20:24.925Z</time></trkpt><trkpt lat="42.4656395" lon="14.2203237"><ele>6.199999999999999</ele><time>2026-05-01T07:20:25.948Z</time></trkpt><trkpt lat="42.4656067" lon="14.2201752"><ele>5.8</ele><time>2026-05-01T07:20:26.938Z</time></trkpt><trkpt lat="42.4655722" lon="14.2200355"><ele>5.4</ele><time>2026-05-01T07:20:27.931Z</time></trkpt><trkpt lat="42.4655337" lon="14.2199018"><ele>5.0</ele><time>2026-05-01T07:20:28.94Z</time></trkpt><trkpt lat="42.465498" lon="14.2197699"><ele>5.0</ele><time>2026-05-01T07:20:29.94Z</time></trkpt><trkpt lat="42.4654663" lon="14.2196284"><ele>5.0</ele><time>2026-05-01T07:20:30.949Z</time></trkpt><trkpt lat="42.465438" lon="14.2194813"><ele>5.0</ele><time>2026-05-01T07:20:31.929Z</time></trkpt><trkpt lat="42.4654075" lon="14.2193446"><ele>5.0</ele><time>2026-05-01T07:20:32.941Z</time></trkpt><trkpt lat="42.4653818" lon="14.2192281"><ele>5.0</ele><time>2026-05-01T07:20:33.931Z</time></trkpt><trkpt lat="42.4653558" lon="14.2191298"><ele>4.8</ele><time>2026-05-01T07:20:34.933Z</time></trkpt><trkpt lat="42.4653231" lon="14.219"><ele>4.6</ele><time>2026-05-01T07:20:36.935Z</time></trkpt><trkpt lat="42.4653107" lon="14.2189003"><ele>4.4</ele><time>2026-05-01T07:20:38.94Z</time></trkpt><trkpt lat="42.4652969" lon="14.2187591"><ele>4.2</ele><time>2026-05-01T07:20:40.935Z</time></trkpt><trkpt lat="42.4652699" lon="14.2185961"><ele>4.0</ele><time>2026-05-01T07:20:42.94Z</time></trkpt><trkpt lat="42.4652016" lon="14.2185282"><ele>3.8000000000000003</ele><time>2026-05-01T07:20:44.932Z</time></trkpt><trkpt lat="42.4651004" lon="14.2185783"><ele>3.6000000000000005</ele><time>2026-05-01T07:20:46.932Z</time></trkpt><trkpt lat="42.4650186" lon="14.2185302"><ele>3.4</ele><time>2026-05-01T07:20:48.935Z</time></trkpt><trkpt lat="42.4649564" lon="14.2184119"><ele>3.2</ele><time>2026-05-01T07:20:55.944Z</time></trkpt><trkpt lat="42.4649212" lon="14.2183138"><ele>3.0</ele><time>2026-05-01T07:20:56.936Z</time></trkpt><trkpt lat="42.4648866" lon="14.2182019"><ele>4.25</ele><time>2026-05-01T07:20:57.94Z</time></trkpt><trkpt lat="42.4648463" lon="14.2180532"><ele>5.5</ele><time>2026-05-01T07:20:58.93Z</time></trkpt><trkpt lat="42.4648031" lon="14.2178908"><ele>6.75</ele><time>2026-05-01T07:20:59.935Z</time></trkpt><trkpt lat="42.4647582" lon="14.2177156"><ele>8.0</ele><time>2026-05-01T07:21:00.94Z</time></trkpt><trkpt lat="42.464714" lon="14.2175247"><ele>8.0</ele><time>2026-05-01T07:21:01.94Z</time></trkpt><trkpt lat="42.4646751" lon="14.2173369"><ele>8.0</ele><time>2026-05-01T07:21:02.94Z</time></trkpt><trkpt lat="42.4646307" lon="14.2171549"><ele>8.0</ele><time>2026-05-01T07:21:03.939Z</time></trkpt><trkpt lat="42.4645714" lon="14.2169874"><ele>8.0</ele><time>2026-05-01T07:21:04.941Z</time></trkpt><trkpt lat="42.4645013" lon="14.216826"><ele>7.0</ele><time>2026-05-01T07:21:05.949Z</time></trkpt><trkpt lat="42.4644193" lon="14.2166657"><ele>6.0</ele><time>2026-05-01T07:21:06.946Z</time></trkpt><trkpt lat="42.4643415" lon="14.2165056"><ele>5.0</ele><time>2026-05-01T07:21:07.937Z</time></trkpt><trkpt lat="42.4642675" lon="14.2163289"><ele>4.0</ele><time>2026-05-01T07:21:08.943Z</time></trkpt><trkpt lat="42.4641949" lon="14.2161361"><ele>4.0</ele><time>2026-05-01T07:21:09.93Z</time></trkpt><trkpt lat="42.4641202" lon="14.2159258"><ele>4.0</ele><time>2026-05-01T07:21:10.94Z</time></trkpt><trkpt lat="42.4640517" lon="14.2157109"><ele>4.0</ele><time>2026-05-01T07:21:11.932Z</time></trkpt><trkpt lat="42.4639889" lon="14.2154918"><ele>5.0</ele><time>2026-05-01T07:21:12.929Z</time></trkpt><trkpt lat="42.4639256" lon="14.2152706"><ele>6.0</ele><time>2026-05-01T07:21:13.955Z</time></trkpt><trkpt lat="42.4638552" lon="14.2150645"><ele>7.0</ele><time>2026-05-01T07:21:14.937Z</time></trkpt><trkpt lat="42.4637671" lon="14.2148553"><ele>7.666666666666667</ele><time>2026-05-01T07:21:15.937Z</time></trkpt><trkpt lat="42.463673" lon="14.214645"><ele>8.333333333333334</ele><time>2026-05-01T07:21:16.94Z</time></trkpt><trkpt lat="42.4635806" lon="14.2144407"><ele>9.0</ele><time>2026-05-01T07:21:17.938Z</time></trkpt><trkpt lat="42.4634897" lon="14.2142439"><ele>9.0</ele><time>2026-05-01T07:21:18.947Z</time></trkpt><trkpt lat="42.4634" lon="14.2140448"><ele>9.0</ele><time>2026-05-01T07:21:19.932Z</time></trkpt><trkpt lat="42.4633129" lon="14.2138402"><ele>9.0</ele><time>2026-05-01T07:21:20.937Z</time></trkpt><trkpt lat="42.463226" lon="14.2136371"><ele>8.666666666666666</ele><time>2026-05-01T07:21:21.938Z</time></trkpt><trkpt lat="42.4631356" lon="14.2134512"><ele>8.333333333333332</ele><time>2026-05-01T07:21:22.935Z</time></trkpt><trkpt lat="42.4630456" lon="14.2132586"><ele>8.0</ele><time>2026-05-01T07:21:23.931Z</time></trkpt><trkpt lat="42.4629622" lon="14.2130612"><ele>7.666666666666666</ele><time>2026-05-01T07:21:24.937Z</time></trkpt><trkpt lat="42.4628829" lon="14.2128715"><ele>7.333333333333334</ele><time>2026-05-01T07:21:25.935Z</time></trkpt><trkpt lat="42.4627991" lon="14.2126965"><ele>7.0</ele><time>2026-05-01T07:21:26.931Z</time></trkpt><trkpt lat="42.4627153" lon="14.2125124"><ele>7.0</ele><time>2026-05-01T07:21:27.932Z</time></trkpt><trkpt lat="42.4626313" lon="14.2123272"><ele>7.0</ele><time>2026-05-01T07:21:28.942Z</time></trkpt><trkpt lat="42.4625538" lon="14.2121502"><ele>7.0</ele><time>2026-05-01T07:21:29.94Z</time></trkpt><trkpt lat="42.4624811" lon="14.211982"><ele>6.0</ele><time>2026-05-01T07:21:30.934Z</time></trkpt><trkpt lat="42.4624013" lon="14.2118022"><ele>5.0</ele><time>2026-05-01T07:21:31.927Z</time></trkpt><trkpt lat="42.4623233" lon="14.2116222"><ele>4.0</ele><time>2026-05-01T07:21:32.943Z</time></trkpt><trkpt lat="42.4622465" lon="14.2114507"><ele>4.0</ele><time>2026-05-01T07:21:33.951Z</time></trkpt><trkpt lat="42.4621738" lon="14.2112795"><ele>4.0</ele><time>2026-05-01T07:21:34.94Z</time></trkpt><trkpt lat="42.4621062" lon="14.2111152"><ele>4.0</ele><time>2026-05-01T07:21:35.949Z</time></trkpt><trkpt lat="42.4620429" lon="14.210968"><ele>4.0</ele><time>2026-05-01T07:21:36.937Z</time></trkpt><trkpt lat="42.4619809" lon="14.2108265"><ele>4.0</ele><time>2026-05-01T07:21:37.93Z</time></trkpt><trkpt lat="42.4619294" lon="14.2106894"><ele>4.0</ele><time>2026-05-01T07:21:38.942Z</time></trkpt><trkpt lat="42.4618894" lon="14.2105582"><ele>4.0</ele><time>2026-05-01T07:21:39.934Z</time></trkpt><trkpt lat="42.4618602" lon="14.2104277"><ele>4.0</ele><time>2026-05-01T07:21:40.939Z</time></trkpt><trkpt lat="42.4618391" lon="14.2102891"><ele>4.0</ele><time>2026-05-01T07:21:41.937Z</time></trkpt><trkpt lat="42.4618214" lon="14.2101441"><ele>4.0</ele><time>2026-05-01T07:21:42.934Z</time></trkpt><trkpt lat="42.461811" lon="14.2100007"><ele>4.0</ele><time>2026-05-01T07:21:43.941Z</time></trkpt><trkpt lat="42.4618029" lon="14.2098529"><ele>4.0</ele><time>2026-05-01T07:21:44.93Z</time></trkpt><trkpt lat="42.4618054" lon="14.2097104"><ele>4.0</ele><time>2026-05-01T07:21:45.936Z</time></trkpt><trkpt lat="42.4618323" lon="14.2095973"><ele>4.0</ele><time>2026-05-01T07:21:46.935Z</time></trkpt><trkpt lat="42.4618817" lon="14.2094847"><ele>4.2</ele><time>2026-05-01T07:21:47.93Z</time></trkpt><trkpt lat="42.4619502" lon="14.2093808"><ele>4.4</ele><time>2026-05-01T07:21:48.94Z</time></trkpt><trkpt lat="42.4620188" lon="14.2092681"><ele>4.6</ele><time>2026-05-01T07:21:49.948Z</time></trkpt><trkpt lat="42.4620572" lon="14.2091404"><ele>4.8</ele><time>2026-05-01T07:21:50.984Z</time></trkpt><trkpt lat="42.4620874" lon="14.2090205"><ele>5.0</ele><time>2026-05-01T07:21:51.936Z</time></trkpt><trkpt lat="42.4621179" lon="14.2089067"><ele>4.666666666666667</ele><time>2026-05-01T07:21:52.938Z</time></trkpt><trkpt lat="42.4621528" lon="14.2088029"><ele>4.333333333333334</ele><time>2026-05-01T07:21:53.94Z</time></trkpt><trkpt lat="42.4621962" lon="14.2087078"><ele>4.0</ele><time>2026-05-01T07:21:54.933Z</time></trkpt><trkpt lat="42.4622439" lon="14.2086252"><ele>3.666666666666667</ele><time>2026-05-01T07:21:55.938Z</time></trkpt><trkpt lat="42.4622966" lon="14.2085561"><ele>3.3333333333333335</ele><time>2026-05-01T07:21:56.935Z</time></trkpt><trkpt lat="42.4623412" lon="14.208473"><ele>3.0</ele><time>2026-05-01T07:21:57.952Z</time></trkpt><trkpt lat="42.462357" lon="14.2083885"><ele>3.0</ele><time>2026-05-01T07:21:58.947Z</time></trkpt><trkpt lat="42.4623099" lon="14.2082588"><ele>3.0</ele><time>2026-05-01T07:22:00.933Z</time></trkpt><trkpt lat="42.4622552" lon="14.2082157"><ele>3.0</ele><time>2026-05-01T07:22:01.937Z</time></trkpt><trkpt lat="42.4621851" lon="14.2082083"><ele>3.0</ele><time>2026-05-01T07:22:02.936Z</time></trkpt><trkpt lat="42.4620956" lon="14.2082135"><ele>3.0</ele><time>2026-05-01T07:22:03.945Z</time></trkpt><trkpt lat="42.4619938" lon="14.2082101"><ele>3.0</ele><time>2026-05-01T07:22:04.934Z</time></trkpt><trkpt lat="42.4618902" lon="14.2081838"><ele>3.4</ele><time>2026-05-01T07:22:05.944Z</time></trkpt><trkpt lat="42.4617748" lon="14.2081537"><ele>3.8</ele><time>2026-05-01T07:22:06.962Z</time></trkpt><trkpt lat="42.4616877" lon="14.2081118"><ele>4.2</ele><time>2026-05-01T07:22:07.954Z</time></trkpt><trkpt lat="42.4615996" lon="14.2080691"><ele>4.6</ele><time>2026-05-01T07:22:08.943Z</time></trkpt><trkpt lat="42.4614918" lon="14.2080531"><ele>5.0</ele><time>2026-05-01T07:22:09.929Z</time></trkpt><trkpt lat="42.4613934" lon="14.2080341"><ele>5.0</ele><time>2026-05-01T07:22:10.94Z</time></trkpt><trkpt lat="42.4613199" lon="14.2080132"><ele>5.0</ele><time>2026-05-01T07:22:11.944Z</time></trkpt><trkpt lat="42.4612154" lon="14.2079803"><ele>5.0</ele><time>2026-05-01T07:22:13.937Z</time></trkpt><trkpt lat="42.4611403" lon="14.2079235"><ele>5.0</ele><time>2026-05-01T07:22:15.943Z</time></trkpt><trkpt lat="42.4611019" lon="14.2078127"><ele>5.0</ele><time>2026-05-01T07:22:17.929Z</time></trkpt><trkpt lat="42.4609777" lon="14.2077715"><ele>5.166666666666667</ele><time>2026-05-01T07:22:19.933Z</time></trkpt><trkpt lat="42.4608698" lon="14.2078332"><ele>5.333333333333334</ele><time>2026-05-01T07:22:21.936Z</time></trkpt><trkpt lat="42.4608297" lon="14.2079893"><ele>5.5</ele><time>2026-05-01T07:22:23.933Z</time></trkpt><trkpt lat="42.4608304" lon="14.2080795"><ele>5.666666666666667</ele><time>2026-05-01T07:22:24.941Z</time></trkpt><trkpt lat="42.4608366" lon="14.2081774"><ele>5.833333333333333</ele><time>2026-05-01T07:22:25.941Z</time></trkpt><trkpt lat="42.4608446" lon="14.2082679"><ele>6.0</ele><time>2026-05-01T07:22:26.933Z</time></trkpt><trkpt lat="42.4608366" lon="14.2083548"><ele>6.0</ele><time>2026-05-01T07:22:27.941Z</time></trkpt><trkpt lat="42.4608072" lon="14.2085025"><ele>6.0</ele><time>2026-05-01T07:22:29.934Z</time></trkpt><trkpt lat="42.4607406" lon="14.2086114"><ele>6.0</ele><time>2026-05-01T07:22:31.95Z</time></trkpt><trkpt lat="42.4606893" lon="14.2086974"><ele>6.0</ele><time>2026-05-01T07:22:33.931Z</time></trkpt><trkpt lat="42.4605927" lon="14.2087391"><ele>6.0</ele><time>2026-05-01T07:22:35.944Z</time></trkpt><trkpt lat="42.4604732" lon="14.2087892"><ele>5.666666666666667</ele><time>2026-05-01T07:22:37.94Z</time></trkpt><trkpt lat="42.4603944" lon="14.2088325"><ele>5.333333333333333</ele><time>2026-05-01T07:22:38.935Z</time></trkpt><trkpt lat="42.4603235" lon="14.2088818"><ele>5.0</ele><time>2026-05-01T07:22:39.942Z</time></trkpt><trkpt lat="42.4602607" lon="14.2089172"><ele>4.666666666666666</ele><time>2026-05-01T07:22:40.931Z</time></trkpt><trkpt lat="42.4601913" lon="14.2089567"><ele>4.333333333333333</ele><time>2026-05-01T07:22:41.946Z</time></trkpt><trkpt lat="42.4601111" lon="14.2090018"><ele>4.0</ele><time>2026-05-01T07:22:42.932Z</time></trkpt><trkpt lat="42.460023" lon="14.2090577"><ele>3.8000000000000003</ele><time>2026-05-01T07:22:43.935Z</time></trkpt><trkpt lat="42.4599383" lon="14.2091049"><ele>3.6000000000000005</ele><time>2026-05-01T07:22:44.937Z</time></trkpt><trkpt lat="42.4598592" lon="14.2091659"><ele>3.4</ele><time>2026-05-01T07:22:45.94Z</time></trkpt><trkpt lat="42.4597863" lon="14.2092235"><ele>3.2</ele><time>2026-05-01T07:22:46.943Z</time></trkpt><trkpt lat="42.4597315" lon="14.209278"><ele>3.0</ele><time>2026-05-01T07:22:47.936Z</time></trkpt><trkpt lat="42.4596301" lon="14.2093716"><ele>3.4</ele><time>2026-05-01T07:22:49.935Z</time></trkpt><trkpt lat="42.4595601" lon="14.2094081"><ele>3.8</ele><time>2026-05-01T07:22:50.939Z</time></trkpt><trkpt lat="42.4594771" lon="14.2094613"><ele>4.2</ele><time>2026-05-01T07:22:51.934Z</time></trkpt><trkpt lat="42.4593809" lon="14.2095216"><ele>4.6</ele><time>2026-05-01T07:22:52.938Z</time></trkpt><trkpt lat="42.4592778" lon="14.2095813"><ele>5.0</ele><time>2026-05-01T07:22:53.94Z</time></trkpt><trkpt lat="42.4591616" lon="14.2096386"><ele>5.0</ele><time>2026-05-01T07:22:54.931Z</time></trkpt><trkpt lat="42.4590413" lon="14.2096966"><ele>5.0</ele><time>2026-05-01T07:22:55.947Z</time></trkpt><trkpt lat="42.4589495" lon="14.2097585"><ele>5.0</ele><time>2026-05-01T07:22:56.94Z</time></trkpt><trkpt lat="42.4588563" lon="14.2098302"><ele>5.0</ele><time>2026-05-01T07:22:57.933Z</time></trkpt><trkpt lat="42.4587657" lon="14.209892"><ele>5.0</ele><time>2026-05-01T07:22:58.934Z</time></trkpt><trkpt lat="42.4586761" lon="14.2099571"><ele>5.166666666666667</ele><time>2026-05-01T07:22:59.934Z</time></trkpt><trkpt lat="42.4585873" lon="14.2100279"><ele>5.333333333333334</ele><time>2026-05-01T07:23:00.938Z</time></trkpt><trkpt lat="42.4585098" lon="14.2101005"><ele>5.5</ele><time>2026-05-01T07:23:01.931Z</time></trkpt><trkpt lat="42.4584431" lon="14.2101559"><ele>5.666666666666667</ele><time>2026-05-01T07:23:02.948Z</time></trkpt><trkpt lat="42.4583815" lon="14.2102049"><ele>5.833333333333333</ele><time>2026-05-01T07:23:03.951Z</time></trkpt><trkpt lat="42.4583296" lon="14.2102935"><ele>6.0</ele><time>2026-05-01T07:23:05.944Z</time></trkpt><trkpt lat="42.4583053" lon="14.2103859"><ele>6.0</ele><time>2026-05-01T07:23:07.93Z</time></trkpt><trkpt lat="42.4583122" lon="14.210519"><ele>6.0</ele><time>2026-05-01T07:23:09.933Z</time></trkpt><trkpt lat="42.4583594" lon="14.2106053"><ele>6.0</ele><time>2026-05-01T07:23:10.931Z</time></trkpt><trkpt lat="42.4584242" lon="14.2106824"><ele>6.0</ele><time>2026-05-01T07:23:11.946Z</time></trkpt><trkpt lat="42.4584861" lon="14.2107746"><ele>6.0</ele><time>2026-05-01T07:23:12.946Z</time></trkpt><trkpt lat="42.4585446" lon="14.2108652"><ele>6.0</ele><time>2026-05-01T07:23:13.944Z</time></trkpt><trkpt lat="42.4585819" lon="14.2109547"><ele>6.199999999999999</ele><time>2026-05-01T07:23:14.936Z</time></trkpt><trkpt lat="42.4585914" lon="14.2110438"><ele>6.3999999999999995</ele><time>2026-05-01T07:23:15.933Z</time></trkpt><trkpt lat="42.4585179" lon="14.2111706"><ele>6.6</ele><time>2026-05-01T07:23:17.938Z</time></trkpt><trkpt lat="42.4584456" lon="14.2112297"><ele>6.8</ele><time>2026-05-01T07:23:18.933Z</time></trkpt><trkpt lat="42.4583478" lon="14.211267"><ele>7.0</ele><time>2026-05-01T07:23:19.94Z</time></trkpt><trkpt lat="42.4582405" lon="14.2113245"><ele>7.0</ele><time>2026-05-01T07:23:20.936Z</time></trkpt><trkpt lat="42.4581163" lon="14.2113878"><ele>7.0</ele><time>2026-05-01T07:23:21.929Z</time></trkpt><trkpt lat="42.4579857" lon="14.211466"><ele>7.0</ele><time>2026-05-01T07:23:22.952Z</time></trkpt><trkpt lat="42.4578473" lon="14.2115432"><ele>7.0</ele><time>2026-05-01T07:23:23.94Z</time></trkpt><trkpt lat="42.4577169" lon="14.2116294"><ele>6.25</ele><time>2026-05-01T07:23:24.937Z</time></trkpt><trkpt lat="42.457587" lon="14.2117068"><ele>5.5</ele><time>2026-05-01T07:23:25.942Z</time></trkpt><trkpt lat="42.4574518" lon="14.2117891"><ele>4.75</ele><time>2026-05-01T07:23:26.93Z</time></trkpt><trkpt lat="42.4573203" lon="14.2118731"><ele>4.0</ele><time>2026-05-01T07:23:27.934Z</time></trkpt><trkpt lat="42.4571778" lon="14.2119519"><ele>3.333333333333333</ele><time>2026-05-01T07:23:28.937Z</time></trkpt><trkpt lat="42.4570239" lon="14.2120325"><ele>2.6666666666666665</ele><time>2026-05-01T07:23:29.932Z</time></trkpt><trkpt lat="42.4568737" lon="14.2121119"><ele>2.0</ele><time>2026-05-01T07:23:30.932Z</time></trkpt><trkpt lat="42.4567208" lon="14.2121912"><ele>2.0</ele><time>2026-05-01T07:23:31.938Z</time></trkpt><trkpt lat="42.4565666" lon="14.2122683"><ele>2.0</ele><time>2026-05-01T07:23:32.931Z</time></trkpt><trkpt lat="42.4564068" lon="14.2123475"><ele>2.0</ele><time>2026-05-01T07:23:33.93Z</time></trkpt><trkpt lat="42.4562498" lon="14.2124139"><ele>2.333333333333333</ele><time>2026-05-01T07:23:34.939Z</time></trkpt><trkpt lat="42.4560943" lon="14.2124685"><ele>2.6666666666666665</ele><time>2026-05-01T07:23:35.945Z</time></trkpt><trkpt lat="42.4559465" lon="14.2125136"><ele>3.0</ele><time>2026-05-01T07:23:36.935Z</time></trkpt><trkpt lat="42.4557919" lon="14.2125425"><ele>3.0</ele><time>2026-05-01T07:23:37.937Z</time></trkpt><trkpt lat="42.4556383" lon="14.2125532"><ele>3.0</ele><time>2026-05-01T07:23:38.94Z</time></trkpt><trkpt lat="42.4554894" lon="14.2125571"><ele>3.0</ele><time>2026-05-01T07:23:39.932Z</time></trkpt><trkpt lat="42.4553495" lon="14.2125609"><ele>3.0</ele><time>2026-05-01T07:23:40.936Z</time></trkpt><trkpt lat="42.4552203" lon="14.2125821"><ele>3.0</ele><time>2026-05-01T07:23:41.943Z</time></trkpt><trkpt lat="42.4550925" lon="14.2125856"><ele>3.0</ele><time>2026-05-01T07:23:42.935Z</time></trkpt><trkpt lat="42.4549753" lon="14.2125923"><ele>3.0</ele><time>2026-05-01T07:23:43.943Z</time></trkpt><trkpt lat="42.4548722" lon="14.2126129"><ele>3.0</ele><time>2026-05-01T07:23:44.931Z</time></trkpt><trkpt lat="42.4547872" lon="14.2126381"><ele>3.0</ele><time>2026-05-01T07:23:45.935Z</time></trkpt><trkpt lat="42.4547265" lon="14.2127109"><ele>3.0</ele><time>2026-05-01T07:23:46.937Z</time></trkpt><trkpt lat="42.4547031" lon="14.2128092"><ele>3.0</ele><time>2026-05-01T07:23:47.931Z</time></trkpt><trkpt lat="42.4546909" lon="14.2129216"><ele>3.0</ele><time>2026-05-01T07:23:48.935Z</time></trkpt><trkpt lat="42.4546937" lon="14.2130383"><ele>3.0</ele><time>2026-05-01T07:23:49.94Z</time></trkpt><trkpt lat="42.4546592" lon="14.213144"><ele>3.0</ele><time>2026-05-01T07:23:50.928Z</time></trkpt><trkpt lat="42.4545955" lon="14.213225"><ele>3.0</ele><time>2026-05-01T07:23:51.936Z</time></trkpt><trkpt lat="42.4544888" lon="14.2132764"><ele>3.0</ele><time>2026-05-01T07:23:52.937Z</time></trkpt><trkpt lat="42.4543805" lon="14.2133068"><ele>3.0</ele><time>2026-05-01T07:23:53.931Z</time></trkpt><trkpt lat="42.4542645" lon="14.2133522"><ele>3.0</ele><time>2026-05-01T07:23:54.94Z</time></trkpt><trkpt lat="42.4541589" lon="14.2134002"><ele>3.0</ele><time>2026-05-01T07:23:55.933Z</time></trkpt><trkpt lat="42.4540617" lon="14.2134489"><ele>3.0</ele><time>2026-05-01T07:23:56.95Z</time></trkpt><trkpt lat="42.4539612" lon="14.2134971"><ele>3.0</ele><time>2026-05-01T07:23:57.936Z</time></trkpt><trkpt lat="42.4538561" lon="14.2135463"><ele>3.0</ele><time>2026-05-01T07:23:58.94Z</time></trkpt><trkpt lat="42.4537429" lon="14.2136035"><ele>3.0</ele><time>2026-05-01T07:23:59.926Z</time></trkpt><trkpt lat="42.4536229" lon="14.2136532"><ele>3.0</ele><time>2026-05-01T07:24:00.941Z</time></trkpt><trkpt lat="42.4535047" lon="14.2137123"><ele>2.75</ele><time>2026-05-01T07:24:01.934Z</time></trkpt><trkpt lat="42.4533939" lon="14.2137712"><ele>2.5</ele><time>2026-05-01T07:24:02.939Z</time></trkpt><trkpt lat="42.4532823" lon="14.2138316"><ele>2.25</ele><time>2026-05-01T07:24:03.94Z</time></trkpt><trkpt lat="42.4531702" lon="14.21389"><ele>2.0</ele><time>2026-05-01T07:24:04.934Z</time></trkpt><trkpt lat="42.4530612" lon="14.2139365"><ele>1.5</ele><time>2026-05-01T07:24:05.944Z</time></trkpt><trkpt lat="42.4529479" lon="14.2139871"><ele>1.0</ele><time>2026-05-01T07:24:06.937Z</time></trkpt><trkpt lat="42.4528395" lon="14.2140411"><ele>0.5</ele><time>2026-05-01T07:24:07.939Z</time></trkpt><trkpt lat="42.4527305" lon="14.2140955"><ele>0.0</ele><time>2026-05-01T07:24:08.94Z</time></trkpt><trkpt lat="42.4526275" lon="14.2141431"><ele>0.0</ele><time>2026-05-01T07:24:09.942Z</time></trkpt><trkpt lat="42.4525359" lon="14.2141924"><ele>0.0</ele><time>2026-05-01T07:24:10.942Z</time></trkpt><trkpt lat="42.4524456" lon="14.2142429"><ele>0.0</ele><time>2026-05-01T07:24:11.944Z</time></trkpt><trkpt lat="42.4523471" lon="14.214287"><ele>0.0</ele><time>2026-05-01T07:24:12.937Z</time></trkpt><trkpt lat="42.4522348" lon="14.214328"><ele>0.0</ele><time>2026-05-01T07:24:13.944Z</time></trkpt><trkpt lat="42.4521269" lon="14.2143963"><ele>0.25</ele><time>2026-05-01T07:24:14.929Z</time></trkpt><trkpt lat="42.4520208" lon="14.2144812"><ele>0.5</ele><time>2026-05-01T07:24:15.936Z</time></trkpt><trkpt lat="42.4519219" lon="14.2145722"><ele>0.75</ele><time>2026-05-01T07:24:16.942Z</time></trkpt><trkpt lat="42.4518215" lon="14.2146807"><ele>1.0</ele><time>2026-05-01T07:24:17.946Z</time></trkpt><trkpt lat="42.4517366" lon="14.2148074"><ele>1.0</ele><time>2026-05-01T07:24:18.94Z</time></trkpt><trkpt lat="42.4516606" lon="14.2149523"><ele>1.0</ele><time>2026-05-01T07:24:19.942Z</time></trkpt><trkpt lat="42.4515822" lon="14.2151086"><ele>1.0</ele><time>2026-05-01T07:24:20.935Z</time></trkpt><trkpt lat="42.4514956" lon="14.21526"><ele>1.0</ele><time>2026-05-01T07:24:21.934Z</time></trkpt><trkpt lat="42.4514173" lon="14.2154019"><ele>1.0</ele><time>2026-05-01T07:24:22.94Z</time></trkpt><trkpt lat="42.4513398" lon="14.2155512"><ele>1.0</ele><time>2026-05-01T07:24:23.94Z</time></trkpt><trkpt lat="42.4512601" lon="14.2156934"><ele>1.0</ele><time>2026-05-01T07:24:24.942Z</time></trkpt><trkpt lat="42.4511776" lon="14.2158485"><ele>1.0</ele><time>2026-05-01T07:24:25.944Z</time></trkpt><trkpt lat="42.4510957" lon="14.2159934"><ele>1.5</ele><time>2026-05-01T07:24:26.938Z</time></trkpt><trkpt lat="42.4510146" lon="14.2161443"><ele>2.0</ele><time>2026-05-01T07:24:27.942Z</time></trkpt><trkpt lat="42.4509347" lon="14.2162901"><ele>2.5</ele><time>2026-05-01T07:24:28.943Z</time></trkpt><trkpt lat="42.4508618" lon="14.2164253"><ele>3.0</ele><time>2026-05-01T07:24:29.929Z</time></trkpt><trkpt lat="42.4507917" lon="14.2165518"><ele>3.2</ele><time>2026-05-01T07:24:30.944Z</time></trkpt><trkpt lat="42.4507319" lon="14.2166619"><ele>3.4</ele><time>2026-05-01T07:24:31.94Z</time></trkpt><trkpt lat="42.4506835" lon="14.2167543"><ele>3.6000000000000005</ele><time>2026-05-01T07:24:32.933Z</time></trkpt><trkpt lat="42.4506466" lon="14.2168239"><ele>3.8000000000000003</ele><time>2026-05-01T07:24:33.937Z</time></trkpt><trkpt lat="42.4505636" lon="14.2169105"><ele>4.0</ele><time>2026-05-01T07:24:35.943Z</time></trkpt><trkpt lat="42.4504649" lon="14.2169169"><ele>4.0</ele><time>2026-05-01T07:24:37.942Z</time></trkpt><trkpt lat="42.4504076" lon="14.2168698"><ele>4.0</ele><time>2026-05-01T07:24:38.93Z</time></trkpt><trkpt lat="42.4503489" lon="14.2167981"><ele>4.0</ele><time>2026-05-01T07:24:39.945Z</time></trkpt><trkpt lat="42.4502922" lon="14.2166921"><ele>4.0</ele><time>2026-05-01T07:24:40.936Z</time></trkpt><trkpt lat="42.4502224" lon="14.216576"><ele>4.0</ele><time>2026-05-01T07:24:41.942Z</time></trkpt><trkpt lat="42.4501352" lon="14.2164637"><ele>4.0</ele><time>2026-05-01T07:24:42.944Z</time></trkpt><trkpt lat="42.4500482" lon="14.2163312"><ele>4.0</ele><time>2026-05-01T07:24:43.929Z</time></trkpt><trkpt lat="42.4499598" lon="14.2162037"><ele>4.0</ele><time>2026-05-01T07:24:44.951Z</time></trkpt><trkpt lat="42.4498871" lon="14.2160871"><ele>4.0</ele><time>2026-05-01T07:24:45.934Z</time></trkpt><trkpt lat="42.4498192" lon="14.2159747"><ele>3.9999999999999996</ele><time>2026-05-01T07:24:46.944Z</time></trkpt><trkpt lat="42.4497548" lon="14.2158627"><ele>4.0</ele><time>2026-05-01T07:24:47.938Z</time></trkpt><trkpt lat="42.449694" lon="14.2157687"><ele>4.0</ele><time>2026-05-01T07:24:48.935Z</time></trkpt><trkpt lat="42.4496421" lon="14.2156763"><ele>4.0</ele><time>2026-05-01T07:24:49.945Z</time></trkpt><trkpt lat="42.449596" lon="14.2155769"><ele>3.9999999999999996</ele><time>2026-05-01T07:24:50.932Z</time></trkpt><trkpt lat="42.4495463" lon="14.2155105"><ele>4.0</ele><time>2026-05-01T07:24:51.938Z</time></trkpt><trkpt lat="42.4494412" lon="14.2154659"><ele>3.9999999999999996</ele><time>2026-05-01T07:24:53.938Z</time></trkpt><trkpt lat="42.4493823" lon="14.2155028"><ele>4.0</ele><time>2026-05-01T07:24:54.942Z</time></trkpt><trkpt lat="42.4493246" lon="14.2155685"><ele>4.0</ele><time>2026-05-01T07:24:55.945Z</time></trkpt><trkpt lat="42.4492552" lon="14.2156428"><ele>4.0</ele><time>2026-05-01T07:24:56.932Z</time></trkpt><trkpt lat="42.449166" lon="14.2157004"><ele>3.9999999999999996</ele><time>2026-05-01T07:24:57.943Z</time></trkpt><trkpt lat="42.449065" lon="14.215758"><ele>4.0</ele><time>2026-05-01T07:24:58.943Z</time></trkpt><trkpt lat="42.4489496" lon="14.2158157"><ele>4.0</ele><time>2026-05-01T07:24:59.938Z</time></trkpt><trkpt lat="42.4488293" lon="14.2158667"><ele>4.0</ele><time>2026-05-01T07:25:00.952Z</time></trkpt><trkpt lat="42.4487085" lon="14.215929"><ele>4.0</ele><time>2026-05-01T07:25:01.935Z</time></trkpt><trkpt lat="42.4485941" lon="14.2159986"><ele>4.0</ele><time>2026-05-01T07:25:02.934Z</time></trkpt><trkpt lat="42.4484737" lon="14.2160784"><ele>4.75</ele><time>2026-05-01T07:25:03.933Z</time></trkpt><trkpt lat="42.4483475" lon="14.2161447"><ele>5.5</ele><time>2026-05-01T07:25:04.937Z</time></trkpt><trkpt lat="42.4482219" lon="14.216207"><ele>6.25</ele><time>2026-05-01T07:25:05.947Z</time></trkpt><trkpt lat="42.4480978" lon="14.2162678"><ele>7.0</ele><time>2026-05-01T07:25:06.945Z</time></trkpt><trkpt lat="42.4479732" lon="14.2163265"><ele>7.0</ele><time>2026-05-01T07:25:07.937Z</time></trkpt><trkpt lat="42.4478428" lon="14.2163917"><ele>7.0</ele><time>2026-05-01T07:25:08.938Z</time></trkpt><trkpt lat="42.4477098" lon="14.2164741"><ele>7.0</ele><time>2026-05-01T07:25:09.931Z</time></trkpt><trkpt lat="42.4475805" lon="14.2165572"><ele>7.0</ele><time>2026-05-01T07:25:10.933Z</time></trkpt><trkpt lat="42.4474512" lon="14.216634"><ele>7.0</ele><time>2026-05-01T07:25:11.945Z</time></trkpt><trkpt lat="42.4473284" lon="14.2166979"><ele>7.0</ele><time>2026-05-01T07:25:12.944Z</time></trkpt><trkpt lat="42.44721" lon="14.216764"><ele>7.0</ele><time>2026-05-01T07:25:13.938Z</time></trkpt><trkpt lat="42.4470959" lon="14.2168413"><ele>7.0</ele><time>2026-05-01T07:25:14.931Z</time></trkpt><trkpt lat="42.446979" lon="14.2169167"><ele>7.199999999999999</ele><time>2026-05-01T07:25:15.938Z</time></trkpt><trkpt lat="42.4468679" lon="14.2169753"><ele>7.3999999999999995</ele><time>2026-05-01T07:25:16.929Z</time></trkpt><trkpt lat="42.4467644" lon="14.217028"><ele>7.6000000000000005</ele><time>2026-05-01T07:25:17.948Z</time></trkpt><trkpt lat="42.4466644" lon="14.2170765"><ele>7.800000000000001</ele><time>2026-05-01T07:25:18.934Z</time></trkpt><trkpt lat="42.4465716" lon="14.2171378"><ele>8.0</ele><time>2026-05-01T07:25:19.95Z</time></trkpt><trkpt lat="42.4464855" lon="14.2172094"><ele>8.0</ele><time>2026-05-01T07:25:20.943Z</time></trkpt><trkpt lat="42.4464068" lon="14.2172604"><ele>8.0</ele><time>2026-05-01T07:25:21.939Z</time></trkpt><trkpt lat="42.4463353" lon="14.2173072"><ele>8.0</ele><time>2026-05-01T07:25:22.938Z</time></trkpt><trkpt lat="42.4462166" lon="14.2173433"><ele>8.0</ele><time>2026-05-01T07:25:24.94Z</time></trkpt><trkpt lat="42.4461369" lon="14.217255"><ele>8.0</ele><time>2026-05-01T07:25:26.942Z</time></trkpt><trkpt lat="42.4460847" lon="14.2171766"><ele>7.2</ele><time>2026-05-01T07:25:27.939Z</time></trkpt><trkpt lat="42.4460218" lon="14.2170816"><ele>6.4</ele><time>2026-05-01T07:25:28.943Z</time></trkpt><trkpt lat="42.4459422" lon="14.2169937"><ele>5.6000000000000005</ele><time>2026-05-01T07:25:29.941Z</time></trkpt><trkpt lat="42.4458556" lon="14.2169042"><ele>4.800000000000001</ele><time>2026-05-01T07:25:30.94Z</time></trkpt><trkpt lat="42.4457612" lon="14.2168287"><ele>4.0</ele><time>2026-05-01T07:25:31.933Z</time></trkpt><trkpt lat="42.445677" lon="14.2167351"><ele>4.0</ele><time>2026-05-01T07:25:32.943Z</time></trkpt><trkpt lat="42.4455889" lon="14.2166516"><ele>4.0</ele><time>2026-05-01T07:25:33.939Z</time></trkpt><trkpt lat="42.4454971" lon="14.2165574"><ele>4.0</ele><time>2026-05-01T07:25:34.941Z</time></trkpt><trkpt lat="42.4453995" lon="14.2164616"><ele>4.0</ele><time>2026-05-01T07:25:35.936Z</time></trkpt><trkpt lat="42.4453088" lon="14.2163769"><ele>4.800000000000001</ele><time>2026-05-01T07:25:36.951Z</time></trkpt><trkpt lat="42.4452173" lon="14.2162942"><ele>5.6000000000000005</ele><time>2026-05-01T07:25:37.931Z</time></trkpt><trkpt lat="42.4451327" lon="14.2162108"><ele>6.4</ele><time>2026-05-01T07:25:38.932Z</time></trkpt><trkpt lat="42.4450374" lon="14.216117"><ele>7.2</ele><time>2026-05-01T07:25:39.939Z</time></trkpt><trkpt lat="42.444943" lon="14.2160264"><ele>8.0</ele><time>2026-05-01T07:25:40.933Z</time></trkpt><trkpt lat="42.4448428" lon="14.2159386"><ele>8.0</ele><time>2026-05-01T07:25:41.938Z</time></trkpt><trkpt lat="42.4447451" lon="14.2158461"><ele>8.0</ele><time>2026-05-01T07:25:42.937Z</time></trkpt><trkpt lat="42.4446543" lon="14.2157557"><ele>8.0</ele><time>2026-05-01T07:25:43.932Z</time></trkpt><trkpt lat="42.4445642" lon="14.2156712"><ele>8.0</ele><time>2026-05-01T07:25:44.937Z</time></trkpt><trkpt lat="42.4444738" lon="14.215585"><ele>7.6000000000000005</ele><time>2026-05-01T07:25:45.949Z</time></trkpt><trkpt lat="42.444386" lon="14.2155013"><ele>7.200000000000001</ele><time>2026-05-01T07:25:46.943Z</time></trkpt><trkpt lat="42.4442969" lon="14.2154177"><ele>6.8</ele><time>2026-05-01T07:25:47.941Z</time></trkpt><trkpt lat="42.4442109" lon="14.2153377"><ele>6.4</ele><time>2026-05-01T07:25:48.938Z</time></trkpt><trkpt lat="42.4441304" lon="14.2152596"><ele>6.0</ele><time>2026-05-01T07:25:49.944Z</time></trkpt><trkpt lat="42.444047" lon="14.2151774"><ele>6.0</ele><time>2026-05-01T07:25:50.949Z</time></trkpt><trkpt lat="42.4439647" lon="14.2150996"><ele>6.0</ele><time>2026-05-01T07:25:51.94Z</time></trkpt><trkpt lat="42.4438817" lon="14.2150277"><ele>6.0</ele><time>2026-05-01T07:25:52.939Z</time></trkpt><trkpt lat="42.4437976" lon="14.214952"><ele>6.0</ele><time>2026-05-01T07:25:53.935Z</time></trkpt><trkpt lat="42.4437132" lon="14.214872"><ele>6.0</ele><time>2026-05-01T07:25:54.929Z</time></trkpt><trkpt lat="42.4436307" lon="14.2147895"><ele>6.199999999999999</ele><time>2026-05-01T07:25:55.94Z</time></trkpt><trkpt lat="42.4435482" lon="14.2147028"><ele>6.3999999999999995</ele><time>2026-05-01T07:25:56.932Z</time></trkpt><trkpt lat="42.4434688" lon="14.2146184"><ele>6.6</ele><time>2026-05-01T07:25:57.942Z</time></trkpt><trkpt lat="42.4433958" lon="14.2145248"><ele>6.8</ele><time>2026-05-01T07:25:58.948Z</time></trkpt><trkpt lat="42.4433339" lon="14.2144237"><ele>7.0</ele><time>2026-05-01T07:25:59.931Z</time></trkpt><trkpt lat="42.4432859" lon="14.2143443"><ele>7.000000000000001</ele><time>2026-05-01T07:26:00.94Z</time></trkpt><trkpt lat="42.4432324" lon="14.21423"><ele>7.0</ele><time>2026-05-01T07:26:02.945Z</time></trkpt><trkpt lat="42.4431908" lon="14.2141627"><ele>7.0</ele><time>2026-05-01T07:26:06.94Z</time></trkpt><trkpt lat="42.4431529" lon="14.2140881"><ele>7.0</ele><time>2026-05-01T07:26:22.942Z</time></trkpt><trkpt lat="42.4431087" lon="14.2139884"><ele>7.000000000000001</ele><time>2026-05-01T07:26:24.943Z</time></trkpt><trkpt lat="42.4430173" lon="14.2138941"><ele>7.0</ele><time>2026-05-01T07:26:26.947Z</time></trkpt><trkpt lat="42.4429537" lon="14.2138794"><ele>7.3999999999999995</ele><time>2026-05-01T07:26:27.943Z</time></trkpt><trkpt lat="42.4428643" lon="14.2138728"><ele>7.799999999999999</ele><time>2026-05-01T07:26:28.938Z</time></trkpt><trkpt lat="42.4427612" lon="14.2138582"><ele>8.2</ele><time>2026-05-01T07:26:29.94Z</time></trkpt><trkpt lat="42.44266" lon="14.2138421"><ele>8.6</ele><time>2026-05-01T07:26:30.936Z</time></trkpt><trkpt lat="42.4425503" lon="14.2138405"><ele>9.0</ele><time>2026-05-01T07:26:31.934Z</time></trkpt><trkpt lat="42.4424472" lon="14.2138364"><ele>9.0</ele><time>2026-05-01T07:26:32.956Z</time></trkpt><trkpt lat="42.4423423" lon="14.2138355"><ele>9.0</ele><time>2026-05-01T07:26:33.942Z</time></trkpt><trkpt lat="42.442246" lon="14.2138419"><ele>9.0</ele><time>2026-05-01T07:26:34.945Z</time></trkpt><trkpt lat="42.442133" lon="14.2138475"><ele>9.0</ele><time>2026-05-01T07:26:35.932Z</time></trkpt><trkpt lat="42.4420217" lon="14.2138474"><ele>9.0</ele><time>2026-05-01T07:26:36.942Z</time></trkpt><trkpt lat="42.4419013" lon="14.2138361"><ele>8.8</ele><time>2026-05-01T07:26:37.938Z</time></trkpt><trkpt lat="42.4417758" lon="14.2138285"><ele>8.600000000000001</ele><time>2026-05-01T07:26:38.939Z</time></trkpt><trkpt lat="42.4416682" lon="14.2138209"><ele>8.4</ele><time>2026-05-01T07:26:39.928Z</time></trkpt><trkpt lat="42.4415619" lon="14.2138178"><ele>8.200000000000001</ele><time>2026-05-01T07:26:40.942Z</time></trkpt><trkpt lat="42.4414596" lon="14.2138088"><ele>8.0</ele><time>2026-05-01T07:26:41.938Z</time></trkpt><trkpt lat="42.4413515" lon="14.2137979"><ele>11.0</ele><time>2026-05-01T07:26:42.944Z</time></trkpt><trkpt lat="42.4412368" lon="14.2137862"><ele>14.0</ele><time>2026-05-01T07:26:43.943Z</time></trkpt><trkpt lat="42.4411157" lon="14.2137709"><ele>17.0</ele><time>2026-05-01T07:26:44.93Z</time></trkpt><trkpt lat="42.4409893" lon="14.2137509"><ele>20.0</ele><time>2026-05-01T07:26:45.954Z</time></trkpt><trkpt lat="42.4408599" lon="14.2137237"><ele>20.0</ele><time>2026-05-01T07:26:46.94Z</time></trkpt><trkpt lat="42.4407326" lon="14.2137022"><ele>20.0</ele><time>2026-05-01T07:26:47.93Z</time></trkpt><trkpt lat="42.4406056" lon="14.2136959"><ele>20.0</ele><time>2026-05-01T07:26:48.939Z</time></trkpt><trkpt lat="42.4404764" lon="14.2137101"><ele>20.0</ele><time>2026-05-01T07:26:49.934Z</time></trkpt><trkpt lat="42.4403388" lon="14.213763"><ele>20.25</ele><time>2026-05-01T07:26:50.932Z</time></trkpt><trkpt lat="42.4402129" lon="14.213811"><ele>20.5</ele><time>2026-05-01T07:26:51.938Z</time></trkpt><trkpt lat="42.4401089" lon="14.2138889"><ele>20.75</ele><time>2026-05-01T07:26:52.932Z</time></trkpt><trkpt lat="42.4399934" lon="14.2139798"><ele>21.0</ele><time>2026-05-01T07:26:53.934Z</time></trkpt><trkpt lat="42.4398719" lon="14.2140605"><ele>21.0</ele><time>2026-05-01T07:26:54.935Z</time></trkpt><trkpt lat="42.4397475" lon="14.2141453"><ele>21.0</ele><time>2026-05-01T07:26:55.935Z</time></trkpt><trkpt lat="42.4396059" lon="14.2142187"><ele>21.0</ele><time>2026-05-01T07:26:56.94Z</time></trkpt><trkpt lat="42.4394729" lon="14.2142948"><ele>21.0</ele><time>2026-05-01T07:26:57.934Z</time></trkpt><trkpt lat="42.4393381" lon="14.2143797"><ele>23.25</ele><time>2026-05-01T07:26:58.935Z</time></trkpt><trkpt lat="42.439207" lon="14.2144727"><ele>25.5</ele><time>2026-05-01T07:26:59.94Z</time></trkpt><trkpt lat="42.4390836" lon="14.2145647"><ele>27.75</ele><time>2026-05-01T07:27:00.934Z</time></trkpt><trkpt lat="42.4389616" lon="14.2146781"><ele>30.0</ele><time>2026-05-01T07:27:01.937Z</time></trkpt><trkpt lat="42.4388412" lon="14.2147858"><ele>33.25</ele><time>2026-05-01T07:27:02.933Z</time></trkpt><trkpt lat="42.4387265" lon="14.2148656"><ele>36.5</ele><time>2026-05-01T07:27:03.94Z</time></trkpt><trkpt lat="42.4386096" lon="14.2149335"><ele>39.75</ele><time>2026-05-01T07:27:04.946Z</time></trkpt><trkpt lat="42.4384904" lon="14.2149823"><ele>43.0</ele><time>2026-05-01T07:27:05.938Z</time></trkpt><trkpt lat="42.4383634" lon="14.2150208"><ele>43.0</ele><time>2026-05-01T07:27:06.936Z</time></trkpt><trkpt lat="42.4382318" lon="14.2150466"><ele>43.0</ele><time>2026-05-01T07:27:07.975Z</time></trkpt><trkpt lat="42.4380984" lon="14.2150406"><ele>43.0</ele><time>2026-05-01T07:27:08.93Z</time></trkpt><trkpt lat="42.437966" lon="14.2150258"><ele>43.0</ele><time>2026-05-01T07:27:09.937Z</time></trkpt><trkpt lat="42.4378336" lon="14.2150009"><ele>43.5</ele><time>2026-05-01T07:27:10.937Z</time></trkpt><trkpt lat="42.4377062" lon="14.214974"><ele>44.0</ele><time>2026-05-01T07:27:11.937Z</time></trkpt><trkpt lat="42.4375789" lon="14.2149552"><ele>44.5</ele><time>2026-05-01T07:27:12.934Z</time></trkpt><trkpt lat="42.4374576" lon="14.214953"><ele>45.0</ele><time>2026-05-01T07:27:13.95Z</time></trkpt><trkpt lat="42.4373462" lon="14.2149802"><ele>45.0</ele><time>2026-05-01T07:27:14.937Z</time></trkpt><trkpt lat="42.4372443" lon="14.2150185"><ele>45.0</ele><time>2026-05-01T07:27:15.975Z</time></trkpt><trkpt lat="42.4371364" lon="14.2150864"><ele>45.0</ele><time>2026-05-01T07:27:16.94Z</time></trkpt><trkpt lat="42.4370374" lon="14.2151687"><ele>45.0</ele><time>2026-05-01T07:27:17.94Z</time></trkpt><trkpt lat="42.4369498" lon="14.2152681"><ele>44.25</ele><time>2026-05-01T07:27:18.93Z</time></trkpt><trkpt lat="42.4368659" lon="14.2153813"><ele>43.5</ele><time>2026-05-01T07:27:19.938Z</time></trkpt><trkpt lat="42.4367817" lon="14.2155049"><ele>42.75</ele><time>2026-05-01T07:27:20.938Z</time></trkpt><trkpt lat="42.4366916" lon="14.2156362"><ele>42.0</ele><time>2026-05-01T07:27:21.941Z</time></trkpt><trkpt lat="42.4366045" lon="14.215774"><ele>44.5</ele><time>2026-05-01T07:27:22.943Z</time></trkpt><trkpt lat="42.4365217" lon="14.2159148"><ele>47.0</ele><time>2026-05-01T07:27:23.932Z</time></trkpt><trkpt lat="42.4364335" lon="14.2160613"><ele>49.5</ele><time>2026-05-01T07:27:24.937Z</time></trkpt><trkpt lat="42.4363599" lon="14.2161974"><ele>52.0</ele><time>2026-05-01T07:27:25.94Z</time></trkpt><trkpt lat="42.4362893" lon="14.2163171"><ele>52.33333333333333</ele><time>2026-05-01T07:27:26.938Z</time></trkpt><trkpt lat="42.4362196" lon="14.2164212"><ele>52.666666666666664</ele><time>2026-05-01T07:27:27.927Z</time></trkpt><trkpt lat="42.4361463" lon="14.2165115"><ele>53.0</ele><time>2026-05-01T07:27:28.936Z</time></trkpt><trkpt lat="42.436077" lon="14.2165917"><ele>53.33333333333333</ele><time>2026-05-01T07:27:29.94Z</time></trkpt><trkpt lat="42.4360122" lon="14.2166464"><ele>53.666666666666664</ele><time>2026-05-01T07:27:30.939Z</time></trkpt><trkpt lat="42.4359533" lon="14.2166889"><ele>54.0</ele><time>2026-05-01T07:27:31.939Z</time></trkpt><trkpt lat="42.435871" lon="14.2167459"><ele>54.0</ele><time>2026-05-01T07:27:33.939Z</time></trkpt><trkpt lat="42.4358828" lon="14.2168536"><ele>54.0</ele><time>2026-05-01T07:27:36.947Z</time></trkpt><trkpt lat="42.4359249" lon="14.2169188"><ele>54.0</ele><time>2026-05-01T07:27:37.935Z</time></trkpt><trkpt lat="42.4359891" lon="14.216969"><ele>54.0</ele><time>2026-05-01T07:27:38.955Z</time></trkpt><trkpt lat="42.4360683" lon="14.2170159"><ele>54.0</ele><time>2026-05-01T07:27:39.934Z</time></trkpt><trkpt lat="42.4361528" lon="14.217074"><ele>54.0</ele><time>2026-05-01T07:27:40.945Z</time></trkpt><trkpt lat="42.4362494" lon="14.2171543"><ele>55.25</ele><time>2026-05-01T07:27:41.942Z</time></trkpt><trkpt lat="42.4363419" lon="14.2172451"><ele>56.5</ele><time>2026-05-01T07:27:42.937Z</time></trkpt><trkpt lat="42.43643" lon="14.2173455"><ele>57.75</ele><time>2026-05-01T07:27:43.921Z</time></trkpt><trkpt lat="42.436519" lon="14.2174572"><ele>59.0</ele><time>2026-05-01T07:27:44.939Z</time></trkpt><trkpt lat="42.4366058" lon="14.2175754"><ele>59.0</ele><time>2026-05-01T07:27:45.937Z</time></trkpt><trkpt lat="42.436698" lon="14.2176981"><ele>59.0</ele><time>2026-05-01T07:27:46.933Z</time></trkpt><trkpt lat="42.4367941" lon="14.2178153"><ele>59.0</ele><time>2026-05-01T07:27:47.943Z</time></trkpt><trkpt lat="42.4368992" lon="14.2179198"><ele>59.0</ele><time>2026-05-01T07:27:48.936Z</time></trkpt><trkpt lat="42.4370008" lon="14.2180135"><ele>59.0</ele><time>2026-05-01T07:27:49.932Z</time></trkpt><trkpt lat="42.4370942" lon="14.2181147"><ele>59.0</ele><time>2026-05-01T07:27:50.932Z</time></trkpt><trkpt lat="42.4371895" lon="14.2182182"><ele>59.0</ele><time>2026-05-01T07:27:51.935Z</time></trkpt><trkpt lat="42.4372883" lon="14.2183246"><ele>59.0</ele><time>2026-05-01T07:27:52.932Z</time></trkpt><trkpt lat="42.4373837" lon="14.2184394"><ele>59.5</ele><time>2026-05-01T07:27:53.942Z</time></trkpt><trkpt lat="42.4374752" lon="14.2185502"><ele>60.0</ele><time>2026-05-01T07:27:54.936Z</time></trkpt><trkpt lat="42.4375684" lon="14.2186623"><ele>60.5</ele><time>2026-05-01T07:27:55.938Z</time></trkpt><trkpt lat="42.4376633" lon="14.218778"><ele>61.0</ele><time>2026-05-01T07:27:56.943Z</time></trkpt><trkpt lat="42.4377575" lon="14.2189018"><ele>59.75</ele><time>2026-05-01T07:27:57.951Z</time></trkpt><trkpt lat="42.4378528" lon="14.2190127"><ele>58.5</ele><time>2026-05-01T07:27:58.937Z</time></trkpt><trkpt lat="42.4379513" lon="14.2191267"><ele>57.25</ele><time>2026-05-01T07:27:59.938Z</time></trkpt><trkpt lat="42.4380507" lon="14.2192361"><ele>56.0</ele><time>2026-05-01T07:28:00.934Z</time></trkpt><trkpt lat="42.4381567" lon="14.2193319"><ele>56.0</ele><time>2026-05-01T07:28:01.938Z</time></trkpt><trkpt lat="42.4382572" lon="14.2194228"><ele>56.0</ele><time>2026-05-01T07:28:02.934Z</time></trkpt><trkpt lat="42.4383521" lon="14.2195075"><ele>56.0</ele><time>2026-05-01T07:28:03.941Z</time></trkpt><trkpt lat="42.4384547" lon="14.2195835"><ele>56.0</ele><time>2026-05-01T07:28:04.93Z</time></trkpt><trkpt lat="42.4385464" lon="14.2196723"><ele>56.0</ele><time>2026-05-01T07:28:05.937Z</time></trkpt><trkpt lat="42.4386323" lon="14.2197578"><ele>55.99999999999999</ele><time>2026-05-01T07:28:06.942Z</time></trkpt><trkpt lat="42.4387027" lon="14.2198587"><ele>55.99999999999999</ele><time>2026-05-01T07:28:07.935Z</time></trkpt><trkpt lat="42.4387706" lon="14.219971"><ele>56.0</ele><time>2026-05-01T07:28:08.959Z</time></trkpt><trkpt lat="42.4388395" lon="14.2200934"><ele>56.0</ele><time>2026-05-01T07:28:09.933Z</time></trkpt><trkpt lat="42.4389017" lon="14.2202264"><ele>56.0</ele><time>2026-05-01T07:28:10.939Z</time></trkpt><trkpt lat="42.4389563" lon="14.2203602"><ele>56.0</ele><time>2026-05-01T07:28:11.937Z</time></trkpt><trkpt lat="42.4390085" lon="14.220499"><ele>56.0</ele><time>2026-05-01T07:28:12.933Z</time></trkpt><trkpt lat="42.439053" lon="14.2206496"><ele>56.0</ele><time>2026-05-01T07:28:13.936Z</time></trkpt><trkpt lat="42.4390816" lon="14.2208049"><ele>56.0</ele><time>2026-05-01T07:28:14.932Z</time></trkpt><trkpt lat="42.4390989" lon="14.220954"><ele>56.0</ele><time>2026-05-01T07:28:15.939Z</time></trkpt><trkpt lat="42.4390984" lon="14.2210987"><ele>56.0</ele><time>2026-05-01T07:28:16.927Z</time></trkpt><trkpt lat="42.4390767" lon="14.2212526"><ele>56.0</ele><time>2026-05-01T07:28:17.937Z</time></trkpt><trkpt lat="42.4390567" lon="14.2214221"><ele>55.4</ele><time>2026-05-01T07:28:18.938Z</time></trkpt><trkpt lat="42.43903" lon="14.2215825"><ele>54.8</ele><time>2026-05-01T07:28:19.942Z</time></trkpt><trkpt lat="42.439006" lon="14.2217298"><ele>54.199999999999996</ele><time>2026-05-01T07:28:20.936Z</time></trkpt><trkpt lat="42.4389962" lon="14.2218767"><ele>53.599999999999994</ele><time>2026-05-01T07:28:21.944Z</time></trkpt><trkpt lat="42.439" lon="14.2220088"><ele>53.0</ele><time>2026-05-01T07:28:22.938Z</time></trkpt><trkpt lat="42.4390086" lon="14.2221135"><ele>53.0</ele><time>2026-05-01T07:28:23.935Z</time></trkpt><trkpt lat="42.4390257" lon="14.2222136"><ele>53.0</ele><time>2026-05-01T07:28:24.936Z</time></trkpt><trkpt lat="42.439043" lon="14.2223009"><ele>53.0</ele><time>2026-05-01T07:28:25.99Z</time></trkpt><trkpt lat="42.439033" lon="14.2224292"><ele>53.0</ele><time>2026-05-01T07:28:27.947Z</time></trkpt><trkpt lat="42.4389467" lon="14.2225817"><ele>53.0</ele><time>2026-05-01T07:28:29.937Z</time></trkpt><trkpt lat="42.4388768" lon="14.2226488"><ele>49.8</ele><time>2026-05-01T07:28:30.941Z</time></trkpt><trkpt lat="42.4387949" lon="14.2227057"><ele>46.599999999999994</ele><time>2026-05-01T07:28:31.944Z</time></trkpt><trkpt lat="42.4387093" lon="14.2227234"><ele>43.400000000000006</ele><time>2026-05-01T07:28:32.943Z</time></trkpt><trkpt lat="42.4386139" lon="14.2227176"><ele>40.2</ele><time>2026-05-01T07:28:33.945Z</time></trkpt><trkpt lat="42.4385293" lon="14.2226478"><ele>37.0</ele><time>2026-05-01T07:28:34.941Z</time></trkpt><trkpt lat="42.4384426" lon="14.2225521"><ele>37.0</ele><time>2026-05-01T07:28:35.943Z</time></trkpt><trkpt lat="42.4383725" lon="14.2224286"><ele>37.0</ele><time>2026-05-01T07:28:36.94Z</time></trkpt><trkpt lat="42.4383122" lon="14.2222929"><ele>37.0</ele><time>2026-05-01T07:28:37.947Z</time></trkpt><trkpt lat="42.438258" lon="14.2221363"><ele>37.0</ele><time>2026-05-01T07:28:38.941Z</time></trkpt><trkpt lat="42.4382236" lon="14.2219764"><ele>37.66666666666667</ele><time>2026-05-01T07:28:39.943Z</time></trkpt><trkpt lat="42.4381876" lon="14.221841"><ele>38.333333333333336</ele><time>2026-05-01T07:28:40.943Z</time></trkpt><trkpt lat="42.4381555" lon="14.2217359"><ele>39.0</ele><time>2026-05-01T07:28:41.947Z</time></trkpt><trkpt lat="42.4381137" lon="14.2216538"><ele>39.666666666666664</ele><time>2026-05-01T07:28:42.954Z</time></trkpt><trkpt lat="42.4380593" lon="14.2215949"><ele>40.33333333333333</ele><time>2026-05-01T07:28:43.946Z</time></trkpt><trkpt lat="42.4379899" lon="14.2215834"><ele>41.0</ele><time>2026-05-01T07:28:44.938Z</time></trkpt><trkpt lat="42.4379136" lon="14.2215962"><ele>41.199999999999996</ele><time>2026-05-01T07:28:45.955Z</time></trkpt><trkpt lat="42.4378431" lon="14.2216405"><ele>41.4</ele><time>2026-05-01T07:28:46.945Z</time></trkpt><trkpt lat="42.4377835" lon="14.2216967"><ele>41.6</ele><time>2026-05-01T07:28:47.946Z</time></trkpt><trkpt lat="42.4377304" lon="14.2217672"><ele>41.8</ele><time>2026-05-01T07:28:48.93Z</time></trkpt><trkpt lat="42.4377227" lon="14.2219481"><ele>42.0</ele><time>2026-05-01T07:28:50.941Z</time></trkpt><trkpt lat="42.4377615" lon="14.2220627"><ele>42.0</ele><time>2026-05-01T07:28:51.936Z</time></trkpt><trkpt lat="42.4378232" lon="14.2222226"><ele>42.0</ele><time>2026-05-01T07:28:52.938Z</time></trkpt><trkpt lat="42.4378934" lon="14.2223887"><ele>42.0</ele><time>2026-05-01T07:28:53.94Z</time></trkpt><trkpt lat="42.437942" lon="14.2225692"><ele>42.0</ele><time>2026-05-01T07:28:54.941Z</time></trkpt><trkpt lat="42.4379765" lon="14.222756"><ele>40.333333333333336</ele><time>2026-05-01T07:28:55.95Z</time></trkpt><trkpt lat="42.4380051" lon="14.2229604"><ele>38.66666666666667</ele><time>2026-05-01T07:28:56.937Z</time></trkpt><trkpt lat="42.4380247" lon="14.2231758"><ele>37.0</ele><time>2026-05-01T07:28:57.94Z</time></trkpt><trkpt lat="42.4380642" lon="14.2233962"><ele>36.25</ele><time>2026-05-01T07:28:58.938Z</time></trkpt><trkpt lat="42.4380941" lon="14.223599"><ele>35.5</ele><time>2026-05-01T07:28:59.946Z</time></trkpt><trkpt lat="42.438113" lon="14.2238011"><ele>34.75</ele><time>2026-05-01T07:29:00.94Z</time></trkpt><trkpt lat="42.4381249" lon="14.2239918"><ele>34.0</ele><time>2026-05-01T07:29:01.948Z</time></trkpt><trkpt lat="42.4381443" lon="14.2241878"><ele>32.75</ele><time>2026-05-01T07:29:02.949Z</time></trkpt><trkpt lat="42.4381613" lon="14.2243786"><ele>31.5</ele><time>2026-05-01T07:29:03.929Z</time></trkpt><trkpt lat="42.4381773" lon="14.2245741"><ele>30.25</ele><time>2026-05-01T07:29:04.939Z</time></trkpt><trkpt lat="42.4382004" lon="14.2247601"><ele>29.0</ele><time>2026-05-01T07:29:05.95Z</time></trkpt><trkpt lat="42.4382101" lon="14.2249291"><ele>29.0</ele><time>2026-05-01T07:29:06.936Z</time></trkpt><trkpt lat="42.4382284" lon="14.2250906"><ele>29.0</ele><time>2026-05-01T07:29:07.935Z</time></trkpt><trkpt lat="42.4382375" lon="14.2252269"><ele>29.0</ele><time>2026-05-01T07:29:08.941Z</time></trkpt><trkpt lat="42.4382429" lon="14.2253704"><ele>29.0</ele><time>2026-05-01T07:29:09.947Z</time></trkpt><trkpt lat="42.4382199" lon="14.2255228"><ele>29.0</ele><time>2026-05-01T07:29:10.948Z</time></trkpt><trkpt lat="42.4381826" lon="14.2256485"><ele>29.0</ele><time>2026-05-01T07:29:11.941Z</time></trkpt><trkpt lat="42.4381292" lon="14.2257688"><ele>29.0</ele><time>2026-05-01T07:29:12.94Z</time></trkpt><trkpt lat="42.438068" lon="14.2258924"><ele>29.0</ele><time>2026-05-01T07:29:13.935Z</time></trkpt><trkpt lat="42.4380034" lon="14.2260125"><ele>29.0</ele><time>2026-05-01T07:29:14.944Z</time></trkpt><trkpt lat="42.4379215" lon="14.2261048"><ele>29.0</ele><time>2026-05-01T07:29:15.953Z</time></trkpt><trkpt lat="42.4378402" lon="14.2261489"><ele>30.4</ele><time>2026-05-01T07:29:16.946Z</time></trkpt><trkpt lat="42.4377477" lon="14.2261587"><ele>31.799999999999997</ele><time>2026-05-01T07:29:17.968Z</time></trkpt><trkpt lat="42.4376542" lon="14.2261331"><ele>33.2</ele><time>2026-05-01T07:29:18.945Z</time></trkpt><trkpt lat="42.4375632" lon="14.2260587"><ele>34.6</ele><time>2026-05-01T07:29:19.938Z</time></trkpt><trkpt lat="42.437483" lon="14.225962"><ele>36.0</ele><time>2026-05-01T07:29:20.959Z</time></trkpt><trkpt lat="42.4374008" lon="14.2258669"><ele>36.0</ele><time>2026-05-01T07:29:21.939Z</time></trkpt><trkpt lat="42.4373142" lon="14.2257866"><ele>36.0</ele><time>2026-05-01T07:29:22.94Z</time></trkpt><trkpt lat="42.4372228" lon="14.2256829"><ele>36.0</ele><time>2026-05-01T07:29:23.951Z</time></trkpt><trkpt lat="42.4371302" lon="14.2255977"><ele>36.0</ele><time>2026-05-01T07:29:24.941Z</time></trkpt><trkpt lat="42.4370392" lon="14.225507"><ele>36.0</ele><time>2026-05-01T07:29:25.949Z</time></trkpt><trkpt lat="42.4369445" lon="14.2254538"><ele>37.0</ele><time>2026-05-01T07:29:26.949Z</time></trkpt><trkpt lat="42.4368423" lon="14.2254162"><ele>38.0</ele><time>2026-05-01T07:29:27.942Z</time></trkpt><trkpt lat="42.4367228" lon="14.2253881"><ele>39.0</ele><time>2026-05-01T07:29:28.938Z</time></trkpt><trkpt lat="42.4365894" lon="14.2253626"><ele>40.0</ele><time>2026-05-01T07:29:29.94Z</time></trkpt><trkpt lat="42.4364585" lon="14.2253361"><ele>40.0</ele><time>2026-05-01T07:29:30.945Z</time></trkpt><trkpt lat="42.4363223" lon="14.2253118"><ele>40.0</ele><time>2026-05-01T07:29:31.943Z</time></trkpt><trkpt lat="42.4361907" lon="14.2252833"><ele>40.0</ele><time>2026-05-01T07:29:32.948Z</time></trkpt><trkpt lat="42.4360648" lon="14.2252543"><ele>40.0</ele><time>2026-05-01T07:29:33.944Z</time></trkpt><trkpt lat="42.4359389" lon="14.2252223"><ele>42.0</ele><time>2026-05-01T07:29:34.941Z</time></trkpt><trkpt lat="42.4358172" lon="14.2252077"><ele>44.0</ele><time>2026-05-01T07:29:35.944Z</time></trkpt><trkpt lat="42.435696" lon="14.2251907"><ele>46.0</ele><time>2026-05-01T07:29:36.952Z</time></trkpt><trkpt lat="42.4355827" lon="14.2251998"><ele>48.0</ele><time>2026-05-01T07:29:37.94Z</time></trkpt><trkpt lat="42.4354786" lon="14.2252369"><ele>48.0</ele><time>2026-05-01T07:29:38.944Z</time></trkpt><trkpt lat="42.4353802" lon="14.2253195"><ele>48.0</ele><time>2026-05-01T07:29:39.942Z</time></trkpt><trkpt lat="42.4352925" lon="14.2254179"><ele>48.0</ele><time>2026-05-01T07:29:40.944Z</time></trkpt><trkpt lat="42.435227" lon="14.2255334"><ele>48.0</ele><time>2026-05-01T07:29:41.954Z</time></trkpt><trkpt lat="42.4351656" lon="14.2256493"><ele>48.0</ele><time>2026-05-01T07:29:42.952Z</time></trkpt><trkpt lat="42.4351149" lon="14.225753"><ele>50.833333333333336</ele><time>2026-05-01T07:29:43.945Z</time></trkpt><trkpt lat="42.4350796" lon="14.2258495"><ele>53.66666666666667</ele><time>2026-05-01T07:29:44.942Z</time></trkpt><trkpt lat="42.4350591" lon="14.2259591"><ele>56.5</ele><time>2026-05-01T07:29:45.94Z</time></trkpt><trkpt lat="42.43506" lon="14.2260692"><ele>59.333333333333336</ele><time>2026-05-01T07:29:46.948Z</time></trkpt><trkpt lat="42.4350776" lon="14.2261858"><ele>62.16666666666667</ele><time>2026-05-01T07:29:47.933Z</time></trkpt><trkpt lat="42.4351172" lon="14.2262847"><ele>65.0</ele><time>2026-05-01T07:29:48.947Z</time></trkpt><trkpt lat="42.4351794" lon="14.2263648"><ele>65.0</ele><time>2026-05-01T07:29:49.942Z</time></trkpt><trkpt lat="42.4352555" lon="14.2264293"><ele>65.0</ele><time>2026-05-01T07:29:50.938Z</time></trkpt><trkpt lat="42.4353486" lon="14.2264783"><ele>65.0</ele><time>2026-05-01T07:29:51.948Z</time></trkpt><trkpt lat="42.4354424" lon="14.2265068"><ele>65.0</ele><time>2026-05-01T07:29:52.939Z</time></trkpt><trkpt lat="42.4355246" lon="14.2265434"><ele>65.0</ele><time>2026-05-01T07:29:53.941Z</time></trkpt><trkpt lat="42.4355825" lon="14.2265993"><ele>65.0</ele><time>2026-05-01T07:29:54.953Z</time></trkpt><trkpt lat="42.4356884" lon="14.2267133"><ele>66.4</ele><time>2026-05-01T07:29:56.942Z</time></trkpt><trkpt lat="42.4356725" lon="14.226819"><ele>67.8</ele><time>2026-05-01T07:29:57.945Z</time></trkpt><trkpt lat="42.4356161" lon="14.2269302"><ele>69.2</ele><time>2026-05-01T07:29:58.948Z</time></trkpt><trkpt lat="42.4355434" lon="14.227029"><ele>70.6</ele><time>2026-05-01T07:29:59.939Z</time></trkpt><trkpt lat="42.4354775" lon="14.2271474"><ele>72.0</ele><time>2026-05-01T07:30:00.946Z</time></trkpt><trkpt lat="42.4354099" lon="14.2272726"><ele>74.25</ele><time>2026-05-01T07:30:01.942Z</time></trkpt><trkpt lat="42.435348" lon="14.2274239"><ele>76.5</ele><time>2026-05-01T07:30:02.936Z</time></trkpt><trkpt lat="42.4352869" lon="14.2275871"><ele>78.75</ele><time>2026-05-01T07:30:03.947Z</time></trkpt><trkpt lat="42.4352312" lon="14.2277572"><ele>81.0</ele><time>2026-05-01T07:30:04.938Z</time></trkpt><trkpt lat="42.4351829" lon="14.2279342"><ele>81.0</ele><time>2026-05-01T07:30:05.941Z</time></trkpt><trkpt lat="42.4351399" lon="14.2281072"><ele>81.0</ele><time>2026-05-01T07:30:06.939Z</time></trkpt><trkpt lat="42.435105" lon="14.2282892"><ele>81.0</ele><time>2026-05-01T07:30:07.942Z</time></trkpt><trkpt lat="42.435086" lon="14.228496"><ele>81.0</ele><time>2026-05-01T07:30:08.948Z</time></trkpt><trkpt lat="42.4350699" lon="14.2286918"><ele>83.0</ele><time>2026-05-01T07:30:09.941Z</time></trkpt><trkpt lat="42.4350528" lon="14.2288957"><ele>85.0</ele><time>2026-05-01T07:30:10.939Z</time></trkpt><trkpt lat="42.4350315" lon="14.2291028"><ele>87.0</ele><time>2026-05-01T07:30:11.942Z</time></trkpt><trkpt lat="42.4350119" lon="14.229301"><ele>88.25</ele><time>2026-05-01T07:30:12.937Z</time></trkpt><trkpt lat="42.4349872" lon="14.2294979"><ele>89.5</ele><time>2026-05-01T07:30:13.938Z</time></trkpt><trkpt lat="42.4349674" lon="14.2296886"><ele>90.75</ele><time>2026-05-01T07:30:14.947Z</time></trkpt><trkpt lat="42.4349562" lon="14.2298617"><ele>92.0</ele><time>2026-05-01T07:30:15.951Z</time></trkpt><trkpt lat="42.4349719" lon="14.2300428"><ele>94.5</ele><time>2026-05-01T07:30:16.938Z</time></trkpt><trkpt lat="42.4350052" lon="14.2302301"><ele>97.0</ele><time>2026-05-01T07:30:17.95Z</time></trkpt><trkpt lat="42.4350567" lon="14.2304133"><ele>99.5</ele><time>2026-05-01T07:30:18.939Z</time></trkpt><trkpt lat="42.4351268" lon="14.2305954"><ele>102.0</ele><time>2026-05-01T07:30:19.938Z</time></trkpt><trkpt lat="42.4351968" lon="14.2307774"><ele>107.5</ele><time>2026-05-01T07:30:20.943Z</time></trkpt><trkpt lat="42.4352535" lon="14.2309527"><ele>113.0</ele><time>2026-05-01T07:30:21.945Z</time></trkpt><trkpt lat="42.4353144" lon="14.2311236"><ele>118.5</ele><time>2026-05-01T07:30:22.939Z</time></trkpt><trkpt lat="42.4353715" lon="14.2312902"><ele>124.0</ele><time>2026-05-01T07:30:23.941Z</time></trkpt><trkpt lat="42.4354371" lon="14.2314225"><ele>123.80000000000001</ele><time>2026-05-01T07:30:24.944Z</time></trkpt><trkpt lat="42.4355147" lon="14.2315518"><ele>123.60000000000001</ele><time>2026-05-01T07:30:25.944Z</time></trkpt><trkpt lat="42.4355908" lon="14.2316456"><ele>123.4</ele><time>2026-05-01T07:30:26.941Z</time></trkpt><trkpt lat="42.4356746" lon="14.2317031"><ele>123.2</ele><time>2026-05-01T07:30:27.94Z</time></trkpt><trkpt lat="42.435769" lon="14.2317295"><ele>123.0</ele><time>2026-05-01T07:30:28.94Z</time></trkpt><trkpt lat="42.4358675" lon="14.2317297"><ele>123.0</ele><time>2026-05-01T07:30:29.935Z</time></trkpt><trkpt lat="42.4359615" lon="14.2317197"><ele>123.00000000000001</ele><time>2026-05-01T07:30:30.957Z</time></trkpt><trkpt lat="42.4360373" lon="14.231711"><ele>123.00000000000001</ele><time>2026-05-01T07:30:31.944Z</time></trkpt><trkpt lat="42.4361488" lon="14.2317561"><ele>123.0</ele><time>2026-05-01T07:30:33.946Z</time></trkpt><trkpt lat="42.4361302" lon="14.231892"><ele>123.0</ele><time>2026-05-01T07:30:35.934Z</time></trkpt><trkpt lat="42.4359965" lon="14.2319989"><ele>123.0</ele><time>2026-05-01T07:30:37.934Z</time></trkpt><trkpt lat="42.4358967" lon="14.2320461"><ele>123.0</ele><time>2026-05-01T07:30:38.937Z</time></trkpt><trkpt lat="42.4357837" lon="14.2320866"><ele>123.0</ele><time>2026-05-01T07:30:39.937Z</time></trkpt><trkpt lat="42.4356595" lon="14.2321189"><ele>123.0</ele><time>2026-05-01T07:30:40.933Z</time></trkpt><trkpt lat="42.4355259" lon="14.2321267"><ele>127.75</ele><time>2026-05-01T07:30:41.94Z</time></trkpt><trkpt lat="42.4353885" lon="14.2321121"><ele>132.5</ele><time>2026-05-01T07:30:42.946Z</time></trkpt><trkpt lat="42.4352359" lon="14.2320923"><ele>137.25</ele><time>2026-05-01T07:30:43.932Z</time></trkpt><trkpt lat="42.435079" lon="14.2320866"><ele>142.0</ele><time>2026-05-01T07:30:44.94Z</time></trkpt><trkpt lat="42.434918" lon="14.23208"><ele>142.0</ele><time>2026-05-01T07:30:45.934Z</time></trkpt><trkpt lat="42.4347551" lon="14.2320773"><ele>142.0</ele><time>2026-05-01T07:30:46.934Z</time></trkpt><trkpt lat="42.4346062" lon="14.2320859"><ele>142.0</ele><time>2026-05-01T07:30:47.931Z</time></trkpt><trkpt lat="42.434462" lon="14.2321168"><ele>142.25</ele><time>2026-05-01T07:30:48.945Z</time></trkpt><trkpt lat="42.4343282" lon="14.2321907"><ele>142.5</ele><time>2026-05-01T07:30:49.947Z</time></trkpt><trkpt lat="42.4342121" lon="14.2322839"><ele>142.75</ele><time>2026-05-01T07:30:50.927Z</time></trkpt><trkpt lat="42.4340955" lon="14.2323863"><ele>143.0</ele><time>2026-05-01T07:30:51.945Z</time></trkpt><trkpt lat="42.4339794" lon="14.2325"><ele>143.0</ele><time>2026-05-01T07:30:52.941Z</time></trkpt><trkpt lat="42.4338575" lon="14.2326264"><ele>143.0</ele><time>2026-05-01T07:30:53.934Z</time></trkpt><trkpt lat="42.4337483" lon="14.2327445"><ele>143.0</ele><time>2026-05-01T07:30:54.935Z</time></trkpt><trkpt lat="42.4336575" lon="14.2328678"><ele>143.0</ele><time>2026-05-01T07:30:55.936Z</time></trkpt><trkpt lat="42.4335892" lon="14.2330176"><ele>146.0</ele><time>2026-05-01T07:30:56.941Z</time></trkpt><trkpt lat="42.4335566" lon="14.2331853"><ele>149.0</ele><time>2026-05-01T07:30:57.954Z</time></trkpt><trkpt lat="42.4335395" lon="14.2333603"><ele>152.0</ele><time>2026-05-01T07:30:58.934Z</time></trkpt><trkpt lat="42.4335374" lon="14.2335262"><ele>155.0</ele><time>2026-05-01T07:30:59.931Z</time></trkpt><trkpt lat="42.4335353" lon="14.2336936"><ele>155.0</ele><time>2026-05-01T07:31:00.942Z</time></trkpt><trkpt lat="42.4335221" lon="14.2338612"><ele>155.0</ele><time>2026-05-01T07:31:01.933Z</time></trkpt><trkpt lat="42.4335014" lon="14.2340355"><ele>155.0</ele><time>2026-05-01T07:31:02.927Z</time></trkpt><trkpt lat="42.4334669" lon="14.2342001"><ele>155.0</ele><time>2026-05-01T07:31:03.943Z</time></trkpt><trkpt lat="42.433424" lon="14.2343627"><ele>154.75</ele><time>2026-05-01T07:31:04.938Z</time></trkpt><trkpt lat="42.4333782" lon="14.2345269"><ele>154.5</ele><time>2026-05-01T07:31:05.936Z</time></trkpt><trkpt lat="42.4333356" lon="14.2346946"><ele>154.25</ele><time>2026-05-01T07:31:06.93Z</time></trkpt><trkpt lat="42.4333021" lon="14.234845"><ele>154.0</ele><time>2026-05-01T07:31:07.93Z</time></trkpt><trkpt lat="42.4332773" lon="14.2349886"><ele>153.4</ele><time>2026-05-01T07:31:08.936Z</time></trkpt><trkpt lat="42.4332535" lon="14.2351301"><ele>152.8</ele><time>2026-05-01T07:31:09.948Z</time></trkpt><trkpt lat="42.4332398" lon="14.2352814"><ele>152.2</ele><time>2026-05-01T07:31:10.939Z</time></trkpt><trkpt lat="42.4332387" lon="14.2354335"><ele>151.6</ele><time>2026-05-01T07:31:11.951Z</time></trkpt><trkpt lat="42.4332454" lon="14.2355721"><ele>151.0</ele><time>2026-05-01T07:31:12.95Z</time></trkpt><trkpt lat="42.4332474" lon="14.2356925"><ele>150.5</ele><time>2026-05-01T07:31:13.933Z</time></trkpt><trkpt lat="42.4332498" lon="14.2358135"><ele>150.0</ele><time>2026-05-01T07:31:14.952Z</time></trkpt><trkpt lat="42.4332491" lon="14.2359184"><ele>149.5</ele><time>2026-05-01T07:31:15.934Z</time></trkpt><trkpt lat="42.4332491" lon="14.2360283"><ele>149.0</ele><time>2026-05-01T07:31:16.94Z</time></trkpt><trkpt lat="42.4332542" lon="14.2361366"><ele>148.5</ele><time>2026-05-01T07:31:17.937Z</time></trkpt><trkpt lat="42.4332549" lon="14.2362359"><ele>148.0</ele><time>2026-05-01T07:31:18.944Z</time></trkpt><trkpt lat="42.4332328" lon="14.2363671"><ele>148.0</ele><time>2026-05-01T07:31:20.937Z</time></trkpt><trkpt lat="42.4331432" lon="14.2364138"><ele>148.0</ele><time>2026-05-01T07:31:22.934Z</time></trkpt><trkpt lat="42.4330727" lon="14.23641"><ele>148.0</ele><time>2026-05-01T07:31:23.941Z</time></trkpt><trkpt lat="42.4329826" lon="14.2363919"><ele>148.0</ele><time>2026-05-01T07:31:24.935Z</time></trkpt><trkpt lat="42.4328825" lon="14.2363698"><ele>148.0</ele><time>2026-05-01T07:31:25.938Z</time></trkpt><trkpt lat="42.4327684" lon="14.2363576"><ele>148.0</ele><time>2026-05-01T07:31:26.937Z</time></trkpt><trkpt lat="42.4326465" lon="14.236356"><ele>148.0</ele><time>2026-05-01T07:31:27.933Z</time></trkpt><trkpt lat="42.4325252" lon="14.2363442"><ele>148.0</ele><time>2026-05-01T07:31:28.936Z</time></trkpt><trkpt lat="42.432412" lon="14.2363294"><ele>148.0</ele><time>2026-05-01T07:31:29.947Z</time></trkpt><trkpt lat="42.4322952" lon="14.2363242"><ele>148.0</ele><time>2026-05-01T07:31:30.934Z</time></trkpt><trkpt lat="42.4321644" lon="14.2363083"><ele>148.0</ele><time>2026-05-01T07:31:31.95Z</time></trkpt><trkpt lat="42.4320334" lon="14.2362996"><ele>148.0</ele><time>2026-05-01T07:31:32.946Z</time></trkpt><trkpt lat="42.4319034" lon="14.2362906"><ele>148.0</ele><time>2026-05-01T07:31:33.944Z</time></trkpt><trkpt lat="42.4317736" lon="14.2362766"><ele>148.5</ele><time>2026-05-01T07:31:34.936Z</time></trkpt><trkpt lat="42.4316417" lon="14.2362665"><ele>149.0</ele><time>2026-05-01T07:31:35.939Z</time></trkpt><trkpt lat="42.4315101" lon="14.2362604"><ele>149.5</ele><time>2026-05-01T07:31:36.932Z</time></trkpt><trkpt lat="42.431377" lon="14.2362523"><ele>150.0</ele><time>2026-05-01T07:31:37.939Z</time></trkpt><trkpt lat="42.4312308" lon="14.2362349"><ele>150.25</ele><time>2026-05-01T07:31:38.956Z</time></trkpt><trkpt lat="42.431086" lon="14.2362234"><ele>150.5</ele><time>2026-05-01T07:31:39.94Z</time></trkpt><trkpt lat="42.4309431" lon="14.2362155"><ele>150.75</ele><time>2026-05-01T07:31:40.937Z</time></trkpt><trkpt lat="42.4308143" lon="14.2362118"><ele>151.0</ele><time>2026-05-01T07:31:41.932Z</time></trkpt><trkpt lat="42.4306851" lon="14.2362097"><ele>151.0</ele><time>2026-05-01T07:31:42.955Z</time></trkpt><trkpt lat="42.4305514" lon="14.2362108"><ele>151.0</ele><time>2026-05-01T07:31:43.935Z</time></trkpt><trkpt lat="42.4304153" lon="14.2362101"><ele>151.0</ele><time>2026-05-01T07:31:44.936Z</time></trkpt><trkpt lat="42.4302875" lon="14.2362071"><ele>151.0</ele><time>2026-05-01T07:31:45.932Z</time></trkpt><trkpt lat="42.4301639" lon="14.2362049"><ele>151.25</ele><time>2026-05-01T07:31:46.94Z</time></trkpt><trkpt lat="42.4300406" lon="14.2361933"><ele>151.5</ele><time>2026-05-01T07:31:47.935Z</time></trkpt><trkpt lat="42.429915" lon="14.2361834"><ele>151.75</ele><time>2026-05-01T07:31:48.942Z</time></trkpt><trkpt lat="42.4297908" lon="14.2361768"><ele>152.0</ele><time>2026-05-01T07:31:49.937Z</time></trkpt><trkpt lat="42.4296771" lon="14.2361728"><ele>152.33333333333331</ele><time>2026-05-01T07:31:50.965Z</time></trkpt><trkpt lat="42.4295816" lon="14.2361587"><ele>152.66666666666666</ele><time>2026-05-01T07:31:51.943Z</time></trkpt><trkpt lat="42.4295015" lon="14.2361392"><ele>153.0</ele><time>2026-05-01T07:31:52.933Z</time></trkpt><trkpt lat="42.4294246" lon="14.2360987"><ele>153.33333333333334</ele><time>2026-05-01T07:31:53.943Z</time></trkpt><trkpt lat="42.4293662" lon="14.2360249"><ele>153.66666666666669</ele><time>2026-05-01T07:31:54.934Z</time></trkpt><trkpt lat="42.4293332" lon="14.2359149"><ele>154.0</ele><time>2026-05-01T07:31:55.934Z</time></trkpt><trkpt lat="42.4293094" lon="14.2357668"><ele>154.0</ele><time>2026-05-01T07:31:56.932Z</time></trkpt><trkpt lat="42.4292921" lon="14.2356039"><ele>154.0</ele><time>2026-05-01T07:31:57.938Z</time></trkpt><trkpt lat="42.4292823" lon="14.2354365"><ele>154.0</ele><time>2026-05-01T07:31:58.937Z</time></trkpt><trkpt lat="42.4292694" lon="14.2352565"><ele>154.0</ele><time>2026-05-01T07:31:59.943Z</time></trkpt><trkpt lat="42.4292545" lon="14.2350675"><ele>154.0</ele><time>2026-05-01T07:32:00.939Z</time></trkpt><trkpt lat="42.4292418" lon="14.2348745"><ele>154.0</ele><time>2026-05-01T07:32:01.933Z</time></trkpt><trkpt lat="42.4292287" lon="14.2346928"><ele>154.0</ele><time>2026-05-01T07:32:02.935Z</time></trkpt><trkpt lat="42.4292105" lon="14.2345363"><ele>154.0</ele><time>2026-05-01T07:32:03.945Z</time></trkpt><trkpt lat="42.4291835" lon="14.2343893"><ele>154.0</ele><time>2026-05-01T07:32:04.94Z</time></trkpt><trkpt lat="42.4291323" lon="14.2342509"><ele>154.0</ele><time>2026-05-01T07:32:05.945Z</time></trkpt><trkpt lat="42.4290572" lon="14.2341421"><ele>154.0</ele><time>2026-05-01T07:32:06.939Z</time></trkpt><trkpt lat="42.4289523" lon="14.2340637"><ele>154.0</ele><time>2026-05-01T07:32:07.956Z</time></trkpt><trkpt lat="42.4288369" lon="14.2340038"><ele>153.5</ele><time>2026-05-01T07:32:08.932Z</time></trkpt><trkpt lat="42.4287166" lon="14.2339467"><ele>153.0</ele><time>2026-05-01T07:32:09.932Z</time></trkpt><trkpt lat="42.4285928" lon="14.2338808"><ele>152.5</ele><time>2026-05-01T07:32:10.936Z</time></trkpt><trkpt lat="42.4284653" lon="14.2338107"><ele>152.0</ele><time>2026-05-01T07:32:11.934Z</time></trkpt><trkpt lat="42.4283278" lon="14.2337391"><ele>152.0</ele><time>2026-05-01T07:32:12.943Z</time></trkpt><trkpt lat="42.4281874" lon="14.2336766"><ele>152.0</ele><time>2026-05-01T07:32:13.94Z</time></trkpt><trkpt lat="42.4280531" lon="14.2336145"><ele>152.0</ele><time>2026-05-01T07:32:14.932Z</time></trkpt><trkpt lat="42.4279237" lon="14.2335528"><ele>152.0</ele><time>2026-05-01T07:32:15.928Z</time></trkpt><trkpt lat="42.4278057" lon="14.233496"><ele>152.0</ele><time>2026-05-01T07:32:16.94Z</time></trkpt><trkpt lat="42.4276895" lon="14.2334407"><ele>152.0</ele><time>2026-05-01T07:32:17.943Z</time></trkpt><trkpt lat="42.4275701" lon="14.2333869"><ele>152.0</ele><time>2026-05-01T07:32:18.95Z</time></trkpt><trkpt lat="42.4274633" lon="14.2333281"><ele>152.0</ele><time>2026-05-01T07:32:19.943Z</time></trkpt><trkpt lat="42.4273614" lon="14.233257"><ele>152.0</ele><time>2026-05-01T07:32:20.928Z</time></trkpt><trkpt lat="42.4272588" lon="14.2331646"><ele>152.0</ele><time>2026-05-01T07:32:21.942Z</time></trkpt><trkpt lat="42.4271624" lon="14.2330504"><ele>152.0</ele><time>2026-05-01T07:32:22.933Z</time></trkpt><trkpt lat="42.4270698" lon="14.2329079"><ele>152.0</ele><time>2026-05-01T07:32:23.936Z</time></trkpt><trkpt lat="42.4269793" lon="14.2327543"><ele>151.33333333333331</ele><time>2026-05-01T07:32:24.937Z</time></trkpt><trkpt lat="42.426885" lon="14.2326051"><ele>150.66666666666666</ele><time>2026-05-01T07:32:25.935Z</time></trkpt><trkpt lat="42.4267638" lon="14.2324728"><ele>150.0</ele><time>2026-05-01T07:32:26.941Z</time></trkpt><trkpt lat="42.4266273" lon="14.2323855"><ele>150.0</ele><time>2026-05-01T07:32:27.934Z</time></trkpt><trkpt lat="42.42648" lon="14.2323157"><ele>150.0</ele><time>2026-05-01T07:32:28.931Z</time></trkpt><trkpt lat="42.4263306" lon="14.2322517"><ele>150.0</ele><time>2026-05-01T07:32:29.94Z</time></trkpt><trkpt lat="42.4261865" lon="14.2321897"><ele>149.0</ele><time>2026-05-01T07:32:30.936Z</time></trkpt><trkpt lat="42.4260524" lon="14.2321279"><ele>148.0</ele><time>2026-05-01T07:32:31.962Z</time></trkpt><trkpt lat="42.4259365" lon="14.2320687"><ele>147.0</ele><time>2026-05-01T07:32:32.933Z</time></trkpt><trkpt lat="42.4258182" lon="14.2319939"><ele>146.0</ele><time>2026-05-01T07:32:33.939Z</time></trkpt><trkpt lat="42.4256928" lon="14.2319133"><ele>146.0</ele><time>2026-05-01T07:32:34.985Z</time></trkpt><trkpt lat="42.4255743" lon="14.2318445"><ele>146.0</ele><time>2026-05-01T07:32:35.932Z</time></trkpt><trkpt lat="42.4254538" lon="14.2317872"><ele>146.0</ele><time>2026-05-01T07:32:36.942Z</time></trkpt><trkpt lat="42.4253402" lon="14.2317497"><ele>146.0</ele><time>2026-05-01T07:32:37.936Z</time></trkpt><trkpt lat="42.4252244" lon="14.2317409"><ele>148.75</ele><time>2026-05-01T07:32:38.94Z</time></trkpt><trkpt lat="42.4251151" lon="14.2317697"><ele>151.5</ele><time>2026-05-01T07:32:39.932Z</time></trkpt><trkpt lat="42.4250118" lon="14.2318589"><ele>154.25</ele><time>2026-05-01T07:32:40.933Z</time></trkpt><trkpt lat="42.4249247" lon="14.231956"><ele>157.0</ele><time>2026-05-01T07:32:41.939Z</time></trkpt><trkpt lat="42.4248354" lon="14.2320336"><ele>157.0</ele><time>2026-05-01T07:32:42.958Z</time></trkpt><trkpt lat="42.4247457" lon="14.2320857"><ele>157.0</ele><time>2026-05-01T07:32:43.935Z</time></trkpt><trkpt lat="42.4246454" lon="14.2321196"><ele>157.0</ele><time>2026-05-01T07:32:44.94Z</time></trkpt><trkpt lat="42.4245375" lon="14.2321216"><ele>157.0</ele><time>2026-05-01T07:32:45.937Z</time></trkpt><trkpt lat="42.4244184" lon="14.2320977"><ele>157.0</ele><time>2026-05-01T07:32:46.937Z</time></trkpt><trkpt lat="42.4242907" lon="14.232068"><ele>158.25</ele><time>2026-05-01T07:32:47.942Z</time></trkpt><trkpt lat="42.4241653" lon="14.232031"><ele>159.5</ele><time>2026-05-01T07:32:48.936Z</time></trkpt><trkpt lat="42.4240397" lon="14.2319932"><ele>160.75</ele><time>2026-05-01T07:32:49.937Z</time></trkpt><trkpt lat="42.4239181" lon="14.2319416"><ele>162.0</ele><time>2026-05-01T07:32:50.935Z</time></trkpt><trkpt lat="42.4237977" lon="14.2318881"><ele>162.25</ele><time>2026-05-01T07:32:51.939Z</time></trkpt><trkpt lat="42.4236814" lon="14.2318368"><ele>162.5</ele><time>2026-05-01T07:32:52.928Z</time></trkpt><trkpt lat="42.4235613" lon="14.2317768"><ele>162.75</ele><time>2026-05-01T07:32:53.94Z</time></trkpt><trkpt lat="42.4234383" lon="14.2317135"><ele>163.0</ele><time>2026-05-01T07:32:54.931Z</time></trkpt><trkpt lat="42.4233029" lon="14.2316429"><ele>163.0</ele><time>2026-05-01T07:32:55.93Z</time></trkpt><trkpt lat="42.4231606" lon="14.2315745"><ele>163.0</ele><time>2026-05-01T07:32:56.926Z</time></trkpt><trkpt lat="42.4230111" lon="14.2315078"><ele>163.0</ele><time>2026-05-01T07:32:57.927Z</time></trkpt><trkpt lat="42.422856" lon="14.2314414"><ele>163.0</ele><time>2026-05-01T07:32:58.941Z</time></trkpt><trkpt lat="42.4226989" lon="14.2313908"><ele>163.0</ele><time>2026-05-01T07:32:59.93Z</time></trkpt><trkpt lat="42.4225338" lon="14.2313547"><ele>163.0</ele><time>2026-05-01T07:33:00.936Z</time></trkpt><trkpt lat="42.4223722" lon="14.2313249"><ele>163.0</ele><time>2026-05-01T07:33:01.934Z</time></trkpt><trkpt lat="42.4222113" lon="14.2312965"><ele>163.0</ele><time>2026-05-01T07:33:02.94Z</time></trkpt><trkpt lat="42.4220569" lon="14.2312664"><ele>163.0</ele><time>2026-05-01T07:33:03.94Z</time></trkpt><trkpt lat="42.4219108" lon="14.2312384"><ele>164.5</ele><time>2026-05-01T07:33:04.945Z</time></trkpt><trkpt lat="42.4217716" lon="14.231214"><ele>166.0</ele><time>2026-05-01T07:33:05.944Z</time></trkpt><trkpt lat="42.4216312" lon="14.2311837"><ele>167.5</ele><time>2026-05-01T07:33:06.934Z</time></trkpt><trkpt lat="42.4214857" lon="14.2311472"><ele>169.0</ele><time>2026-05-01T07:33:07.942Z</time></trkpt><trkpt lat="42.4213401" lon="14.2311012"><ele>167.75</ele><time>2026-05-01T07:33:08.935Z</time></trkpt><trkpt lat="42.4212035" lon="14.2310404"><ele>166.5</ele><time>2026-05-01T07:33:09.937Z</time></trkpt><trkpt lat="42.4210727" lon="14.2309777"><ele>165.25</ele><time>2026-05-01T07:33:10.944Z</time></trkpt><trkpt lat="42.4209394" lon="14.2309105"><ele>164.0</ele><time>2026-05-01T07:33:11.937Z</time></trkpt><trkpt lat="42.4208002" lon="14.2308432"><ele>164.0</ele><time>2026-05-01T07:33:12.939Z</time></trkpt><trkpt lat="42.4206586" lon="14.2307838"><ele>164.0</ele><time>2026-05-01T07:33:13.943Z</time></trkpt><trkpt lat="42.4205226" lon="14.230726"><ele>164.0</ele><time>2026-05-01T07:33:14.938Z</time></trkpt><trkpt lat="42.4203787" lon="14.2306652"><ele>164.0</ele><time>2026-05-01T07:33:15.937Z</time></trkpt><trkpt lat="42.4202284" lon="14.2306081"><ele>161.0</ele><time>2026-05-01T07:33:16.935Z</time></trkpt><trkpt lat="42.4200747" lon="14.2305647"><ele>158.0</ele><time>2026-05-01T07:33:17.939Z</time></trkpt><trkpt lat="42.4199127" lon="14.2305432"><ele>155.0</ele><time>2026-05-01T07:33:18.939Z</time></trkpt><trkpt lat="42.4197534" lon="14.2305467"><ele>155.0</ele><time>2026-05-01T07:33:19.943Z</time></trkpt><trkpt lat="42.419599" lon="14.2305412"><ele>155.0</ele><time>2026-05-01T07:33:20.93Z</time></trkpt><trkpt lat="42.4194303" lon="14.2305282"><ele>155.0</ele><time>2026-05-01T07:33:21.935Z</time></trkpt><trkpt lat="42.419262" lon="14.2305218"><ele>155.0</ele><time>2026-05-01T07:33:22.932Z</time></trkpt><trkpt lat="42.4190981" lon="14.2305186"><ele>155.0</ele><time>2026-05-01T07:33:23.938Z</time></trkpt><trkpt lat="42.4189349" lon="14.2305164"><ele>155.0</ele><time>2026-05-01T07:33:24.936Z</time></trkpt><trkpt lat="42.4187736" lon="14.2305067"><ele>153.66666666666666</ele><time>2026-05-01T07:33:25.942Z</time></trkpt><trkpt lat="42.418618" lon="14.2304977"><ele>152.33333333333334</ele><time>2026-05-01T07:33:26.942Z</time></trkpt><trkpt lat="42.4184661" lon="14.23049"><ele>151.0</ele><time>2026-05-01T07:33:27.938Z</time></trkpt><trkpt lat="42.4183142" lon="14.2304837"><ele>151.0</ele><time>2026-05-01T07:33:28.941Z</time></trkpt><trkpt lat="42.4181584" lon="14.2304779"><ele>151.0</ele><time>2026-05-01T07:33:29.943Z</time></trkpt><trkpt lat="42.4180048" lon="14.2304765"><ele>151.0</ele><time>2026-05-01T07:33:30.94Z</time></trkpt><trkpt lat="42.4178566" lon="14.2304691"><ele>153.0</ele><time>2026-05-01T07:33:31.937Z</time></trkpt><trkpt lat="42.4177166" lon="14.2304566"><ele>155.0</ele><time>2026-05-01T07:33:32.938Z</time></trkpt><trkpt lat="42.4175772" lon="14.2304431"><ele>157.0</ele><time>2026-05-01T07:33:33.944Z</time></trkpt><trkpt lat="42.4174427" lon="14.2304318"><ele>159.0</ele><time>2026-05-01T07:33:34.943Z</time></trkpt><trkpt lat="42.4173262" lon="14.2304259"><ele>159.0</ele><time>2026-05-01T07:33:35.937Z</time></trkpt><trkpt lat="42.4172179" lon="14.2304234"><ele>159.0</ele><time>2026-05-01T07:33:36.948Z</time></trkpt><trkpt lat="42.4171232" lon="14.2304191"><ele>159.0</ele><time>2026-05-01T07:33:37.966Z</time></trkpt><trkpt lat="42.4170406" lon="14.2304189"><ele>159.0</ele><time>2026-05-01T07:33:38.935Z</time></trkpt><trkpt lat="42.4169707" lon="14.230422"><ele>159.0</ele><time>2026-05-01T07:33:39.937Z</time></trkpt><trkpt lat="42.4169111" lon="14.2304538"><ele>159.0</ele><time>2026-05-01T07:33:40.946Z</time></trkpt><trkpt lat="42.4168627" lon="14.2305127"><ele>159.8</ele><time>2026-05-01T07:33:41.939Z</time></trkpt><trkpt lat="42.4168128" lon="14.2306054"><ele>160.60000000000002</ele><time>2026-05-01T07:33:43.932Z</time></trkpt><trkpt lat="42.4168011" lon="14.2307299"><ele>161.4</ele><time>2026-05-01T07:33:45.943Z</time></trkpt><trkpt lat="42.4168266" lon="14.230839"><ele>162.20000000000002</ele><time>2026-05-01T07:33:46.939Z</time></trkpt><trkpt lat="42.4168663" lon="14.2309524"><ele>163.0</ele><time>2026-05-01T07:33:47.938Z</time></trkpt><trkpt lat="42.4169317" lon="14.231075"><ele>163.75</ele><time>2026-05-01T07:33:48.933Z</time></trkpt><trkpt lat="42.4170059" lon="14.2312172"><ele>164.5</ele><time>2026-05-01T07:33:49.936Z</time></trkpt><trkpt lat="42.4170763" lon="14.2313648"><ele>165.25</ele><time>2026-05-01T07:33:50.942Z</time></trkpt><trkpt lat="42.4171509" lon="14.2315233"><ele>166.0</ele><time>2026-05-01T07:33:51.937Z</time></trkpt><trkpt lat="42.4172302" lon="14.2316957"><ele>166.33333333333334</ele><time>2026-05-01T07:33:52.977Z</time></trkpt><trkpt lat="42.4173167" lon="14.2318837"><ele>166.66666666666666</ele><time>2026-05-01T07:33:53.94Z</time></trkpt><trkpt lat="42.4174096" lon="14.2320868"><ele>167.0</ele><time>2026-05-01T07:33:54.939Z</time></trkpt><trkpt lat="42.4175071" lon="14.2322936"><ele>166.33333333333331</ele><time>2026-05-01T07:33:55.942Z</time></trkpt><trkpt lat="42.4175993" lon="14.2325185"><ele>165.66666666666666</ele><time>2026-05-01T07:33:56.941Z</time></trkpt><trkpt lat="42.4176976" lon="14.2327296"><ele>165.0</ele><time>2026-05-01T07:33:57.939Z</time></trkpt><trkpt lat="42.417791" lon="14.2329494"><ele>165.0</ele><time>2026-05-01T07:33:58.946Z</time></trkpt><trkpt lat="42.4178807" lon="14.233181"><ele>165.0</ele><time>2026-05-01T07:33:59.937Z</time></trkpt><trkpt lat="42.4179756" lon="14.2334046"><ele>165.0</ele><time>2026-05-01T07:34:00.947Z</time></trkpt><trkpt lat="42.4180673" lon="14.2336338"><ele>165.0</ele><time>2026-05-01T07:34:01.962Z</time></trkpt><trkpt lat="42.4181565" lon="14.2338626"><ele>165.0</ele><time>2026-05-01T07:34:02.937Z</time></trkpt><trkpt lat="42.4182416" lon="14.2340766"><ele>165.0</ele><time>2026-05-01T07:34:03.942Z</time></trkpt><trkpt lat="42.4183299" lon="14.2342866"><ele>164.66666666666666</ele><time>2026-05-01T07:34:04.943Z</time></trkpt><trkpt lat="42.4184181" lon="14.2344939"><ele>164.33333333333331</ele><time>2026-05-01T07:34:05.954Z</time></trkpt><trkpt lat="42.4185035" lon="14.2346993"><ele>164.0</ele><time>2026-05-01T07:34:06.943Z</time></trkpt><trkpt lat="42.4185784" lon="14.2349137"><ele>163.0</ele><time>2026-05-01T07:34:07.953Z</time></trkpt><trkpt lat="42.4186669" lon="14.2351271"><ele>162.0</ele><time>2026-05-01T07:34:08.955Z</time></trkpt><trkpt lat="42.4187495" lon="14.2353331"><ele>161.0</ele><time>2026-05-01T07:34:09.945Z</time></trkpt><trkpt lat="42.41884" lon="14.2355456"><ele>160.66666666666666</ele><time>2026-05-01T07:34:10.959Z</time></trkpt><trkpt lat="42.4189276" lon="14.235749"><ele>160.33333333333334</ele><time>2026-05-01T07:34:11.948Z</time></trkpt><trkpt lat="42.4190039" lon="14.2359626"><ele>160.0</ele><time>2026-05-01T07:34:12.95Z</time></trkpt><trkpt lat="42.4190706" lon="14.2361798"><ele>160.0</ele><time>2026-05-01T07:34:13.943Z</time></trkpt><trkpt lat="42.4191428" lon="14.236391"><ele>160.0</ele><time>2026-05-01T07:34:14.952Z</time></trkpt><trkpt lat="42.4192153" lon="14.2366045"><ele>160.0</ele><time>2026-05-01T07:34:15.945Z</time></trkpt><trkpt lat="42.4192742" lon="14.2368169"><ele>158.66666666666669</ele><time>2026-05-01T07:34:16.94Z</time></trkpt><trkpt lat="42.4193266" lon="14.2370232"><ele>157.33333333333334</ele><time>2026-05-01T07:34:17.944Z</time></trkpt><trkpt lat="42.4193825" lon="14.2372123"><ele>156.0</ele><time>2026-05-01T07:34:18.939Z</time></trkpt><trkpt lat="42.4194352" lon="14.2374002"><ele>154.0</ele><time>2026-05-01T07:34:19.947Z</time></trkpt><trkpt lat="42.4194972" lon="14.2375962"><ele>152.0</ele><time>2026-05-01T07:34:20.936Z</time></trkpt><trkpt lat="42.4195514" lon="14.2377872"><ele>150.0</ele><time>2026-05-01T07:34:21.943Z</time></trkpt><trkpt lat="42.4196074" lon="14.2379704"><ele>150.75</ele><time>2026-05-01T07:34:22.941Z</time></trkpt><trkpt lat="42.4196653" lon="14.2381397"><ele>151.5</ele><time>2026-05-01T07:34:23.941Z</time></trkpt><trkpt lat="42.4197152" lon="14.2383154"><ele>152.25</ele><time>2026-05-01T07:34:24.944Z</time></trkpt><trkpt lat="42.419778" lon="14.2384937"><ele>153.0</ele><time>2026-05-01T07:34:25.94Z</time></trkpt><trkpt lat="42.4198663" lon="14.238647"><ele>153.0</ele><time>2026-05-01T07:34:26.945Z</time></trkpt><trkpt lat="42.419965" lon="14.2387845"><ele>153.0</ele><time>2026-05-01T07:34:27.947Z</time></trkpt><trkpt lat="42.4200724" lon="14.2389267"><ele>153.0</ele><time>2026-05-01T07:34:28.941Z</time></trkpt><trkpt lat="42.4201714" lon="14.2390779"><ele>153.0</ele><time>2026-05-01T07:34:29.943Z</time></trkpt><trkpt lat="42.4202656" lon="14.2392516"><ele>151.66666666666666</ele><time>2026-05-01T07:34:30.939Z</time></trkpt><trkpt lat="42.4203498" lon="14.2394237"><ele>150.33333333333331</ele><time>2026-05-01T07:34:31.947Z</time></trkpt><trkpt lat="42.4204325" lon="14.2396195"><ele>149.0</ele><time>2026-05-01T07:34:32.941Z</time></trkpt><trkpt lat="42.4205073" lon="14.2398178"><ele>149.0</ele><time>2026-05-01T07:34:33.95Z</time></trkpt><trkpt lat="42.4205776" lon="14.2400114"><ele>149.0</ele><time>2026-05-01T07:34:34.943Z</time></trkpt><trkpt lat="42.4206464" lon="14.2402233"><ele>149.0</ele><time>2026-05-01T07:34:35.942Z</time></trkpt><trkpt lat="42.4207115" lon="14.240425"><ele>149.0</ele><time>2026-05-01T07:34:36.949Z</time></trkpt><trkpt lat="42.420772" lon="14.2406302"><ele>149.0</ele><time>2026-05-01T07:34:37.953Z</time></trkpt><trkpt lat="42.4208322" lon="14.2408257"><ele>149.0</ele><time>2026-05-01T07:34:38.946Z</time></trkpt><trkpt lat="42.4208788" lon="14.2410126"><ele>147.5</ele><time>2026-05-01T07:34:39.94Z</time></trkpt><trkpt lat="42.4209167" lon="14.2412054"><ele>146.0</ele><time>2026-05-01T07:34:40.938Z</time></trkpt><trkpt lat="42.4209654" lon="14.2413857"><ele>144.5</ele><time>2026-05-01T07:34:41.95Z</time></trkpt><trkpt lat="42.4210038" lon="14.2415595"><ele>143.0</ele><time>2026-05-01T07:34:42.939Z</time></trkpt><trkpt lat="42.4210362" lon="14.2417348"><ele>141.25</ele><time>2026-05-01T07:34:43.958Z</time></trkpt><trkpt lat="42.4210539" lon="14.2419238"><ele>139.5</ele><time>2026-05-01T07:34:44.938Z</time></trkpt><trkpt lat="42.4210488" lon="14.242105"><ele>137.75</ele><time>2026-05-01T07:34:45.947Z</time></trkpt><trkpt lat="42.4210176" lon="14.2422746"><ele>136.0</ele><time>2026-05-01T07:34:46.941Z</time></trkpt><trkpt lat="42.4209579" lon="14.2424134"><ele>135.0</ele><time>2026-05-01T07:34:47.943Z</time></trkpt><trkpt lat="42.42087" lon="14.2425387"><ele>134.0</ele><time>2026-05-01T07:34:48.939Z</time></trkpt><trkpt lat="42.4207819" lon="14.242627"><ele>133.0</ele><time>2026-05-01T07:34:49.937Z</time></trkpt><trkpt lat="42.420676" lon="14.24269"><ele>132.0</ele><time>2026-05-01T07:34:50.944Z</time></trkpt><trkpt lat="42.4205551" lon="14.2427584"><ele>132.0</ele><time>2026-05-01T07:34:51.939Z</time></trkpt><trkpt lat="42.4204872" lon="14.2429124"><ele>132.0</ele><time>2026-05-01T07:34:52.936Z</time></trkpt><trkpt lat="42.4204265" lon="14.2431388"><ele>132.0</ele><time>2026-05-01T07:34:53.939Z</time></trkpt><trkpt lat="42.4203594" lon="14.2433349"><ele>127.0</ele><time>2026-05-01T07:34:54.936Z</time></trkpt><trkpt lat="42.4202867" lon="14.2435354"><ele>122.0</ele><time>2026-05-01T07:34:55.934Z</time></trkpt><trkpt lat="42.4202144" lon="14.2437501"><ele>117.0</ele><time>2026-05-01T07:34:56.927Z</time></trkpt><trkpt lat="42.4201492" lon="14.2439581"><ele>116.33333333333334</ele><time>2026-05-01T07:34:57.931Z</time></trkpt><trkpt lat="42.4200942" lon="14.2441678"><ele>115.66666666666667</ele><time>2026-05-01T07:34:58.933Z</time></trkpt><trkpt lat="42.420062" lon="14.2443946"><ele>115.0</ele><time>2026-05-01T07:34:59.935Z</time></trkpt><trkpt lat="42.4200487" lon="14.244648"><ele>115.33333333333334</ele><time>2026-05-01T07:35:00.941Z</time></trkpt><trkpt lat="42.4200401" lon="14.2449114"><ele>115.66666666666666</ele><time>2026-05-01T07:35:01.945Z</time></trkpt><trkpt lat="42.4200303" lon="14.2451707"><ele>116.0</ele><time>2026-05-01T07:35:02.928Z</time></trkpt><trkpt lat="42.4200197" lon="14.2454304"><ele>115.33333333333333</ele><time>2026-05-01T07:35:03.934Z</time></trkpt><trkpt lat="42.4200066" lon="14.2456795"><ele>114.66666666666666</ele><time>2026-05-01T07:35:04.936Z</time></trkpt><trkpt lat="42.4199947" lon="14.2459191"><ele>114.0</ele><time>2026-05-01T07:35:05.935Z</time></trkpt><trkpt lat="42.4199823" lon="14.2461469"><ele>114.0</ele><time>2026-05-01T07:35:06.942Z</time></trkpt><trkpt lat="42.4199733" lon="14.246377"><ele>114.0</ele><time>2026-05-01T07:35:07.931Z</time></trkpt><trkpt lat="42.4199634" lon="14.2466179"><ele>114.0</ele><time>2026-05-01T07:35:08.935Z</time></trkpt><trkpt lat="42.4199524" lon="14.2468618"><ele>114.33333333333334</ele><time>2026-05-01T07:35:09.936Z</time></trkpt><trkpt lat="42.4199544" lon="14.2470959"><ele>114.66666666666667</ele><time>2026-05-01T07:35:10.935Z</time></trkpt><trkpt lat="42.4199679" lon="14.2473174"><ele>115.0</ele><time>2026-05-01T07:35:11.938Z</time></trkpt><trkpt lat="42.4199865" lon="14.2475309"><ele>114.0</ele><time>2026-05-01T07:35:12.93Z</time></trkpt><trkpt lat="42.4200125" lon="14.2477332"><ele>113.0</ele><time>2026-05-01T07:35:13.938Z</time></trkpt><trkpt lat="42.4200417" lon="14.2479226"><ele>112.0</ele><time>2026-05-01T07:35:14.935Z</time></trkpt><trkpt lat="42.4200744" lon="14.2481041"><ele>111.0</ele><time>2026-05-01T07:35:15.94Z</time></trkpt><trkpt lat="42.420102" lon="14.2482663"><ele>110.0</ele><time>2026-05-01T07:35:16.938Z</time></trkpt><trkpt lat="42.4201277" lon="14.2484154"><ele>109.0</ele><time>2026-05-01T07:35:17.934Z</time></trkpt><trkpt lat="42.420153" lon="14.2485501"><ele>108.0</ele><time>2026-05-01T07:35:18.931Z</time></trkpt><trkpt lat="42.4201738" lon="14.2486614"><ele>107.0</ele><time>2026-05-01T07:35:19.936Z</time></trkpt><trkpt lat="42.4201944" lon="14.2487445"><ele>106.0</ele><time>2026-05-01T07:35:20.931Z</time></trkpt><trkpt lat="42.420197" lon="14.2488484"><ele>105.0</ele><time>2026-05-01T07:35:22.938Z</time></trkpt><trkpt lat="42.4201255" lon="14.2489367"><ele>104.0</ele><time>2026-05-01T07:35:24.932Z</time></trkpt><trkpt lat="42.4200698" lon="14.2489775"><ele>103.0</ele><time>2026-05-01T07:35:25.932Z</time></trkpt><trkpt lat="42.4200127" lon="14.2490214"><ele>102.0</ele><time>2026-05-01T07:35:26.93Z</time></trkpt><trkpt lat="42.4199574" lon="14.2490745"><ele>101.0</ele><time>2026-05-01T07:35:27.94Z</time></trkpt><trkpt lat="42.4198953" lon="14.2491297"><ele>100.0</ele><time>2026-05-01T07:35:28.942Z</time></trkpt><trkpt lat="42.4198361" lon="14.2491874"><ele>99.0</ele><time>2026-05-01T07:35:29.933Z</time></trkpt><trkpt lat="42.4197461" lon="14.2492705"><ele>99.0</ele><time>2026-05-01T07:35:31.933Z</time></trkpt><trkpt lat="42.4196855" lon="14.2493275"><ele>99.0</ele><time>2026-05-01T07:35:33.934Z</time></trkpt><trkpt lat="42.4195918" lon="14.2493171"><ele>99.0</ele><time>2026-05-01T07:35:35.941Z</time></trkpt><trkpt lat="42.4194805" lon="14.2492296"><ele>99.0</ele><time>2026-05-01T07:35:37.932Z</time></trkpt><trkpt lat="42.4194183" lon="14.2491822"><ele>99.0</ele><time>2026-05-01T07:35:38.939Z</time></trkpt><trkpt lat="42.4193538" lon="14.2491492"><ele>99.0</ele><time>2026-05-01T07:35:39.936Z</time></trkpt><trkpt lat="42.4192798" lon="14.249119"><ele>96.0</ele><time>2026-05-01T07:35:40.943Z</time></trkpt><trkpt lat="42.4191889" lon="14.2490963"><ele>93.0</ele><time>2026-05-01T07:35:41.935Z</time></trkpt><trkpt lat="42.4190949" lon="14.2490799"><ele>90.0</ele><time>2026-05-01T07:35:42.947Z</time></trkpt><trkpt lat="42.4190015" lon="14.2490704"><ele>87.0</ele><time>2026-05-01T07:35:43.934Z</time></trkpt><trkpt lat="42.4189112" lon="14.2490591"><ele>84.0</ele><time>2026-05-01T07:35:44.943Z</time></trkpt><trkpt lat="42.4188325" lon="14.2490446"><ele>81.66666666666667</ele><time>2026-05-01T07:35:45.931Z</time></trkpt><trkpt lat="42.4187638" lon="14.2490316"><ele>79.33333333333333</ele><time>2026-05-01T07:35:46.937Z</time></trkpt><trkpt lat="42.4186953" lon="14.249024"><ele>77.0</ele><time>2026-05-01T07:35:47.937Z</time></trkpt><trkpt lat="42.4186245" lon="14.2490138"><ele>74.66666666666666</ele><time>2026-05-01T07:35:48.933Z</time></trkpt><trkpt lat="42.4185537" lon="14.2490011"><ele>72.33333333333333</ele><time>2026-05-01T07:35:49.935Z</time></trkpt><trkpt lat="42.4184381" lon="14.2489642"><ele>70.0</ele><time>2026-05-01T07:35:51.925Z</time></trkpt><trkpt lat="42.4179882" lon="14.2488994"><ele>66.6</ele><time>2026-05-01T07:35:57.954Z</time></trkpt><trkpt lat="42.4179156" lon="14.2488748"><ele>63.2</ele><time>2026-05-01T07:35:58.932Z</time></trkpt><trkpt lat="42.4178289" lon="14.2487826"><ele>59.8</ele><time>2026-05-01T07:36:00.938Z</time></trkpt><trkpt lat="42.4177512" lon="14.2486912"><ele>56.4</ele><time>2026-05-01T07:36:02.931Z</time></trkpt><trkpt lat="42.4176512" lon="14.2486311"><ele>53.0</ele><time>2026-05-01T07:36:04.933Z</time></trkpt><trkpt lat="42.4175495" lon="14.2485837"><ele>53.0</ele><time>2026-05-01T07:36:06.931Z</time></trkpt><trkpt lat="42.4174444" lon="14.2485218"><ele>53.0</ele><time>2026-05-01T07:36:08.937Z</time></trkpt><trkpt lat="42.4173493" lon="14.2484448"><ele>53.0</ele><time>2026-05-01T07:36:10.931Z</time></trkpt><trkpt lat="42.4172975" lon="14.2483567"><ele>53.0</ele><time>2026-05-01T07:36:12.938Z</time></trkpt><trkpt lat="42.4172625" lon="14.2482273"><ele>53.0</ele><time>2026-05-01T07:36:14.939Z</time></trkpt><trkpt lat="42.4172643" lon="14.2480796"><ele>53.16666666666667</ele><time>2026-05-01T07:36:16.944Z</time></trkpt><trkpt lat="42.4172759" lon="14.2479454"><ele>53.333333333333336</ele><time>2026-05-01T07:36:18.955Z</time></trkpt><trkpt lat="42.4172765" lon="14.2478581"><ele>53.5</ele><time>2026-05-01T07:36:21.949Z</time></trkpt><trkpt lat="42.4172553" lon="14.2479578"><ele>53.66666666666667</ele><time>2026-05-01T07:37:09.932Z</time></trkpt><trkpt lat="42.4171602" lon="14.2479384"><ele>53.833333333333336</ele><time>2026-05-01T07:37:13.936Z</time></trkpt><trkpt lat="42.4170869" lon="14.2479193"><ele>54.0</ele><time>2026-05-01T07:37:15.934Z</time></trkpt><trkpt lat="42.4170238" lon="14.247904"><ele>52.42857142857143</ele><time>2026-05-01T07:37:17.935Z</time></trkpt><trkpt lat="42.4169609" lon="14.2478958"><ele>50.857142857142854</ele><time>2026-05-01T07:37:19.93Z</time></trkpt><trkpt lat="42.4168995" lon="14.2478738"><ele>49.28571428571429</ele><time>2026-05-01T07:37:21.937Z</time></trkpt><trkpt lat="42.4168297" lon="14.2478494"><ele>47.714285714285715</ele><time>2026-05-01T07:37:24.93Z</time></trkpt><trkpt lat="42.4167587" lon="14.247823"><ele>46.142857142857146</ele><time>2026-05-01T07:37:26.937Z</time></trkpt><trkpt lat="42.416685" lon="14.2478051"><ele>44.57142857142858</ele><time>2026-05-01T07:37:28.93Z</time></trkpt><trkpt lat="42.4166077" lon="14.2478077"><ele>43.0</ele><time>2026-05-01T07:37:30.935Z</time></trkpt><trkpt lat="42.4165152" lon="14.2478088"><ele>43.0</ele><time>2026-05-01T07:37:32.934Z</time></trkpt><trkpt lat="42.4164565" lon="14.2478484"><ele>43.0</ele><time>2026-05-01T07:37:34.927Z</time></trkpt><trkpt lat="42.4163879" lon="14.2479478"><ele>43.0</ele><time>2026-05-01T07:37:36.931Z</time></trkpt><trkpt lat="42.4163105" lon="14.2480548"><ele>43.0</ele><time>2026-05-01T07:37:38.929Z</time></trkpt><trkpt lat="42.4162542" lon="14.2481588"><ele>43.0</ele><time>2026-05-01T07:37:40.932Z</time></trkpt><trkpt lat="42.4161833" lon="14.2482672"><ele>45.2</ele><time>2026-05-01T07:37:42.936Z</time></trkpt><trkpt lat="42.4161032" lon="14.2483711"><ele>47.4</ele><time>2026-05-01T07:37:44.923Z</time></trkpt><trkpt lat="42.4160268" lon="14.2484658"><ele>49.60000000000001</ele><time>2026-05-01T07:37:46.937Z</time></trkpt><trkpt lat="42.4159535" lon="14.2485658"><ele>51.800000000000004</ele><time>2026-05-01T07:37:48.943Z</time></trkpt><trkpt lat="42.4158827" lon="14.2486428"><ele>54.0</ele><time>2026-05-01T07:37:50.931Z</time></trkpt><trkpt lat="42.415826" lon="14.2487085"><ele>54.0</ele><time>2026-05-01T07:37:52.936Z</time></trkpt><trkpt lat="42.4157621" lon="14.2487765"><ele>54.00000000000001</ele><time>2026-05-01T07:37:54.945Z</time></trkpt><trkpt lat="42.4156861" lon="14.2488518"><ele>54.00000000000001</ele><time>2026-05-01T07:37:56.927Z</time></trkpt><trkpt lat="42.4156111" lon="14.2489238"><ele>54.0</ele><time>2026-05-01T07:37:58.923Z</time></trkpt><trkpt lat="42.4155275" lon="14.2489986"><ele>54.0</ele><time>2026-05-01T07:38:00.946Z</time></trkpt><trkpt lat="42.4154505" lon="14.2491005"><ele>58.400000000000006</ele><time>2026-05-01T07:38:02.935Z</time></trkpt><trkpt lat="42.4153785" lon="14.2492104"><ele>62.800000000000004</ele><time>2026-05-01T07:38:04.932Z</time></trkpt><trkpt lat="42.41532" lon="14.249328"><ele>67.19999999999999</ele><time>2026-05-01T07:38:06.933Z</time></trkpt><trkpt lat="42.4152586" lon="14.2494398"><ele>71.6</ele><time>2026-05-01T07:38:08.929Z</time></trkpt><trkpt lat="42.4151779" lon="14.249552"><ele>76.0</ele><time>2026-05-01T07:38:10.924Z</time></trkpt><trkpt lat="42.4150933" lon="14.2496506"><ele>76.0</ele><time>2026-05-01T07:38:12.946Z</time></trkpt><trkpt lat="42.4150153" lon="14.2497197"><ele>76.0</ele><time>2026-05-01T07:38:14.94Z</time></trkpt><trkpt lat="42.4149337" lon="14.2497812"><ele>76.0</ele><time>2026-05-01T07:38:16.929Z</time></trkpt><trkpt lat="42.414851" lon="14.2498463"><ele>76.0</ele><time>2026-05-01T07:38:18.927Z</time></trkpt><trkpt lat="42.4147621" lon="14.2499088"><ele>76.0</ele><time>2026-05-01T07:38:20.94Z</time></trkpt><trkpt lat="42.4146682" lon="14.249994"><ele>78.0</ele><time>2026-05-01T07:38:22.932Z</time></trkpt><trkpt lat="42.4145782" lon="14.2500779"><ele>80.0</ele><time>2026-05-01T07:38:24.933Z</time></trkpt><trkpt lat="42.414496" lon="14.2501565"><ele>82.0</ele><time>2026-05-01T07:38:26.94Z</time></trkpt><trkpt lat="42.4144163" lon="14.2502353"><ele>84.0</ele><time>2026-05-01T07:38:28.939Z</time></trkpt><trkpt lat="42.4143363" lon="14.2502923"><ele>86.0</ele><time>2026-05-01T07:38:30.945Z</time></trkpt><trkpt lat="42.4142667" lon="14.2502706"><ele>86.0</ele><time>2026-05-01T07:38:32.937Z</time></trkpt><trkpt lat="42.4142062" lon="14.2501773"><ele>86.0</ele><time>2026-05-01T07:38:34.932Z</time></trkpt><trkpt lat="42.4141475" lon="14.2500674"><ele>86.0</ele><time>2026-05-01T07:38:36.938Z</time></trkpt><trkpt lat="42.4140487" lon="14.2499649"><ele>86.0</ele><time>2026-05-01T07:38:38.932Z</time></trkpt><trkpt lat="42.4139859" lon="14.2499044"><ele>86.0</ele><time>2026-05-01T07:38:39.933Z</time></trkpt><trkpt lat="42.413924" lon="14.2498575"><ele>86.00000000000001</ele><time>2026-05-01T07:38:40.935Z</time></trkpt><trkpt lat="42.4138544" lon="14.2498222"><ele>86.0</ele><time>2026-05-01T07:38:41.936Z</time></trkpt><trkpt lat="42.41378" lon="14.2497936"><ele>86.0</ele><time>2026-05-01T07:38:42.937Z</time></trkpt><trkpt lat="42.4137027" lon="14.2497825"><ele>86.0</ele><time>2026-05-01T07:38:43.934Z</time></trkpt><trkpt lat="42.4136332" lon="14.2497901"><ele>86.0</ele><time>2026-05-01T07:38:44.932Z</time></trkpt><trkpt lat="42.4135606" lon="14.2497951"><ele>86.00000000000001</ele><time>2026-05-01T07:38:45.937Z</time></trkpt><trkpt lat="42.4134862" lon="14.2498047"><ele>86.0</ele><time>2026-05-01T07:38:46.931Z</time></trkpt><trkpt lat="42.4134178" lon="14.2498289"><ele>86.5</ele><time>2026-05-01T07:38:47.934Z</time></trkpt><trkpt lat="42.4133055" lon="14.2498871"><ele>87.0</ele><time>2026-05-01T07:38:49.937Z</time></trkpt><trkpt lat="42.4132353" lon="14.2499118"><ele>87.5</ele><time>2026-05-01T07:38:51.937Z</time></trkpt><trkpt lat="42.4131812" lon="14.2498452"><ele>88.0</ele><time>2026-05-01T07:38:54.937Z</time></trkpt><trkpt lat="42.4131699" lon="14.2497077"><ele>88.5</ele><time>2026-05-01T07:38:56.927Z</time></trkpt><trkpt lat="42.413163" lon="14.2496024"><ele>89.0</ele><time>2026-05-01T07:38:57.954Z</time></trkpt><trkpt lat="42.4131477" lon="14.2494783"><ele>90.0</ele><time>2026-05-01T07:38:58.938Z</time></trkpt><trkpt lat="42.4131342" lon="14.249343"><ele>91.0</ele><time>2026-05-01T07:38:59.932Z</time></trkpt><trkpt lat="42.4131236" lon="14.2492072"><ele>92.0</ele><time>2026-05-01T07:39:00.932Z</time></trkpt><trkpt lat="42.4131033" lon="14.249058"><ele>93.0</ele><time>2026-05-01T07:39:01.932Z</time></trkpt><trkpt lat="42.4130801" lon="14.248902"><ele>94.0</ele><time>2026-05-01T07:39:02.933Z</time></trkpt><trkpt lat="42.4130512" lon="14.2487471"><ele>94.75</ele><time>2026-05-01T07:39:03.94Z</time></trkpt><trkpt lat="42.4130254" lon="14.2485964"><ele>95.5</ele><time>2026-05-01T07:39:04.935Z</time></trkpt><trkpt lat="42.4129929" lon="14.2484327"><ele>96.25</ele><time>2026-05-01T07:39:05.937Z</time></trkpt><trkpt lat="42.4129615" lon="14.2482631"><ele>97.0</ele><time>2026-05-01T07:39:06.937Z</time></trkpt><trkpt lat="42.4129358" lon="14.2480796"><ele>97.0</ele><time>2026-05-01T07:39:07.931Z</time></trkpt><trkpt lat="42.412908" lon="14.2479131"><ele>97.0</ele><time>2026-05-01T07:39:08.944Z</time></trkpt><trkpt lat="42.4128763" lon="14.2477567"><ele>97.0</ele><time>2026-05-01T07:39:09.932Z</time></trkpt><trkpt lat="42.4128487" lon="14.2476185"><ele>97.0</ele><time>2026-05-01T07:39:10.931Z</time></trkpt><trkpt lat="42.4128167" lon="14.2475001"><ele>97.0</ele><time>2026-05-01T07:39:11.928Z</time></trkpt><trkpt lat="42.4127924" lon="14.24739"><ele>97.0</ele><time>2026-05-01T07:39:12.934Z</time></trkpt><trkpt lat="42.4127709" lon="14.2473059"><ele>97.0</ele><time>2026-05-01T07:39:13.932Z</time></trkpt><trkpt lat="42.4127598" lon="14.2472106"><ele>97.0</ele><time>2026-05-01T07:39:15.928Z</time></trkpt><trkpt lat="42.4128734" lon="14.2471743"><ele>97.0</ele><time>2026-05-01T07:39:19.931Z</time></trkpt><trkpt lat="42.4129819" lon="14.2471216"><ele>97.0</ele><time>2026-05-01T07:39:21.934Z</time></trkpt><trkpt lat="42.4130845" lon="14.2470569"><ele>99.39999999999999</ele><time>2026-05-01T07:39:23.93Z</time></trkpt><trkpt lat="42.413183" lon="14.2470051"><ele>101.8</ele><time>2026-05-01T07:39:25.937Z</time></trkpt><trkpt lat="42.4132827" lon="14.2469503"><ele>104.2</ele><time>2026-05-01T07:39:27.938Z</time></trkpt><trkpt lat="42.4133698" lon="14.2468958"><ele>106.6</ele><time>2026-05-01T07:39:29.929Z</time></trkpt><trkpt lat="42.4134539" lon="14.2468483"><ele>109.0</ele><time>2026-05-01T07:39:46.97Z</time></trkpt><trkpt lat="42.4135344" lon="14.2467964"><ele>109.00000000000001</ele><time>2026-05-01T07:39:48.936Z</time></trkpt><trkpt lat="42.4136191" lon="14.2467376"><ele>109.0</ele><time>2026-05-01T07:39:51.946Z</time></trkpt><trkpt lat="42.4136842" lon="14.2466593"><ele>109.0</ele><time>2026-05-01T07:39:53.933Z</time></trkpt><trkpt lat="42.4137133" lon="14.2465669"><ele>109.0</ele><time>2026-05-01T07:39:55.934Z</time></trkpt><trkpt lat="42.4137324" lon="14.2464481"><ele>109.00000000000001</ele><time>2026-05-01T07:39:57.935Z</time></trkpt><trkpt lat="42.4137694" lon="14.2463528"><ele>109.0</ele><time>2026-05-01T07:40:06.931Z</time></trkpt><trkpt lat="42.4137916" lon="14.2462343"><ele>110.4</ele><time>2026-05-01T07:40:08.932Z</time></trkpt><trkpt lat="42.4138048" lon="14.246094"><ele>111.80000000000001</ele><time>2026-05-01T07:40:10.932Z</time></trkpt><trkpt lat="42.4138258" lon="14.2459323"><ele>113.19999999999999</ele><time>2026-05-01T07:40:12.931Z</time></trkpt><trkpt lat="42.4138104" lon="14.2457696"><ele>114.6</ele><time>2026-05-01T07:40:14.929Z</time></trkpt><trkpt lat="42.4137906" lon="14.2456691"><ele>116.0</ele><time>2026-05-01T07:40:15.933Z</time></trkpt><trkpt lat="42.4137616" lon="14.2455718"><ele>117.0</ele><time>2026-05-01T07:40:16.935Z</time></trkpt><trkpt lat="42.4137301" lon="14.2454842"><ele>118.0</ele><time>2026-05-01T07:40:17.934Z</time></trkpt><trkpt lat="42.4136784" lon="14.2453416"><ele>119.0</ele><time>2026-05-01T07:40:19.929Z</time></trkpt><trkpt lat="42.4136253" lon="14.2452354"><ele>120.0</ele><time>2026-05-01T07:40:21.936Z</time></trkpt><trkpt lat="42.413582" lon="14.2451112"><ele>121.0</ele><time>2026-05-01T07:40:23.933Z</time></trkpt><trkpt lat="42.4135387" lon="14.2450122"><ele>121.0</ele><time>2026-05-01T07:40:25.934Z</time></trkpt><trkpt lat="42.4135405" lon="14.2448479"><ele>121.0</ele><time>2026-05-01T07:40:27.93Z</time></trkpt><trkpt lat="42.4135437" lon="14.2447491"><ele>121.0</ele><time>2026-05-01T07:40:28.936Z</time></trkpt><trkpt lat="42.4135332" lon="14.2446476"><ele>121.0</ele><time>2026-05-01T07:40:29.938Z</time></trkpt><trkpt lat="42.4134754" lon="14.2444895"><ele>121.0</ele><time>2026-05-01T07:40:31.939Z</time></trkpt><trkpt lat="42.4134262" lon="14.2443746"><ele>121.33333333333334</ele><time>2026-05-01T07:40:32.945Z</time></trkpt><trkpt lat="42.413388" lon="14.2442594"><ele>121.66666666666667</ele><time>2026-05-01T07:40:33.939Z</time></trkpt><trkpt lat="42.4133434" lon="14.2441506"><ele>122.0</ele><time>2026-05-01T07:40:34.933Z</time></trkpt><trkpt lat="42.4133041" lon="14.2440487"><ele>122.33333333333334</ele><time>2026-05-01T07:40:35.935Z</time></trkpt><trkpt lat="42.4132647" lon="14.2439538"><ele>122.66666666666667</ele><time>2026-05-01T07:40:36.931Z</time></trkpt><trkpt lat="42.413233" lon="14.2438751"><ele>123.0</ele><time>2026-05-01T07:40:37.939Z</time></trkpt><trkpt lat="42.4131635" lon="14.2437373"><ele>122.0</ele><time>2026-05-01T07:40:39.943Z</time></trkpt><trkpt lat="42.4131284" lon="14.2436276"><ele>121.0</ele><time>2026-05-01T07:40:40.937Z</time></trkpt><trkpt lat="42.4130984" lon="14.2435196"><ele>120.0</ele><time>2026-05-01T07:40:41.939Z</time></trkpt><trkpt lat="42.4130764" lon="14.2434176"><ele>119.0</ele><time>2026-05-01T07:40:42.928Z</time></trkpt><trkpt lat="42.4130713" lon="14.243308"><ele>118.0</ele><time>2026-05-01T07:40:43.941Z</time></trkpt><trkpt lat="42.4130797" lon="14.2431899"><ele>117.0</ele><time>2026-05-01T07:40:44.941Z</time></trkpt><trkpt lat="42.4130844" lon="14.2430791"><ele>116.16666666666667</ele><time>2026-05-01T07:40:45.929Z</time></trkpt><trkpt lat="42.4130922" lon="14.2429692"><ele>115.33333333333334</ele><time>2026-05-01T07:40:46.949Z</time></trkpt><trkpt lat="42.4130977" lon="14.242858"><ele>114.5</ele><time>2026-05-01T07:40:47.936Z</time></trkpt><trkpt lat="42.4130988" lon="14.2427508"><ele>113.66666666666667</ele><time>2026-05-01T07:40:48.933Z</time></trkpt><trkpt lat="42.4130944" lon="14.24264"><ele>112.83333333333334</ele><time>2026-05-01T07:40:49.927Z</time></trkpt><trkpt lat="42.4130745" lon="14.2425235"><ele>112.0</ele><time>2026-05-01T07:40:50.931Z</time></trkpt><trkpt lat="42.4130399" lon="14.2424229"><ele>112.0</ele><time>2026-05-01T07:40:51.931Z</time></trkpt><trkpt lat="42.4129975" lon="14.2423194"><ele>111.99999999999999</ele><time>2026-05-01T07:40:52.939Z</time></trkpt><trkpt lat="42.4129471" lon="14.2422135"><ele>111.99999999999999</ele><time>2026-05-01T07:40:53.938Z</time></trkpt><trkpt lat="42.4128947" lon="14.2421075"><ele>112.0</ele><time>2026-05-01T07:40:54.935Z</time></trkpt><trkpt lat="42.412854" lon="14.2419959"><ele>112.0</ele><time>2026-05-01T07:40:55.941Z</time></trkpt><trkpt lat="42.412817" lon="14.2418882"><ele>113.00000000000001</ele><time>2026-05-01T07:40:56.94Z</time></trkpt><trkpt lat="42.4127864" lon="14.2417747"><ele>114.0</ele><time>2026-05-01T07:40:57.935Z</time></trkpt><trkpt lat="42.4127585" lon="14.241667"><ele>115.0</ele><time>2026-05-01T07:40:58.943Z</time></trkpt><trkpt lat="42.4127298" lon="14.2415662"><ele>116.0</ele><time>2026-05-01T07:40:59.946Z</time></trkpt><trkpt lat="42.4127006" lon="14.2414667"><ele>117.00000000000001</ele><time>2026-05-01T07:41:00.935Z</time></trkpt><trkpt lat="42.4126639" lon="14.2413683"><ele>118.0</ele><time>2026-05-01T07:41:01.965Z</time></trkpt><trkpt lat="42.4126223" lon="14.2412757"><ele>118.0</ele><time>2026-05-01T07:41:02.938Z</time></trkpt><trkpt lat="42.4125797" lon="14.241187"><ele>118.0</ele><time>2026-05-01T07:41:03.946Z</time></trkpt><trkpt lat="42.4125427" lon="14.2411065"><ele>118.0</ele><time>2026-05-01T07:41:04.935Z</time></trkpt><trkpt lat="42.4125017" lon="14.2410417"><ele>118.0</ele><time>2026-05-01T07:41:05.931Z</time></trkpt><trkpt lat="42.4124575" lon="14.2409807"><ele>118.0</ele><time>2026-05-01T07:41:06.948Z</time></trkpt><trkpt lat="42.4124051" lon="14.2409169"><ele>118.0</ele><time>2026-05-01T07:41:07.945Z</time></trkpt><trkpt lat="42.4123542" lon="14.2408399"><ele>118.0</ele><time>2026-05-01T07:41:08.94Z</time></trkpt><trkpt lat="42.4123017" lon="14.2407588"><ele>118.0</ele><time>2026-05-01T07:41:09.935Z</time></trkpt><trkpt lat="42.4122511" lon="14.2406861"><ele>118.0</ele><time>2026-05-01T07:41:10.947Z</time></trkpt><trkpt lat="42.4121975" lon="14.2406234"><ele>118.0</ele><time>2026-05-01T07:41:11.943Z</time></trkpt><trkpt lat="42.4121385" lon="14.2405569"><ele>118.0</ele><time>2026-05-01T07:41:12.932Z</time></trkpt><trkpt lat="42.412084" lon="14.240499"><ele>118.0</ele><time>2026-05-01T07:41:13.934Z</time></trkpt><trkpt lat="42.4120292" lon="14.2404521"><ele>118.0</ele><time>2026-05-01T07:41:14.939Z</time></trkpt><trkpt lat="42.4119405" lon="14.2404134"><ele>118.0</ele><time>2026-05-01T07:41:16.938Z</time></trkpt><trkpt lat="42.4118761" lon="14.2403339"><ele>117.80000000000001</ele><time>2026-05-01T07:41:19.932Z</time></trkpt><trkpt lat="42.4118548" lon="14.2402485"><ele>117.60000000000001</ele><time>2026-05-01T07:41:23.928Z</time></trkpt><trkpt lat="42.4118059" lon="14.2401226"><ele>117.39999999999999</ele><time>2026-05-01T07:41:26.945Z</time></trkpt><trkpt lat="42.4117592" lon="14.2400189"><ele>117.19999999999999</ele><time>2026-05-01T07:41:28.94Z</time></trkpt><trkpt lat="42.4117174" lon="14.2399318"><ele>117.0</ele><time>2026-05-01T07:41:30.938Z</time></trkpt><trkpt lat="42.4116559" lon="14.2397857"><ele>117.0</ele><time>2026-05-01T07:41:32.931Z</time></trkpt><trkpt lat="42.4116031" lon="14.2396402"><ele>117.0</ele><time>2026-05-01T07:41:34.945Z</time></trkpt><trkpt lat="42.411585" lon="14.2395517"><ele>117.0</ele><time>2026-05-01T07:41:35.942Z</time></trkpt><trkpt lat="42.411555" lon="14.2394481"><ele>117.0</ele><time>2026-05-01T07:41:36.942Z</time></trkpt><trkpt lat="42.4115253" lon="14.2393564"><ele>117.0</ele><time>2026-05-01T07:41:37.944Z</time></trkpt><trkpt lat="42.4114941" lon="14.2392696"><ele>117.0</ele><time>2026-05-01T07:41:38.928Z</time></trkpt><trkpt lat="42.41146" lon="14.2391755"><ele>117.0</ele><time>2026-05-01T07:41:39.931Z</time></trkpt><trkpt lat="42.4114197" lon="14.2390771"><ele>117.0</ele><time>2026-05-01T07:41:40.943Z</time></trkpt><trkpt lat="42.4113804" lon="14.2389953"><ele>117.0</ele><time>2026-05-01T07:41:41.938Z</time></trkpt><trkpt lat="42.4113453" lon="14.2389167"><ele>117.0</ele><time>2026-05-01T07:41:42.939Z</time></trkpt><trkpt lat="42.4113131" lon="14.2388316"><ele>117.0</ele><time>2026-05-01T07:41:43.932Z</time></trkpt><trkpt lat="42.4112793" lon="14.2387338"><ele>117.0</ele><time>2026-05-01T07:41:44.939Z</time></trkpt><trkpt lat="42.411239" lon="14.2386403"><ele>121.16666666666667</ele><time>2026-05-01T07:41:45.938Z</time></trkpt><trkpt lat="42.4111932" lon="14.2385501"><ele>125.33333333333334</ele><time>2026-05-01T07:41:46.944Z</time></trkpt><trkpt lat="42.4111466" lon="14.2384669"><ele>129.5</ele><time>2026-05-01T07:41:47.933Z</time></trkpt><trkpt lat="42.4111034" lon="14.2383818"><ele>133.66666666666669</ele><time>2026-05-01T07:41:48.929Z</time></trkpt><trkpt lat="42.4110613" lon="14.2382814"><ele>137.83333333333334</ele><time>2026-05-01T07:41:49.943Z</time></trkpt><trkpt lat="42.4110246" lon="14.2381785"><ele>142.0</ele><time>2026-05-01T07:41:50.936Z</time></trkpt><trkpt lat="42.4109883" lon="14.2380836"><ele>142.0</ele><time>2026-05-01T07:41:51.939Z</time></trkpt><trkpt lat="42.4109509" lon="14.2379958"><ele>142.0</ele><time>2026-05-01T07:41:52.93Z</time></trkpt><trkpt lat="42.4109195" lon="14.2379131"><ele>142.0</ele><time>2026-05-01T07:41:53.933Z</time></trkpt><trkpt lat="42.4108628" lon="14.2377614"><ele>142.0</ele><time>2026-05-01T07:41:55.939Z</time></trkpt><trkpt lat="42.4108082" lon="14.2376208"><ele>142.0</ele><time>2026-05-01T07:41:57.934Z</time></trkpt><trkpt lat="42.4107693" lon="14.2375526"><ele>142.0</ele><time>2026-05-01T07:41:58.94Z</time></trkpt><trkpt lat="42.4107318" lon="14.2374747"><ele>142.0</ele><time>2026-05-01T07:41:59.931Z</time></trkpt><trkpt lat="42.4106536" lon="14.2373547"><ele>142.0</ele><time>2026-05-01T07:42:01.942Z</time></trkpt><trkpt lat="42.4105761" lon="14.2372351"><ele>142.0</ele><time>2026-05-01T07:42:03.943Z</time></trkpt><trkpt lat="42.4105339" lon="14.2371709"><ele>142.0</ele><time>2026-05-01T07:42:04.938Z</time></trkpt><trkpt lat="42.4104709" lon="14.237059"><ele>143.83333333333334</ele><time>2026-05-01T07:42:06.94Z</time></trkpt><trkpt lat="42.410425" lon="14.2369335"><ele>145.66666666666669</ele><time>2026-05-01T07:42:08.932Z</time></trkpt><trkpt lat="42.410402" lon="14.2368445"><ele>147.5</ele><time>2026-05-01T07:42:09.944Z</time></trkpt><trkpt lat="42.4103775" lon="14.236752"><ele>149.33333333333334</ele><time>2026-05-01T07:42:10.931Z</time></trkpt><trkpt lat="42.4103422" lon="14.2366495"><ele>151.16666666666666</ele><time>2026-05-01T07:42:11.936Z</time></trkpt><trkpt lat="42.4103112" lon="14.2365532"><ele>153.0</ele><time>2026-05-01T07:42:12.932Z</time></trkpt><trkpt lat="42.4102729" lon="14.2364703"><ele>152.16666666666666</ele><time>2026-05-01T07:42:13.936Z</time></trkpt><trkpt lat="42.4102347" lon="14.2363924"><ele>151.33333333333334</ele><time>2026-05-01T07:42:14.938Z</time></trkpt><trkpt lat="42.4101894" lon="14.2363195"><ele>150.5</ele><time>2026-05-01T07:42:15.935Z</time></trkpt><trkpt lat="42.4101428" lon="14.2362507"><ele>149.66666666666669</ele><time>2026-05-01T07:42:16.938Z</time></trkpt><trkpt lat="42.4100824" lon="14.2361795"><ele>148.83333333333334</ele><time>2026-05-01T07:42:17.936Z</time></trkpt><trkpt lat="42.4100174" lon="14.2360993"><ele>148.0</ele><time>2026-05-01T07:42:18.93Z</time></trkpt><trkpt lat="42.4099519" lon="14.2360233"><ele>148.0</ele><time>2026-05-01T07:42:19.943Z</time></trkpt><trkpt lat="42.4098837" lon="14.2359535"><ele>148.0</ele><time>2026-05-01T07:42:20.928Z</time></trkpt><trkpt lat="42.4098153" lon="14.2358766"><ele>148.0</ele><time>2026-05-01T07:42:21.933Z</time></trkpt><trkpt lat="42.4097489" lon="14.2357886"><ele>148.0</ele><time>2026-05-01T07:42:22.936Z</time></trkpt><trkpt lat="42.4096808" lon="14.235699"><ele>148.0</ele><time>2026-05-01T07:42:23.936Z</time></trkpt><trkpt lat="42.4096118" lon="14.2356259"><ele>148.0</ele><time>2026-05-01T07:42:24.943Z</time></trkpt><trkpt lat="42.409545" lon="14.2355606"><ele>148.0</ele><time>2026-05-01T07:42:25.938Z</time></trkpt><trkpt lat="42.4094885" lon="14.2354915"><ele>148.0</ele><time>2026-05-01T07:42:26.928Z</time></trkpt><trkpt lat="42.409423" lon="14.2354213"><ele>148.0</ele><time>2026-05-01T07:42:27.93Z</time></trkpt><trkpt lat="42.4093622" lon="14.2353464"><ele>148.0</ele><time>2026-05-01T07:42:28.944Z</time></trkpt><trkpt lat="42.4093119" lon="14.2352862"><ele>148.0</ele><time>2026-05-01T07:42:29.933Z</time></trkpt><trkpt lat="42.4092677" lon="14.2352224"><ele>148.0</ele><time>2026-05-01T07:42:30.926Z</time></trkpt><trkpt lat="42.4091878" lon="14.2351288"><ele>148.0</ele><time>2026-05-01T07:42:32.938Z</time></trkpt><trkpt lat="42.4091003" lon="14.2350457"><ele>148.0</ele><time>2026-05-01T07:42:34.938Z</time></trkpt><trkpt lat="42.4090407" lon="14.2349442"><ele>148.0</ele><time>2026-05-01T07:42:36.939Z</time></trkpt><trkpt lat="42.4090365" lon="14.2348308"><ele>148.0</ele><time>2026-05-01T07:42:38.932Z</time></trkpt><trkpt lat="42.4090089" lon="14.2347386"><ele>149.33333333333334</ele><time>2026-05-01T07:42:40.932Z</time></trkpt><trkpt lat="42.4089358" lon="14.2346703"><ele>150.66666666666669</ele><time>2026-05-01T07:42:42.93Z</time></trkpt><trkpt lat="42.4088736" lon="14.2346341"><ele>152.0</ele><time>2026-05-01T07:42:43.935Z</time></trkpt><trkpt lat="42.4088077" lon="14.2345803"><ele>153.33333333333334</ele><time>2026-05-01T07:42:44.936Z</time></trkpt><trkpt lat="42.4087418" lon="14.2345209"><ele>154.66666666666666</ele><time>2026-05-01T07:42:45.936Z</time></trkpt><trkpt lat="42.408674" lon="14.2344493"><ele>156.0</ele><time>2026-05-01T07:42:46.933Z</time></trkpt><trkpt lat="42.4086045" lon="14.2343589"><ele>156.0</ele><time>2026-05-01T07:42:47.942Z</time></trkpt><trkpt lat="42.4085393" lon="14.2342671"><ele>156.0</ele><time>2026-05-01T07:42:48.929Z</time></trkpt><trkpt lat="42.4084752" lon="14.2341732"><ele>156.0</ele><time>2026-05-01T07:42:49.929Z</time></trkpt><trkpt lat="42.4084049" lon="14.2340817"><ele>156.0</ele><time>2026-05-01T07:42:50.923Z</time></trkpt><trkpt lat="42.4083517" lon="14.2339985"><ele>156.0</ele><time>2026-05-01T07:42:51.933Z</time></trkpt><trkpt lat="42.4083167" lon="14.2339188"><ele>156.0</ele><time>2026-05-01T07:42:52.937Z</time></trkpt><trkpt lat="42.4082841" lon="14.2338157"><ele>155.0</ele><time>2026-05-01T07:42:53.928Z</time></trkpt><trkpt lat="42.4082515" lon="14.2336975"><ele>154.0</ele><time>2026-05-01T07:42:54.943Z</time></trkpt><trkpt lat="42.4082167" lon="14.2335856"><ele>153.0</ele><time>2026-05-01T07:42:55.924Z</time></trkpt><trkpt lat="42.408183" lon="14.233472"><ele>152.0</ele><time>2026-05-01T07:42:56.934Z</time></trkpt><trkpt lat="42.4081505" lon="14.2333656"><ele>151.0</ele><time>2026-05-01T07:42:57.931Z</time></trkpt><trkpt lat="42.4081137" lon="14.2332602"><ele>150.0</ele><time>2026-05-01T07:42:58.933Z</time></trkpt><trkpt lat="42.4080736" lon="14.2331635"><ele>147.4</ele><time>2026-05-01T07:42:59.941Z</time></trkpt><trkpt lat="42.4080352" lon="14.2330595"><ele>144.8</ele><time>2026-05-01T07:43:00.93Z</time></trkpt><trkpt lat="42.407993" lon="14.2329578"><ele>142.2</ele><time>2026-05-01T07:43:01.927Z</time></trkpt><trkpt lat="42.4079339" lon="14.2328603"><ele>139.6</ele><time>2026-05-01T07:43:02.942Z</time></trkpt><trkpt lat="42.4078622" lon="14.2327718"><ele>137.0</ele><time>2026-05-01T07:43:03.929Z</time></trkpt><trkpt lat="42.4077949" lon="14.2326919"><ele>140.2</ele><time>2026-05-01T07:43:04.94Z</time></trkpt><trkpt lat="42.4077265" lon="14.2326151"><ele>143.39999999999998</ele><time>2026-05-01T07:43:05.941Z</time></trkpt><trkpt lat="42.4076703" lon="14.2325292"><ele>146.60000000000002</ele><time>2026-05-01T07:43:06.932Z</time></trkpt><trkpt lat="42.4076098" lon="14.2324292"><ele>149.8</ele><time>2026-05-01T07:43:07.934Z</time></trkpt><trkpt lat="42.407548" lon="14.2323294"><ele>153.0</ele><time>2026-05-01T07:43:08.931Z</time></trkpt><trkpt lat="42.4074806" lon="14.2322385"><ele>153.0</ele><time>2026-05-01T07:43:09.94Z</time></trkpt><trkpt lat="42.4074115" lon="14.2321367"><ele>153.0</ele><time>2026-05-01T07:43:10.94Z</time></trkpt><trkpt lat="42.407348" lon="14.2320344"><ele>153.0</ele><time>2026-05-01T07:43:11.928Z</time></trkpt><trkpt lat="42.4072895" lon="14.2319351"><ele>153.0</ele><time>2026-05-01T07:43:12.936Z</time></trkpt><trkpt lat="42.407239" lon="14.2318338"><ele>153.0</ele><time>2026-05-01T07:43:13.931Z</time></trkpt><trkpt lat="42.4071918" lon="14.2317363"><ele>155.16666666666666</ele><time>2026-05-01T07:43:14.93Z</time></trkpt><trkpt lat="42.4071557" lon="14.231643"><ele>157.33333333333334</ele><time>2026-05-01T07:43:15.931Z</time></trkpt><trkpt lat="42.4071413" lon="14.2315431"><ele>159.5</ele><time>2026-05-01T07:43:16.948Z</time></trkpt><trkpt lat="42.4071235" lon="14.2314428"><ele>161.66666666666669</ele><time>2026-05-01T07:43:17.927Z</time></trkpt><trkpt lat="42.4070895" lon="14.2313412"><ele>163.83333333333334</ele><time>2026-05-01T07:43:18.931Z</time></trkpt><trkpt lat="42.4070458" lon="14.2312508"><ele>166.0</ele><time>2026-05-01T07:43:19.942Z</time></trkpt><trkpt lat="42.4069931" lon="14.2311648"><ele>166.0</ele><time>2026-05-01T07:43:20.932Z</time></trkpt><trkpt lat="42.4069315" lon="14.2310752"><ele>166.0</ele><time>2026-05-01T07:43:21.941Z</time></trkpt><trkpt lat="42.4068746" lon="14.2309905"><ele>166.0</ele><time>2026-05-01T07:43:22.94Z</time></trkpt><trkpt lat="42.4068138" lon="14.2309163"><ele>166.0</ele><time>2026-05-01T07:43:23.939Z</time></trkpt><trkpt lat="42.406759" lon="14.2308423"><ele>166.0</ele><time>2026-05-01T07:43:24.933Z</time></trkpt><trkpt lat="42.4066901" lon="14.2307722"><ele>166.0</ele><time>2026-05-01T07:43:25.935Z</time></trkpt><trkpt lat="42.4066224" lon="14.2306967"><ele>166.66666666666669</ele><time>2026-05-01T07:43:26.937Z</time></trkpt><trkpt lat="42.406555" lon="14.2306189"><ele>167.33333333333334</ele><time>2026-05-01T07:43:27.928Z</time></trkpt><trkpt lat="42.4064974" lon="14.2305358"><ele>168.0</ele><time>2026-05-01T07:43:28.936Z</time></trkpt><trkpt lat="42.4064353" lon="14.2304532"><ele>168.66666666666666</ele><time>2026-05-01T07:43:29.944Z</time></trkpt><trkpt lat="42.4063775" lon="14.2303725"><ele>169.33333333333331</ele><time>2026-05-01T07:43:30.93Z</time></trkpt><trkpt lat="42.4063198" lon="14.2302895"><ele>170.0</ele><time>2026-05-01T07:43:31.957Z</time></trkpt><trkpt lat="42.4062687" lon="14.2302066"><ele>170.0</ele><time>2026-05-01T07:43:32.936Z</time></trkpt><trkpt lat="42.4062166" lon="14.2301267"><ele>170.0</ele><time>2026-05-01T07:43:33.934Z</time></trkpt><trkpt lat="42.4061598" lon="14.2300383"><ele>170.0</ele><time>2026-05-01T07:43:34.934Z</time></trkpt><trkpt lat="42.4061084" lon="14.2299589"><ele>170.0</ele><time>2026-05-01T07:43:35.934Z</time></trkpt><trkpt lat="42.4060657" lon="14.2298962"><ele>170.0</ele><time>2026-05-01T07:43:36.94Z</time></trkpt><trkpt lat="42.4059905" lon="14.2297852"><ele>170.0</ele><time>2026-05-01T07:43:38.93Z</time></trkpt><trkpt lat="42.4059036" lon="14.2297393"><ele>170.6</ele><time>2026-05-01T07:43:40.936Z</time></trkpt><trkpt lat="42.4058062" lon="14.2297351"><ele>171.2</ele><time>2026-05-01T07:43:42.935Z</time></trkpt><trkpt lat="42.4056905" lon="14.2297353"><ele>171.8</ele><time>2026-05-01T07:43:44.937Z</time></trkpt><trkpt lat="42.4056224" lon="14.2297428"><ele>172.4</ele><time>2026-05-01T07:43:45.934Z</time></trkpt><trkpt lat="42.4055462" lon="14.2297367"><ele>173.0</ele><time>2026-05-01T07:43:46.938Z</time></trkpt><trkpt lat="42.4054509" lon="14.2297605"><ele>170.16666666666666</ele><time>2026-05-01T07:43:48.934Z</time></trkpt><trkpt lat="42.4055217" lon="14.2297786"><ele>167.33333333333331</ele><time>2026-05-01T07:44:10.931Z</time></trkpt><trkpt lat="42.4056317" lon="14.229764"><ele>164.5</ele><time>2026-05-01T07:44:12.935Z</time></trkpt><trkpt lat="42.4057208" lon="14.2297493"><ele>161.66666666666666</ele><time>2026-05-01T07:44:14.94Z</time></trkpt><trkpt lat="42.4057202" lon="14.2296476"><ele>158.83333333333334</ele><time>2026-05-01T07:44:18.933Z</time></trkpt><trkpt lat="42.4056584" lon="14.2296025"><ele>156.0</ele><time>2026-05-01T07:44:20.935Z</time></trkpt><trkpt lat="42.4055771" lon="14.2295614"><ele>159.4</ele><time>2026-05-01T07:44:22.931Z</time></trkpt><trkpt lat="42.4054918" lon="14.2294728"><ele>162.8</ele><time>2026-05-01T07:44:24.932Z</time></trkpt><trkpt lat="42.4054315" lon="14.229343"><ele>166.20000000000002</ele><time>2026-05-01T07:44:26.93Z</time></trkpt><trkpt lat="42.4053751" lon="14.2291888"><ele>169.6</ele><time>2026-05-01T07:44:28.932Z</time></trkpt><trkpt lat="42.4053411" lon="14.2290912"><ele>173.0</ele><time>2026-05-01T07:44:29.936Z</time></trkpt><trkpt lat="42.4052818" lon="14.2289906"><ele>170.8</ele><time>2026-05-01T07:44:30.935Z</time></trkpt><trkpt lat="42.4052147" lon="14.2288913"><ele>168.60000000000002</ele><time>2026-05-01T07:44:31.932Z</time></trkpt><trkpt lat="42.4051543" lon="14.2287951"><ele>166.39999999999998</ele><time>2026-05-01T07:44:32.941Z</time></trkpt><trkpt lat="42.4050896" lon="14.2286963"><ele>164.2</ele><time>2026-05-01T07:44:33.934Z</time></trkpt><trkpt lat="42.40503" lon="14.2285934"><ele>162.0</ele><time>2026-05-01T07:44:34.935Z</time></trkpt><trkpt lat="42.4049752" lon="14.2284997"><ele>162.0</ele><time>2026-05-01T07:44:35.939Z</time></trkpt><trkpt lat="42.4049242" lon="14.2284203"><ele>162.0</ele><time>2026-05-01T07:44:36.935Z</time></trkpt><trkpt lat="42.404861" lon="14.2282826"><ele>162.0</ele><time>2026-05-01T07:44:38.928Z</time></trkpt><trkpt lat="42.4048371" lon="14.22812"><ele>162.0</ele><time>2026-05-01T07:44:40.933Z</time></trkpt><trkpt lat="42.4047979" lon="14.2279483"><ele>163.66666666666666</ele><time>2026-05-01T07:44:42.927Z</time></trkpt><trkpt lat="42.4047737" lon="14.2278615"><ele>165.33333333333334</ele><time>2026-05-01T07:44:43.936Z</time></trkpt><trkpt lat="42.4047428" lon="14.2277662"><ele>167.0</ele><time>2026-05-01T07:44:44.936Z</time></trkpt><trkpt lat="42.4047126" lon="14.2276665"><ele>168.66666666666669</ele><time>2026-05-01T07:44:45.934Z</time></trkpt><trkpt lat="42.4046787" lon="14.2275745"><ele>170.33333333333334</ele><time>2026-05-01T07:44:46.941Z</time></trkpt><trkpt lat="42.4046379" lon="14.2274785"><ele>172.0</ele><time>2026-05-01T07:44:47.933Z</time></trkpt><trkpt lat="42.4045859" lon="14.227387"><ele>169.5</ele><time>2026-05-01T07:44:48.933Z</time></trkpt><trkpt lat="42.4045297" lon="14.2272922"><ele>167.0</ele><time>2026-05-01T07:44:49.935Z</time></trkpt><trkpt lat="42.4044817" lon="14.2272122"><ele>164.5</ele><time>2026-05-01T07:44:50.933Z</time></trkpt><trkpt lat="42.4044375" lon="14.2271369"><ele>162.0</ele><time>2026-05-01T07:44:51.936Z</time></trkpt><trkpt lat="42.4044024" lon="14.227062"><ele>159.5</ele><time>2026-05-01T07:44:52.931Z</time></trkpt><trkpt lat="42.4043852" lon="14.2269774"><ele>157.0</ele><time>2026-05-01T07:44:53.934Z</time></trkpt><trkpt lat="42.4043685" lon="14.2268662"><ele>157.0</ele><time>2026-05-01T07:44:54.931Z</time></trkpt><trkpt lat="42.4043472" lon="14.2267729"><ele>157.0</ele><time>2026-05-01T07:44:55.933Z</time></trkpt><trkpt lat="42.4043202" lon="14.2266447"><ele>157.0</ele><time>2026-05-01T07:44:57.935Z</time></trkpt><trkpt lat="42.4042846" lon="14.2265508"><ele>157.0</ele><time>2026-05-01T07:44:59.926Z</time></trkpt><trkpt lat="42.4042282" lon="14.2264856"><ele>157.0</ele><time>2026-05-01T07:45:01.928Z</time></trkpt><trkpt lat="42.4041473" lon="14.2264211"><ele>157.0</ele><time>2026-05-01T07:45:03.942Z</time></trkpt><trkpt lat="42.4040471" lon="14.2263479"><ele>155.66666666666669</ele><time>2026-05-01T07:45:05.938Z</time></trkpt><trkpt lat="42.40395" lon="14.2262563"><ele>154.33333333333334</ele><time>2026-05-01T07:45:07.928Z</time></trkpt><trkpt lat="42.4039057" lon="14.2261923"><ele>153.0</ele><time>2026-05-01T07:45:08.931Z</time></trkpt><trkpt lat="42.4038514" lon="14.2261157"><ele>151.66666666666666</ele><time>2026-05-01T07:45:09.942Z</time></trkpt><trkpt lat="42.4037978" lon="14.2260359"><ele>150.33333333333331</ele><time>2026-05-01T07:45:10.933Z</time></trkpt><trkpt lat="42.4037501" lon="14.2259599"><ele>149.0</ele><time>2026-05-01T07:45:11.935Z</time></trkpt><trkpt lat="42.4037081" lon="14.2258742"><ele>152.66666666666666</ele><time>2026-05-01T07:45:12.933Z</time></trkpt><trkpt lat="42.4036695" lon="14.2257879"><ele>156.33333333333331</ele><time>2026-05-01T07:45:13.93Z</time></trkpt><trkpt lat="42.4036376" lon="14.2256903"><ele>160.0</ele><time>2026-05-01T07:45:14.933Z</time></trkpt><trkpt lat="42.4036056" lon="14.2255962"><ele>163.66666666666666</ele><time>2026-05-01T07:45:15.94Z</time></trkpt><trkpt lat="42.4035714" lon="14.2254874"><ele>167.33333333333334</ele><time>2026-05-01T07:45:16.931Z</time></trkpt><trkpt lat="42.4035414" lon="14.2253745"><ele>171.0</ele><time>2026-05-01T07:45:17.927Z</time></trkpt><trkpt lat="42.4035203" lon="14.2252559"><ele>171.0</ele><time>2026-05-01T07:45:18.93Z</time></trkpt><trkpt lat="42.403507" lon="14.2251418"><ele>171.0</ele><time>2026-05-01T07:45:19.929Z</time></trkpt><trkpt lat="42.4034975" lon="14.2250345"><ele>171.0</ele><time>2026-05-01T07:45:20.93Z</time></trkpt><trkpt lat="42.4034887" lon="14.2249211"><ele>171.0</ele><time>2026-05-01T07:45:21.942Z</time></trkpt><trkpt lat="42.4034652" lon="14.2248033"><ele>171.0</ele><time>2026-05-01T07:45:22.932Z</time></trkpt><trkpt lat="42.4034288" lon="14.2247059"><ele>171.0</ele><time>2026-05-01T07:45:23.938Z</time></trkpt><trkpt lat="42.403386" lon="14.2246355"><ele>169.33333333333334</ele><time>2026-05-01T07:45:24.93Z</time></trkpt><trkpt lat="42.4033044" lon="14.2244941"><ele>167.66666666666666</ele><time>2026-05-01T07:45:26.941Z</time></trkpt><trkpt lat="42.4032727" lon="14.2244136"><ele>166.0</ele><time>2026-05-01T07:45:27.935Z</time></trkpt><trkpt lat="42.4032439" lon="14.2243318"><ele>164.33333333333331</ele><time>2026-05-01T07:45:28.945Z</time></trkpt><trkpt lat="42.4032044" lon="14.2242461"><ele>162.66666666666666</ele><time>2026-05-01T07:45:29.954Z</time></trkpt><trkpt lat="42.4031553" lon="14.2241593"><ele>161.0</ele><time>2026-05-01T07:45:30.934Z</time></trkpt><trkpt lat="42.4031048" lon="14.2240789"><ele>162.20000000000002</ele><time>2026-05-01T07:45:31.933Z</time></trkpt><trkpt lat="42.4030099" lon="14.2239738"><ele>163.4</ele><time>2026-05-01T07:45:33.93Z</time></trkpt><trkpt lat="42.4028959" lon="14.2239158"><ele>164.6</ele><time>2026-05-01T07:45:35.934Z</time></trkpt><trkpt lat="42.4028309" lon="14.2239063"><ele>165.8</ele><time>2026-05-01T07:45:36.934Z</time></trkpt><trkpt lat="42.4027065" lon="14.2238907"><ele>167.0</ele><time>2026-05-01T07:45:38.932Z</time></trkpt><trkpt lat="42.4026466" lon="14.2238512"><ele>167.0</ele><time>2026-05-01T07:45:39.94Z</time></trkpt><trkpt lat="42.4025912" lon="14.2237829"><ele>167.0</ele><time>2026-05-01T07:45:40.934Z</time></trkpt><trkpt lat="42.4025296" lon="14.2237066"><ele>167.0</ele><time>2026-05-01T07:45:41.938Z</time></trkpt><trkpt lat="42.4024597" lon="14.2236314"><ele>167.0</ele><time>2026-05-01T07:45:42.937Z</time></trkpt><trkpt lat="42.4023838" lon="14.2235571"><ele>167.0</ele><time>2026-05-01T07:45:43.932Z</time></trkpt><trkpt lat="42.402313" lon="14.2234802"><ele>167.0</ele><time>2026-05-01T07:45:44.935Z</time></trkpt><trkpt lat="42.4022528" lon="14.2234201"><ele>169.8</ele><time>2026-05-01T07:45:45.94Z</time></trkpt><trkpt lat="42.4021542" lon="14.2233952"><ele>172.6</ele><time>2026-05-01T07:45:47.934Z</time></trkpt><trkpt lat="42.4020307" lon="14.2234697"><ele>175.4</ele><time>2026-05-01T07:45:49.928Z</time></trkpt><trkpt lat="42.4019574" lon="14.2235158"><ele>178.20000000000002</ele><time>2026-05-01T07:45:50.93Z</time></trkpt><trkpt lat="42.4018898" lon="14.2235585"><ele>181.0</ele><time>2026-05-01T07:45:51.931Z</time></trkpt><trkpt lat="42.4018228" lon="14.2235945"><ele>181.0</ele><time>2026-05-01T07:45:52.936Z</time></trkpt><trkpt lat="42.4017603" lon="14.2236331"><ele>181.0</ele><time>2026-05-01T07:45:53.935Z</time></trkpt><trkpt lat="42.4016939" lon="14.223678"><ele>181.0</ele><time>2026-05-01T07:45:54.939Z</time></trkpt><trkpt lat="42.4016263" lon="14.2237152"><ele>181.0</ele><time>2026-05-01T07:45:55.942Z</time></trkpt><trkpt lat="42.4015583" lon="14.2237567"><ele>181.0</ele><time>2026-05-01T07:45:56.932Z</time></trkpt><trkpt lat="42.4014843" lon="14.2238008"><ele>181.0</ele><time>2026-05-01T07:45:57.937Z</time></trkpt><trkpt lat="42.4014047" lon="14.2238422"><ele>181.0</ele><time>2026-05-01T07:45:58.93Z</time></trkpt><trkpt lat="42.4013374" lon="14.2238921"><ele>181.0</ele><time>2026-05-01T07:45:59.933Z</time></trkpt><trkpt lat="42.401269" lon="14.2239407"><ele>181.0</ele><time>2026-05-01T07:46:00.938Z</time></trkpt><trkpt lat="42.401196" lon="14.2239958"><ele>181.0</ele><time>2026-05-01T07:46:01.94Z</time></trkpt><trkpt lat="42.4011194" lon="14.2240444"><ele>181.0</ele><time>2026-05-01T07:46:02.94Z</time></trkpt><trkpt lat="42.4010501" lon="14.2240961"><ele>181.0</ele><time>2026-05-01T07:46:03.94Z</time></trkpt><trkpt lat="42.4009771" lon="14.2241589"><ele>182.83333333333334</ele><time>2026-05-01T07:46:04.937Z</time></trkpt><trkpt lat="42.4009046" lon="14.2242135"><ele>184.66666666666669</ele><time>2026-05-01T07:46:05.934Z</time></trkpt><trkpt lat="42.4008388" lon="14.2242634"><ele>186.5</ele><time>2026-05-01T07:46:06.945Z</time></trkpt><trkpt lat="42.4007775" lon="14.2243053"><ele>188.33333333333334</ele><time>2026-05-01T07:46:07.935Z</time></trkpt><trkpt lat="42.400694" lon="14.2243861"><ele>190.16666666666666</ele><time>2026-05-01T07:46:09.936Z</time></trkpt><trkpt lat="42.4006184" lon="14.2244373"><ele>192.0</ele><time>2026-05-01T07:46:11.935Z</time></trkpt><trkpt lat="42.40056" lon="14.2243752"><ele>192.0</ele><time>2026-05-01T07:46:13.934Z</time></trkpt><trkpt lat="42.400536" lon="14.2242947"><ele>192.0</ele><time>2026-05-01T07:46:14.937Z</time></trkpt><trkpt lat="42.4004795" lon="14.224205"><ele>192.0</ele><time>2026-05-01T07:46:15.939Z</time></trkpt><trkpt lat="42.40043" lon="14.2240838"><ele>192.0</ele><time>2026-05-01T07:46:16.941Z</time></trkpt><trkpt lat="42.4003714" lon="14.2239616"><ele>192.0</ele><time>2026-05-01T07:46:17.932Z</time></trkpt><trkpt lat="42.4002996" lon="14.2238368"><ele>192.5</ele><time>2026-05-01T07:46:18.937Z</time></trkpt><trkpt lat="42.4002221" lon="14.2237106"><ele>193.0</ele><time>2026-05-01T07:46:19.938Z</time></trkpt><trkpt lat="42.4001301" lon="14.2235847"><ele>193.5</ele><time>2026-05-01T07:46:20.939Z</time></trkpt><trkpt lat="42.400028" lon="14.2234552"><ele>194.0</ele><time>2026-05-01T07:46:21.938Z</time></trkpt><trkpt lat="42.3999211" lon="14.2233299"><ele>194.0</ele><time>2026-05-01T07:46:22.932Z</time></trkpt><trkpt lat="42.3998174" lon="14.2232004"><ele>194.0</ele><time>2026-05-01T07:46:23.936Z</time></trkpt><trkpt lat="42.3997093" lon="14.2230716"><ele>194.0</ele><time>2026-05-01T07:46:24.935Z</time></trkpt><trkpt lat="42.3995967" lon="14.2229402"><ele>194.0</ele><time>2026-05-01T07:46:25.936Z</time></trkpt><trkpt lat="42.3994806" lon="14.2228098"><ele>194.0</ele><time>2026-05-01T07:46:26.946Z</time></trkpt><trkpt lat="42.3993666" lon="14.2226804"><ele>194.0</ele><time>2026-05-01T07:46:27.943Z</time></trkpt><trkpt lat="42.3992575" lon="14.2225504"><ele>194.0</ele><time>2026-05-01T07:46:28.931Z</time></trkpt><trkpt lat="42.399147" lon="14.2224203"><ele>194.0</ele><time>2026-05-01T07:46:29.942Z</time></trkpt><trkpt lat="42.3990334" lon="14.2222957"><ele>194.25</ele><time>2026-05-01T07:46:30.928Z</time></trkpt><trkpt lat="42.398926" lon="14.2221742"><ele>194.5</ele><time>2026-05-01T07:46:31.931Z</time></trkpt><trkpt lat="42.3988245" lon="14.2220491"><ele>194.75</ele><time>2026-05-01T07:46:32.934Z</time></trkpt><trkpt lat="42.3987274" lon="14.2219163"><ele>195.0</ele><time>2026-05-01T07:46:33.933Z</time></trkpt><trkpt lat="42.3986403" lon="14.2217834"><ele>195.0</ele><time>2026-05-01T07:46:34.938Z</time></trkpt><trkpt lat="42.3985579" lon="14.2216395"><ele>195.0</ele><time>2026-05-01T07:46:35.941Z</time></trkpt><trkpt lat="42.3984843" lon="14.221493"><ele>195.0</ele><time>2026-05-01T07:46:36.939Z</time></trkpt><trkpt lat="42.3984197" lon="14.2213583"><ele>195.0</ele><time>2026-05-01T07:46:37.939Z</time></trkpt><trkpt lat="42.3983585" lon="14.2212348"><ele>195.66666666666666</ele><time>2026-05-01T07:46:38.933Z</time></trkpt><trkpt lat="42.3983051" lon="14.2211188"><ele>196.33333333333331</ele><time>2026-05-01T07:46:39.945Z</time></trkpt><trkpt lat="42.3982595" lon="14.2210165"><ele>197.0</ele><time>2026-05-01T07:46:40.932Z</time></trkpt><trkpt lat="42.3982209" lon="14.2209292"><ele>197.66666666666666</ele><time>2026-05-01T07:46:41.936Z</time></trkpt><trkpt lat="42.3981772" lon="14.2208453"><ele>198.33333333333331</ele><time>2026-05-01T07:46:42.936Z</time></trkpt><trkpt lat="42.3980893" lon="14.2208006"><ele>199.0</ele><time>2026-05-01T07:46:44.94Z</time></trkpt><trkpt lat="42.3980312" lon="14.2208443"><ele>199.0</ele><time>2026-05-01T07:46:45.934Z</time></trkpt><trkpt lat="42.3979908" lon="14.220939"><ele>199.0</ele><time>2026-05-01T07:46:46.941Z</time></trkpt><trkpt lat="42.3979325" lon="14.2210308"><ele>199.0</ele><time>2026-05-01T07:46:47.939Z</time></trkpt><trkpt lat="42.3978539" lon="14.2211202"><ele>199.0</ele><time>2026-05-01T07:46:48.939Z</time></trkpt><trkpt lat="42.397764" lon="14.2212225"><ele>199.0</ele><time>2026-05-01T07:46:49.936Z</time></trkpt><trkpt lat="42.3976689" lon="14.2213242"><ele>199.0</ele><time>2026-05-01T07:46:50.933Z</time></trkpt><trkpt lat="42.3975703" lon="14.2214228"><ele>199.0</ele><time>2026-05-01T07:46:51.937Z</time></trkpt><trkpt lat="42.3974794" lon="14.2215124"><ele>199.0</ele><time>2026-05-01T07:46:52.935Z</time></trkpt><trkpt lat="42.3973895" lon="14.2215968"><ele>199.0</ele><time>2026-05-01T07:46:53.95Z</time></trkpt><trkpt lat="42.3973054" lon="14.2216684"><ele>199.0</ele><time>2026-05-01T07:46:54.938Z</time></trkpt><trkpt lat="42.3972296" lon="14.2217436"><ele>198.33333333333331</ele><time>2026-05-01T07:46:55.937Z</time></trkpt><trkpt lat="42.3971656" lon="14.2218261"><ele>197.66666666666666</ele><time>2026-05-01T07:46:56.941Z</time></trkpt><trkpt lat="42.3971284" lon="14.221908"><ele>197.0</ele><time>2026-05-01T07:46:57.936Z</time></trkpt><trkpt lat="42.3971175" lon="14.2219998"><ele>196.33333333333331</ele><time>2026-05-01T07:46:58.94Z</time></trkpt><trkpt lat="42.3971268" lon="14.2220934"><ele>195.66666666666666</ele><time>2026-05-01T07:46:59.929Z</time></trkpt><trkpt lat="42.3971651" lon="14.2221969"><ele>195.0</ele><time>2026-05-01T07:47:00.931Z</time></trkpt><trkpt lat="42.3972101" lon="14.2223132"><ele>194.6</ele><time>2026-05-01T07:47:01.935Z</time></trkpt><trkpt lat="42.3972727" lon="14.2224286"><ele>194.2</ele><time>2026-05-01T07:47:02.94Z</time></trkpt><trkpt lat="42.3973343" lon="14.2225544"><ele>193.8</ele><time>2026-05-01T07:47:03.94Z</time></trkpt><trkpt lat="42.3973913" lon="14.2226832"><ele>193.4</ele><time>2026-05-01T07:47:04.937Z</time></trkpt><trkpt lat="42.3974462" lon="14.2227975"><ele>193.0</ele><time>2026-05-01T07:47:05.934Z</time></trkpt><trkpt lat="42.3975046" lon="14.222917"><ele>193.0</ele><time>2026-05-01T07:47:06.937Z</time></trkpt><trkpt lat="42.3975635" lon="14.2230377"><ele>193.0</ele><time>2026-05-01T07:47:07.943Z</time></trkpt><trkpt lat="42.3976203" lon="14.2231534"><ele>193.0</ele><time>2026-05-01T07:47:08.943Z</time></trkpt><trkpt lat="42.3976675" lon="14.2232612"><ele>193.0</ele><time>2026-05-01T07:47:09.934Z</time></trkpt><trkpt lat="42.3977021" lon="14.2233659"><ele>193.0</ele><time>2026-05-01T07:47:10.938Z</time></trkpt><trkpt lat="42.3977212" lon="14.2234526"><ele>192.49999999999997</ele><time>2026-05-01T07:47:11.938Z</time></trkpt><trkpt lat="42.3977068" lon="14.2236227"><ele>192.0</ele><time>2026-05-01T07:47:13.937Z</time></trkpt><trkpt lat="42.3976888" lon="14.2237353"><ele>191.5</ele><time>2026-05-01T07:47:14.931Z</time></trkpt><trkpt lat="42.3976717" lon="14.2238312"><ele>191.0</ele><time>2026-05-01T07:47:15.946Z</time></trkpt><trkpt lat="42.3976585" lon="14.2239231"><ele>190.5</ele><time>2026-05-01T07:47:16.933Z</time></trkpt><trkpt lat="42.3976414" lon="14.224022"><ele>190.0</ele><time>2026-05-01T07:47:17.943Z</time></trkpt><trkpt lat="42.3976265" lon="14.2241177"><ele>188.83333333333334</ele><time>2026-05-01T07:47:18.936Z</time></trkpt><trkpt lat="42.3976178" lon="14.2242121"><ele>187.66666666666669</ele><time>2026-05-01T07:47:19.959Z</time></trkpt><trkpt lat="42.397612" lon="14.2243081"><ele>186.5</ele><time>2026-05-01T07:47:20.935Z</time></trkpt><trkpt lat="42.3975992" lon="14.2244133"><ele>185.33333333333334</ele><time>2026-05-01T07:47:21.935Z</time></trkpt><trkpt lat="42.3975777" lon="14.2245239"><ele>184.16666666666666</ele><time>2026-05-01T07:47:22.93Z</time></trkpt><trkpt lat="42.3975483" lon="14.2246262"><ele>183.0</ele><time>2026-05-01T07:47:23.945Z</time></trkpt><trkpt lat="42.3975252" lon="14.2247378"><ele>181.66666666666666</ele><time>2026-05-01T07:47:24.934Z</time></trkpt><trkpt lat="42.3975125" lon="14.2248467"><ele>180.33333333333334</ele><time>2026-05-01T07:47:25.934Z</time></trkpt><trkpt lat="42.397507" lon="14.2249539"><ele>179.0</ele><time>2026-05-01T07:47:26.937Z</time></trkpt><trkpt lat="42.397514" lon="14.2250694"><ele>177.66666666666669</ele><time>2026-05-01T07:47:27.938Z</time></trkpt><trkpt lat="42.3975268" lon="14.2251851"><ele>176.33333333333334</ele><time>2026-05-01T07:47:28.935Z</time></trkpt><trkpt lat="42.3975377" lon="14.2253137"><ele>175.0</ele><time>2026-05-01T07:47:29.936Z</time></trkpt><trkpt lat="42.3975548" lon="14.2254294"><ele>175.0</ele><time>2026-05-01T07:47:30.932Z</time></trkpt><trkpt lat="42.3975741" lon="14.2255394"><ele>175.0</ele><time>2026-05-01T07:47:31.936Z</time></trkpt><trkpt lat="42.3975847" lon="14.2256474"><ele>175.0</ele><time>2026-05-01T07:47:32.935Z</time></trkpt><trkpt lat="42.3975898" lon="14.2257467"><ele>175.0</ele><time>2026-05-01T07:47:33.947Z</time></trkpt><trkpt lat="42.3975738" lon="14.2258877"><ele>175.0</ele><time>2026-05-01T07:47:35.942Z</time></trkpt><trkpt lat="42.3975133" lon="14.225944"><ele>175.0</ele><time>2026-05-01T07:47:37.932Z</time></trkpt><trkpt lat="42.3974328" lon="14.2259206"><ele>175.0</ele><time>2026-05-01T07:47:39.936Z</time></trkpt><trkpt lat="42.3973692" lon="14.2258025"><ele>175.0</ele><time>2026-05-01T07:47:41.972Z</time></trkpt><trkpt lat="42.3973139" lon="14.2256943"><ele>175.0</ele><time>2026-05-01T07:47:43.938Z</time></trkpt><trkpt lat="42.397246" lon="14.2255795"><ele>175.0</ele><time>2026-05-01T07:47:45.94Z</time></trkpt><trkpt lat="42.3971714" lon="14.2254745"><ele>175.0</ele><time>2026-05-01T07:47:47.932Z</time></trkpt><trkpt lat="42.3970851" lon="14.225398"><ele>172.16666666666669</ele><time>2026-05-01T07:47:49.946Z</time></trkpt><trkpt lat="42.3969952" lon="14.2253534"><ele>169.33333333333334</ele><time>2026-05-01T07:47:51.936Z</time></trkpt><trkpt lat="42.396929" lon="14.2253333"><ele>166.5</ele><time>2026-05-01T07:47:53.938Z</time></trkpt><trkpt lat="42.3968484" lon="14.2253158"><ele>163.66666666666666</ele><time>2026-05-01T07:47:56.956Z</time></trkpt><trkpt lat="42.396752" lon="14.2252969"><ele>160.83333333333331</ele><time>2026-05-01T07:47:59.941Z</time></trkpt><trkpt lat="42.3966846" lon="14.2253025"><ele>158.0</ele><time>2026-05-01T07:48:01.943Z</time></trkpt><trkpt lat="42.3966119" lon="14.2253068"><ele>158.0</ele><time>2026-05-01T07:48:03.958Z</time></trkpt><trkpt lat="42.3965288" lon="14.2253076"><ele>158.0</ele><time>2026-05-01T07:48:06.943Z</time></trkpt><trkpt lat="42.3964591" lon="14.2252865"><ele>158.0</ele><time>2026-05-01T07:48:08.941Z</time></trkpt><trkpt lat="42.3963794" lon="14.2252423"><ele>158.0</ele><time>2026-05-01T07:48:10.966Z</time></trkpt><trkpt lat="42.3962881" lon="14.2251955"><ele>158.0</ele><time>2026-05-01T07:48:12.931Z</time></trkpt><trkpt lat="42.3961957" lon="14.2251575"><ele>158.0</ele><time>2026-05-01T07:48:14.93Z</time></trkpt><trkpt lat="42.3961182" lon="14.2251239"><ele>153.0</ele><time>2026-05-01T07:48:16.943Z</time></trkpt><trkpt lat="42.3960161" lon="14.2250889"><ele>148.0</ele><time>2026-05-01T07:48:18.929Z</time></trkpt><trkpt lat="42.395924" lon="14.2250502"><ele>143.0</ele><time>2026-05-01T07:48:20.938Z</time></trkpt><trkpt lat="42.3958291" lon="14.225027"><ele>138.0</ele><time>2026-05-01T07:48:22.942Z</time></trkpt><trkpt lat="42.3957321" lon="14.2249864"><ele>133.0</ele><time>2026-05-01T07:48:24.932Z</time></trkpt><trkpt lat="42.3956297" lon="14.2249316"><ele>133.0</ele><time>2026-05-01T07:48:26.938Z</time></trkpt><trkpt lat="42.3955363" lon="14.2248797"><ele>133.0</ele><time>2026-05-01T07:48:28.947Z</time></trkpt><trkpt lat="42.3954485" lon="14.2248279"><ele>133.0</ele><time>2026-05-01T07:48:30.928Z</time></trkpt><trkpt lat="42.3953567" lon="14.2247812"><ele>133.0</ele><time>2026-05-01T07:48:32.938Z</time></trkpt><trkpt lat="42.3952694" lon="14.2247529"><ele>133.0</ele><time>2026-05-01T07:48:34.926Z</time></trkpt><trkpt lat="42.3951807" lon="14.2247247"><ele>130.0</ele><time>2026-05-01T07:48:36.938Z</time></trkpt><trkpt lat="42.3950888" lon="14.2247213"><ele>127.00000000000001</ele><time>2026-05-01T07:48:38.94Z</time></trkpt><trkpt lat="42.3949943" lon="14.2247099"><ele>124.00000000000001</ele><time>2026-05-01T07:48:40.941Z</time></trkpt><trkpt lat="42.3948861" lon="14.2246825"><ele>121.0</ele><time>2026-05-01T07:48:42.939Z</time></trkpt><trkpt lat="42.3947817" lon="14.2246845"><ele>118.0</ele><time>2026-05-01T07:48:44.93Z</time></trkpt><trkpt lat="42.3947103" lon="14.2246724"><ele>114.60000000000001</ele><time>2026-05-01T07:48:46.946Z</time></trkpt><trkpt lat="42.3946312" lon="14.2246453"><ele>111.20000000000002</ele><time>2026-05-01T07:48:49.959Z</time></trkpt><trkpt lat="42.3945625" lon="14.2246033"><ele>107.8</ele><time>2026-05-01T07:48:51.937Z</time></trkpt><trkpt lat="42.3944801" lon="14.2245365"><ele>104.4</ele><time>2026-05-01T07:48:54.939Z</time></trkpt><trkpt lat="42.3944091" lon="14.2244417"><ele>101.0</ele><time>2026-05-01T07:48:56.936Z</time></trkpt><trkpt lat="42.3943324" lon="14.2243417"><ele>101.0</ele><time>2026-05-01T07:48:58.936Z</time></trkpt><trkpt lat="42.3942719" lon="14.224244"><ele>101.0</ele><time>2026-05-01T07:49:00.943Z</time></trkpt><trkpt lat="42.394222" lon="14.2241546"><ele>101.0</ele><time>2026-05-01T07:49:02.939Z</time></trkpt><trkpt lat="42.3941459" lon="14.2240446"><ele>101.0</ele><time>2026-05-01T07:49:04.936Z</time></trkpt><trkpt lat="42.3940631" lon="14.2239445"><ele>101.0</ele><time>2026-05-01T07:49:06.93Z</time></trkpt><trkpt lat="42.393989" lon="14.2238571"><ele>101.33333333333333</ele><time>2026-05-01T07:49:08.926Z</time></trkpt><trkpt lat="42.3939165" lon="14.2238619"><ele>101.66666666666666</ele><time>2026-05-01T07:49:11.942Z</time></trkpt><trkpt lat="42.3938548" lon="14.2239163"><ele>102.0</ele><time>2026-05-01T07:49:13.932Z</time></trkpt><trkpt lat="42.3937856" lon="14.2239343"><ele>102.33333333333334</ele><time>2026-05-01T07:49:15.931Z</time></trkpt><trkpt lat="42.3936772" lon="14.2239395"><ele>102.66666666666667</ele><time>2026-05-01T07:49:17.932Z</time></trkpt><trkpt lat="42.3935662" lon="14.223935"><ele>103.0</ele><time>2026-05-01T07:49:19.932Z</time></trkpt><trkpt lat="42.3935742" lon="14.224028"><ele>103.80000000000001</ele><time>2026-05-01T07:49:23.944Z</time></trkpt><trkpt lat="42.3936386" lon="14.224159"><ele>104.6</ele><time>2026-05-01T07:49:25.938Z</time></trkpt><trkpt lat="42.3936638" lon="14.2242509"><ele>105.39999999999999</ele><time>2026-05-01T07:49:26.933Z</time></trkpt><trkpt lat="42.3936945" lon="14.2243482"><ele>106.19999999999999</ele><time>2026-05-01T07:49:27.927Z</time></trkpt><trkpt lat="42.3937153" lon="14.224468"><ele>107.0</ele><time>2026-05-01T07:49:28.931Z</time></trkpt><trkpt lat="42.3937338" lon="14.2246016"><ele>107.0</ele><time>2026-05-01T07:49:29.934Z</time></trkpt><trkpt lat="42.3937591" lon="14.2247436"><ele>106.99999999999999</ele><time>2026-05-01T07:49:30.941Z</time></trkpt><trkpt lat="42.3937967" lon="14.224895"><ele>106.99999999999999</ele><time>2026-05-01T07:49:31.94Z</time></trkpt><trkpt lat="42.3938314" lon="14.2250425"><ele>107.0</ele><time>2026-05-01T07:49:32.939Z</time></trkpt><trkpt lat="42.3938684" lon="14.225181"><ele>107.0</ele><time>2026-05-01T07:49:33.941Z</time></trkpt><trkpt lat="42.3939175" lon="14.2253309"><ele>104.5</ele><time>2026-05-01T07:49:34.942Z</time></trkpt><trkpt lat="42.3939643" lon="14.2254762"><ele>102.0</ele><time>2026-05-01T07:49:35.944Z</time></trkpt><trkpt lat="42.3940099" lon="14.2256237"><ele>99.5</ele><time>2026-05-01T07:49:36.934Z</time></trkpt><trkpt lat="42.3940503" lon="14.2257607"><ele>97.0</ele><time>2026-05-01T07:49:37.926Z</time></trkpt><trkpt lat="42.394094" lon="14.2258943"><ele>96.6</ele><time>2026-05-01T07:49:38.932Z</time></trkpt><trkpt lat="42.3941364" lon="14.2260226"><ele>96.19999999999999</ele><time>2026-05-01T07:49:39.929Z</time></trkpt><trkpt lat="42.3941746" lon="14.2261414"><ele>95.8</ele><time>2026-05-01T07:49:40.932Z</time></trkpt><trkpt lat="42.3942143" lon="14.2262488"><ele>95.4</ele><time>2026-05-01T07:49:41.936Z</time></trkpt><trkpt lat="42.3942482" lon="14.2263565"><ele>95.0</ele><time>2026-05-01T07:49:42.932Z</time></trkpt><trkpt lat="42.3942805" lon="14.2264646"><ele>95.33333333333334</ele><time>2026-05-01T07:49:43.947Z</time></trkpt><trkpt lat="42.3943217" lon="14.2265731"><ele>95.66666666666667</ele><time>2026-05-01T07:49:44.931Z</time></trkpt><trkpt lat="42.3943538" lon="14.2266785"><ele>96.0</ele><time>2026-05-01T07:49:45.929Z</time></trkpt><trkpt lat="42.3943932" lon="14.2267787"><ele>96.33333333333334</ele><time>2026-05-01T07:49:46.927Z</time></trkpt><trkpt lat="42.3944274" lon="14.2268801"><ele>96.66666666666667</ele><time>2026-05-01T07:49:47.932Z</time></trkpt><trkpt lat="42.3944621" lon="14.2269855"><ele>97.0</ele><time>2026-05-01T07:49:48.93Z</time></trkpt><trkpt lat="42.3944917" lon="14.2270918"><ele>97.00000000000001</ele><time>2026-05-01T07:49:49.94Z</time></trkpt><trkpt lat="42.3945189" lon="14.2271958"><ele>97.0</ele><time>2026-05-01T07:49:50.933Z</time></trkpt><trkpt lat="42.3945478" lon="14.2273011"><ele>97.0</ele><time>2026-05-01T07:49:51.936Z</time></trkpt><trkpt lat="42.3945789" lon="14.2274015"><ele>97.0</ele><time>2026-05-01T07:49:52.932Z</time></trkpt><trkpt lat="42.3946128" lon="14.2275021"><ele>97.00000000000001</ele><time>2026-05-01T07:49:53.931Z</time></trkpt><trkpt lat="42.3946472" lon="14.2276098"><ele>97.0</ele><time>2026-05-01T07:49:54.934Z</time></trkpt><trkpt lat="42.3946799" lon="14.2277194"><ele>96.0</ele><time>2026-05-01T07:49:55.936Z</time></trkpt><trkpt lat="42.3947158" lon="14.2278282"><ele>95.0</ele><time>2026-05-01T07:49:56.941Z</time></trkpt><trkpt lat="42.3947476" lon="14.2279418"><ele>94.0</ele><time>2026-05-01T07:49:57.937Z</time></trkpt><trkpt lat="42.3947795" lon="14.2280526"><ele>93.0</ele><time>2026-05-01T07:49:58.934Z</time></trkpt><trkpt lat="42.3948168" lon="14.2281617"><ele>92.0</ele><time>2026-05-01T07:49:59.929Z</time></trkpt><trkpt lat="42.3948567" lon="14.2282867"><ele>91.66666666666667</ele><time>2026-05-01T07:50:00.94Z</time></trkpt><trkpt lat="42.3948926" lon="14.2284019"><ele>91.33333333333334</ele><time>2026-05-01T07:50:01.926Z</time></trkpt><trkpt lat="42.3949351" lon="14.2285146"><ele>91.0</ele><time>2026-05-01T07:50:02.932Z</time></trkpt><trkpt lat="42.3949845" lon="14.2286176"><ele>90.66666666666667</ele><time>2026-05-01T07:50:03.936Z</time></trkpt><trkpt lat="42.3950265" lon="14.2287075"><ele>90.33333333333333</ele><time>2026-05-01T07:50:04.935Z</time></trkpt><trkpt lat="42.3950656" lon="14.2287964"><ele>90.0</ele><time>2026-05-01T07:50:05.949Z</time></trkpt><trkpt lat="42.395104" lon="14.2288862"><ele>90.8</ele><time>2026-05-01T07:50:06.932Z</time></trkpt><trkpt lat="42.395139" lon="14.228985"><ele>91.6</ele><time>2026-05-01T07:50:07.929Z</time></trkpt><trkpt lat="42.3951777" lon="14.2290992"><ele>92.4</ele><time>2026-05-01T07:50:08.932Z</time></trkpt><trkpt lat="42.3952222" lon="14.229217"><ele>93.2</ele><time>2026-05-01T07:50:09.934Z</time></trkpt><trkpt lat="42.395268" lon="14.2293405"><ele>94.0</ele><time>2026-05-01T07:50:10.937Z</time></trkpt><trkpt lat="42.3953128" lon="14.2294573"><ele>94.0</ele><time>2026-05-01T07:50:11.931Z</time></trkpt><trkpt lat="42.3953541" lon="14.2295785"><ele>94.0</ele><time>2026-05-01T07:50:12.944Z</time></trkpt><trkpt lat="42.3953901" lon="14.2297001"><ele>94.0</ele><time>2026-05-01T07:50:13.937Z</time></trkpt><trkpt lat="42.3954207" lon="14.2298171"><ele>94.0</ele><time>2026-05-01T07:50:14.928Z</time></trkpt><trkpt lat="42.3954471" lon="14.2299146"><ele>94.0</ele><time>2026-05-01T07:50:15.929Z</time></trkpt><trkpt lat="42.3954787" lon="14.2300138"><ele>94.0</ele><time>2026-05-01T07:50:16.932Z</time></trkpt><trkpt lat="42.3955182" lon="14.2301185"><ele>92.16666666666666</ele><time>2026-05-01T07:50:17.929Z</time></trkpt><trkpt lat="42.3955522" lon="14.2302182"><ele>90.33333333333333</ele><time>2026-05-01T07:50:18.936Z</time></trkpt><trkpt lat="42.3955867" lon="14.2303243"><ele>88.5</ele><time>2026-05-01T07:50:19.933Z</time></trkpt><trkpt lat="42.3956265" lon="14.2304339"><ele>86.66666666666667</ele><time>2026-05-01T07:50:20.934Z</time></trkpt><trkpt lat="42.3956665" lon="14.2305406"><ele>84.83333333333334</ele><time>2026-05-01T07:50:21.928Z</time></trkpt><trkpt lat="42.3957044" lon="14.2306468"><ele>83.0</ele><time>2026-05-01T07:50:22.936Z</time></trkpt><trkpt lat="42.3957401" lon="14.2307584"><ele>82.60000000000001</ele><time>2026-05-01T07:50:23.936Z</time></trkpt><trkpt lat="42.3957783" lon="14.2308789"><ele>82.2</ele><time>2026-05-01T07:50:24.936Z</time></trkpt><trkpt lat="42.3958158" lon="14.2310024"><ele>81.8</ele><time>2026-05-01T07:50:25.932Z</time></trkpt><trkpt lat="42.3958542" lon="14.2311275"><ele>81.4</ele><time>2026-05-01T07:50:26.937Z</time></trkpt><trkpt lat="42.3958951" lon="14.231252"><ele>81.0</ele><time>2026-05-01T07:50:27.931Z</time></trkpt><trkpt lat="42.3959376" lon="14.2313759"><ele>81.19999999999999</ele><time>2026-05-01T07:50:28.935Z</time></trkpt><trkpt lat="42.3959831" lon="14.2314977"><ele>81.39999999999999</ele><time>2026-05-01T07:50:29.934Z</time></trkpt><trkpt lat="42.3960229" lon="14.2316245"><ele>81.6</ele><time>2026-05-01T07:50:30.93Z</time></trkpt><trkpt lat="42.39606" lon="14.231753"><ele>81.8</ele><time>2026-05-01T07:50:31.935Z</time></trkpt><trkpt lat="42.3960981" lon="14.2318824"><ele>82.0</ele><time>2026-05-01T07:50:32.937Z</time></trkpt><trkpt lat="42.3961385" lon="14.2320135"><ele>82.0</ele><time>2026-05-01T07:50:33.935Z</time></trkpt><trkpt lat="42.3961781" lon="14.2321454"><ele>82.0</ele><time>2026-05-01T07:50:34.934Z</time></trkpt><trkpt lat="42.3962096" lon="14.2322709"><ele>82.0</ele><time>2026-05-01T07:50:35.939Z</time></trkpt><trkpt lat="42.3962332" lon="14.2323891"><ele>82.0</ele><time>2026-05-01T07:50:36.94Z</time></trkpt><trkpt lat="42.3962464" lon="14.2325239"><ele>82.0</ele><time>2026-05-01T07:50:37.929Z</time></trkpt><trkpt lat="42.3962495" lon="14.2326687"><ele>82.19999999999999</ele><time>2026-05-01T07:50:38.94Z</time></trkpt><trkpt lat="42.3962434" lon="14.2328182"><ele>82.4</ele><time>2026-05-01T07:50:39.933Z</time></trkpt><trkpt lat="42.3962313" lon="14.2329767"><ele>82.6</ele><time>2026-05-01T07:50:40.971Z</time></trkpt><trkpt lat="42.3962216" lon="14.2331283"><ele>82.80000000000001</ele><time>2026-05-01T07:50:41.936Z</time></trkpt><trkpt lat="42.3962094" lon="14.2332701"><ele>83.0</ele><time>2026-05-01T07:50:42.944Z</time></trkpt><trkpt lat="42.3961984" lon="14.2334016"><ele>82.4</ele><time>2026-05-01T07:50:43.93Z</time></trkpt><trkpt lat="42.3961887" lon="14.2335328"><ele>81.80000000000001</ele><time>2026-05-01T07:50:44.933Z</time></trkpt><trkpt lat="42.3961779" lon="14.233662"><ele>81.2</ele><time>2026-05-01T07:50:45.937Z</time></trkpt><trkpt lat="42.3961675" lon="14.233792"><ele>80.6</ele><time>2026-05-01T07:50:46.933Z</time></trkpt><trkpt lat="42.3961519" lon="14.2339281"><ele>80.0</ele><time>2026-05-01T07:50:47.952Z</time></trkpt><trkpt lat="42.3961423" lon="14.2340623"><ele>80.0</ele><time>2026-05-01T07:50:48.941Z</time></trkpt><trkpt lat="42.3961354" lon="14.2341915"><ele>80.0</ele><time>2026-05-01T07:50:49.937Z</time></trkpt><trkpt lat="42.3961323" lon="14.2343151"><ele>80.0</ele><time>2026-05-01T07:50:50.934Z</time></trkpt><trkpt lat="42.3961404" lon="14.234442"><ele>80.0</ele><time>2026-05-01T07:50:51.933Z</time></trkpt><trkpt lat="42.3961663" lon="14.2345509"><ele>80.0</ele><time>2026-05-01T07:50:52.927Z</time></trkpt><trkpt lat="42.3961996" lon="14.234651"><ele>80.0</ele><time>2026-05-01T07:50:53.937Z</time></trkpt><trkpt lat="42.3962323" lon="14.2347266"><ele>79.66666666666667</ele><time>2026-05-01T07:50:54.931Z</time></trkpt><trkpt lat="42.3962188" lon="14.234815"><ele>79.33333333333334</ele><time>2026-05-01T07:50:59.937Z</time></trkpt><trkpt lat="42.396147" lon="14.2348249"><ele>79.0</ele><time>2026-05-01T07:51:01.947Z</time></trkpt><trkpt lat="42.3960337" lon="14.2348162"><ele>78.66666666666667</ele><time>2026-05-01T07:51:03.944Z</time></trkpt><trkpt lat="42.3959392" lon="14.2348081"><ele>78.33333333333333</ele><time>2026-05-01T07:51:05.931Z</time></trkpt><trkpt lat="42.3958571" lon="14.2348121"><ele>78.0</ele><time>2026-05-01T07:51:07.946Z</time></trkpt><trkpt lat="42.39579" lon="14.2348177"><ele>78.28571428571429</ele><time>2026-05-01T07:51:09.93Z</time></trkpt><trkpt lat="42.3957234" lon="14.2347867"><ele>78.57142857142857</ele><time>2026-05-01T07:52:13.935Z</time></trkpt><trkpt lat="42.3956671" lon="14.2347474"><ele>78.85714285714286</ele><time>2026-05-01T07:52:30.931Z</time></trkpt><trkpt lat="42.3956134" lon="14.234694"><ele>79.14285714285714</ele><time>2026-05-01T07:53:18.935Z</time></trkpt><trkpt lat="42.3955641" lon="14.2346319"><ele>79.42857142857143</ele><time>2026-05-01T07:53:38.926Z</time></trkpt><trkpt lat="42.3955096" lon="14.2345881"><ele>79.71428571428571</ele><time>2026-05-01T07:54:06.924Z</time></trkpt><trkpt lat="42.3954766" lon="14.2344972"><ele>80.0</ele><time>2026-05-01T07:54:10.938Z</time></trkpt><trkpt lat="42.3954382" lon="14.2344074"><ele>83.0</ele><time>2026-05-01T07:54:15.932Z</time></trkpt><trkpt lat="42.3953828" lon="14.2343066"><ele>86.0</ele><time>2026-05-01T07:56:14.945Z</time></trkpt><trkpt lat="42.3953613" lon="14.2342087"><ele>89.0</ele><time>2026-05-01T07:56:18.936Z</time></trkpt><trkpt lat="42.3953474" lon="14.2341237"><ele>92.0</ele><time>2026-05-01T07:56:20.93Z</time></trkpt><trkpt lat="42.3953233" lon="14.2340036"><ele>94.99999999999999</ele><time>2026-05-01T07:56:25.932Z</time></trkpt><trkpt lat="42.3952922" lon="14.2338754"><ele>98.0</ele><time>2026-05-01T07:56:27.936Z</time></trkpt><trkpt lat="42.3952491" lon="14.2337418"><ele>98.0</ele><time>2026-05-01T07:56:29.933Z</time></trkpt><trkpt lat="42.3951932" lon="14.2335875"><ele>98.0</ele><time>2026-05-01T07:56:31.935Z</time></trkpt><trkpt lat="42.3951547" lon="14.2335018"><ele>98.0</ele><time>2026-05-01T07:56:32.933Z</time></trkpt><trkpt lat="42.3951187" lon="14.233414"><ele>98.0</ele><time>2026-05-01T07:56:33.935Z</time></trkpt><trkpt lat="42.3950702" lon="14.2332704"><ele>98.0</ele><time>2026-05-01T07:56:35.932Z</time></trkpt><trkpt lat="42.3950141" lon="14.2331407"><ele>97.66666666666666</ele><time>2026-05-01T07:56:37.938Z</time></trkpt><trkpt lat="42.3949973" lon="14.2330158"><ele>97.33333333333333</ele><time>2026-05-01T07:56:39.932Z</time></trkpt><trkpt lat="42.3949513" lon="14.2328974"><ele>97.0</ele><time>2026-05-01T07:56:41.933Z</time></trkpt><trkpt lat="42.3949001" lon="14.2327674"><ele>96.66666666666666</ele><time>2026-05-01T07:56:43.938Z</time></trkpt><trkpt lat="42.3948784" lon="14.2326713"><ele>96.33333333333333</ele><time>2026-05-01T07:56:44.93Z</time></trkpt><trkpt lat="42.3948605" lon="14.2325805"><ele>96.0</ele><time>2026-05-01T07:56:45.935Z</time></trkpt><trkpt lat="42.3948431" lon="14.2324913"><ele>96.0</ele><time>2026-05-01T07:56:46.936Z</time></trkpt><trkpt lat="42.3947983" lon="14.2323437"><ele>96.0</ele><time>2026-05-01T07:56:48.93Z</time></trkpt><trkpt lat="42.3947438" lon="14.2322045"><ele>96.0</ele><time>2026-05-01T07:56:50.939Z</time></trkpt><trkpt lat="42.3947154" lon="14.2321173"><ele>96.0</ele><time>2026-05-01T07:56:51.931Z</time></trkpt><trkpt lat="42.3946798" lon="14.2320276"><ele>96.0</ele><time>2026-05-01T07:56:52.946Z</time></trkpt><trkpt lat="42.3946418" lon="14.2319335"><ele>98.83333333333333</ele><time>2026-05-01T07:56:53.939Z</time></trkpt><trkpt lat="42.3945973" lon="14.2318441"><ele>101.66666666666666</ele><time>2026-05-01T07:56:54.939Z</time></trkpt><trkpt lat="42.3945446" lon="14.2317538"><ele>104.5</ele><time>2026-05-01T07:56:55.934Z</time></trkpt><trkpt lat="42.3945006" lon="14.2316609"><ele>107.33333333333333</ele><time>2026-05-01T07:56:56.942Z</time></trkpt><trkpt lat="42.3944515" lon="14.2315689"><ele>110.16666666666666</ele><time>2026-05-01T07:56:57.934Z</time></trkpt><trkpt lat="42.3944033" lon="14.2314851"><ele>113.0</ele><time>2026-05-01T07:56:58.935Z</time></trkpt><trkpt lat="42.3943594" lon="14.2314125"><ele>113.0</ele><time>2026-05-01T07:56:59.966Z</time></trkpt><trkpt lat="42.3942968" lon="14.2313192"><ele>113.00000000000001</ele><time>2026-05-01T07:57:01.938Z</time></trkpt><trkpt lat="42.3942267" lon="14.2312071"><ele>113.00000000000001</ele><time>2026-05-01T07:57:03.927Z</time></trkpt><trkpt lat="42.3941563" lon="14.2310753"><ele>113.0</ele><time>2026-05-01T07:57:05.932Z</time></trkpt><trkpt lat="42.3941148" lon="14.2309747"><ele>113.0</ele><time>2026-05-01T07:57:07.935Z</time></trkpt><trkpt lat="42.3940662" lon="14.2308757"><ele>112.99999999999999</ele><time>2026-05-01T07:57:33.927Z</time></trkpt><trkpt lat="42.3940082" lon="14.2307956"><ele>113.0</ele><time>2026-05-01T07:57:35.932Z</time></trkpt><trkpt lat="42.39395" lon="14.2306946"><ele>113.0</ele><time>2026-05-01T07:57:37.931Z</time></trkpt><trkpt lat="42.393888" lon="14.2305608"><ele>113.0</ele><time>2026-05-01T07:57:39.942Z</time></trkpt><trkpt lat="42.3938524" lon="14.2304772"><ele>112.99999999999999</ele><time>2026-05-01T07:57:40.936Z</time></trkpt><trkpt lat="42.3938166" lon="14.2303979"><ele>113.0</ele><time>2026-05-01T07:57:41.947Z</time></trkpt><trkpt lat="42.3937727" lon="14.2303096"><ele>116.16666666666666</ele><time>2026-05-01T07:57:42.928Z</time></trkpt><trkpt lat="42.393728" lon="14.2302154"><ele>119.33333333333333</ele><time>2026-05-01T07:57:43.935Z</time></trkpt><trkpt lat="42.393675" lon="14.2301224"><ele>122.5</ele><time>2026-05-01T07:57:44.934Z</time></trkpt><trkpt lat="42.3936157" lon="14.2300516"><ele>125.66666666666666</ele><time>2026-05-01T07:57:45.972Z</time></trkpt><trkpt lat="42.3935493" lon="14.2299962"><ele>128.83333333333334</ele><time>2026-05-01T07:57:46.932Z</time></trkpt><trkpt lat="42.3934911" lon="14.2299419"><ele>132.0</ele><time>2026-05-01T07:57:47.929Z</time></trkpt><trkpt lat="42.3934302" lon="14.2299005"><ele>132.0</ele><time>2026-05-01T07:57:48.933Z</time></trkpt><trkpt lat="42.3933652" lon="14.2298773"><ele>132.0</ele><time>2026-05-01T07:57:49.939Z</time></trkpt><trkpt lat="42.3932593" lon="14.2298856"><ele>132.0</ele><time>2026-05-01T07:57:51.947Z</time></trkpt><trkpt lat="42.393189" lon="14.2299323"><ele>132.0</ele><time>2026-05-01T07:57:53.933Z</time></trkpt><trkpt lat="42.3931577" lon="14.2300112"><ele>132.0</ele><time>2026-05-01T07:57:55.94Z</time></trkpt><trkpt lat="42.3931592" lon="14.2301057"><ele>132.0</ele><time>2026-05-01T07:58:05.931Z</time></trkpt><trkpt lat="42.3931709" lon="14.2301951"><ele>132.0</ele><time>2026-05-01T07:58:09.934Z</time></trkpt><trkpt lat="42.393184" lon="14.230309"><ele>132.0</ele><time>2026-05-01T07:58:13.931Z</time></trkpt><trkpt lat="42.393167" lon="14.2302091"><ele>132.0</ele><time>2026-05-01T07:59:34.943Z</time></trkpt><trkpt lat="42.3931538" lon="14.2300933"><ele>132.0</ele><time>2026-05-01T07:59:38.928Z</time></trkpt><trkpt lat="42.3931555" lon="14.2299973"><ele>132.0</ele><time>2026-05-01T07:59:41.938Z</time></trkpt><trkpt lat="42.3932137" lon="14.2300327"><ele>132.0</ele><time>2026-05-01T08:00:02.935Z</time></trkpt><trkpt lat="42.3932215" lon="14.2301357"><ele>132.0</ele><time>2026-05-01T08:00:08.926Z</time></trkpt><trkpt lat="42.3932332" lon="14.2302252"><ele>132.0</ele><time>2026-05-01T08:00:13.931Z</time></trkpt><trkpt lat="42.3932435" lon="14.2303293"><ele>132.0</ele><time>2026-05-01T08:00:18.95Z</time></trkpt><trkpt lat="42.3932391" lon="14.23044"><ele>132.0</ele><time>2026-05-01T08:00:20.936Z</time></trkpt><trkpt lat="42.3932248" lon="14.2305701"><ele>132.0</ele><time>2026-05-01T08:00:22.945Z</time></trkpt><trkpt lat="42.3932267" lon="14.2306851"><ele>132.0</ele><time>2026-05-01T08:00:24.934Z</time></trkpt><trkpt lat="42.3932496" lon="14.2307741"><ele>132.5</ele><time>2026-05-01T08:00:28.932Z</time></trkpt><trkpt lat="42.3932152" lon="14.2309016"><ele>133.0</ele><time>2026-05-01T08:00:32.925Z</time></trkpt><trkpt lat="42.3931977" lon="14.2309994"><ele>133.5</ele><time>2026-05-01T08:00:34.935Z</time></trkpt><trkpt lat="42.3931826" lon="14.231112"><ele>134.0</ele><time>2026-05-01T08:00:36.946Z</time></trkpt><trkpt lat="42.3931546" lon="14.2312009"><ele>134.5</ele><time>2026-05-01T08:00:39.938Z</time></trkpt><trkpt lat="42.3931015" lon="14.2311333"><ele>135.0</ele><time>2026-05-01T08:00:47.94Z</time></trkpt><trkpt lat="42.3930444" lon="14.2310395"><ele>137.8</ele><time>2026-05-01T08:00:49.932Z</time></trkpt><trkpt lat="42.3929827" lon="14.2309507"><ele>140.6</ele><time>2026-05-01T08:00:51.932Z</time></trkpt><trkpt lat="42.3929471" lon="14.2308365"><ele>143.4</ele><time>2026-05-01T08:00:53.94Z</time></trkpt><trkpt lat="42.3929016" lon="14.2306811"><ele>146.2</ele><time>2026-05-01T08:00:55.939Z</time></trkpt><trkpt lat="42.392844" lon="14.2305286"><ele>149.0</ele><time>2026-05-01T08:00:57.934Z</time></trkpt><trkpt lat="42.3928154" lon="14.2304408"><ele>149.5</ele><time>2026-05-01T08:00:58.931Z</time></trkpt><trkpt lat="42.3927742" lon="14.2303561"><ele>150.0</ele><time>2026-05-01T08:00:59.936Z</time></trkpt><trkpt lat="42.3927245" lon="14.2302757"><ele>150.5</ele><time>2026-05-01T08:01:00.926Z</time></trkpt><trkpt lat="42.3926741" lon="14.2301906"><ele>151.0</ele><time>2026-05-01T08:01:01.931Z</time></trkpt><trkpt lat="42.3926292" lon="14.2301062"><ele>151.5</ele><time>2026-05-01T08:01:02.94Z</time></trkpt><trkpt lat="42.392582" lon="14.230014"><ele>152.0</ele><time>2026-05-01T08:01:03.937Z</time></trkpt><trkpt lat="42.3925419" lon="14.2299318"><ele>152.0</ele><time>2026-05-01T08:01:04.937Z</time></trkpt><trkpt lat="42.3925051" lon="14.2298456"><ele>152.0</ele><time>2026-05-01T08:01:05.945Z</time></trkpt><trkpt lat="42.3924651" lon="14.2297552"><ele>152.0</ele><time>2026-05-01T08:01:06.929Z</time></trkpt><trkpt lat="42.3924262" lon="14.2296598"><ele>152.0</ele><time>2026-05-01T08:01:07.937Z</time></trkpt><trkpt lat="42.3923919" lon="14.2295627"><ele>152.0</ele><time>2026-05-01T08:01:08.934Z</time></trkpt><trkpt lat="42.3923587" lon="14.2294641"><ele>152.0</ele><time>2026-05-01T08:01:09.934Z</time></trkpt><trkpt lat="42.3923261" lon="14.2293522"><ele>151.79999999999998</ele><time>2026-05-01T08:01:10.925Z</time></trkpt><trkpt lat="42.3922921" lon="14.2292286"><ele>151.6</ele><time>2026-05-01T08:01:11.927Z</time></trkpt><trkpt lat="42.3922573" lon="14.2290951"><ele>151.39999999999998</ele><time>2026-05-01T08:01:12.935Z</time></trkpt><trkpt lat="42.3922243" lon="14.2289641"><ele>151.2</ele><time>2026-05-01T08:01:13.932Z</time></trkpt><trkpt lat="42.3922031" lon="14.22885"><ele>151.0</ele><time>2026-05-01T08:01:14.93Z</time></trkpt><trkpt lat="42.3921918" lon="14.2287427"><ele>149.66666666666669</ele><time>2026-05-01T08:01:15.933Z</time></trkpt><trkpt lat="42.3921841" lon="14.2286304"><ele>148.33333333333334</ele><time>2026-05-01T08:01:16.935Z</time></trkpt><trkpt lat="42.3921625" lon="14.2285176"><ele>147.0</ele><time>2026-05-01T08:01:17.936Z</time></trkpt><trkpt lat="42.3921342" lon="14.228417"><ele>145.66666666666666</ele><time>2026-05-01T08:01:18.929Z</time></trkpt><trkpt lat="42.3920923" lon="14.2283184"><ele>144.33333333333331</ele><time>2026-05-01T08:01:19.942Z</time></trkpt><trkpt lat="42.3920429" lon="14.2282253"><ele>143.0</ele><time>2026-05-01T08:01:20.939Z</time></trkpt><trkpt lat="42.3919946" lon="14.2281442"><ele>145.7142857142857</ele><time>2026-05-01T08:01:21.937Z</time></trkpt><trkpt lat="42.391944" lon="14.2280742"><ele>148.42857142857142</ele><time>2026-05-01T08:01:22.929Z</time></trkpt><trkpt lat="42.3918991" lon="14.2280049"><ele>151.14285714285714</ele><time>2026-05-01T08:01:23.932Z</time></trkpt><trkpt lat="42.3918568" lon="14.2279331"><ele>153.85714285714283</ele><time>2026-05-01T08:01:24.934Z</time></trkpt><trkpt lat="42.3918049" lon="14.2278593"><ele>156.57142857142856</ele><time>2026-05-01T08:01:25.929Z</time></trkpt><trkpt lat="42.3917487" lon="14.2277888"><ele>159.28571428571428</ele><time>2026-05-01T08:01:26.932Z</time></trkpt><trkpt lat="42.3916953" lon="14.2277412"><ele>162.0</ele><time>2026-05-01T08:01:27.936Z</time></trkpt><trkpt lat="42.3916344" lon="14.227777"><ele>162.0</ele><time>2026-05-01T08:01:30.93Z</time></trkpt><trkpt lat="42.3916422" lon="14.2279371"><ele>162.0</ele><time>2026-05-01T08:01:32.938Z</time></trkpt><trkpt lat="42.3916564" lon="14.2280462"><ele>162.0</ele><time>2026-05-01T08:01:34.942Z</time></trkpt><trkpt lat="42.3916542" lon="14.2281377"><ele>162.0</ele><time>2026-05-01T08:01:36.942Z</time></trkpt><trkpt lat="42.3916512" lon="14.2282478"><ele>162.0</ele><time>2026-05-01T08:01:37.93Z</time></trkpt><trkpt lat="42.3916347" lon="14.2283831"><ele>162.0</ele><time>2026-05-01T08:01:38.939Z</time></trkpt><trkpt lat="42.3916103" lon="14.228543"><ele>162.0</ele><time>2026-05-01T08:01:39.94Z</time></trkpt><trkpt lat="42.3915807" lon="14.2287151"><ele>162.0</ele><time>2026-05-01T08:01:40.939Z</time></trkpt><trkpt lat="42.3915527" lon="14.228888"><ele>162.0</ele><time>2026-05-01T08:01:41.946Z</time></trkpt><trkpt lat="42.3915273" lon="14.2290491"><ele>160.75</ele><time>2026-05-01T08:01:42.937Z</time></trkpt><trkpt lat="42.3915006" lon="14.2292047"><ele>159.5</ele><time>2026-05-01T08:01:43.925Z</time></trkpt><trkpt lat="42.3914683" lon="14.2293651"><ele>158.25</ele><time>2026-05-01T08:01:44.933Z</time></trkpt><trkpt lat="42.3914329" lon="14.2295307"><ele>157.0</ele><time>2026-05-01T08:01:45.94Z</time></trkpt><trkpt lat="42.3913992" lon="14.229704"><ele>155.25</ele><time>2026-05-01T08:01:46.923Z</time></trkpt><trkpt lat="42.3913622" lon="14.2298772"><ele>153.5</ele><time>2026-05-01T08:01:47.942Z</time></trkpt><trkpt lat="42.3913275" lon="14.2300486"><ele>151.75</ele><time>2026-05-01T08:01:48.93Z</time></trkpt><trkpt lat="42.3912977" lon="14.2302263"><ele>150.0</ele><time>2026-05-01T08:01:49.929Z</time></trkpt><trkpt lat="42.3912712" lon="14.2303999"><ele>149.25</ele><time>2026-05-01T08:01:50.937Z</time></trkpt><trkpt lat="42.3912454" lon="14.2305635"><ele>148.5</ele><time>2026-05-01T08:01:51.93Z</time></trkpt><trkpt lat="42.3912156" lon="14.2307204"><ele>147.75</ele><time>2026-05-01T08:01:52.935Z</time></trkpt><trkpt lat="42.3911833" lon="14.2308714"><ele>147.0</ele><time>2026-05-01T08:01:53.935Z</time></trkpt><trkpt lat="42.3911394" lon="14.231026"><ele>144.75</ele><time>2026-05-01T08:01:54.936Z</time></trkpt><trkpt lat="42.3910919" lon="14.2311764"><ele>142.5</ele><time>2026-05-01T08:01:55.935Z</time></trkpt><trkpt lat="42.3910476" lon="14.2313262"><ele>140.25</ele><time>2026-05-01T08:01:56.934Z</time></trkpt><trkpt lat="42.391001" lon="14.2314675"><ele>138.0</ele><time>2026-05-01T08:01:57.931Z</time></trkpt><trkpt lat="42.390957" lon="14.2315984"><ele>136.4</ele><time>2026-05-01T08:01:58.928Z</time></trkpt><trkpt lat="42.3909181" lon="14.2317044"><ele>134.8</ele><time>2026-05-01T08:01:59.948Z</time></trkpt><trkpt lat="42.390878" lon="14.2317719"><ele>133.2</ele><time>2026-05-01T08:02:00.93Z</time></trkpt><trkpt lat="42.3907885" lon="14.2318163"><ele>131.6</ele><time>2026-05-01T08:02:02.939Z</time></trkpt><trkpt lat="42.3906771" lon="14.2317672"><ele>130.0</ele><time>2026-05-01T08:02:04.936Z</time></trkpt><trkpt lat="42.3906057" lon="14.2316922"><ele>130.0</ele><time>2026-05-01T08:02:05.933Z</time></trkpt><trkpt lat="42.3905262" lon="14.231603"><ele>130.0</ele><time>2026-05-01T08:02:06.939Z</time></trkpt><trkpt lat="42.390426" lon="14.2315112"><ele>130.0</ele><time>2026-05-01T08:02:07.931Z</time></trkpt><trkpt lat="42.390314" lon="14.2314179"><ele>130.0</ele><time>2026-05-01T08:02:08.937Z</time></trkpt><trkpt lat="42.3901968" lon="14.2313223"><ele>132.25</ele><time>2026-05-01T08:02:09.939Z</time></trkpt><trkpt lat="42.390074" lon="14.2312157"><ele>134.5</ele><time>2026-05-01T08:02:10.942Z</time></trkpt><trkpt lat="42.3899511" lon="14.2311051"><ele>136.75</ele><time>2026-05-01T08:02:11.934Z</time></trkpt><trkpt lat="42.3898265" lon="14.2310066"><ele>139.0</ele><time>2026-05-01T08:02:12.944Z</time></trkpt><trkpt lat="42.3896966" lon="14.2309128"><ele>139.25</ele><time>2026-05-01T08:02:13.943Z</time></trkpt><trkpt lat="42.3895586" lon="14.2308444"><ele>139.5</ele><time>2026-05-01T08:02:14.932Z</time></trkpt><trkpt lat="42.389424" lon="14.2308098"><ele>139.75</ele><time>2026-05-01T08:02:15.926Z</time></trkpt><trkpt lat="42.3892839" lon="14.2308071"><ele>140.0</ele><time>2026-05-01T08:02:16.94Z</time></trkpt><trkpt lat="42.3891388" lon="14.2308118"><ele>140.0</ele><time>2026-05-01T08:02:17.944Z</time></trkpt><trkpt lat="42.3890046" lon="14.2308068"><ele>140.0</ele><time>2026-05-01T08:02:18.936Z</time></trkpt><trkpt lat="42.3888704" lon="14.2307963"><ele>140.0</ele><time>2026-05-01T08:02:19.934Z</time></trkpt><trkpt lat="42.3887455" lon="14.2307699"><ele>140.0</ele><time>2026-05-01T08:02:20.929Z</time></trkpt><trkpt lat="42.3886286" lon="14.2307213"><ele>139.8</ele><time>2026-05-01T08:02:21.961Z</time></trkpt><trkpt lat="42.3885271" lon="14.2306442"><ele>139.6</ele><time>2026-05-01T08:02:22.928Z</time></trkpt><trkpt lat="42.3884381" lon="14.2305453"><ele>139.4</ele><time>2026-05-01T08:02:23.935Z</time></trkpt><trkpt lat="42.3883613" lon="14.2304473"><ele>139.2</ele><time>2026-05-01T08:02:24.938Z</time></trkpt><trkpt lat="42.388291" lon="14.230359"><ele>139.0</ele><time>2026-05-01T08:02:25.937Z</time></trkpt><trkpt lat="42.3882306" lon="14.2302841"><ele>139.2</ele><time>2026-05-01T08:02:26.939Z</time></trkpt><trkpt lat="42.3881779" lon="14.2302291"><ele>139.4</ele><time>2026-05-01T08:02:27.934Z</time></trkpt><trkpt lat="42.3880902" lon="14.2302141"><ele>139.6</ele><time>2026-05-01T08:02:29.945Z</time></trkpt><trkpt lat="42.3880375" lon="14.2303699"><ele>139.8</ele><time>2026-05-01T08:02:31.935Z</time></trkpt><trkpt lat="42.3880243" lon="14.2304771"><ele>140.0</ele><time>2026-05-01T08:02:32.931Z</time></trkpt><trkpt lat="42.3879954" lon="14.2306003"><ele>139.5</ele><time>2026-05-01T08:02:33.929Z</time></trkpt><trkpt lat="42.3879529" lon="14.230732"><ele>139.0</ele><time>2026-05-01T08:02:34.929Z</time></trkpt><trkpt lat="42.3879051" lon="14.2308779"><ele>138.5</ele><time>2026-05-01T08:02:35.938Z</time></trkpt><trkpt lat="42.3878534" lon="14.2310299"><ele>138.0</ele><time>2026-05-01T08:02:36.932Z</time></trkpt><trkpt lat="42.3877987" lon="14.2311976"><ele>138.0</ele><time>2026-05-01T08:02:37.939Z</time></trkpt><trkpt lat="42.3877414" lon="14.2313717"><ele>138.0</ele><time>2026-05-01T08:02:38.933Z</time></trkpt><trkpt lat="42.3876887" lon="14.2315397"><ele>138.0</ele><time>2026-05-01T08:02:39.933Z</time></trkpt><trkpt lat="42.3876404" lon="14.231699"><ele>138.0</ele><time>2026-05-01T08:02:40.929Z</time></trkpt><trkpt lat="42.3876147" lon="14.2318505"><ele>137.4</ele><time>2026-05-01T08:02:41.936Z</time></trkpt><trkpt lat="42.38761" lon="14.2319915"><ele>136.8</ele><time>2026-05-01T08:02:42.932Z</time></trkpt><trkpt lat="42.3876186" lon="14.2321243"><ele>136.2</ele><time>2026-05-01T08:02:43.932Z</time></trkpt><trkpt lat="42.3876411" lon="14.2322665"><ele>135.6</ele><time>2026-05-01T08:02:44.946Z</time></trkpt><trkpt lat="42.3876733" lon="14.2324267"><ele>135.0</ele><time>2026-05-01T08:02:45.933Z</time></trkpt><trkpt lat="42.38771" lon="14.2325858"><ele>134.5</ele><time>2026-05-01T08:02:46.93Z</time></trkpt><trkpt lat="42.3877428" lon="14.2327524"><ele>134.0</ele><time>2026-05-01T08:02:47.928Z</time></trkpt><trkpt lat="42.3877721" lon="14.2329234"><ele>133.5</ele><time>2026-05-01T08:02:48.934Z</time></trkpt><trkpt lat="42.3878016" lon="14.2330848"><ele>133.0</ele><time>2026-05-01T08:02:49.924Z</time></trkpt><trkpt lat="42.3878333" lon="14.2332533"><ele>132.25</ele><time>2026-05-01T08:02:50.935Z</time></trkpt><trkpt lat="42.3878621" lon="14.2334209"><ele>131.5</ele><time>2026-05-01T08:02:51.933Z</time></trkpt><trkpt lat="42.3878916" lon="14.2335943"><ele>130.75</ele><time>2026-05-01T08:02:52.938Z</time></trkpt><trkpt lat="42.3879225" lon="14.2337773"><ele>130.0</ele><time>2026-05-01T08:02:53.935Z</time></trkpt><trkpt lat="42.3879543" lon="14.2339585"><ele>130.0</ele><time>2026-05-01T08:02:54.929Z</time></trkpt><trkpt lat="42.3879838" lon="14.234132"><ele>130.0</ele><time>2026-05-01T08:02:55.933Z</time></trkpt><trkpt lat="42.3880184" lon="14.2342974"><ele>130.0</ele><time>2026-05-01T08:02:56.934Z</time></trkpt><trkpt lat="42.3880506" lon="14.2344632"><ele>130.0</ele><time>2026-05-01T08:02:57.927Z</time></trkpt><trkpt lat="42.3880834" lon="14.2346348"><ele>130.0</ele><time>2026-05-01T08:02:58.932Z</time></trkpt><trkpt lat="42.3881143" lon="14.2347994"><ele>130.0</ele><time>2026-05-01T08:02:59.925Z</time></trkpt><trkpt lat="42.388145" lon="14.2349474"><ele>130.0</ele><time>2026-05-01T08:03:00.933Z</time></trkpt><trkpt lat="42.388172" lon="14.2350728"><ele>130.0</ele><time>2026-05-01T08:03:01.932Z</time></trkpt><trkpt lat="42.3881937" lon="14.2351795"><ele>130.0</ele><time>2026-05-01T08:03:02.931Z</time></trkpt><trkpt lat="42.3882142" lon="14.2353181"><ele>129.83333333333334</ele><time>2026-05-01T08:03:04.933Z</time></trkpt><trkpt lat="42.3881621" lon="14.2353772"><ele>129.66666666666669</ele><time>2026-05-01T08:03:06.934Z</time></trkpt><trkpt lat="42.3880864" lon="14.2353568"><ele>129.5</ele><time>2026-05-01T08:03:08.946Z</time></trkpt><trkpt lat="42.3880219" lon="14.2353639"><ele>129.33333333333334</ele><time>2026-05-01T08:03:25.929Z</time></trkpt><trkpt lat="42.3881175" lon="14.2353822"><ele>129.16666666666666</ele><time>2026-05-01T08:03:34.929Z</time></trkpt><trkpt lat="42.3882065" lon="14.2353751"><ele>129.0</ele><time>2026-05-01T08:03:36.928Z</time></trkpt><trkpt lat="42.3881711" lon="14.2355073"><ele>129.0</ele><time>2026-05-01T08:03:40.937Z</time></trkpt><trkpt lat="42.3880804" lon="14.2356233"><ele>129.0</ele><time>2026-05-01T08:03:42.932Z</time></trkpt><trkpt lat="42.3880227" lon="14.2356953"><ele>129.0</ele><time>2026-05-01T08:03:43.933Z</time></trkpt><trkpt lat="42.3879722" lon="14.2357567"><ele>129.0</ele><time>2026-05-01T08:03:44.931Z</time></trkpt><trkpt lat="42.3878919" lon="14.2358706"><ele>129.0</ele><time>2026-05-01T08:03:46.94Z</time></trkpt><trkpt lat="42.3877998" lon="14.2359816"><ele>128.4</ele><time>2026-05-01T08:03:48.933Z</time></trkpt><trkpt lat="42.3877489" lon="14.2360491"><ele>127.80000000000001</ele><time>2026-05-01T08:03:49.926Z</time></trkpt><trkpt lat="42.3876914" lon="14.2361118"><ele>127.19999999999999</ele><time>2026-05-01T08:03:50.921Z</time></trkpt><trkpt lat="42.3875955" lon="14.236195"><ele>126.6</ele><time>2026-05-01T08:03:52.934Z</time></trkpt><trkpt lat="42.3875262" lon="14.2362819"><ele>126.0</ele><time>2026-05-01T08:03:54.926Z</time></trkpt><trkpt lat="42.3874519" lon="14.2363672"><ele>126.0</ele><time>2026-05-01T08:03:56.935Z</time></trkpt><trkpt lat="42.3873718" lon="14.2364573"><ele>126.0</ele><time>2026-05-01T08:03:58.939Z</time></trkpt><trkpt lat="42.3872858" lon="14.2365671"><ele>126.0</ele><time>2026-05-01T08:04:00.93Z</time></trkpt><trkpt lat="42.3872395" lon="14.2366265"><ele>126.0</ele><time>2026-05-01T08:04:01.926Z</time></trkpt><trkpt lat="42.387191" lon="14.2366861"><ele>126.0</ele><time>2026-05-01T08:04:02.929Z</time></trkpt><trkpt lat="42.3870975" lon="14.2368066"><ele>123.71428571428571</ele><time>2026-05-01T08:04:04.937Z</time></trkpt><trkpt lat="42.3870408" lon="14.2368678"><ele>121.42857142857143</ele><time>2026-05-01T08:04:05.937Z</time></trkpt><trkpt lat="42.3869887" lon="14.2369254"><ele>119.14285714285714</ele><time>2026-05-01T08:04:06.927Z</time></trkpt><trkpt lat="42.3869376" lon="14.2369861"><ele>116.85714285714286</ele><time>2026-05-01T08:04:07.93Z</time></trkpt><trkpt lat="42.3868836" lon="14.2370432"><ele>114.57142857142857</ele><time>2026-05-01T08:04:08.937Z</time></trkpt><trkpt lat="42.3868251" lon="14.2371084"><ele>112.28571428571428</ele><time>2026-05-01T08:04:09.93Z</time></trkpt><trkpt lat="42.3867661" lon="14.2371826"><ele>110.0</ele><time>2026-05-01T08:04:10.938Z</time></trkpt><trkpt lat="42.3867133" lon="14.2372462"><ele>109.33333333333333</ele><time>2026-05-01T08:04:11.934Z</time></trkpt><trkpt lat="42.3866597" lon="14.2373132"><ele>108.66666666666666</ele><time>2026-05-01T08:04:12.936Z</time></trkpt><trkpt lat="42.3866015" lon="14.2373863"><ele>108.0</ele><time>2026-05-01T08:04:13.929Z</time></trkpt><trkpt lat="42.3865396" lon="14.2374597"><ele>107.33333333333334</ele><time>2026-05-01T08:04:14.937Z</time></trkpt><trkpt lat="42.3864829" lon="14.2375313"><ele>106.66666666666667</ele><time>2026-05-01T08:04:15.933Z</time></trkpt><trkpt lat="42.3864225" lon="14.2376014"><ele>106.0</ele><time>2026-05-01T08:04:16.934Z</time></trkpt><trkpt lat="42.3863675" lon="14.2376685"><ele>104.83333333333334</ele><time>2026-05-01T08:04:17.934Z</time></trkpt><trkpt lat="42.3863098" lon="14.2377381"><ele>103.66666666666667</ele><time>2026-05-01T08:04:18.928Z</time></trkpt><trkpt lat="42.3862496" lon="14.2378083"><ele>102.5</ele><time>2026-05-01T08:04:19.935Z</time></trkpt><trkpt lat="42.386198" lon="14.237872"><ele>101.33333333333334</ele><time>2026-05-01T08:04:20.934Z</time></trkpt><trkpt lat="42.3861496" lon="14.2379368"><ele>100.16666666666667</ele><time>2026-05-01T08:04:21.932Z</time></trkpt><trkpt lat="42.3860688" lon="14.2380353"><ele>99.0</ele><time>2026-05-01T08:04:23.934Z</time></trkpt><trkpt lat="42.386012" lon="14.2381066"><ele>98.16666666666667</ele><time>2026-05-01T08:04:25.934Z</time></trkpt><trkpt lat="42.3859579" lon="14.2381812"><ele>97.33333333333333</ele><time>2026-05-01T08:04:27.927Z</time></trkpt><trkpt lat="42.3859026" lon="14.2382479"><ele>96.5</ele><time>2026-05-01T08:04:29.932Z</time></trkpt><trkpt lat="42.3858439" lon="14.2383156"><ele>95.66666666666666</ele><time>2026-05-01T08:04:31.927Z</time></trkpt><trkpt lat="42.3857809" lon="14.2383906"><ele>94.83333333333333</ele><time>2026-05-01T08:04:33.932Z</time></trkpt><trkpt lat="42.3857224" lon="14.2384387"><ele>94.0</ele><time>2026-05-01T08:04:35.936Z</time></trkpt><trkpt lat="42.3856481" lon="14.2385075"><ele>94.0</ele><time>2026-05-01T08:04:37.936Z</time></trkpt><trkpt lat="42.3855587" lon="14.2385917"><ele>94.0</ele><time>2026-05-01T08:04:39.931Z</time></trkpt><trkpt lat="42.3854668" lon="14.2386841"><ele>94.0</ele><time>2026-05-01T08:04:41.937Z</time></trkpt><trkpt lat="42.3853804" lon="14.2387896"><ele>94.0</ele><time>2026-05-01T08:04:43.969Z</time></trkpt><trkpt lat="42.3852923" lon="14.2389006"><ele>92.2</ele><time>2026-05-01T08:04:45.933Z</time></trkpt><trkpt lat="42.3852028" lon="14.2390244"><ele>90.4</ele><time>2026-05-01T08:04:47.936Z</time></trkpt><trkpt lat="42.3851555" lon="14.2390885"><ele>88.6</ele><time>2026-05-01T08:04:48.941Z</time></trkpt><trkpt lat="42.3850714" lon="14.2391924"><ele>86.8</ele><time>2026-05-01T08:04:50.937Z</time></trkpt><trkpt lat="42.3849913" lon="14.2392957"><ele>85.0</ele><time>2026-05-01T08:04:52.931Z</time></trkpt><trkpt lat="42.3849407" lon="14.2393653"><ele>85.0</ele><time>2026-05-01T08:04:53.929Z</time></trkpt><trkpt lat="42.3848851" lon="14.2394287"><ele>85.0</ele><time>2026-05-01T08:04:54.934Z</time></trkpt><trkpt lat="42.3848318" lon="14.2394892"><ele>85.0</ele><time>2026-05-01T08:04:55.932Z</time></trkpt><trkpt lat="42.384782" lon="14.2395434"><ele>85.0</ele><time>2026-05-01T08:04:56.933Z</time></trkpt><trkpt lat="42.3847302" lon="14.2396072"><ele>85.0</ele><time>2026-05-01T08:04:57.933Z</time></trkpt><trkpt lat="42.384674" lon="14.239668"><ele>85.0</ele><time>2026-05-01T08:04:58.938Z</time></trkpt><trkpt lat="42.3846143" lon="14.2397396"><ele>85.0</ele><time>2026-05-01T08:04:59.939Z</time></trkpt><trkpt lat="42.3845618" lon="14.2398026"><ele>83.0</ele><time>2026-05-01T08:05:00.928Z</time></trkpt><trkpt lat="42.3845028" lon="14.2398643"><ele>81.0</ele><time>2026-05-01T08:05:01.929Z</time></trkpt><trkpt lat="42.3844484" lon="14.2399288"><ele>79.0</ele><time>2026-05-01T08:05:02.933Z</time></trkpt><trkpt lat="42.3843995" lon="14.2399913"><ele>77.0</ele><time>2026-05-01T08:05:03.931Z</time></trkpt><trkpt lat="42.3843087" lon="14.2400932"><ele>75.0</ele><time>2026-05-01T08:05:05.934Z</time></trkpt><trkpt lat="42.3842367" lon="14.2401957"><ele>73.0</ele><time>2026-05-01T08:05:07.934Z</time></trkpt><trkpt lat="42.3841747" lon="14.2402764"><ele>73.0</ele><time>2026-05-01T08:05:09.945Z</time></trkpt><trkpt lat="42.3841025" lon="14.2403377"><ele>73.0</ele><time>2026-05-01T08:05:12.931Z</time></trkpt><trkpt lat="42.3840494" lon="14.2403946"><ele>73.0</ele><time>2026-05-01T08:05:15.935Z</time></trkpt><trkpt lat="42.3839799" lon="14.2404508"><ele>73.0</ele><time>2026-05-01T08:05:22.935Z</time></trkpt><trkpt lat="42.3839263" lon="14.2405332"><ele>73.0</ele><time>2026-05-01T08:06:50.935Z</time></trkpt><trkpt lat="42.3838792" lon="14.2405997"><ele>73.0</ele><time>2026-05-01T08:06:52.937Z</time></trkpt><trkpt lat="42.3838355" lon="14.2406631"><ele>73.0</ele><time>2026-05-01T08:06:54.932Z</time></trkpt><trkpt lat="42.3837661" lon="14.2407335"><ele>70.5</ele><time>2026-05-01T08:06:57.932Z</time></trkpt><trkpt lat="42.3837035" lon="14.2407968"><ele>68.0</ele><time>2026-05-01T08:07:00.94Z</time></trkpt><trkpt lat="42.3836486" lon="14.2408579"><ele>65.5</ele><time>2026-05-01T08:07:03.936Z</time></trkpt><trkpt lat="42.3835742" lon="14.2409335"><ele>63.0</ele><time>2026-05-01T08:07:06.932Z</time></trkpt><trkpt lat="42.3835206" lon="14.2409885"><ele>60.49999999999999</ele><time>2026-05-01T08:07:08.933Z</time></trkpt><trkpt lat="42.3834603" lon="14.2410467"><ele>58.0</ele><time>2026-05-01T08:07:10.934Z</time></trkpt><trkpt lat="42.3834022" lon="14.2411243"><ele>58.0</ele><time>2026-05-01T08:07:12.933Z</time></trkpt><trkpt lat="42.383335" lon="14.241211"><ele>58.0</ele><time>2026-05-01T08:07:14.937Z</time></trkpt><trkpt lat="42.3832643" lon="14.2412933"><ele>58.0</ele><time>2026-05-01T08:07:16.942Z</time></trkpt><trkpt lat="42.3831949" lon="14.2413728"><ele>58.0</ele><time>2026-05-01T08:07:18.927Z</time></trkpt><trkpt lat="42.3831227" lon="14.241452"><ele>58.0</ele><time>2026-05-01T08:07:20.938Z</time></trkpt><trkpt lat="42.3830463" lon="14.2415449"><ele>55.99999999999999</ele><time>2026-05-01T08:07:22.932Z</time></trkpt><trkpt lat="42.382976" lon="14.2416245"><ele>54.0</ele><time>2026-05-01T08:07:24.931Z</time></trkpt><trkpt lat="42.3829156" lon="14.2417029"><ele>52.0</ele><time>2026-05-01T08:07:26.932Z</time></trkpt><trkpt lat="42.3828621" lon="14.2417584"><ele>50.0</ele><time>2026-05-01T08:07:28.944Z</time></trkpt><trkpt lat="42.3828066" lon="14.2418144"><ele>48.0</ele><time>2026-05-01T08:07:31.932Z</time></trkpt><trkpt lat="42.3827374" lon="14.2417948"><ele>46.0</ele><time>2026-05-01T08:07:35.93Z</time></trkpt><trkpt lat="42.3826643" lon="14.2417141"><ele>46.0</ele><time>2026-05-01T08:07:37.927Z</time></trkpt><trkpt lat="42.3826012" lon="14.2416513"><ele>46.0</ele><time>2026-05-01T08:07:38.932Z</time></trkpt><trkpt lat="42.3825323" lon="14.2415723"><ele>46.0</ele><time>2026-05-01T08:07:39.931Z</time></trkpt><trkpt lat="42.3824498" lon="14.2414934"><ele>46.0</ele><time>2026-05-01T08:07:40.928Z</time></trkpt><trkpt lat="42.382363" lon="14.2414214"><ele>46.0</ele><time>2026-05-01T08:07:41.934Z</time></trkpt><trkpt lat="42.3822839" lon="14.2413584"><ele>46.4</ele><time>2026-05-01T08:07:42.959Z</time></trkpt><trkpt lat="42.3822035" lon="14.2412967"><ele>46.8</ele><time>2026-05-01T08:07:43.935Z</time></trkpt><trkpt lat="42.3821179" lon="14.2412241"><ele>47.199999999999996</ele><time>2026-05-01T08:07:44.941Z</time></trkpt><trkpt lat="42.3820362" lon="14.2411453"><ele>47.599999999999994</ele><time>2026-05-01T08:07:45.936Z</time></trkpt><trkpt lat="42.3819514" lon="14.2410673"><ele>48.0</ele><time>2026-05-01T08:07:46.93Z</time></trkpt><trkpt lat="42.3818597" lon="14.240978"><ele>48.0</ele><time>2026-05-01T08:07:47.938Z</time></trkpt><trkpt lat="42.3817697" lon="14.2408871"><ele>48.0</ele><time>2026-05-01T08:07:48.935Z</time></trkpt><trkpt lat="42.3816782" lon="14.2407916"><ele>48.0</ele><time>2026-05-01T08:07:49.936Z</time></trkpt><trkpt lat="42.3815833" lon="14.2407086"><ele>48.0</ele><time>2026-05-01T08:07:50.936Z</time></trkpt><trkpt lat="42.3814789" lon="14.240632"><ele>49.0</ele><time>2026-05-01T08:07:51.936Z</time></trkpt><trkpt lat="42.3813792" lon="14.2405497"><ele>50.0</ele><time>2026-05-01T08:07:52.933Z</time></trkpt><trkpt lat="42.3812711" lon="14.240461"><ele>51.0</ele><time>2026-05-01T08:07:53.947Z</time></trkpt><trkpt lat="42.381162" lon="14.240369"><ele>52.0</ele><time>2026-05-01T08:07:54.925Z</time></trkpt><trkpt lat="42.3810466" lon="14.2402694"><ele>52.75</ele><time>2026-05-01T08:07:55.934Z</time></trkpt><trkpt lat="42.3809401" lon="14.2401684"><ele>53.5</ele><time>2026-05-01T08:07:56.94Z</time></trkpt><trkpt lat="42.3808328" lon="14.2400663"><ele>54.25</ele><time>2026-05-01T08:07:57.93Z</time></trkpt><trkpt lat="42.3807292" lon="14.239973"><ele>55.0</ele><time>2026-05-01T08:07:58.94Z</time></trkpt><trkpt lat="42.3806322" lon="14.2398902"><ele>55.0</ele><time>2026-05-01T08:07:59.932Z</time></trkpt><trkpt lat="42.3805432" lon="14.2398042"><ele>55.0</ele><time>2026-05-01T08:08:00.926Z</time></trkpt><trkpt lat="42.3804633" lon="14.2397125"><ele>55.0</ele><time>2026-05-01T08:08:01.936Z</time></trkpt><trkpt lat="42.3803854" lon="14.2396042"><ele>55.0</ele><time>2026-05-01T08:08:02.938Z</time></trkpt><trkpt lat="42.3803187" lon="14.2395012"><ele>55.0</ele><time>2026-05-01T08:08:03.937Z</time></trkpt><trkpt lat="42.3802591" lon="14.2394129"><ele>55.2</ele><time>2026-05-01T08:08:04.93Z</time></trkpt><trkpt lat="42.3802128" lon="14.2393391"><ele>55.4</ele><time>2026-05-01T08:08:05.938Z</time></trkpt><trkpt lat="42.3801842" lon="14.2391941"><ele>55.599999999999994</ele><time>2026-05-01T08:08:07.963Z</time></trkpt><trkpt lat="42.3802161" lon="14.2390382"><ele>55.8</ele><time>2026-05-01T08:08:09.947Z</time></trkpt><trkpt lat="42.3802406" lon="14.2389495"><ele>56.0</ele><time>2026-05-01T08:08:10.935Z</time></trkpt><trkpt lat="42.3802925" lon="14.2388496"><ele>56.0</ele><time>2026-05-01T08:08:12.929Z</time></trkpt><trkpt lat="42.380382" lon="14.2387734"><ele>56.0</ele><time>2026-05-01T08:08:14.942Z</time></trkpt><trkpt lat="42.3804933" lon="14.2386924"><ele>56.0</ele><time>2026-05-01T08:08:16.932Z</time></trkpt><trkpt lat="42.3805897" lon="14.238609"><ele>56.0</ele><time>2026-05-01T08:08:18.932Z</time></trkpt><trkpt lat="42.3806651" lon="14.2384922"><ele>58.00000000000001</ele><time>2026-05-01T08:08:20.93Z</time></trkpt><trkpt lat="42.3807315" lon="14.2383615"><ele>60.0</ele><time>2026-05-01T08:08:22.931Z</time></trkpt><trkpt lat="42.3808026" lon="14.2382408"><ele>62.0</ele><time>2026-05-01T08:08:24.938Z</time></trkpt><trkpt lat="42.380845" lon="14.2381647"><ele>64.0</ele><time>2026-05-01T08:08:25.931Z</time></trkpt><trkpt lat="42.3808909" lon="14.2380906"><ele>66.0</ele><time>2026-05-01T08:08:26.942Z</time></trkpt><trkpt lat="42.380939" lon="14.2380155"><ele>68.0</ele><time>2026-05-01T08:08:27.936Z</time></trkpt><trkpt lat="42.3809783" lon="14.2379425"><ele>69.33333333333334</ele><time>2026-05-01T08:08:28.958Z</time></trkpt><trkpt lat="42.381025" lon="14.23787"><ele>70.66666666666667</ele><time>2026-05-01T08:08:29.924Z</time></trkpt><trkpt lat="42.3810876" lon="14.2377585"><ele>72.0</ele><time>2026-05-01T08:08:31.928Z</time></trkpt><trkpt lat="42.3811366" lon="14.2376819"><ele>73.33333333333333</ele><time>2026-05-01T08:08:33.939Z</time></trkpt><trkpt lat="42.381097" lon="14.2377529"><ele>74.66666666666666</ele><time>2026-05-01T08:08:58.93Z</time></trkpt><trkpt lat="42.3810418" lon="14.2378458"><ele>76.0</ele><time>2026-05-01T08:09:01.935Z</time></trkpt><trkpt lat="42.3809752" lon="14.2379429"><ele>76.0</ele><time>2026-05-01T08:09:04.931Z</time></trkpt><trkpt lat="42.3809264" lon="14.2380343"><ele>76.0</ele><time>2026-05-01T08:09:06.932Z</time></trkpt><trkpt lat="42.3808707" lon="14.2381238"><ele>76.0</ele><time>2026-05-01T08:09:08.934Z</time></trkpt><trkpt lat="42.3808237" lon="14.2381975"><ele>76.0</ele><time>2026-05-01T08:09:10.928Z</time></trkpt><trkpt lat="42.3807764" lon="14.2382813"><ele>76.0</ele><time>2026-05-01T08:09:12.934Z</time></trkpt><trkpt lat="42.3807317" lon="14.2383544"><ele>76.0</ele><time>2026-05-01T08:09:14.936Z</time></trkpt><trkpt lat="42.3806885" lon="14.23845"><ele>74.66666666666666</ele><time>2026-05-01T08:09:16.938Z</time></trkpt><trkpt lat="42.3806383" lon="14.2385397"><ele>73.33333333333333</ele><time>2026-05-01T08:09:18.936Z</time></trkpt><trkpt lat="42.3805736" lon="14.2386105"><ele>72.0</ele><time>2026-05-01T08:09:20.943Z</time></trkpt><trkpt lat="42.3805186" lon="14.2386734"><ele>70.66666666666667</ele><time>2026-05-01T08:09:22.932Z</time></trkpt><trkpt lat="42.3804489" lon="14.2387193"><ele>69.33333333333334</ele><time>2026-05-01T08:09:24.936Z</time></trkpt><trkpt lat="42.3803841" lon="14.2387709"><ele>68.0</ele><time>2026-05-01T08:09:26.932Z</time></trkpt><trkpt lat="42.3803023" lon="14.2388466"><ele>66.16666666666667</ele><time>2026-05-01T08:09:28.928Z</time></trkpt><trkpt lat="42.3802404" lon="14.2389153"><ele>64.33333333333334</ele><time>2026-05-01T08:09:30.933Z</time></trkpt><trkpt lat="42.3802023" lon="14.2389921"><ele>62.5</ele><time>2026-05-01T08:09:32.927Z</time></trkpt><trkpt lat="42.3801863" lon="14.2390921"><ele>60.66666666666667</ele><time>2026-05-01T08:09:34.936Z</time></trkpt><trkpt lat="42.3801841" lon="14.239182"><ele>58.833333333333336</ele><time>2026-05-01T08:09:36.936Z</time></trkpt><trkpt lat="42.3801202" lon="14.2391261"><ele>57.0</ele><time>2026-05-01T08:09:43.929Z</time></trkpt><trkpt lat="42.3800991" lon="14.2389908"><ele>57.0</ele><time>2026-05-01T08:09:45.93Z</time></trkpt><trkpt lat="42.3800546" lon="14.2389278"><ele>57.0</ele><time>2026-05-01T08:09:49.936Z</time></trkpt><trkpt lat="42.3800242" lon="14.2390029"><ele>57.0</ele><time>2026-05-01T08:09:58.932Z</time></trkpt><trkpt lat="42.3799947" lon="14.2390838"><ele>57.0</ele><time>2026-05-01T08:10:02.933Z</time></trkpt><trkpt lat="42.3799432" lon="14.2391966"><ele>57.0</ele><time>2026-05-01T08:10:05.935Z</time></trkpt><trkpt lat="42.3798923" lon="14.2392995"><ele>57.0</ele><time>2026-05-01T08:10:07.935Z</time></trkpt><trkpt lat="42.3798106" lon="14.2393589"><ele>57.0</ele><time>2026-05-01T08:10:09.933Z</time></trkpt><trkpt lat="42.3797241" lon="14.2394201"><ele>57.0</ele><time>2026-05-01T08:10:11.945Z</time></trkpt><trkpt lat="42.3796252" lon="14.2395"><ele>57.0</ele><time>2026-05-01T08:10:13.927Z</time></trkpt><trkpt lat="42.3795258" lon="14.2395671"><ele>57.0</ele><time>2026-05-01T08:10:15.938Z</time></trkpt><trkpt lat="42.3794069" lon="14.2396136"><ele>57.0</ele><time>2026-05-01T08:10:17.932Z</time></trkpt><trkpt lat="42.3793102" lon="14.2396383"><ele>56.333333333333336</ele><time>2026-05-01T08:10:19.934Z</time></trkpt><trkpt lat="42.3792248" lon="14.2396794"><ele>55.66666666666667</ele><time>2026-05-01T08:10:21.943Z</time></trkpt><trkpt lat="42.3791575" lon="14.2397265"><ele>55.0</ele><time>2026-05-01T08:10:23.938Z</time></trkpt><trkpt lat="42.3790945" lon="14.239769"><ele>54.333333333333336</ele><time>2026-05-01T08:10:26.937Z</time></trkpt><trkpt lat="42.3790367" lon="14.2398418"><ele>53.66666666666667</ele><time>2026-05-01T08:11:18.93Z</time></trkpt><trkpt lat="42.3789398" lon="14.239961"><ele>53.0</ele><time>2026-05-01T08:11:20.949Z</time></trkpt><trkpt lat="42.3788717" lon="14.2400083"><ele>52.00000000000001</ele><time>2026-05-01T08:11:21.936Z</time></trkpt><trkpt lat="42.3788028" lon="14.2400324"><ele>51.0</ele><time>2026-05-01T08:11:22.931Z</time></trkpt><trkpt lat="42.3787293" lon="14.2400402"><ele>50.0</ele><time>2026-05-01T08:11:23.931Z</time></trkpt><trkpt lat="42.378648" lon="14.2400359"><ele>49.0</ele><time>2026-05-01T08:11:24.93Z</time></trkpt><trkpt lat="42.3785599" lon="14.2400149"><ele>48.0</ele><time>2026-05-01T08:11:25.933Z</time></trkpt><trkpt lat="42.3784814" lon="14.2399876"><ele>47.0</ele><time>2026-05-01T08:11:26.934Z</time></trkpt><trkpt lat="42.3783932" lon="14.2399601"><ele>47.0</ele><time>2026-05-01T08:11:27.936Z</time></trkpt><trkpt lat="42.3783054" lon="14.2399237"><ele>47.0</ele><time>2026-05-01T08:11:28.932Z</time></trkpt><trkpt lat="42.378223" lon="14.2398731"><ele>47.0</ele><time>2026-05-01T08:11:29.934Z</time></trkpt><trkpt lat="42.3781337" lon="14.2398032"><ele>47.0</ele><time>2026-05-01T08:11:30.927Z</time></trkpt><trkpt lat="42.3780334" lon="14.2397343"><ele>47.0</ele><time>2026-05-01T08:11:31.935Z</time></trkpt><trkpt lat="42.3779233" lon="14.2396644"><ele>47.0</ele><time>2026-05-01T08:11:32.934Z</time></trkpt><trkpt lat="42.3778087" lon="14.2395903"><ele>47.0</ele><time>2026-05-01T08:11:33.946Z</time></trkpt><trkpt lat="42.3776918" lon="14.2395091"><ele>47.0</ele><time>2026-05-01T08:11:34.937Z</time></trkpt><trkpt lat="42.3775754" lon="14.2394261"><ele>47.0</ele><time>2026-05-01T08:11:35.937Z</time></trkpt><trkpt lat="42.377462" lon="14.2393431"><ele>47.0</ele><time>2026-05-01T08:11:36.934Z</time></trkpt><trkpt lat="42.3773621" lon="14.2392633"><ele>47.0</ele><time>2026-05-01T08:11:37.934Z</time></trkpt><trkpt lat="42.3772649" lon="14.2391898"><ele>47.0</ele><time>2026-05-01T08:11:38.933Z</time></trkpt><trkpt lat="42.3771815" lon="14.2391217"><ele>47.0</ele><time>2026-05-01T08:11:39.935Z</time></trkpt><trkpt lat="42.3771016" lon="14.2390473"><ele>47.0</ele><time>2026-05-01T08:11:40.939Z</time></trkpt><trkpt lat="42.3770226" lon="14.2389743"><ele>48.400000000000006</ele><time>2026-05-01T08:11:41.936Z</time></trkpt><trkpt lat="42.3769466" lon="14.2389029"><ele>49.800000000000004</ele><time>2026-05-01T08:11:42.941Z</time></trkpt><trkpt lat="42.3768699" lon="14.2388404"><ele>51.2</ele><time>2026-05-01T08:11:43.944Z</time></trkpt><trkpt lat="42.3767938" lon="14.2387741"><ele>52.6</ele><time>2026-05-01T08:11:44.934Z</time></trkpt><trkpt lat="42.3767174" lon="14.2387042"><ele>54.0</ele><time>2026-05-01T08:11:45.937Z</time></trkpt><trkpt lat="42.3766351" lon="14.238631"><ele>54.0</ele><time>2026-05-01T08:11:46.933Z</time></trkpt><trkpt lat="42.3765523" lon="14.238557"><ele>54.0</ele><time>2026-05-01T08:11:47.933Z</time></trkpt><trkpt lat="42.3764717" lon="14.2384804"><ele>54.0</ele><time>2026-05-01T08:11:48.948Z</time></trkpt><trkpt lat="42.3763985" lon="14.2384175"><ele>54.0</ele><time>2026-05-01T08:11:49.934Z</time></trkpt><trkpt lat="42.376339" lon="14.2383659"><ele>54.0</ele><time>2026-05-01T08:11:50.969Z</time></trkpt><trkpt lat="42.3762695" lon="14.2382836"><ele>54.0</ele><time>2026-05-01T08:11:52.935Z</time></trkpt><trkpt lat="42.376261" lon="14.2381854"><ele>54.400000000000006</ele><time>2026-05-01T08:11:54.94Z</time></trkpt><trkpt lat="42.3763115" lon="14.2380964"><ele>54.800000000000004</ele><time>2026-05-01T08:11:56.932Z</time></trkpt><trkpt lat="42.3763765" lon="14.2380371"><ele>55.199999999999996</ele><time>2026-05-01T08:11:58.939Z</time></trkpt><trkpt lat="42.3764246" lon="14.2378881"><ele>55.599999999999994</ele><time>2026-05-01T08:12:00.937Z</time></trkpt><trkpt lat="42.3764913" lon="14.2377596"><ele>56.0</ele><time>2026-05-01T08:12:02.934Z</time></trkpt><trkpt lat="42.3765628" lon="14.2376672"><ele>57.8</ele><time>2026-05-01T08:12:04.93Z</time></trkpt><trkpt lat="42.376655" lon="14.2376174"><ele>59.599999999999994</ele><time>2026-05-01T08:12:06.928Z</time></trkpt><trkpt lat="42.3767697" lon="14.2376254"><ele>61.4</ele><time>2026-05-01T08:12:08.922Z</time></trkpt><trkpt lat="42.3768845" lon="14.237655"><ele>63.2</ele><time>2026-05-01T08:12:10.938Z</time></trkpt><trkpt lat="42.3769912" lon="14.2376923"><ele>65.0</ele><time>2026-05-01T08:12:12.936Z</time></trkpt><trkpt lat="42.3770979" lon="14.2377196"><ele>66.8</ele><time>2026-05-01T08:12:14.941Z</time></trkpt><trkpt lat="42.3772011" lon="14.2377591"><ele>68.6</ele><time>2026-05-01T08:12:16.936Z</time></trkpt><trkpt lat="42.3773095" lon="14.2377847"><ele>70.4</ele><time>2026-05-01T08:12:18.933Z</time></trkpt><trkpt lat="42.3774212" lon="14.2378068"><ele>72.2</ele><time>2026-05-01T08:12:20.936Z</time></trkpt><trkpt lat="42.3775178" lon="14.2378303"><ele>74.0</ele><time>2026-05-01T08:12:22.934Z</time></trkpt><trkpt lat="42.3776247" lon="14.2378447"><ele>74.0</ele><time>2026-05-01T08:12:24.934Z</time></trkpt><trkpt lat="42.377725" lon="14.2378724"><ele>74.0</ele><time>2026-05-01T08:12:26.933Z</time></trkpt><trkpt lat="42.3778126" lon="14.2379103"><ele>74.0</ele><time>2026-05-01T08:12:28.936Z</time></trkpt><trkpt lat="42.3778927" lon="14.2379332"><ele>74.0</ele><time>2026-05-01T08:12:30.937Z</time></trkpt><trkpt lat="42.3779547" lon="14.2378765"><ele>74.0</ele><time>2026-05-01T08:12:33.95Z</time></trkpt><trkpt lat="42.3780162" lon="14.2378103"><ele>74.0</ele><time>2026-05-01T08:13:32.936Z</time></trkpt><trkpt lat="42.3779688" lon="14.2378706"><ele>74.0</ele><time>2026-05-01T08:13:44.94Z</time></trkpt><trkpt lat="42.3779168" lon="14.2379251"><ele>74.0</ele><time>2026-05-01T08:13:46.937Z</time></trkpt><trkpt lat="42.3778531" lon="14.2379294"><ele>74.0</ele><time>2026-05-01T08:13:48.944Z</time></trkpt><trkpt lat="42.3777924" lon="14.2378843"><ele>74.0</ele><time>2026-05-01T08:13:50.934Z</time></trkpt><trkpt lat="42.3776759" lon="14.2378086"><ele>74.0</ele><time>2026-05-01T08:13:52.934Z</time></trkpt><trkpt lat="42.3776012" lon="14.2377868"><ele>74.0</ele><time>2026-05-01T08:13:53.937Z</time></trkpt><trkpt lat="42.3775231" lon="14.2377715"><ele>74.0</ele><time>2026-05-01T08:13:54.929Z</time></trkpt><trkpt lat="42.377446" lon="14.237752"><ele>74.0</ele><time>2026-05-01T08:13:55.939Z</time></trkpt><trkpt lat="42.3773639" lon="14.2377319"><ele>74.0</ele><time>2026-05-01T08:13:56.952Z</time></trkpt><trkpt lat="42.3772878" lon="14.2377104"><ele>74.0</ele><time>2026-05-01T08:13:57.932Z</time></trkpt><trkpt lat="42.3772139" lon="14.2376929"><ele>74.0</ele><time>2026-05-01T08:13:58.94Z</time></trkpt><trkpt lat="42.3771445" lon="14.2376872"><ele>74.0</ele><time>2026-05-01T08:13:59.934Z</time></trkpt><trkpt lat="42.3770733" lon="14.2376816"><ele>72.71428571428572</ele><time>2026-05-01T08:14:00.944Z</time></trkpt><trkpt lat="42.3770094" lon="14.2376687"><ele>71.42857142857143</ele><time>2026-05-01T08:14:01.931Z</time></trkpt><trkpt lat="42.3769451" lon="14.2376566"><ele>70.14285714285714</ele><time>2026-05-01T08:14:02.936Z</time></trkpt><trkpt lat="42.3768814" lon="14.2376481"><ele>68.85714285714286</ele><time>2026-05-01T08:14:03.938Z</time></trkpt><trkpt lat="42.3768164" lon="14.2376297"><ele>67.57142857142857</ele><time>2026-05-01T08:14:04.933Z</time></trkpt><trkpt lat="42.3767498" lon="14.2376186"><ele>66.28571428571429</ele><time>2026-05-01T08:14:05.944Z</time></trkpt><trkpt lat="42.3766453" lon="14.2376264"><ele>65.0</ele><time>2026-05-01T08:14:07.936Z</time></trkpt><trkpt lat="42.376554" lon="14.2376666"><ele>65.0</ele><time>2026-05-01T08:14:09.937Z</time></trkpt><trkpt lat="42.3764735" lon="14.2377497"><ele>65.0</ele><time>2026-05-01T08:14:11.93Z</time></trkpt><trkpt lat="42.3764239" lon="14.2378043"><ele>65.0</ele><time>2026-05-01T08:14:12.942Z</time></trkpt><trkpt lat="42.3763532" lon="14.2379274"><ele>65.0</ele><time>2026-05-01T08:14:14.942Z</time></trkpt><trkpt lat="42.3762996" lon="14.2380498"><ele>65.0</ele><time>2026-05-01T08:14:16.935Z</time></trkpt><trkpt lat="42.3762297" lon="14.2381702"><ele>63.16666666666667</ele><time>2026-05-01T08:14:18.937Z</time></trkpt><trkpt lat="42.3762075" lon="14.2382557"><ele>61.333333333333336</ele><time>2026-05-01T08:14:20.934Z</time></trkpt><trkpt lat="42.3762921" lon="14.2383541"><ele>59.5</ele><time>2026-05-01T08:14:23.94Z</time></trkpt><trkpt lat="42.3763504" lon="14.2384068"><ele>57.66666666666667</ele><time>2026-05-01T08:14:24.932Z</time></trkpt><trkpt lat="42.3764077" lon="14.23847"><ele>55.833333333333336</ele><time>2026-05-01T08:14:25.939Z</time></trkpt><trkpt lat="42.3764736" lon="14.2385354"><ele>54.0</ele><time>2026-05-01T08:14:26.936Z</time></trkpt><trkpt lat="42.376534" lon="14.2386006"><ele>54.0</ele><time>2026-05-01T08:14:27.928Z</time></trkpt><trkpt lat="42.3765985" lon="14.2386577"><ele>54.0</ele><time>2026-05-01T08:14:28.951Z</time></trkpt><trkpt lat="42.3766609" lon="14.2387103"><ele>54.0</ele><time>2026-05-01T08:14:29.93Z</time></trkpt><trkpt lat="42.3767174" lon="14.2387513"><ele>54.0</ele><time>2026-05-01T08:14:30.935Z</time></trkpt><trkpt lat="42.3767907" lon="14.2387692"><ele>54.0</ele><time>2026-05-01T08:14:32.947Z</time></trkpt><trkpt lat="42.3767143" lon="14.2386728"><ele>54.0</ele><time>2026-05-01T08:14:47.934Z</time></trkpt><trkpt lat="42.376605" lon="14.2385877"><ele>54.0</ele><time>2026-05-01T08:14:49.941Z</time></trkpt><trkpt lat="42.3765391" lon="14.2385262"><ele>54.0</ele><time>2026-05-01T08:14:50.932Z</time></trkpt><trkpt lat="42.3764728" lon="14.2384636"><ele>54.0</ele><time>2026-05-01T08:14:51.937Z</time></trkpt><trkpt lat="42.3763986" lon="14.2383968"><ele>54.0</ele><time>2026-05-01T08:14:52.931Z</time></trkpt><trkpt lat="42.376324" lon="14.2383273"><ele>54.0</ele><time>2026-05-01T08:14:53.949Z</time></trkpt><trkpt lat="42.3762646" lon="14.2382655"><ele>54.0</ele><time>2026-05-01T08:14:54.936Z</time></trkpt><trkpt lat="42.3762153" lon="14.2381898"><ele>54.0</ele><time>2026-05-01T08:14:56.934Z</time></trkpt><trkpt lat="42.3762788" lon="14.2383126"><ele>54.00000000000001</ele><time>2026-05-01T08:15:03.936Z</time></trkpt><trkpt lat="42.3763463" lon="14.2383661"><ele>54.00000000000001</ele><time>2026-05-01T08:15:04.936Z</time></trkpt><trkpt lat="42.3764216" lon="14.2384393"><ele>54.0</ele><time>2026-05-01T08:15:05.937Z</time></trkpt><trkpt lat="42.3765147" lon="14.2385245"><ele>54.0</ele><time>2026-05-01T08:15:06.935Z</time></trkpt><trkpt lat="42.3766095" lon="14.2386183"><ele>54.0</ele><time>2026-05-01T08:15:07.936Z</time></trkpt><trkpt lat="42.3767086" lon="14.2387158"><ele>54.0</ele><time>2026-05-01T08:15:08.935Z</time></trkpt><trkpt lat="42.3768097" lon="14.2388101"><ele>54.0</ele><time>2026-05-01T08:15:09.942Z</time></trkpt><trkpt lat="42.3769175" lon="14.2388972"><ele>54.0</ele><time>2026-05-01T08:15:10.934Z</time></trkpt><trkpt lat="42.3770194" lon="14.2389919"><ele>52.25</ele><time>2026-05-01T08:15:11.931Z</time></trkpt><trkpt lat="42.3771236" lon="14.2390839"><ele>50.5</ele><time>2026-05-01T08:15:12.931Z</time></trkpt><trkpt lat="42.3772294" lon="14.2391692"><ele>48.75</ele><time>2026-05-01T08:15:13.938Z</time></trkpt><trkpt lat="42.3773269" lon="14.2392519"><ele>47.0</ele><time>2026-05-01T08:15:14.935Z</time></trkpt><trkpt lat="42.3774273" lon="14.2393308"><ele>47.0</ele><time>2026-05-01T08:15:15.932Z</time></trkpt><trkpt lat="42.3775255" lon="14.2394038"><ele>47.0</ele><time>2026-05-01T08:15:16.941Z</time></trkpt><trkpt lat="42.3776209" lon="14.2394734"><ele>47.0</ele><time>2026-05-01T08:15:17.933Z</time></trkpt><trkpt lat="42.3777071" lon="14.239535"><ele>47.0</ele><time>2026-05-01T08:15:18.936Z</time></trkpt><trkpt lat="42.3777926" lon="14.2395937"><ele>47.0</ele><time>2026-05-01T08:15:19.928Z</time></trkpt><trkpt lat="42.3778739" lon="14.2396373"><ele>47.0</ele><time>2026-05-01T08:15:20.931Z</time></trkpt><trkpt lat="42.3779384" lon="14.2396777"><ele>47.0</ele><time>2026-05-01T08:15:21.931Z</time></trkpt><trkpt lat="42.3779977" lon="14.2397148"><ele>47.0</ele><time>2026-05-01T08:15:22.935Z</time></trkpt><trkpt lat="42.3780831" lon="14.2397684"><ele>47.0</ele><time>2026-05-01T08:15:24.936Z</time></trkpt><trkpt lat="42.3781282" lon="14.2398308"><ele>47.0</ele><time>2026-05-01T08:15:53.939Z</time></trkpt><trkpt lat="42.3781583" lon="14.2399101"><ele>47.0</ele><time>2026-05-01T08:15:56.938Z</time></trkpt><trkpt lat="42.3781071" lon="14.2398456"><ele>47.0</ele><time>2026-05-01T08:16:07.934Z</time></trkpt><trkpt lat="42.3779904" lon="14.2398029"><ele>47.0</ele><time>2026-05-01T08:16:09.935Z</time></trkpt><trkpt lat="42.3779126" lon="14.2397602"><ele>47.0</ele><time>2026-05-01T08:16:10.937Z</time></trkpt><trkpt lat="42.377821" lon="14.239712"><ele>47.0</ele><time>2026-05-01T08:16:11.935Z</time></trkpt><trkpt lat="42.3777179" lon="14.239654"><ele>47.0</ele><time>2026-05-01T08:16:12.933Z</time></trkpt><trkpt lat="42.3776058" lon="14.2395898"><ele>47.0</ele><time>2026-05-01T08:16:13.941Z</time></trkpt><trkpt lat="42.3774858" lon="14.2395136"><ele>47.0</ele><time>2026-05-01T08:16:14.934Z</time></trkpt><trkpt lat="42.3773583" lon="14.2394249"><ele>47.0</ele><time>2026-05-01T08:16:15.939Z</time></trkpt><trkpt lat="42.3772357" lon="14.2393403"><ele>47.0</ele><time>2026-05-01T08:16:16.935Z</time></trkpt><trkpt lat="42.3771109" lon="14.2392378"><ele>47.0</ele><time>2026-05-01T08:16:17.929Z</time></trkpt><trkpt lat="42.3769836" lon="14.2391352"><ele>46.75</ele><time>2026-05-01T08:16:18.936Z</time></trkpt><trkpt lat="42.3768618" lon="14.2390391"><ele>46.5</ele><time>2026-05-01T08:16:19.932Z</time></trkpt><trkpt lat="42.3767425" lon="14.2389407"><ele>46.25</ele><time>2026-05-01T08:16:20.946Z</time></trkpt><trkpt lat="42.3766264" lon="14.2388453"><ele>46.0</ele><time>2026-05-01T08:16:21.933Z</time></trkpt><trkpt lat="42.3765118" lon="14.2387507"><ele>46.25</ele><time>2026-05-01T08:16:22.943Z</time></trkpt><trkpt lat="42.3763972" lon="14.238651"><ele>46.5</ele><time>2026-05-01T08:16:23.934Z</time></trkpt><trkpt lat="42.3762832" lon="14.2385564"><ele>46.75</ele><time>2026-05-01T08:16:24.938Z</time></trkpt><trkpt lat="42.3761652" lon="14.2384568"><ele>47.0</ele><time>2026-05-01T08:16:25.954Z</time></trkpt><trkpt lat="42.3760429" lon="14.2383558"><ele>47.0</ele><time>2026-05-01T08:16:26.936Z</time></trkpt><trkpt lat="42.3759194" lon="14.2382522"><ele>47.0</ele><time>2026-05-01T08:16:27.943Z</time></trkpt><trkpt lat="42.3757944" lon="14.2381467"><ele>47.0</ele><time>2026-05-01T08:16:28.934Z</time></trkpt><trkpt lat="42.3756637" lon="14.2380442"><ele>47.0</ele><time>2026-05-01T08:16:29.936Z</time></trkpt><trkpt lat="42.3755302" lon="14.2379404"><ele>47.666666666666664</ele><time>2026-05-01T08:16:30.93Z</time></trkpt><trkpt lat="42.3753931" lon="14.2378389"><ele>48.33333333333333</ele><time>2026-05-01T08:16:31.936Z</time></trkpt><trkpt lat="42.3752506" lon="14.2377282"><ele>49.0</ele><time>2026-05-01T08:16:32.948Z</time></trkpt><trkpt lat="42.3751169" lon="14.2376166"><ele>49.0</ele><time>2026-05-01T08:16:33.935Z</time></trkpt><trkpt lat="42.374978" lon="14.2375081"><ele>49.0</ele><time>2026-05-01T08:16:34.932Z</time></trkpt><trkpt lat="42.3748448" lon="14.2373973"><ele>49.0</ele><time>2026-05-01T08:16:35.94Z</time></trkpt><trkpt lat="42.3747132" lon="14.2372883"><ele>50.666666666666664</ele><time>2026-05-01T08:16:36.952Z</time></trkpt><trkpt lat="42.3745805" lon="14.2371754"><ele>52.33333333333333</ele><time>2026-05-01T08:16:37.929Z</time></trkpt><trkpt lat="42.3744451" lon="14.2370715"><ele>54.0</ele><time>2026-05-01T08:16:38.933Z</time></trkpt><trkpt lat="42.3743118" lon="14.2369693"><ele>54.0</ele><time>2026-05-01T08:16:39.928Z</time></trkpt><trkpt lat="42.3741807" lon="14.2368673"><ele>54.0</ele><time>2026-05-01T08:16:40.938Z</time></trkpt><trkpt lat="42.3740517" lon="14.2367674"><ele>54.0</ele><time>2026-05-01T08:16:41.954Z</time></trkpt><trkpt lat="42.3739205" lon="14.2366642"><ele>53.66666666666667</ele><time>2026-05-01T08:16:42.927Z</time></trkpt><trkpt lat="42.373787" lon="14.2365564"><ele>53.333333333333336</ele><time>2026-05-01T08:16:43.931Z</time></trkpt><trkpt lat="42.3736477" lon="14.2364602"><ele>53.0</ele><time>2026-05-01T08:16:44.948Z</time></trkpt><trkpt lat="42.373506" lon="14.236368"><ele>56.0</ele><time>2026-05-01T08:16:45.94Z</time></trkpt><trkpt lat="42.3733609" lon="14.236273"><ele>59.0</ele><time>2026-05-01T08:16:46.93Z</time></trkpt><trkpt lat="42.3732178" lon="14.2361779"><ele>62.0</ele><time>2026-05-01T08:16:47.943Z</time></trkpt><trkpt lat="42.3730745" lon="14.2360813"><ele>59.66666666666667</ele><time>2026-05-01T08:16:48.934Z</time></trkpt><trkpt lat="42.3729317" lon="14.2359914"><ele>57.33333333333333</ele><time>2026-05-01T08:16:49.931Z</time></trkpt><trkpt lat="42.3727876" lon="14.2358992"><ele>55.0</ele><time>2026-05-01T08:16:50.936Z</time></trkpt><trkpt lat="42.37265" lon="14.2358156"><ele>55.0</ele><time>2026-05-01T08:16:51.934Z</time></trkpt><trkpt lat="42.3725153" lon="14.2357295"><ele>55.0</ele><time>2026-05-01T08:16:52.936Z</time></trkpt><trkpt lat="42.3723947" lon="14.2356492"><ele>55.0</ele><time>2026-05-01T08:16:53.939Z</time></trkpt><trkpt lat="42.3722914" lon="14.2355746"><ele>55.0</ele><time>2026-05-01T08:16:54.934Z</time></trkpt><trkpt lat="42.3722155" lon="14.2355091"><ele>54.99999999999999</ele><time>2026-05-01T08:16:55.931Z</time></trkpt><trkpt lat="42.3721497" lon="14.2354507"><ele>55.0</ele><time>2026-05-01T08:16:56.938Z</time></trkpt><trkpt lat="42.3720921" lon="14.2353842"><ele>55.0</ele><time>2026-05-01T08:16:57.937Z</time></trkpt><trkpt lat="42.3720343" lon="14.2353162"><ele>55.0</ele><time>2026-05-01T08:16:58.945Z</time></trkpt><trkpt lat="42.3719741" lon="14.2352396"><ele>54.99999999999999</ele><time>2026-05-01T08:16:59.933Z</time></trkpt><trkpt lat="42.3719163" lon="14.2351675"><ele>55.0</ele><time>2026-05-01T08:17:00.932Z</time></trkpt><trkpt lat="42.3718626" lon="14.2351055"><ele>54.99999999999999</ele><time>2026-05-01T08:17:01.937Z</time></trkpt><trkpt lat="42.3717877" lon="14.2350092"><ele>55.0</ele><time>2026-05-01T08:17:03.944Z</time></trkpt><trkpt lat="42.3717378" lon="14.2349388"><ele>55.0</ele><time>2026-05-01T08:17:06.932Z</time></trkpt><trkpt lat="42.3716895" lon="14.2348593"><ele>55.0</ele><time>2026-05-01T08:17:08.941Z</time></trkpt><trkpt lat="42.3716379" lon="14.2348015"><ele>54.99999999999999</ele><time>2026-05-01T08:17:09.94Z</time></trkpt><trkpt lat="42.3715852" lon="14.2347326"><ele>55.0</ele><time>2026-05-01T08:17:10.941Z</time></trkpt><trkpt lat="42.3715123" lon="14.2346446"><ele>55.25</ele><time>2026-05-01T08:17:11.941Z</time></trkpt><trkpt lat="42.3714358" lon="14.2345447"><ele>55.5</ele><time>2026-05-01T08:17:12.94Z</time></trkpt><trkpt lat="42.3713464" lon="14.2344438"><ele>55.75</ele><time>2026-05-01T08:17:13.933Z</time></trkpt><trkpt lat="42.3712479" lon="14.2343541"><ele>56.0</ele><time>2026-05-01T08:17:14.936Z</time></trkpt><trkpt lat="42.3711442" lon="14.2342784"><ele>54.75</ele><time>2026-05-01T08:17:15.943Z</time></trkpt><trkpt lat="42.3710291" lon="14.2342118"><ele>53.5</ele><time>2026-05-01T08:17:16.939Z</time></trkpt><trkpt lat="42.3709092" lon="14.2341709"><ele>52.25</ele><time>2026-05-01T08:17:17.942Z</time></trkpt><trkpt lat="42.3707807" lon="14.2341604"><ele>51.0</ele><time>2026-05-01T08:17:18.934Z</time></trkpt><trkpt lat="42.3706546" lon="14.2341787"><ele>51.0</ele><time>2026-05-01T08:17:19.933Z</time></trkpt><trkpt lat="42.3705257" lon="14.2341943"><ele>51.0</ele><time>2026-05-01T08:17:20.932Z</time></trkpt><trkpt lat="42.3703948" lon="14.2342147"><ele>51.0</ele><time>2026-05-01T08:17:21.939Z</time></trkpt><trkpt lat="42.3702682" lon="14.2342309"><ele>51.0</ele><time>2026-05-01T08:17:22.934Z</time></trkpt><trkpt lat="42.3701359" lon="14.2342517"><ele>50.75</ele><time>2026-05-01T08:17:23.935Z</time></trkpt><trkpt lat="42.3700039" lon="14.2342671"><ele>50.5</ele><time>2026-05-01T08:17:24.948Z</time></trkpt><trkpt lat="42.3698729" lon="14.2342778"><ele>50.25</ele><time>2026-05-01T08:17:25.932Z</time></trkpt><trkpt lat="42.3697507" lon="14.2342928"><ele>50.0</ele><time>2026-05-01T08:17:26.941Z</time></trkpt><trkpt lat="42.3696295" lon="14.2343115"><ele>50.0</ele><time>2026-05-01T08:17:27.937Z</time></trkpt><trkpt lat="42.3695116" lon="14.2343309"><ele>50.0</ele><time>2026-05-01T08:17:28.931Z</time></trkpt><trkpt lat="42.3693983" lon="14.2343503"><ele>50.0</ele><time>2026-05-01T08:17:29.934Z</time></trkpt><trkpt lat="42.3692954" lon="14.2343517"><ele>50.0</ele><time>2026-05-01T08:17:30.945Z</time></trkpt><trkpt lat="42.3692072" lon="14.234362"><ele>50.0</ele><time>2026-05-01T08:17:31.934Z</time></trkpt><trkpt lat="42.369144" lon="14.2343775"><ele>50.00000000000001</ele><time>2026-05-01T08:17:32.937Z</time></trkpt><trkpt lat="42.369049" lon="14.2344024"><ele>50.0</ele><time>2026-05-01T08:17:34.935Z</time></trkpt><trkpt lat="42.3690099" lon="14.2344772"><ele>50.0</ele><time>2026-05-01T08:17:36.935Z</time></trkpt><trkpt lat="42.3690641" lon="14.2345469"><ele>50.0</ele><time>2026-05-01T08:17:38.933Z</time></trkpt><trkpt lat="42.3691234" lon="14.2345842"><ele>50.00000000000001</ele><time>2026-05-01T08:17:39.941Z</time></trkpt><trkpt lat="42.3692472" lon="14.2346007"><ele>50.0</ele><time>2026-05-01T08:17:41.936Z</time></trkpt><trkpt lat="42.3693152" lon="14.2346054"><ele>50.00000000000001</ele><time>2026-05-01T08:17:42.93Z</time></trkpt><trkpt lat="42.3693999" lon="14.2346194"><ele>50.0</ele><time>2026-05-01T08:17:43.943Z</time></trkpt><trkpt lat="42.3694901" lon="14.2346334"><ele>50.0</ele><time>2026-05-01T08:17:44.933Z</time></trkpt><trkpt lat="42.369578" lon="14.2346538"><ele>50.0</ele><time>2026-05-01T08:17:45.944Z</time></trkpt><trkpt lat="42.3696648" lon="14.2346661"><ele>50.00000000000001</ele><time>2026-05-01T08:17:46.927Z</time></trkpt><trkpt lat="42.3697471" lon="14.2346759"><ele>50.0</ele><time>2026-05-01T08:17:47.939Z</time></trkpt><trkpt lat="42.3698134" lon="14.2346812"><ele>49.333333333333336</ele><time>2026-05-01T08:17:48.935Z</time></trkpt><trkpt lat="42.3699067" lon="14.2347338"><ele>48.66666666666667</ele><time>2026-05-01T08:17:50.938Z</time></trkpt><trkpt lat="42.3699437" lon="14.2348741"><ele>48.0</ele><time>2026-05-01T08:17:52.94Z</time></trkpt><trkpt lat="42.3699531" lon="14.2349687"><ele>47.333333333333336</ele><time>2026-05-01T08:17:53.938Z</time></trkpt><trkpt lat="42.3699625" lon="14.2350742"><ele>46.66666666666667</ele><time>2026-05-01T08:17:54.933Z</time></trkpt><trkpt lat="42.369971" lon="14.2351771"><ele>46.0</ele><time>2026-05-01T08:17:55.941Z</time></trkpt><trkpt lat="42.3699839" lon="14.2352763"><ele>45.333333333333336</ele><time>2026-05-01T08:17:56.943Z</time></trkpt><trkpt lat="42.3700266" lon="14.2354235"><ele>44.66666666666667</ele><time>2026-05-01T08:17:58.933Z</time></trkpt><trkpt lat="42.370046" lon="14.2355053"><ele>44.0</ele><time>2026-05-01T08:17:59.943Z</time></trkpt><trkpt lat="42.3700656" lon="14.2356051"><ele>43.333333333333336</ele><time>2026-05-01T08:18:00.936Z</time></trkpt><trkpt lat="42.370085" lon="14.2357009"><ele>42.666666666666664</ele><time>2026-05-01T08:18:01.945Z</time></trkpt><trkpt lat="42.3701061" lon="14.2358464"><ele>42.0</ele><time>2026-05-01T08:18:03.929Z</time></trkpt><trkpt lat="42.3701049" lon="14.2360113"><ele>42.0</ele><time>2026-05-01T08:18:05.934Z</time></trkpt><trkpt lat="42.3700834" lon="14.2361116"><ele>42.0</ele><time>2026-05-01T08:18:06.931Z</time></trkpt><trkpt lat="42.3700498" lon="14.2362191"><ele>42.0</ele><time>2026-05-01T08:18:07.932Z</time></trkpt><trkpt lat="42.3700211" lon="14.2363278"><ele>42.0</ele><time>2026-05-01T08:18:08.929Z</time></trkpt><trkpt lat="42.3699963" lon="14.2364366"><ele>42.0</ele><time>2026-05-01T08:18:09.945Z</time></trkpt><trkpt lat="42.3699761" lon="14.2365457"><ele>42.0</ele><time>2026-05-01T08:18:10.936Z</time></trkpt><trkpt lat="42.3699598" lon="14.2366531"><ele>42.166666666666664</ele><time>2026-05-01T08:18:11.938Z</time></trkpt><trkpt lat="42.3699509" lon="14.2367588"><ele>42.333333333333336</ele><time>2026-05-01T08:18:12.942Z</time></trkpt><trkpt lat="42.3699527" lon="14.2368591"><ele>42.5</ele><time>2026-05-01T08:18:13.931Z</time></trkpt><trkpt lat="42.3699643" lon="14.2369631"><ele>42.66666666666667</ele><time>2026-05-01T08:18:14.931Z</time></trkpt><trkpt lat="42.369988" lon="14.2370618"><ele>42.833333333333336</ele><time>2026-05-01T08:18:15.926Z</time></trkpt><trkpt lat="42.370026" lon="14.2371524"><ele>43.0</ele><time>2026-05-01T08:18:16.932Z</time></trkpt><trkpt lat="42.3700748" lon="14.2372323"><ele>42.8</ele><time>2026-05-01T08:18:17.938Z</time></trkpt><trkpt lat="42.3701344" lon="14.2373051"><ele>42.599999999999994</ele><time>2026-05-01T08:18:18.929Z</time></trkpt><trkpt lat="42.3702085" lon="14.2373677"><ele>42.400000000000006</ele><time>2026-05-01T08:18:19.933Z</time></trkpt><trkpt lat="42.3702886" lon="14.2374287"><ele>42.2</ele><time>2026-05-01T08:18:20.943Z</time></trkpt><trkpt lat="42.3703699" lon="14.2374921"><ele>42.0</ele><time>2026-05-01T08:18:21.94Z</time></trkpt><trkpt lat="42.3704535" lon="14.2375624"><ele>42.0</ele><time>2026-05-01T08:18:22.939Z</time></trkpt><trkpt lat="42.3705321" lon="14.2376365"><ele>42.0</ele><time>2026-05-01T08:18:23.933Z</time></trkpt><trkpt lat="42.370608" lon="14.2377053"><ele>42.0</ele><time>2026-05-01T08:18:24.946Z</time></trkpt><trkpt lat="42.3706838" lon="14.2377699"><ele>42.0</ele><time>2026-05-01T08:18:25.934Z</time></trkpt><trkpt lat="42.3707603" lon="14.2378306"><ele>42.0</ele><time>2026-05-01T08:18:26.938Z</time></trkpt><trkpt lat="42.3708341" lon="14.237885"><ele>42.0</ele><time>2026-05-01T08:18:27.935Z</time></trkpt><trkpt lat="42.3709026" lon="14.2379386"><ele>42.0</ele><time>2026-05-01T08:18:28.944Z</time></trkpt><trkpt lat="42.3709765" lon="14.2379949"><ele>42.0</ele><time>2026-05-01T08:18:29.929Z</time></trkpt><trkpt lat="42.3710538" lon="14.2380532"><ele>42.0</ele><time>2026-05-01T08:18:30.942Z</time></trkpt><trkpt lat="42.3711165" lon="14.2381106"><ele>42.0</ele><time>2026-05-01T08:18:31.94Z</time></trkpt><trkpt lat="42.3711755" lon="14.2381633"><ele>42.0</ele><time>2026-05-01T08:18:32.948Z</time></trkpt><trkpt lat="42.3712348" lon="14.2382079"><ele>42.0</ele><time>2026-05-01T08:18:33.935Z</time></trkpt><trkpt lat="42.3713002" lon="14.2382574"><ele>42.166666666666664</ele><time>2026-05-01T08:18:34.939Z</time></trkpt><trkpt lat="42.3713659" lon="14.2383238"><ele>42.333333333333336</ele><time>2026-05-01T08:18:35.941Z</time></trkpt><trkpt lat="42.3714322" lon="14.2383853"><ele>42.5</ele><time>2026-05-01T08:18:36.938Z</time></trkpt><trkpt lat="42.3714982" lon="14.2384456"><ele>42.66666666666667</ele><time>2026-05-01T08:18:37.941Z</time></trkpt><trkpt lat="42.3715665" lon="14.2384997"><ele>42.833333333333336</ele><time>2026-05-01T08:18:38.945Z</time></trkpt><trkpt lat="42.3716363" lon="14.2385631"><ele>43.0</ele><time>2026-05-01T08:18:39.931Z</time></trkpt><trkpt lat="42.3717054" lon="14.2386372"><ele>43.0</ele><time>2026-05-01T08:18:40.944Z</time></trkpt><trkpt lat="42.3717693" lon="14.2387342"><ele>43.0</ele><time>2026-05-01T08:18:41.93Z</time></trkpt><trkpt lat="42.3718381" lon="14.2388336"><ele>43.0</ele><time>2026-05-01T08:18:42.942Z</time></trkpt><trkpt lat="42.3719066" lon="14.2389382"><ele>43.0</ele><time>2026-05-01T08:18:43.939Z</time></trkpt><trkpt lat="42.3719759" lon="14.2390438"><ele>43.0</ele><time>2026-05-01T08:18:44.929Z</time></trkpt><trkpt lat="42.3720502" lon="14.2391521"><ele>42.599999999999994</ele><time>2026-05-01T08:18:45.935Z</time></trkpt><trkpt lat="42.3721281" lon="14.2392586"><ele>42.199999999999996</ele><time>2026-05-01T08:18:46.939Z</time></trkpt><trkpt lat="42.3722038" lon="14.239361"><ele>41.8</ele><time>2026-05-01T08:18:47.938Z</time></trkpt><trkpt lat="42.3722769" lon="14.2394566"><ele>41.4</ele><time>2026-05-01T08:18:48.935Z</time></trkpt><trkpt lat="42.3723436" lon="14.2395296"><ele>41.0</ele><time>2026-05-01T08:18:49.937Z</time></trkpt><trkpt lat="42.372398" lon="14.2395854"><ele>41.0</ele><time>2026-05-01T08:18:50.939Z</time></trkpt><trkpt lat="42.3725015" lon="14.2396867"><ele>41.0</ele><time>2026-05-01T08:18:52.944Z</time></trkpt><trkpt lat="42.3725649" lon="14.2397401"><ele>41.0</ele><time>2026-05-01T08:18:53.942Z</time></trkpt><trkpt lat="42.3726207" lon="14.2397915"><ele>41.0</ele><time>2026-05-01T08:18:54.942Z</time></trkpt><trkpt lat="42.3726843" lon="14.2398617"><ele>41.0</ele><time>2026-05-01T08:18:56.935Z</time></trkpt><trkpt lat="42.3727892" lon="14.2399527"><ele>41.14285714285714</ele><time>2026-05-01T08:18:58.937Z</time></trkpt><trkpt lat="42.3728445" lon="14.2400017"><ele>41.285714285714285</ele><time>2026-05-01T08:18:59.935Z</time></trkpt><trkpt lat="42.3729046" lon="14.2400535"><ele>41.42857142857143</ele><time>2026-05-01T08:19:00.942Z</time></trkpt><trkpt lat="42.3729637" lon="14.240107"><ele>41.57142857142857</ele><time>2026-05-01T08:19:01.945Z</time></trkpt><trkpt lat="42.3730226" lon="14.2401565"><ele>41.714285714285715</ele><time>2026-05-01T08:19:02.937Z</time></trkpt><trkpt lat="42.3730858" lon="14.2401996"><ele>41.857142857142854</ele><time>2026-05-01T08:19:03.942Z</time></trkpt><trkpt lat="42.3731489" lon="14.240244"><ele>42.0</ele><time>2026-05-01T08:19:04.929Z</time></trkpt><trkpt lat="42.3732073" lon="14.2402833"><ele>42.6</ele><time>2026-05-01T08:19:05.934Z</time></trkpt><trkpt lat="42.3733157" lon="14.240354"><ele>43.2</ele><time>2026-05-01T08:19:07.943Z</time></trkpt><trkpt lat="42.3734268" lon="14.2404652"><ele>43.8</ele><time>2026-05-01T08:19:09.94Z</time></trkpt><trkpt lat="42.3734895" lon="14.2405291"><ele>44.4</ele><time>2026-05-01T08:19:10.935Z</time></trkpt><trkpt lat="42.3735499" lon="14.2405998"><ele>45.0</ele><time>2026-05-01T08:19:11.941Z</time></trkpt><trkpt lat="42.3736134" lon="14.2406789"><ele>45.0</ele><time>2026-05-01T08:19:12.932Z</time></trkpt><trkpt lat="42.3736873" lon="14.2407689"><ele>45.0</ele><time>2026-05-01T08:19:13.937Z</time></trkpt><trkpt lat="42.3737695" lon="14.2408666"><ele>45.0</ele><time>2026-05-01T08:19:14.924Z</time></trkpt><trkpt lat="42.3738596" lon="14.2409734"><ele>45.0</ele><time>2026-05-01T08:19:15.935Z</time></trkpt><trkpt lat="42.3739404" lon="14.2410632"><ele>45.0</ele><time>2026-05-01T08:19:16.936Z</time></trkpt><trkpt lat="42.3740237" lon="14.2411382"><ele>44.0</ele><time>2026-05-01T08:19:17.939Z</time></trkpt><trkpt lat="42.3741216" lon="14.2412038"><ele>43.0</ele><time>2026-05-01T08:19:18.941Z</time></trkpt><trkpt lat="42.3742247" lon="14.2412712"><ele>42.0</ele><time>2026-05-01T08:19:19.945Z</time></trkpt><trkpt lat="42.3743209" lon="14.2413358"><ele>41.0</ele><time>2026-05-01T08:19:20.934Z</time></trkpt><trkpt lat="42.3744141" lon="14.2414017"><ele>40.0</ele><time>2026-05-01T08:19:21.952Z</time></trkpt><trkpt lat="42.3745004" lon="14.2414692"><ele>40.0</ele><time>2026-05-01T08:19:22.936Z</time></trkpt><trkpt lat="42.3745851" lon="14.241553"><ele>40.0</ele><time>2026-05-01T08:19:23.938Z</time></trkpt><trkpt lat="42.3746735" lon="14.2416492"><ele>40.0</ele><time>2026-05-01T08:19:24.937Z</time></trkpt><trkpt lat="42.3747612" lon="14.2417579"><ele>40.0</ele><time>2026-05-01T08:19:25.933Z</time></trkpt><trkpt lat="42.3748467" lon="14.2418602"><ele>39.8</ele><time>2026-05-01T08:19:26.935Z</time></trkpt><trkpt lat="42.374932" lon="14.2419596"><ele>39.6</ele><time>2026-05-01T08:19:27.938Z</time></trkpt><trkpt lat="42.375014" lon="14.2420597"><ele>39.4</ele><time>2026-05-01T08:19:28.933Z</time></trkpt><trkpt lat="42.3750856" lon="14.2421609"><ele>39.2</ele><time>2026-05-01T08:19:29.935Z</time></trkpt><trkpt lat="42.3751502" lon="14.2422556"><ele>39.0</ele><time>2026-05-01T08:19:30.939Z</time></trkpt><trkpt lat="42.3752022" lon="14.2423454"><ele>39.0</ele><time>2026-05-01T08:19:31.951Z</time></trkpt><trkpt lat="42.3752365" lon="14.2424239"><ele>39.0</ele><time>2026-05-01T08:19:32.937Z</time></trkpt><trkpt lat="42.375256" lon="14.2425969"><ele>39.0</ele><time>2026-05-01T08:19:34.936Z</time></trkpt><trkpt lat="42.3752531" lon="14.242709"><ele>39.0</ele><time>2026-05-01T08:19:35.937Z</time></trkpt><trkpt lat="42.3752369" lon="14.242827"><ele>39.0</ele><time>2026-05-01T08:19:36.934Z</time></trkpt><trkpt lat="42.3752008" lon="14.2429465"><ele>39.0</ele><time>2026-05-01T08:19:37.932Z</time></trkpt><trkpt lat="42.3751599" lon="14.2430663"><ele>39.0</ele><time>2026-05-01T08:19:38.934Z</time></trkpt><trkpt lat="42.3751228" lon="14.2431847"><ele>39.0</ele><time>2026-05-01T08:19:39.931Z</time></trkpt><trkpt lat="42.3750857" lon="14.2433218"><ele>39.0</ele><time>2026-05-01T08:19:40.942Z</time></trkpt><trkpt lat="42.3750387" lon="14.2434661"><ele>39.0</ele><time>2026-05-01T08:19:41.94Z</time></trkpt><trkpt lat="42.3749898" lon="14.2436223"><ele>40.5</ele><time>2026-05-01T08:19:42.935Z</time></trkpt><trkpt lat="42.374941" lon="14.2437798"><ele>42.0</ele><time>2026-05-01T08:19:43.94Z</time></trkpt><trkpt lat="42.3748922" lon="14.2439252"><ele>43.5</ele><time>2026-05-01T08:19:44.945Z</time></trkpt><trkpt lat="42.3748395" lon="14.2440716"><ele>45.0</ele><time>2026-05-01T08:19:45.94Z</time></trkpt><trkpt lat="42.3747818" lon="14.2442212"><ele>46.5</ele><time>2026-05-01T08:19:46.931Z</time></trkpt><trkpt lat="42.3747244" lon="14.2443774"><ele>48.0</ele><time>2026-05-01T08:19:47.934Z</time></trkpt><trkpt lat="42.3746682" lon="14.2445443"><ele>49.5</ele><time>2026-05-01T08:19:48.934Z</time></trkpt><trkpt lat="42.3746195" lon="14.2447211"><ele>51.0</ele><time>2026-05-01T08:19:49.938Z</time></trkpt><trkpt lat="42.3745745" lon="14.244902"><ele>55.0</ele><time>2026-05-01T08:19:50.942Z</time></trkpt><trkpt lat="42.3745322" lon="14.2450837"><ele>59.0</ele><time>2026-05-01T08:19:51.936Z</time></trkpt><trkpt lat="42.3744965" lon="14.2452714"><ele>63.0</ele><time>2026-05-01T08:19:52.931Z</time></trkpt><trkpt lat="42.3744615" lon="14.2454569"><ele>67.0</ele><time>2026-05-01T08:19:53.936Z</time></trkpt><trkpt lat="42.3744215" lon="14.2456344"><ele>68.5</ele><time>2026-05-01T08:19:54.938Z</time></trkpt><trkpt lat="42.374382" lon="14.2458193"><ele>70.0</ele><time>2026-05-01T08:19:55.932Z</time></trkpt><trkpt lat="42.3743418" lon="14.245997"><ele>71.5</ele><time>2026-05-01T08:19:56.933Z</time></trkpt><trkpt lat="42.3742925" lon="14.246164"><ele>73.0</ele><time>2026-05-01T08:19:57.936Z</time></trkpt><trkpt lat="42.3742361" lon="14.2463181"><ele>73.0</ele><time>2026-05-01T08:19:58.929Z</time></trkpt><trkpt lat="42.3741689" lon="14.2464519"><ele>73.0</ele><time>2026-05-01T08:19:59.934Z</time></trkpt><trkpt lat="42.3740923" lon="14.2465855"><ele>73.0</ele><time>2026-05-01T08:20:00.926Z</time></trkpt><trkpt lat="42.3740192" lon="14.2467099"><ele>73.0</ele><time>2026-05-01T08:20:01.933Z</time></trkpt><trkpt lat="42.3739796" lon="14.2468141"><ele>73.0</ele><time>2026-05-01T08:20:02.934Z</time></trkpt><trkpt lat="42.3739621" lon="14.246908"><ele>73.4</ele><time>2026-05-01T08:20:03.936Z</time></trkpt><trkpt lat="42.3739754" lon="14.2470117"><ele>73.8</ele><time>2026-05-01T08:20:04.942Z</time></trkpt><trkpt lat="42.373995" lon="14.2471196"><ele>74.2</ele><time>2026-05-01T08:20:05.935Z</time></trkpt><trkpt lat="42.3739941" lon="14.2472404"><ele>74.6</ele><time>2026-05-01T08:20:06.941Z</time></trkpt><trkpt lat="42.3739688" lon="14.2473709"><ele>75.0</ele><time>2026-05-01T08:20:07.928Z</time></trkpt><trkpt lat="42.3739313" lon="14.2475115"><ele>76.2</ele><time>2026-05-01T08:20:08.938Z</time></trkpt><trkpt lat="42.3738949" lon="14.247659"><ele>77.4</ele><time>2026-05-01T08:20:09.942Z</time></trkpt><trkpt lat="42.3738647" lon="14.2477887"><ele>78.6</ele><time>2026-05-01T08:20:10.941Z</time></trkpt><trkpt lat="42.3738369" lon="14.2479044"><ele>79.8</ele><time>2026-05-01T08:20:11.939Z</time></trkpt><trkpt lat="42.3738221" lon="14.2480128"><ele>81.0</ele><time>2026-05-01T08:20:12.938Z</time></trkpt><trkpt lat="42.3738244" lon="14.2481291"><ele>86.0</ele><time>2026-05-01T08:20:13.94Z</time></trkpt><trkpt lat="42.3738356" lon="14.2482768"><ele>91.0</ele><time>2026-05-01T08:20:14.943Z</time></trkpt><trkpt lat="42.373831" lon="14.2484361"><ele>96.0</ele><time>2026-05-01T08:20:15.938Z</time></trkpt><trkpt lat="42.3738297" lon="14.2486006"><ele>101.0</ele><time>2026-05-01T08:20:16.943Z</time></trkpt><trkpt lat="42.3738227" lon="14.2487642"><ele>101.0</ele><time>2026-05-01T08:20:17.94Z</time></trkpt><trkpt lat="42.3738042" lon="14.2489237"><ele>101.0</ele><time>2026-05-01T08:20:18.94Z</time></trkpt><trkpt lat="42.3737704" lon="14.2490928"><ele>101.0</ele><time>2026-05-01T08:20:19.931Z</time></trkpt><trkpt lat="42.3737258" lon="14.2492717"><ele>101.0</ele><time>2026-05-01T08:20:20.931Z</time></trkpt><trkpt lat="42.3736822" lon="14.2494615"><ele>102.5</ele><time>2026-05-01T08:20:21.929Z</time></trkpt><trkpt lat="42.3736501" lon="14.2496552"><ele>104.0</ele><time>2026-05-01T08:20:22.932Z</time></trkpt><trkpt lat="42.3736193" lon="14.2498323"><ele>105.5</ele><time>2026-05-01T08:20:23.929Z</time></trkpt><trkpt lat="42.3735808" lon="14.2499859"><ele>107.0</ele><time>2026-05-01T08:20:24.938Z</time></trkpt><trkpt lat="42.3735386" lon="14.2501176"><ele>107.6</ele><time>2026-05-01T08:20:25.935Z</time></trkpt><trkpt lat="42.373503" lon="14.2502244"><ele>108.19999999999999</ele><time>2026-05-01T08:20:26.929Z</time></trkpt><trkpt lat="42.3735407" lon="14.2503798"><ele>108.8</ele><time>2026-05-01T08:20:28.934Z</time></trkpt><trkpt lat="42.3736173" lon="14.2504333"><ele>109.4</ele><time>2026-05-01T08:20:29.939Z</time></trkpt><trkpt lat="42.3737027" lon="14.2504864"><ele>110.0</ele><time>2026-05-01T08:20:30.936Z</time></trkpt><trkpt lat="42.3737868" lon="14.2505468"><ele>110.0</ele><time>2026-05-01T08:20:31.935Z</time></trkpt><trkpt lat="42.3738524" lon="14.25062"><ele>110.0</ele><time>2026-05-01T08:20:32.942Z</time></trkpt><trkpt lat="42.373913" lon="14.2507166"><ele>110.0</ele><time>2026-05-01T08:20:33.932Z</time></trkpt><trkpt lat="42.3739748" lon="14.2508293"><ele>110.0</ele><time>2026-05-01T08:20:34.934Z</time></trkpt><trkpt lat="42.374027" lon="14.2509507"><ele>110.0</ele><time>2026-05-01T08:20:35.948Z</time></trkpt><trkpt lat="42.3740616" lon="14.2510706"><ele>110.0</ele><time>2026-05-01T08:20:36.935Z</time></trkpt><trkpt lat="42.3740754" lon="14.2512029"><ele>110.0</ele><time>2026-05-01T08:20:37.936Z</time></trkpt><trkpt lat="42.3740739" lon="14.2513612"><ele>110.0</ele><time>2026-05-01T08:20:38.931Z</time></trkpt><trkpt lat="42.3740576" lon="14.2515341"><ele>110.0</ele><time>2026-05-01T08:20:39.931Z</time></trkpt><trkpt lat="42.3740225" lon="14.2516964"><ele>112.25</ele><time>2026-05-01T08:20:40.935Z</time></trkpt><trkpt lat="42.3739865" lon="14.2518653"><ele>114.5</ele><time>2026-05-01T08:20:41.932Z</time></trkpt><trkpt lat="42.3739428" lon="14.2520485"><ele>116.75</ele><time>2026-05-01T08:20:42.927Z</time></trkpt><trkpt lat="42.373901" lon="14.2522295"><ele>119.0</ele><time>2026-05-01T08:20:43.939Z</time></trkpt><trkpt lat="42.3738518" lon="14.2524185"><ele>125.0</ele><time>2026-05-01T08:20:44.927Z</time></trkpt><trkpt lat="42.3738171" lon="14.2526073"><ele>131.0</ele><time>2026-05-01T08:20:45.945Z</time></trkpt><trkpt lat="42.3737906" lon="14.2527949"><ele>137.0</ele><time>2026-05-01T08:20:46.932Z</time></trkpt><trkpt lat="42.3737748" lon="14.2529852"><ele>143.0</ele><time>2026-05-01T08:20:47.927Z</time></trkpt><trkpt lat="42.3737736" lon="14.2531683"><ele>147.5</ele><time>2026-05-01T08:20:48.923Z</time></trkpt><trkpt lat="42.3737699" lon="14.2533469"><ele>152.0</ele><time>2026-05-01T08:20:49.939Z</time></trkpt><trkpt lat="42.373772" lon="14.2535252"><ele>156.5</ele><time>2026-05-01T08:20:50.926Z</time></trkpt><trkpt lat="42.3737854" lon="14.2537042"><ele>161.0</ele><time>2026-05-01T08:20:51.938Z</time></trkpt><trkpt lat="42.3738027" lon="14.2538824"><ele>159.75</ele><time>2026-05-01T08:20:52.941Z</time></trkpt><trkpt lat="42.3738186" lon="14.2540505"><ele>158.5</ele><time>2026-05-01T08:20:53.922Z</time></trkpt><trkpt lat="42.3738464" lon="14.2542029"><ele>157.25</ele><time>2026-05-01T08:20:54.937Z</time></trkpt><trkpt lat="42.3738834" lon="14.2543493"><ele>156.0</ele><time>2026-05-01T08:20:55.932Z</time></trkpt><trkpt lat="42.3739291" lon="14.2544899"><ele>156.0</ele><time>2026-05-01T08:20:56.934Z</time></trkpt><trkpt lat="42.3739828" lon="14.2546268"><ele>156.0</ele><time>2026-05-01T08:20:57.934Z</time></trkpt><trkpt lat="42.3740445" lon="14.2547704"><ele>156.0</ele><time>2026-05-01T08:20:58.934Z</time></trkpt><trkpt lat="42.3741159" lon="14.2549047"><ele>156.0</ele><time>2026-05-01T08:20:59.932Z</time></trkpt><trkpt lat="42.3741895" lon="14.2550245"><ele>157.6</ele><time>2026-05-01T08:21:00.933Z</time></trkpt><trkpt lat="42.3742517" lon="14.2551477"><ele>159.2</ele><time>2026-05-01T08:21:01.934Z</time></trkpt><trkpt lat="42.3743084" lon="14.2552872"><ele>160.79999999999998</ele><time>2026-05-01T08:21:02.93Z</time></trkpt><trkpt lat="42.3743598" lon="14.2554235"><ele>162.39999999999998</ele><time>2026-05-01T08:21:03.934Z</time></trkpt><trkpt lat="42.3743959" lon="14.2555455"><ele>164.0</ele><time>2026-05-01T08:21:04.935Z</time></trkpt><trkpt lat="42.3744191" lon="14.2556554"><ele>164.33333333333331</ele><time>2026-05-01T08:21:05.936Z</time></trkpt><trkpt lat="42.3744297" lon="14.2557568"><ele>164.66666666666666</ele><time>2026-05-01T08:21:06.935Z</time></trkpt><trkpt lat="42.37442" lon="14.2558426"><ele>165.0</ele><time>2026-05-01T08:21:07.935Z</time></trkpt><trkpt lat="42.3743938" lon="14.2559519"><ele>165.33333333333334</ele><time>2026-05-01T08:21:09.937Z</time></trkpt><trkpt lat="42.3743986" lon="14.2560573"><ele>165.66666666666669</ele><time>2026-05-01T08:21:12.936Z</time></trkpt><trkpt lat="42.3745119" lon="14.2561762"><ele>166.0</ele><time>2026-05-01T08:21:14.938Z</time></trkpt><trkpt lat="42.3745962" lon="14.2562573"><ele>166.5</ele><time>2026-05-01T08:21:15.936Z</time></trkpt><trkpt lat="42.3746913" lon="14.256349"><ele>167.0</ele><time>2026-05-01T08:21:16.942Z</time></trkpt><trkpt lat="42.3748015" lon="14.2564588"><ele>167.5</ele><time>2026-05-01T08:21:17.944Z</time></trkpt><trkpt lat="42.3749224" lon="14.2565719"><ele>168.0</ele><time>2026-05-01T08:21:18.934Z</time></trkpt><trkpt lat="42.3750439" lon="14.2567001"><ele>168.0</ele><time>2026-05-01T08:21:19.943Z</time></trkpt><trkpt lat="42.3751641" lon="14.2568316"><ele>168.0</ele><time>2026-05-01T08:21:20.946Z</time></trkpt><trkpt lat="42.3752802" lon="14.2569804"><ele>168.0</ele><time>2026-05-01T08:21:21.946Z</time></trkpt><trkpt lat="42.3753947" lon="14.2571473"><ele>168.66666666666666</ele><time>2026-05-01T08:21:22.94Z</time></trkpt><trkpt lat="42.375504" lon="14.2573284"><ele>169.33333333333331</ele><time>2026-05-01T08:21:23.936Z</time></trkpt><trkpt lat="42.3756171" lon="14.2575062"><ele>170.0</ele><time>2026-05-01T08:21:24.935Z</time></trkpt><trkpt lat="42.375726" lon="14.2576847"><ele>170.0</ele><time>2026-05-01T08:21:25.941Z</time></trkpt><trkpt lat="42.375837" lon="14.2578625"><ele>170.0</ele><time>2026-05-01T08:21:26.951Z</time></trkpt><trkpt lat="42.3759492" lon="14.2580402"><ele>170.0</ele><time>2026-05-01T08:21:27.931Z</time></trkpt><trkpt lat="42.3760643" lon="14.258222"><ele>172.0</ele><time>2026-05-01T08:21:28.932Z</time></trkpt><trkpt lat="42.3761744" lon="14.2584026"><ele>174.0</ele><time>2026-05-01T08:21:29.934Z</time></trkpt><trkpt lat="42.3762781" lon="14.2585732"><ele>176.0</ele><time>2026-05-01T08:21:30.938Z</time></trkpt><trkpt lat="42.3763719" lon="14.2587289"><ele>176.0</ele><time>2026-05-01T08:21:31.936Z</time></trkpt><trkpt lat="42.3764551" lon="14.2588623"><ele>176.0</ele><time>2026-05-01T08:21:32.933Z</time></trkpt><trkpt lat="42.3765316" lon="14.2589778"><ele>176.0</ele><time>2026-05-01T08:21:33.939Z</time></trkpt><trkpt lat="42.3765999" lon="14.2590844"><ele>176.0</ele><time>2026-05-01T08:21:34.937Z</time></trkpt><trkpt lat="42.3766612" lon="14.2591908"><ele>176.0</ele><time>2026-05-01T08:21:35.94Z</time></trkpt><trkpt lat="42.3767152" lon="14.2592801"><ele>175.60000000000002</ele><time>2026-05-01T08:21:36.937Z</time></trkpt><trkpt lat="42.3767628" lon="14.2593566"><ele>175.2</ele><time>2026-05-01T08:21:37.932Z</time></trkpt><trkpt lat="42.3767905" lon="14.259485"><ele>174.8</ele><time>2026-05-01T08:21:39.944Z</time></trkpt><trkpt lat="42.3767828" lon="14.2595865"><ele>174.39999999999998</ele><time>2026-05-01T08:21:41.935Z</time></trkpt><trkpt lat="42.37676" lon="14.2597603"><ele>174.0</ele><time>2026-05-01T08:21:43.936Z</time></trkpt><trkpt lat="42.3767656" lon="14.2598797"><ele>173.0</ele><time>2026-05-01T08:21:44.945Z</time></trkpt><trkpt lat="42.3767708" lon="14.2600016"><ele>172.0</ele><time>2026-05-01T08:21:45.934Z</time></trkpt><trkpt lat="42.3767747" lon="14.2601332"><ele>171.0</ele><time>2026-05-01T08:21:46.939Z</time></trkpt><trkpt lat="42.3767816" lon="14.26027"><ele>170.0</ele><time>2026-05-01T08:21:47.934Z</time></trkpt><trkpt lat="42.3767893" lon="14.2604096"><ele>169.0</ele><time>2026-05-01T08:21:48.936Z</time></trkpt><trkpt lat="42.3767946" lon="14.2605482"><ele>168.0</ele><time>2026-05-01T08:21:49.937Z</time></trkpt><trkpt lat="42.3767933" lon="14.2606898"><ele>167.0</ele><time>2026-05-01T08:21:50.931Z</time></trkpt><trkpt lat="42.3767832" lon="14.2608273"><ele>166.0</ele><time>2026-05-01T08:21:51.94Z</time></trkpt><trkpt lat="42.376765" lon="14.2609685"><ele>165.0</ele><time>2026-05-01T08:21:52.933Z</time></trkpt><trkpt lat="42.3767447" lon="14.2611028"><ele>164.0</ele><time>2026-05-01T08:21:53.947Z</time></trkpt><trkpt lat="42.3767221" lon="14.2612256"><ele>164.0</ele><time>2026-05-01T08:21:54.941Z</time></trkpt><trkpt lat="42.3767017" lon="14.2613327"><ele>164.0</ele><time>2026-05-01T08:21:55.937Z</time></trkpt><trkpt lat="42.3766892" lon="14.261442"><ele>164.0</ele><time>2026-05-01T08:21:56.929Z</time></trkpt><trkpt lat="42.3766866" lon="14.2615641"><ele>164.0</ele><time>2026-05-01T08:21:57.933Z</time></trkpt><trkpt lat="42.3766928" lon="14.2617186"><ele>164.0</ele><time>2026-05-01T08:21:58.933Z</time></trkpt><trkpt lat="42.3767171" lon="14.2618986"><ele>163.0</ele><time>2026-05-01T08:21:59.936Z</time></trkpt><trkpt lat="42.3767447" lon="14.26208"><ele>162.0</ele><time>2026-05-01T08:22:00.944Z</time></trkpt><trkpt lat="42.376761" lon="14.2622436"><ele>161.0</ele><time>2026-05-01T08:22:01.946Z</time></trkpt><trkpt lat="42.3767774" lon="14.2624205"><ele>160.0</ele><time>2026-05-01T08:22:02.938Z</time></trkpt><trkpt lat="42.3767985" lon="14.2626037"><ele>157.5</ele><time>2026-05-01T08:22:03.942Z</time></trkpt><trkpt lat="42.376819" lon="14.2627738"><ele>155.0</ele><time>2026-05-01T08:22:04.942Z</time></trkpt><trkpt lat="42.3768517" lon="14.2629494"><ele>152.5</ele><time>2026-05-01T08:22:05.927Z</time></trkpt><trkpt lat="42.3768998" lon="14.2631252"><ele>150.0</ele><time>2026-05-01T08:22:06.946Z</time></trkpt><trkpt lat="42.3769647" lon="14.2633108"><ele>146.66666666666666</ele><time>2026-05-01T08:22:07.935Z</time></trkpt><trkpt lat="42.3770347" lon="14.263502"><ele>143.33333333333331</ele><time>2026-05-01T08:22:08.933Z</time></trkpt><trkpt lat="42.3770989" lon="14.263697"><ele>140.0</ele><time>2026-05-01T08:22:09.945Z</time></trkpt><trkpt lat="42.3771687" lon="14.2638746"><ele>141.0</ele><time>2026-05-01T08:22:10.942Z</time></trkpt><trkpt lat="42.3772371" lon="14.2640643"><ele>142.0</ele><time>2026-05-01T08:22:11.939Z</time></trkpt><trkpt lat="42.3773058" lon="14.2642462"><ele>143.0</ele><time>2026-05-01T08:22:12.938Z</time></trkpt><trkpt lat="42.3773775" lon="14.2644173"><ele>143.0</ele><time>2026-05-01T08:22:13.94Z</time></trkpt><trkpt lat="42.3774475" lon="14.2645661"><ele>143.0</ele><time>2026-05-01T08:22:14.932Z</time></trkpt><trkpt lat="42.3775188" lon="14.2647088"><ele>143.0</ele><time>2026-05-01T08:22:15.931Z</time></trkpt><trkpt lat="42.3775772" lon="14.2648409"><ele>143.0</ele><time>2026-05-01T08:22:16.94Z</time></trkpt><trkpt lat="42.3776187" lon="14.2649777"><ele>141.4</ele><time>2026-05-01T08:22:17.932Z</time></trkpt><trkpt lat="42.377642" lon="14.2651084"><ele>139.8</ele><time>2026-05-01T08:22:18.939Z</time></trkpt><trkpt lat="42.3776531" lon="14.2652534"><ele>138.2</ele><time>2026-05-01T08:22:19.947Z</time></trkpt><trkpt lat="42.3776493" lon="14.2654035"><ele>136.6</ele><time>2026-05-01T08:22:20.934Z</time></trkpt><trkpt lat="42.3776487" lon="14.2655503"><ele>135.0</ele><time>2026-05-01T08:22:21.942Z</time></trkpt><trkpt lat="42.3776479" lon="14.2656873"><ele>133.8</ele><time>2026-05-01T08:22:22.94Z</time></trkpt><trkpt lat="42.3776485" lon="14.2658285"><ele>132.6</ele><time>2026-05-01T08:22:23.94Z</time></trkpt><trkpt lat="42.3776572" lon="14.2659591"><ele>131.4</ele><time>2026-05-01T08:22:24.941Z</time></trkpt><trkpt lat="42.3776682" lon="14.2660825"><ele>130.2</ele><time>2026-05-01T08:22:25.928Z</time></trkpt><trkpt lat="42.3776754" lon="14.2662098"><ele>129.0</ele><time>2026-05-01T08:22:26.939Z</time></trkpt><trkpt lat="42.3776757" lon="14.2663406"><ele>127.66666666666667</ele><time>2026-05-01T08:22:27.928Z</time></trkpt><trkpt lat="42.3776728" lon="14.266471"><ele>126.33333333333334</ele><time>2026-05-01T08:22:28.94Z</time></trkpt><trkpt lat="42.3776655" lon="14.2665878"><ele>125.0</ele><time>2026-05-01T08:22:29.949Z</time></trkpt><trkpt lat="42.3776705" lon="14.2666857"><ele>123.66666666666667</ele><time>2026-05-01T08:22:30.941Z</time></trkpt><trkpt lat="42.3776746" lon="14.2667891"><ele>122.33333333333334</ele><time>2026-05-01T08:22:31.943Z</time></trkpt><trkpt lat="42.3776821" lon="14.2669015"><ele>121.0</ele><time>2026-05-01T08:22:32.944Z</time></trkpt><trkpt lat="42.3776914" lon="14.2670028"><ele>121.00000000000001</ele><time>2026-05-01T08:22:33.938Z</time></trkpt><trkpt lat="42.3776941" lon="14.2670923"><ele>121.0</ele><time>2026-05-01T08:22:34.932Z</time></trkpt><trkpt lat="42.3776909" lon="14.2672085"><ele>121.0</ele><time>2026-05-01T08:22:36.937Z</time></trkpt><trkpt lat="42.3776085" lon="14.2672659"><ele>121.0</ele><time>2026-05-01T08:22:39.949Z</time></trkpt><trkpt lat="42.3775214" lon="14.2672943"><ele>121.00000000000001</ele><time>2026-05-01T08:22:41.944Z</time></trkpt><trkpt lat="42.3774194" lon="14.2673354"><ele>121.0</ele><time>2026-05-01T08:22:43.934Z</time></trkpt><trkpt lat="42.3772913" lon="14.2673586"><ele>120.33333333333334</ele><time>2026-05-01T08:22:45.935Z</time></trkpt><trkpt lat="42.377208" lon="14.2673854"><ele>119.66666666666667</ele><time>2026-05-01T08:22:46.939Z</time></trkpt><trkpt lat="42.3771249" lon="14.2674001"><ele>119.0</ele><time>2026-05-01T08:22:47.932Z</time></trkpt><trkpt lat="42.3770347" lon="14.2674126"><ele>118.33333333333334</ele><time>2026-05-01T08:22:48.935Z</time></trkpt><trkpt lat="42.376944" lon="14.2674281"><ele>117.66666666666667</ele><time>2026-05-01T08:22:49.933Z</time></trkpt><trkpt lat="42.3768552" lon="14.2674406"><ele>117.0</ele><time>2026-05-01T08:22:50.941Z</time></trkpt><trkpt lat="42.3767643" lon="14.267454"><ele>116.0</ele><time>2026-05-01T08:22:51.933Z</time></trkpt><trkpt lat="42.3766778" lon="14.2674687"><ele>115.00000000000001</ele><time>2026-05-01T08:22:52.93Z</time></trkpt><trkpt lat="42.3766001" lon="14.2674825"><ele>114.0</ele><time>2026-05-01T08:22:53.93Z</time></trkpt><trkpt lat="42.3765342" lon="14.2675079"><ele>113.0</ele><time>2026-05-01T08:22:54.93Z</time></trkpt><trkpt lat="42.3764727" lon="14.2675399"><ele>112.0</ele><time>2026-05-01T08:22:55.942Z</time></trkpt><trkpt lat="42.3764164" lon="14.2675789"><ele>111.0</ele><time>2026-05-01T08:22:56.944Z</time></trkpt><trkpt lat="42.376369" lon="14.2676387"><ele>110.0</ele><time>2026-05-01T08:22:57.931Z</time></trkpt><trkpt lat="42.3762938" lon="14.2677761"><ele>113.16666666666666</ele><time>2026-05-01T08:22:59.944Z</time></trkpt><trkpt lat="42.3762592" lon="14.2678504"><ele>116.33333333333333</ele><time>2026-05-01T08:23:00.935Z</time></trkpt><trkpt lat="42.376236" lon="14.2679378"><ele>119.5</ele><time>2026-05-01T08:23:01.949Z</time></trkpt><trkpt lat="42.376209" lon="14.26803"><ele>122.66666666666666</ele><time>2026-05-01T08:23:02.938Z</time></trkpt><trkpt lat="42.3761775" lon="14.2681211"><ele>125.83333333333333</ele><time>2026-05-01T08:23:03.933Z</time></trkpt><trkpt lat="42.3761401" lon="14.2682236"><ele>129.0</ele><time>2026-05-01T08:23:04.938Z</time></trkpt><trkpt lat="42.3761074" lon="14.2683335"><ele>129.0</ele><time>2026-05-01T08:23:05.936Z</time></trkpt><trkpt lat="42.3760749" lon="14.2684426"><ele>129.0</ele><time>2026-05-01T08:23:06.941Z</time></trkpt><trkpt lat="42.3760447" lon="14.2685491"><ele>129.0</ele><time>2026-05-01T08:23:07.932Z</time></trkpt><trkpt lat="42.3760184" lon="14.2686568"><ele>129.0</ele><time>2026-05-01T08:23:08.938Z</time></trkpt><trkpt lat="42.3759943" lon="14.2687625"><ele>129.0</ele><time>2026-05-01T08:23:09.94Z</time></trkpt><trkpt lat="42.3759681" lon="14.2688672"><ele>129.0</ele><time>2026-05-01T08:23:10.934Z</time></trkpt><trkpt lat="42.3759386" lon="14.2689749"><ele>128.5</ele><time>2026-05-01T08:23:11.944Z</time></trkpt><trkpt lat="42.3759087" lon="14.2690817"><ele>128.0</ele><time>2026-05-01T08:23:12.939Z</time></trkpt><trkpt lat="42.3758778" lon="14.2691842"><ele>127.5</ele><time>2026-05-01T08:23:13.94Z</time></trkpt><trkpt lat="42.375853" lon="14.2692909"><ele>127.0</ele><time>2026-05-01T08:23:14.939Z</time></trkpt><trkpt lat="42.3758201" lon="14.2693959"><ele>126.5</ele><time>2026-05-01T08:23:15.926Z</time></trkpt><trkpt lat="42.3757841" lon="14.2695003"><ele>126.0</ele><time>2026-05-01T08:23:16.94Z</time></trkpt><trkpt lat="42.3757466" lon="14.2696073"><ele>126.0</ele><time>2026-05-01T08:23:17.927Z</time></trkpt><trkpt lat="42.3757062" lon="14.2697157"><ele>126.0</ele><time>2026-05-01T08:23:18.94Z</time></trkpt><trkpt lat="42.3756543" lon="14.2698172"><ele>126.0</ele><time>2026-05-01T08:23:19.941Z</time></trkpt><trkpt lat="42.3756099" lon="14.2699158"><ele>126.0</ele><time>2026-05-01T08:23:20.943Z</time></trkpt><trkpt lat="42.3755633" lon="14.270016"><ele>126.0</ele><time>2026-05-01T08:23:21.944Z</time></trkpt><trkpt lat="42.375531" lon="14.2701177"><ele>126.0</ele><time>2026-05-01T08:23:22.942Z</time></trkpt><trkpt lat="42.3755012" lon="14.2702149"><ele>129.0</ele><time>2026-05-01T08:23:23.932Z</time></trkpt><trkpt lat="42.375468" lon="14.270314"><ele>132.0</ele><time>2026-05-01T08:23:24.942Z</time></trkpt><trkpt lat="42.375424" lon="14.2704133"><ele>135.0</ele><time>2026-05-01T08:23:25.933Z</time></trkpt><trkpt lat="42.3753762" lon="14.2705108"><ele>138.0</ele><time>2026-05-01T08:23:26.933Z</time></trkpt><trkpt lat="42.3753207" lon="14.270612"><ele>141.0</ele><time>2026-05-01T08:23:27.936Z</time></trkpt><trkpt lat="42.3752768" lon="14.270707"><ele>144.0</ele><time>2026-05-01T08:23:28.94Z</time></trkpt><trkpt lat="42.375223" lon="14.2707845"><ele>144.0</ele><time>2026-05-01T08:23:29.933Z</time></trkpt><trkpt lat="42.3751741" lon="14.2708506"><ele>144.0</ele><time>2026-05-01T08:23:30.945Z</time></trkpt><trkpt lat="42.3750678" lon="14.2709199"><ele>144.0</ele><time>2026-05-01T08:23:32.935Z</time></trkpt><trkpt lat="42.3750068" lon="14.2709418"><ele>144.0</ele><time>2026-05-01T08:23:33.955Z</time></trkpt><trkpt lat="42.3748815" lon="14.2709551"><ele>144.0</ele><time>2026-05-01T08:23:35.933Z</time></trkpt><trkpt lat="42.3748054" lon="14.2709335"><ele>144.0</ele><time>2026-05-01T08:23:36.936Z</time></trkpt><trkpt lat="42.3747226" lon="14.2709048"><ele>144.0</ele><time>2026-05-01T08:23:37.937Z</time></trkpt><trkpt lat="42.3746308" lon="14.2708757"><ele>144.0</ele><time>2026-05-01T08:23:38.938Z</time></trkpt><trkpt lat="42.3745376" lon="14.2708575"><ele>144.0</ele><time>2026-05-01T08:23:39.932Z</time></trkpt><trkpt lat="42.3744457" lon="14.2708556"><ele>144.0</ele><time>2026-05-01T08:23:40.933Z</time></trkpt><trkpt lat="42.3743752" lon="14.2708725"><ele>144.0</ele><time>2026-05-01T08:23:41.937Z</time></trkpt><trkpt lat="42.3743126" lon="14.2708893"><ele>146.0</ele><time>2026-05-01T08:23:43.943Z</time></trkpt><trkpt lat="42.3742152" lon="14.270951"><ele>148.0</ele><time>2026-05-01T08:23:48.93Z</time></trkpt><trkpt lat="42.3741107" lon="14.2710661"><ele>150.0</ele><time>2026-05-01T08:23:50.932Z</time></trkpt><trkpt lat="42.3740675" lon="14.2711524"><ele>152.0</ele><time>2026-05-01T08:23:51.932Z</time></trkpt><trkpt lat="42.3740493" lon="14.271243"><ele>154.0</ele><time>2026-05-01T08:23:52.93Z</time></trkpt><trkpt lat="42.3740318" lon="14.271337"><ele>154.0</ele><time>2026-05-01T08:23:53.928Z</time></trkpt><trkpt lat="42.3740009" lon="14.271421"><ele>154.0</ele><time>2026-05-01T08:23:54.937Z</time></trkpt><trkpt lat="42.3739499" lon="14.2715114"><ele>154.0</ele><time>2026-05-01T08:23:55.934Z</time></trkpt><trkpt lat="42.3738787" lon="14.2716"><ele>154.0</ele><time>2026-05-01T08:23:56.936Z</time></trkpt><trkpt lat="42.3737956" lon="14.271671"><ele>154.0</ele><time>2026-05-01T08:23:57.934Z</time></trkpt><trkpt lat="42.3737074" lon="14.2717352"><ele>154.0</ele><time>2026-05-01T08:23:58.93Z</time></trkpt><trkpt lat="42.3736225" lon="14.2717903"><ele>150.4</ele><time>2026-05-01T08:23:59.951Z</time></trkpt><trkpt lat="42.3735346" lon="14.271848"><ele>146.8</ele><time>2026-05-01T08:24:00.938Z</time></trkpt><trkpt lat="42.3734459" lon="14.2718994"><ele>143.2</ele><time>2026-05-01T08:24:01.945Z</time></trkpt><trkpt lat="42.3733562" lon="14.2719369"><ele>139.6</ele><time>2026-05-01T08:24:02.932Z</time></trkpt><trkpt lat="42.3732618" lon="14.2719664"><ele>136.0</ele><time>2026-05-01T08:24:03.937Z</time></trkpt><trkpt lat="42.3731558" lon="14.2719807"><ele>136.0</ele><time>2026-05-01T08:24:04.936Z</time></trkpt><trkpt lat="42.3730419" lon="14.2719818"><ele>136.0</ele><time>2026-05-01T08:24:05.931Z</time></trkpt><trkpt lat="42.3729281" lon="14.2719868"><ele>136.0</ele><time>2026-05-01T08:24:06.936Z</time></trkpt><trkpt lat="42.3728174" lon="14.2719888"><ele>136.0</ele><time>2026-05-01T08:24:07.944Z</time></trkpt><trkpt lat="42.3727048" lon="14.2719939"><ele>134.0</ele><time>2026-05-01T08:24:08.938Z</time></trkpt><trkpt lat="42.3725927" lon="14.2719937"><ele>132.0</ele><time>2026-05-01T08:24:09.945Z</time></trkpt><trkpt lat="42.3724826" lon="14.2720005"><ele>130.0</ele><time>2026-05-01T08:24:10.94Z</time></trkpt><trkpt lat="42.3723786" lon="14.2720115"><ele>128.0</ele><time>2026-05-01T08:24:11.934Z</time></trkpt><trkpt lat="42.3722896" lon="14.2720218"><ele>126.0</ele><time>2026-05-01T08:24:12.934Z</time></trkpt><trkpt lat="42.3722158" lon="14.2720176"><ele>122.4</ele><time>2026-05-01T08:24:13.941Z</time></trkpt><trkpt lat="42.3721001" lon="14.2720466"><ele>118.8</ele><time>2026-05-01T08:24:15.934Z</time></trkpt><trkpt lat="42.3720372" lon="14.2720986"><ele>115.20000000000002</ele><time>2026-05-01T08:24:16.94Z</time></trkpt><trkpt lat="42.3719713" lon="14.272177"><ele>111.60000000000001</ele><time>2026-05-01T08:24:17.93Z</time></trkpt><trkpt lat="42.3719094" lon="14.2722818"><ele>108.0</ele><time>2026-05-01T08:24:18.945Z</time></trkpt><trkpt lat="42.3718545" lon="14.2724141"><ele>107.5</ele><time>2026-05-01T08:24:19.927Z</time></trkpt><trkpt lat="42.3717941" lon="14.2725747"><ele>107.0</ele><time>2026-05-01T08:24:20.932Z</time></trkpt><trkpt lat="42.3717375" lon="14.2727309"><ele>106.5</ele><time>2026-05-01T08:24:21.935Z</time></trkpt><trkpt lat="42.3716807" lon="14.2728921"><ele>106.0</ele><time>2026-05-01T08:24:22.934Z</time></trkpt><trkpt lat="42.3716215" lon="14.2730534"><ele>104.75</ele><time>2026-05-01T08:24:23.936Z</time></trkpt><trkpt lat="42.3715643" lon="14.2732119"><ele>103.5</ele><time>2026-05-01T08:24:24.937Z</time></trkpt><trkpt lat="42.3715061" lon="14.2733733"><ele>102.25</ele><time>2026-05-01T08:24:25.933Z</time></trkpt><trkpt lat="42.3714494" lon="14.2735451"><ele>101.0</ele><time>2026-05-01T08:24:26.949Z</time></trkpt><trkpt lat="42.3713972" lon="14.2737219"><ele>98.0</ele><time>2026-05-01T08:24:27.929Z</time></trkpt><trkpt lat="42.371345" lon="14.2738953"><ele>95.0</ele><time>2026-05-01T08:24:28.938Z</time></trkpt><trkpt lat="42.3713016" lon="14.274071"><ele>92.0</ele><time>2026-05-01T08:24:29.933Z</time></trkpt><trkpt lat="42.371272" lon="14.2742393"><ele>89.0</ele><time>2026-05-01T08:24:30.939Z</time></trkpt><trkpt lat="42.3712549" lon="14.2744"><ele>87.25</ele><time>2026-05-01T08:24:31.936Z</time></trkpt><trkpt lat="42.3712534" lon="14.2745564"><ele>85.5</ele><time>2026-05-01T08:24:32.936Z</time></trkpt><trkpt lat="42.3712654" lon="14.2747125"><ele>83.75</ele><time>2026-05-01T08:24:33.942Z</time></trkpt><trkpt lat="42.3712834" lon="14.2748725"><ele>82.0</ele><time>2026-05-01T08:24:34.935Z</time></trkpt><trkpt lat="42.3712884" lon="14.2750429"><ele>81.25</ele><time>2026-05-01T08:24:35.93Z</time></trkpt><trkpt lat="42.3712799" lon="14.2752125"><ele>80.5</ele><time>2026-05-01T08:24:36.939Z</time></trkpt><trkpt lat="42.3712599" lon="14.275371"><ele>79.75</ele><time>2026-05-01T08:24:37.936Z</time></trkpt><trkpt lat="42.3712375" lon="14.2755396"><ele>79.0</ele><time>2026-05-01T08:24:38.931Z</time></trkpt><trkpt lat="42.3712099" lon="14.2757078"><ele>79.0</ele><time>2026-05-01T08:24:39.929Z</time></trkpt><trkpt lat="42.3711695" lon="14.2758955"><ele>79.0</ele><time>2026-05-01T08:24:40.945Z</time></trkpt><trkpt lat="42.371131" lon="14.2760891"><ele>79.0</ele><time>2026-05-01T08:24:41.927Z</time></trkpt><trkpt lat="42.3710863" lon="14.276271"><ele>79.0</ele><time>2026-05-01T08:24:42.937Z</time></trkpt><trkpt lat="42.3710452" lon="14.2764513"><ele>78.5</ele><time>2026-05-01T08:24:43.935Z</time></trkpt><trkpt lat="42.3710085" lon="14.2766312"><ele>78.0</ele><time>2026-05-01T08:24:44.944Z</time></trkpt><trkpt lat="42.370967" lon="14.2767994"><ele>77.5</ele><time>2026-05-01T08:24:45.949Z</time></trkpt><trkpt lat="42.3709255" lon="14.2769595"><ele>77.0</ele><time>2026-05-01T08:24:46.928Z</time></trkpt><trkpt lat="42.3708904" lon="14.2771032"><ele>77.0</ele><time>2026-05-01T08:24:47.938Z</time></trkpt><trkpt lat="42.3708617" lon="14.2772299"><ele>77.0</ele><time>2026-05-01T08:24:48.933Z</time></trkpt><trkpt lat="42.3708371" lon="14.2773532"><ele>77.0</ele><time>2026-05-01T08:24:49.934Z</time></trkpt><trkpt lat="42.3708108" lon="14.2774806"><ele>77.0</ele><time>2026-05-01T08:24:50.934Z</time></trkpt><trkpt lat="42.370778" lon="14.2776138"><ele>77.0</ele><time>2026-05-01T08:24:51.934Z</time></trkpt><trkpt lat="42.3707462" lon="14.2777412"><ele>77.0</ele><time>2026-05-01T08:24:52.942Z</time></trkpt><trkpt lat="42.3707121" lon="14.2778578"><ele>77.0</ele><time>2026-05-01T08:24:53.943Z</time></trkpt><trkpt lat="42.3706792" lon="14.2779683"><ele>77.0</ele><time>2026-05-01T08:24:54.936Z</time></trkpt><trkpt lat="42.3706406" lon="14.2780934"><ele>77.0</ele><time>2026-05-01T08:24:55.935Z</time></trkpt><trkpt lat="42.3705902" lon="14.2782309"><ele>77.0</ele><time>2026-05-01T08:24:56.929Z</time></trkpt><trkpt lat="42.3705298" lon="14.2783742"><ele>75.0</ele><time>2026-05-01T08:24:57.937Z</time></trkpt><trkpt lat="42.3704564" lon="14.2785143"><ele>73.0</ele><time>2026-05-01T08:24:58.934Z</time></trkpt><trkpt lat="42.370375" lon="14.2786514"><ele>71.0</ele><time>2026-05-01T08:24:59.94Z</time></trkpt><trkpt lat="42.3702969" lon="14.2787793"><ele>69.0</ele><time>2026-05-01T08:25:00.931Z</time></trkpt><trkpt lat="42.3702026" lon="14.2788857"><ele>68.5</ele><time>2026-05-01T08:25:01.94Z</time></trkpt><trkpt lat="42.3700928" lon="14.2789789"><ele>68.0</ele><time>2026-05-01T08:25:02.938Z</time></trkpt><trkpt lat="42.3699843" lon="14.2790652"><ele>67.5</ele><time>2026-05-01T08:25:03.933Z</time></trkpt><trkpt lat="42.3698866" lon="14.2791518"><ele>67.0</ele><time>2026-05-01T08:25:04.935Z</time></trkpt><trkpt lat="42.3697971" lon="14.2792299"><ele>67.0</ele><time>2026-05-01T08:25:05.937Z</time></trkpt><trkpt lat="42.3697265" lon="14.2793128"><ele>67.0</ele><time>2026-05-01T08:25:06.935Z</time></trkpt><trkpt lat="42.369678" lon="14.2794074"><ele>67.0</ele><time>2026-05-01T08:25:07.932Z</time></trkpt><trkpt lat="42.3696479" lon="14.2795234"><ele>67.0</ele><time>2026-05-01T08:25:08.94Z</time></trkpt><trkpt lat="42.3696364" lon="14.2796598"><ele>67.0</ele><time>2026-05-01T08:25:09.937Z</time></trkpt><trkpt lat="42.3696497" lon="14.279816"><ele>66.75</ele><time>2026-05-01T08:25:10.936Z</time></trkpt><trkpt lat="42.3696682" lon="14.2799702"><ele>66.5</ele><time>2026-05-01T08:25:11.945Z</time></trkpt><trkpt lat="42.3696823" lon="14.2801567"><ele>66.25</ele><time>2026-05-01T08:25:12.939Z</time></trkpt><trkpt lat="42.3696935" lon="14.2803654"><ele>66.0</ele><time>2026-05-01T08:25:13.933Z</time></trkpt><trkpt lat="42.3697011" lon="14.2805644"><ele>65.25</ele><time>2026-05-01T08:25:14.939Z</time></trkpt><trkpt lat="42.369709" lon="14.2807529"><ele>64.5</ele><time>2026-05-01T08:25:15.939Z</time></trkpt><trkpt lat="42.3697165" lon="14.2809456"><ele>63.75</ele><time>2026-05-01T08:25:16.935Z</time></trkpt><trkpt lat="42.3697203" lon="14.2811452"><ele>63.0</ele><time>2026-05-01T08:25:17.937Z</time></trkpt><trkpt lat="42.369719" lon="14.2813544"><ele>62.25</ele><time>2026-05-01T08:25:18.943Z</time></trkpt><trkpt lat="42.3697166" lon="14.2815537"><ele>61.5</ele><time>2026-05-01T08:25:19.941Z</time></trkpt><trkpt lat="42.3697134" lon="14.2817461"><ele>60.75</ele><time>2026-05-01T08:25:20.927Z</time></trkpt><trkpt lat="42.3697129" lon="14.2819233"><ele>60.0</ele><time>2026-05-01T08:25:21.932Z</time></trkpt><trkpt lat="42.3697056" lon="14.2820766"><ele>60.333333333333336</ele><time>2026-05-01T08:25:22.938Z</time></trkpt><trkpt lat="42.3696908" lon="14.2821949"><ele>60.66666666666667</ele><time>2026-05-01T08:25:23.934Z</time></trkpt><trkpt lat="42.3696313" lon="14.2822766"><ele>61.0</ele><time>2026-05-01T08:25:25.941Z</time></trkpt><trkpt lat="42.3695609" lon="14.2822353"><ele>61.333333333333336</ele><time>2026-05-01T08:25:27.936Z</time></trkpt><trkpt lat="42.3695119" lon="14.2821677"><ele>61.66666666666667</ele><time>2026-05-01T08:25:28.935Z</time></trkpt><trkpt lat="42.3694448" lon="14.2820575"><ele>62.0</ele><time>2026-05-01T08:25:29.931Z</time></trkpt><trkpt lat="42.3693778" lon="14.2819433"><ele>62.0</ele><time>2026-05-01T08:25:30.946Z</time></trkpt><trkpt lat="42.3692998" lon="14.2818132"><ele>62.0</ele><time>2026-05-01T08:25:31.933Z</time></trkpt><trkpt lat="42.369221" lon="14.2816765"><ele>62.0</ele><time>2026-05-01T08:25:32.947Z</time></trkpt><trkpt lat="42.3691393" lon="14.2815224"><ele>62.0</ele><time>2026-05-01T08:25:33.933Z</time></trkpt><trkpt lat="42.3690517" lon="14.2813671"><ele>62.333333333333336</ele><time>2026-05-01T08:25:34.931Z</time></trkpt><trkpt lat="42.3689557" lon="14.2812143"><ele>62.66666666666667</ele><time>2026-05-01T08:25:35.931Z</time></trkpt><trkpt lat="42.368859" lon="14.2810435"><ele>63.0</ele><time>2026-05-01T08:25:36.942Z</time></trkpt><trkpt lat="42.3687614" lon="14.2808796"><ele>63.0</ele><time>2026-05-01T08:25:37.935Z</time></trkpt><trkpt lat="42.3686804" lon="14.2807333"><ele>63.0</ele><time>2026-05-01T08:25:38.941Z</time></trkpt><trkpt lat="42.368601" lon="14.2805904"><ele>63.0</ele><time>2026-05-01T08:25:39.935Z</time></trkpt><trkpt lat="42.36853" lon="14.2804588"><ele>63.0</ele><time>2026-05-01T08:25:40.942Z</time></trkpt><trkpt lat="42.3684701" lon="14.2803472"><ele>62.599999999999994</ele><time>2026-05-01T08:25:41.929Z</time></trkpt><trkpt lat="42.3683995" lon="14.2802657"><ele>62.199999999999996</ele><time>2026-05-01T08:25:42.941Z</time></trkpt><trkpt lat="42.3683139" lon="14.2802128"><ele>61.8</ele><time>2026-05-01T08:25:43.933Z</time></trkpt><trkpt lat="42.3682174" lon="14.2801919"><ele>61.4</ele><time>2026-05-01T08:25:44.932Z</time></trkpt><trkpt lat="42.3681125" lon="14.2802151"><ele>61.0</ele><time>2026-05-01T08:25:45.944Z</time></trkpt><trkpt lat="42.3680057" lon="14.2802821"><ele>59.5</ele><time>2026-05-01T08:25:46.933Z</time></trkpt><trkpt lat="42.3678827" lon="14.2803674"><ele>58.0</ele><time>2026-05-01T08:25:47.939Z</time></trkpt><trkpt lat="42.3677527" lon="14.2804566"><ele>56.5</ele><time>2026-05-01T08:25:48.933Z</time></trkpt><trkpt lat="42.3676082" lon="14.2805444"><ele>55.0</ele><time>2026-05-01T08:25:49.944Z</time></trkpt><trkpt lat="42.3674525" lon="14.2806297"><ele>55.0</ele><time>2026-05-01T08:25:50.934Z</time></trkpt><trkpt lat="42.3672781" lon="14.2807031"><ele>55.0</ele><time>2026-05-01T08:25:51.94Z</time></trkpt><trkpt lat="42.3671021" lon="14.2807672"><ele>55.0</ele><time>2026-05-01T08:25:52.927Z</time></trkpt><trkpt lat="42.3669235" lon="14.2808114"><ele>53.0</ele><time>2026-05-01T08:25:53.941Z</time></trkpt><trkpt lat="42.3667485" lon="14.2808526"><ele>51.0</ele><time>2026-05-01T08:25:54.929Z</time></trkpt><trkpt lat="42.3665832" lon="14.2808877"><ele>49.0</ele><time>2026-05-01T08:25:55.937Z</time></trkpt><trkpt lat="42.3664165" lon="14.2809238"><ele>47.666666666666664</ele><time>2026-05-01T08:25:56.931Z</time></trkpt><trkpt lat="42.3662549" lon="14.2809564"><ele>46.33333333333333</ele><time>2026-05-01T08:25:57.935Z</time></trkpt><trkpt lat="42.3661004" lon="14.2809868"><ele>45.0</ele><time>2026-05-01T08:25:58.935Z</time></trkpt><trkpt lat="42.3659592" lon="14.2810144"><ele>45.0</ele><time>2026-05-01T08:25:59.932Z</time></trkpt><trkpt lat="42.3658282" lon="14.2810386"><ele>45.0</ele><time>2026-05-01T08:26:00.941Z</time></trkpt><trkpt lat="42.3657198" lon="14.281059"><ele>45.0</ele><time>2026-05-01T08:26:01.934Z</time></trkpt><trkpt lat="42.3656341" lon="14.2810796"><ele>45.0</ele><time>2026-05-01T08:26:02.944Z</time></trkpt><trkpt lat="42.3655688" lon="14.2810984"><ele>45.0</ele><time>2026-05-01T08:26:03.94Z</time></trkpt><trkpt lat="42.3654883" lon="14.2810757"><ele>45.0</ele><time>2026-05-01T08:26:05.933Z</time></trkpt><trkpt lat="42.3654482" lon="14.2810072"><ele>45.0</ele><time>2026-05-01T08:26:06.933Z</time></trkpt><trkpt lat="42.3653859" lon="14.2809133"><ele>45.0</ele><time>2026-05-01T08:26:07.935Z</time></trkpt><trkpt lat="42.3653307" lon="14.2807874"><ele>45.0</ele><time>2026-05-01T08:26:08.938Z</time></trkpt><trkpt lat="42.3652703" lon="14.2806585"><ele>45.0</ele><time>2026-05-01T08:26:09.93Z</time></trkpt><trkpt lat="42.3651925" lon="14.2805151"><ele>45.0</ele><time>2026-05-01T08:26:10.937Z</time></trkpt><trkpt lat="42.3651115" lon="14.2803608"><ele>45.0</ele><time>2026-05-01T08:26:11.943Z</time></trkpt><trkpt lat="42.3650293" lon="14.2801984"><ele>45.0</ele><time>2026-05-01T08:26:12.929Z</time></trkpt><trkpt lat="42.3649404" lon="14.2800271"><ele>45.0</ele><time>2026-05-01T08:26:13.944Z</time></trkpt><trkpt lat="42.3648517" lon="14.279836"><ele>45.25</ele><time>2026-05-01T08:26:14.934Z</time></trkpt><trkpt lat="42.3647671" lon="14.2796627"><ele>45.5</ele><time>2026-05-01T08:26:15.945Z</time></trkpt><trkpt lat="42.3646863" lon="14.2794959"><ele>45.75</ele><time>2026-05-01T08:26:16.945Z</time></trkpt><trkpt lat="42.364606" lon="14.2793333"><ele>46.0</ele><time>2026-05-01T08:26:17.94Z</time></trkpt><trkpt lat="42.3645267" lon="14.2791785"><ele>46.0</ele><time>2026-05-01T08:26:18.942Z</time></trkpt><trkpt lat="42.36444" lon="14.2790343"><ele>46.0</ele><time>2026-05-01T08:26:19.934Z</time></trkpt><trkpt lat="42.3643432" lon="14.2788958"><ele>46.0</ele><time>2026-05-01T08:26:20.95Z</time></trkpt><trkpt lat="42.3642257" lon="14.2787762"><ele>46.0</ele><time>2026-05-01T08:26:21.935Z</time></trkpt><trkpt lat="42.3641005" lon="14.2786632"><ele>46.333333333333336</ele><time>2026-05-01T08:26:22.936Z</time></trkpt><trkpt lat="42.3639676" lon="14.2785477"><ele>46.666666666666664</ele><time>2026-05-01T08:26:23.94Z</time></trkpt><trkpt lat="42.3638248" lon="14.2784325"><ele>47.0</ele><time>2026-05-01T08:26:24.935Z</time></trkpt><trkpt lat="42.3636832" lon="14.2783106"><ele>47.0</ele><time>2026-05-01T08:26:25.941Z</time></trkpt><trkpt lat="42.3635416" lon="14.2781919"><ele>47.0</ele><time>2026-05-01T08:26:26.934Z</time></trkpt><trkpt lat="42.3634055" lon="14.2780781"><ele>47.0</ele><time>2026-05-01T08:26:27.932Z</time></trkpt><trkpt lat="42.3632805" lon="14.2779707"><ele>48.0</ele><time>2026-05-01T08:26:28.942Z</time></trkpt><trkpt lat="42.3631444" lon="14.2778688"><ele>49.0</ele><time>2026-05-01T08:26:29.934Z</time></trkpt><trkpt lat="42.3630041" lon="14.2777862"><ele>50.0</ele><time>2026-05-01T08:26:30.943Z</time></trkpt><trkpt lat="42.3628484" lon="14.2777302"><ele>50.0</ele><time>2026-05-01T08:26:31.934Z</time></trkpt><trkpt lat="42.3626805" lon="14.2777051"><ele>50.0</ele><time>2026-05-01T08:26:32.937Z</time></trkpt><trkpt lat="42.3625143" lon="14.2777088"><ele>50.0</ele><time>2026-05-01T08:26:33.945Z</time></trkpt><trkpt lat="42.3623389" lon="14.2777262"><ele>50.0</ele><time>2026-05-01T08:26:34.939Z</time></trkpt><trkpt lat="42.3621642" lon="14.2777421"><ele>50.0</ele><time>2026-05-01T08:26:35.941Z</time></trkpt><trkpt lat="42.3619879" lon="14.2777554"><ele>50.0</ele><time>2026-05-01T08:26:36.935Z</time></trkpt><trkpt lat="42.3618082" lon="14.2777707"><ele>50.0</ele><time>2026-05-01T08:26:37.935Z</time></trkpt><trkpt lat="42.3616244" lon="14.2777857"><ele>50.0</ele><time>2026-05-01T08:26:38.934Z</time></trkpt><trkpt lat="42.361444" lon="14.2778087"><ele>50.0</ele><time>2026-05-01T08:26:39.947Z</time></trkpt><trkpt lat="42.3612727" lon="14.2778334"><ele>50.0</ele><time>2026-05-01T08:26:40.936Z</time></trkpt><trkpt lat="42.361102" lon="14.2778488"><ele>50.0</ele><time>2026-05-01T08:26:41.943Z</time></trkpt><trkpt lat="42.3609393" lon="14.2778635"><ele>50.0</ele><time>2026-05-01T08:26:42.931Z</time></trkpt><trkpt lat="42.3607805" lon="14.2778693"><ele>50.0</ele><time>2026-05-01T08:26:43.943Z</time></trkpt><trkpt lat="42.3606249" lon="14.2778784"><ele>50.0</ele><time>2026-05-01T08:26:44.945Z</time></trkpt><trkpt lat="42.3604781" lon="14.2778802"><ele>50.0</ele><time>2026-05-01T08:26:45.933Z</time></trkpt><trkpt lat="42.3603439" lon="14.2778819"><ele>50.0</ele><time>2026-05-01T08:26:46.936Z</time></trkpt><trkpt lat="42.3602334" lon="14.277871"><ele>50.16666666666667</ele><time>2026-05-01T08:26:47.951Z</time></trkpt><trkpt lat="42.3601411" lon="14.2778563"><ele>50.333333333333336</ele><time>2026-05-01T08:26:48.93Z</time></trkpt><trkpt lat="42.3600608" lon="14.2778231"><ele>50.5</ele><time>2026-05-01T08:26:49.938Z</time></trkpt><trkpt lat="42.360003" lon="14.2777665"><ele>50.66666666666667</ele><time>2026-05-01T08:26:50.941Z</time></trkpt><trkpt lat="42.3599421" lon="14.2776908"><ele>50.833333333333336</ele><time>2026-05-01T08:26:51.944Z</time></trkpt><trkpt lat="42.3598887" lon="14.2775904"><ele>51.0</ele><time>2026-05-01T08:26:52.941Z</time></trkpt><trkpt lat="42.3598393" lon="14.2774794"><ele>51.0</ele><time>2026-05-01T08:26:53.937Z</time></trkpt><trkpt lat="42.3598027" lon="14.2773501"><ele>51.0</ele><time>2026-05-01T08:26:54.943Z</time></trkpt><trkpt lat="42.3597717" lon="14.277235"><ele>51.0</ele><time>2026-05-01T08:26:55.932Z</time></trkpt><trkpt lat="42.3597426" lon="14.2771327"><ele>51.0</ele><time>2026-05-01T08:26:56.937Z</time></trkpt><trkpt lat="42.3597163" lon="14.2770499"><ele>51.0</ele><time>2026-05-01T08:26:57.932Z</time></trkpt><trkpt lat="42.35965" lon="14.2769675"><ele>51.0</ele><time>2026-05-01T08:26:59.937Z</time></trkpt><trkpt lat="42.359581" lon="14.2770373"><ele>50.8</ele><time>2026-05-01T08:27:01.944Z</time></trkpt><trkpt lat="42.3595319" lon="14.2771919"><ele>50.599999999999994</ele><time>2026-05-01T08:27:03.939Z</time></trkpt><trkpt lat="42.3595186" lon="14.2773006"><ele>50.4</ele><time>2026-05-01T08:27:04.933Z</time></trkpt><trkpt lat="42.3595127" lon="14.2774397"><ele>50.2</ele><time>2026-05-01T08:27:05.931Z</time></trkpt><trkpt lat="42.359522" lon="14.2776004"><ele>50.0</ele><time>2026-05-01T08:27:06.931Z</time></trkpt><trkpt lat="42.3595535" lon="14.2777736"><ele>50.0</ele><time>2026-05-01T08:27:07.943Z</time></trkpt><trkpt lat="42.3595783" lon="14.2779344"><ele>50.0</ele><time>2026-05-01T08:27:08.938Z</time></trkpt><trkpt lat="42.3596055" lon="14.2780816"><ele>50.0</ele><time>2026-05-01T08:27:09.94Z</time></trkpt><trkpt lat="42.3596232" lon="14.2782168"><ele>50.0</ele><time>2026-05-01T08:27:10.937Z</time></trkpt><trkpt lat="42.3596309" lon="14.2783731"><ele>49.0</ele><time>2026-05-01T08:27:11.944Z</time></trkpt><trkpt lat="42.3596154" lon="14.2785534"><ele>48.0</ele><time>2026-05-01T08:27:12.932Z</time></trkpt><trkpt lat="42.3595775" lon="14.278733"><ele>47.0</ele><time>2026-05-01T08:27:13.938Z</time></trkpt><trkpt lat="42.3595196" lon="14.2789019"><ele>46.0</ele><time>2026-05-01T08:27:14.938Z</time></trkpt><trkpt lat="42.3594778" lon="14.2790148"><ele>45.5</ele><time>2026-05-01T08:27:15.935Z</time></trkpt><trkpt lat="42.3594244" lon="14.2791967"><ele>45.0</ele><time>2026-05-01T08:27:17.932Z</time></trkpt><trkpt lat="42.3593764" lon="14.279348"><ele>44.5</ele><time>2026-05-01T08:27:18.947Z</time></trkpt><trkpt lat="42.3593204" lon="14.2795085"><ele>44.0</ele><time>2026-05-01T08:27:19.943Z</time></trkpt><trkpt lat="42.3592514" lon="14.2796842"><ele>43.5</ele><time>2026-05-01T08:27:20.938Z</time></trkpt><trkpt lat="42.3591805" lon="14.2798521"><ele>43.0</ele><time>2026-05-01T08:27:21.935Z</time></trkpt><trkpt lat="42.3591106" lon="14.2800194"><ele>42.5</ele><time>2026-05-01T08:27:22.939Z</time></trkpt><trkpt lat="42.359028" lon="14.2801769"><ele>42.0</ele><time>2026-05-01T08:27:23.942Z</time></trkpt><trkpt lat="42.3589379" lon="14.2803245"><ele>42.0</ele><time>2026-05-01T08:27:24.931Z</time></trkpt><trkpt lat="42.3588341" lon="14.2804462"><ele>42.0</ele><time>2026-05-01T08:27:25.945Z</time></trkpt><trkpt lat="42.3587286" lon="14.2805478"><ele>42.0</ele><time>2026-05-01T08:27:26.941Z</time></trkpt><trkpt lat="42.3586291" lon="14.2806487"><ele>42.0</ele><time>2026-05-01T08:27:27.927Z</time></trkpt><trkpt lat="42.3585227" lon="14.2807532"><ele>41.8</ele><time>2026-05-01T08:27:28.938Z</time></trkpt><trkpt lat="42.3584208" lon="14.2808515"><ele>41.6</ele><time>2026-05-01T08:27:29.943Z</time></trkpt><trkpt lat="42.358342" lon="14.2809421"><ele>41.4</ele><time>2026-05-01T08:27:30.939Z</time></trkpt><trkpt lat="42.3582668" lon="14.2810115"><ele>41.199999999999996</ele><time>2026-05-01T08:27:31.931Z</time></trkpt><trkpt lat="42.3581846" lon="14.2810857"><ele>41.0</ele><time>2026-05-01T08:27:32.963Z</time></trkpt><trkpt lat="42.3581026" lon="14.2811698"><ele>41.0</ele><time>2026-05-01T08:27:33.936Z</time></trkpt><trkpt lat="42.3580262" lon="14.2812471"><ele>41.0</ele><time>2026-05-01T08:27:34.935Z</time></trkpt><trkpt lat="42.3579563" lon="14.2813211"><ele>41.0</ele><time>2026-05-01T08:27:35.932Z</time></trkpt><trkpt lat="42.3578901" lon="14.2813901"><ele>41.0</ele><time>2026-05-01T08:27:36.931Z</time></trkpt><trkpt lat="42.3578441" lon="14.2814558"><ele>41.0</ele><time>2026-05-01T08:27:37.929Z</time></trkpt><trkpt lat="42.3578422" lon="14.2815462"><ele>41.0</ele><time>2026-05-01T08:27:39.936Z</time></trkpt><trkpt lat="42.3579154" lon="14.2814609"><ele>41.0</ele><time>2026-05-01T08:27:51.962Z</time></trkpt><trkpt lat="42.3579693" lon="14.2813431"><ele>41.0</ele><time>2026-05-01T08:27:53.952Z</time></trkpt><trkpt lat="42.3580206" lon="14.2812678"><ele>41.0</ele><time>2026-05-01T08:27:54.952Z</time></trkpt><trkpt lat="42.3580988" lon="14.2811952"><ele>41.0</ele><time>2026-05-01T08:27:55.946Z</time></trkpt><trkpt lat="42.3581868" lon="14.2811182"><ele>41.0</ele><time>2026-05-01T08:27:56.936Z</time></trkpt><trkpt lat="42.3582656" lon="14.2810492"><ele>41.0</ele><time>2026-05-01T08:27:57.936Z</time></trkpt><trkpt lat="42.3583272" lon="14.2809976"><ele>41.0</ele><time>2026-05-01T08:27:58.941Z</time></trkpt><trkpt lat="42.3584019" lon="14.2809809"><ele>41.0</ele><time>2026-05-01T08:28:00.944Z</time></trkpt><trkpt lat="42.3584857" lon="14.2809524"><ele>41.0</ele><time>2026-05-01T08:28:03.943Z</time></trkpt><trkpt lat="42.3585684" lon="14.2808934"><ele>41.0</ele><time>2026-05-01T08:28:05.946Z</time></trkpt><trkpt lat="42.3586732" lon="14.2808291"><ele>41.0</ele><time>2026-05-01T08:28:07.941Z</time></trkpt><trkpt lat="42.3587807" lon="14.2807585"><ele>41.0</ele><time>2026-05-01T08:28:09.948Z</time></trkpt><trkpt lat="42.358837" lon="14.2807028"><ele>41.0</ele><time>2026-05-01T08:28:10.94Z</time></trkpt><trkpt lat="42.358902" lon="14.2806313"><ele>41.0</ele><time>2026-05-01T08:28:11.947Z</time></trkpt><trkpt lat="42.3589766" lon="14.2805534"><ele>41.0</ele><time>2026-05-01T08:28:12.939Z</time></trkpt><trkpt lat="42.3590438" lon="14.2804747"><ele>41.0</ele><time>2026-05-01T08:28:13.935Z</time></trkpt><trkpt lat="42.3591069" lon="14.2803937"><ele>41.0</ele><time>2026-05-01T08:28:14.943Z</time></trkpt><trkpt lat="42.3591544" lon="14.2803267"><ele>41.166666666666664</ele><time>2026-05-01T08:28:15.938Z</time></trkpt><trkpt lat="42.3591952" lon="14.280259"><ele>41.33333333333333</ele><time>2026-05-01T08:28:16.931Z</time></trkpt><trkpt lat="42.3592722" lon="14.2801242"><ele>41.5</ele><time>2026-05-01T08:28:18.938Z</time></trkpt><trkpt lat="42.3593152" lon="14.2800123"><ele>41.666666666666664</ele><time>2026-05-01T08:28:20.936Z</time></trkpt><trkpt lat="42.3593506" lon="14.2799385"><ele>41.833333333333336</ele><time>2026-05-01T08:28:22.934Z</time></trkpt><trkpt lat="42.359429" lon="14.2798888"><ele>42.0</ele><time>2026-05-01T08:28:24.939Z</time></trkpt><trkpt lat="42.3595551" lon="14.2798803"><ele>42.0</ele><time>2026-05-01T08:28:26.936Z</time></trkpt><trkpt lat="42.3596249" lon="14.2798711"><ele>42.0</ele><time>2026-05-01T08:28:27.934Z</time></trkpt><trkpt lat="42.359694" lon="14.2798675"><ele>42.0</ele><time>2026-05-01T08:28:28.94Z</time></trkpt><trkpt lat="42.3597614" lon="14.2798651"><ele>42.0</ele><time>2026-05-01T08:28:29.943Z</time></trkpt><trkpt lat="42.3598269" lon="14.2798752"><ele>42.0</ele><time>2026-05-01T08:28:30.94Z</time></trkpt><trkpt lat="42.3599027" lon="14.2799055"><ele>42.0</ele><time>2026-05-01T08:28:31.94Z</time></trkpt><trkpt lat="42.3599879" lon="14.2799482"><ele>42.0</ele><time>2026-05-01T08:28:32.947Z</time></trkpt><trkpt lat="42.3600764" lon="14.2799855"><ele>41.8</ele><time>2026-05-01T08:28:33.933Z</time></trkpt><trkpt lat="42.3601748" lon="14.2800165"><ele>41.6</ele><time>2026-05-01T08:28:34.943Z</time></trkpt><trkpt lat="42.3602757" lon="14.2800424"><ele>41.4</ele><time>2026-05-01T08:28:35.937Z</time></trkpt><trkpt lat="42.3603801" lon="14.2800732"><ele>41.199999999999996</ele><time>2026-05-01T08:28:36.937Z</time></trkpt><trkpt lat="42.3604855" lon="14.2800955"><ele>41.0</ele><time>2026-05-01T08:28:37.945Z</time></trkpt><trkpt lat="42.3605848" lon="14.2801052"><ele>41.4</ele><time>2026-05-01T08:28:38.946Z</time></trkpt><trkpt lat="42.3606826" lon="14.2801288"><ele>41.8</ele><time>2026-05-01T08:28:39.939Z</time></trkpt><trkpt lat="42.3607774" lon="14.2801512"><ele>42.199999999999996</ele><time>2026-05-01T08:28:40.945Z</time></trkpt><trkpt lat="42.3608607" lon="14.280171"><ele>42.599999999999994</ele><time>2026-05-01T08:28:41.936Z</time></trkpt><trkpt lat="42.3610023" lon="14.2801753"><ele>43.0</ele><time>2026-05-01T08:28:43.943Z</time></trkpt><trkpt lat="42.3611148" lon="14.2801071"><ele>43.0</ele><time>2026-05-01T08:28:45.926Z</time></trkpt><trkpt lat="42.3611843" lon="14.2800598"><ele>43.0</ele><time>2026-05-01T08:28:46.95Z</time></trkpt><trkpt lat="42.3612522" lon="14.2799996"><ele>43.0</ele><time>2026-05-01T08:28:47.943Z</time></trkpt><trkpt lat="42.3613143" lon="14.2799427"><ele>43.0</ele><time>2026-05-01T08:28:48.95Z</time></trkpt><trkpt lat="42.36138" lon="14.2798791"><ele>43.0</ele><time>2026-05-01T08:28:49.947Z</time></trkpt><trkpt lat="42.3614444" lon="14.2798272"><ele>43.0</ele><time>2026-05-01T08:28:50.939Z</time></trkpt><trkpt lat="42.3615246" lon="14.279785"><ele>43.0</ele><time>2026-05-01T08:28:51.955Z</time></trkpt><trkpt lat="42.3616244" lon="14.2797439"><ele>43.0</ele><time>2026-05-01T08:28:52.944Z</time></trkpt><trkpt lat="42.3617286" lon="14.2796942"><ele>43.0</ele><time>2026-05-01T08:28:53.941Z</time></trkpt><trkpt lat="42.3618326" lon="14.279635"><ele>43.0</ele><time>2026-05-01T08:28:54.937Z</time></trkpt><trkpt lat="42.3619325" lon="14.2795781"><ele>43.0</ele><time>2026-05-01T08:28:55.936Z</time></trkpt><trkpt lat="42.3620251" lon="14.2795236"><ele>43.0</ele><time>2026-05-01T08:28:56.94Z</time></trkpt><trkpt lat="42.3621107" lon="14.2794875"><ele>43.0</ele><time>2026-05-01T08:28:57.941Z</time></trkpt><trkpt lat="42.3621829" lon="14.2794794"><ele>43.0</ele><time>2026-05-01T08:28:58.941Z</time></trkpt><trkpt lat="42.3622479" lon="14.2794845"><ele>43.0</ele><time>2026-05-01T08:28:59.944Z</time></trkpt><trkpt lat="42.3623229" lon="14.2794852"><ele>43.0</ele><time>2026-05-01T08:29:00.933Z</time></trkpt><trkpt lat="42.3624413" lon="14.2795272"><ele>43.0</ele><time>2026-05-01T08:29:02.939Z</time></trkpt><trkpt lat="42.3624993" lon="14.2795816"><ele>43.0</ele><time>2026-05-01T08:29:03.938Z</time></trkpt><trkpt lat="42.3625602" lon="14.2796368"><ele>43.0</ele><time>2026-05-01T08:29:04.938Z</time></trkpt><trkpt lat="42.3626346" lon="14.2797008"><ele>43.0</ele><time>2026-05-01T08:29:05.939Z</time></trkpt><trkpt lat="42.3627239" lon="14.2797826"><ele>43.0</ele><time>2026-05-01T08:29:06.937Z</time></trkpt><trkpt lat="42.3628185" lon="14.2798592"><ele>43.0</ele><time>2026-05-01T08:29:07.935Z</time></trkpt><trkpt lat="42.3629228" lon="14.2799303"><ele>43.0</ele><time>2026-05-01T08:29:08.939Z</time></trkpt><trkpt lat="42.3630234" lon="14.2799976"><ele>43.0</ele><time>2026-05-01T08:29:09.933Z</time></trkpt><trkpt lat="42.36313" lon="14.2800442"><ele>43.0</ele><time>2026-05-01T08:29:10.946Z</time></trkpt><trkpt lat="42.3632231" lon="14.2800826"><ele>43.0</ele><time>2026-05-01T08:29:11.944Z</time></trkpt><trkpt lat="42.3633066" lon="14.2801147"><ele>43.0</ele><time>2026-05-01T08:29:12.94Z</time></trkpt><trkpt lat="42.3633869" lon="14.2801475"><ele>42.8</ele><time>2026-05-01T08:29:13.951Z</time></trkpt><trkpt lat="42.3634755" lon="14.2801898"><ele>42.599999999999994</ele><time>2026-05-01T08:29:14.948Z</time></trkpt><trkpt lat="42.3635721" lon="14.2802365"><ele>42.400000000000006</ele><time>2026-05-01T08:29:15.95Z</time></trkpt><trkpt lat="42.3636658" lon="14.2802943"><ele>42.2</ele><time>2026-05-01T08:29:16.931Z</time></trkpt><trkpt lat="42.3637557" lon="14.2803454"><ele>42.0</ele><time>2026-05-01T08:29:17.941Z</time></trkpt><trkpt lat="42.3638347" lon="14.2804088"><ele>42.0</ele><time>2026-05-01T08:29:18.937Z</time></trkpt><trkpt lat="42.3639077" lon="14.2804947"><ele>42.0</ele><time>2026-05-01T08:29:19.941Z</time></trkpt><trkpt lat="42.3639744" lon="14.2805911"><ele>42.0</ele><time>2026-05-01T08:29:20.949Z</time></trkpt><trkpt lat="42.3640347" lon="14.2807039"><ele>42.0</ele><time>2026-05-01T08:29:21.934Z</time></trkpt><trkpt lat="42.3640914" lon="14.2808291"><ele>42.0</ele><time>2026-05-01T08:29:22.943Z</time></trkpt><trkpt lat="42.3641517" lon="14.2809581"><ele>41.333333333333336</ele><time>2026-05-01T08:29:23.931Z</time></trkpt><trkpt lat="42.3642121" lon="14.2810773"><ele>40.666666666666664</ele><time>2026-05-01T08:29:24.935Z</time></trkpt><trkpt lat="42.3642626" lon="14.281186"><ele>40.0</ele><time>2026-05-01T08:29:25.939Z</time></trkpt><trkpt lat="42.3643014" lon="14.2812896"><ele>39.33333333333333</ele><time>2026-05-01T08:29:26.934Z</time></trkpt><trkpt lat="42.3643286" lon="14.2813832"><ele>38.666666666666664</ele><time>2026-05-01T08:29:27.942Z</time></trkpt><trkpt lat="42.364344" lon="14.2814835"><ele>38.0</ele><time>2026-05-01T08:29:28.949Z</time></trkpt><trkpt lat="42.3643509" lon="14.2815903"><ele>37.666666666666664</ele><time>2026-05-01T08:29:29.937Z</time></trkpt><trkpt lat="42.3643476" lon="14.2816977"><ele>37.33333333333333</ele><time>2026-05-01T08:29:30.937Z</time></trkpt><trkpt lat="42.3643398" lon="14.2817969"><ele>37.0</ele><time>2026-05-01T08:29:31.938Z</time></trkpt><trkpt lat="42.364324" lon="14.2818851"><ele>36.666666666666664</ele><time>2026-05-01T08:29:32.937Z</time></trkpt><trkpt lat="42.3643009" lon="14.281968"><ele>36.333333333333336</ele><time>2026-05-01T08:29:33.937Z</time></trkpt><trkpt lat="42.3642499" lon="14.2821254"><ele>36.0</ele><time>2026-05-01T08:29:35.938Z</time></trkpt><trkpt lat="42.3642152" lon="14.2822023"><ele>36.0</ele><time>2026-05-01T08:29:36.944Z</time></trkpt><trkpt lat="42.3641491" lon="14.2823383"><ele>36.0</ele><time>2026-05-01T08:29:38.944Z</time></trkpt><trkpt lat="42.3641242" lon="14.2824635"><ele>36.0</ele><time>2026-05-01T08:29:40.941Z</time></trkpt><trkpt lat="42.3641111" lon="14.2825975"><ele>36.0</ele><time>2026-05-01T08:29:42.952Z</time></trkpt><trkpt lat="42.3641328" lon="14.2827593"><ele>36.0</ele><time>2026-05-01T08:29:44.943Z</time></trkpt><trkpt lat="42.3641499" lon="14.2829173"><ele>36.0</ele><time>2026-05-01T08:29:46.938Z</time></trkpt><trkpt lat="42.3641905" lon="14.2830671"><ele>36.0</ele><time>2026-05-01T08:29:48.936Z</time></trkpt><trkpt lat="42.3642251" lon="14.2832207"><ele>36.0</ele><time>2026-05-01T08:29:50.943Z</time></trkpt><trkpt lat="42.3642279" lon="14.2833713"><ele>36.0</ele><time>2026-05-01T08:29:52.936Z</time></trkpt><trkpt lat="42.364248" lon="14.283546"><ele>35.833333333333336</ele><time>2026-05-01T08:29:54.94Z</time></trkpt><trkpt lat="42.3642613" lon="14.2836462"><ele>35.666666666666664</ele><time>2026-05-01T08:29:55.932Z</time></trkpt><trkpt lat="42.3642758" lon="14.2837542"><ele>35.5</ele><time>2026-05-01T08:29:56.934Z</time></trkpt><trkpt lat="42.3642792" lon="14.2838648"><ele>35.33333333333333</ele><time>2026-05-01T08:29:57.943Z</time></trkpt><trkpt lat="42.3642782" lon="14.28397"><ele>35.166666666666664</ele><time>2026-05-01T08:29:58.941Z</time></trkpt><trkpt lat="42.3642654" lon="14.2840908"><ele>35.0</ele><time>2026-05-01T08:29:59.935Z</time></trkpt><trkpt lat="42.3642559" lon="14.2842117"><ele>34.6</ele><time>2026-05-01T08:30:00.947Z</time></trkpt><trkpt lat="42.364247" lon="14.284338"><ele>34.2</ele><time>2026-05-01T08:30:01.943Z</time></trkpt><trkpt lat="42.3642395" lon="14.2844677"><ele>33.8</ele><time>2026-05-01T08:30:02.932Z</time></trkpt><trkpt lat="42.3642268" lon="14.2845948"><ele>33.4</ele><time>2026-05-01T08:30:03.94Z</time></trkpt><trkpt lat="42.3642241" lon="14.2847032"><ele>33.0</ele><time>2026-05-01T08:30:04.935Z</time></trkpt><trkpt lat="42.3642194" lon="14.2848193"><ele>33.0</ele><time>2026-05-01T08:30:05.937Z</time></trkpt><trkpt lat="42.3642069" lon="14.2849467"><ele>33.0</ele><time>2026-05-01T08:30:06.939Z</time></trkpt><trkpt lat="42.3641949" lon="14.2850655"><ele>33.0</ele><time>2026-05-01T08:30:07.934Z</time></trkpt><trkpt lat="42.3641924" lon="14.2851752"><ele>33.0</ele><time>2026-05-01T08:30:08.947Z</time></trkpt><trkpt lat="42.3641964" lon="14.2852874"><ele>33.0</ele><time>2026-05-01T08:30:09.94Z</time></trkpt><trkpt lat="42.3642065" lon="14.2854001"><ele>33.0</ele><time>2026-05-01T08:30:10.937Z</time></trkpt><trkpt lat="42.3642147" lon="14.2855217"><ele>33.6</ele><time>2026-05-01T08:30:11.947Z</time></trkpt><trkpt lat="42.3642411" lon="14.285655"><ele>34.199999999999996</ele><time>2026-05-01T08:30:12.94Z</time></trkpt><trkpt lat="42.3642613" lon="14.2857635"><ele>34.8</ele><time>2026-05-01T08:30:13.938Z</time></trkpt><trkpt lat="42.3642891" lon="14.2858798"><ele>35.4</ele><time>2026-05-01T08:30:14.935Z</time></trkpt><trkpt lat="42.3643232" lon="14.2860014"><ele>36.0</ele><time>2026-05-01T08:30:15.94Z</time></trkpt><trkpt lat="42.3643684" lon="14.2861218"><ele>36.0</ele><time>2026-05-01T08:30:16.939Z</time></trkpt><trkpt lat="42.3644276" lon="14.2862411"><ele>36.0</ele><time>2026-05-01T08:30:17.944Z</time></trkpt><trkpt lat="42.3644854" lon="14.286347"><ele>36.0</ele><time>2026-05-01T08:30:18.935Z</time></trkpt><trkpt lat="42.3645441" lon="14.2864368"><ele>36.0</ele><time>2026-05-01T08:30:19.941Z</time></trkpt><trkpt lat="42.3646004" lon="14.2865144"><ele>36.0</ele><time>2026-05-01T08:30:20.939Z</time></trkpt><trkpt lat="42.3646743" lon="14.286606"><ele>35.75</ele><time>2026-05-01T08:30:21.943Z</time></trkpt><trkpt lat="42.3647647" lon="14.2866976"><ele>35.5</ele><time>2026-05-01T08:30:22.947Z</time></trkpt><trkpt lat="42.36486" lon="14.2867821"><ele>35.25</ele><time>2026-05-01T08:30:23.942Z</time></trkpt><trkpt lat="42.3649604" lon="14.2868777"><ele>35.0</ele><time>2026-05-01T08:30:24.944Z</time></trkpt><trkpt lat="42.3650635" lon="14.2869752"><ele>35.0</ele><time>2026-05-01T08:30:25.948Z</time></trkpt><trkpt lat="42.3651459" lon="14.2870589"><ele>35.0</ele><time>2026-05-01T08:30:26.939Z</time></trkpt><trkpt lat="42.3652207" lon="14.2871422"><ele>35.0</ele><time>2026-05-01T08:30:27.953Z</time></trkpt><trkpt lat="42.3652935" lon="14.287222"><ele>35.0</ele><time>2026-05-01T08:30:28.941Z</time></trkpt><trkpt lat="42.3653629" lon="14.2872974"><ele>35.0</ele><time>2026-05-01T08:30:29.943Z</time></trkpt><trkpt lat="42.3654296" lon="14.2873496"><ele>35.142857142857146</ele><time>2026-05-01T08:30:30.944Z</time></trkpt><trkpt lat="42.3654938" lon="14.2873837"><ele>35.285714285714285</ele><time>2026-05-01T08:30:31.938Z</time></trkpt><trkpt lat="42.3655646" lon="14.2874067"><ele>35.42857142857143</ele><time>2026-05-01T08:30:32.947Z</time></trkpt><trkpt lat="42.3656416" lon="14.2874206"><ele>35.57142857142857</ele><time>2026-05-01T08:30:33.937Z</time></trkpt><trkpt lat="42.3657133" lon="14.2874344"><ele>35.714285714285715</ele><time>2026-05-01T08:30:34.944Z</time></trkpt><trkpt lat="42.3657772" lon="14.2874478"><ele>35.85714285714286</ele><time>2026-05-01T08:30:35.933Z</time></trkpt><trkpt lat="42.3658532" lon="14.2874507"><ele>36.0</ele><time>2026-05-01T08:30:37.937Z</time></trkpt><trkpt lat="42.3659317" lon="14.2873948"><ele>36.0</ele><time>2026-05-01T08:30:51.941Z</time></trkpt><trkpt lat="42.3660051" lon="14.2873824"><ele>36.0</ele><time>2026-05-01T08:30:53.931Z</time></trkpt><trkpt lat="42.3660701" lon="14.2873591"><ele>36.0</ele><time>2026-05-01T08:30:55.944Z</time></trkpt><trkpt lat="42.36614" lon="14.2873112"><ele>36.0</ele><time>2026-05-01T08:31:11.927Z</time></trkpt><trkpt lat="42.36624" lon="14.2872758"><ele>36.0</ele><time>2026-05-01T08:31:13.932Z</time></trkpt><trkpt lat="42.3663565" lon="14.2872373"><ele>36.0</ele><time>2026-05-01T08:31:15.94Z</time></trkpt><trkpt lat="42.3664621" lon="14.287252"><ele>35.8</ele><time>2026-05-01T08:31:17.938Z</time></trkpt><trkpt lat="42.3665527" lon="14.2873476"><ele>35.6</ele><time>2026-05-01T08:31:19.941Z</time></trkpt><trkpt lat="42.3666022" lon="14.2875082"><ele>35.4</ele><time>2026-05-01T08:31:21.941Z</time></trkpt><trkpt lat="42.3666223" lon="14.2876015"><ele>35.2</ele><time>2026-05-01T08:31:22.937Z</time></trkpt><trkpt lat="42.3666395" lon="14.2877015"><ele>35.0</ele><time>2026-05-01T08:31:23.946Z</time></trkpt><trkpt lat="42.366662" lon="14.2878083"><ele>35.0</ele><time>2026-05-01T08:31:24.943Z</time></trkpt><trkpt lat="42.3666848" lon="14.2879234"><ele>35.0</ele><time>2026-05-01T08:31:25.939Z</time></trkpt><trkpt lat="42.366709" lon="14.2880372"><ele>35.0</ele><time>2026-05-01T08:31:26.949Z</time></trkpt><trkpt lat="42.366733" lon="14.2881534"><ele>35.0</ele><time>2026-05-01T08:31:27.934Z</time></trkpt><trkpt lat="42.3667587" lon="14.2882776"><ele>35.0</ele><time>2026-05-01T08:31:28.938Z</time></trkpt><trkpt lat="42.3667803" lon="14.2884039"><ele>34.83333333333333</ele><time>2026-05-01T08:31:29.941Z</time></trkpt><trkpt lat="42.3668098" lon="14.2885267"><ele>34.666666666666664</ele><time>2026-05-01T08:31:30.944Z</time></trkpt><trkpt lat="42.3668389" lon="14.2886341"><ele>34.5</ele><time>2026-05-01T08:31:31.939Z</time></trkpt><trkpt lat="42.3668588" lon="14.2887393"><ele>34.333333333333336</ele><time>2026-05-01T08:31:32.932Z</time></trkpt><trkpt lat="42.366873" lon="14.2888409"><ele>34.16666666666667</ele><time>2026-05-01T08:31:33.944Z</time></trkpt><trkpt lat="42.3668711" lon="14.2889497"><ele>34.0</ele><time>2026-05-01T08:31:34.946Z</time></trkpt><trkpt lat="42.3668875" lon="14.2890521"><ele>33.66666666666667</ele><time>2026-05-01T08:31:35.943Z</time></trkpt><trkpt lat="42.3669093" lon="14.2891579"><ele>33.333333333333336</ele><time>2026-05-01T08:31:36.944Z</time></trkpt><trkpt lat="42.3669313" lon="14.2892785"><ele>33.0</ele><time>2026-05-01T08:31:37.953Z</time></trkpt><trkpt lat="42.3669419" lon="14.2893937"><ele>32.666666666666664</ele><time>2026-05-01T08:31:38.933Z</time></trkpt><trkpt lat="42.3669528" lon="14.2895113"><ele>32.33333333333333</ele><time>2026-05-01T08:31:39.932Z</time></trkpt><trkpt lat="42.3669626" lon="14.2896352"><ele>32.0</ele><time>2026-05-01T08:31:40.937Z</time></trkpt><trkpt lat="42.3669712" lon="14.2897569"><ele>32.166666666666664</ele><time>2026-05-01T08:31:41.944Z</time></trkpt><trkpt lat="42.3669749" lon="14.2898789"><ele>32.33333333333333</ele><time>2026-05-01T08:31:42.935Z</time></trkpt><trkpt lat="42.3669859" lon="14.2899917"><ele>32.5</ele><time>2026-05-01T08:31:43.942Z</time></trkpt><trkpt lat="42.3670015" lon="14.2901063"><ele>32.666666666666664</ele><time>2026-05-01T08:31:44.943Z</time></trkpt><trkpt lat="42.3670153" lon="14.2902167"><ele>32.833333333333336</ele><time>2026-05-01T08:31:45.938Z</time></trkpt><trkpt lat="42.3670383" lon="14.2903261"><ele>33.0</ele><time>2026-05-01T08:31:46.929Z</time></trkpt><trkpt lat="42.3670643" lon="14.2904441"><ele>33.0</ele><time>2026-05-01T08:31:47.933Z</time></trkpt><trkpt lat="42.367083" lon="14.2905345"><ele>33.0</ele><time>2026-05-01T08:31:48.93Z</time></trkpt><trkpt lat="42.3671212" lon="14.2906239"><ele>33.0</ele><time>2026-05-01T08:31:49.941Z</time></trkpt><trkpt lat="42.3671645" lon="14.2906995"><ele>33.0</ele><time>2026-05-01T08:31:50.951Z</time></trkpt><trkpt lat="42.3672093" lon="14.2907769"><ele>33.0</ele><time>2026-05-01T08:31:51.947Z</time></trkpt><trkpt lat="42.367252" lon="14.290849"><ele>33.0</ele><time>2026-05-01T08:31:52.936Z</time></trkpt><trkpt lat="42.3672999" lon="14.290908"><ele>33.0</ele><time>2026-05-01T08:31:53.946Z</time></trkpt><trkpt lat="42.3673655" lon="14.2909694"><ele>33.166666666666664</ele><time>2026-05-01T08:31:54.937Z</time></trkpt><trkpt lat="42.3674297" lon="14.2910288"><ele>33.333333333333336</ele><time>2026-05-01T08:31:55.935Z</time></trkpt><trkpt lat="42.3675062" lon="14.2911064"><ele>33.5</ele><time>2026-05-01T08:31:56.939Z</time></trkpt><trkpt lat="42.3675662" lon="14.2912008"><ele>33.66666666666667</ele><time>2026-05-01T08:31:57.941Z</time></trkpt><trkpt lat="42.3676277" lon="14.2912892"><ele>33.833333333333336</ele><time>2026-05-01T08:31:58.946Z</time></trkpt><trkpt lat="42.3676857" lon="14.2913821"><ele>34.0</ele><time>2026-05-01T08:31:59.937Z</time></trkpt><trkpt lat="42.3677395" lon="14.2914815"><ele>33.333333333333336</ele><time>2026-05-01T08:32:00.948Z</time></trkpt><trkpt lat="42.3677877" lon="14.2915727"><ele>32.66666666666667</ele><time>2026-05-01T08:32:01.934Z</time></trkpt><trkpt lat="42.3678397" lon="14.2916607"><ele>32.0</ele><time>2026-05-01T08:32:02.937Z</time></trkpt><trkpt lat="42.3678901" lon="14.2917512"><ele>31.333333333333336</ele><time>2026-05-01T08:32:03.941Z</time></trkpt><trkpt lat="42.3679306" lon="14.2918429"><ele>30.666666666666668</ele><time>2026-05-01T08:32:04.937Z</time></trkpt><trkpt lat="42.3679692" lon="14.2919492"><ele>30.0</ele><time>2026-05-01T08:32:05.934Z</time></trkpt><trkpt lat="42.3680018" lon="14.2920548"><ele>30.0</ele><time>2026-05-01T08:32:06.929Z</time></trkpt><trkpt lat="42.3680371" lon="14.2921678"><ele>30.0</ele><time>2026-05-01T08:32:07.932Z</time></trkpt><trkpt lat="42.3680694" lon="14.2922846"><ele>30.0</ele><time>2026-05-01T08:32:08.949Z</time></trkpt><trkpt lat="42.368097" lon="14.2923914"><ele>30.0</ele><time>2026-05-01T08:32:09.935Z</time></trkpt><trkpt lat="42.3681293" lon="14.2925098"><ele>30.0</ele><time>2026-05-01T08:32:10.934Z</time></trkpt><trkpt lat="42.3681594" lon="14.2926377"><ele>30.0</ele><time>2026-05-01T08:32:11.94Z</time></trkpt><trkpt lat="42.3681944" lon="14.2927841"><ele>30.0</ele><time>2026-05-01T08:32:12.935Z</time></trkpt><trkpt lat="42.3682311" lon="14.2929406"><ele>30.0</ele><time>2026-05-01T08:32:13.947Z</time></trkpt><trkpt lat="42.3682722" lon="14.2930922"><ele>30.0</ele><time>2026-05-01T08:32:14.934Z</time></trkpt><trkpt lat="42.3683035" lon="14.2932358"><ele>30.0</ele><time>2026-05-01T08:32:15.946Z</time></trkpt><trkpt lat="42.3683377" lon="14.2933783"><ele>30.0</ele><time>2026-05-01T08:32:16.94Z</time></trkpt><trkpt lat="42.3683696" lon="14.2935078"><ele>30.0</ele><time>2026-05-01T08:32:17.935Z</time></trkpt><trkpt lat="42.3683934" lon="14.2936203"><ele>30.0</ele><time>2026-05-01T08:32:18.931Z</time></trkpt><trkpt lat="42.3684222" lon="14.2937197"><ele>30.0</ele><time>2026-05-01T08:32:19.942Z</time></trkpt><trkpt lat="42.368445" lon="14.2938124"><ele>30.0</ele><time>2026-05-01T08:32:20.934Z</time></trkpt><trkpt lat="42.3684664" lon="14.2939045"><ele>29.833333333333332</ele><time>2026-05-01T08:32:21.945Z</time></trkpt><trkpt lat="42.3684834" lon="14.2940042"><ele>29.666666666666664</ele><time>2026-05-01T08:32:22.952Z</time></trkpt><trkpt lat="42.3684974" lon="14.2940932"><ele>29.5</ele><time>2026-05-01T08:32:23.937Z</time></trkpt><trkpt lat="42.3685077" lon="14.2941901"><ele>29.333333333333332</ele><time>2026-05-01T08:32:24.941Z</time></trkpt><trkpt lat="42.3685244" lon="14.2943075"><ele>29.166666666666664</ele><time>2026-05-01T08:32:25.945Z</time></trkpt><trkpt lat="42.3685415" lon="14.2944241"><ele>29.0</ele><time>2026-05-01T08:32:26.939Z</time></trkpt><trkpt lat="42.3685605" lon="14.2945285"><ele>29.000000000000004</ele><time>2026-05-01T08:32:27.942Z</time></trkpt><trkpt lat="42.3685682" lon="14.2946243"><ele>29.0</ele><time>2026-05-01T08:32:28.948Z</time></trkpt><trkpt lat="42.3685701" lon="14.2947219"><ele>29.000000000000004</ele><time>2026-05-01T08:32:29.94Z</time></trkpt><trkpt lat="42.3685725" lon="14.2948073"><ele>29.000000000000004</ele><time>2026-05-01T08:32:30.946Z</time></trkpt><trkpt lat="42.3685662" lon="14.2948962"><ele>29.0</ele><time>2026-05-01T08:32:31.937Z</time></trkpt><trkpt lat="42.3685517" lon="14.2949868"><ele>29.000000000000004</ele><time>2026-05-01T08:32:32.934Z</time></trkpt><trkpt lat="42.3685352" lon="14.2951113"><ele>29.000000000000004</ele><time>2026-05-01T08:32:34.929Z</time></trkpt><trkpt lat="42.3685" lon="14.2951914"><ele>29.0</ele><time>2026-05-01T08:32:41.934Z</time></trkpt><trkpt lat="42.3685255" lon="14.2952828"><ele>29.0</ele><time>2026-05-01T08:32:43.947Z</time></trkpt><trkpt lat="42.3686081" lon="14.2954469"><ele>29.0</ele><time>2026-05-01T08:32:45.942Z</time></trkpt><trkpt lat="42.368652" lon="14.2955504"><ele>29.0</ele><time>2026-05-01T08:32:46.934Z</time></trkpt><trkpt lat="42.3686948" lon="14.2956635"><ele>29.0</ele><time>2026-05-01T08:32:47.943Z</time></trkpt><trkpt lat="42.3687356" lon="14.2957717"><ele>28.999999999999996</ele><time>2026-05-01T08:32:48.935Z</time></trkpt><trkpt lat="42.3687781" lon="14.295879"><ele>29.0</ele><time>2026-05-01T08:32:49.936Z</time></trkpt><trkpt lat="42.3688287" lon="14.2959855"><ele>29.0</ele><time>2026-05-01T08:32:50.939Z</time></trkpt><trkpt lat="42.3688677" lon="14.2960896"><ele>29.0</ele><time>2026-05-01T08:32:51.935Z</time></trkpt><trkpt lat="42.3689156" lon="14.2961841"><ele>28.999999999999996</ele><time>2026-05-01T08:32:52.943Z</time></trkpt><trkpt lat="42.3689575" lon="14.2962766"><ele>29.0</ele><time>2026-05-01T08:32:53.935Z</time></trkpt><trkpt lat="42.369005" lon="14.2963717"><ele>29.166666666666664</ele><time>2026-05-01T08:32:54.936Z</time></trkpt><trkpt lat="42.3690536" lon="14.2964704"><ele>29.333333333333332</ele><time>2026-05-01T08:32:55.936Z</time></trkpt><trkpt lat="42.3690985" lon="14.2965677"><ele>29.5</ele><time>2026-05-01T08:32:56.943Z</time></trkpt><trkpt lat="42.3691448" lon="14.2966589"><ele>29.666666666666664</ele><time>2026-05-01T08:32:57.949Z</time></trkpt><trkpt lat="42.3691896" lon="14.2967554"><ele>29.833333333333332</ele><time>2026-05-01T08:32:58.943Z</time></trkpt><trkpt lat="42.369232" lon="14.296854"><ele>30.0</ele><time>2026-05-01T08:32:59.937Z</time></trkpt><trkpt lat="42.369272" lon="14.2969516"><ele>30.0</ele><time>2026-05-01T08:33:00.937Z</time></trkpt><trkpt lat="42.3693149" lon="14.2970571"><ele>30.0</ele><time>2026-05-01T08:33:01.947Z</time></trkpt><trkpt lat="42.3693608" lon="14.2971676"><ele>30.0</ele><time>2026-05-01T08:33:02.929Z</time></trkpt><trkpt lat="42.3694082" lon="14.2972676"><ele>30.0</ele><time>2026-05-01T08:33:03.942Z</time></trkpt><trkpt lat="42.3694569" lon="14.2973708"><ele>30.0</ele><time>2026-05-01T08:33:04.932Z</time></trkpt><trkpt lat="42.3695082" lon="14.2974801"><ele>30.0</ele><time>2026-05-01T08:33:05.936Z</time></trkpt><trkpt lat="42.3695601" lon="14.2975862"><ele>30.0</ele><time>2026-05-01T08:33:06.945Z</time></trkpt><trkpt lat="42.369608" lon="14.2976754"><ele>30.0</ele><time>2026-05-01T08:33:07.948Z</time></trkpt><trkpt lat="42.369649" lon="14.2977606"><ele>30.0</ele><time>2026-05-01T08:33:08.938Z</time></trkpt><trkpt lat="42.3696913" lon="14.2978591"><ele>30.0</ele><time>2026-05-01T08:33:09.934Z</time></trkpt><trkpt lat="42.3697408" lon="14.2979591"><ele>30.0</ele><time>2026-05-01T08:33:10.943Z</time></trkpt><trkpt lat="42.3697864" lon="14.298054"><ele>29.833333333333332</ele><time>2026-05-01T08:33:11.948Z</time></trkpt><trkpt lat="42.3698385" lon="14.2981467"><ele>29.666666666666664</ele><time>2026-05-01T08:33:12.936Z</time></trkpt><trkpt lat="42.3698921" lon="14.2982347"><ele>29.5</ele><time>2026-05-01T08:33:13.939Z</time></trkpt><trkpt lat="42.3699425" lon="14.2983205"><ele>29.333333333333332</ele><time>2026-05-01T08:33:14.935Z</time></trkpt><trkpt lat="42.3699923" lon="14.2984034"><ele>29.166666666666664</ele><time>2026-05-01T08:33:15.939Z</time></trkpt><trkpt lat="42.3700467" lon="14.2984748"><ele>29.0</ele><time>2026-05-01T08:33:16.941Z</time></trkpt><trkpt lat="42.3701032" lon="14.2985411"><ele>28.999999999999996</ele><time>2026-05-01T08:33:17.942Z</time></trkpt><trkpt lat="42.3701692" lon="14.2986037"><ele>29.0</ele><time>2026-05-01T08:33:18.945Z</time></trkpt><trkpt lat="42.3702367" lon="14.2986596"><ele>29.0</ele><time>2026-05-01T08:33:19.945Z</time></trkpt><trkpt lat="42.3703056" lon="14.2987278"><ele>29.0</ele><time>2026-05-01T08:33:20.945Z</time></trkpt><trkpt lat="42.3703715" lon="14.2987868"><ele>28.999999999999996</ele><time>2026-05-01T08:33:21.947Z</time></trkpt><trkpt lat="42.370441" lon="14.2988552"><ele>29.0</ele><time>2026-05-01T08:33:22.95Z</time></trkpt><trkpt lat="42.370511" lon="14.2989278"><ele>28.666666666666664</ele><time>2026-05-01T08:33:23.937Z</time></trkpt><trkpt lat="42.3705849" lon="14.2989978"><ele>28.333333333333332</ele><time>2026-05-01T08:33:24.948Z</time></trkpt><trkpt lat="42.3706565" lon="14.2990619"><ele>28.0</ele><time>2026-05-01T08:33:25.936Z</time></trkpt><trkpt lat="42.3707294" lon="14.2991272"><ele>27.666666666666664</ele><time>2026-05-01T08:33:26.939Z</time></trkpt><trkpt lat="42.3707997" lon="14.2991934"><ele>27.333333333333332</ele><time>2026-05-01T08:33:27.936Z</time></trkpt><trkpt lat="42.3708692" lon="14.299264"><ele>27.0</ele><time>2026-05-01T08:33:28.936Z</time></trkpt><trkpt lat="42.3709393" lon="14.2993294"><ele>27.0</ele><time>2026-05-01T08:33:29.934Z</time></trkpt><trkpt lat="42.3710123" lon="14.2993872"><ele>27.0</ele><time>2026-05-01T08:33:30.942Z</time></trkpt><trkpt lat="42.3710786" lon="14.2994269"><ele>27.0</ele><time>2026-05-01T08:33:31.935Z</time></trkpt><trkpt lat="42.3711485" lon="14.2994469"><ele>27.0</ele><time>2026-05-01T08:33:32.936Z</time></trkpt><trkpt lat="42.3712208" lon="14.299461"><ele>27.0</ele><time>2026-05-01T08:33:33.934Z</time></trkpt><trkpt lat="42.3712918" lon="14.2994643"><ele>27.0</ele><time>2026-05-01T08:33:34.932Z</time></trkpt><trkpt lat="42.3713681" lon="14.2994645"><ele>27.0</ele><time>2026-05-01T08:33:35.934Z</time></trkpt><trkpt lat="42.3714435" lon="14.2994611"><ele>26.833333333333332</ele><time>2026-05-01T08:33:36.938Z</time></trkpt><trkpt lat="42.3715184" lon="14.2994541"><ele>26.666666666666664</ele><time>2026-05-01T08:33:37.937Z</time></trkpt><trkpt lat="42.3715977" lon="14.2994552"><ele>26.5</ele><time>2026-05-01T08:33:38.932Z</time></trkpt><trkpt lat="42.3716833" lon="14.2994623"><ele>26.333333333333332</ele><time>2026-05-01T08:33:39.941Z</time></trkpt><trkpt lat="42.37177" lon="14.2994641"><ele>26.166666666666664</ele><time>2026-05-01T08:33:40.942Z</time></trkpt><trkpt lat="42.3718481" lon="14.2994742"><ele>26.0</ele><time>2026-05-01T08:33:41.929Z</time></trkpt><trkpt lat="42.3719198" lon="14.2994861"><ele>25.999999999999996</ele><time>2026-05-01T08:33:42.941Z</time></trkpt><trkpt lat="42.3719842" lon="14.2995012"><ele>26.0</ele><time>2026-05-01T08:33:43.939Z</time></trkpt><trkpt lat="42.3720717" lon="14.2995643"><ele>26.0</ele><time>2026-05-01T08:33:45.936Z</time></trkpt><trkpt lat="42.372151" lon="14.2996585"><ele>26.0</ele><time>2026-05-01T08:33:47.949Z</time></trkpt><trkpt lat="42.3721969" lon="14.2997178"><ele>25.999999999999996</ele><time>2026-05-01T08:33:48.936Z</time></trkpt><trkpt lat="42.3722457" lon="14.2997885"><ele>26.0</ele><time>2026-05-01T08:33:49.948Z</time></trkpt><trkpt lat="42.372288" lon="14.2998732"><ele>25.833333333333332</ele><time>2026-05-01T08:33:50.935Z</time></trkpt><trkpt lat="42.3723245" lon="14.2999684"><ele>25.666666666666664</ele><time>2026-05-01T08:33:51.947Z</time></trkpt><trkpt lat="42.3723618" lon="14.3000649"><ele>25.5</ele><time>2026-05-01T08:33:52.944Z</time></trkpt><trkpt lat="42.3723985" lon="14.3001673"><ele>25.333333333333336</ele><time>2026-05-01T08:33:53.939Z</time></trkpt><trkpt lat="42.3724386" lon="14.300265"><ele>25.166666666666668</ele><time>2026-05-01T08:33:54.943Z</time></trkpt><trkpt lat="42.3724832" lon="14.3003717"><ele>25.0</ele><time>2026-05-01T08:33:55.937Z</time></trkpt><trkpt lat="42.3725207" lon="14.3004792"><ele>24.666666666666668</ele><time>2026-05-01T08:33:56.943Z</time></trkpt><trkpt lat="42.3725616" lon="14.3005868"><ele>24.333333333333336</ele><time>2026-05-01T08:33:57.944Z</time></trkpt><trkpt lat="42.3726013" lon="14.3006894"><ele>24.0</ele><time>2026-05-01T08:33:58.943Z</time></trkpt><trkpt lat="42.3726487" lon="14.3007847"><ele>23.666666666666668</ele><time>2026-05-01T08:33:59.946Z</time></trkpt><trkpt lat="42.3727006" lon="14.3008551"><ele>23.333333333333336</ele><time>2026-05-01T08:34:00.945Z</time></trkpt><trkpt lat="42.3727492" lon="14.3009174"><ele>23.0</ele><time>2026-05-01T08:34:01.943Z</time></trkpt><trkpt lat="42.3728058" lon="14.3009656"><ele>23.0</ele><time>2026-05-01T08:34:02.937Z</time></trkpt><trkpt lat="42.3728693" lon="14.3010019"><ele>23.0</ele><time>2026-05-01T08:34:03.945Z</time></trkpt><trkpt lat="42.3729406" lon="14.3010257"><ele>23.0</ele><time>2026-05-01T08:34:04.937Z</time></trkpt><trkpt lat="42.3730135" lon="14.3010417"><ele>23.0</ele><time>2026-05-01T08:34:05.935Z</time></trkpt><trkpt lat="42.3730906" lon="14.3010559"><ele>23.0</ele><time>2026-05-01T08:34:06.939Z</time></trkpt><trkpt lat="42.373168" lon="14.3010599"><ele>23.0</ele><time>2026-05-01T08:34:07.939Z</time></trkpt><trkpt lat="42.3732394" lon="14.3010471"><ele>23.0</ele><time>2026-05-01T08:34:08.943Z</time></trkpt><trkpt lat="42.3733107" lon="14.3010293"><ele>23.0</ele><time>2026-05-01T08:34:09.941Z</time></trkpt><trkpt lat="42.3733826" lon="14.300998"><ele>23.0</ele><time>2026-05-01T08:34:10.943Z</time></trkpt><trkpt lat="42.3734548" lon="14.300963"><ele>23.0</ele><time>2026-05-01T08:34:11.943Z</time></trkpt><trkpt lat="42.3735277" lon="14.300928"><ele>23.0</ele><time>2026-05-01T08:34:12.939Z</time></trkpt><trkpt lat="42.3735972" lon="14.3008973"><ele>23.0</ele><time>2026-05-01T08:34:13.936Z</time></trkpt><trkpt lat="42.3736662" lon="14.300861"><ele>23.0</ele><time>2026-05-01T08:34:14.945Z</time></trkpt><trkpt lat="42.373739" lon="14.3008362"><ele>23.0</ele><time>2026-05-01T08:34:15.953Z</time></trkpt><trkpt lat="42.3738137" lon="14.3008006"><ele>23.0</ele><time>2026-05-01T08:34:16.942Z</time></trkpt><trkpt lat="42.373885" lon="14.3007639"><ele>23.0</ele><time>2026-05-01T08:34:17.94Z</time></trkpt><trkpt lat="42.3739546" lon="14.3007308"><ele>23.0</ele><time>2026-05-01T08:34:18.939Z</time></trkpt><trkpt lat="42.3740241" lon="14.3006896"><ele>23.0</ele><time>2026-05-01T08:34:19.943Z</time></trkpt><trkpt lat="42.3740981" lon="14.3006507"><ele>23.0</ele><time>2026-05-01T08:34:20.937Z</time></trkpt><trkpt lat="42.374171" lon="14.3006134"><ele>22.666666666666668</ele><time>2026-05-01T08:34:21.947Z</time></trkpt><trkpt lat="42.3742423" lon="14.3005821"><ele>22.333333333333336</ele><time>2026-05-01T08:34:22.937Z</time></trkpt><trkpt lat="42.3743112" lon="14.3005502"><ele>22.0</ele><time>2026-05-01T08:34:23.939Z</time></trkpt><trkpt lat="42.374385" lon="14.3005191"><ele>21.666666666666668</ele><time>2026-05-01T08:34:24.942Z</time></trkpt><trkpt lat="42.3744571" lon="14.3004953"><ele>21.333333333333332</ele><time>2026-05-01T08:34:25.947Z</time></trkpt><trkpt lat="42.3745304" lon="14.3004867"><ele>21.0</ele><time>2026-05-01T08:34:26.935Z</time></trkpt><trkpt lat="42.3746088" lon="14.3005061"><ele>21.0</ele><time>2026-05-01T08:34:27.942Z</time></trkpt><trkpt lat="42.3746781" lon="14.3005425"><ele>21.0</ele><time>2026-05-01T08:34:28.941Z</time></trkpt><trkpt lat="42.3747521" lon="14.3006057"><ele>21.0</ele><time>2026-05-01T08:34:29.946Z</time></trkpt><trkpt lat="42.3748083" lon="14.3006838"><ele>21.0</ele><time>2026-05-01T08:34:30.935Z</time></trkpt><trkpt lat="42.3748588" lon="14.300766"><ele>21.0</ele><time>2026-05-01T08:34:31.935Z</time></trkpt><trkpt lat="42.3748942" lon="14.3008635"><ele>21.0</ele><time>2026-05-01T08:34:32.933Z</time></trkpt><trkpt lat="42.3749196" lon="14.3009703"><ele>21.0</ele><time>2026-05-01T08:34:33.944Z</time></trkpt><trkpt lat="42.3749352" lon="14.3010976"><ele>21.0</ele><time>2026-05-01T08:34:34.931Z</time></trkpt><trkpt lat="42.3749466" lon="14.301224"><ele>21.0</ele><time>2026-05-01T08:34:35.941Z</time></trkpt><trkpt lat="42.3749472" lon="14.3013424"><ele>21.0</ele><time>2026-05-01T08:34:36.93Z</time></trkpt><trkpt lat="42.3749457" lon="14.3014634"><ele>21.0</ele><time>2026-05-01T08:34:37.935Z</time></trkpt><trkpt lat="42.3749475" lon="14.3015712"><ele>21.0</ele><time>2026-05-01T08:34:38.938Z</time></trkpt><trkpt lat="42.3749414" lon="14.3016739"><ele>21.0</ele><time>2026-05-01T08:34:39.938Z</time></trkpt><trkpt lat="42.374936" lon="14.3018276"><ele>21.0</ele><time>2026-05-01T08:34:41.932Z</time></trkpt><trkpt lat="42.3749246" lon="14.301914"><ele>21.0</ele><time>2026-05-01T08:34:43.942Z</time></trkpt><trkpt lat="42.374933" lon="14.3020191"><ele>21.0</ele><time>2026-05-01T08:34:47.938Z</time></trkpt><trkpt lat="42.3749485" lon="14.3021105"><ele>21.0</ele><time>2026-05-01T08:34:49.948Z</time></trkpt><trkpt lat="42.374964" lon="14.302239"><ele>21.0</ele><time>2026-05-01T08:34:51.944Z</time></trkpt><trkpt lat="42.3749972" lon="14.3023561"><ele>21.6</ele><time>2026-05-01T08:34:53.939Z</time></trkpt><trkpt lat="42.3750375" lon="14.3024659"><ele>22.200000000000003</ele><time>2026-05-01T08:34:55.942Z</time></trkpt><trkpt lat="42.3750967" lon="14.3025922"><ele>22.799999999999997</ele><time>2026-05-01T08:34:57.958Z</time></trkpt><trkpt lat="42.3751365" lon="14.3026593"><ele>23.4</ele><time>2026-05-01T08:34:58.945Z</time></trkpt><trkpt lat="42.3752284" lon="14.3027626"><ele>24.0</ele><time>2026-05-01T08:35:00.941Z</time></trkpt><trkpt lat="42.375288" lon="14.3028224"><ele>24.0</ele><time>2026-05-01T08:35:01.946Z</time></trkpt><trkpt lat="42.3753488" lon="14.3028626"><ele>24.0</ele><time>2026-05-01T08:35:02.938Z</time></trkpt><trkpt lat="42.3754081" lon="14.3029044"><ele>24.0</ele><time>2026-05-01T08:35:03.942Z</time></trkpt><trkpt lat="42.3755243" lon="14.3029928"><ele>24.0</ele><time>2026-05-01T08:35:05.933Z</time></trkpt><trkpt lat="42.3755868" lon="14.3030518"><ele>24.0</ele><time>2026-05-01T08:35:06.944Z</time></trkpt><trkpt lat="42.3756503" lon="14.3031004"><ele>24.0</ele><time>2026-05-01T08:35:07.946Z</time></trkpt><trkpt lat="42.3757154" lon="14.303143"><ele>23.71428571428571</ele><time>2026-05-01T08:35:08.937Z</time></trkpt><trkpt lat="42.3757904" lon="14.3031858"><ele>23.428571428571427</ele><time>2026-05-01T08:35:09.936Z</time></trkpt><trkpt lat="42.3758608" lon="14.3032252"><ele>23.142857142857142</ele><time>2026-05-01T08:35:10.943Z</time></trkpt><trkpt lat="42.3759224" lon="14.3032704"><ele>22.857142857142854</ele><time>2026-05-01T08:35:11.944Z</time></trkpt><trkpt lat="42.3759781" lon="14.303312"><ele>22.57142857142857</ele><time>2026-05-01T08:35:12.942Z</time></trkpt><trkpt lat="42.3760384" lon="14.3033748"><ele>22.285714285714285</ele><time>2026-05-01T08:35:13.942Z</time></trkpt><trkpt lat="42.3761003" lon="14.303407"><ele>22.0</ele><time>2026-05-01T08:35:14.944Z</time></trkpt><trkpt lat="42.3761914" lon="14.3034194"><ele>22.0</ele><time>2026-05-01T08:35:16.947Z</time></trkpt><trkpt lat="42.3762569" lon="14.3033243"><ele>22.0</ele><time>2026-05-01T08:35:18.941Z</time></trkpt><trkpt lat="42.3762718" lon="14.3032392"><ele>22.0</ele><time>2026-05-01T08:35:19.935Z</time></trkpt><trkpt lat="42.3762916" lon="14.3031351"><ele>22.0</ele><time>2026-05-01T08:35:20.944Z</time></trkpt><trkpt lat="42.3763044" lon="14.3030337"><ele>22.0</ele><time>2026-05-01T08:35:21.942Z</time></trkpt><trkpt lat="42.3763206" lon="14.3029447"><ele>22.0</ele><time>2026-05-01T08:35:22.941Z</time></trkpt><trkpt lat="42.3763338" lon="14.3028052"><ele>21.833333333333332</ele><time>2026-05-01T08:35:24.941Z</time></trkpt><trkpt lat="42.3762459" lon="14.3027295"><ele>21.666666666666664</ele><time>2026-05-01T08:35:26.942Z</time></trkpt><trkpt lat="42.3761825" lon="14.3027046"><ele>21.5</ele><time>2026-05-01T08:35:27.93Z</time></trkpt><trkpt lat="42.3761162" lon="14.3027026"><ele>21.333333333333332</ele><time>2026-05-01T08:35:28.943Z</time></trkpt><trkpt lat="42.3760415" lon="14.3026987"><ele>21.166666666666668</ele><time>2026-05-01T08:35:29.942Z</time></trkpt><trkpt lat="42.3759253" lon="14.3026982"><ele>21.0</ele><time>2026-05-01T08:35:31.942Z</time></trkpt><trkpt lat="42.3758519" lon="14.302643"><ele>21.0</ele><time>2026-05-01T08:35:33.941Z</time></trkpt><trkpt lat="42.375819" lon="14.3025164"><ele>21.0</ele><time>2026-05-01T08:35:35.94Z</time></trkpt><trkpt lat="42.3758539" lon="14.3023463"><ele>21.0</ele><time>2026-05-01T08:35:37.929Z</time></trkpt><trkpt lat="42.3758845" lon="14.3022327"><ele>21.0</ele><time>2026-05-01T08:35:38.945Z</time></trkpt><trkpt lat="42.3759096" lon="14.3021134"><ele>21.0</ele><time>2026-05-01T08:35:39.93Z</time></trkpt><trkpt lat="42.375935" lon="14.301989"><ele>21.8</ele><time>2026-05-01T08:35:40.941Z</time></trkpt><trkpt lat="42.3759634" lon="14.3018688"><ele>22.6</ele><time>2026-05-01T08:35:41.946Z</time></trkpt><trkpt lat="42.3760017" lon="14.3017399"><ele>23.4</ele><time>2026-05-01T08:35:42.935Z</time></trkpt><trkpt lat="42.3760455" lon="14.3016074"><ele>24.2</ele><time>2026-05-01T08:35:43.942Z</time></trkpt><trkpt lat="42.3760962" lon="14.3014712"><ele>25.0</ele><time>2026-05-01T08:35:44.929Z</time></trkpt><trkpt lat="42.3761478" lon="14.3013328"><ele>25.8</ele><time>2026-05-01T08:35:45.952Z</time></trkpt><trkpt lat="42.3761954" lon="14.3011957"><ele>26.6</ele><time>2026-05-01T08:35:46.944Z</time></trkpt><trkpt lat="42.3762447" lon="14.3010581"><ele>27.4</ele><time>2026-05-01T08:35:47.944Z</time></trkpt><trkpt lat="42.3762941" lon="14.300928"><ele>28.2</ele><time>2026-05-01T08:35:48.944Z</time></trkpt><trkpt lat="42.3763437" lon="14.3007998"><ele>29.0</ele><time>2026-05-01T08:35:49.944Z</time></trkpt><trkpt lat="42.3763903" lon="14.3006849"><ele>29.333333333333332</ele><time>2026-05-01T08:35:50.943Z</time></trkpt><trkpt lat="42.3764283" lon="14.3005925"><ele>29.666666666666664</ele><time>2026-05-01T08:35:51.937Z</time></trkpt><trkpt lat="42.3764789" lon="14.3004683"><ele>30.0</ele><time>2026-05-01T08:35:53.941Z</time></trkpt><trkpt lat="42.3765325" lon="14.3003979"><ele>30.333333333333336</ele><time>2026-05-01T08:35:55.941Z</time></trkpt><trkpt lat="42.3766038" lon="14.3004134"><ele>30.666666666666668</ele><time>2026-05-01T08:35:57.944Z</time></trkpt><trkpt lat="42.3766556" lon="14.3004808"><ele>31.0</ele><time>2026-05-01T08:35:58.936Z</time></trkpt><trkpt lat="42.3767169" lon="14.3005679"><ele>31.0</ele><time>2026-05-01T08:35:59.955Z</time></trkpt><trkpt lat="42.3767981" lon="14.3006543"><ele>31.0</ele><time>2026-05-01T08:36:00.931Z</time></trkpt><trkpt lat="42.376878" lon="14.3007562"><ele>31.0</ele><time>2026-05-01T08:36:01.943Z</time></trkpt><trkpt lat="42.3769782" lon="14.300851"><ele>31.0</ele><time>2026-05-01T08:36:02.947Z</time></trkpt><trkpt lat="42.3770906" lon="14.3009415"><ele>30.75</ele><time>2026-05-01T08:36:03.94Z</time></trkpt><trkpt lat="42.377219" lon="14.3010262"><ele>30.5</ele><time>2026-05-01T08:36:04.944Z</time></trkpt><trkpt lat="42.3773571" lon="14.3010987"><ele>30.25</ele><time>2026-05-01T08:36:05.935Z</time></trkpt><trkpt lat="42.3774998" lon="14.3011475"><ele>30.0</ele><time>2026-05-01T08:36:06.939Z</time></trkpt><trkpt lat="42.3776399" lon="14.3011905"><ele>30.0</ele><time>2026-05-01T08:36:07.937Z</time></trkpt><trkpt lat="42.3777784" lon="14.3012402"><ele>30.0</ele><time>2026-05-01T08:36:08.947Z</time></trkpt><trkpt lat="42.37792" lon="14.3012876"><ele>30.0</ele><time>2026-05-01T08:36:09.935Z</time></trkpt><trkpt lat="42.3780678" lon="14.3013226"><ele>30.0</ele><time>2026-05-01T08:36:10.949Z</time></trkpt><trkpt lat="42.3782102" lon="14.3013648"><ele>30.0</ele><time>2026-05-01T08:36:11.945Z</time></trkpt><trkpt lat="42.3783478" lon="14.3014068"><ele>30.0</ele><time>2026-05-01T08:36:12.931Z</time></trkpt><trkpt lat="42.3784866" lon="14.3014435"><ele>30.0</ele><time>2026-05-01T08:36:13.938Z</time></trkpt><trkpt lat="42.3786263" lon="14.3014821"><ele>30.0</ele><time>2026-05-01T08:36:14.944Z</time></trkpt><trkpt lat="42.3787692" lon="14.3015256"><ele>29.0</ele><time>2026-05-01T08:36:15.936Z</time></trkpt><trkpt lat="42.3789112" lon="14.30157"><ele>28.0</ele><time>2026-05-01T08:36:16.943Z</time></trkpt><trkpt lat="42.3790562" lon="14.3016136"><ele>27.0</ele><time>2026-05-01T08:36:17.946Z</time></trkpt><trkpt lat="42.3792052" lon="14.3016565"><ele>26.0</ele><time>2026-05-01T08:36:18.945Z</time></trkpt><trkpt lat="42.379354" lon="14.3017028"><ele>26.0</ele><time>2026-05-01T08:36:19.948Z</time></trkpt><trkpt lat="42.3795058" lon="14.3017466"><ele>26.0</ele><time>2026-05-01T08:36:20.944Z</time></trkpt><trkpt lat="42.3796571" lon="14.3017907"><ele>26.0</ele><time>2026-05-01T08:36:21.949Z</time></trkpt><trkpt lat="42.3798088" lon="14.3018381"><ele>26.0</ele><time>2026-05-01T08:36:22.939Z</time></trkpt><trkpt lat="42.3799587" lon="14.3018837"><ele>26.0</ele><time>2026-05-01T08:36:23.945Z</time></trkpt><trkpt lat="42.3800947" lon="14.3019213"><ele>26.0</ele><time>2026-05-01T08:36:24.938Z</time></trkpt><trkpt lat="42.3802317" lon="14.3019592"><ele>26.0</ele><time>2026-05-01T08:36:25.947Z</time></trkpt><trkpt lat="42.3803678" lon="14.3019995"><ele>26.0</ele><time>2026-05-01T08:36:26.943Z</time></trkpt><trkpt lat="42.3805049" lon="14.3020438"><ele>26.0</ele><time>2026-05-01T08:36:27.937Z</time></trkpt><trkpt lat="42.3806407" lon="14.3020898"><ele>26.0</ele><time>2026-05-01T08:36:28.939Z</time></trkpt><trkpt lat="42.3807729" lon="14.3021424"><ele>26.0</ele><time>2026-05-01T08:36:29.944Z</time></trkpt><trkpt lat="42.3809054" lon="14.3021943"><ele>25.75</ele><time>2026-05-01T08:36:30.933Z</time></trkpt><trkpt lat="42.3810389" lon="14.3022405"><ele>25.5</ele><time>2026-05-01T08:36:31.944Z</time></trkpt><trkpt lat="42.3811772" lon="14.3022858"><ele>25.25</ele><time>2026-05-01T08:36:32.939Z</time></trkpt><trkpt lat="42.3813174" lon="14.302335"><ele>25.0</ele><time>2026-05-01T08:36:33.94Z</time></trkpt><trkpt lat="42.3814603" lon="14.3023853"><ele>24.25</ele><time>2026-05-01T08:36:34.941Z</time></trkpt><trkpt lat="42.3816061" lon="14.3024511"><ele>23.5</ele><time>2026-05-01T08:36:35.954Z</time></trkpt><trkpt lat="42.381747" lon="14.3025206"><ele>22.75</ele><time>2026-05-01T08:36:36.935Z</time></trkpt><trkpt lat="42.3818801" lon="14.3025871"><ele>22.0</ele><time>2026-05-01T08:36:37.941Z</time></trkpt><trkpt lat="42.3820004" lon="14.3026595"><ele>22.0</ele><time>2026-05-01T08:36:38.939Z</time></trkpt><trkpt lat="42.3821174" lon="14.3027447"><ele>22.0</ele><time>2026-05-01T08:36:39.951Z</time></trkpt><trkpt lat="42.3822219" lon="14.3028207"><ele>22.0</ele><time>2026-05-01T08:36:40.946Z</time></trkpt><trkpt lat="42.3823151" lon="14.3028895"><ele>22.0</ele><time>2026-05-01T08:36:41.938Z</time></trkpt><trkpt lat="42.3824007" lon="14.3029538"><ele>22.0</ele><time>2026-05-01T08:36:42.939Z</time></trkpt><trkpt lat="42.3824665" lon="14.3030203"><ele>22.0</ele><time>2026-05-01T08:36:43.942Z</time></trkpt><trkpt lat="42.3825083" lon="14.3031009"><ele>22.0</ele><time>2026-05-01T08:36:44.933Z</time></trkpt><trkpt lat="42.3825286" lon="14.3032003"><ele>22.0</ele><time>2026-05-01T08:36:45.927Z</time></trkpt><trkpt lat="42.3825274" lon="14.3033128"><ele>22.0</ele><time>2026-05-01T08:36:46.935Z</time></trkpt><trkpt lat="42.3824995" lon="14.3034392"><ele>22.0</ele><time>2026-05-01T08:36:47.937Z</time></trkpt><trkpt lat="42.3824773" lon="14.3035892"><ele>22.0</ele><time>2026-05-01T08:36:48.941Z</time></trkpt><trkpt lat="42.3824519" lon="14.3037384"><ele>22.0</ele><time>2026-05-01T08:36:49.94Z</time></trkpt><trkpt lat="42.3824306" lon="14.3038955"><ele>22.0</ele><time>2026-05-01T08:36:50.94Z</time></trkpt><trkpt lat="42.3824094" lon="14.3040613"><ele>22.0</ele><time>2026-05-01T08:36:51.947Z</time></trkpt><trkpt lat="42.3823781" lon="14.3042497"><ele>21.666666666666664</ele><time>2026-05-01T08:36:52.946Z</time></trkpt><trkpt lat="42.3823562" lon="14.3044469"><ele>21.333333333333332</ele><time>2026-05-01T08:36:53.93Z</time></trkpt><trkpt lat="42.3823344" lon="14.3046487"><ele>21.0</ele><time>2026-05-01T08:36:54.947Z</time></trkpt><trkpt lat="42.3823164" lon="14.3048582"><ele>20.5</ele><time>2026-05-01T08:36:55.936Z</time></trkpt><trkpt lat="42.3822947" lon="14.3050641"><ele>20.0</ele><time>2026-05-01T08:36:56.94Z</time></trkpt><trkpt lat="42.3822716" lon="14.3052571"><ele>19.5</ele><time>2026-05-01T08:36:57.939Z</time></trkpt><trkpt lat="42.3822464" lon="14.3054428"><ele>19.0</ele><time>2026-05-01T08:36:58.936Z</time></trkpt><trkpt lat="42.3822217" lon="14.3056181"><ele>19.0</ele><time>2026-05-01T08:36:59.938Z</time></trkpt><trkpt lat="42.382198" lon="14.3057791"><ele>19.0</ele><time>2026-05-01T08:37:00.945Z</time></trkpt><trkpt lat="42.3821768" lon="14.3059216"><ele>19.0</ele><time>2026-05-01T08:37:01.933Z</time></trkpt><trkpt lat="42.3821528" lon="14.3060521"><ele>19.0</ele><time>2026-05-01T08:37:02.94Z</time></trkpt><trkpt lat="42.3821328" lon="14.3061641"><ele>19.0</ele><time>2026-05-01T08:37:03.938Z</time></trkpt><trkpt lat="42.3821073" lon="14.3062663"><ele>18.8</ele><time>2026-05-01T08:37:04.932Z</time></trkpt><trkpt lat="42.3820807" lon="14.3063445"><ele>18.599999999999998</ele><time>2026-05-01T08:37:05.932Z</time></trkpt><trkpt lat="42.3820665" lon="14.3064608"><ele>18.4</ele><time>2026-05-01T08:37:07.937Z</time></trkpt><trkpt lat="42.3821316" lon="14.3066104"><ele>18.2</ele><time>2026-05-01T08:37:09.939Z</time></trkpt><trkpt lat="42.3821964" lon="14.3067018"><ele>18.0</ele><time>2026-05-01T08:37:10.939Z</time></trkpt><trkpt lat="42.3822662" lon="14.3068106"><ele>17.75</ele><time>2026-05-01T08:37:11.943Z</time></trkpt><trkpt lat="42.3823372" lon="14.306941"><ele>17.5</ele><time>2026-05-01T08:37:12.933Z</time></trkpt><trkpt lat="42.3824077" lon="14.3070883"><ele>17.25</ele><time>2026-05-01T08:37:13.938Z</time></trkpt><trkpt lat="42.3824842" lon="14.3072432"><ele>17.0</ele><time>2026-05-01T08:37:14.934Z</time></trkpt><trkpt lat="42.3825629" lon="14.3074029"><ele>16.666666666666668</ele><time>2026-05-01T08:37:15.942Z</time></trkpt><trkpt lat="42.3826355" lon="14.3075716"><ele>16.333333333333332</ele><time>2026-05-01T08:37:16.932Z</time></trkpt><trkpt lat="42.3827105" lon="14.3077545"><ele>16.0</ele><time>2026-05-01T08:37:17.943Z</time></trkpt><trkpt lat="42.3827898" lon="14.3079345"><ele>16.0</ele><time>2026-05-01T08:37:18.938Z</time></trkpt><trkpt lat="42.3828722" lon="14.3081099"><ele>16.0</ele><time>2026-05-01T08:37:19.936Z</time></trkpt><trkpt lat="42.3829511" lon="14.3082829"><ele>16.0</ele><time>2026-05-01T08:37:20.944Z</time></trkpt><trkpt lat="42.3830273" lon="14.3084482"><ele>16.0</ele><time>2026-05-01T08:37:21.943Z</time></trkpt><trkpt lat="42.3831012" lon="14.308607"><ele>16.0</ele><time>2026-05-01T08:37:22.935Z</time></trkpt><trkpt lat="42.3831678" lon="14.308765"><ele>16.0</ele><time>2026-05-01T08:37:23.935Z</time></trkpt><trkpt lat="42.3832389" lon="14.3089192"><ele>16.0</ele><time>2026-05-01T08:37:24.946Z</time></trkpt><trkpt lat="42.3833096" lon="14.3090782"><ele>16.0</ele><time>2026-05-01T08:37:25.943Z</time></trkpt><trkpt lat="42.383378" lon="14.3092409"><ele>15.5</ele><time>2026-05-01T08:37:26.94Z</time></trkpt><trkpt lat="42.3834518" lon="14.3094039"><ele>15.0</ele><time>2026-05-01T08:37:27.94Z</time></trkpt><trkpt lat="42.3835285" lon="14.3095642"><ele>14.5</ele><time>2026-05-01T08:37:28.945Z</time></trkpt><trkpt lat="42.3836031" lon="14.3097295"><ele>14.0</ele><time>2026-05-01T08:37:29.932Z</time></trkpt><trkpt lat="42.3836776" lon="14.3099028"><ele>14.0</ele><time>2026-05-01T08:37:30.946Z</time></trkpt><trkpt lat="42.3837537" lon="14.310077"><ele>14.0</ele><time>2026-05-01T08:37:31.94Z</time></trkpt><trkpt lat="42.3838326" lon="14.3102448"><ele>14.0</ele><time>2026-05-01T08:37:32.936Z</time></trkpt><trkpt lat="42.3839145" lon="14.3104167"><ele>14.0</ele><time>2026-05-01T08:37:33.936Z</time></trkpt><trkpt lat="42.3840127" lon="14.3105702"><ele>14.333333333333334</ele><time>2026-05-01T08:37:34.945Z</time></trkpt><trkpt lat="42.3841313" lon="14.3107024"><ele>14.666666666666668</ele><time>2026-05-01T08:37:35.942Z</time></trkpt><trkpt lat="42.3842675" lon="14.3108158"><ele>15.0</ele><time>2026-05-01T08:37:36.939Z</time></trkpt><trkpt lat="42.384411" lon="14.3109044"><ele>15.0</ele><time>2026-05-01T08:37:37.938Z</time></trkpt><trkpt lat="42.3845566" lon="14.3109862"><ele>15.0</ele><time>2026-05-01T08:37:38.939Z</time></trkpt><trkpt lat="42.3847108" lon="14.3110602"><ele>15.0</ele><time>2026-05-01T08:37:39.938Z</time></trkpt><trkpt lat="42.3848646" lon="14.3111437"><ele>14.666666666666668</ele><time>2026-05-01T08:37:40.939Z</time></trkpt><trkpt lat="42.3850225" lon="14.3112202"><ele>14.333333333333334</ele><time>2026-05-01T08:37:41.936Z</time></trkpt><trkpt lat="42.3851821" lon="14.311302"><ele>14.0</ele><time>2026-05-01T08:37:42.937Z</time></trkpt><trkpt lat="42.385339" lon="14.3113845"><ele>14.0</ele><time>2026-05-01T08:37:43.935Z</time></trkpt><trkpt lat="42.3854909" lon="14.3114683"><ele>14.0</ele><time>2026-05-01T08:37:44.944Z</time></trkpt><trkpt lat="42.3856464" lon="14.3115444"><ele>14.0</ele><time>2026-05-01T08:37:45.932Z</time></trkpt><trkpt lat="42.3858017" lon="14.311625"><ele>14.0</ele><time>2026-05-01T08:37:46.946Z</time></trkpt><trkpt lat="42.3859473" lon="14.3117087"><ele>14.0</ele><time>2026-05-01T08:37:47.938Z</time></trkpt><trkpt lat="42.3860764" lon="14.311774"><ele>14.0</ele><time>2026-05-01T08:37:48.941Z</time></trkpt><trkpt lat="42.3861861" lon="14.3118209"><ele>14.0</ele><time>2026-05-01T08:37:49.941Z</time></trkpt><trkpt lat="42.3862658" lon="14.3118662"><ele>14.000000000000002</ele><time>2026-05-01T08:37:50.941Z</time></trkpt><trkpt lat="42.3863536" lon="14.3119314"><ele>14.0</ele><time>2026-05-01T08:37:52.935Z</time></trkpt><trkpt lat="42.386414" lon="14.3119881"><ele>14.0</ele><time>2026-05-01T08:37:55.952Z</time></trkpt><trkpt lat="42.3864299" lon="14.3120794"><ele>14.0</ele><time>2026-05-01T08:37:57.934Z</time></trkpt><trkpt lat="42.3864072" lon="14.3121736"><ele>14.000000000000002</ele><time>2026-05-01T08:37:58.94Z</time></trkpt><trkpt lat="42.3863899" lon="14.3122645"><ele>14.0</ele><time>2026-05-01T08:37:59.94Z</time></trkpt><trkpt lat="42.386369" lon="14.3123742"><ele>13.833333333333334</ele><time>2026-05-01T08:38:00.94Z</time></trkpt><trkpt lat="42.3863408" lon="14.3124898"><ele>13.666666666666668</ele><time>2026-05-01T08:38:01.936Z</time></trkpt><trkpt lat="42.3863174" lon="14.3125858"><ele>13.5</ele><time>2026-05-01T08:38:02.933Z</time></trkpt><trkpt lat="42.386298" lon="14.3126787"><ele>13.333333333333332</ele><time>2026-05-01T08:38:03.938Z</time></trkpt><trkpt lat="42.3862806" lon="14.3127809"><ele>13.166666666666666</ele><time>2026-05-01T08:38:04.935Z</time></trkpt><trkpt lat="42.386254" lon="14.3128881"><ele>13.0</ele><time>2026-05-01T08:38:05.941Z</time></trkpt><trkpt lat="42.3862236" lon="14.3130032"><ele>12.999999999999998</ele><time>2026-05-01T08:38:06.939Z</time></trkpt><trkpt lat="42.3861956" lon="14.3131182"><ele>13.0</ele><time>2026-05-01T08:38:07.936Z</time></trkpt><trkpt lat="42.3861699" lon="14.3132259"><ele>13.0</ele><time>2026-05-01T08:38:08.94Z</time></trkpt><trkpt lat="42.3861421" lon="14.3133397"><ele>13.0</ele><time>2026-05-01T08:38:09.929Z</time></trkpt><trkpt lat="42.3861142" lon="14.3134525"><ele>12.999999999999998</ele><time>2026-05-01T08:38:10.935Z</time></trkpt><trkpt lat="42.3860859" lon="14.3135677"><ele>13.0</ele><time>2026-05-01T08:38:11.932Z</time></trkpt><trkpt lat="42.3860638" lon="14.3136829"><ele>12.999999999999998</ele><time>2026-05-01T08:38:12.932Z</time></trkpt><trkpt lat="42.3860398" lon="14.3137935"><ele>13.0</ele><time>2026-05-01T08:38:13.937Z</time></trkpt><trkpt lat="42.3860126" lon="14.3139019"><ele>13.0</ele><time>2026-05-01T08:38:14.932Z</time></trkpt><trkpt lat="42.3859881" lon="14.3140112"><ele>13.0</ele><time>2026-05-01T08:38:15.938Z</time></trkpt><trkpt lat="42.3859604" lon="14.3141261"><ele>12.999999999999998</ele><time>2026-05-01T08:38:16.94Z</time></trkpt><trkpt lat="42.385931" lon="14.3142479"><ele>13.0</ele><time>2026-05-01T08:38:17.936Z</time></trkpt><trkpt lat="42.3859032" lon="14.3143625"><ele>13.0</ele><time>2026-05-01T08:38:18.941Z</time></trkpt><trkpt lat="42.3858752" lon="14.3144802"><ele>13.0</ele><time>2026-05-01T08:38:19.943Z</time></trkpt><trkpt lat="42.3858485" lon="14.3146054"><ele>13.0</ele><time>2026-05-01T08:38:20.94Z</time></trkpt><trkpt lat="42.3858236" lon="14.3147249"><ele>13.0</ele><time>2026-05-01T08:38:21.937Z</time></trkpt><trkpt lat="42.3857976" lon="14.314841"><ele>13.0</ele><time>2026-05-01T08:38:22.951Z</time></trkpt><trkpt lat="42.3857727" lon="14.3149499"><ele>12.499999999999998</ele><time>2026-05-01T08:38:23.931Z</time></trkpt><trkpt lat="42.3857452" lon="14.3150665"><ele>12.0</ele><time>2026-05-01T08:38:24.935Z</time></trkpt><trkpt lat="42.3857202" lon="14.3151843"><ele>11.5</ele><time>2026-05-01T08:38:25.932Z</time></trkpt><trkpt lat="42.385696" lon="14.315297"><ele>11.0</ele><time>2026-05-01T08:38:26.948Z</time></trkpt><trkpt lat="42.3856719" lon="14.3154127"><ele>10.5</ele><time>2026-05-01T08:38:27.939Z</time></trkpt><trkpt lat="42.3856435" lon="14.3155232"><ele>10.0</ele><time>2026-05-01T08:38:28.939Z</time></trkpt><trkpt lat="42.3856154" lon="14.3156285"><ele>9.833333333333334</ele><time>2026-05-01T08:38:29.949Z</time></trkpt><trkpt lat="42.3855969" lon="14.3157318"><ele>9.666666666666668</ele><time>2026-05-01T08:38:30.931Z</time></trkpt><trkpt lat="42.3855818" lon="14.3158253"><ele>9.5</ele><time>2026-05-01T08:38:31.932Z</time></trkpt><trkpt lat="42.385559" lon="14.3159709"><ele>9.333333333333334</ele><time>2026-05-01T08:38:33.941Z</time></trkpt><trkpt lat="42.3855293" lon="14.3160633"><ele>9.166666666666666</ele><time>2026-05-01T08:38:35.934Z</time></trkpt><trkpt lat="42.3854343" lon="14.3160645"><ele>9.0</ele><time>2026-05-01T08:38:38.945Z</time></trkpt><trkpt lat="42.3853784" lon="14.3160243"><ele>9.0</ele><time>2026-05-01T08:38:39.934Z</time></trkpt><trkpt lat="42.3853146" lon="14.3159871"><ele>9.0</ele><time>2026-05-01T08:38:40.941Z</time></trkpt><trkpt lat="42.3852483" lon="14.315958"><ele>9.0</ele><time>2026-05-01T08:38:41.932Z</time></trkpt><trkpt lat="42.385149" lon="14.3159184"><ele>9.0</ele><time>2026-05-01T08:38:43.944Z</time></trkpt><trkpt lat="42.3850464" lon="14.3158522"><ele>9.0</ele><time>2026-05-01T08:38:45.945Z</time></trkpt><trkpt lat="42.3849471" lon="14.3157667"><ele>9.0</ele><time>2026-05-01T08:38:47.931Z</time></trkpt><trkpt lat="42.3848569" lon="14.3157004"><ele>9.0</ele><time>2026-05-01T08:38:49.941Z</time></trkpt><trkpt lat="42.3849346" lon="14.3157632"><ele>9.0</ele><time>2026-05-01T08:39:12.938Z</time></trkpt><trkpt lat="42.3850301" lon="14.3158488"><ele>9.0</ele><time>2026-05-01T08:39:14.936Z</time></trkpt><trkpt lat="42.3851156" lon="14.3159046"><ele>9.0</ele><time>2026-05-01T08:39:16.933Z</time></trkpt><trkpt lat="42.3851831" lon="14.3159324"><ele>9.0</ele><time>2026-05-01T08:39:18.945Z</time></trkpt><trkpt lat="42.3852722" lon="14.3159766"><ele>9.0</ele><time>2026-05-01T08:39:20.937Z</time></trkpt><trkpt lat="42.3853479" lon="14.3160178"><ele>9.0</ele><time>2026-05-01T08:39:22.935Z</time></trkpt><trkpt lat="42.3854083" lon="14.3160446"><ele>9.0</ele><time>2026-05-01T08:39:24.932Z</time></trkpt><trkpt lat="42.3854814" lon="14.3160835"><ele>9.0</ele><time>2026-05-01T08:39:28.933Z</time></trkpt><trkpt lat="42.3855831" lon="14.3161321"><ele>9.0</ele><time>2026-05-01T08:39:30.932Z</time></trkpt><trkpt lat="42.385704" lon="14.3161946"><ele>8.8</ele><time>2026-05-01T08:39:32.937Z</time></trkpt><trkpt lat="42.3858112" lon="14.3162603"><ele>8.600000000000001</ele><time>2026-05-01T08:39:34.935Z</time></trkpt><trkpt lat="42.3859027" lon="14.3163231"><ele>8.4</ele><time>2026-05-01T08:39:36.936Z</time></trkpt><trkpt lat="42.3859466" lon="14.316386"><ele>8.200000000000001</ele><time>2026-05-01T08:39:38.937Z</time></trkpt><trkpt lat="42.3859136" lon="14.3165181"><ele>8.0</ele><time>2026-05-01T08:39:41.936Z</time></trkpt><trkpt lat="42.3858746" lon="14.3166572"><ele>7.75</ele><time>2026-05-01T08:39:43.936Z</time></trkpt><trkpt lat="42.3858297" lon="14.3168024"><ele>7.5</ele><time>2026-05-01T08:39:45.93Z</time></trkpt><trkpt lat="42.3857843" lon="14.3169454"><ele>7.25</ele><time>2026-05-01T08:39:47.928Z</time></trkpt><trkpt lat="42.3857374" lon="14.3170871"><ele>7.0</ele><time>2026-05-01T08:39:49.938Z</time></trkpt><trkpt lat="42.3857" lon="14.3172275"><ele>7.199999999999999</ele><time>2026-05-01T08:39:51.94Z</time></trkpt><trkpt lat="42.3856447" lon="14.3173648"><ele>7.3999999999999995</ele><time>2026-05-01T08:39:53.935Z</time></trkpt><trkpt lat="42.3855936" lon="14.3175115"><ele>7.6000000000000005</ele><time>2026-05-01T08:39:55.934Z</time></trkpt><trkpt lat="42.3855676" lon="14.3175926"><ele>7.800000000000001</ele><time>2026-05-01T08:39:56.94Z</time></trkpt><trkpt lat="42.3855253" lon="14.3177391"><ele>8.0</ele><time>2026-05-01T08:39:58.936Z</time></trkpt><trkpt lat="42.385468" lon="14.3178824"><ele>8.0</ele><time>2026-05-01T08:40:00.936Z</time></trkpt><trkpt lat="42.3854247" lon="14.3180126"><ele>8.0</ele><time>2026-05-01T08:40:02.937Z</time></trkpt><trkpt lat="42.3853957" lon="14.3181514"><ele>8.0</ele><time>2026-05-01T08:40:04.936Z</time></trkpt><trkpt lat="42.3853625" lon="14.3182938"><ele>8.0</ele><time>2026-05-01T08:40:06.935Z</time></trkpt><trkpt lat="42.3853774" lon="14.3183793"><ele>8.0</ele><time>2026-05-01T08:40:08.937Z</time></trkpt><trkpt lat="42.3854504" lon="14.3183913"><ele>8.600000000000001</ele><time>2026-05-01T08:40:11.936Z</time></trkpt><trkpt lat="42.3855325" lon="14.318383"><ele>9.200000000000001</ele><time>2026-05-01T08:40:13.939Z</time></trkpt><trkpt lat="42.3856359" lon="14.3183334"><ele>9.8</ele><time>2026-05-01T08:40:15.934Z</time></trkpt><trkpt lat="42.3856971" lon="14.3182967"><ele>10.4</ele><time>2026-05-01T08:40:16.933Z</time></trkpt><trkpt lat="42.3858114" lon="14.3182318"><ele>11.0</ele><time>2026-05-01T08:40:18.934Z</time></trkpt><trkpt lat="42.3858866" lon="14.3182053"><ele>11.0</ele><time>2026-05-01T08:40:19.941Z</time></trkpt><trkpt lat="42.3859804" lon="14.3181767"><ele>11.0</ele><time>2026-05-01T08:40:20.931Z</time></trkpt><trkpt lat="42.386079" lon="14.318146"><ele>11.0</ele><time>2026-05-01T08:40:21.935Z</time></trkpt><trkpt lat="42.3861667" lon="14.3181346"><ele>11.0</ele><time>2026-05-01T08:40:22.937Z</time></trkpt><trkpt lat="42.3862474" lon="14.3181309"><ele>11.0</ele><time>2026-05-01T08:40:23.932Z</time></trkpt><trkpt lat="42.3863371" lon="14.3181204"><ele>10.833333333333332</ele><time>2026-05-01T08:40:24.936Z</time></trkpt><trkpt lat="42.3864288" lon="14.3181041"><ele>10.666666666666666</ele><time>2026-05-01T08:40:25.935Z</time></trkpt><trkpt lat="42.3865126" lon="14.3180823"><ele>10.5</ele><time>2026-05-01T08:40:26.943Z</time></trkpt><trkpt lat="42.3865888" lon="14.3180476"><ele>10.333333333333334</ele><time>2026-05-01T08:40:27.93Z</time></trkpt><trkpt lat="42.3866629" lon="14.3180162"><ele>10.166666666666668</ele><time>2026-05-01T08:40:28.937Z</time></trkpt><trkpt lat="42.386741" lon="14.3179988"><ele>10.0</ele><time>2026-05-01T08:40:29.942Z</time></trkpt><trkpt lat="42.386818" lon="14.3180131"><ele>10.0</ele><time>2026-05-01T08:40:30.944Z</time></trkpt><trkpt lat="42.3868896" lon="14.3181019"><ele>10.0</ele><time>2026-05-01T08:40:32.929Z</time></trkpt><trkpt lat="42.386881" lon="14.318249"><ele>10.0</ele><time>2026-05-01T08:40:34.937Z</time></trkpt><trkpt lat="42.386858" lon="14.3183471"><ele>10.0</ele><time>2026-05-01T08:40:35.936Z</time></trkpt><trkpt lat="42.3868307" lon="14.3184568"><ele>10.0</ele><time>2026-05-01T08:40:36.935Z</time></trkpt><trkpt lat="42.3867995" lon="14.3185698"><ele>10.0</ele><time>2026-05-01T08:40:37.939Z</time></trkpt><trkpt lat="42.3867717" lon="14.3186784"><ele>10.0</ele><time>2026-05-01T08:40:38.936Z</time></trkpt><trkpt lat="42.3867495" lon="14.3187782"><ele>10.0</ele><time>2026-05-01T08:40:39.935Z</time></trkpt><trkpt lat="42.3867295" lon="14.3188617"><ele>10.0</ele><time>2026-05-01T08:40:40.937Z</time></trkpt><trkpt lat="42.3867128" lon="14.318971"><ele>10.0</ele><time>2026-05-01T08:40:42.935Z</time></trkpt><trkpt lat="42.3867057" lon="14.3190669"><ele>10.0</ele><time>2026-05-01T08:40:44.933Z</time></trkpt><trkpt lat="42.3866791" lon="14.319169"><ele>9.833333333333334</ele><time>2026-05-01T08:40:46.941Z</time></trkpt><trkpt lat="42.38662" lon="14.3192093"><ele>9.666666666666668</ele><time>2026-05-01T08:40:48.936Z</time></trkpt><trkpt lat="42.3865197" lon="14.3191528"><ele>9.5</ele><time>2026-05-01T08:40:50.93Z</time></trkpt><trkpt lat="42.386453" lon="14.3191263"><ele>9.333333333333334</ele><time>2026-05-01T08:40:51.939Z</time></trkpt><trkpt lat="42.3863798" lon="14.319102"><ele>9.166666666666666</ele><time>2026-05-01T08:40:52.943Z</time></trkpt><trkpt lat="42.3863065" lon="14.319081"><ele>9.0</ele><time>2026-05-01T08:40:53.933Z</time></trkpt><trkpt lat="42.386225" lon="14.3190677"><ele>9.0</ele><time>2026-05-01T08:40:54.937Z</time></trkpt><trkpt lat="42.386139" lon="14.319066"><ele>9.0</ele><time>2026-05-01T08:40:55.938Z</time></trkpt><trkpt lat="42.3860471" lon="14.3190759"><ele>9.0</ele><time>2026-05-01T08:40:56.935Z</time></trkpt><trkpt lat="42.3859553" lon="14.3190914"><ele>9.0</ele><time>2026-05-01T08:40:57.948Z</time></trkpt><trkpt lat="42.385858" lon="14.3191178"><ele>9.0</ele><time>2026-05-01T08:40:58.944Z</time></trkpt><trkpt lat="42.3857655" lon="14.3191511"><ele>9.0</ele><time>2026-05-01T08:40:59.94Z</time></trkpt><trkpt lat="42.3856723" lon="14.3191798"><ele>9.0</ele><time>2026-05-01T08:41:00.942Z</time></trkpt><trkpt lat="42.3855787" lon="14.3192018"><ele>9.0</ele><time>2026-05-01T08:41:01.938Z</time></trkpt><trkpt lat="42.3854842" lon="14.3192218"><ele>9.0</ele><time>2026-05-01T08:41:02.936Z</time></trkpt><trkpt lat="42.3853894" lon="14.3192349"><ele>9.0</ele><time>2026-05-01T08:41:03.933Z</time></trkpt><trkpt lat="42.3852942" lon="14.3192331"><ele>9.2</ele><time>2026-05-01T08:41:04.933Z</time></trkpt><trkpt lat="42.385197" lon="14.3192219"><ele>9.4</ele><time>2026-05-01T08:41:05.932Z</time></trkpt><trkpt lat="42.3851011" lon="14.3191999"><ele>9.6</ele><time>2026-05-01T08:41:06.934Z</time></trkpt><trkpt lat="42.3850104" lon="14.3191675"><ele>9.8</ele><time>2026-05-01T08:41:07.937Z</time></trkpt><trkpt lat="42.3849244" lon="14.3191407"><ele>10.0</ele><time>2026-05-01T08:41:08.935Z</time></trkpt><trkpt lat="42.3848358" lon="14.3191"><ele>10.0</ele><time>2026-05-01T08:41:09.947Z</time></trkpt><trkpt lat="42.3847469" lon="14.3190499"><ele>10.0</ele><time>2026-05-01T08:41:10.934Z</time></trkpt><trkpt lat="42.3846622" lon="14.3190038"><ele>10.0</ele><time>2026-05-01T08:41:11.948Z</time></trkpt><trkpt lat="42.3845767" lon="14.3189494"><ele>10.0</ele><time>2026-05-01T08:41:12.941Z</time></trkpt><trkpt lat="42.3844984" lon="14.3188917"><ele>10.0</ele><time>2026-05-01T08:41:13.937Z</time></trkpt><trkpt lat="42.384425" lon="14.3188232"><ele>10.0</ele><time>2026-05-01T08:41:14.939Z</time></trkpt><trkpt lat="42.3843598" lon="14.3187318"><ele>10.0</ele><time>2026-05-01T08:41:15.935Z</time></trkpt><trkpt lat="42.3843044" lon="14.3186327"><ele>10.0</ele><time>2026-05-01T08:41:16.941Z</time></trkpt><trkpt lat="42.3842496" lon="14.3185226"><ele>10.0</ele><time>2026-05-01T08:41:17.933Z</time></trkpt><trkpt lat="42.3842012" lon="14.3184104"><ele>10.0</ele><time>2026-05-01T08:41:18.933Z</time></trkpt><trkpt lat="42.3841631" lon="14.3182926"><ele>10.0</ele><time>2026-05-01T08:41:19.945Z</time></trkpt><trkpt lat="42.3841204" lon="14.3181736"><ele>10.0</ele><time>2026-05-01T08:41:20.932Z</time></trkpt><trkpt lat="42.3840759" lon="14.318052"><ele>10.0</ele><time>2026-05-01T08:41:21.93Z</time></trkpt><trkpt lat="42.3840329" lon="14.3179343"><ele>10.0</ele><time>2026-05-01T08:41:22.934Z</time></trkpt><trkpt lat="42.3840004" lon="14.3178144"><ele>10.0</ele><time>2026-05-01T08:41:23.936Z</time></trkpt><trkpt lat="42.3839757" lon="14.3176927"><ele>10.0</ele><time>2026-05-01T08:41:24.949Z</time></trkpt><trkpt lat="42.3839641" lon="14.3175726"><ele>10.0</ele><time>2026-05-01T08:41:25.943Z</time></trkpt><trkpt lat="42.3839572" lon="14.3174513"><ele>10.0</ele><time>2026-05-01T08:41:26.928Z</time></trkpt><trkpt lat="42.3839561" lon="14.3173295"><ele>10.0</ele><time>2026-05-01T08:41:27.934Z</time></trkpt><trkpt lat="42.3839546" lon="14.317198"><ele>10.0</ele><time>2026-05-01T08:41:28.934Z</time></trkpt><trkpt lat="42.3839528" lon="14.3170616"><ele>10.0</ele><time>2026-05-01T08:41:29.942Z</time></trkpt><trkpt lat="42.3839517" lon="14.3169256"><ele>10.0</ele><time>2026-05-01T08:41:30.937Z</time></trkpt><trkpt lat="42.3839491" lon="14.3167906"><ele>10.0</ele><time>2026-05-01T08:41:31.94Z</time></trkpt><trkpt lat="42.3839442" lon="14.3166766"><ele>10.0</ele><time>2026-05-01T08:41:32.941Z</time></trkpt><trkpt lat="42.3839395" lon="14.3165868"><ele>10.0</ele><time>2026-05-01T08:41:33.941Z</time></trkpt><trkpt lat="42.3839268" lon="14.3164422"><ele>10.0</ele><time>2026-05-01T08:41:35.936Z</time></trkpt><trkpt lat="42.3839077" lon="14.3163588"><ele>10.0</ele><time>2026-05-01T08:41:36.938Z</time></trkpt><trkpt lat="42.3838803" lon="14.3162645"><ele>10.0</ele><time>2026-05-01T08:41:37.936Z</time></trkpt><trkpt lat="42.3838543" lon="14.3161709"><ele>10.0</ele><time>2026-05-01T08:41:38.942Z</time></trkpt><trkpt lat="42.3838209" lon="14.316068"><ele>10.0</ele><time>2026-05-01T08:41:39.941Z</time></trkpt><trkpt lat="42.3837827" lon="14.3159724"><ele>10.0</ele><time>2026-05-01T08:41:40.937Z</time></trkpt><trkpt lat="42.3837371" lon="14.3158863"><ele>10.0</ele><time>2026-05-01T08:41:41.932Z</time></trkpt><trkpt lat="42.3836828" lon="14.3158014"><ele>10.0</ele><time>2026-05-01T08:41:42.942Z</time></trkpt><trkpt lat="42.3836269" lon="14.3157213"><ele>10.0</ele><time>2026-05-01T08:41:43.949Z</time></trkpt><trkpt lat="42.3835675" lon="14.3156407"><ele>10.0</ele><time>2026-05-01T08:41:44.942Z</time></trkpt><trkpt lat="42.3835054" lon="14.3155563"><ele>10.0</ele><time>2026-05-01T08:41:45.941Z</time></trkpt><trkpt lat="42.3834425" lon="14.3154707"><ele>10.0</ele><time>2026-05-01T08:41:46.93Z</time></trkpt><trkpt lat="42.3833816" lon="14.315388"><ele>10.0</ele><time>2026-05-01T08:41:47.931Z</time></trkpt><trkpt lat="42.3833175" lon="14.3153065"><ele>10.0</ele><time>2026-05-01T08:41:48.946Z</time></trkpt><trkpt lat="42.3832549" lon="14.3152232"><ele>10.0</ele><time>2026-05-01T08:41:49.946Z</time></trkpt><trkpt lat="42.383193" lon="14.3151422"><ele>10.0</ele><time>2026-05-01T08:41:50.944Z</time></trkpt><trkpt lat="42.38313" lon="14.3150604"><ele>10.0</ele><time>2026-05-01T08:41:51.938Z</time></trkpt><trkpt lat="42.3830701" lon="14.3149785"><ele>10.0</ele><time>2026-05-01T08:41:52.929Z</time></trkpt><trkpt lat="42.3830129" lon="14.3148904"><ele>10.0</ele><time>2026-05-01T08:41:53.949Z</time></trkpt><trkpt lat="42.38296" lon="14.3148061"><ele>10.0</ele><time>2026-05-01T08:41:54.931Z</time></trkpt><trkpt lat="42.38291" lon="14.3147115"><ele>10.0</ele><time>2026-05-01T08:41:55.942Z</time></trkpt><trkpt lat="42.3828662" lon="14.31461"><ele>10.0</ele><time>2026-05-01T08:41:56.941Z</time></trkpt><trkpt lat="42.3828257" lon="14.3145027"><ele>10.0</ele><time>2026-05-01T08:41:57.931Z</time></trkpt><trkpt lat="42.3827897" lon="14.3143947"><ele>10.0</ele><time>2026-05-01T08:41:58.942Z</time></trkpt><trkpt lat="42.382763" lon="14.3142752"><ele>10.0</ele><time>2026-05-01T08:41:59.934Z</time></trkpt><trkpt lat="42.382738" lon="14.3141536"><ele>10.0</ele><time>2026-05-01T08:42:00.946Z</time></trkpt><trkpt lat="42.3827231" lon="14.3140299"><ele>10.0</ele><time>2026-05-01T08:42:01.937Z</time></trkpt><trkpt lat="42.3827191" lon="14.313914"><ele>10.0</ele><time>2026-05-01T08:42:02.939Z</time></trkpt><trkpt lat="42.3827158" lon="14.3137872"><ele>10.0</ele><time>2026-05-01T08:42:03.939Z</time></trkpt><trkpt lat="42.3827146" lon="14.3136585"><ele>10.2</ele><time>2026-05-01T08:42:04.941Z</time></trkpt><trkpt lat="42.3827127" lon="14.31353"><ele>10.4</ele><time>2026-05-01T08:42:05.933Z</time></trkpt><trkpt lat="42.3827094" lon="14.3133864"><ele>10.600000000000001</ele><time>2026-05-01T08:42:06.948Z</time></trkpt><trkpt lat="42.3827059" lon="14.3132468"><ele>10.8</ele><time>2026-05-01T08:42:07.943Z</time></trkpt><trkpt lat="42.3827033" lon="14.313105"><ele>11.0</ele><time>2026-05-01T08:42:08.937Z</time></trkpt><trkpt lat="42.3827021" lon="14.3129684"><ele>11.0</ele><time>2026-05-01T08:42:09.939Z</time></trkpt><trkpt lat="42.3826987" lon="14.3128343"><ele>11.0</ele><time>2026-05-01T08:42:10.94Z</time></trkpt><trkpt lat="42.3826947" lon="14.3126961"><ele>11.0</ele><time>2026-05-01T08:42:11.932Z</time></trkpt><trkpt lat="42.3826952" lon="14.3125629"><ele>11.0</ele><time>2026-05-01T08:42:12.935Z</time></trkpt><trkpt lat="42.382693" lon="14.3124296"><ele>11.0</ele><time>2026-05-01T08:42:13.943Z</time></trkpt><trkpt lat="42.3826944" lon="14.3123047"><ele>11.166666666666666</ele><time>2026-05-01T08:42:14.939Z</time></trkpt><trkpt lat="42.3826966" lon="14.3121749"><ele>11.333333333333332</ele><time>2026-05-01T08:42:15.936Z</time></trkpt><trkpt lat="42.3826959" lon="14.3120513"><ele>11.5</ele><time>2026-05-01T08:42:16.948Z</time></trkpt><trkpt lat="42.3826832" lon="14.3119278"><ele>11.666666666666666</ele><time>2026-05-01T08:42:17.939Z</time></trkpt><trkpt lat="42.3826636" lon="14.3118155"><ele>11.833333333333334</ele><time>2026-05-01T08:42:18.939Z</time></trkpt><trkpt lat="42.3826349" lon="14.3117273"><ele>12.0</ele><time>2026-05-01T08:42:19.927Z</time></trkpt><trkpt lat="42.3825945" lon="14.3116503"><ele>12.0</ele><time>2026-05-01T08:42:20.946Z</time></trkpt><trkpt lat="42.3825432" lon="14.3115981"><ele>12.0</ele><time>2026-05-01T08:42:21.936Z</time></trkpt><trkpt lat="42.3824339" lon="14.3115511"><ele>12.0</ele><time>2026-05-01T08:42:23.949Z</time></trkpt><trkpt lat="42.3823652" lon="14.3115473"><ele>12.0</ele><time>2026-05-01T08:42:24.935Z</time></trkpt><trkpt lat="42.3822927" lon="14.3115556"><ele>12.0</ele><time>2026-05-01T08:42:25.949Z</time></trkpt><trkpt lat="42.382174" lon="14.3115968"><ele>12.0</ele><time>2026-05-01T08:42:27.941Z</time></trkpt><trkpt lat="42.3820835" lon="14.311733"><ele>12.2</ele><time>2026-05-01T08:42:29.943Z</time></trkpt><trkpt lat="42.3820438" lon="14.311823"><ele>12.399999999999999</ele><time>2026-05-01T08:42:30.937Z</time></trkpt><trkpt lat="42.3819868" lon="14.3119179"><ele>12.600000000000001</ele><time>2026-05-01T08:42:31.937Z</time></trkpt><trkpt lat="42.381923" lon="14.3120233"><ele>12.8</ele><time>2026-05-01T08:42:32.939Z</time></trkpt><trkpt lat="42.3818512" lon="14.312128"><ele>13.0</ele><time>2026-05-01T08:42:33.934Z</time></trkpt><trkpt lat="42.3817745" lon="14.3122224"><ele>12.833333333333332</ele><time>2026-05-01T08:42:34.944Z</time></trkpt><trkpt lat="42.3816997" lon="14.3123119"><ele>12.666666666666666</ele><time>2026-05-01T08:42:35.939Z</time></trkpt><trkpt lat="42.3816317" lon="14.3123918"><ele>12.5</ele><time>2026-05-01T08:42:36.93Z</time></trkpt><trkpt lat="42.3815754" lon="14.3124468"><ele>12.333333333333332</ele><time>2026-05-01T08:42:37.941Z</time></trkpt><trkpt lat="42.3815131" lon="14.3124848"><ele>12.166666666666666</ele><time>2026-05-01T08:42:38.936Z</time></trkpt><trkpt lat="42.3814453" lon="14.3124862"><ele>12.0</ele><time>2026-05-01T08:42:39.941Z</time></trkpt><trkpt lat="42.3813808" lon="14.3124496"><ele>12.333333333333334</ele><time>2026-05-01T08:42:40.936Z</time></trkpt><trkpt lat="42.381306" lon="14.3124075"><ele>12.666666666666668</ele><time>2026-05-01T08:42:41.942Z</time></trkpt><trkpt lat="42.3812298" lon="14.3123657"><ele>13.0</ele><time>2026-05-01T08:42:42.947Z</time></trkpt><trkpt lat="42.3811557" lon="14.3123291"><ele>13.333333333333334</ele><time>2026-05-01T08:42:43.936Z</time></trkpt><trkpt lat="42.3810711" lon="14.3122899"><ele>13.666666666666668</ele><time>2026-05-01T08:42:44.93Z</time></trkpt><trkpt lat="42.3809745" lon="14.3122511"><ele>14.0</ele><time>2026-05-01T08:42:45.94Z</time></trkpt><trkpt lat="42.3808793" lon="14.3122168"><ele>14.0</ele><time>2026-05-01T08:42:46.93Z</time></trkpt><trkpt lat="42.3807932" lon="14.3122001"><ele>13.999999999999998</ele><time>2026-05-01T08:42:47.944Z</time></trkpt><trkpt lat="42.3807154" lon="14.3122026"><ele>13.999999999999998</ele><time>2026-05-01T08:42:48.94Z</time></trkpt><trkpt lat="42.3806435" lon="14.3121971"><ele>14.0</ele><time>2026-05-01T08:42:49.936Z</time></trkpt><trkpt lat="42.3805297" lon="14.3121604"><ele>14.0</ele><time>2026-05-01T08:42:51.94Z</time></trkpt><trkpt lat="42.3804176" lon="14.3120935"><ele>14.000000000000002</ele><time>2026-05-01T08:42:53.943Z</time></trkpt><trkpt lat="42.3803143" lon="14.31201"><ele>14.0</ele><time>2026-05-01T08:42:55.951Z</time></trkpt><trkpt lat="42.3802574" lon="14.3119708"><ele>14.0</ele><time>2026-05-01T08:42:56.935Z</time></trkpt><trkpt lat="42.3801951" lon="14.3119244"><ele>14.0</ele><time>2026-05-01T08:42:57.94Z</time></trkpt><trkpt lat="42.3801322" lon="14.3118735"><ele>14.000000000000002</ele><time>2026-05-01T08:42:58.932Z</time></trkpt><trkpt lat="42.3800789" lon="14.311816"><ele>14.0</ele><time>2026-05-01T08:42:59.94Z</time></trkpt><trkpt lat="42.3799825" lon="14.311712"><ele>14.0</ele><time>2026-05-01T08:43:01.938Z</time></trkpt><trkpt lat="42.3798671" lon="14.3116312"><ele>13.999999999999998</ele><time>2026-05-01T08:43:03.952Z</time></trkpt><trkpt lat="42.3797972" lon="14.3115951"><ele>13.999999999999998</ele><time>2026-05-01T08:43:04.937Z</time></trkpt><trkpt lat="42.3797264" lon="14.3115614"><ele>14.0</ele><time>2026-05-01T08:43:05.931Z</time></trkpt><trkpt lat="42.3796604" lon="14.3115393"><ele>14.0</ele><time>2026-05-01T08:43:06.94Z</time></trkpt><trkpt lat="42.3795451" lon="14.3115101"><ele>14.000000000000002</ele><time>2026-05-01T08:43:08.945Z</time></trkpt><trkpt lat="42.3794248" lon="14.31154"><ele>14.0</ele><time>2026-05-01T08:43:10.932Z</time></trkpt><trkpt lat="42.3793589" lon="14.3115476"><ele>14.0</ele><time>2026-05-01T08:43:11.943Z</time></trkpt><trkpt lat="42.3792929" lon="14.3115324"><ele>14.0</ele><time>2026-05-01T08:43:12.939Z</time></trkpt><trkpt lat="42.3792101" lon="14.3115087"><ele>14.000000000000002</ele><time>2026-05-01T08:43:13.944Z</time></trkpt><trkpt lat="42.3791228" lon="14.3114942"><ele>14.0</ele><time>2026-05-01T08:43:14.939Z</time></trkpt><trkpt lat="42.3790316" lon="14.3114969"><ele>14.000000000000002</ele><time>2026-05-01T08:43:15.939Z</time></trkpt><trkpt lat="42.3789529" lon="14.3115137"><ele>14.0</ele><time>2026-05-01T08:43:16.94Z</time></trkpt><trkpt lat="42.3788857" lon="14.3115325"><ele>14.0</ele><time>2026-05-01T08:43:17.939Z</time></trkpt><trkpt lat="42.3788122" lon="14.3115404"><ele>14.0</ele><time>2026-05-01T08:43:18.939Z</time></trkpt><trkpt lat="42.3787321" lon="14.3115389"><ele>14.000000000000002</ele><time>2026-05-01T08:43:19.938Z</time></trkpt><trkpt lat="42.3786535" lon="14.3115297"><ele>14.0</ele><time>2026-05-01T08:43:20.943Z</time></trkpt><trkpt lat="42.378576" lon="14.3114981"><ele>14.2</ele><time>2026-05-01T08:43:21.944Z</time></trkpt><trkpt lat="42.3785016" lon="14.3114529"><ele>14.399999999999999</ele><time>2026-05-01T08:43:22.938Z</time></trkpt><trkpt lat="42.3784136" lon="14.3114049"><ele>14.6</ele><time>2026-05-01T08:43:23.934Z</time></trkpt><trkpt lat="42.3783258" lon="14.3113512"><ele>14.8</ele><time>2026-05-01T08:43:24.942Z</time></trkpt><trkpt lat="42.3782383" lon="14.3113058"><ele>15.0</ele><time>2026-05-01T08:43:25.944Z</time></trkpt><trkpt lat="42.3781553" lon="14.3112685"><ele>15.0</ele><time>2026-05-01T08:43:26.942Z</time></trkpt><trkpt lat="42.3780743" lon="14.3112369"><ele>15.0</ele><time>2026-05-01T08:43:27.951Z</time></trkpt><trkpt lat="42.3779999" lon="14.3112067"><ele>15.0</ele><time>2026-05-01T08:43:28.936Z</time></trkpt><trkpt lat="42.3779219" lon="14.3111658"><ele>15.0</ele><time>2026-05-01T08:43:29.943Z</time></trkpt><trkpt lat="42.3778405" lon="14.3110997"><ele>15.0</ele><time>2026-05-01T08:43:30.935Z</time></trkpt><trkpt lat="42.3777618" lon="14.3110394"><ele>15.0</ele><time>2026-05-01T08:43:31.931Z</time></trkpt><trkpt lat="42.3776816" lon="14.3109832"><ele>15.2</ele><time>2026-05-01T08:43:32.938Z</time></trkpt><trkpt lat="42.3775978" lon="14.3109208"><ele>15.4</ele><time>2026-05-01T08:43:33.936Z</time></trkpt><trkpt lat="42.3775185" lon="14.3108788"><ele>15.600000000000001</ele><time>2026-05-01T08:43:34.949Z</time></trkpt><trkpt lat="42.3774533" lon="14.3108534"><ele>15.8</ele><time>2026-05-01T08:43:35.933Z</time></trkpt><trkpt lat="42.3773439" lon="14.3108244"><ele>16.0</ele><time>2026-05-01T08:43:37.933Z</time></trkpt><trkpt lat="42.377223" lon="14.3107877"><ele>16.285714285714285</ele><time>2026-05-01T08:43:39.938Z</time></trkpt><trkpt lat="42.3771554" lon="14.3107672"><ele>16.57142857142857</ele><time>2026-05-01T08:43:40.936Z</time></trkpt><trkpt lat="42.3770876" lon="14.3107498"><ele>16.857142857142858</ele><time>2026-05-01T08:43:41.948Z</time></trkpt><trkpt lat="42.3770088" lon="14.3107321"><ele>17.142857142857142</ele><time>2026-05-01T08:43:42.94Z</time></trkpt><trkpt lat="42.3769325" lon="14.3107175"><ele>17.42857142857143</ele><time>2026-05-01T08:43:43.934Z</time></trkpt><trkpt lat="42.3768567" lon="14.3107114"><ele>17.714285714285715</ele><time>2026-05-01T08:43:44.95Z</time></trkpt><trkpt lat="42.3767851" lon="14.3107146"><ele>18.0</ele><time>2026-05-01T08:43:45.937Z</time></trkpt><trkpt lat="42.376713" lon="14.3107266"><ele>18.0</ele><time>2026-05-01T08:43:46.94Z</time></trkpt><trkpt lat="42.3765986" lon="14.3107109"><ele>18.0</ele><time>2026-05-01T08:43:48.942Z</time></trkpt><trkpt lat="42.3764827" lon="14.3107068"><ele>18.0</ele><time>2026-05-01T08:43:50.93Z</time></trkpt><trkpt lat="42.3764196" lon="14.3107007"><ele>18.0</ele><time>2026-05-01T08:43:51.933Z</time></trkpt><trkpt lat="42.376346" lon="14.3106971"><ele>18.0</ele><time>2026-05-01T08:43:52.936Z</time></trkpt><trkpt lat="42.3762669" lon="14.3106823"><ele>18.0</ele><time>2026-05-01T08:43:53.94Z</time></trkpt><trkpt lat="42.3761872" lon="14.3106586"><ele>17.666666666666668</ele><time>2026-05-01T08:43:54.945Z</time></trkpt><trkpt lat="42.3761212" lon="14.3106403"><ele>17.333333333333332</ele><time>2026-05-01T08:43:55.946Z</time></trkpt><trkpt lat="42.376057" lon="14.3106267"><ele>17.0</ele><time>2026-05-01T08:43:56.949Z</time></trkpt><trkpt lat="42.3759412" lon="14.3106131"><ele>16.666666666666664</ele><time>2026-05-01T08:43:58.942Z</time></trkpt><trkpt lat="42.3758709" lon="14.3105934"><ele>16.333333333333332</ele><time>2026-05-01T08:43:59.932Z</time></trkpt><trkpt lat="42.3757946" lon="14.3105619"><ele>16.0</ele><time>2026-05-01T08:44:00.94Z</time></trkpt><trkpt lat="42.3757208" lon="14.3105339"><ele>16.0</ele><time>2026-05-01T08:44:01.938Z</time></trkpt><trkpt lat="42.3756469" lon="14.3105146"><ele>16.0</ele><time>2026-05-01T08:44:02.937Z</time></trkpt><trkpt lat="42.3755767" lon="14.3104837"><ele>16.0</ele><time>2026-05-01T08:44:03.931Z</time></trkpt><trkpt lat="42.3755132" lon="14.3104563"><ele>16.0</ele><time>2026-05-01T08:44:04.93Z</time></trkpt><trkpt lat="42.3754062" lon="14.3104031"><ele>16.0</ele><time>2026-05-01T08:44:06.951Z</time></trkpt><trkpt lat="42.3752895" lon="14.3103281"><ele>16.833333333333332</ele><time>2026-05-01T08:44:08.936Z</time></trkpt><trkpt lat="42.3752309" lon="14.3102854"><ele>17.666666666666664</ele><time>2026-05-01T08:44:09.949Z</time></trkpt><trkpt lat="42.3751315" lon="14.3102139"><ele>18.5</ele><time>2026-05-01T08:44:11.943Z</time></trkpt><trkpt lat="42.3750782" lon="14.310162"><ele>19.333333333333332</ele><time>2026-05-01T08:44:12.938Z</time></trkpt><trkpt lat="42.3750187" lon="14.3101076"><ele>20.166666666666668</ele><time>2026-05-01T08:44:13.941Z</time></trkpt><trkpt lat="42.3749636" lon="14.310062"><ele>21.0</ele><time>2026-05-01T08:44:14.941Z</time></trkpt><trkpt lat="42.3748717" lon="14.3099906"><ele>21.0</ele><time>2026-05-01T08:44:16.942Z</time></trkpt><trkpt lat="42.374789" lon="14.3099647"><ele>21.0</ele><time>2026-05-01T08:44:20.946Z</time></trkpt><trkpt lat="42.3747023" lon="14.3100205"><ele>21.0</ele><time>2026-05-01T08:44:28.938Z</time></trkpt><trkpt lat="42.3745912" lon="14.3100904"><ele>21.0</ele><time>2026-05-01T08:44:30.949Z</time></trkpt><trkpt lat="42.3744907" lon="14.3101537"><ele>21.0</ele><time>2026-05-01T08:44:32.948Z</time></trkpt><trkpt lat="42.3743998" lon="14.3101655"><ele>21.200000000000003</ele><time>2026-05-01T08:44:34.94Z</time></trkpt><trkpt lat="42.3742955" lon="14.3101244"><ele>21.400000000000002</ele><time>2026-05-01T08:44:36.951Z</time></trkpt><trkpt lat="42.3741763" lon="14.3100415"><ele>21.6</ele><time>2026-05-01T08:44:38.951Z</time></trkpt><trkpt lat="42.3741104" lon="14.3099856"><ele>21.8</ele><time>2026-05-01T08:44:39.936Z</time></trkpt><trkpt lat="42.3740424" lon="14.3099317"><ele>22.0</ele><time>2026-05-01T08:44:40.944Z</time></trkpt><trkpt lat="42.3739767" lon="14.30987"><ele>22.0</ele><time>2026-05-01T08:44:41.931Z</time></trkpt><trkpt lat="42.3739205" lon="14.3098031"><ele>22.0</ele><time>2026-05-01T08:44:42.938Z</time></trkpt><trkpt lat="42.3738602" lon="14.309736"><ele>22.0</ele><time>2026-05-01T08:44:43.94Z</time></trkpt><trkpt lat="42.3738003" lon="14.3096679"><ele>22.0</ele><time>2026-05-01T08:44:44.94Z</time></trkpt><trkpt lat="42.3737298" lon="14.3096129"><ele>22.0</ele><time>2026-05-01T08:44:45.942Z</time></trkpt><trkpt lat="42.3736498" lon="14.3095597"><ele>22.0</ele><time>2026-05-01T08:44:46.939Z</time></trkpt><trkpt lat="42.373563" lon="14.3094975"><ele>23.8</ele><time>2026-05-01T08:44:47.939Z</time></trkpt><trkpt lat="42.3734752" lon="14.3094392"><ele>25.6</ele><time>2026-05-01T08:44:48.935Z</time></trkpt><trkpt lat="42.3733796" lon="14.3093796"><ele>27.400000000000002</ele><time>2026-05-01T08:44:49.936Z</time></trkpt><trkpt lat="42.3732958" lon="14.3093149"><ele>29.200000000000003</ele><time>2026-05-01T08:44:50.931Z</time></trkpt><trkpt lat="42.3732102" lon="14.3092541"><ele>31.0</ele><time>2026-05-01T08:44:51.938Z</time></trkpt><trkpt lat="42.3731229" lon="14.3091984"><ele>31.000000000000004</ele><time>2026-05-01T08:44:52.948Z</time></trkpt><trkpt lat="42.3730348" lon="14.3091626"><ele>31.0</ele><time>2026-05-01T08:44:53.935Z</time></trkpt><trkpt lat="42.3729577" lon="14.3091249"><ele>31.0</ele><time>2026-05-01T08:44:54.945Z</time></trkpt><trkpt lat="42.3728792" lon="14.3090989"><ele>31.0</ele><time>2026-05-01T08:44:55.946Z</time></trkpt><trkpt lat="42.3728103" lon="14.3090914"><ele>31.000000000000004</ele><time>2026-05-01T08:44:56.94Z</time></trkpt><trkpt lat="42.372731" lon="14.3090772"><ele>31.0</ele><time>2026-05-01T08:44:57.931Z</time></trkpt><trkpt lat="42.3726486" lon="14.3090378"><ele>31.75</ele><time>2026-05-01T08:44:58.941Z</time></trkpt><trkpt lat="42.3725607" lon="14.3089925"><ele>32.5</ele><time>2026-05-01T08:44:59.944Z</time></trkpt><trkpt lat="42.372451" lon="14.3089233"><ele>33.25</ele><time>2026-05-01T08:45:00.936Z</time></trkpt><trkpt lat="42.3723425" lon="14.3088379"><ele>34.0</ele><time>2026-05-01T08:45:01.941Z</time></trkpt><trkpt lat="42.3722277" lon="14.3087544"><ele>33.5</ele><time>2026-05-01T08:45:02.934Z</time></trkpt><trkpt lat="42.3721128" lon="14.308664"><ele>33.0</ele><time>2026-05-01T08:45:03.942Z</time></trkpt><trkpt lat="42.3720015" lon="14.308576"><ele>32.5</ele><time>2026-05-01T08:45:04.932Z</time></trkpt><trkpt lat="42.3718938" lon="14.3084996"><ele>32.0</ele><time>2026-05-01T08:45:05.93Z</time></trkpt><trkpt lat="42.3717882" lon="14.3084209"><ele>32.0</ele><time>2026-05-01T08:45:06.929Z</time></trkpt><trkpt lat="42.3716777" lon="14.3083351"><ele>32.0</ele><time>2026-05-01T08:45:07.941Z</time></trkpt><trkpt lat="42.3715709" lon="14.3082463"><ele>32.0</ele><time>2026-05-01T08:45:08.933Z</time></trkpt><trkpt lat="42.3714605" lon="14.3081589"><ele>32.0</ele><time>2026-05-01T08:45:09.936Z</time></trkpt><trkpt lat="42.3713529" lon="14.3080729"><ele>31.6</ele><time>2026-05-01T08:45:10.933Z</time></trkpt><trkpt lat="42.3712506" lon="14.3079894"><ele>31.200000000000003</ele><time>2026-05-01T08:45:11.93Z</time></trkpt><trkpt lat="42.3711508" lon="14.3079092"><ele>30.8</ele><time>2026-05-01T08:45:12.939Z</time></trkpt><trkpt lat="42.3710585" lon="14.3078311"><ele>30.4</ele><time>2026-05-01T08:45:13.938Z</time></trkpt><trkpt lat="42.3709711" lon="14.3077629"><ele>30.0</ele><time>2026-05-01T08:45:14.935Z</time></trkpt><trkpt lat="42.3708842" lon="14.3076962"><ele>30.0</ele><time>2026-05-01T08:45:15.941Z</time></trkpt><trkpt lat="42.3707995" lon="14.3076393"><ele>30.0</ele><time>2026-05-01T08:45:16.933Z</time></trkpt><trkpt lat="42.3707171" lon="14.3075757"><ele>30.0</ele><time>2026-05-01T08:45:17.932Z</time></trkpt><trkpt lat="42.370636" lon="14.3075196"><ele>30.0</ele><time>2026-05-01T08:45:18.927Z</time></trkpt><trkpt lat="42.3705514" lon="14.3074636"><ele>30.0</ele><time>2026-05-01T08:45:19.943Z</time></trkpt><trkpt lat="42.3704655" lon="14.3074041"><ele>29.6</ele><time>2026-05-01T08:45:20.943Z</time></trkpt><trkpt lat="42.3703796" lon="14.3073482"><ele>29.2</ele><time>2026-05-01T08:45:21.947Z</time></trkpt><trkpt lat="42.3702982" lon="14.3072952"><ele>28.799999999999997</ele><time>2026-05-01T08:45:22.933Z</time></trkpt><trkpt lat="42.3702164" lon="14.3072432"><ele>28.4</ele><time>2026-05-01T08:45:23.942Z</time></trkpt><trkpt lat="42.3701359" lon="14.3071916"><ele>28.0</ele><time>2026-05-01T08:45:24.936Z</time></trkpt><trkpt lat="42.3700529" lon="14.3071477"><ele>28.000000000000004</ele><time>2026-05-01T08:45:25.939Z</time></trkpt><trkpt lat="42.3699681" lon="14.3071009"><ele>28.0</ele><time>2026-05-01T08:45:26.937Z</time></trkpt><trkpt lat="42.3698859" lon="14.3070454"><ele>28.0</ele><time>2026-05-01T08:45:27.944Z</time></trkpt><trkpt lat="42.3698053" lon="14.3069908"><ele>28.0</ele><time>2026-05-01T08:45:28.94Z</time></trkpt><trkpt lat="42.3697234" lon="14.3069391"><ele>28.000000000000004</ele><time>2026-05-01T08:45:29.936Z</time></trkpt><trkpt lat="42.3696482" lon="14.3068967"><ele>28.0</ele><time>2026-05-01T08:45:30.938Z</time></trkpt><trkpt lat="42.3695725" lon="14.3068555"><ele>27.833333333333336</ele><time>2026-05-01T08:45:31.935Z</time></trkpt><trkpt lat="42.3695136" lon="14.3067947"><ele>27.666666666666668</ele><time>2026-05-01T08:45:32.943Z</time></trkpt><trkpt lat="42.3694637" lon="14.3067218"><ele>27.5</ele><time>2026-05-01T08:45:33.939Z</time></trkpt><trkpt lat="42.3694293" lon="14.3066389"><ele>27.333333333333336</ele><time>2026-05-01T08:45:34.937Z</time></trkpt><trkpt lat="42.3694073" lon="14.3064887"><ele>27.166666666666668</ele><time>2026-05-01T08:45:36.941Z</time></trkpt><trkpt lat="42.3694173" lon="14.3063391"><ele>27.0</ele><time>2026-05-01T08:45:38.939Z</time></trkpt><trkpt lat="42.3694419" lon="14.3062515"><ele>27.0</ele><time>2026-05-01T08:45:39.935Z</time></trkpt><trkpt lat="42.3694785" lon="14.3061417"><ele>27.000000000000004</ele><time>2026-05-01T08:45:40.936Z</time></trkpt><trkpt lat="42.3695282" lon="14.3060199"><ele>27.000000000000004</ele><time>2026-05-01T08:45:41.933Z</time></trkpt><trkpt lat="42.3695863" lon="14.305885"><ele>27.0</ele><time>2026-05-01T08:45:42.942Z</time></trkpt><trkpt lat="42.369643" lon="14.3057595"><ele>27.0</ele><time>2026-05-01T08:45:43.931Z</time></trkpt><trkpt lat="42.3696832" lon="14.3056609"><ele>27.0</ele><time>2026-05-01T08:45:44.929Z</time></trkpt><trkpt lat="42.3697137" lon="14.305582"><ele>27.0</ele><time>2026-05-01T08:45:45.943Z</time></trkpt><trkpt lat="42.3697471" lon="14.3054894"><ele>27.0</ele><time>2026-05-01T08:45:47.934Z</time></trkpt><trkpt lat="42.3696973" lon="14.3055952"><ele>27.0</ele><time>2026-05-01T08:45:57.933Z</time></trkpt><trkpt lat="42.3696602" lon="14.3056833"><ele>27.0</ele><time>2026-05-01T08:45:58.935Z</time></trkpt><trkpt lat="42.3696146" lon="14.3057875"><ele>27.0</ele><time>2026-05-01T08:45:59.929Z</time></trkpt><trkpt lat="42.3695698" lon="14.305899"><ele>27.0</ele><time>2026-05-01T08:46:00.936Z</time></trkpt><trkpt lat="42.3695206" lon="14.3060121"><ele>27.0</ele><time>2026-05-01T08:46:01.933Z</time></trkpt><trkpt lat="42.3694824" lon="14.3061152"><ele>27.0</ele><time>2026-05-01T08:46:02.934Z</time></trkpt><trkpt lat="42.3694515" lon="14.3062029"><ele>27.0</ele><time>2026-05-01T08:46:03.94Z</time></trkpt><trkpt lat="42.3694286" lon="14.3062864"><ele>27.0</ele><time>2026-05-01T08:46:04.932Z</time></trkpt><trkpt lat="42.3693789" lon="14.3063921"><ele>27.0</ele><time>2026-05-01T08:46:06.932Z</time></trkpt><trkpt lat="42.3693046" lon="14.306379"><ele>27.0</ele><time>2026-05-01T08:46:08.944Z</time></trkpt><trkpt lat="42.3692057" lon="14.3062909"><ele>27.0</ele><time>2026-05-01T08:46:10.937Z</time></trkpt><trkpt lat="42.3691494" lon="14.306229"><ele>27.0</ele><time>2026-05-01T08:46:11.94Z</time></trkpt><trkpt lat="42.3690836" lon="14.306174"><ele>27.0</ele><time>2026-05-01T08:46:12.935Z</time></trkpt><trkpt lat="42.3690186" lon="14.3061188"><ele>27.0</ele><time>2026-05-01T08:46:13.93Z</time></trkpt><trkpt lat="42.3689599" lon="14.3060643"><ele>27.0</ele><time>2026-05-01T08:46:14.939Z</time></trkpt><trkpt lat="42.368898" lon="14.3060021"><ele>27.333333333333332</ele><time>2026-05-01T08:46:15.936Z</time></trkpt><trkpt lat="42.3688331" lon="14.3059345"><ele>27.666666666666664</ele><time>2026-05-01T08:46:16.942Z</time></trkpt><trkpt lat="42.3687662" lon="14.3058762"><ele>28.0</ele><time>2026-05-01T08:46:17.937Z</time></trkpt><trkpt lat="42.3687038" lon="14.3058176"><ele>28.333333333333332</ele><time>2026-05-01T08:46:18.939Z</time></trkpt><trkpt lat="42.3686414" lon="14.3057605"><ele>28.666666666666664</ele><time>2026-05-01T08:46:19.933Z</time></trkpt><trkpt lat="42.3685792" lon="14.3057025"><ele>29.0</ele><time>2026-05-01T08:46:20.936Z</time></trkpt><trkpt lat="42.3685184" lon="14.3056398"><ele>28.999999999999996</ele><time>2026-05-01T08:46:21.939Z</time></trkpt><trkpt lat="42.368463" lon="14.3055744"><ele>29.0</ele><time>2026-05-01T08:46:22.943Z</time></trkpt><trkpt lat="42.3683773" lon="14.3055028"><ele>29.0</ele><time>2026-05-01T08:46:24.942Z</time></trkpt><trkpt lat="42.3682918" lon="14.3055491"><ele>29.0</ele><time>2026-05-01T08:46:27.938Z</time></trkpt><trkpt lat="42.3682345" lon="14.3056291"><ele>28.999999999999996</ele><time>2026-05-01T08:46:29.947Z</time></trkpt><trkpt lat="42.3681899" lon="14.305698"><ele>29.0</ele><time>2026-05-01T08:46:30.932Z</time></trkpt><trkpt lat="42.3681414" lon="14.3057771"><ele>28.999999999999996</ele><time>2026-05-01T08:46:31.939Z</time></trkpt><trkpt lat="42.3680861" lon="14.3058665"><ele>29.0</ele><time>2026-05-01T08:46:32.942Z</time></trkpt><trkpt lat="42.3680286" lon="14.3059491"><ele>29.0</ele><time>2026-05-01T08:46:33.939Z</time></trkpt><trkpt lat="42.3679644" lon="14.3060246"><ele>29.0</ele><time>2026-05-01T08:46:34.938Z</time></trkpt><trkpt lat="42.3679087" lon="14.3060744"><ele>28.999999999999996</ele><time>2026-05-01T08:46:35.929Z</time></trkpt><trkpt lat="42.3678437" lon="14.3061139"><ele>29.0</ele><time>2026-05-01T08:46:36.939Z</time></trkpt><trkpt lat="42.3677611" lon="14.3061304"><ele>28.999999999999996</ele><time>2026-05-01T08:46:37.933Z</time></trkpt><trkpt lat="42.3676736" lon="14.3061521"><ele>29.0</ele><time>2026-05-01T08:46:38.935Z</time></trkpt><trkpt lat="42.3675867" lon="14.3061621"><ele>29.0</ele><time>2026-05-01T08:46:39.942Z</time></trkpt><trkpt lat="42.3675004" lon="14.3061744"><ele>29.0</ele><time>2026-05-01T08:46:40.937Z</time></trkpt><trkpt lat="42.367415" lon="14.3061734"><ele>28.999999999999996</ele><time>2026-05-01T08:46:41.937Z</time></trkpt><trkpt lat="42.3673245" lon="14.3061658"><ele>29.0</ele><time>2026-05-01T08:46:42.936Z</time></trkpt><trkpt lat="42.3672388" lon="14.3061524"><ele>30.333333333333332</ele><time>2026-05-01T08:46:43.928Z</time></trkpt><trkpt lat="42.3671539" lon="14.3061166"><ele>31.666666666666664</ele><time>2026-05-01T08:46:44.946Z</time></trkpt><trkpt lat="42.3670792" lon="14.306066"><ele>33.0</ele><time>2026-05-01T08:46:45.931Z</time></trkpt><trkpt lat="42.3670052" lon="14.3060199"><ele>34.333333333333336</ele><time>2026-05-01T08:46:46.932Z</time></trkpt><trkpt lat="42.3669274" lon="14.305984"><ele>35.66666666666667</ele><time>2026-05-01T08:46:47.94Z</time></trkpt><trkpt lat="42.3668453" lon="14.3059768"><ele>37.0</ele><time>2026-05-01T08:46:48.933Z</time></trkpt><trkpt lat="42.366764" lon="14.3059912"><ele>37.0</ele><time>2026-05-01T08:46:49.935Z</time></trkpt><trkpt lat="42.3666799" lon="14.3060073"><ele>37.0</ele><time>2026-05-01T08:46:50.929Z</time></trkpt><trkpt lat="42.3665977" lon="14.3060269"><ele>37.0</ele><time>2026-05-01T08:46:51.946Z</time></trkpt><trkpt lat="42.36652" lon="14.3060473"><ele>37.0</ele><time>2026-05-01T08:46:52.929Z</time></trkpt><trkpt lat="42.3664425" lon="14.3060568"><ele>37.0</ele><time>2026-05-01T08:46:53.934Z</time></trkpt><trkpt lat="42.3663743" lon="14.3060654"><ele>37.0</ele><time>2026-05-01T08:46:54.943Z</time></trkpt><trkpt lat="42.3663028" lon="14.3060878"><ele>37.0</ele><time>2026-05-01T08:46:55.936Z</time></trkpt><trkpt lat="42.3662393" lon="14.3061203"><ele>37.0</ele><time>2026-05-01T08:46:56.939Z</time></trkpt><trkpt lat="42.3661435" lon="14.306194"><ele>37.0</ele><time>2026-05-01T08:46:58.934Z</time></trkpt><trkpt lat="42.3660808" lon="14.3062344"><ele>37.0</ele><time>2026-05-01T08:46:59.941Z</time></trkpt><trkpt lat="42.3660085" lon="14.3062617"><ele>37.0</ele><time>2026-05-01T08:47:00.935Z</time></trkpt><trkpt lat="42.3659343" lon="14.3062789"><ele>37.0</ele><time>2026-05-01T08:47:01.941Z</time></trkpt><trkpt lat="42.3658463" lon="14.3062711"><ele>37.0</ele><time>2026-05-01T08:47:02.946Z</time></trkpt><trkpt lat="42.3657571" lon="14.3062703"><ele>37.0</ele><time>2026-05-01T08:47:03.936Z</time></trkpt><trkpt lat="42.365682" lon="14.3062749"><ele>37.0</ele><time>2026-05-01T08:47:04.943Z</time></trkpt><trkpt lat="42.3656142" lon="14.3062766"><ele>37.0</ele><time>2026-05-01T08:47:05.934Z</time></trkpt><trkpt lat="42.3654861" lon="14.3062634"><ele>37.0</ele><time>2026-05-01T08:47:07.944Z</time></trkpt><trkpt lat="42.3653728" lon="14.3062625"><ele>37.5</ele><time>2026-05-01T08:47:09.949Z</time></trkpt><trkpt lat="42.3652517" lon="14.3062166"><ele>38.0</ele><time>2026-05-01T08:47:11.936Z</time></trkpt><trkpt lat="42.3651526" lon="14.3061979"><ele>38.5</ele><time>2026-05-01T08:47:13.937Z</time></trkpt><trkpt lat="42.3650437" lon="14.3061893"><ele>39.0</ele><time>2026-05-01T08:47:15.933Z</time></trkpt><trkpt lat="42.3649235" lon="14.3062141"><ele>39.0</ele><time>2026-05-01T08:47:17.937Z</time></trkpt><trkpt lat="42.3648555" lon="14.3062288"><ele>39.0</ele><time>2026-05-01T08:47:18.938Z</time></trkpt><trkpt lat="42.3647833" lon="14.3062618"><ele>39.0</ele><time>2026-05-01T08:47:19.939Z</time></trkpt><trkpt lat="42.364714" lon="14.306299"><ele>39.0</ele><time>2026-05-01T08:47:20.935Z</time></trkpt><trkpt lat="42.3646512" lon="14.3063289"><ele>39.0</ele><time>2026-05-01T08:47:21.932Z</time></trkpt><trkpt lat="42.3645842" lon="14.3063695"><ele>39.0</ele><time>2026-05-01T08:47:22.942Z</time></trkpt><trkpt lat="42.3645167" lon="14.3064063"><ele>39.0</ele><time>2026-05-01T08:47:23.938Z</time></trkpt><trkpt lat="42.3644538" lon="14.3064561"><ele>39.57142857142858</ele><time>2026-05-01T08:47:24.938Z</time></trkpt><trkpt lat="42.3643949" lon="14.3065091"><ele>40.14285714285714</ele><time>2026-05-01T08:47:25.931Z</time></trkpt><trkpt lat="42.3643341" lon="14.3065761"><ele>40.714285714285715</ele><time>2026-05-01T08:47:26.941Z</time></trkpt><trkpt lat="42.3642652" lon="14.3066425"><ele>41.28571428571429</ele><time>2026-05-01T08:47:27.935Z</time></trkpt><trkpt lat="42.3642088" lon="14.3066968"><ele>41.85714285714286</ele><time>2026-05-01T08:47:28.932Z</time></trkpt><trkpt lat="42.3641502" lon="14.3067521"><ele>42.42857142857143</ele><time>2026-05-01T08:47:29.933Z</time></trkpt><trkpt lat="42.3640952" lon="14.3068081"><ele>43.0</ele><time>2026-05-01T08:47:30.938Z</time></trkpt><trkpt lat="42.3640425" lon="14.3068568"><ele>43.0</ele><time>2026-05-01T08:47:31.942Z</time></trkpt><trkpt lat="42.3639337" lon="14.3069193"><ele>43.0</ele><time>2026-05-01T08:47:33.938Z</time></trkpt><trkpt lat="42.3638066" lon="14.3069649"><ele>43.0</ele><time>2026-05-01T08:47:35.941Z</time></trkpt><trkpt lat="42.3637372" lon="14.3069768"><ele>43.0</ele><time>2026-05-01T08:47:36.939Z</time></trkpt><trkpt lat="42.3636625" lon="14.3069952"><ele>43.0</ele><time>2026-05-01T08:47:37.94Z</time></trkpt><trkpt lat="42.3635841" lon="14.3070193"><ele>42.42857142857143</ele><time>2026-05-01T08:47:38.938Z</time></trkpt><trkpt lat="42.3635052" lon="14.307043"><ele>41.85714285714286</ele><time>2026-05-01T08:47:39.933Z</time></trkpt><trkpt lat="42.3634329" lon="14.3070519"><ele>41.28571428571429</ele><time>2026-05-01T08:47:40.941Z</time></trkpt><trkpt lat="42.3633575" lon="14.3070621"><ele>40.714285714285715</ele><time>2026-05-01T08:47:41.942Z</time></trkpt><trkpt lat="42.3632829" lon="14.3070719"><ele>40.14285714285714</ele><time>2026-05-01T08:47:42.948Z</time></trkpt><trkpt lat="42.3632113" lon="14.3070743"><ele>39.57142857142858</ele><time>2026-05-01T08:47:43.94Z</time></trkpt><trkpt lat="42.3631472" lon="14.3070745"><ele>39.0</ele><time>2026-05-01T08:47:44.942Z</time></trkpt><trkpt lat="42.3630821" lon="14.307076"><ele>38.833333333333336</ele><time>2026-05-01T08:47:45.945Z</time></trkpt><trkpt lat="42.3630105" lon="14.3070692"><ele>38.666666666666664</ele><time>2026-05-01T08:47:46.941Z</time></trkpt><trkpt lat="42.3629364" lon="14.3070539"><ele>38.5</ele><time>2026-05-01T08:47:47.932Z</time></trkpt><trkpt lat="42.3628592" lon="14.3070429"><ele>38.33333333333333</ele><time>2026-05-01T08:47:48.945Z</time></trkpt><trkpt lat="42.3627796" lon="14.3070337"><ele>38.166666666666664</ele><time>2026-05-01T08:47:49.935Z</time></trkpt><trkpt lat="42.3626956" lon="14.3070233"><ele>38.0</ele><time>2026-05-01T08:47:50.938Z</time></trkpt><trkpt lat="42.3626153" lon="14.3070075"><ele>38.0</ele><time>2026-05-01T08:47:51.94Z</time></trkpt><trkpt lat="42.3625353" lon="14.306987"><ele>38.0</ele><time>2026-05-01T08:47:52.949Z</time></trkpt><trkpt lat="42.362462" lon="14.3069813"><ele>38.0</ele><time>2026-05-01T08:47:53.943Z</time></trkpt><trkpt lat="42.3623794" lon="14.3069806"><ele>38.0</ele><time>2026-05-01T08:47:54.944Z</time></trkpt><trkpt lat="42.3622954" lon="14.3069773"><ele>38.0</ele><time>2026-05-01T08:47:55.946Z</time></trkpt><trkpt lat="42.3622154" lon="14.3069759"><ele>38.0</ele><time>2026-05-01T08:47:56.942Z</time></trkpt><trkpt lat="42.3621347" lon="14.3069736"><ele>37.857142857142854</ele><time>2026-05-01T08:47:57.941Z</time></trkpt><trkpt lat="42.3620574" lon="14.3069743"><ele>37.714285714285715</ele><time>2026-05-01T08:47:58.934Z</time></trkpt><trkpt lat="42.3619755" lon="14.3069789"><ele>37.57142857142857</ele><time>2026-05-01T08:47:59.948Z</time></trkpt><trkpt lat="42.3619014" lon="14.3069857"><ele>37.42857142857143</ele><time>2026-05-01T08:48:00.945Z</time></trkpt><trkpt lat="42.3618256" lon="14.3069789"><ele>37.285714285714285</ele><time>2026-05-01T08:48:01.942Z</time></trkpt><trkpt lat="42.3617619" lon="14.3069687"><ele>37.142857142857146</ele><time>2026-05-01T08:48:02.931Z</time></trkpt><trkpt lat="42.3616949" lon="14.3069531"><ele>37.0</ele><time>2026-05-01T08:48:03.939Z</time></trkpt><trkpt lat="42.3615789" lon="14.306908"><ele>37.0</ele><time>2026-05-01T08:48:05.931Z</time></trkpt><trkpt lat="42.3614936" lon="14.3068399"><ele>37.0</ele><time>2026-05-01T08:48:07.938Z</time></trkpt><trkpt lat="42.3614075" lon="14.3067341"><ele>37.0</ele><time>2026-05-01T08:48:09.943Z</time></trkpt><trkpt lat="42.3613247" lon="14.3066313"><ele>37.0</ele><time>2026-05-01T08:48:11.942Z</time></trkpt><trkpt lat="42.3612324" lon="14.3065441"><ele>37.0</ele><time>2026-05-01T08:48:13.938Z</time></trkpt><trkpt lat="42.3611486" lon="14.3065122"><ele>37.0</ele><time>2026-05-01T08:48:15.943Z</time></trkpt><trkpt lat="42.3610803" lon="14.3064989"><ele>37.0</ele><time>2026-05-01T08:48:16.94Z</time></trkpt><trkpt lat="42.3610087" lon="14.3064775"><ele>37.0</ele><time>2026-05-01T08:48:17.94Z</time></trkpt><trkpt lat="42.3609379" lon="14.306467"><ele>37.0</ele><time>2026-05-01T08:48:18.943Z</time></trkpt><trkpt lat="42.360861" lon="14.30645"><ele>37.0</ele><time>2026-05-01T08:48:19.944Z</time></trkpt><trkpt lat="42.3607727" lon="14.3064279"><ele>37.0</ele><time>2026-05-01T08:48:20.94Z</time></trkpt><trkpt lat="42.3606922" lon="14.306402"><ele>35.833333333333336</ele><time>2026-05-01T08:48:21.95Z</time></trkpt><trkpt lat="42.3606102" lon="14.3063741"><ele>34.66666666666667</ele><time>2026-05-01T08:48:22.933Z</time></trkpt><trkpt lat="42.3605346" lon="14.3063413"><ele>33.5</ele><time>2026-05-01T08:48:23.941Z</time></trkpt><trkpt lat="42.3604615" lon="14.3063058"><ele>32.333333333333336</ele><time>2026-05-01T08:48:24.945Z</time></trkpt><trkpt lat="42.3603858" lon="14.3062695"><ele>31.166666666666668</ele><time>2026-05-01T08:48:25.947Z</time></trkpt><trkpt lat="42.360307" lon="14.306234"><ele>30.0</ele><time>2026-05-01T08:48:26.944Z</time></trkpt><trkpt lat="42.360226" lon="14.3062058"><ele>29.571428571428573</ele><time>2026-05-01T08:48:27.941Z</time></trkpt><trkpt lat="42.3601502" lon="14.3061757"><ele>29.142857142857142</ele><time>2026-05-01T08:48:28.942Z</time></trkpt><trkpt lat="42.360077" lon="14.306161"><ele>28.714285714285715</ele><time>2026-05-01T08:48:29.94Z</time></trkpt><trkpt lat="42.360007" lon="14.3061666"><ele>28.285714285714285</ele><time>2026-05-01T08:48:30.946Z</time></trkpt><trkpt lat="42.359937" lon="14.3061786"><ele>27.857142857142854</ele><time>2026-05-01T08:48:31.937Z</time></trkpt><trkpt lat="42.3598678" lon="14.3062001"><ele>27.428571428571427</ele><time>2026-05-01T08:48:32.937Z</time></trkpt><trkpt lat="42.3598032" lon="14.3062341"><ele>27.0</ele><time>2026-05-01T08:48:33.94Z</time></trkpt><trkpt lat="42.3597322" lon="14.306269"><ele>27.833333333333332</ele><time>2026-05-01T08:48:34.927Z</time></trkpt><trkpt lat="42.3596532" lon="14.3062968"><ele>28.666666666666664</ele><time>2026-05-01T08:48:35.944Z</time></trkpt><trkpt lat="42.3595813" lon="14.3063205"><ele>29.5</ele><time>2026-05-01T08:48:36.939Z</time></trkpt><trkpt lat="42.359502" lon="14.3063477"><ele>30.333333333333332</ele><time>2026-05-01T08:48:37.941Z</time></trkpt><trkpt lat="42.3594196" lon="14.3063704"><ele>31.166666666666664</ele><time>2026-05-01T08:48:38.937Z</time></trkpt><trkpt lat="42.3593387" lon="14.3063935"><ele>32.0</ele><time>2026-05-01T08:48:39.94Z</time></trkpt><trkpt lat="42.3592629" lon="14.3064181"><ele>32.166666666666664</ele><time>2026-05-01T08:48:40.941Z</time></trkpt><trkpt lat="42.3591976" lon="14.3064608"><ele>32.33333333333333</ele><time>2026-05-01T08:48:41.936Z</time></trkpt><trkpt lat="42.3591468" lon="14.3065211"><ele>32.5</ele><time>2026-05-01T08:48:42.95Z</time></trkpt><trkpt lat="42.3590979" lon="14.3065971"><ele>32.666666666666664</ele><time>2026-05-01T08:48:43.941Z</time></trkpt><trkpt lat="42.3590393" lon="14.3066912"><ele>32.833333333333336</ele><time>2026-05-01T08:48:44.933Z</time></trkpt><trkpt lat="42.3589823" lon="14.3067782"><ele>33.0</ele><time>2026-05-01T08:48:45.946Z</time></trkpt><trkpt lat="42.3589279" lon="14.3068651"><ele>32.666666666666664</ele><time>2026-05-01T08:48:46.93Z</time></trkpt><trkpt lat="42.3588631" lon="14.3069483"><ele>32.333333333333336</ele><time>2026-05-01T08:48:47.945Z</time></trkpt><trkpt lat="42.3588001" lon="14.3070261"><ele>32.0</ele><time>2026-05-01T08:48:48.94Z</time></trkpt><trkpt lat="42.3587327" lon="14.3070927"><ele>31.666666666666668</ele><time>2026-05-01T08:48:49.937Z</time></trkpt><trkpt lat="42.358658" lon="14.3071335"><ele>31.333333333333336</ele><time>2026-05-01T08:48:50.932Z</time></trkpt><trkpt lat="42.3585859" lon="14.307139"><ele>31.0</ele><time>2026-05-01T08:48:51.941Z</time></trkpt><trkpt lat="42.3585104" lon="14.3071505"><ele>31.0</ele><time>2026-05-01T08:48:52.942Z</time></trkpt><trkpt lat="42.3584303" lon="14.3071371"><ele>31.0</ele><time>2026-05-01T08:48:53.93Z</time></trkpt><trkpt lat="42.3583392" lon="14.307099"><ele>31.0</ele><time>2026-05-01T08:48:54.931Z</time></trkpt><trkpt lat="42.358244" lon="14.3070483"><ele>31.0</ele><time>2026-05-01T08:48:55.941Z</time></trkpt><trkpt lat="42.3581452" lon="14.3069992"><ele>31.0</ele><time>2026-05-01T08:48:56.944Z</time></trkpt><trkpt lat="42.358044" lon="14.3069488"><ele>31.25</ele><time>2026-05-01T08:48:57.935Z</time></trkpt><trkpt lat="42.3579387" lon="14.3069026"><ele>31.5</ele><time>2026-05-01T08:48:58.937Z</time></trkpt><trkpt lat="42.35783" lon="14.3068555"><ele>31.75</ele><time>2026-05-01T08:48:59.942Z</time></trkpt><trkpt lat="42.3577205" lon="14.3068062"><ele>32.0</ele><time>2026-05-01T08:49:00.94Z</time></trkpt><trkpt lat="42.3576081" lon="14.3067563"><ele>32.0</ele><time>2026-05-01T08:49:01.946Z</time></trkpt><trkpt lat="42.3574944" lon="14.3067062"><ele>32.0</ele><time>2026-05-01T08:49:02.946Z</time></trkpt><trkpt lat="42.3573863" lon="14.3066569"><ele>32.0</ele><time>2026-05-01T08:49:03.948Z</time></trkpt><trkpt lat="42.3572857" lon="14.3066112"><ele>32.0</ele><time>2026-05-01T08:49:04.932Z</time></trkpt><trkpt lat="42.3571872" lon="14.3065665"><ele>32.0</ele><time>2026-05-01T08:49:05.93Z</time></trkpt><trkpt lat="42.3570901" lon="14.3065197"><ele>32.2</ele><time>2026-05-01T08:49:06.951Z</time></trkpt><trkpt lat="42.3569922" lon="14.306476"><ele>32.400000000000006</ele><time>2026-05-01T08:49:07.941Z</time></trkpt><trkpt lat="42.356895" lon="14.3064408"><ele>32.599999999999994</ele><time>2026-05-01T08:49:08.936Z</time></trkpt><trkpt lat="42.3568018" lon="14.3064154"><ele>32.8</ele><time>2026-05-01T08:49:09.944Z</time></trkpt><trkpt lat="42.3567098" lon="14.3063975"><ele>33.0</ele><time>2026-05-01T08:49:10.936Z</time></trkpt><trkpt lat="42.3566259" lon="14.3063918"><ele>33.0</ele><time>2026-05-01T08:49:11.95Z</time></trkpt><trkpt lat="42.3565556" lon="14.3063934"><ele>33.0</ele><time>2026-05-01T08:49:12.943Z</time></trkpt><trkpt lat="42.3564838" lon="14.3063949"><ele>33.0</ele><time>2026-05-01T08:49:13.938Z</time></trkpt><trkpt lat="42.3564146" lon="14.3063964"><ele>33.0</ele><time>2026-05-01T08:49:14.946Z</time></trkpt><trkpt lat="42.3562805" lon="14.3064112"><ele>33.0</ele><time>2026-05-01T08:49:16.936Z</time></trkpt><trkpt lat="42.3562016" lon="14.3064211"><ele>33.0</ele><time>2026-05-01T08:49:17.94Z</time></trkpt><trkpt lat="42.3561265" lon="14.3064324"><ele>33.666666666666664</ele><time>2026-05-01T08:49:18.941Z</time></trkpt><trkpt lat="42.3560541" lon="14.3064504"><ele>34.333333333333336</ele><time>2026-05-01T08:49:19.94Z</time></trkpt><trkpt lat="42.3559877" lon="14.3064754"><ele>35.0</ele><time>2026-05-01T08:49:20.94Z</time></trkpt><trkpt lat="42.3559084" lon="14.3065052"><ele>35.66666666666667</ele><time>2026-05-01T08:49:21.943Z</time></trkpt><trkpt lat="42.3558199" lon="14.3065284"><ele>36.333333333333336</ele><time>2026-05-01T08:49:22.934Z</time></trkpt><trkpt lat="42.3557291" lon="14.3065502"><ele>37.0</ele><time>2026-05-01T08:49:23.934Z</time></trkpt><trkpt lat="42.3556373" lon="14.3065758"><ele>37.0</ele><time>2026-05-01T08:49:24.936Z</time></trkpt><trkpt lat="42.3555548" lon="14.3066033"><ele>37.0</ele><time>2026-05-01T08:49:25.936Z</time></trkpt><trkpt lat="42.3554781" lon="14.3066365"><ele>37.0</ele><time>2026-05-01T08:49:26.941Z</time></trkpt><trkpt lat="42.3553895" lon="14.3066796"><ele>37.0</ele><time>2026-05-01T08:49:27.937Z</time></trkpt><trkpt lat="42.3553049" lon="14.3067261"><ele>37.0</ele><time>2026-05-01T08:49:28.932Z</time></trkpt><trkpt lat="42.3552229" lon="14.3067665"><ele>37.0</ele><time>2026-05-01T08:49:29.935Z</time></trkpt><trkpt lat="42.3551392" lon="14.306804"><ele>36.6</ele><time>2026-05-01T08:49:30.941Z</time></trkpt><trkpt lat="42.3550523" lon="14.3068377"><ele>36.2</ele><time>2026-05-01T08:49:31.936Z</time></trkpt><trkpt lat="42.3549606" lon="14.3068759"><ele>35.8</ele><time>2026-05-01T08:49:32.951Z</time></trkpt><trkpt lat="42.3548741" lon="14.3069138"><ele>35.4</ele><time>2026-05-01T08:49:33.949Z</time></trkpt><trkpt lat="42.3547856" lon="14.3069599"><ele>35.0</ele><time>2026-05-01T08:49:34.958Z</time></trkpt><trkpt lat="42.3546962" lon="14.3070001"><ele>35.0</ele><time>2026-05-01T08:49:35.938Z</time></trkpt><trkpt lat="42.354605" lon="14.3070319"><ele>35.0</ele><time>2026-05-01T08:49:36.934Z</time></trkpt><trkpt lat="42.3545079" lon="14.3070625"><ele>35.0</ele><time>2026-05-01T08:49:37.936Z</time></trkpt><trkpt lat="42.3544085" lon="14.3071129"><ele>35.0</ele><time>2026-05-01T08:49:38.935Z</time></trkpt><trkpt lat="42.3543127" lon="14.3071597"><ele>35.0</ele><time>2026-05-01T08:49:39.933Z</time></trkpt><trkpt lat="42.3542326" lon="14.3072077"><ele>35.83333333333333</ele><time>2026-05-01T08:49:40.941Z</time></trkpt><trkpt lat="42.3541566" lon="14.3072643"><ele>36.666666666666664</ele><time>2026-05-01T08:49:41.934Z</time></trkpt><trkpt lat="42.3540809" lon="14.3073102"><ele>37.5</ele><time>2026-05-01T08:49:42.941Z</time></trkpt><trkpt lat="42.3540049" lon="14.3073652"><ele>38.333333333333336</ele><time>2026-05-01T08:49:43.946Z</time></trkpt><trkpt lat="42.3539324" lon="14.3074135"><ele>39.16666666666667</ele><time>2026-05-01T08:49:44.938Z</time></trkpt><trkpt lat="42.3538538" lon="14.307449"><ele>40.0</ele><time>2026-05-01T08:49:45.939Z</time></trkpt><trkpt lat="42.3537757" lon="14.3074765"><ele>40.0</ele><time>2026-05-01T08:49:46.937Z</time></trkpt><trkpt lat="42.353701" lon="14.3074618"><ele>40.0</ele><time>2026-05-01T08:49:47.943Z</time></trkpt><trkpt lat="42.3536134" lon="14.3074338"><ele>40.0</ele><time>2026-05-01T08:49:48.942Z</time></trkpt><trkpt lat="42.3535279" lon="14.3074282"><ele>40.0</ele><time>2026-05-01T08:49:49.936Z</time></trkpt><trkpt lat="42.3534564" lon="14.3074367"><ele>40.0</ele><time>2026-05-01T08:49:50.936Z</time></trkpt><trkpt lat="42.3533858" lon="14.3074895"><ele>40.0</ele><time>2026-05-01T08:49:51.939Z</time></trkpt><trkpt lat="42.3533196" lon="14.3075618"><ele>40.0</ele><time>2026-05-01T08:49:52.938Z</time></trkpt><trkpt lat="42.3532487" lon="14.3076283"><ele>40.0</ele><time>2026-05-01T08:49:53.939Z</time></trkpt><trkpt lat="42.3531721" lon="14.3076831"><ele>40.0</ele><time>2026-05-01T08:49:54.933Z</time></trkpt><trkpt lat="42.3530989" lon="14.3077337"><ele>40.0</ele><time>2026-05-01T08:49:55.947Z</time></trkpt><trkpt lat="42.3530169" lon="14.3077826"><ele>40.0</ele><time>2026-05-01T08:49:56.932Z</time></trkpt><trkpt lat="42.3529328" lon="14.307812"><ele>40.0</ele><time>2026-05-01T08:49:57.94Z</time></trkpt><trkpt lat="42.3528551" lon="14.3077943"><ele>39.66666666666667</ele><time>2026-05-01T08:49:58.942Z</time></trkpt><trkpt lat="42.3527838" lon="14.307749"><ele>39.333333333333336</ele><time>2026-05-01T08:49:59.956Z</time></trkpt><trkpt lat="42.3527027" lon="14.3076985"><ele>39.0</ele><time>2026-05-01T08:50:00.938Z</time></trkpt><trkpt lat="42.3526171" lon="14.3076762"><ele>38.666666666666664</ele><time>2026-05-01T08:50:01.946Z</time></trkpt><trkpt lat="42.3525371" lon="14.3076452"><ele>38.33333333333333</ele><time>2026-05-01T08:50:02.936Z</time></trkpt><trkpt lat="42.3524519" lon="14.3076345"><ele>38.0</ele><time>2026-05-01T08:50:03.942Z</time></trkpt><trkpt lat="42.3523534" lon="14.3076454"><ele>38.0</ele><time>2026-05-01T08:50:04.944Z</time></trkpt><trkpt lat="42.352255" lon="14.3076663"><ele>38.0</ele><time>2026-05-01T08:50:05.935Z</time></trkpt><trkpt lat="42.3521529" lon="14.3076807"><ele>38.0</ele><time>2026-05-01T08:50:06.939Z</time></trkpt><trkpt lat="42.3520414" lon="14.307696"><ele>38.0</ele><time>2026-05-01T08:50:07.94Z</time></trkpt><trkpt lat="42.3519329" lon="14.3077117"><ele>38.0</ele><time>2026-05-01T08:50:08.948Z</time></trkpt><trkpt lat="42.3518211" lon="14.3077307"><ele>38.25</ele><time>2026-05-01T08:50:09.94Z</time></trkpt><trkpt lat="42.3517095" lon="14.3077465"><ele>38.5</ele><time>2026-05-01T08:50:10.94Z</time></trkpt><trkpt lat="42.351594" lon="14.3077662"><ele>38.75</ele><time>2026-05-01T08:50:11.944Z</time></trkpt><trkpt lat="42.3514815" lon="14.3077836"><ele>39.0</ele><time>2026-05-01T08:50:12.943Z</time></trkpt><trkpt lat="42.3513679" lon="14.3077999"><ele>39.8</ele><time>2026-05-01T08:50:13.945Z</time></trkpt><trkpt lat="42.3512531" lon="14.3078246"><ele>40.599999999999994</ele><time>2026-05-01T08:50:14.939Z</time></trkpt><trkpt lat="42.3511476" lon="14.3078395"><ele>41.4</ele><time>2026-05-01T08:50:15.946Z</time></trkpt><trkpt lat="42.3510515" lon="14.3078513"><ele>42.199999999999996</ele><time>2026-05-01T08:50:16.946Z</time></trkpt><trkpt lat="42.3509562" lon="14.3078638"><ele>43.0</ele><time>2026-05-01T08:50:17.941Z</time></trkpt><trkpt lat="42.3508705" lon="14.307878"><ele>43.0</ele><time>2026-05-01T08:50:18.945Z</time></trkpt><trkpt lat="42.3507963" lon="14.3078824"><ele>43.0</ele><time>2026-05-01T08:50:19.941Z</time></trkpt><trkpt lat="42.3507171" lon="14.3078783"><ele>43.0</ele><time>2026-05-01T08:50:20.944Z</time></trkpt><trkpt lat="42.35063" lon="14.3078862"><ele>43.0</ele><time>2026-05-01T08:50:21.942Z</time></trkpt><trkpt lat="42.3505388" lon="14.3078976"><ele>43.0</ele><time>2026-05-01T08:50:22.939Z</time></trkpt><trkpt lat="42.3504406" lon="14.3079182"><ele>43.0</ele><time>2026-05-01T08:50:23.935Z</time></trkpt><trkpt lat="42.3503532" lon="14.3079527"><ele>43.2</ele><time>2026-05-01T08:50:24.943Z</time></trkpt><trkpt lat="42.3502647" lon="14.3079976"><ele>43.4</ele><time>2026-05-01T08:50:25.932Z</time></trkpt><trkpt lat="42.3501693" lon="14.3080417"><ele>43.6</ele><time>2026-05-01T08:50:26.945Z</time></trkpt><trkpt lat="42.3500603" lon="14.308096"><ele>43.800000000000004</ele><time>2026-05-01T08:50:27.946Z</time></trkpt><trkpt lat="42.3499499" lon="14.3081518"><ele>44.0</ele><time>2026-05-01T08:50:28.944Z</time></trkpt><trkpt lat="42.3498383" lon="14.3082076"><ele>44.0</ele><time>2026-05-01T08:50:29.939Z</time></trkpt><trkpt lat="42.3497317" lon="14.3082667"><ele>44.0</ele><time>2026-05-01T08:50:30.942Z</time></trkpt><trkpt lat="42.3496413" lon="14.3083113"><ele>44.0</ele><time>2026-05-01T08:50:31.936Z</time></trkpt><trkpt lat="42.3495607" lon="14.3083535"><ele>44.0</ele><time>2026-05-01T08:50:32.943Z</time></trkpt><trkpt lat="42.3494848" lon="14.3083801"><ele>44.0</ele><time>2026-05-01T08:50:33.933Z</time></trkpt><trkpt lat="42.3494164" lon="14.3083939"><ele>44.0</ele><time>2026-05-01T08:50:34.94Z</time></trkpt><trkpt lat="42.3493152" lon="14.3083767"><ele>43.800000000000004</ele><time>2026-05-01T08:50:36.935Z</time></trkpt><trkpt lat="42.3492414" lon="14.3082472"><ele>43.6</ele><time>2026-05-01T08:50:38.944Z</time></trkpt><trkpt lat="42.3492368" lon="14.3081485"><ele>43.4</ele><time>2026-05-01T08:50:39.93Z</time></trkpt><trkpt lat="42.3492262" lon="14.3080469"><ele>43.2</ele><time>2026-05-01T08:50:40.94Z</time></trkpt><trkpt lat="42.3491608" lon="14.3079218"><ele>43.0</ele><time>2026-05-01T08:50:42.942Z</time></trkpt><trkpt lat="42.3490489" lon="14.3079031"><ele>42.8</ele><time>2026-05-01T08:50:44.94Z</time></trkpt><trkpt lat="42.3489554" lon="14.3078485"><ele>42.599999999999994</ele><time>2026-05-01T08:50:46.936Z</time></trkpt><trkpt lat="42.3489297" lon="14.3077658"><ele>42.400000000000006</ele><time>2026-05-01T08:50:47.941Z</time></trkpt><trkpt lat="42.3489058" lon="14.3076428"><ele>42.2</ele><time>2026-05-01T08:50:48.942Z</time></trkpt><trkpt lat="42.3488792" lon="14.3075189"><ele>42.0</ele><time>2026-05-01T08:50:49.941Z</time></trkpt><trkpt lat="42.3488468" lon="14.307385"><ele>42.0</ele><time>2026-05-01T08:50:50.949Z</time></trkpt><trkpt lat="42.3488144" lon="14.3072295"><ele>42.0</ele><time>2026-05-01T08:50:51.945Z</time></trkpt><trkpt lat="42.3487801" lon="14.3070757"><ele>42.0</ele><time>2026-05-01T08:50:52.936Z</time></trkpt><trkpt lat="42.3487512" lon="14.3069253"><ele>42.0</ele><time>2026-05-01T08:50:53.945Z</time></trkpt><trkpt lat="42.3487107" lon="14.3067877"><ele>42.0</ele><time>2026-05-01T08:50:54.93Z</time></trkpt><trkpt lat="42.3486684" lon="14.3066722"><ele>42.0</ele><time>2026-05-01T08:50:55.935Z</time></trkpt><trkpt lat="42.3486343" lon="14.3065752"><ele>42.0</ele><time>2026-05-01T08:50:56.934Z</time></trkpt><trkpt lat="42.3486217" lon="14.3064149"><ele>42.0</ele><time>2026-05-01T08:50:58.933Z</time></trkpt><trkpt lat="42.3486465" lon="14.3063162"><ele>42.0</ele><time>2026-05-01T08:50:59.942Z</time></trkpt><trkpt lat="42.3486905" lon="14.3062198"><ele>42.0</ele><time>2026-05-01T08:51:00.937Z</time></trkpt><trkpt lat="42.3487523" lon="14.3061292"><ele>42.0</ele><time>2026-05-01T08:51:01.934Z</time></trkpt><trkpt lat="42.3488095" lon="14.3060374"><ele>42.0</ele><time>2026-05-01T08:51:02.942Z</time></trkpt><trkpt lat="42.348857" lon="14.3059411"><ele>42.0</ele><time>2026-05-01T08:51:03.936Z</time></trkpt><trkpt lat="42.3488896" lon="14.3058464"><ele>42.0</ele><time>2026-05-01T08:51:04.94Z</time></trkpt><trkpt lat="42.3488944" lon="14.3056842"><ele>44.166666666666664</ele><time>2026-05-01T08:51:06.932Z</time></trkpt><trkpt lat="42.3488207" lon="14.3055772"><ele>46.33333333333333</ele><time>2026-05-01T08:51:08.942Z</time></trkpt><trkpt lat="42.3487691" lon="14.305524"><ele>48.5</ele><time>2026-05-01T08:51:09.937Z</time></trkpt><trkpt lat="42.3486617" lon="14.305464"><ele>50.666666666666664</ele><time>2026-05-01T08:51:11.937Z</time></trkpt><trkpt lat="42.3485977" lon="14.3054531"><ele>52.83333333333333</ele><time>2026-05-01T08:51:12.947Z</time></trkpt><trkpt lat="42.3485313" lon="14.3054436"><ele>55.0</ele><time>2026-05-01T08:51:14.95Z</time></trkpt><trkpt lat="42.3484601" lon="14.3054658"><ele>55.0</ele><time>2026-05-01T08:51:17.935Z</time></trkpt><trkpt lat="42.3483631" lon="14.3055634"><ele>55.0</ele><time>2026-05-01T08:51:19.934Z</time></trkpt><trkpt lat="42.3482985" lon="14.3056431"><ele>55.0</ele><time>2026-05-01T08:51:20.942Z</time></trkpt><trkpt lat="42.3482175" lon="14.3057236"><ele>55.0</ele><time>2026-05-01T08:51:21.936Z</time></trkpt><trkpt lat="42.3481263" lon="14.305822"><ele>55.0</ele><time>2026-05-01T08:51:22.935Z</time></trkpt><trkpt lat="42.3480251" lon="14.3059227"><ele>55.0</ele><time>2026-05-01T08:51:23.941Z</time></trkpt><trkpt lat="42.3479116" lon="14.3060415"><ele>55.0</ele><time>2026-05-01T08:51:24.933Z</time></trkpt><trkpt lat="42.3477934" lon="14.306174"><ele>55.0</ele><time>2026-05-01T08:51:25.938Z</time></trkpt><trkpt lat="42.347667" lon="14.3063001"><ele>52.666666666666664</ele><time>2026-05-01T08:51:26.938Z</time></trkpt><trkpt lat="42.3475459" lon="14.3064164"><ele>50.33333333333333</ele><time>2026-05-01T08:51:27.943Z</time></trkpt><trkpt lat="42.3474157" lon="14.3065133"><ele>48.0</ele><time>2026-05-01T08:51:28.935Z</time></trkpt><trkpt lat="42.3472733" lon="14.3065992"><ele>49.33333333333333</ele><time>2026-05-01T08:51:29.943Z</time></trkpt><trkpt lat="42.3471211" lon="14.306679"><ele>50.666666666666664</ele><time>2026-05-01T08:51:30.945Z</time></trkpt><trkpt lat="42.3469578" lon="14.3067567"><ele>52.0</ele><time>2026-05-01T08:51:31.934Z</time></trkpt><trkpt lat="42.3468041" lon="14.3068413"><ele>52.0</ele><time>2026-05-01T08:51:32.94Z</time></trkpt><trkpt lat="42.3466548" lon="14.306912"><ele>52.0</ele><time>2026-05-01T08:51:33.942Z</time></trkpt><trkpt lat="42.3465017" lon="14.3069854"><ele>52.0</ele><time>2026-05-01T08:51:34.938Z</time></trkpt><trkpt lat="42.3463548" lon="14.3070556"><ele>52.25</ele><time>2026-05-01T08:51:35.943Z</time></trkpt><trkpt lat="42.3462205" lon="14.3071206"><ele>52.5</ele><time>2026-05-01T08:51:36.948Z</time></trkpt><trkpt lat="42.3460934" lon="14.3071875"><ele>52.75</ele><time>2026-05-01T08:51:37.932Z</time></trkpt><trkpt lat="42.3459661" lon="14.3072556"><ele>53.0</ele><time>2026-05-01T08:51:38.938Z</time></trkpt><trkpt lat="42.3458346" lon="14.3073267"><ele>51.75</ele><time>2026-05-01T08:51:39.944Z</time></trkpt><trkpt lat="42.3457013" lon="14.3073985"><ele>50.5</ele><time>2026-05-01T08:51:40.94Z</time></trkpt><trkpt lat="42.3455653" lon="14.3074781"><ele>49.25</ele><time>2026-05-01T08:51:41.94Z</time></trkpt><trkpt lat="42.3454374" lon="14.3075537"><ele>48.0</ele><time>2026-05-01T08:51:42.939Z</time></trkpt><trkpt lat="42.345305" lon="14.3076351"><ele>48.0</ele><time>2026-05-01T08:51:43.942Z</time></trkpt><trkpt lat="42.3451694" lon="14.307711"><ele>48.0</ele><time>2026-05-01T08:51:44.948Z</time></trkpt><trkpt lat="42.3450314" lon="14.3077915"><ele>48.0</ele><time>2026-05-01T08:51:45.941Z</time></trkpt><trkpt lat="42.3448916" lon="14.3078758"><ele>48.0</ele><time>2026-05-01T08:51:46.94Z</time></trkpt><trkpt lat="42.3447508" lon="14.3079683"><ele>48.0</ele><time>2026-05-01T08:51:47.944Z</time></trkpt><trkpt lat="42.3446085" lon="14.3080562"><ele>48.0</ele><time>2026-05-01T08:51:48.939Z</time></trkpt><trkpt lat="42.3444648" lon="14.3081457"><ele>46.75</ele><time>2026-05-01T08:51:49.938Z</time></trkpt><trkpt lat="42.3443227" lon="14.3082351"><ele>45.5</ele><time>2026-05-01T08:51:50.944Z</time></trkpt><trkpt lat="42.3441899" lon="14.3083162"><ele>44.25</ele><time>2026-05-01T08:51:51.944Z</time></trkpt><trkpt lat="42.3440743" lon="14.3083851"><ele>43.0</ele><time>2026-05-01T08:51:52.943Z</time></trkpt><trkpt lat="42.3439584" lon="14.3084566"><ele>43.0</ele><time>2026-05-01T08:51:53.948Z</time></trkpt><trkpt lat="42.3438642" lon="14.3085257"><ele>43.0</ele><time>2026-05-01T08:51:54.933Z</time></trkpt><trkpt lat="42.3437831" lon="14.3085896"><ele>43.0</ele><time>2026-05-01T08:51:55.942Z</time></trkpt><trkpt lat="42.3437189" lon="14.3086074"><ele>43.0</ele><time>2026-05-01T08:51:58.935Z</time></trkpt><trkpt lat="42.3436824" lon="14.3085049"><ele>43.0</ele><time>2026-05-01T08:52:02.936Z</time></trkpt><trkpt lat="42.3436206" lon="14.308526"><ele>43.0</ele><time>2026-05-01T08:58:14.943Z</time></trkpt><trkpt lat="42.3435337" lon="14.3085591"><ele>43.0</ele><time>2026-05-01T08:58:31.939Z</time></trkpt><trkpt lat="42.3434104" lon="14.3085721"><ele>43.0</ele><time>2026-05-01T08:58:33.939Z</time></trkpt><trkpt lat="42.3433347" lon="14.3085545"><ele>43.0</ele><time>2026-05-01T08:58:34.942Z</time></trkpt><trkpt lat="42.343261" lon="14.3085136"><ele>43.0</ele><time>2026-05-01T08:58:35.93Z</time></trkpt><trkpt lat="42.3432038" lon="14.3084711"><ele>43.0</ele><time>2026-05-01T08:58:36.948Z</time></trkpt><trkpt lat="42.3431489" lon="14.3084208"><ele>43.0</ele><time>2026-05-01T08:58:37.939Z</time></trkpt><trkpt lat="42.3430878" lon="14.3083636"><ele>43.16666666666667</ele><time>2026-05-01T08:58:38.932Z</time></trkpt><trkpt lat="42.3430202" lon="14.3082954"><ele>43.333333333333336</ele><time>2026-05-01T08:58:39.946Z</time></trkpt><trkpt lat="42.3429533" lon="14.3082281"><ele>43.5</ele><time>2026-05-01T08:58:40.945Z</time></trkpt><trkpt lat="42.3428918" lon="14.3081604"><ele>43.666666666666664</ele><time>2026-05-01T08:58:41.953Z</time></trkpt><trkpt lat="42.3428288" lon="14.3081025"><ele>43.83333333333333</ele><time>2026-05-01T08:58:42.935Z</time></trkpt><trkpt lat="42.342763" lon="14.3080412"><ele>44.0</ele><time>2026-05-01T08:58:43.934Z</time></trkpt><trkpt lat="42.3426966" lon="14.3079785"><ele>44.666666666666664</ele><time>2026-05-01T08:58:44.941Z</time></trkpt><trkpt lat="42.3426272" lon="14.3079304"><ele>45.33333333333333</ele><time>2026-05-01T08:58:45.946Z</time></trkpt><trkpt lat="42.3425647" lon="14.3079072"><ele>46.0</ele><time>2026-05-01T08:58:46.938Z</time></trkpt><trkpt lat="42.3424329" lon="14.3078811"><ele>46.666666666666664</ele><time>2026-05-01T08:58:48.935Z</time></trkpt><trkpt lat="42.3423606" lon="14.3078804"><ele>47.333333333333336</ele><time>2026-05-01T08:58:49.945Z</time></trkpt><trkpt lat="42.3422902" lon="14.3078979"><ele>48.0</ele><time>2026-05-01T08:58:50.937Z</time></trkpt><trkpt lat="42.3422154" lon="14.3079217"><ele>47.833333333333336</ele><time>2026-05-01T08:58:51.939Z</time></trkpt><trkpt lat="42.3421386" lon="14.3079546"><ele>47.666666666666664</ele><time>2026-05-01T08:58:52.947Z</time></trkpt><trkpt lat="42.3420579" lon="14.307993"><ele>47.5</ele><time>2026-05-01T08:58:53.938Z</time></trkpt><trkpt lat="42.3419865" lon="14.3080419"><ele>47.33333333333333</ele><time>2026-05-01T08:58:54.939Z</time></trkpt><trkpt lat="42.3419085" lon="14.3080862"><ele>47.166666666666664</ele><time>2026-05-01T08:58:55.942Z</time></trkpt><trkpt lat="42.3418385" lon="14.3081261"><ele>47.0</ele><time>2026-05-01T08:58:56.934Z</time></trkpt><trkpt lat="42.3417711" lon="14.3081653"><ele>46.83333333333333</ele><time>2026-05-01T08:58:57.975Z</time></trkpt><trkpt lat="42.3417041" lon="14.3082053"><ele>46.666666666666664</ele><time>2026-05-01T08:58:58.948Z</time></trkpt><trkpt lat="42.341638" lon="14.3082389"><ele>46.5</ele><time>2026-05-01T08:58:59.932Z</time></trkpt><trkpt lat="42.3415634" lon="14.3082685"><ele>46.333333333333336</ele><time>2026-05-01T08:59:00.941Z</time></trkpt><trkpt lat="42.3414794" lon="14.3083099"><ele>46.16666666666667</ele><time>2026-05-01T08:59:01.941Z</time></trkpt><trkpt lat="42.3413982" lon="14.3083471"><ele>46.0</ele><time>2026-05-01T08:59:02.934Z</time></trkpt><trkpt lat="42.3413197" lon="14.3083794"><ele>45.66666666666667</ele><time>2026-05-01T08:59:03.944Z</time></trkpt><trkpt lat="42.3412434" lon="14.3084109"><ele>45.333333333333336</ele><time>2026-05-01T08:59:04.943Z</time></trkpt><trkpt lat="42.3411652" lon="14.3084435"><ele>45.0</ele><time>2026-05-01T08:59:05.936Z</time></trkpt><trkpt lat="42.3410886" lon="14.3084706"><ele>44.666666666666664</ele><time>2026-05-01T08:59:06.94Z</time></trkpt><trkpt lat="42.3410112" lon="14.3085056"><ele>44.33333333333333</ele><time>2026-05-01T08:59:07.933Z</time></trkpt><trkpt lat="42.3409235" lon="14.3085243"><ele>44.0</ele><time>2026-05-01T08:59:08.947Z</time></trkpt><trkpt lat="42.3408504" lon="14.3085405"><ele>44.0</ele><time>2026-05-01T08:59:09.942Z</time></trkpt><trkpt lat="42.3407696" lon="14.3085715"><ele>44.0</ele><time>2026-05-01T08:59:10.931Z</time></trkpt><trkpt lat="42.3406965" lon="14.308596"><ele>44.0</ele><time>2026-05-01T08:59:11.935Z</time></trkpt><trkpt lat="42.3406178" lon="14.3086084"><ele>44.0</ele><time>2026-05-01T08:59:12.932Z</time></trkpt><trkpt lat="42.3405369" lon="14.3086152"><ele>44.0</ele><time>2026-05-01T08:59:13.945Z</time></trkpt><trkpt lat="42.3404636" lon="14.3086211"><ele>44.0</ele><time>2026-05-01T08:59:14.947Z</time></trkpt><trkpt lat="42.3403867" lon="14.3086221"><ele>44.33333333333333</ele><time>2026-05-01T08:59:15.937Z</time></trkpt><trkpt lat="42.3403128" lon="14.3086256"><ele>44.666666666666664</ele><time>2026-05-01T08:59:16.947Z</time></trkpt><trkpt lat="42.3402363" lon="14.3086348"><ele>45.0</ele><time>2026-05-01T08:59:17.941Z</time></trkpt><trkpt lat="42.3401702" lon="14.3086394"><ele>45.333333333333336</ele><time>2026-05-01T08:59:18.947Z</time></trkpt><trkpt lat="42.3400607" lon="14.3086451"><ele>45.66666666666667</ele><time>2026-05-01T08:59:20.935Z</time></trkpt><trkpt lat="42.3399986" lon="14.3086261"><ele>46.0</ele><time>2026-05-01T08:59:28.94Z</time></trkpt><trkpt lat="42.3399224" lon="14.3086084"><ele>46.0</ele><time>2026-05-01T08:59:32.934Z</time></trkpt><trkpt lat="42.3398337" lon="14.3085779"><ele>46.0</ele><time>2026-05-01T08:59:34.933Z</time></trkpt><trkpt lat="42.3397439" lon="14.308541"><ele>46.0</ele><time>2026-05-01T08:59:36.979Z</time></trkpt><trkpt lat="42.3396411" lon="14.3084897"><ele>46.0</ele><time>2026-05-01T08:59:38.935Z</time></trkpt><trkpt lat="42.3395302" lon="14.3084288"><ele>46.0</ele><time>2026-05-01T08:59:40.944Z</time></trkpt><trkpt lat="42.3394717" lon="14.3083871"><ele>45.8</ele><time>2026-05-01T08:59:41.937Z</time></trkpt><trkpt lat="42.3393661" lon="14.3083059"><ele>45.599999999999994</ele><time>2026-05-01T08:59:43.945Z</time></trkpt><trkpt lat="42.3392722" lon="14.3082008"><ele>45.4</ele><time>2026-05-01T08:59:45.952Z</time></trkpt><trkpt lat="42.3392219" lon="14.3081372"><ele>45.2</ele><time>2026-05-01T08:59:46.934Z</time></trkpt><trkpt lat="42.3391726" lon="14.3080661"><ele>45.0</ele><time>2026-05-01T08:59:47.939Z</time></trkpt><trkpt lat="42.3391238" lon="14.3079965"><ele>45.285714285714285</ele><time>2026-05-01T08:59:48.947Z</time></trkpt><trkpt lat="42.3390776" lon="14.3079261"><ele>45.57142857142858</ele><time>2026-05-01T08:59:49.932Z</time></trkpt><trkpt lat="42.339028" lon="14.307847"><ele>45.85714285714286</ele><time>2026-05-01T08:59:50.943Z</time></trkpt><trkpt lat="42.3389805" lon="14.3077678"><ele>46.14285714285714</ele><time>2026-05-01T08:59:51.937Z</time></trkpt><trkpt lat="42.3389312" lon="14.3076899"><ele>46.42857142857143</ele><time>2026-05-01T08:59:52.937Z</time></trkpt><trkpt lat="42.338879" lon="14.3076141"><ele>46.714285714285715</ele><time>2026-05-01T08:59:53.928Z</time></trkpt><trkpt lat="42.3388298" lon="14.3075372"><ele>47.0</ele><time>2026-05-01T08:59:54.938Z</time></trkpt><trkpt lat="42.3387816" lon="14.3074641"><ele>47.0</ele><time>2026-05-01T08:59:55.944Z</time></trkpt><trkpt lat="42.3386923" lon="14.3073698"><ele>47.0</ele><time>2026-05-01T08:59:57.944Z</time></trkpt><trkpt lat="42.3386051" lon="14.3072831"><ele>47.0</ele><time>2026-05-01T08:59:59.954Z</time></trkpt><trkpt lat="42.3385228" lon="14.3071918"><ele>47.0</ele><time>2026-05-01T09:00:01.934Z</time></trkpt><trkpt lat="42.3384642" lon="14.3071496"><ele>47.0</ele><time>2026-05-01T09:00:02.936Z</time></trkpt><trkpt lat="42.3384025" lon="14.3070878"><ele>47.285714285714285</ele><time>2026-05-01T09:00:03.944Z</time></trkpt><trkpt lat="42.3383344" lon="14.3070336"><ele>47.57142857142857</ele><time>2026-05-01T09:00:04.936Z</time></trkpt><trkpt lat="42.3382775" lon="14.3069712"><ele>47.85714285714286</ele><time>2026-05-01T09:00:05.942Z</time></trkpt><trkpt lat="42.3382158" lon="14.3069183"><ele>48.14285714285714</ele><time>2026-05-01T09:00:06.941Z</time></trkpt><trkpt lat="42.3381574" lon="14.306864"><ele>48.42857142857143</ele><time>2026-05-01T09:00:07.937Z</time></trkpt><trkpt lat="42.3381062" lon="14.306809"><ele>48.714285714285715</ele><time>2026-05-01T09:00:08.942Z</time></trkpt><trkpt lat="42.3380483" lon="14.3067654"><ele>49.0</ele><time>2026-05-01T09:00:09.938Z</time></trkpt><trkpt lat="42.3379874" lon="14.3067328"><ele>48.99999999999999</ele><time>2026-05-01T09:00:10.944Z</time></trkpt><trkpt lat="42.3378671" lon="14.3067194"><ele>49.0</ele><time>2026-05-01T09:00:12.948Z</time></trkpt><trkpt lat="42.3377967" lon="14.3067248"><ele>49.0</ele><time>2026-05-01T09:00:13.94Z</time></trkpt><trkpt lat="42.3377261" lon="14.3067301"><ele>49.0</ele><time>2026-05-01T09:00:14.935Z</time></trkpt><trkpt lat="42.3376558" lon="14.3067334"><ele>48.99999999999999</ele><time>2026-05-01T09:00:15.968Z</time></trkpt><trkpt lat="42.33759" lon="14.3067359"><ele>49.0</ele><time>2026-05-01T09:00:16.938Z</time></trkpt><trkpt lat="42.3374824" lon="14.3067425"><ele>49.0</ele><time>2026-05-01T09:00:18.941Z</time></trkpt><trkpt lat="42.337373" lon="14.3067509"><ele>49.0</ele><time>2026-05-01T09:00:20.945Z</time></trkpt><trkpt lat="42.3372565" lon="14.3067637"><ele>49.0</ele><time>2026-05-01T09:00:22.943Z</time></trkpt><trkpt lat="42.33715" lon="14.3067522"><ele>49.0</ele><time>2026-05-01T09:00:24.934Z</time></trkpt><trkpt lat="42.337066" lon="14.3067382"><ele>49.0</ele><time>2026-05-01T09:00:26.941Z</time></trkpt><trkpt lat="42.3370012" lon="14.3067111"><ele>49.400000000000006</ele><time>2026-05-01T09:00:28.944Z</time></trkpt><trkpt lat="42.3369387" lon="14.306679"><ele>49.8</ele><time>2026-05-01T09:00:30.931Z</time></trkpt><trkpt lat="42.3368463" lon="14.3066627"><ele>50.2</ele><time>2026-05-01T09:00:32.938Z</time></trkpt><trkpt lat="42.336736" lon="14.3066357"><ele>50.599999999999994</ele><time>2026-05-01T09:00:34.932Z</time></trkpt><trkpt lat="42.3366338" lon="14.3066264"><ele>51.0</ele><time>2026-05-01T09:00:36.945Z</time></trkpt><trkpt lat="42.3365259" lon="14.306605"><ele>51.0</ele><time>2026-05-01T09:00:38.939Z</time></trkpt><trkpt lat="42.3364162" lon="14.3065795"><ele>51.0</ele><time>2026-05-01T09:00:40.944Z</time></trkpt><trkpt lat="42.3363411" lon="14.3065675"><ele>51.0</ele><time>2026-05-01T09:00:42.935Z</time></trkpt><trkpt lat="42.3362687" lon="14.3065169"><ele>51.0</ele><time>2026-05-01T09:00:45.937Z</time></trkpt><trkpt lat="42.336211" lon="14.3064696"><ele>51.0</ele><time>2026-05-01T09:00:48.936Z</time></trkpt><trkpt lat="42.3361563" lon="14.3064161"><ele>51.0</ele><time>2026-05-01T09:00:51.935Z</time></trkpt><trkpt lat="42.33609" lon="14.3063388"><ele>52.0</ele><time>2026-05-01T09:00:54.948Z</time></trkpt><trkpt lat="42.3360235" lon="14.3062659"><ele>53.0</ele><time>2026-05-01T09:00:58.941Z</time></trkpt><trkpt lat="42.335961" lon="14.3061816"><ele>53.99999999999999</ele><time>2026-05-01T09:01:00.935Z</time></trkpt><trkpt lat="42.3358936" lon="14.3060639"><ele>55.0</ele><time>2026-05-01T09:01:02.933Z</time></trkpt><trkpt lat="42.3358321" lon="14.3059635"><ele>56.0</ele><time>2026-05-01T09:01:04.941Z</time></trkpt><trkpt lat="42.3357722" lon="14.3058935"><ele>56.00000000000001</ele><time>2026-05-01T09:01:06.94Z</time></trkpt><trkpt lat="42.3357143" lon="14.3058569"><ele>56.0</ele><time>2026-05-01T09:01:08.936Z</time></trkpt><trkpt lat="42.3356531" lon="14.3058306"><ele>56.0</ele><time>2026-05-01T09:01:11.943Z</time></trkpt><trkpt lat="42.3356092" lon="14.3057685"><ele>56.0</ele><time>2026-05-01T09:01:21.941Z</time></trkpt><trkpt lat="42.3356516" lon="14.3056497"><ele>56.00000000000001</ele><time>2026-05-01T09:04:45.948Z</time></trkpt><trkpt lat="42.3356919" lon="14.3055495"><ele>56.0</ele><time>2026-05-01T09:04:47.937Z</time></trkpt><trkpt lat="42.3357399" lon="14.3054378"><ele>57.4</ele><time>2026-05-01T09:04:49.942Z</time></trkpt><trkpt lat="42.3357902" lon="14.3053127"><ele>58.8</ele><time>2026-05-01T09:04:51.938Z</time></trkpt><trkpt lat="42.3358362" lon="14.3051813"><ele>60.199999999999996</ele><time>2026-05-01T09:04:53.946Z</time></trkpt><trkpt lat="42.3358663" lon="14.3050404"><ele>61.599999999999994</ele><time>2026-05-01T09:04:55.941Z</time></trkpt><trkpt lat="42.3358514" lon="14.3049058"><ele>63.0</ele><time>2026-05-01T09:04:57.941Z</time></trkpt><trkpt lat="42.3358138" lon="14.3047723"><ele>64.75</ele><time>2026-05-01T09:04:59.948Z</time></trkpt><trkpt lat="42.3357614" lon="14.3046477"><ele>66.5</ele><time>2026-05-01T09:05:01.932Z</time></trkpt><trkpt lat="42.3356989" lon="14.3045141"><ele>68.25</ele><time>2026-05-01T09:05:03.944Z</time></trkpt><trkpt lat="42.3356194" lon="14.3044016"><ele>70.0</ele><time>2026-05-01T09:05:05.943Z</time></trkpt><trkpt lat="42.3355283" lon="14.3043037"><ele>70.0</ele><time>2026-05-01T09:05:07.941Z</time></trkpt><trkpt lat="42.3354517" lon="14.3042375"><ele>70.0</ele><time>2026-05-01T09:05:09.945Z</time></trkpt><trkpt lat="42.3354112" lon="14.3041244"><ele>70.0</ele><time>2026-05-01T09:05:11.941Z</time></trkpt><trkpt lat="42.3353745" lon="14.3039799"><ele>70.0</ele><time>2026-05-01T09:05:13.931Z</time></trkpt><trkpt lat="42.3352996" lon="14.3038642"><ele>70.0</ele><time>2026-05-01T09:05:15.929Z</time></trkpt><trkpt lat="42.3352439" lon="14.3037815"><ele>72.33333333333333</ele><time>2026-05-01T09:05:17.946Z</time></trkpt><trkpt lat="42.3352637" lon="14.3036774"><ele>74.66666666666666</ele><time>2026-05-01T09:05:19.945Z</time></trkpt><trkpt lat="42.3352177" lon="14.3036008"><ele>77.0</ele><time>2026-05-01T09:05:25.945Z</time></trkpt><trkpt lat="42.3351064" lon="14.3036044"><ele>79.33333333333333</ele><time>2026-05-01T09:05:27.947Z</time></trkpt><trkpt lat="42.3350383" lon="14.3035804"><ele>81.66666666666667</ele><time>2026-05-01T09:05:28.954Z</time></trkpt><trkpt lat="42.3349617" lon="14.3035401"><ele>84.0</ele><time>2026-05-01T09:05:29.95Z</time></trkpt><trkpt lat="42.3348817" lon="14.303486"><ele>84.0</ele><time>2026-05-01T09:05:30.949Z</time></trkpt><trkpt lat="42.334799" lon="14.3034325"><ele>84.0</ele><time>2026-05-01T09:05:31.944Z</time></trkpt><trkpt lat="42.334719" lon="14.3033759"><ele>84.0</ele><time>2026-05-01T09:05:32.935Z</time></trkpt><trkpt lat="42.3346442" lon="14.3033192"><ele>84.0</ele><time>2026-05-01T09:05:33.946Z</time></trkpt><trkpt lat="42.3345853" lon="14.3032605"><ele>84.0</ele><time>2026-05-01T09:05:34.942Z</time></trkpt><trkpt lat="42.3345255" lon="14.3031955"><ele>84.0</ele><time>2026-05-01T09:05:35.954Z</time></trkpt><trkpt lat="42.3344731" lon="14.3031279"><ele>82.8</ele><time>2026-05-01T09:05:36.942Z</time></trkpt><trkpt lat="42.3344267" lon="14.3030542"><ele>81.60000000000001</ele><time>2026-05-01T09:05:37.945Z</time></trkpt><trkpt lat="42.3343578" lon="14.3029286"><ele>80.4</ele><time>2026-05-01T09:05:39.945Z</time></trkpt><trkpt lat="42.3343242" lon="14.3028459"><ele>79.2</ele><time>2026-05-01T09:05:41.947Z</time></trkpt><trkpt lat="42.3342713" lon="14.3027255"><ele>78.0</ele><time>2026-05-01T09:06:03.936Z</time></trkpt><trkpt lat="42.334202" lon="14.3025941"><ele>78.0</ele><time>2026-05-01T09:06:05.946Z</time></trkpt><trkpt lat="42.3341478" lon="14.3025167"><ele>78.0</ele><time>2026-05-01T09:06:06.942Z</time></trkpt><trkpt lat="42.3340752" lon="14.3024332"><ele>78.0</ele><time>2026-05-01T09:06:07.947Z</time></trkpt><trkpt lat="42.3339997" lon="14.3023372"><ele>78.0</ele><time>2026-05-01T09:06:08.941Z</time></trkpt><trkpt lat="42.3339171" lon="14.3022351"><ele>78.0</ele><time>2026-05-01T09:06:09.942Z</time></trkpt><trkpt lat="42.3338518" lon="14.3021371"><ele>76.6</ele><time>2026-05-01T09:06:10.942Z</time></trkpt><trkpt lat="42.3337917" lon="14.3020411"><ele>75.19999999999999</ele><time>2026-05-01T09:06:11.938Z</time></trkpt><trkpt lat="42.333732" lon="14.301932"><ele>73.8</ele><time>2026-05-01T09:06:12.939Z</time></trkpt><trkpt lat="42.3336651" lon="14.3018243"><ele>72.39999999999999</ele><time>2026-05-01T09:06:13.946Z</time></trkpt><trkpt lat="42.3335981" lon="14.3017271"><ele>71.0</ele><time>2026-05-01T09:06:14.939Z</time></trkpt><trkpt lat="42.3335321" lon="14.3016504"><ele>71.0</ele><time>2026-05-01T09:06:15.941Z</time></trkpt><trkpt lat="42.3334566" lon="14.3016087"><ele>71.0</ele><time>2026-05-01T09:06:16.944Z</time></trkpt><trkpt lat="42.3333834" lon="14.3015898"><ele>71.0</ele><time>2026-05-01T09:06:17.945Z</time></trkpt><trkpt lat="42.3332531" lon="14.301665"><ele>71.0</ele><time>2026-05-01T09:06:19.935Z</time></trkpt><trkpt lat="42.3331801" lon="14.301726"><ele>71.0</ele><time>2026-05-01T09:06:20.943Z</time></trkpt><trkpt lat="42.3331022" lon="14.3017789"><ele>70.2</ele><time>2026-05-01T09:06:21.939Z</time></trkpt><trkpt lat="42.3330315" lon="14.3018227"><ele>69.39999999999999</ele><time>2026-05-01T09:06:22.948Z</time></trkpt><trkpt lat="42.3329555" lon="14.3018623"><ele>68.6</ele><time>2026-05-01T09:06:23.939Z</time></trkpt><trkpt lat="42.3328599" lon="14.3018856"><ele>67.8</ele><time>2026-05-01T09:06:24.934Z</time></trkpt><trkpt lat="42.332751" lon="14.301882"><ele>67.0</ele><time>2026-05-01T09:06:25.937Z</time></trkpt><trkpt lat="42.33264" lon="14.3018537"><ele>67.0</ele><time>2026-05-01T09:06:26.936Z</time></trkpt><trkpt lat="42.3325179" lon="14.3018017"><ele>67.0</ele><time>2026-05-01T09:06:27.947Z</time></trkpt><trkpt lat="42.332383" lon="14.3017488"><ele>67.0</ele><time>2026-05-01T09:06:28.941Z</time></trkpt><trkpt lat="42.3322418" lon="14.301678"><ele>67.0</ele><time>2026-05-01T09:06:29.94Z</time></trkpt><trkpt lat="42.3320986" lon="14.3016038"><ele>64.75</ele><time>2026-05-01T09:06:30.935Z</time></trkpt><trkpt lat="42.3319693" lon="14.301531"><ele>62.5</ele><time>2026-05-01T09:06:31.939Z</time></trkpt><trkpt lat="42.3318564" lon="14.3014578"><ele>60.25</ele><time>2026-05-01T09:06:32.946Z</time></trkpt><trkpt lat="42.331745" lon="14.3013946"><ele>58.0</ele><time>2026-05-01T09:06:33.937Z</time></trkpt><trkpt lat="42.3316371" lon="14.3013359"><ele>59.75</ele><time>2026-05-01T09:06:34.939Z</time></trkpt><trkpt lat="42.331536" lon="14.3012767"><ele>61.5</ele><time>2026-05-01T09:06:35.941Z</time></trkpt><trkpt lat="42.3314342" lon="14.3012143"><ele>63.25</ele><time>2026-05-01T09:06:36.946Z</time></trkpt><trkpt lat="42.3313295" lon="14.3011531"><ele>65.0</ele><time>2026-05-01T09:06:37.935Z</time></trkpt><trkpt lat="42.3312219" lon="14.3010864"><ele>65.0</ele><time>2026-05-01T09:06:38.932Z</time></trkpt><trkpt lat="42.331114" lon="14.3010208"><ele>65.0</ele><time>2026-05-01T09:06:39.952Z</time></trkpt><trkpt lat="42.3310052" lon="14.3009413"><ele>65.0</ele><time>2026-05-01T09:06:40.941Z</time></trkpt><trkpt lat="42.3308968" lon="14.3008564"><ele>65.0</ele><time>2026-05-01T09:06:41.94Z</time></trkpt><trkpt lat="42.3307754" lon="14.3007721"><ele>65.0</ele><time>2026-05-01T09:06:42.946Z</time></trkpt><trkpt lat="42.3306597" lon="14.3006994"><ele>65.0</ele><time>2026-05-01T09:06:43.935Z</time></trkpt><trkpt lat="42.3305371" lon="14.3006445"><ele>65.0</ele><time>2026-05-01T09:06:44.947Z</time></trkpt><trkpt lat="42.3304071" lon="14.300601"><ele>65.0</ele><time>2026-05-01T09:06:45.94Z</time></trkpt><trkpt lat="42.3302687" lon="14.3005609"><ele>64.75</ele><time>2026-05-01T09:06:46.944Z</time></trkpt><trkpt lat="42.330141" lon="14.3005207"><ele>64.5</ele><time>2026-05-01T09:06:47.932Z</time></trkpt><trkpt lat="42.3300258" lon="14.3004895"><ele>64.25</ele><time>2026-05-01T09:06:48.945Z</time></trkpt><trkpt lat="42.3299206" lon="14.3004654"><ele>64.0</ele><time>2026-05-01T09:06:49.933Z</time></trkpt><trkpt lat="42.3298175" lon="14.3004403"><ele>64.0</ele><time>2026-05-01T09:06:50.952Z</time></trkpt><trkpt lat="42.3297067" lon="14.3004059"><ele>64.0</ele><time>2026-05-01T09:06:51.935Z</time></trkpt><trkpt lat="42.3295912" lon="14.3003706"><ele>64.0</ele><time>2026-05-01T09:06:52.943Z</time></trkpt><trkpt lat="42.3294679" lon="14.3003444"><ele>64.0</ele><time>2026-05-01T09:06:53.936Z</time></trkpt><trkpt lat="42.3293529" lon="14.3003273"><ele>64.0</ele><time>2026-05-01T09:06:54.946Z</time></trkpt><trkpt lat="42.3292457" lon="14.300291"><ele>64.0</ele><time>2026-05-01T09:06:55.969Z</time></trkpt><trkpt lat="42.3291353" lon="14.300257"><ele>64.0</ele><time>2026-05-01T09:06:56.943Z</time></trkpt><trkpt lat="42.329018" lon="14.3002228"><ele>64.0</ele><time>2026-05-01T09:06:57.951Z</time></trkpt><trkpt lat="42.3289019" lon="14.3001903"><ele>63.5</ele><time>2026-05-01T09:06:58.932Z</time></trkpt><trkpt lat="42.3287864" lon="14.3001594"><ele>63.0</ele><time>2026-05-01T09:06:59.929Z</time></trkpt><trkpt lat="42.3286686" lon="14.3001264"><ele>62.5</ele><time>2026-05-01T09:07:00.934Z</time></trkpt><trkpt lat="42.3285542" lon="14.3000918"><ele>62.0</ele><time>2026-05-01T09:07:01.931Z</time></trkpt><trkpt lat="42.3284435" lon="14.3000448"><ele>62.0</ele><time>2026-05-01T09:07:02.948Z</time></trkpt><trkpt lat="42.3283282" lon="14.2999923"><ele>62.0</ele><time>2026-05-01T09:07:03.945Z</time></trkpt><trkpt lat="42.3282078" lon="14.299928"><ele>62.0</ele><time>2026-05-01T09:07:04.942Z</time></trkpt><trkpt lat="42.328083" lon="14.2998685"><ele>62.0</ele><time>2026-05-01T09:07:05.931Z</time></trkpt><trkpt lat="42.3279484" lon="14.2998121"><ele>63.25</ele><time>2026-05-01T09:07:06.934Z</time></trkpt><trkpt lat="42.3278124" lon="14.2997416"><ele>64.5</ele><time>2026-05-01T09:07:07.942Z</time></trkpt><trkpt lat="42.3276782" lon="14.2996655"><ele>65.75</ele><time>2026-05-01T09:07:08.944Z</time></trkpt><trkpt lat="42.3275435" lon="14.2995861"><ele>67.0</ele><time>2026-05-01T09:07:09.934Z</time></trkpt><trkpt lat="42.3274146" lon="14.299501"><ele>67.0</ele><time>2026-05-01T09:07:10.944Z</time></trkpt><trkpt lat="42.3272898" lon="14.2994204"><ele>67.0</ele><time>2026-05-01T09:07:11.945Z</time></trkpt><trkpt lat="42.3271702" lon="14.2993501"><ele>67.0</ele><time>2026-05-01T09:07:12.931Z</time></trkpt><trkpt lat="42.3270503" lon="14.2992844"><ele>67.0</ele><time>2026-05-01T09:07:13.937Z</time></trkpt><trkpt lat="42.3269299" lon="14.2992117"><ele>66.5</ele><time>2026-05-01T09:07:14.946Z</time></trkpt><trkpt lat="42.3268064" lon="14.299134"><ele>66.0</ele><time>2026-05-01T09:07:15.94Z</time></trkpt><trkpt lat="42.3266846" lon="14.2990503"><ele>65.5</ele><time>2026-05-01T09:07:16.945Z</time></trkpt><trkpt lat="42.3265618" lon="14.2989703"><ele>65.0</ele><time>2026-05-01T09:07:17.943Z</time></trkpt><trkpt lat="42.3264512" lon="14.2988962"><ele>66.2</ele><time>2026-05-01T09:07:18.936Z</time></trkpt><trkpt lat="42.326351" lon="14.2988378"><ele>67.4</ele><time>2026-05-01T09:07:19.945Z</time></trkpt><trkpt lat="42.3262654" lon="14.2987743"><ele>68.6</ele><time>2026-05-01T09:07:20.941Z</time></trkpt><trkpt lat="42.3261928" lon="14.2987045"><ele>69.8</ele><time>2026-05-01T09:07:21.948Z</time></trkpt><trkpt lat="42.3261337" lon="14.298632"><ele>71.0</ele><time>2026-05-01T09:07:22.946Z</time></trkpt><trkpt lat="42.3260906" lon="14.2985433"><ele>71.0</ele><time>2026-05-01T09:07:23.945Z</time></trkpt><trkpt lat="42.3260547" lon="14.298446"><ele>71.0</ele><time>2026-05-01T09:07:24.995Z</time></trkpt><trkpt lat="42.3260282" lon="14.2983314"><ele>71.0</ele><time>2026-05-01T09:07:25.937Z</time></trkpt><trkpt lat="42.3259959" lon="14.2982134"><ele>71.0</ele><time>2026-05-01T09:07:26.939Z</time></trkpt><trkpt lat="42.3259485" lon="14.2981285"><ele>71.0</ele><time>2026-05-01T09:07:27.934Z</time></trkpt><trkpt lat="42.3258709" lon="14.2980713"><ele>71.0</ele><time>2026-05-01T09:07:28.945Z</time></trkpt><trkpt lat="42.3257869" lon="14.2980421"><ele>72.0</ele><time>2026-05-01T09:07:29.941Z</time></trkpt><trkpt lat="42.3256994" lon="14.2980418"><ele>73.0</ele><time>2026-05-01T09:07:30.933Z</time></trkpt><trkpt lat="42.3256047" lon="14.2980641"><ele>74.0</ele><time>2026-05-01T09:07:31.937Z</time></trkpt><trkpt lat="42.3255043" lon="14.2981142"><ele>75.0</ele><time>2026-05-01T09:07:32.935Z</time></trkpt><trkpt lat="42.3253933" lon="14.2981686"><ele>76.0</ele><time>2026-05-01T09:07:33.936Z</time></trkpt><trkpt lat="42.32528" lon="14.2982283"><ele>76.0</ele><time>2026-05-01T09:07:34.942Z</time></trkpt><trkpt lat="42.325165" lon="14.2982944"><ele>76.0</ele><time>2026-05-01T09:07:35.946Z</time></trkpt><trkpt lat="42.325055" lon="14.2983512"><ele>76.0</ele><time>2026-05-01T09:07:36.934Z</time></trkpt><trkpt lat="42.3249507" lon="14.2984029"><ele>76.0</ele><time>2026-05-01T09:07:37.944Z</time></trkpt><trkpt lat="42.3248565" lon="14.2984337"><ele>76.0</ele><time>2026-05-01T09:07:38.938Z</time></trkpt><trkpt lat="42.3247677" lon="14.2984444"><ele>76.0</ele><time>2026-05-01T09:07:39.942Z</time></trkpt><trkpt lat="42.3246709" lon="14.2984145"><ele>76.0</ele><time>2026-05-01T09:07:40.973Z</time></trkpt><trkpt lat="42.3245705" lon="14.2983544"><ele>76.0</ele><time>2026-05-01T09:07:41.936Z</time></trkpt><trkpt lat="42.324462" lon="14.2982773"><ele>76.0</ele><time>2026-05-01T09:07:42.948Z</time></trkpt><trkpt lat="42.3243525" lon="14.2982057"><ele>77.0</ele><time>2026-05-01T09:07:43.933Z</time></trkpt><trkpt lat="42.3242368" lon="14.2981241"><ele>78.0</ele><time>2026-05-01T09:07:44.948Z</time></trkpt><trkpt lat="42.3241234" lon="14.2980253"><ele>79.0</ele><time>2026-05-01T09:07:45.932Z</time></trkpt><trkpt lat="42.324016" lon="14.2979122"><ele>80.0</ele><time>2026-05-01T09:07:46.942Z</time></trkpt><trkpt lat="42.3239083" lon="14.2978009"><ele>82.0</ele><time>2026-05-01T09:07:47.941Z</time></trkpt><trkpt lat="42.3237978" lon="14.2977021"><ele>84.0</ele><time>2026-05-01T09:07:48.941Z</time></trkpt><trkpt lat="42.3236836" lon="14.2976145"><ele>86.0</ele><time>2026-05-01T09:07:49.946Z</time></trkpt><trkpt lat="42.3235608" lon="14.2975398"><ele>88.0</ele><time>2026-05-01T09:07:50.938Z</time></trkpt><trkpt lat="42.3234429" lon="14.2974723"><ele>88.0</ele><time>2026-05-01T09:07:51.94Z</time></trkpt><trkpt lat="42.3233258" lon="14.2974054"><ele>88.0</ele><time>2026-05-01T09:07:52.937Z</time></trkpt><trkpt lat="42.3232079" lon="14.2973303"><ele>88.0</ele><time>2026-05-01T09:07:53.941Z</time></trkpt><trkpt lat="42.323087" lon="14.2972661"><ele>88.0</ele><time>2026-05-01T09:07:54.947Z</time></trkpt><trkpt lat="42.3229646" lon="14.2972062"><ele>91.75</ele><time>2026-05-01T09:07:55.933Z</time></trkpt><trkpt lat="42.3228327" lon="14.297146"><ele>95.5</ele><time>2026-05-01T09:07:56.944Z</time></trkpt><trkpt lat="42.3226987" lon="14.2970996"><ele>99.25</ele><time>2026-05-01T09:07:57.947Z</time></trkpt><trkpt lat="42.3225587" lon="14.2970489"><ele>103.0</ele><time>2026-05-01T09:07:58.946Z</time></trkpt><trkpt lat="42.3224183" lon="14.2969968"><ele>103.0</ele><time>2026-05-01T09:07:59.946Z</time></trkpt><trkpt lat="42.322277" lon="14.2969451"><ele>103.0</ele><time>2026-05-01T09:08:00.936Z</time></trkpt><trkpt lat="42.3221353" lon="14.2968928"><ele>103.0</ele><time>2026-05-01T09:08:01.934Z</time></trkpt><trkpt lat="42.3219956" lon="14.2968402"><ele>103.0</ele><time>2026-05-01T09:08:02.947Z</time></trkpt><trkpt lat="42.3218674" lon="14.2967905"><ele>102.25</ele><time>2026-05-01T09:08:03.937Z</time></trkpt><trkpt lat="42.3217405" lon="14.2967384"><ele>101.5</ele><time>2026-05-01T09:08:04.942Z</time></trkpt><trkpt lat="42.3216214" lon="14.2966802"><ele>100.75</ele><time>2026-05-01T09:08:05.94Z</time></trkpt><trkpt lat="42.321516" lon="14.2966116"><ele>100.0</ele><time>2026-05-01T09:08:06.945Z</time></trkpt><trkpt lat="42.3214165" lon="14.296519"><ele>100.5</ele><time>2026-05-01T09:08:07.971Z</time></trkpt><trkpt lat="42.3213244" lon="14.2964093"><ele>101.0</ele><time>2026-05-01T09:08:08.938Z</time></trkpt><trkpt lat="42.3212418" lon="14.2962798"><ele>101.5</ele><time>2026-05-01T09:08:09.943Z</time></trkpt><trkpt lat="42.3211561" lon="14.2961594"><ele>102.0</ele><time>2026-05-01T09:08:10.939Z</time></trkpt><trkpt lat="42.3210619" lon="14.2960471"><ele>102.0</ele><time>2026-05-01T09:08:11.938Z</time></trkpt><trkpt lat="42.3209482" lon="14.2959597"><ele>102.0</ele><time>2026-05-01T09:08:12.938Z</time></trkpt><trkpt lat="42.3208193" lon="14.2958763"><ele>102.0</ele><time>2026-05-01T09:08:13.931Z</time></trkpt><trkpt lat="42.3206871" lon="14.2957969"><ele>102.0</ele><time>2026-05-01T09:08:14.93Z</time></trkpt><trkpt lat="42.3205419" lon="14.295722"><ele>100.75</ele><time>2026-05-01T09:08:15.945Z</time></trkpt><trkpt lat="42.3203954" lon="14.2956523"><ele>99.5</ele><time>2026-05-01T09:08:16.937Z</time></trkpt><trkpt lat="42.3202641" lon="14.2955884"><ele>98.25</ele><time>2026-05-01T09:08:17.944Z</time></trkpt><trkpt lat="42.3201467" lon="14.2955273"><ele>97.0</ele><time>2026-05-01T09:08:18.933Z</time></trkpt><trkpt lat="42.320043" lon="14.2954716"><ele>99.16666666666667</ele><time>2026-05-01T09:08:19.937Z</time></trkpt><trkpt lat="42.3199541" lon="14.2954223"><ele>101.33333333333334</ele><time>2026-05-01T09:08:20.937Z</time></trkpt><trkpt lat="42.3198889" lon="14.2953845"><ele>103.5</ele><time>2026-05-01T09:08:21.936Z</time></trkpt><trkpt lat="42.319837" lon="14.2953318"><ele>105.66666666666666</ele><time>2026-05-01T09:08:22.935Z</time></trkpt><trkpt lat="42.3198115" lon="14.2951624"><ele>107.83333333333333</ele><time>2026-05-01T09:08:24.929Z</time></trkpt><trkpt lat="42.3198185" lon="14.2950673"><ele>110.0</ele><time>2026-05-01T09:08:25.941Z</time></trkpt><trkpt lat="42.3198241" lon="14.294967"><ele>109.99999999999999</ele><time>2026-05-01T09:08:26.935Z</time></trkpt><trkpt lat="42.3198039" lon="14.2948751"><ele>110.0</ele><time>2026-05-01T09:08:27.948Z</time></trkpt><trkpt lat="42.3197703" lon="14.2948017"><ele>110.0</ele><time>2026-05-01T09:08:28.935Z</time></trkpt><trkpt lat="42.3197088" lon="14.2947565"><ele>110.0</ele><time>2026-05-01T09:08:30.94Z</time></trkpt><trkpt lat="42.3196339" lon="14.2948476"><ele>109.99999999999999</ele><time>2026-05-01T09:08:32.934Z</time></trkpt><trkpt lat="42.3195382" lon="14.2949178"><ele>110.0</ele><time>2026-05-01T09:08:34.938Z</time></trkpt><trkpt lat="42.3194123" lon="14.2948775"><ele>109.99999999999999</ele><time>2026-05-01T09:08:36.936Z</time></trkpt><trkpt lat="42.3193482" lon="14.2948104"><ele>110.0</ele><time>2026-05-01T09:08:37.937Z</time></trkpt><trkpt lat="42.3192921" lon="14.2947092"><ele>110.0</ele><time>2026-05-01T09:08:38.929Z</time></trkpt><trkpt lat="42.3192312" lon="14.2946119"><ele>110.0</ele><time>2026-05-01T09:08:39.929Z</time></trkpt><trkpt lat="42.3191687" lon="14.2945263"><ele>109.99999999999999</ele><time>2026-05-01T09:08:40.941Z</time></trkpt><trkpt lat="42.319098" lon="14.2944534"><ele>110.0</ele><time>2026-05-01T09:08:41.935Z</time></trkpt><trkpt lat="42.319022" lon="14.2943698"><ele>110.0</ele><time>2026-05-01T09:08:42.939Z</time></trkpt><trkpt lat="42.3189514" lon="14.2942796"><ele>110.0</ele><time>2026-05-01T09:08:43.941Z</time></trkpt><trkpt lat="42.318885" lon="14.2941854"><ele>110.0</ele><time>2026-05-01T09:08:44.948Z</time></trkpt><trkpt lat="42.3188227" lon="14.2940664"><ele>110.0</ele><time>2026-05-01T09:08:45.942Z</time></trkpt><trkpt lat="42.3187676" lon="14.2939371"><ele>110.0</ele><time>2026-05-01T09:08:46.945Z</time></trkpt><trkpt lat="42.3187117" lon="14.2938087"><ele>109.6</ele><time>2026-05-01T09:08:47.93Z</time></trkpt><trkpt lat="42.3186626" lon="14.2936682"><ele>109.2</ele><time>2026-05-01T09:08:48.938Z</time></trkpt><trkpt lat="42.3186224" lon="14.2935508"><ele>108.80000000000001</ele><time>2026-05-01T09:08:49.932Z</time></trkpt><trkpt lat="42.3185791" lon="14.2934467"><ele>108.4</ele><time>2026-05-01T09:08:50.939Z</time></trkpt><trkpt lat="42.3185242" lon="14.2933653"><ele>108.0</ele><time>2026-05-01T09:08:51.931Z</time></trkpt><trkpt lat="42.3184405" lon="14.293302"><ele>108.0</ele><time>2026-05-01T09:08:52.944Z</time></trkpt><trkpt lat="42.3183261" lon="14.293243"><ele>108.0</ele><time>2026-05-01T09:08:53.936Z</time></trkpt><trkpt lat="42.3182171" lon="14.293178"><ele>108.0</ele><time>2026-05-01T09:08:54.94Z</time></trkpt><trkpt lat="42.3181151" lon="14.2931079"><ele>108.0</ele><time>2026-05-01T09:08:55.931Z</time></trkpt><trkpt lat="42.3180114" lon="14.2930385"><ele>108.4</ele><time>2026-05-01T09:08:56.938Z</time></trkpt><trkpt lat="42.317906" lon="14.2929966"><ele>108.80000000000001</ele><time>2026-05-01T09:08:57.938Z</time></trkpt><trkpt lat="42.317815" lon="14.2929444"><ele>109.2</ele><time>2026-05-01T09:08:58.932Z</time></trkpt><trkpt lat="42.3177413" lon="14.2928971"><ele>109.6</ele><time>2026-05-01T09:08:59.937Z</time></trkpt><trkpt lat="42.3176656" lon="14.2928551"><ele>110.0</ele><time>2026-05-01T09:09:00.934Z</time></trkpt><trkpt lat="42.3175912" lon="14.2927997"><ele>109.99999999999999</ele><time>2026-05-01T09:09:01.935Z</time></trkpt><trkpt lat="42.3175197" lon="14.2927535"><ele>110.0</ele><time>2026-05-01T09:09:02.932Z</time></trkpt><trkpt lat="42.3174532" lon="14.2927108"><ele>110.0</ele><time>2026-05-01T09:09:03.934Z</time></trkpt><trkpt lat="42.3173824" lon="14.2926617"><ele>110.0</ele><time>2026-05-01T09:09:04.938Z</time></trkpt><trkpt lat="42.3173045" lon="14.2926318"><ele>109.99999999999999</ele><time>2026-05-01T09:09:05.939Z</time></trkpt><trkpt lat="42.3172039" lon="14.2926353"><ele>110.0</ele><time>2026-05-01T09:09:06.938Z</time></trkpt><trkpt lat="42.3170909" lon="14.2926683"><ele>108.0</ele><time>2026-05-01T09:09:07.94Z</time></trkpt><trkpt lat="42.3169724" lon="14.2926964"><ele>106.0</ele><time>2026-05-01T09:09:08.946Z</time></trkpt><trkpt lat="42.3168649" lon="14.2926983"><ele>104.0</ele><time>2026-05-01T09:09:09.933Z</time></trkpt><trkpt lat="42.3167536" lon="14.2926929"><ele>102.0</ele><time>2026-05-01T09:09:10.931Z</time></trkpt><trkpt lat="42.3166465" lon="14.292684"><ele>100.0</ele><time>2026-05-01T09:09:11.932Z</time></trkpt><trkpt lat="42.3165409" lon="14.2926603"><ele>100.0</ele><time>2026-05-01T09:09:12.933Z</time></trkpt><trkpt lat="42.3164386" lon="14.2926311"><ele>100.0</ele><time>2026-05-01T09:09:13.938Z</time></trkpt><trkpt lat="42.3163446" lon="14.2925729"><ele>100.0</ele><time>2026-05-01T09:09:14.936Z</time></trkpt><trkpt lat="42.316246" lon="14.2924934"><ele>100.0</ele><time>2026-05-01T09:09:15.931Z</time></trkpt><trkpt lat="42.3161409" lon="14.2924056"><ele>100.0</ele><time>2026-05-01T09:09:16.942Z</time></trkpt><trkpt lat="42.3160349" lon="14.2923153"><ele>100.5</ele><time>2026-05-01T09:09:17.942Z</time></trkpt><trkpt lat="42.315925" lon="14.2922407"><ele>101.0</ele><time>2026-05-01T09:09:18.991Z</time></trkpt><trkpt lat="42.3158016" lon="14.292181"><ele>101.5</ele><time>2026-05-01T09:09:19.941Z</time></trkpt><trkpt lat="42.3156702" lon="14.2921289"><ele>102.0</ele><time>2026-05-01T09:09:20.934Z</time></trkpt><trkpt lat="42.3155262" lon="14.2920818"><ele>98.5</ele><time>2026-05-01T09:09:21.936Z</time></trkpt><trkpt lat="42.3153876" lon="14.2920367"><ele>95.0</ele><time>2026-05-01T09:09:22.934Z</time></trkpt><trkpt lat="42.3152468" lon="14.2919963"><ele>91.5</ele><time>2026-05-01T09:09:23.94Z</time></trkpt><trkpt lat="42.3150983" lon="14.2919592"><ele>88.0</ele><time>2026-05-01T09:09:24.946Z</time></trkpt><trkpt lat="42.314957" lon="14.2919207"><ele>88.0</ele><time>2026-05-01T09:09:25.934Z</time></trkpt><trkpt lat="42.3148086" lon="14.2918811"><ele>88.0</ele><time>2026-05-01T09:09:26.942Z</time></trkpt><trkpt lat="42.314664" lon="14.2918523"><ele>88.0</ele><time>2026-05-01T09:09:27.931Z</time></trkpt><trkpt lat="42.3145141" lon="14.2918197"><ele>88.0</ele><time>2026-05-01T09:09:28.93Z</time></trkpt><trkpt lat="42.3143622" lon="14.2917932"><ele>87.75</ele><time>2026-05-01T09:09:29.927Z</time></trkpt><trkpt lat="42.3142118" lon="14.2917778"><ele>87.5</ele><time>2026-05-01T09:09:30.938Z</time></trkpt><trkpt lat="42.3140653" lon="14.2917673"><ele>87.25</ele><time>2026-05-01T09:09:31.938Z</time></trkpt><trkpt lat="42.3139276" lon="14.2917605"><ele>87.0</ele><time>2026-05-01T09:09:32.936Z</time></trkpt><trkpt lat="42.3138122" lon="14.2917513"><ele>87.0</ele><time>2026-05-01T09:09:33.936Z</time></trkpt><trkpt lat="42.3137119" lon="14.291721"><ele>87.0</ele><time>2026-05-01T09:09:34.933Z</time></trkpt><trkpt lat="42.3136201" lon="14.2916819"><ele>87.0</ele><time>2026-05-01T09:09:35.942Z</time></trkpt><trkpt lat="42.3135404" lon="14.2916156"><ele>87.0</ele><time>2026-05-01T09:09:36.97Z</time></trkpt><trkpt lat="42.3134587" lon="14.2915248"><ele>87.0</ele><time>2026-05-01T09:09:37.934Z</time></trkpt><trkpt lat="42.3133803" lon="14.291426"><ele>89.25</ele><time>2026-05-01T09:09:38.928Z</time></trkpt><trkpt lat="42.313307" lon="14.291295"><ele>91.5</ele><time>2026-05-01T09:09:39.938Z</time></trkpt><trkpt lat="42.3132337" lon="14.2911489"><ele>93.75</ele><time>2026-05-01T09:09:40.938Z</time></trkpt><trkpt lat="42.3131629" lon="14.2909787"><ele>96.0</ele><time>2026-05-01T09:09:41.932Z</time></trkpt><trkpt lat="42.313089" lon="14.2908086"><ele>95.5</ele><time>2026-05-01T09:09:42.936Z</time></trkpt><trkpt lat="42.3130215" lon="14.2906321"><ele>95.0</ele><time>2026-05-01T09:09:43.936Z</time></trkpt><trkpt lat="42.3129482" lon="14.2904629"><ele>94.5</ele><time>2026-05-01T09:09:44.935Z</time></trkpt><trkpt lat="42.3128802" lon="14.2902983"><ele>94.0</ele><time>2026-05-01T09:09:45.935Z</time></trkpt><trkpt lat="42.3128115" lon="14.2901294"><ele>95.4</ele><time>2026-05-01T09:09:46.932Z</time></trkpt><trkpt lat="42.3127477" lon="14.2899724"><ele>96.80000000000001</ele><time>2026-05-01T09:09:47.934Z</time></trkpt><trkpt lat="42.3127015" lon="14.2898513"><ele>98.19999999999999</ele><time>2026-05-01T09:09:48.937Z</time></trkpt><trkpt lat="42.3126623" lon="14.289756"><ele>99.6</ele><time>2026-05-01T09:09:49.941Z</time></trkpt><trkpt lat="42.3126226" lon="14.2896603"><ele>101.0</ele><time>2026-05-01T09:09:50.942Z</time></trkpt><trkpt lat="42.3125817" lon="14.2895036"><ele>100.99999999999999</ele><time>2026-05-01T09:09:52.94Z</time></trkpt><trkpt lat="42.312562" lon="14.2894215"><ele>101.0</ele><time>2026-05-01T09:09:53.938Z</time></trkpt><trkpt lat="42.3125088" lon="14.2893419"><ele>101.0</ele><time>2026-05-01T09:09:55.939Z</time></trkpt><trkpt lat="42.3125196" lon="14.289433"><ele>101.0</ele><time>2026-05-01T09:10:04.941Z</time></trkpt><trkpt lat="42.3125508" lon="14.2895694"><ele>100.99999999999999</ele><time>2026-05-01T09:10:06.946Z</time></trkpt><trkpt lat="42.3125746" lon="14.2896721"><ele>101.0</ele><time>2026-05-01T09:10:07.935Z</time></trkpt><trkpt lat="42.3126105" lon="14.2897748"><ele>101.0</ele><time>2026-05-01T09:10:08.932Z</time></trkpt><trkpt lat="42.3126575" lon="14.289891"><ele>101.0</ele><time>2026-05-01T09:10:09.942Z</time></trkpt><trkpt lat="42.3127104" lon="14.2900221"><ele>101.0</ele><time>2026-05-01T09:10:10.942Z</time></trkpt><trkpt lat="42.3127588" lon="14.2901507"><ele>101.0</ele><time>2026-05-01T09:10:11.936Z</time></trkpt><trkpt lat="42.3128062" lon="14.2902724"><ele>101.0</ele><time>2026-05-01T09:10:12.936Z</time></trkpt><trkpt lat="42.312856" lon="14.2903888"><ele>100.99999999999999</ele><time>2026-05-01T09:10:13.937Z</time></trkpt><trkpt lat="42.3129028" lon="14.2904935"><ele>101.0</ele><time>2026-05-01T09:10:14.936Z</time></trkpt><trkpt lat="42.3129444" lon="14.2905968"><ele>101.0</ele><time>2026-05-01T09:10:15.944Z</time></trkpt><trkpt lat="42.3129908" lon="14.2906883"><ele>101.0</ele><time>2026-05-01T09:10:16.939Z</time></trkpt><trkpt lat="42.3130291" lon="14.29077"><ele>100.99999999999999</ele><time>2026-05-01T09:10:17.936Z</time></trkpt><trkpt lat="42.3130803" lon="14.2908971"><ele>101.0</ele><time>2026-05-01T09:10:19.947Z</time></trkpt><trkpt lat="42.3131229" lon="14.2909933"><ele>100.0</ele><time>2026-05-01T09:10:21.945Z</time></trkpt><trkpt lat="42.3131903" lon="14.2911614"><ele>99.0</ele><time>2026-05-01T09:10:23.935Z</time></trkpt><trkpt lat="42.3132409" lon="14.291269"><ele>98.0</ele><time>2026-05-01T09:10:24.939Z</time></trkpt><trkpt lat="42.3132956" lon="14.2913791"><ele>97.0</ele><time>2026-05-01T09:10:25.942Z</time></trkpt><trkpt lat="42.3133567" lon="14.2914675"><ele>96.0</ele><time>2026-05-01T09:10:26.931Z</time></trkpt><trkpt lat="42.3134224" lon="14.2915419"><ele>94.5</ele><time>2026-05-01T09:10:27.946Z</time></trkpt><trkpt lat="42.3134836" lon="14.2916005"><ele>93.0</ele><time>2026-05-01T09:10:28.931Z</time></trkpt><trkpt lat="42.3135498" lon="14.2916561"><ele>91.5</ele><time>2026-05-01T09:10:29.924Z</time></trkpt><trkpt lat="42.313613" lon="14.2917006"><ele>90.0</ele><time>2026-05-01T09:10:30.931Z</time></trkpt><trkpt lat="42.3136973" lon="14.2917546"><ele>88.5</ele><time>2026-05-01T09:10:32.94Z</time></trkpt><trkpt lat="42.3136625" lon="14.2918371"><ele>87.0</ele><time>2026-05-01T09:10:36.935Z</time></trkpt><trkpt lat="42.3135803" lon="14.2918333"><ele>87.0</ele><time>2026-05-01T09:10:39.931Z</time></trkpt><trkpt lat="42.3134728" lon="14.2918353"><ele>87.0</ele><time>2026-05-01T09:10:41.939Z</time></trkpt><trkpt lat="42.3133562" lon="14.2918321"><ele>87.0</ele><time>2026-05-01T09:10:43.937Z</time></trkpt><trkpt lat="42.3132381" lon="14.2918386"><ele>87.0</ele><time>2026-05-01T09:10:45.94Z</time></trkpt><trkpt lat="42.3131758" lon="14.2918581"><ele>87.0</ele><time>2026-05-01T09:10:46.932Z</time></trkpt><trkpt lat="42.3130664" lon="14.2918863"><ele>87.19999999999999</ele><time>2026-05-01T09:10:48.937Z</time></trkpt><trkpt lat="42.3129944" lon="14.2918599"><ele>87.4</ele><time>2026-05-01T09:10:50.939Z</time></trkpt><trkpt lat="42.3129229" lon="14.2917969"><ele>87.6</ele><time>2026-05-01T09:10:52.938Z</time></trkpt><trkpt lat="42.3128638" lon="14.2917"><ele>87.80000000000001</ele><time>2026-05-01T09:10:54.934Z</time></trkpt><trkpt lat="42.3128317" lon="14.2915529"><ele>88.0</ele><time>2026-05-01T09:10:56.943Z</time></trkpt><trkpt lat="42.3127956" lon="14.2913937"><ele>89.2</ele><time>2026-05-01T09:10:58.935Z</time></trkpt><trkpt lat="42.3127349" lon="14.2912594"><ele>90.4</ele><time>2026-05-01T09:11:00.935Z</time></trkpt><trkpt lat="42.3126792" lon="14.2912045"><ele>91.60000000000001</ele><time>2026-05-01T09:11:01.935Z</time></trkpt><trkpt lat="42.3125885" lon="14.2911203"><ele>92.80000000000001</ele><time>2026-05-01T09:11:03.931Z</time></trkpt><trkpt lat="42.3124883" lon="14.2910713"><ele>94.0</ele><time>2026-05-01T09:11:05.93Z</time></trkpt><trkpt lat="42.3123724" lon="14.2911049"><ele>94.0</ele><time>2026-05-01T09:11:07.935Z</time></trkpt><trkpt lat="42.3122913" lon="14.2911376"><ele>94.0</ele><time>2026-05-01T09:11:08.935Z</time></trkpt><trkpt lat="42.3122088" lon="14.2911725"><ele>94.0</ele><time>2026-05-01T09:11:09.939Z</time></trkpt><trkpt lat="42.3121415" lon="14.291206"><ele>94.0</ele><time>2026-05-01T09:11:10.938Z</time></trkpt><trkpt lat="42.3120811" lon="14.2912361"><ele>94.0</ele><time>2026-05-01T09:11:12.937Z</time></trkpt><trkpt lat="42.312002" lon="14.2912799"><ele>94.0</ele><time>2026-05-01T09:11:15.939Z</time></trkpt><trkpt lat="42.3119391" lon="14.2913027"><ele>94.16666666666666</ele><time>2026-05-01T09:11:17.931Z</time></trkpt><trkpt lat="42.3118735" lon="14.2913045"><ele>94.33333333333333</ele><time>2026-05-01T09:11:19.933Z</time></trkpt><trkpt lat="42.3117928" lon="14.2912721"><ele>94.5</ele><time>2026-05-01T09:11:22.942Z</time></trkpt><trkpt lat="42.3117134" lon="14.2912493"><ele>94.66666666666667</ele><time>2026-05-01T09:11:25.937Z</time></trkpt><trkpt lat="42.3116263" lon="14.2912812"><ele>94.83333333333334</ele><time>2026-05-01T09:11:28.939Z</time></trkpt><trkpt lat="42.3115654" lon="14.2913604"><ele>95.0</ele><time>2026-05-01T09:11:30.935Z</time></trkpt><trkpt lat="42.3114744" lon="14.2914198"><ele>94.4</ele><time>2026-05-01T09:11:32.948Z</time></trkpt><trkpt lat="42.3113661" lon="14.2914464"><ele>93.8</ele><time>2026-05-01T09:11:34.936Z</time></trkpt><trkpt lat="42.3112656" lon="14.2914399"><ele>93.19999999999999</ele><time>2026-05-01T09:11:36.938Z</time></trkpt><trkpt lat="42.311163" lon="14.2913381"><ele>92.6</ele><time>2026-05-01T09:11:38.934Z</time></trkpt><trkpt lat="42.3111157" lon="14.2912686"><ele>92.0</ele><time>2026-05-01T09:11:39.939Z</time></trkpt><trkpt lat="42.3110656" lon="14.2911872"><ele>93.0</ele><time>2026-05-01T09:11:40.94Z</time></trkpt><trkpt lat="42.3110239" lon="14.2910986"><ele>94.0</ele><time>2026-05-01T09:11:41.941Z</time></trkpt><trkpt lat="42.3109765" lon="14.2910376"><ele>95.0</ele><time>2026-05-01T09:11:42.942Z</time></trkpt><trkpt lat="42.3109196" lon="14.2909948"><ele>96.0</ele><time>2026-05-01T09:11:43.932Z</time></trkpt><trkpt lat="42.31086" lon="14.290955"><ele>96.99999999999999</ele><time>2026-05-01T09:11:44.943Z</time></trkpt><trkpt lat="42.3107607" lon="14.2908953"><ele>98.0</ele><time>2026-05-01T09:11:46.929Z</time></trkpt><trkpt lat="42.3106332" lon="14.2908409"><ele>99.42857142857143</ele><time>2026-05-01T09:11:48.939Z</time></trkpt><trkpt lat="42.3105648" lon="14.2908098"><ele>100.85714285714286</ele><time>2026-05-01T09:11:49.939Z</time></trkpt><trkpt lat="42.3104897" lon="14.2907811"><ele>102.28571428571428</ele><time>2026-05-01T09:11:50.936Z</time></trkpt><trkpt lat="42.310419" lon="14.2907624"><ele>103.71428571428572</ele><time>2026-05-01T09:11:51.936Z</time></trkpt><trkpt lat="42.3103458" lon="14.2907526"><ele>105.14285714285714</ele><time>2026-05-01T09:11:52.946Z</time></trkpt><trkpt lat="42.3102703" lon="14.2907535"><ele>106.57142857142857</ele><time>2026-05-01T09:11:53.932Z</time></trkpt><trkpt lat="42.310195" lon="14.2907546"><ele>108.0</ele><time>2026-05-01T09:11:54.943Z</time></trkpt><trkpt lat="42.3101225" lon="14.2907515"><ele>108.0</ele><time>2026-05-01T09:11:55.934Z</time></trkpt><trkpt lat="42.3100484" lon="14.2907502"><ele>108.0</ele><time>2026-05-01T09:11:56.934Z</time></trkpt><trkpt lat="42.3099785" lon="14.2907396"><ele>108.0</ele><time>2026-05-01T09:11:57.935Z</time></trkpt><trkpt lat="42.3099043" lon="14.2907223"><ele>108.0</ele><time>2026-05-01T09:11:58.935Z</time></trkpt><trkpt lat="42.3098284" lon="14.2906898"><ele>108.0</ele><time>2026-05-01T09:11:59.934Z</time></trkpt><trkpt lat="42.3097581" lon="14.2906593"><ele>108.0</ele><time>2026-05-01T09:12:00.936Z</time></trkpt><trkpt lat="42.3096698" lon="14.2906189"><ele>109.16666666666667</ele><time>2026-05-01T09:12:02.932Z</time></trkpt><trkpt lat="42.3095856" lon="14.2906682"><ele>110.33333333333334</ele><time>2026-05-01T09:12:08.942Z</time></trkpt><trkpt lat="42.309538" lon="14.2907374"><ele>111.5</ele><time>2026-05-01T09:12:09.928Z</time></trkpt><trkpt lat="42.3094802" lon="14.2908105"><ele>112.66666666666667</ele><time>2026-05-01T09:12:10.938Z</time></trkpt><trkpt lat="42.3094128" lon="14.2908876"><ele>113.83333333333334</ele><time>2026-05-01T09:12:11.954Z</time></trkpt><trkpt lat="42.3093523" lon="14.2909592"><ele>115.0</ele><time>2026-05-01T09:12:12.935Z</time></trkpt><trkpt lat="42.3092875" lon="14.2910362"><ele>115.00000000000001</ele><time>2026-05-01T09:12:13.937Z</time></trkpt><trkpt lat="42.3092062" lon="14.291105"><ele>115.0</ele><time>2026-05-01T09:12:14.942Z</time></trkpt><trkpt lat="42.3091278" lon="14.2911671"><ele>115.0</ele><time>2026-05-01T09:12:15.938Z</time></trkpt><trkpt lat="42.3090583" lon="14.2912138"><ele>115.0</ele><time>2026-05-01T09:12:16.949Z</time></trkpt><trkpt lat="42.3089818" lon="14.291257"><ele>115.00000000000001</ele><time>2026-05-01T09:12:17.94Z</time></trkpt><trkpt lat="42.3089024" lon="14.2912988"><ele>115.0</ele><time>2026-05-01T09:12:18.936Z</time></trkpt><trkpt lat="42.3088229" lon="14.2913369"><ele>114.7142857142857</ele><time>2026-05-01T09:12:19.932Z</time></trkpt><trkpt lat="42.308743" lon="14.2913719"><ele>114.42857142857142</ele><time>2026-05-01T09:12:20.933Z</time></trkpt><trkpt lat="42.3086794" lon="14.2913998"><ele>114.14285714285714</ele><time>2026-05-01T09:12:21.937Z</time></trkpt><trkpt lat="42.3086164" lon="14.291443"><ele>113.85714285714285</ele><time>2026-05-01T09:12:22.938Z</time></trkpt><trkpt lat="42.3085577" lon="14.2914972"><ele>113.57142857142856</ele><time>2026-05-01T09:12:23.934Z</time></trkpt><trkpt lat="42.3085017" lon="14.2915607"><ele>113.28571428571429</ele><time>2026-05-01T09:12:24.95Z</time></trkpt><trkpt lat="42.3084484" lon="14.2916218"><ele>113.0</ele><time>2026-05-01T09:12:25.934Z</time></trkpt><trkpt lat="42.3084006" lon="14.2916864"><ele>112.99999999999999</ele><time>2026-05-01T09:12:26.939Z</time></trkpt><trkpt lat="42.3083381" lon="14.2917662"><ele>113.0</ele><time>2026-05-01T09:12:27.931Z</time></trkpt><trkpt lat="42.3082703" lon="14.2918459"><ele>113.0</ele><time>2026-05-01T09:12:28.936Z</time></trkpt><trkpt lat="42.3082027" lon="14.291918"><ele>113.0</ele><time>2026-05-01T09:12:29.932Z</time></trkpt><trkpt lat="42.3081286" lon="14.2919838"><ele>112.99999999999999</ele><time>2026-05-01T09:12:30.946Z</time></trkpt><trkpt lat="42.3080469" lon="14.2920295"><ele>113.0</ele><time>2026-05-01T09:12:31.939Z</time></trkpt><trkpt lat="42.3079632" lon="14.2920618"><ele>115.2</ele><time>2026-05-01T09:12:32.944Z</time></trkpt><trkpt lat="42.3078767" lon="14.2920935"><ele>117.4</ele><time>2026-05-01T09:12:33.933Z</time></trkpt><trkpt lat="42.3077891" lon="14.2921241"><ele>119.60000000000001</ele><time>2026-05-01T09:12:34.934Z</time></trkpt><trkpt lat="42.3077016" lon="14.292152"><ele>121.80000000000001</ele><time>2026-05-01T09:12:35.936Z</time></trkpt><trkpt lat="42.3076149" lon="14.292198"><ele>124.0</ele><time>2026-05-01T09:12:36.937Z</time></trkpt><trkpt lat="42.3075275" lon="14.2922468"><ele>122.2</ele><time>2026-05-01T09:12:37.932Z</time></trkpt><trkpt lat="42.3074363" lon="14.2922932"><ele>120.4</ele><time>2026-05-01T09:12:38.936Z</time></trkpt><trkpt lat="42.3073411" lon="14.2923342"><ele>118.6</ele><time>2026-05-01T09:12:39.932Z</time></trkpt><trkpt lat="42.3072395" lon="14.2923635"><ele>116.8</ele><time>2026-05-01T09:12:40.934Z</time></trkpt><trkpt lat="42.3071343" lon="14.2923809"><ele>115.0</ele><time>2026-05-01T09:12:41.936Z</time></trkpt><trkpt lat="42.3070356" lon="14.2923924"><ele>115.0</ele><time>2026-05-01T09:12:42.934Z</time></trkpt><trkpt lat="42.3069407" lon="14.2924063"><ele>115.0</ele><time>2026-05-01T09:12:43.945Z</time></trkpt><trkpt lat="42.3068496" lon="14.2924261"><ele>115.0</ele><time>2026-05-01T09:12:44.933Z</time></trkpt><trkpt lat="42.3067543" lon="14.29246"><ele>115.0</ele><time>2026-05-01T09:12:45.949Z</time></trkpt><trkpt lat="42.3066601" lon="14.2925033"><ele>115.0</ele><time>2026-05-01T09:12:46.938Z</time></trkpt><trkpt lat="42.306563" lon="14.2925481"><ele>115.0</ele><time>2026-05-01T09:12:47.939Z</time></trkpt><trkpt lat="42.3064616" lon="14.2925899"><ele>115.0</ele><time>2026-05-01T09:12:48.942Z</time></trkpt><trkpt lat="42.3063638" lon="14.292616"><ele>115.0</ele><time>2026-05-01T09:12:49.942Z</time></trkpt><trkpt lat="42.3062745" lon="14.292632"><ele>115.0</ele><time>2026-05-01T09:12:50.949Z</time></trkpt><trkpt lat="42.306183" lon="14.2926337"><ele>115.0</ele><time>2026-05-01T09:12:51.934Z</time></trkpt><trkpt lat="42.306083" lon="14.2926267"><ele>115.8</ele><time>2026-05-01T09:12:52.936Z</time></trkpt><trkpt lat="42.3059807" lon="14.2926196"><ele>116.6</ele><time>2026-05-01T09:12:53.938Z</time></trkpt><trkpt lat="42.3058766" lon="14.2926118"><ele>117.4</ele><time>2026-05-01T09:12:54.943Z</time></trkpt><trkpt lat="42.3057736" lon="14.2926016"><ele>118.2</ele><time>2026-05-01T09:12:55.939Z</time></trkpt><trkpt lat="42.30567" lon="14.2925942"><ele>119.0</ele><time>2026-05-01T09:12:56.942Z</time></trkpt><trkpt lat="42.3055651" lon="14.2925847"><ele>119.6</ele><time>2026-05-01T09:12:57.938Z</time></trkpt><trkpt lat="42.305462" lon="14.2925696"><ele>120.2</ele><time>2026-05-01T09:12:58.938Z</time></trkpt><trkpt lat="42.3053612" lon="14.2925505"><ele>120.79999999999998</ele><time>2026-05-01T09:12:59.945Z</time></trkpt><trkpt lat="42.3052663" lon="14.2925325"><ele>121.39999999999999</ele><time>2026-05-01T09:13:00.943Z</time></trkpt><trkpt lat="42.3051721" lon="14.2925237"><ele>122.0</ele><time>2026-05-01T09:13:01.939Z</time></trkpt><trkpt lat="42.3050779" lon="14.2925201"><ele>121.99999999999999</ele><time>2026-05-01T09:13:02.946Z</time></trkpt><trkpt lat="42.304997" lon="14.2925282"><ele>122.0</ele><time>2026-05-01T09:13:03.935Z</time></trkpt><trkpt lat="42.304929" lon="14.2925547"><ele>122.0</ele><time>2026-05-01T09:13:04.931Z</time></trkpt><trkpt lat="42.3048689" lon="14.2926033"><ele>122.0</ele><time>2026-05-01T09:13:05.942Z</time></trkpt><trkpt lat="42.3048141" lon="14.2926798"><ele>121.99999999999999</ele><time>2026-05-01T09:13:06.942Z</time></trkpt><trkpt lat="42.3047422" lon="14.2927692"><ele>122.0</ele><time>2026-05-01T09:13:07.944Z</time></trkpt><trkpt lat="42.3046609" lon="14.2928494"><ele>121.8</ele><time>2026-05-01T09:13:08.941Z</time></trkpt><trkpt lat="42.3045736" lon="14.2929111"><ele>121.6</ele><time>2026-05-01T09:13:09.952Z</time></trkpt><trkpt lat="42.304478" lon="14.2929515"><ele>121.39999999999999</ele><time>2026-05-01T09:13:10.942Z</time></trkpt><trkpt lat="42.3043765" lon="14.2929812"><ele>121.19999999999999</ele><time>2026-05-01T09:13:11.944Z</time></trkpt><trkpt lat="42.3042782" lon="14.2929991"><ele>121.0</ele><time>2026-05-01T09:13:12.937Z</time></trkpt><trkpt lat="42.3041842" lon="14.293012"><ele>121.0</ele><time>2026-05-01T09:13:13.944Z</time></trkpt><trkpt lat="42.3040872" lon="14.2930323"><ele>121.0</ele><time>2026-05-01T09:13:14.937Z</time></trkpt><trkpt lat="42.3039823" lon="14.2930438"><ele>121.0</ele><time>2026-05-01T09:13:15.938Z</time></trkpt><trkpt lat="42.3038788" lon="14.2930496"><ele>121.0</ele><time>2026-05-01T09:13:16.937Z</time></trkpt><trkpt lat="42.3037748" lon="14.2930455"><ele>121.0</ele><time>2026-05-01T09:13:17.938Z</time></trkpt><trkpt lat="42.3036685" lon="14.2930494"><ele>120.0</ele><time>2026-05-01T09:13:18.951Z</time></trkpt><trkpt lat="42.3035648" lon="14.2930431"><ele>119.0</ele><time>2026-05-01T09:13:19.934Z</time></trkpt><trkpt lat="42.303463" lon="14.2930372"><ele>118.0</ele><time>2026-05-01T09:13:20.931Z</time></trkpt><trkpt lat="42.3033767" lon="14.2930269"><ele>117.0</ele><time>2026-05-01T09:13:21.939Z</time></trkpt><trkpt lat="42.303291" lon="14.2930214"><ele>116.0</ele><time>2026-05-01T09:13:22.938Z</time></trkpt><trkpt lat="42.3032001" lon="14.293013"><ele>116.0</ele><time>2026-05-01T09:13:23.941Z</time></trkpt><trkpt lat="42.3030996" lon="14.2929926"><ele>116.0</ele><time>2026-05-01T09:13:24.937Z</time></trkpt><trkpt lat="42.3029989" lon="14.2929702"><ele>116.0</ele><time>2026-05-01T09:13:25.948Z</time></trkpt><trkpt lat="42.3028976" lon="14.2929585"><ele>116.0</ele><time>2026-05-01T09:13:26.934Z</time></trkpt><trkpt lat="42.3027932" lon="14.2929536"><ele>116.0</ele><time>2026-05-01T09:13:27.93Z</time></trkpt><trkpt lat="42.3026907" lon="14.2929447"><ele>116.0</ele><time>2026-05-01T09:13:28.937Z</time></trkpt><trkpt lat="42.3025912" lon="14.2929344"><ele>116.0</ele><time>2026-05-01T09:13:29.934Z</time></trkpt><trkpt lat="42.3024856" lon="14.2929179"><ele>116.0</ele><time>2026-05-01T09:13:30.94Z</time></trkpt><trkpt lat="42.3023776" lon="14.2929008"><ele>116.0</ele><time>2026-05-01T09:13:31.942Z</time></trkpt><trkpt lat="42.3022695" lon="14.2928852"><ele>116.0</ele><time>2026-05-01T09:13:32.936Z</time></trkpt><trkpt lat="42.302167" lon="14.2928703"><ele>116.19999999999999</ele><time>2026-05-01T09:13:33.932Z</time></trkpt><trkpt lat="42.3020664" lon="14.292854"><ele>116.39999999999999</ele><time>2026-05-01T09:13:34.945Z</time></trkpt><trkpt lat="42.3019626" lon="14.2928475"><ele>116.6</ele><time>2026-05-01T09:13:35.937Z</time></trkpt><trkpt lat="42.3018552" lon="14.2928382"><ele>116.8</ele><time>2026-05-01T09:13:36.939Z</time></trkpt><trkpt lat="42.3017519" lon="14.2928248"><ele>117.0</ele><time>2026-05-01T09:13:37.935Z</time></trkpt><trkpt lat="42.3016486" lon="14.2928044"><ele>117.0</ele><time>2026-05-01T09:13:38.934Z</time></trkpt><trkpt lat="42.3015459" lon="14.2927823"><ele>116.99999999999999</ele><time>2026-05-01T09:13:39.947Z</time></trkpt><trkpt lat="42.30144" lon="14.2927528"><ele>116.99999999999999</ele><time>2026-05-01T09:13:40.932Z</time></trkpt><trkpt lat="42.3013355" lon="14.2927241"><ele>117.0</ele><time>2026-05-01T09:13:41.935Z</time></trkpt><trkpt lat="42.301228" lon="14.2926883"><ele>117.0</ele><time>2026-05-01T09:13:42.931Z</time></trkpt><trkpt lat="42.3011178" lon="14.2926537"><ele>117.6</ele><time>2026-05-01T09:13:43.935Z</time></trkpt><trkpt lat="42.3010137" lon="14.2926201"><ele>118.19999999999999</ele><time>2026-05-01T09:13:44.938Z</time></trkpt><trkpt lat="42.3009158" lon="14.2926013"><ele>118.8</ele><time>2026-05-01T09:13:45.933Z</time></trkpt><trkpt lat="42.3008102" lon="14.2925985"><ele>119.4</ele><time>2026-05-01T09:13:46.948Z</time></trkpt><trkpt lat="42.3007032" lon="14.2926023"><ele>120.0</ele><time>2026-05-01T09:13:47.936Z</time></trkpt><trkpt lat="42.3005933" lon="14.292606"><ele>120.2</ele><time>2026-05-01T09:13:48.935Z</time></trkpt><trkpt lat="42.3004917" lon="14.2926018"><ele>120.4</ele><time>2026-05-01T09:13:49.939Z</time></trkpt><trkpt lat="42.3004069" lon="14.2925841"><ele>120.6</ele><time>2026-05-01T09:13:50.932Z</time></trkpt><trkpt lat="42.3003265" lon="14.2925421"><ele>120.8</ele><time>2026-05-01T09:13:51.94Z</time></trkpt><trkpt lat="42.3002406" lon="14.2924856"><ele>121.0</ele><time>2026-05-01T09:13:52.934Z</time></trkpt><trkpt lat="42.3001525" lon="14.2924045"><ele>121.0</ele><time>2026-05-01T09:13:53.934Z</time></trkpt><trkpt lat="42.3000718" lon="14.292324"><ele>121.0</ele><time>2026-05-01T09:13:54.931Z</time></trkpt><trkpt lat="42.2999857" lon="14.292255"><ele>121.0</ele><time>2026-05-01T09:13:55.93Z</time></trkpt><trkpt lat="42.2999122" lon="14.2921934"><ele>121.0</ele><time>2026-05-01T09:13:56.945Z</time></trkpt><trkpt lat="42.299824" lon="14.2921439"><ele>121.0</ele><time>2026-05-01T09:13:58.935Z</time></trkpt><trkpt lat="42.2997025" lon="14.2921809"><ele>123.4</ele><time>2026-05-01T09:14:00.936Z</time></trkpt><trkpt lat="42.299617" lon="14.2922043"><ele>125.8</ele><time>2026-05-01T09:14:01.942Z</time></trkpt><trkpt lat="42.2995254" lon="14.292215"><ele>128.20000000000002</ele><time>2026-05-01T09:14:02.942Z</time></trkpt><trkpt lat="42.2994262" lon="14.2922066"><ele>130.6</ele><time>2026-05-01T09:14:03.936Z</time></trkpt><trkpt lat="42.2993292" lon="14.2921926"><ele>133.0</ele><time>2026-05-01T09:14:04.94Z</time></trkpt><trkpt lat="42.2992332" lon="14.292184"><ele>133.0</ele><time>2026-05-01T09:14:05.933Z</time></trkpt><trkpt lat="42.2991328" lon="14.2921661"><ele>133.0</ele><time>2026-05-01T09:14:06.951Z</time></trkpt><trkpt lat="42.2990275" lon="14.2921579"><ele>133.0</ele><time>2026-05-01T09:14:07.932Z</time></trkpt><trkpt lat="42.2989221" lon="14.2921536"><ele>133.0</ele><time>2026-05-01T09:14:08.939Z</time></trkpt><trkpt lat="42.2988213" lon="14.292161"><ele>133.0</ele><time>2026-05-01T09:14:09.936Z</time></trkpt><trkpt lat="42.2987217" lon="14.2921714"><ele>133.20000000000002</ele><time>2026-05-01T09:14:10.935Z</time></trkpt><trkpt lat="42.2986228" lon="14.2921792"><ele>133.4</ele><time>2026-05-01T09:14:11.934Z</time></trkpt><trkpt lat="42.2985321" lon="14.2921827"><ele>133.60000000000002</ele><time>2026-05-01T09:14:12.932Z</time></trkpt><trkpt lat="42.298442" lon="14.292188"><ele>133.8</ele><time>2026-05-01T09:14:13.944Z</time></trkpt><trkpt lat="42.2983477" lon="14.2921977"><ele>134.0</ele><time>2026-05-01T09:14:14.943Z</time></trkpt><trkpt lat="42.2982555" lon="14.2922074"><ele>134.0</ele><time>2026-05-01T09:14:15.944Z</time></trkpt><trkpt lat="42.2981749" lon="14.2922199"><ele>134.0</ele><time>2026-05-01T09:14:16.949Z</time></trkpt><trkpt lat="42.2981076" lon="14.2922425"><ele>134.0</ele><time>2026-05-01T09:14:17.936Z</time></trkpt><trkpt lat="42.2980493" lon="14.2922881"><ele>134.0</ele><time>2026-05-01T09:14:18.937Z</time></trkpt><trkpt lat="42.2980031" lon="14.2923575"><ele>134.0</ele><time>2026-05-01T09:14:19.941Z</time></trkpt><trkpt lat="42.2979736" lon="14.2924586"><ele>134.0</ele><time>2026-05-01T09:14:20.943Z</time></trkpt><trkpt lat="42.2979622" lon="14.2925783"><ele>131.66666666666666</ele><time>2026-05-01T09:14:21.942Z</time></trkpt><trkpt lat="42.2979524" lon="14.2927009"><ele>129.33333333333331</ele><time>2026-05-01T09:14:22.938Z</time></trkpt><trkpt lat="42.2979452" lon="14.2928053"><ele>127.0</ele><time>2026-05-01T09:14:23.963Z</time></trkpt><trkpt lat="42.2979443" lon="14.2928935"><ele>124.66666666666666</ele><time>2026-05-01T09:14:24.937Z</time></trkpt><trkpt lat="42.2979523" lon="14.2930139"><ele>122.33333333333333</ele><time>2026-05-01T09:14:26.942Z</time></trkpt><trkpt lat="42.2978985" lon="14.2930732"><ele>120.0</ele><time>2026-05-01T09:14:29.934Z</time></trkpt><trkpt lat="42.2978395" lon="14.2930375"><ele>120.0</ele><time>2026-05-01T09:14:31.939Z</time></trkpt><trkpt lat="42.2977698" lon="14.2929577"><ele>120.0</ele><time>2026-05-01T09:14:33.933Z</time></trkpt><trkpt lat="42.2976792" lon="14.2928459"><ele>120.0</ele><time>2026-05-01T09:14:35.935Z</time></trkpt><trkpt lat="42.2975789" lon="14.2927362"><ele>120.0</ele><time>2026-05-01T09:14:37.932Z</time></trkpt><trkpt lat="42.2975141" lon="14.2926674"><ele>120.0</ele><time>2026-05-01T09:14:38.944Z</time></trkpt><trkpt lat="42.2974441" lon="14.2926044"><ele>120.0</ele><time>2026-05-01T09:14:39.939Z</time></trkpt><trkpt lat="42.2973734" lon="14.2925328"><ele>120.0</ele><time>2026-05-01T09:14:40.938Z</time></trkpt><trkpt lat="42.297305" lon="14.2924635"><ele>120.0</ele><time>2026-05-01T09:14:41.939Z</time></trkpt><trkpt lat="42.2972373" lon="14.2924028"><ele>120.0</ele><time>2026-05-01T09:14:42.949Z</time></trkpt><trkpt lat="42.2971714" lon="14.2923436"><ele>120.0</ele><time>2026-05-01T09:14:43.938Z</time></trkpt><trkpt lat="42.2971101" lon="14.2922819"><ele>120.0</ele><time>2026-05-01T09:14:44.947Z</time></trkpt><trkpt lat="42.297046" lon="14.2922227"><ele>122.5</ele><time>2026-05-01T09:14:45.935Z</time></trkpt><trkpt lat="42.2969794" lon="14.2921574"><ele>125.0</ele><time>2026-05-01T09:14:46.959Z</time></trkpt><trkpt lat="42.2969118" lon="14.2920888"><ele>127.5</ele><time>2026-05-01T09:14:47.945Z</time></trkpt><trkpt lat="42.2968415" lon="14.2920284"><ele>130.0</ele><time>2026-05-01T09:14:48.945Z</time></trkpt><trkpt lat="42.2967675" lon="14.291979"><ele>132.5</ele><time>2026-05-01T09:14:49.939Z</time></trkpt><trkpt lat="42.2967011" lon="14.2919184"><ele>135.0</ele><time>2026-05-01T09:14:50.949Z</time></trkpt><trkpt lat="42.2966219" lon="14.291873"><ele>135.0</ele><time>2026-05-01T09:14:51.944Z</time></trkpt><trkpt lat="42.2965396" lon="14.2918341"><ele>135.0</ele><time>2026-05-01T09:14:52.936Z</time></trkpt><trkpt lat="42.2964682" lon="14.2917899"><ele>135.0</ele><time>2026-05-01T09:14:53.947Z</time></trkpt><trkpt lat="42.2964013" lon="14.2917362"><ele>135.0</ele><time>2026-05-01T09:14:54.939Z</time></trkpt><trkpt lat="42.296338" lon="14.2916803"><ele>135.0</ele><time>2026-05-01T09:14:55.949Z</time></trkpt><trkpt lat="42.2962713" lon="14.291592"><ele>135.0</ele><time>2026-05-01T09:14:57.95Z</time></trkpt><trkpt lat="42.2962907" lon="14.2914598"><ele>134.6</ele><time>2026-05-01T09:15:00.943Z</time></trkpt><trkpt lat="42.2963243" lon="14.2913394"><ele>134.2</ele><time>2026-05-01T09:15:02.954Z</time></trkpt><trkpt lat="42.2963629" lon="14.2912033"><ele>133.8</ele><time>2026-05-01T09:15:04.943Z</time></trkpt><trkpt lat="42.2964106" lon="14.2910839"><ele>133.4</ele><time>2026-05-01T09:15:06.94Z</time></trkpt><trkpt lat="42.2964522" lon="14.2909447"><ele>133.0</ele><time>2026-05-01T09:15:08.94Z</time></trkpt><trkpt lat="42.2965007" lon="14.2908075"><ele>137.75</ele><time>2026-05-01T09:15:10.945Z</time></trkpt><trkpt lat="42.296555" lon="14.2906699"><ele>142.5</ele><time>2026-05-01T09:15:12.941Z</time></trkpt><trkpt lat="42.2966112" lon="14.2905419"><ele>147.25</ele><time>2026-05-01T09:15:14.949Z</time></trkpt><trkpt lat="42.2966834" lon="14.2904223"><ele>152.0</ele><time>2026-05-01T09:15:16.945Z</time></trkpt><trkpt lat="42.2967422" lon="14.290283"><ele>154.2</ele><time>2026-05-01T09:15:18.951Z</time></trkpt><trkpt lat="42.2967902" lon="14.2901494"><ele>156.39999999999998</ele><time>2026-05-01T09:15:20.947Z</time></trkpt><trkpt lat="42.2968411" lon="14.290038"><ele>158.60000000000002</ele><time>2026-05-01T09:15:22.944Z</time></trkpt><trkpt lat="42.2969011" lon="14.2899339"><ele>160.8</ele><time>2026-05-01T09:15:24.945Z</time></trkpt><trkpt lat="42.2969661" lon="14.2898293"><ele>163.0</ele><time>2026-05-01T09:15:26.94Z</time></trkpt><trkpt lat="42.2970272" lon="14.2897174"><ele>165.60000000000002</ele><time>2026-05-01T09:15:28.944Z</time></trkpt><trkpt lat="42.2970852" lon="14.2896083"><ele>168.20000000000002</ele><time>2026-05-01T09:15:30.947Z</time></trkpt><trkpt lat="42.297121" lon="14.2894968"><ele>170.8</ele><time>2026-05-01T09:15:32.951Z</time></trkpt><trkpt lat="42.2971673" lon="14.2893812"><ele>173.4</ele><time>2026-05-01T09:15:34.94Z</time></trkpt><trkpt lat="42.2972203" lon="14.2892603"><ele>176.0</ele><time>2026-05-01T09:15:36.934Z</time></trkpt><trkpt lat="42.2972914" lon="14.2891496"><ele>177.33333333333331</ele><time>2026-05-01T09:15:38.931Z</time></trkpt><trkpt lat="42.2973678" lon="14.2890911"><ele>178.66666666666666</ele><time>2026-05-01T09:15:40.938Z</time></trkpt><trkpt lat="42.2974481" lon="14.2891121"><ele>180.0</ele><time>2026-05-01T09:15:42.939Z</time></trkpt><trkpt lat="42.2975248" lon="14.2891261"><ele>181.33333333333334</ele><time>2026-05-01T09:15:44.941Z</time></trkpt><trkpt lat="42.2974992" lon="14.2890416"><ele>182.66666666666669</ele><time>2026-05-01T09:15:49.925Z</time></trkpt><trkpt lat="42.2974314" lon="14.2890523"><ele>184.0</ele><time>2026-05-01T09:16:08.939Z</time></trkpt><trkpt lat="42.2973393" lon="14.2889986"><ele>184.0</ele><time>2026-05-01T09:16:10.937Z</time></trkpt><trkpt lat="42.2972777" lon="14.288958"><ele>184.0</ele><time>2026-05-01T09:16:11.944Z</time></trkpt><trkpt lat="42.2972066" lon="14.2889099"><ele>184.0</ele><time>2026-05-01T09:16:12.932Z</time></trkpt><trkpt lat="42.2971287" lon="14.2888592"><ele>184.0</ele><time>2026-05-01T09:16:13.948Z</time></trkpt><trkpt lat="42.2970601" lon="14.2888207"><ele>184.0</ele><time>2026-05-01T09:16:14.936Z</time></trkpt><trkpt lat="42.2969863" lon="14.2888012"><ele>184.0</ele><time>2026-05-01T09:16:15.932Z</time></trkpt><trkpt lat="42.2969049" lon="14.2887824"><ele>184.83333333333334</ele><time>2026-05-01T09:16:16.943Z</time></trkpt><trkpt lat="42.296827" lon="14.2887644"><ele>185.66666666666669</ele><time>2026-05-01T09:16:17.951Z</time></trkpt><trkpt lat="42.2967494" lon="14.2887371"><ele>186.5</ele><time>2026-05-01T09:16:18.939Z</time></trkpt><trkpt lat="42.2966802" lon="14.2887091"><ele>187.33333333333334</ele><time>2026-05-01T09:16:19.938Z</time></trkpt><trkpt lat="42.2966138" lon="14.2886907"><ele>188.16666666666666</ele><time>2026-05-01T09:16:20.936Z</time></trkpt><trkpt lat="42.2965384" lon="14.2886766"><ele>189.0</ele><time>2026-05-01T09:16:21.952Z</time></trkpt><trkpt lat="42.2964523" lon="14.2886687"><ele>185.83333333333334</ele><time>2026-05-01T09:16:22.934Z</time></trkpt><trkpt lat="42.2963701" lon="14.2886661"><ele>182.66666666666666</ele><time>2026-05-01T09:16:23.941Z</time></trkpt><trkpt lat="42.2962917" lon="14.2886535"><ele>179.5</ele><time>2026-05-01T09:16:24.941Z</time></trkpt><trkpt lat="42.2962059" lon="14.2886317"><ele>176.33333333333331</ele><time>2026-05-01T09:16:25.941Z</time></trkpt><trkpt lat="42.2961213" lon="14.2885851"><ele>173.16666666666666</ele><time>2026-05-01T09:16:26.937Z</time></trkpt><trkpt lat="42.296035" lon="14.288521"><ele>170.0</ele><time>2026-05-01T09:16:27.947Z</time></trkpt><trkpt lat="42.2959493" lon="14.2884425"><ele>170.0</ele><time>2026-05-01T09:16:28.939Z</time></trkpt><trkpt lat="42.2958737" lon="14.2883516"><ele>170.0</ele><time>2026-05-01T09:16:29.942Z</time></trkpt><trkpt lat="42.2958112" lon="14.2882456"><ele>170.0</ele><time>2026-05-01T09:16:30.948Z</time></trkpt><trkpt lat="42.2957621" lon="14.28812"><ele>170.0</ele><time>2026-05-01T09:16:31.947Z</time></trkpt><trkpt lat="42.2957074" lon="14.2880038"><ele>170.0</ele><time>2026-05-01T09:16:32.944Z</time></trkpt><trkpt lat="42.2956504" lon="14.2879071"><ele>166.8</ele><time>2026-05-01T09:16:33.945Z</time></trkpt><trkpt lat="42.2955727" lon="14.287846"><ele>163.6</ele><time>2026-05-01T09:16:34.934Z</time></trkpt><trkpt lat="42.2954639" lon="14.2878056"><ele>160.4</ele><time>2026-05-01T09:16:35.937Z</time></trkpt><trkpt lat="42.2953778" lon="14.2877253"><ele>157.2</ele><time>2026-05-01T09:16:36.947Z</time></trkpt><trkpt lat="42.2953083" lon="14.2876269"><ele>154.0</ele><time>2026-05-01T09:16:37.936Z</time></trkpt><trkpt lat="42.2952223" lon="14.2875156"><ele>154.0</ele><time>2026-05-01T09:16:38.94Z</time></trkpt><trkpt lat="42.2951381" lon="14.2874095"><ele>154.0</ele><time>2026-05-01T09:16:39.932Z</time></trkpt><trkpt lat="42.2950541" lon="14.2873065"><ele>154.0</ele><time>2026-05-01T09:16:40.938Z</time></trkpt><trkpt lat="42.2949828" lon="14.2871946"><ele>154.0</ele><time>2026-05-01T09:16:41.948Z</time></trkpt><trkpt lat="42.2949206" lon="14.2870674"><ele>153.0</ele><time>2026-05-01T09:16:42.931Z</time></trkpt><trkpt lat="42.2948731" lon="14.2869272"><ele>152.0</ele><time>2026-05-01T09:16:43.932Z</time></trkpt><trkpt lat="42.2948337" lon="14.2867933"><ele>151.0</ele><time>2026-05-01T09:16:44.943Z</time></trkpt><trkpt lat="42.2947782" lon="14.2866608"><ele>150.0</ele><time>2026-05-01T09:16:45.935Z</time></trkpt><trkpt lat="42.2947143" lon="14.2865379"><ele>149.0</ele><time>2026-05-01T09:16:46.94Z</time></trkpt><trkpt lat="42.2946499" lon="14.2864174"><ele>149.0</ele><time>2026-05-01T09:16:47.932Z</time></trkpt><trkpt lat="42.2945879" lon="14.286304"><ele>149.0</ele><time>2026-05-01T09:16:48.942Z</time></trkpt><trkpt lat="42.2945172" lon="14.2862016"><ele>149.0</ele><time>2026-05-01T09:16:49.941Z</time></trkpt><trkpt lat="42.2944335" lon="14.2861132"><ele>149.0</ele><time>2026-05-01T09:16:50.943Z</time></trkpt><trkpt lat="42.2943508" lon="14.2860385"><ele>149.0</ele><time>2026-05-01T09:16:51.941Z</time></trkpt><trkpt lat="42.2942642" lon="14.2859683"><ele>149.0</ele><time>2026-05-01T09:16:52.94Z</time></trkpt><trkpt lat="42.2941847" lon="14.2859059"><ele>149.0</ele><time>2026-05-01T09:16:53.938Z</time></trkpt><trkpt lat="42.2941116" lon="14.2858544"><ele>149.0</ele><time>2026-05-01T09:16:54.946Z</time></trkpt><trkpt lat="42.2940411" lon="14.2858191"><ele>149.0</ele><time>2026-05-01T09:16:55.939Z</time></trkpt><trkpt lat="42.2939741" lon="14.285791"><ele>149.0</ele><time>2026-05-01T09:16:56.931Z</time></trkpt><trkpt lat="42.293865" lon="14.2857037"><ele>149.0</ele><time>2026-05-01T09:16:58.939Z</time></trkpt><trkpt lat="42.2938098" lon="14.2856615"><ele>147.8</ele><time>2026-05-01T09:16:59.937Z</time></trkpt><trkpt lat="42.2937172" lon="14.2855652"><ele>146.60000000000002</ele><time>2026-05-01T09:17:01.939Z</time></trkpt><trkpt lat="42.2936128" lon="14.2854631"><ele>145.4</ele><time>2026-05-01T09:17:03.941Z</time></trkpt><trkpt lat="42.293553" lon="14.2854028"><ele>144.20000000000002</ele><time>2026-05-01T09:17:04.943Z</time></trkpt><trkpt lat="42.2934938" lon="14.2853282"><ele>143.0</ele><time>2026-05-01T09:17:05.94Z</time></trkpt><trkpt lat="42.2934344" lon="14.2852551"><ele>142.99999999999997</ele><time>2026-05-01T09:17:06.928Z</time></trkpt><trkpt lat="42.293377" lon="14.2851827"><ele>143.0</ele><time>2026-05-01T09:17:07.935Z</time></trkpt><trkpt lat="42.2933204" lon="14.2851244"><ele>143.0</ele><time>2026-05-01T09:17:08.929Z</time></trkpt><trkpt lat="42.2932612" lon="14.285072"><ele>143.0</ele><time>2026-05-01T09:17:09.942Z</time></trkpt><trkpt lat="42.2932064" lon="14.2850267"><ele>143.0</ele><time>2026-05-01T09:17:10.932Z</time></trkpt><trkpt lat="42.2931455" lon="14.2849902"><ele>142.99999999999997</ele><time>2026-05-01T09:17:11.938Z</time></trkpt><trkpt lat="42.2930829" lon="14.2849512"><ele>143.0</ele><time>2026-05-01T09:17:12.946Z</time></trkpt><trkpt lat="42.2930137" lon="14.2849132"><ele>141.85714285714283</ele><time>2026-05-01T09:17:13.932Z</time></trkpt><trkpt lat="42.2929465" lon="14.2848664"><ele>140.71428571428572</ele><time>2026-05-01T09:17:14.936Z</time></trkpt><trkpt lat="42.2928751" lon="14.284818"><ele>139.57142857142856</ele><time>2026-05-01T09:17:15.941Z</time></trkpt><trkpt lat="42.2928099" lon="14.2847862"><ele>138.42857142857142</ele><time>2026-05-01T09:17:16.944Z</time></trkpt><trkpt lat="42.2927444" lon="14.2847614"><ele>137.28571428571428</ele><time>2026-05-01T09:17:17.942Z</time></trkpt><trkpt lat="42.292682" lon="14.2847175"><ele>136.14285714285714</ele><time>2026-05-01T09:17:18.936Z</time></trkpt><trkpt lat="42.2926229" lon="14.2846589"><ele>135.0</ele><time>2026-05-01T09:17:19.941Z</time></trkpt><trkpt lat="42.2925633" lon="14.2845888"><ele>135.0</ele><time>2026-05-01T09:17:20.938Z</time></trkpt><trkpt lat="42.2925045" lon="14.2845147"><ele>135.0</ele><time>2026-05-01T09:17:21.935Z</time></trkpt><trkpt lat="42.29245" lon="14.2844425"><ele>135.0</ele><time>2026-05-01T09:17:22.948Z</time></trkpt><trkpt lat="42.292396" lon="14.2843619"><ele>135.0</ele><time>2026-05-01T09:17:23.933Z</time></trkpt><trkpt lat="42.2923424" lon="14.2842836"><ele>135.0</ele><time>2026-05-01T09:17:24.945Z</time></trkpt><trkpt lat="42.2922838" lon="14.2842069"><ele>135.0</ele><time>2026-05-01T09:17:25.94Z</time></trkpt><trkpt lat="42.292229" lon="14.2841227"><ele>134.71428571428572</ele><time>2026-05-01T09:17:26.941Z</time></trkpt><trkpt lat="42.2921743" lon="14.2840405"><ele>134.42857142857142</ele><time>2026-05-01T09:17:27.941Z</time></trkpt><trkpt lat="42.2921275" lon="14.2839614"><ele>134.14285714285714</ele><time>2026-05-01T09:17:28.942Z</time></trkpt><trkpt lat="42.2920781" lon="14.2838874"><ele>133.85714285714286</ele><time>2026-05-01T09:17:29.933Z</time></trkpt><trkpt lat="42.2920244" lon="14.2838338"><ele>133.57142857142856</ele><time>2026-05-01T09:17:30.934Z</time></trkpt><trkpt lat="42.2919679" lon="14.2837791"><ele>133.28571428571428</ele><time>2026-05-01T09:17:31.939Z</time></trkpt><trkpt lat="42.2919062" lon="14.283722"><ele>133.0</ele><time>2026-05-01T09:17:32.931Z</time></trkpt><trkpt lat="42.2918427" lon="14.2836623"><ele>135.16666666666669</ele><time>2026-05-01T09:17:33.948Z</time></trkpt><trkpt lat="42.2917824" lon="14.2836064"><ele>137.33333333333334</ele><time>2026-05-01T09:17:34.936Z</time></trkpt><trkpt lat="42.2917214" lon="14.2835449"><ele>139.5</ele><time>2026-05-01T09:17:35.944Z</time></trkpt><trkpt lat="42.2916558" lon="14.2834751"><ele>141.66666666666666</ele><time>2026-05-01T09:17:36.94Z</time></trkpt><trkpt lat="42.2915918" lon="14.2834025"><ele>143.83333333333331</ele><time>2026-05-01T09:17:37.926Z</time></trkpt><trkpt lat="42.2915256" lon="14.2833403"><ele>146.0</ele><time>2026-05-01T09:17:38.935Z</time></trkpt><trkpt lat="42.2914522" lon="14.2832809"><ele>145.33333333333331</ele><time>2026-05-01T09:17:39.94Z</time></trkpt><trkpt lat="42.2913851" lon="14.2832186"><ele>144.66666666666666</ele><time>2026-05-01T09:17:40.934Z</time></trkpt><trkpt lat="42.2913279" lon="14.2831452"><ele>144.0</ele><time>2026-05-01T09:17:41.943Z</time></trkpt><trkpt lat="42.291276" lon="14.2830695"><ele>143.33333333333334</ele><time>2026-05-01T09:17:42.932Z</time></trkpt><trkpt lat="42.2912304" lon="14.2829808"><ele>142.66666666666669</ele><time>2026-05-01T09:17:43.938Z</time></trkpt><trkpt lat="42.2911926" lon="14.2828779"><ele>142.0</ele><time>2026-05-01T09:17:44.929Z</time></trkpt><trkpt lat="42.291166" lon="14.2827678"><ele>143.6</ele><time>2026-05-01T09:17:45.933Z</time></trkpt><trkpt lat="42.2911579" lon="14.282654"><ele>145.2</ele><time>2026-05-01T09:17:46.932Z</time></trkpt><trkpt lat="42.2911462" lon="14.2825351"><ele>146.8</ele><time>2026-05-01T09:17:47.935Z</time></trkpt><trkpt lat="42.2911301" lon="14.2824352"><ele>148.4</ele><time>2026-05-01T09:17:48.937Z</time></trkpt><trkpt lat="42.291081" lon="14.2822941"><ele>150.0</ele><time>2026-05-01T09:17:50.942Z</time></trkpt><trkpt lat="42.2910056" lon="14.2821577"><ele>152.66666666666666</ele><time>2026-05-01T09:17:52.938Z</time></trkpt><trkpt lat="42.2909642" lon="14.2820764"><ele>155.33333333333334</ele><time>2026-05-01T09:17:53.94Z</time></trkpt><trkpt lat="42.2909245" lon="14.2819808"><ele>158.0</ele><time>2026-05-01T09:17:54.936Z</time></trkpt><trkpt lat="42.2908862" lon="14.2818812"><ele>160.66666666666669</ele><time>2026-05-01T09:17:55.941Z</time></trkpt><trkpt lat="42.2908515" lon="14.2817802"><ele>163.33333333333334</ele><time>2026-05-01T09:17:56.936Z</time></trkpt><trkpt lat="42.2908309" lon="14.2816726"><ele>166.0</ele><time>2026-05-01T09:17:57.935Z</time></trkpt><trkpt lat="42.2908264" lon="14.2815669"><ele>166.0</ele><time>2026-05-01T09:17:58.938Z</time></trkpt><trkpt lat="42.2908366" lon="14.281454"><ele>166.0</ele><time>2026-05-01T09:17:59.941Z</time></trkpt><trkpt lat="42.2908427" lon="14.2813495"><ele>166.0</ele><time>2026-05-01T09:18:00.949Z</time></trkpt><trkpt lat="42.2908482" lon="14.2812367"><ele>166.0</ele><time>2026-05-01T09:18:01.935Z</time></trkpt><trkpt lat="42.2908485" lon="14.2811181"><ele>166.0</ele><time>2026-05-01T09:18:02.939Z</time></trkpt><trkpt lat="42.2908475" lon="14.2810034"><ele>166.0</ele><time>2026-05-01T09:18:03.936Z</time></trkpt><trkpt lat="42.2908409" lon="14.280883"><ele>168.16666666666669</ele><time>2026-05-01T09:18:04.934Z</time></trkpt><trkpt lat="42.2908335" lon="14.2807666"><ele>170.33333333333334</ele><time>2026-05-01T09:18:05.937Z</time></trkpt><trkpt lat="42.2908228" lon="14.2806485"><ele>172.5</ele><time>2026-05-01T09:18:06.939Z</time></trkpt><trkpt lat="42.2908114" lon="14.2805411"><ele>174.66666666666666</ele><time>2026-05-01T09:18:07.943Z</time></trkpt><trkpt lat="42.2907966" lon="14.2804416"><ele>176.83333333333331</ele><time>2026-05-01T09:18:08.933Z</time></trkpt><trkpt lat="42.2907666" lon="14.2803561"><ele>179.0</ele><time>2026-05-01T09:18:09.974Z</time></trkpt><trkpt lat="42.2907284" lon="14.2802639"><ele>178.16666666666666</ele><time>2026-05-01T09:18:10.941Z</time></trkpt><trkpt lat="42.290685" lon="14.2801695"><ele>177.33333333333331</ele><time>2026-05-01T09:18:11.932Z</time></trkpt><trkpt lat="42.2906405" lon="14.2800763"><ele>176.5</ele><time>2026-05-01T09:18:12.939Z</time></trkpt><trkpt lat="42.2905945" lon="14.27998"><ele>175.66666666666666</ele><time>2026-05-01T09:18:13.935Z</time></trkpt><trkpt lat="42.2905594" lon="14.2798813"><ele>174.83333333333334</ele><time>2026-05-01T09:18:14.954Z</time></trkpt><trkpt lat="42.2905333" lon="14.2797801"><ele>174.0</ele><time>2026-05-01T09:18:15.94Z</time></trkpt><trkpt lat="42.2905117" lon="14.279673"><ele>177.79999999999998</ele><time>2026-05-01T09:18:16.943Z</time></trkpt><trkpt lat="42.2904888" lon="14.2795657"><ele>181.6</ele><time>2026-05-01T09:18:17.939Z</time></trkpt><trkpt lat="42.2904685" lon="14.2794486"><ele>185.4</ele><time>2026-05-01T09:18:18.94Z</time></trkpt><trkpt lat="42.2904474" lon="14.2793425"><ele>189.2</ele><time>2026-05-01T09:18:19.94Z</time></trkpt><trkpt lat="42.2903716" lon="14.2792061"><ele>193.0</ele><time>2026-05-01T09:18:21.942Z</time></trkpt><trkpt lat="42.2903086" lon="14.2791528"><ele>192.99999999999997</ele><time>2026-05-01T09:18:22.934Z</time></trkpt><trkpt lat="42.2902312" lon="14.2791006"><ele>193.0</ele><time>2026-05-01T09:18:23.946Z</time></trkpt><trkpt lat="42.2901609" lon="14.2790563"><ele>193.0</ele><time>2026-05-01T09:18:24.932Z</time></trkpt><trkpt lat="42.2900907" lon="14.2789963"><ele>193.0</ele><time>2026-05-01T09:18:25.935Z</time></trkpt><trkpt lat="42.2900295" lon="14.278927"><ele>192.99999999999997</ele><time>2026-05-01T09:18:26.936Z</time></trkpt><trkpt lat="42.2899883" lon="14.2788353"><ele>193.0</ele><time>2026-05-01T09:18:27.93Z</time></trkpt><trkpt lat="42.2899637" lon="14.278715"><ele>194.60000000000002</ele><time>2026-05-01T09:18:28.936Z</time></trkpt><trkpt lat="42.2899341" lon="14.2785869"><ele>196.20000000000002</ele><time>2026-05-01T09:18:29.941Z</time></trkpt><trkpt lat="42.2898933" lon="14.2784569"><ele>197.8</ele><time>2026-05-01T09:18:30.956Z</time></trkpt><trkpt lat="42.2898608" lon="14.2783354"><ele>199.4</ele><time>2026-05-01T09:18:31.942Z</time></trkpt><trkpt lat="42.2898458" lon="14.2782244"><ele>201.0</ele><time>2026-05-01T09:18:32.952Z</time></trkpt><trkpt lat="42.2898397" lon="14.2781084"><ele>200.60000000000002</ele><time>2026-05-01T09:18:33.94Z</time></trkpt><trkpt lat="42.2898288" lon="14.2779985"><ele>200.2</ele><time>2026-05-01T09:18:34.938Z</time></trkpt><trkpt lat="42.2897997" lon="14.2778886"><ele>199.8</ele><time>2026-05-01T09:18:35.935Z</time></trkpt><trkpt lat="42.2897592" lon="14.2777723"><ele>199.39999999999998</ele><time>2026-05-01T09:18:36.938Z</time></trkpt><trkpt lat="42.2897129" lon="14.2776165"><ele>199.0</ele><time>2026-05-01T09:18:37.939Z</time></trkpt><trkpt lat="42.2896665" lon="14.2774459"><ele>199.0</ele><time>2026-05-01T09:18:38.939Z</time></trkpt><trkpt lat="42.2896269" lon="14.2772758"><ele>199.0</ele><time>2026-05-01T09:18:39.927Z</time></trkpt><trkpt lat="42.2895998" lon="14.2771077"><ele>199.0</ele><time>2026-05-01T09:18:40.935Z</time></trkpt><trkpt lat="42.2895825" lon="14.2769445"><ele>199.0</ele><time>2026-05-01T09:18:41.936Z</time></trkpt><trkpt lat="42.2895788" lon="14.276777"><ele>200.79999999999998</ele><time>2026-05-01T09:18:42.944Z</time></trkpt><trkpt lat="42.2895635" lon="14.2766083"><ele>202.6</ele><time>2026-05-01T09:18:43.936Z</time></trkpt><trkpt lat="42.2895418" lon="14.2764595"><ele>204.4</ele><time>2026-05-01T09:18:44.946Z</time></trkpt><trkpt lat="42.2895104" lon="14.276322"><ele>206.2</ele><time>2026-05-01T09:18:45.94Z</time></trkpt><trkpt lat="42.2894899" lon="14.276208"><ele>208.0</ele><time>2026-05-01T09:18:46.934Z</time></trkpt><trkpt lat="42.2894826" lon="14.2761117"><ele>208.99999999999997</ele><time>2026-05-01T09:18:47.938Z</time></trkpt><trkpt lat="42.2894971" lon="14.2760201"><ele>210.0</ele><time>2026-05-01T09:18:48.928Z</time></trkpt><trkpt lat="42.2894481" lon="14.2759405"><ele>211.0</ele><time>2026-05-01T09:18:50.928Z</time></trkpt><trkpt lat="42.2893531" lon="14.2759396"><ele>212.0</ele><time>2026-05-01T09:18:52.938Z</time></trkpt><trkpt lat="42.2892644" lon="14.2759377"><ele>212.99999999999997</ele><time>2026-05-01T09:18:54.94Z</time></trkpt><trkpt lat="42.289197" lon="14.2759265"><ele>214.0</ele><time>2026-05-01T09:18:56.944Z</time></trkpt><trkpt lat="42.2891234" lon="14.2759136"><ele>213.99999999999997</ele><time>2026-05-01T09:18:59.934Z</time></trkpt><trkpt lat="42.2890474" lon="14.2759147"><ele>214.0</ele><time>2026-05-01T09:19:22.942Z</time></trkpt><trkpt lat="42.2889786" lon="14.2758913"><ele>214.0</ele><time>2026-05-01T09:20:01.943Z</time></trkpt><trkpt lat="42.2889183" lon="14.2758592"><ele>214.0</ele><time>2026-05-01T09:20:04.95Z</time></trkpt><trkpt lat="42.2888407" lon="14.2758151"><ele>213.99999999999997</ele><time>2026-05-01T09:20:06.941Z</time></trkpt><trkpt lat="42.2887232" lon="14.2757709"><ele>214.0</ele><time>2026-05-01T09:20:08.94Z</time></trkpt><trkpt lat="42.2886596" lon="14.2757393"><ele>214.33333333333331</ele><time>2026-05-01T09:20:09.941Z</time></trkpt><trkpt lat="42.2886028" lon="14.2756992"><ele>214.66666666666666</ele><time>2026-05-01T09:20:10.945Z</time></trkpt><trkpt lat="42.2885066" lon="14.2755944"><ele>215.0</ele><time>2026-05-01T09:20:12.947Z</time></trkpt><trkpt lat="42.2884045" lon="14.2755158"><ele>215.33333333333331</ele><time>2026-05-01T09:20:14.937Z</time></trkpt><trkpt lat="42.2883371" lon="14.2754951"><ele>215.66666666666666</ele><time>2026-05-01T09:20:15.94Z</time></trkpt><trkpt lat="42.2882698" lon="14.2754827"><ele>216.0</ele><time>2026-05-01T09:20:16.941Z</time></trkpt><trkpt lat="42.2882004" lon="14.2754882"><ele>216.0</ele><time>2026-05-01T09:20:17.944Z</time></trkpt><trkpt lat="42.2881315" lon="14.2754975"><ele>216.0</ele><time>2026-05-01T09:20:18.938Z</time></trkpt><trkpt lat="42.2880653" lon="14.2755168"><ele>216.0</ele><time>2026-05-01T09:20:19.931Z</time></trkpt><trkpt lat="42.2879988" lon="14.2755347"><ele>216.0</ele><time>2026-05-01T09:20:20.937Z</time></trkpt><trkpt lat="42.287931" lon="14.2755469"><ele>216.0</ele><time>2026-05-01T09:20:21.945Z</time></trkpt><trkpt lat="42.2878624" lon="14.2755629"><ele>216.0</ele><time>2026-05-01T09:20:22.972Z</time></trkpt><trkpt lat="42.2877366" lon="14.2755568"><ele>213.0</ele><time>2026-05-01T09:20:24.953Z</time></trkpt><trkpt lat="42.2876334" lon="14.2754926"><ele>210.0</ele><time>2026-05-01T09:20:26.931Z</time></trkpt><trkpt lat="42.2875601" lon="14.2753853"><ele>207.0</ele><time>2026-05-01T09:20:28.935Z</time></trkpt><trkpt lat="42.2875147" lon="14.275267"><ele>204.0</ele><time>2026-05-01T09:20:30.938Z</time></trkpt><trkpt lat="42.2874556" lon="14.2751087"><ele>204.0</ele><time>2026-05-01T09:20:32.941Z</time></trkpt><trkpt lat="42.2874316" lon="14.2749995"><ele>204.0</ele><time>2026-05-01T09:20:33.941Z</time></trkpt><trkpt lat="42.2873972" lon="14.2749168"><ele>204.0</ele><time>2026-05-01T09:20:34.955Z</time></trkpt><trkpt lat="42.2873581" lon="14.2748415"><ele>204.0</ele><time>2026-05-01T09:20:35.938Z</time></trkpt><trkpt lat="42.2872957" lon="14.2747214"><ele>204.0</ele><time>2026-05-01T09:20:37.941Z</time></trkpt><trkpt lat="42.2872164" lon="14.2747095"><ele>204.0</ele><time>2026-05-01T09:20:39.937Z</time></trkpt><trkpt lat="42.2871317" lon="14.2747329"><ele>204.2</ele><time>2026-05-01T09:20:41.939Z</time></trkpt><trkpt lat="42.2870318" lon="14.2747657"><ele>204.39999999999998</ele><time>2026-05-01T09:20:43.938Z</time></trkpt><trkpt lat="42.2869339" lon="14.2747885"><ele>204.6</ele><time>2026-05-01T09:20:45.941Z</time></trkpt><trkpt lat="42.2868225" lon="14.2748133"><ele>204.8</ele><time>2026-05-01T09:20:47.941Z</time></trkpt><trkpt lat="42.2867177" lon="14.2748385"><ele>205.0</ele><time>2026-05-01T09:20:49.932Z</time></trkpt><trkpt lat="42.2866285" lon="14.2748694"><ele>204.33333333333331</ele><time>2026-05-01T09:20:51.938Z</time></trkpt><trkpt lat="42.2865523" lon="14.2748683"><ele>203.66666666666666</ele><time>2026-05-01T09:20:53.945Z</time></trkpt><trkpt lat="42.286492" lon="14.2748358"><ele>203.0</ele><time>2026-05-01T09:20:55.937Z</time></trkpt><trkpt lat="42.286423" lon="14.2747684"><ele>202.33333333333331</ele><time>2026-05-01T09:20:57.932Z</time></trkpt><trkpt lat="42.2863453" lon="14.2746887"><ele>201.66666666666666</ele><time>2026-05-01T09:20:59.931Z</time></trkpt><trkpt lat="42.2862649" lon="14.2746091"><ele>201.0</ele><time>2026-05-01T09:21:01.942Z</time></trkpt><trkpt lat="42.2862131" lon="14.2745145"><ele>201.0</ele><time>2026-05-01T09:21:03.95Z</time></trkpt><trkpt lat="42.2861619" lon="14.2744021"><ele>201.0</ele><time>2026-05-01T09:21:05.934Z</time></trkpt><trkpt lat="42.2861154" lon="14.2743026"><ele>201.0</ele><time>2026-05-01T09:21:07.942Z</time></trkpt><trkpt lat="42.286082" lon="14.2741905"><ele>201.0</ele><time>2026-05-01T09:21:09.941Z</time></trkpt><trkpt lat="42.2860754" lon="14.2740674"><ele>201.0</ele><time>2026-05-01T09:21:11.937Z</time></trkpt><trkpt lat="42.2861109" lon="14.273936"><ele>203.16666666666666</ele><time>2026-05-01T09:21:13.936Z</time></trkpt><trkpt lat="42.2861503" lon="14.2738141"><ele>205.33333333333331</ele><time>2026-05-01T09:21:15.933Z</time></trkpt><trkpt lat="42.2861643" lon="14.2737311"><ele>207.5</ele><time>2026-05-01T09:21:17.937Z</time></trkpt><trkpt lat="42.2861476" lon="14.2736356"><ele>209.66666666666666</ele><time>2026-05-01T09:21:19.935Z</time></trkpt><trkpt lat="42.2861296" lon="14.2735034"><ele>211.83333333333331</ele><time>2026-05-01T09:21:21.936Z</time></trkpt><trkpt lat="42.286086" lon="14.273406"><ele>214.0</ele><time>2026-05-01T09:21:23.946Z</time></trkpt><trkpt lat="42.286008" lon="14.2732961"><ele>214.0</ele><time>2026-05-01T09:21:25.941Z</time></trkpt><trkpt lat="42.2859217" lon="14.273158"><ele>213.99999999999997</ele><time>2026-05-01T09:21:27.931Z</time></trkpt><trkpt lat="42.2858417" lon="14.2730225"><ele>213.99999999999997</ele><time>2026-05-01T09:21:29.941Z</time></trkpt><trkpt lat="42.2858007" lon="14.2729489"><ele>214.0</ele><time>2026-05-01T09:21:30.94Z</time></trkpt><trkpt lat="42.2857546" lon="14.2728822"><ele>214.0</ele><time>2026-05-01T09:21:31.941Z</time></trkpt><trkpt lat="42.2856926" lon="14.272818"><ele>213.49999999999997</ele><time>2026-05-01T09:21:32.934Z</time></trkpt><trkpt lat="42.285627" lon="14.272751"><ele>213.0</ele><time>2026-05-01T09:21:33.935Z</time></trkpt><trkpt lat="42.2855633" lon="14.2726823"><ele>212.5</ele><time>2026-05-01T09:21:34.933Z</time></trkpt><trkpt lat="42.2855169" lon="14.2726149"><ele>212.0</ele><time>2026-05-01T09:21:35.93Z</time></trkpt><trkpt lat="42.2854614" lon="14.2724705"><ele>211.49999999999997</ele><time>2026-05-01T09:21:37.928Z</time></trkpt><trkpt lat="42.285427" lon="14.272372"><ele>211.0</ele><time>2026-05-01T09:21:38.939Z</time></trkpt><trkpt lat="42.2853909" lon="14.2722696"><ele>212.99999999999997</ele><time>2026-05-01T09:21:39.934Z</time></trkpt><trkpt lat="42.2853653" lon="14.2721664"><ele>215.0</ele><time>2026-05-01T09:21:40.945Z</time></trkpt><trkpt lat="42.2853456" lon="14.2720602"><ele>217.0</ele><time>2026-05-01T09:21:41.928Z</time></trkpt><trkpt lat="42.285329" lon="14.2719535"><ele>219.0</ele><time>2026-05-01T09:21:42.932Z</time></trkpt><trkpt lat="42.2853208" lon="14.2718474"><ele>220.99999999999997</ele><time>2026-05-01T09:21:43.937Z</time></trkpt><trkpt lat="42.2853153" lon="14.2717426"><ele>223.0</ele><time>2026-05-01T09:21:44.936Z</time></trkpt><trkpt lat="42.2853155" lon="14.2716334"><ele>222.99999999999997</ele><time>2026-05-01T09:21:45.932Z</time></trkpt><trkpt lat="42.2853101" lon="14.2715321"><ele>223.0</ele><time>2026-05-01T09:21:46.937Z</time></trkpt><trkpt lat="42.2853078" lon="14.2714245"><ele>223.0</ele><time>2026-05-01T09:21:47.939Z</time></trkpt><trkpt lat="42.285301" lon="14.2713151"><ele>223.0</ele><time>2026-05-01T09:21:48.94Z</time></trkpt><trkpt lat="42.2852946" lon="14.2712107"><ele>222.99999999999997</ele><time>2026-05-01T09:21:49.93Z</time></trkpt><trkpt lat="42.2852941" lon="14.2711035"><ele>223.0</ele><time>2026-05-01T09:21:50.935Z</time></trkpt><trkpt lat="42.2852965" lon="14.271001"><ele>224.57142857142856</ele><time>2026-05-01T09:21:51.933Z</time></trkpt><trkpt lat="42.2852968" lon="14.2709024"><ele>226.14285714285714</ele><time>2026-05-01T09:21:52.942Z</time></trkpt><trkpt lat="42.285302" lon="14.2708039"><ele>227.71428571428572</ele><time>2026-05-01T09:21:53.936Z</time></trkpt><trkpt lat="42.2853145" lon="14.270713"><ele>229.28571428571428</ele><time>2026-05-01T09:21:54.947Z</time></trkpt><trkpt lat="42.2853243" lon="14.2706111"><ele>230.8571428571429</ele><time>2026-05-01T09:21:55.941Z</time></trkpt><trkpt lat="42.2853307" lon="14.2705113"><ele>232.42857142857144</ele><time>2026-05-01T09:21:56.94Z</time></trkpt><trkpt lat="42.285334" lon="14.2704148"><ele>234.0</ele><time>2026-05-01T09:21:57.937Z</time></trkpt><trkpt lat="42.2853377" lon="14.2703197"><ele>235.2857142857143</ele><time>2026-05-01T09:21:58.937Z</time></trkpt><trkpt lat="42.285347" lon="14.2702239"><ele>236.5714285714286</ele><time>2026-05-01T09:21:59.94Z</time></trkpt><trkpt lat="42.2853565" lon="14.2701245"><ele>237.85714285714286</ele><time>2026-05-01T09:22:00.936Z</time></trkpt><trkpt lat="42.2853704" lon="14.2700178"><ele>239.14285714285717</ele><time>2026-05-01T09:22:01.937Z</time></trkpt><trkpt lat="42.285392" lon="14.2699181"><ele>240.42857142857144</ele><time>2026-05-01T09:22:02.939Z</time></trkpt><trkpt lat="42.2854169" lon="14.2698315"><ele>241.71428571428572</ele><time>2026-05-01T09:22:03.936Z</time></trkpt><trkpt lat="42.2854398" lon="14.2697494"><ele>243.0</ele><time>2026-05-01T09:22:04.938Z</time></trkpt><trkpt lat="42.2854749" lon="14.2695974"><ele>244.33333333333334</ele><time>2026-05-01T09:22:06.94Z</time></trkpt><trkpt lat="42.2855005" lon="14.2694313"><ele>245.66666666666669</ele><time>2026-05-01T09:22:08.936Z</time></trkpt><trkpt lat="42.2855152" lon="14.2693468"><ele>247.0</ele><time>2026-05-01T09:22:09.938Z</time></trkpt><trkpt lat="42.2855251" lon="14.2692557"><ele>248.33333333333334</ele><time>2026-05-01T09:22:10.93Z</time></trkpt><trkpt lat="42.2855484" lon="14.2691626"><ele>249.66666666666669</ele><time>2026-05-01T09:22:11.945Z</time></trkpt><trkpt lat="42.2855678" lon="14.2690721"><ele>251.0</ele><time>2026-05-01T09:22:12.934Z</time></trkpt><trkpt lat="42.2855872" lon="14.2689797"><ele>255.28571428571425</ele><time>2026-05-01T09:22:13.94Z</time></trkpt><trkpt lat="42.2856044" lon="14.2688863"><ele>259.57142857142856</ele><time>2026-05-01T09:22:14.935Z</time></trkpt><trkpt lat="42.285615" lon="14.2687977"><ele>263.8571428571429</ele><time>2026-05-01T09:22:15.936Z</time></trkpt><trkpt lat="42.2856205" lon="14.2687019"><ele>268.1428571428571</ele><time>2026-05-01T09:22:16.933Z</time></trkpt><trkpt lat="42.2856305" lon="14.2686129"><ele>272.42857142857144</ele><time>2026-05-01T09:22:17.938Z</time></trkpt><trkpt lat="42.2856409" lon="14.2685278"><ele>276.7142857142857</ele><time>2026-05-01T09:22:18.942Z</time></trkpt><trkpt lat="42.2856496" lon="14.2684367"><ele>281.0</ele><time>2026-05-01T09:22:19.939Z</time></trkpt><trkpt lat="42.2856605" lon="14.268346"><ele>281.0</ele><time>2026-05-01T09:22:20.94Z</time></trkpt><trkpt lat="42.2856741" lon="14.2682228"><ele>281.0</ele><time>2026-05-01T09:22:22.974Z</time></trkpt><trkpt lat="42.2856721" lon="14.2681358"><ele>281.0</ele><time>2026-05-01T09:22:24.937Z</time></trkpt><trkpt lat="42.2856289" lon="14.2679518"><ele>281.0</ele><time>2026-05-01T09:22:26.938Z</time></trkpt><trkpt lat="42.2855833" lon="14.2678405"><ele>281.0</ele><time>2026-05-01T09:22:27.934Z</time></trkpt><trkpt lat="42.2855252" lon="14.2677284"><ele>280.6</ele><time>2026-05-01T09:22:28.939Z</time></trkpt><trkpt lat="42.2854594" lon="14.2676067"><ele>280.20000000000005</ele><time>2026-05-01T09:22:29.938Z</time></trkpt><trkpt lat="42.2853912" lon="14.2674796"><ele>279.79999999999995</ele><time>2026-05-01T09:22:30.932Z</time></trkpt><trkpt lat="42.2853224" lon="14.2673574"><ele>279.4</ele><time>2026-05-01T09:22:31.933Z</time></trkpt><trkpt lat="42.2852536" lon="14.2672467"><ele>279.0</ele><time>2026-05-01T09:22:32.935Z</time></trkpt><trkpt lat="42.2851818" lon="14.2671455"><ele>280.0</ele><time>2026-05-01T09:22:33.937Z</time></trkpt><trkpt lat="42.2850988" lon="14.2670672"><ele>281.0</ele><time>2026-05-01T09:22:34.935Z</time></trkpt><trkpt lat="42.2850089" lon="14.267004"><ele>282.0</ele><time>2026-05-01T09:22:35.934Z</time></trkpt><trkpt lat="42.284938" lon="14.2669379"><ele>283.0</ele><time>2026-05-01T09:22:36.945Z</time></trkpt><trkpt lat="42.2848888" lon="14.2668616"><ele>284.0</ele><time>2026-05-01T09:22:37.932Z</time></trkpt><trkpt lat="42.2848435" lon="14.2667925"><ele>285.0</ele><time>2026-05-01T09:22:38.94Z</time></trkpt><trkpt lat="42.2848079" lon="14.2667161"><ele>285.0</ele><time>2026-05-01T09:22:39.948Z</time></trkpt><trkpt lat="42.2848037" lon="14.2665742"><ele>285.0</ele><time>2026-05-01T09:22:41.929Z</time></trkpt><trkpt lat="42.2848438" lon="14.2664818"><ele>285.0</ele><time>2026-05-01T09:22:42.941Z</time></trkpt><trkpt lat="42.2848906" lon="14.2663752"><ele>285.0</ele><time>2026-05-01T09:22:43.932Z</time></trkpt><trkpt lat="42.284939" lon="14.266259"><ele>285.0</ele><time>2026-05-01T09:22:44.932Z</time></trkpt><trkpt lat="42.2849946" lon="14.2661409"><ele>284.8</ele><time>2026-05-01T09:22:45.931Z</time></trkpt><trkpt lat="42.2850595" lon="14.2660302"><ele>284.6</ele><time>2026-05-01T09:22:46.943Z</time></trkpt><trkpt lat="42.2851124" lon="14.2659248"><ele>284.4</ele><time>2026-05-01T09:22:47.954Z</time></trkpt><trkpt lat="42.2851653" lon="14.2658284"><ele>284.2</ele><time>2026-05-01T09:22:48.935Z</time></trkpt><trkpt lat="42.2852215" lon="14.2657306"><ele>284.0</ele><time>2026-05-01T09:22:49.935Z</time></trkpt><trkpt lat="42.2852815" lon="14.2656486"><ele>282.6666666666667</ele><time>2026-05-01T09:22:50.937Z</time></trkpt><trkpt lat="42.2853378" lon="14.2655642"><ele>281.33333333333337</ele><time>2026-05-01T09:22:51.936Z</time></trkpt><trkpt lat="42.2853817" lon="14.2654784"><ele>280.0</ele><time>2026-05-01T09:22:52.931Z</time></trkpt><trkpt lat="42.2854355" lon="14.2654009"><ele>278.6666666666667</ele><time>2026-05-01T09:22:53.941Z</time></trkpt><trkpt lat="42.285488" lon="14.2653229"><ele>277.3333333333333</ele><time>2026-05-01T09:22:54.934Z</time></trkpt><trkpt lat="42.285544" lon="14.2652523"><ele>276.0</ele><time>2026-05-01T09:22:55.946Z</time></trkpt><trkpt lat="42.2856051" lon="14.2651939"><ele>274.2</ele><time>2026-05-01T09:22:56.934Z</time></trkpt><trkpt lat="42.2856764" lon="14.2651423"><ele>272.40000000000003</ele><time>2026-05-01T09:22:57.941Z</time></trkpt><trkpt lat="42.2857389" lon="14.2650919"><ele>270.6</ele><time>2026-05-01T09:22:58.935Z</time></trkpt><trkpt lat="42.2858043" lon="14.2649733"><ele>268.8</ele><time>2026-05-01T09:23:00.938Z</time></trkpt><trkpt lat="42.2857618" lon="14.264797"><ele>267.0</ele><time>2026-05-01T09:23:02.943Z</time></trkpt><trkpt lat="42.2857207" lon="14.2646678"><ele>265.5</ele><time>2026-05-01T09:23:03.941Z</time></trkpt><trkpt lat="42.2856621" lon="14.2645335"><ele>264.0</ele><time>2026-05-01T09:23:04.939Z</time></trkpt><trkpt lat="42.2855963" lon="14.2643946"><ele>262.5</ele><time>2026-05-01T09:23:05.941Z</time></trkpt><trkpt lat="42.285522" lon="14.264245"><ele>261.0</ele><time>2026-05-01T09:23:06.939Z</time></trkpt><trkpt lat="42.2854497" lon="14.2640942"><ele>260.5</ele><time>2026-05-01T09:23:07.938Z</time></trkpt><trkpt lat="42.2853817" lon="14.2639414"><ele>260.0</ele><time>2026-05-01T09:23:08.94Z</time></trkpt><trkpt lat="42.2853211" lon="14.2637913"><ele>259.5</ele><time>2026-05-01T09:23:09.939Z</time></trkpt><trkpt lat="42.2852772" lon="14.2636482"><ele>259.0</ele><time>2026-05-01T09:23:10.942Z</time></trkpt><trkpt lat="42.2852531" lon="14.2635074"><ele>259.0</ele><time>2026-05-01T09:23:11.935Z</time></trkpt><trkpt lat="42.2852599" lon="14.2633658"><ele>259.0</ele><time>2026-05-01T09:23:12.934Z</time></trkpt><trkpt lat="42.2852887" lon="14.2632181"><ele>259.0</ele><time>2026-05-01T09:23:13.945Z</time></trkpt><trkpt lat="42.2853195" lon="14.2630757"><ele>259.0</ele><time>2026-05-01T09:23:14.938Z</time></trkpt><trkpt lat="42.2853412" lon="14.2629402"><ele>259.0</ele><time>2026-05-01T09:23:15.933Z</time></trkpt><trkpt lat="42.2853296" lon="14.2627997"><ele>258.0</ele><time>2026-05-01T09:23:16.934Z</time></trkpt><trkpt lat="42.2852797" lon="14.262662"><ele>257.0</ele><time>2026-05-01T09:23:17.935Z</time></trkpt><trkpt lat="42.2852096" lon="14.2625169"><ele>256.0</ele><time>2026-05-01T09:23:18.931Z</time></trkpt><trkpt lat="42.2851253" lon="14.2623636"><ele>255.0</ele><time>2026-05-01T09:23:19.938Z</time></trkpt><trkpt lat="42.2850467" lon="14.2622086"><ele>251.66666666666669</ele><time>2026-05-01T09:23:20.934Z</time></trkpt><trkpt lat="42.2849598" lon="14.2620346"><ele>248.33333333333334</ele><time>2026-05-01T09:23:21.944Z</time></trkpt><trkpt lat="42.2848674" lon="14.2618575"><ele>245.0</ele><time>2026-05-01T09:23:22.926Z</time></trkpt><trkpt lat="42.2847861" lon="14.2616802"><ele>246.25</ele><time>2026-05-01T09:23:23.943Z</time></trkpt><trkpt lat="42.2847171" lon="14.2615204"><ele>247.5</ele><time>2026-05-01T09:23:24.932Z</time></trkpt><trkpt lat="42.2846483" lon="14.2613791"><ele>248.75</ele><time>2026-05-01T09:23:25.932Z</time></trkpt><trkpt lat="42.2845899" lon="14.2612424"><ele>250.0</ele><time>2026-05-01T09:23:26.945Z</time></trkpt><trkpt lat="42.2845486" lon="14.2611149"><ele>250.0</ele><time>2026-05-01T09:23:27.937Z</time></trkpt><trkpt lat="42.2845478" lon="14.2609917"><ele>250.0</ele><time>2026-05-01T09:23:28.949Z</time></trkpt><trkpt lat="42.2845762" lon="14.2608801"><ele>250.0</ele><time>2026-05-01T09:23:29.937Z</time></trkpt><trkpt lat="42.2846344" lon="14.2607986"><ele>250.0</ele><time>2026-05-01T09:23:30.971Z</time></trkpt><trkpt lat="42.2847189" lon="14.2607438"><ele>250.0</ele><time>2026-05-01T09:23:31.936Z</time></trkpt><trkpt lat="42.2848141" lon="14.2606975"><ele>248.0</ele><time>2026-05-01T09:23:32.937Z</time></trkpt><trkpt lat="42.2849289" lon="14.2606645"><ele>246.0</ele><time>2026-05-01T09:23:33.935Z</time></trkpt><trkpt lat="42.2850533" lon="14.2606479"><ele>244.0</ele><time>2026-05-01T09:23:34.947Z</time></trkpt><trkpt lat="42.2851875" lon="14.2606367"><ele>242.0</ele><time>2026-05-01T09:23:35.939Z</time></trkpt><trkpt lat="42.2853315" lon="14.2606186"><ele>242.75</ele><time>2026-05-01T09:23:36.945Z</time></trkpt><trkpt lat="42.2854639" lon="14.2605974"><ele>243.5</ele><time>2026-05-01T09:23:37.937Z</time></trkpt><trkpt lat="42.2855997" lon="14.2605811"><ele>244.25</ele><time>2026-05-01T09:23:38.941Z</time></trkpt><trkpt lat="42.2857361" lon="14.2605765"><ele>245.0</ele><time>2026-05-01T09:23:39.939Z</time></trkpt><trkpt lat="42.2858753" lon="14.2605958"><ele>244.75</ele><time>2026-05-01T09:23:40.943Z</time></trkpt><trkpt lat="42.2860073" lon="14.260637"><ele>244.5</ele><time>2026-05-01T09:23:41.938Z</time></trkpt><trkpt lat="42.2861354" lon="14.2606915"><ele>244.25</ele><time>2026-05-01T09:23:42.947Z</time></trkpt><trkpt lat="42.2862697" lon="14.2607388"><ele>244.0</ele><time>2026-05-01T09:23:43.938Z</time></trkpt><trkpt lat="42.2863938" lon="14.2607546"><ele>244.79999999999998</ele><time>2026-05-01T09:23:44.937Z</time></trkpt><trkpt lat="42.286515" lon="14.2607565"><ele>245.59999999999997</ele><time>2026-05-01T09:23:45.937Z</time></trkpt><trkpt lat="42.2866322" lon="14.2607404"><ele>246.4</ele><time>2026-05-01T09:23:46.963Z</time></trkpt><trkpt lat="42.2867284" lon="14.2607029"><ele>247.2</ele><time>2026-05-01T09:23:47.93Z</time></trkpt><trkpt lat="42.2868072" lon="14.2606461"><ele>248.0</ele><time>2026-05-01T09:23:48.933Z</time></trkpt><trkpt lat="42.2868763" lon="14.260578"><ele>251.0</ele><time>2026-05-01T09:23:49.934Z</time></trkpt><trkpt lat="42.2869226" lon="14.2604852"><ele>254.0</ele><time>2026-05-01T09:23:50.933Z</time></trkpt><trkpt lat="42.2869367" lon="14.2603727"><ele>257.0</ele><time>2026-05-01T09:23:51.932Z</time></trkpt><trkpt lat="42.2869206" lon="14.2602412"><ele>260.0</ele><time>2026-05-01T09:23:52.932Z</time></trkpt><trkpt lat="42.2868821" lon="14.2601044"><ele>263.0</ele><time>2026-05-01T09:23:53.937Z</time></trkpt><trkpt lat="42.2868248" lon="14.2599671"><ele>263.0</ele><time>2026-05-01T09:23:54.938Z</time></trkpt><trkpt lat="42.2867609" lon="14.2598412"><ele>263.0</ele><time>2026-05-01T09:23:55.936Z</time></trkpt><trkpt lat="42.2866761" lon="14.2597218"><ele>263.0</ele><time>2026-05-01T09:23:56.942Z</time></trkpt><trkpt lat="42.2865786" lon="14.2596216"><ele>263.0</ele><time>2026-05-01T09:23:57.932Z</time></trkpt><trkpt lat="42.2864835" lon="14.2595525"><ele>264.25</ele><time>2026-05-01T09:23:58.943Z</time></trkpt><trkpt lat="42.2863701" lon="14.2594905"><ele>265.5</ele><time>2026-05-01T09:23:59.933Z</time></trkpt><trkpt lat="42.2862545" lon="14.2594254"><ele>266.75</ele><time>2026-05-01T09:24:00.936Z</time></trkpt><trkpt lat="42.2861451" lon="14.2593486"><ele>268.0</ele><time>2026-05-01T09:24:01.941Z</time></trkpt><trkpt lat="42.2860358" lon="14.2592637"><ele>268.0</ele><time>2026-05-01T09:24:02.931Z</time></trkpt><trkpt lat="42.2859323" lon="14.2591683"><ele>268.0</ele><time>2026-05-01T09:24:03.95Z</time></trkpt><trkpt lat="42.285847" lon="14.2590713"><ele>268.0</ele><time>2026-05-01T09:24:04.97Z</time></trkpt><trkpt lat="42.2857722" lon="14.2589638"><ele>268.0</ele><time>2026-05-01T09:24:05.941Z</time></trkpt><trkpt lat="42.285709" lon="14.2588455"><ele>270.66666666666663</ele><time>2026-05-01T09:24:06.939Z</time></trkpt><trkpt lat="42.2856663" lon="14.2587385"><ele>273.3333333333333</ele><time>2026-05-01T09:24:07.935Z</time></trkpt><trkpt lat="42.2856582" lon="14.2586404"><ele>276.0</ele><time>2026-05-01T09:24:08.938Z</time></trkpt><trkpt lat="42.2856785" lon="14.2585503"><ele>278.6666666666667</ele><time>2026-05-01T09:24:09.946Z</time></trkpt><trkpt lat="42.2857344" lon="14.2584659"><ele>281.33333333333337</ele><time>2026-05-01T09:24:10.945Z</time></trkpt><trkpt lat="42.2858076" lon="14.2584124"><ele>284.0</ele><time>2026-05-01T09:24:11.94Z</time></trkpt><trkpt lat="42.2858908" lon="14.2583958"><ele>284.0</ele><time>2026-05-01T09:24:12.936Z</time></trkpt><trkpt lat="42.2859758" lon="14.2584156"><ele>284.0</ele><time>2026-05-01T09:24:13.938Z</time></trkpt><trkpt lat="42.2860664" lon="14.2584624"><ele>284.0</ele><time>2026-05-01T09:24:14.933Z</time></trkpt><trkpt lat="42.2861569" lon="14.2585173"><ele>284.0</ele><time>2026-05-01T09:24:15.941Z</time></trkpt><trkpt lat="42.2862499" lon="14.2585997"><ele>284.0</ele><time>2026-05-01T09:24:16.942Z</time></trkpt><trkpt lat="42.2863385" lon="14.2586706"><ele>284.0</ele><time>2026-05-01T09:24:17.94Z</time></trkpt><trkpt lat="42.2864093" lon="14.2587352"><ele>284.0</ele><time>2026-05-01T09:24:18.935Z</time></trkpt><trkpt lat="42.2864795" lon="14.2587882"><ele>284.0</ele><time>2026-05-01T09:24:19.983Z</time></trkpt><trkpt lat="42.2865647" lon="14.2588411"><ele>284.0</ele><time>2026-05-01T09:24:21.947Z</time></trkpt><trkpt lat="42.286623" lon="14.2588815"><ele>284.0</ele><time>2026-05-01T09:24:25.939Z</time></trkpt><trkpt lat="42.2866888" lon="14.2589261"><ele>284.0</ele><time>2026-05-01T09:25:33.937Z</time></trkpt><trkpt lat="42.2867475" lon="14.2589586"><ele>282.83333333333337</ele><time>2026-05-01T09:25:34.942Z</time></trkpt><trkpt lat="42.2868701" lon="14.2590258"><ele>281.6666666666667</ele><time>2026-05-01T09:25:36.937Z</time></trkpt><trkpt lat="42.2869426" lon="14.2590682"><ele>280.5</ele><time>2026-05-01T09:25:37.946Z</time></trkpt><trkpt lat="42.2870131" lon="14.2591155"><ele>279.3333333333333</ele><time>2026-05-01T09:25:38.938Z</time></trkpt><trkpt lat="42.2870812" lon="14.2591643"><ele>278.16666666666663</ele><time>2026-05-01T09:25:39.943Z</time></trkpt><trkpt lat="42.2871518" lon="14.2592151"><ele>277.0</ele><time>2026-05-01T09:25:40.936Z</time></trkpt><trkpt lat="42.2872262" lon="14.2592658"><ele>279.0</ele><time>2026-05-01T09:25:41.937Z</time></trkpt><trkpt lat="42.2873047" lon="14.2593129"><ele>281.0</ele><time>2026-05-01T09:25:42.937Z</time></trkpt><trkpt lat="42.28739" lon="14.2593649"><ele>283.0</ele><time>2026-05-01T09:25:43.948Z</time></trkpt><trkpt lat="42.2874806" lon="14.2594049"><ele>285.0</ele><time>2026-05-01T09:25:44.936Z</time></trkpt><trkpt lat="42.2875831" lon="14.2594308"><ele>287.0</ele><time>2026-05-01T09:25:45.936Z</time></trkpt><trkpt lat="42.2876867" lon="14.2594362"><ele>287.0</ele><time>2026-05-01T09:25:46.94Z</time></trkpt><trkpt lat="42.2877954" lon="14.2594171"><ele>287.0</ele><time>2026-05-01T09:25:47.943Z</time></trkpt><trkpt lat="42.2878994" lon="14.2593816"><ele>287.0</ele><time>2026-05-01T09:25:48.942Z</time></trkpt><trkpt lat="42.2880045" lon="14.2593214"><ele>287.0</ele><time>2026-05-01T09:25:49.934Z</time></trkpt><trkpt lat="42.288103" lon="14.2592492"><ele>287.0</ele><time>2026-05-01T09:25:50.94Z</time></trkpt><trkpt lat="42.2881955" lon="14.2591902"><ele>288.0</ele><time>2026-05-01T09:25:51.938Z</time></trkpt><trkpt lat="42.2882761" lon="14.259123"><ele>289.0</ele><time>2026-05-01T09:25:52.939Z</time></trkpt><trkpt lat="42.2883589" lon="14.2590386"><ele>290.0</ele><time>2026-05-01T09:25:53.938Z</time></trkpt><trkpt lat="42.2884347" lon="14.2589472"><ele>291.0</ele><time>2026-05-01T09:25:54.943Z</time></trkpt><trkpt lat="42.2885083" lon="14.2588491"><ele>292.0</ele><time>2026-05-01T09:25:55.933Z</time></trkpt><trkpt lat="42.2885938" lon="14.2587463"><ele>293.0</ele><time>2026-05-01T09:25:56.963Z</time></trkpt><trkpt lat="42.2886823" lon="14.258652"><ele>294.0</ele><time>2026-05-01T09:25:57.94Z</time></trkpt><trkpt lat="42.2887691" lon="14.2585613"><ele>295.0</ele><time>2026-05-01T09:25:58.933Z</time></trkpt><trkpt lat="42.2888489" lon="14.2584758"><ele>296.0</ele><time>2026-05-01T09:25:59.934Z</time></trkpt><trkpt lat="42.2889132" lon="14.2583847"><ele>297.0</ele><time>2026-05-01T09:26:00.931Z</time></trkpt><trkpt lat="42.2889738" lon="14.2583022"><ele>297.0</ele><time>2026-05-01T09:26:01.943Z</time></trkpt><trkpt lat="42.2890186" lon="14.258225"><ele>297.0</ele><time>2026-05-01T09:26:02.938Z</time></trkpt><trkpt lat="42.2890877" lon="14.2580999"><ele>297.0</ele><time>2026-05-01T09:26:04.941Z</time></trkpt><trkpt lat="42.2891504" lon="14.258052"><ele>297.0</ele><time>2026-05-01T09:26:07.946Z</time></trkpt><trkpt lat="42.2891696" lon="14.2579537"><ele>297.0</ele><time>2026-05-01T09:26:17.931Z</time></trkpt><trkpt lat="42.2890807" lon="14.257824"><ele>296.8</ele><time>2026-05-01T09:26:19.932Z</time></trkpt><trkpt lat="42.2890066" lon="14.2577542"><ele>296.6</ele><time>2026-05-01T09:26:20.946Z</time></trkpt><trkpt lat="42.2889273" lon="14.257673"><ele>296.40000000000003</ele><time>2026-05-01T09:26:21.935Z</time></trkpt><trkpt lat="42.2888517" lon="14.2575791"><ele>296.2</ele><time>2026-05-01T09:26:22.932Z</time></trkpt><trkpt lat="42.2887752" lon="14.2574806"><ele>296.0</ele><time>2026-05-01T09:26:23.933Z</time></trkpt><trkpt lat="42.2886899" lon="14.2573836"><ele>297.5</ele><time>2026-05-01T09:26:24.928Z</time></trkpt><trkpt lat="42.2885974" lon="14.2572836"><ele>299.0</ele><time>2026-05-01T09:26:25.951Z</time></trkpt><trkpt lat="42.2885091" lon="14.2572062"><ele>300.5</ele><time>2026-05-01T09:26:26.933Z</time></trkpt><trkpt lat="42.2884108" lon="14.2571346"><ele>302.0</ele><time>2026-05-01T09:26:27.934Z</time></trkpt><trkpt lat="42.288302" lon="14.2570725"><ele>302.0</ele><time>2026-05-01T09:26:28.942Z</time></trkpt><trkpt lat="42.2881902" lon="14.2570207"><ele>302.0</ele><time>2026-05-01T09:26:29.935Z</time></trkpt><trkpt lat="42.2880766" lon="14.2569574"><ele>302.0</ele><time>2026-05-01T09:26:30.943Z</time></trkpt><trkpt lat="42.2879669" lon="14.2568897"><ele>302.0</ele><time>2026-05-01T09:26:31.927Z</time></trkpt><trkpt lat="42.2878532" lon="14.2568257"><ele>302.75</ele><time>2026-05-01T09:26:32.942Z</time></trkpt><trkpt lat="42.2877328" lon="14.2567612"><ele>303.5</ele><time>2026-05-01T09:26:33.942Z</time></trkpt><trkpt lat="42.2876072" lon="14.256703"><ele>304.25</ele><time>2026-05-01T09:26:34.951Z</time></trkpt><trkpt lat="42.287483" lon="14.2566332"><ele>305.0</ele><time>2026-05-01T09:26:35.939Z</time></trkpt><trkpt lat="42.2873705" lon="14.2565357"><ele>305.0</ele><time>2026-05-01T09:26:36.942Z</time></trkpt><trkpt lat="42.2872657" lon="14.2564448"><ele>305.0</ele><time>2026-05-01T09:26:37.935Z</time></trkpt><trkpt lat="42.2871582" lon="14.2563481"><ele>305.0</ele><time>2026-05-01T09:26:38.934Z</time></trkpt><trkpt lat="42.2870483" lon="14.2562355"><ele>305.0</ele><time>2026-05-01T09:26:39.932Z</time></trkpt><trkpt lat="42.2869432" lon="14.2561271"><ele>306.25</ele><time>2026-05-01T09:26:40.941Z</time></trkpt><trkpt lat="42.2868411" lon="14.2560263"><ele>307.5</ele><time>2026-05-01T09:26:41.94Z</time></trkpt><trkpt lat="42.2867409" lon="14.2559216"><ele>308.75</ele><time>2026-05-01T09:26:42.938Z</time></trkpt><trkpt lat="42.2866442" lon="14.2558283"><ele>310.0</ele><time>2026-05-01T09:26:43.956Z</time></trkpt><trkpt lat="42.286557" lon="14.2557468"><ele>310.0</ele><time>2026-05-01T09:26:44.945Z</time></trkpt><trkpt lat="42.2864761" lon="14.2556749"><ele>310.0</ele><time>2026-05-01T09:26:45.931Z</time></trkpt><trkpt lat="42.2864064" lon="14.2556039"><ele>310.0</ele><time>2026-05-01T09:26:46.937Z</time></trkpt><trkpt lat="42.2863316" lon="14.2555255"><ele>310.0</ele><time>2026-05-01T09:26:47.946Z</time></trkpt><trkpt lat="42.2862542" lon="14.25545"><ele>310.0</ele><time>2026-05-01T09:26:48.948Z</time></trkpt><trkpt lat="42.2861604" lon="14.2553818"><ele>310.75</ele><time>2026-05-01T09:26:49.935Z</time></trkpt><trkpt lat="42.2860595" lon="14.2553056"><ele>311.5</ele><time>2026-05-01T09:26:50.938Z</time></trkpt><trkpt lat="42.2859569" lon="14.2552281"><ele>312.25</ele><time>2026-05-01T09:26:51.935Z</time></trkpt><trkpt lat="42.285853" lon="14.2551513"><ele>313.0</ele><time>2026-05-01T09:26:52.936Z</time></trkpt><trkpt lat="42.2857388" lon="14.2550751"><ele>313.0</ele><time>2026-05-01T09:26:53.935Z</time></trkpt><trkpt lat="42.2856235" lon="14.2549962"><ele>313.0</ele><time>2026-05-01T09:26:54.937Z</time></trkpt><trkpt lat="42.2855065" lon="14.2549151"><ele>313.0</ele><time>2026-05-01T09:26:55.943Z</time></trkpt><trkpt lat="42.2853823" lon="14.2548255"><ele>313.0</ele><time>2026-05-01T09:26:56.94Z</time></trkpt><trkpt lat="42.285262" lon="14.2547417"><ele>313.25</ele><time>2026-05-01T09:26:57.93Z</time></trkpt><trkpt lat="42.2851401" lon="14.254654"><ele>313.5</ele><time>2026-05-01T09:26:58.94Z</time></trkpt><trkpt lat="42.2850151" lon="14.2545703"><ele>313.75</ele><time>2026-05-01T09:26:59.94Z</time></trkpt><trkpt lat="42.2848914" lon="14.2544822"><ele>314.0</ele><time>2026-05-01T09:27:00.938Z</time></trkpt><trkpt lat="42.2847711" lon="14.2543962"><ele>314.0</ele><time>2026-05-01T09:27:01.951Z</time></trkpt><trkpt lat="42.2846439" lon="14.2543139"><ele>314.0</ele><time>2026-05-01T09:27:02.938Z</time></trkpt><trkpt lat="42.2845039" lon="14.2542386"><ele>314.0</ele><time>2026-05-01T09:27:03.937Z</time></trkpt><trkpt lat="42.2843626" lon="14.2541678"><ele>314.0</ele><time>2026-05-01T09:27:04.939Z</time></trkpt><trkpt lat="42.2842256" lon="14.2540983"><ele>314.0</ele><time>2026-05-01T09:27:05.936Z</time></trkpt><trkpt lat="42.2840891" lon="14.2540363"><ele>314.0</ele><time>2026-05-01T09:27:06.936Z</time></trkpt><trkpt lat="42.2839565" lon="14.2539619"><ele>314.0</ele><time>2026-05-01T09:27:07.933Z</time></trkpt><trkpt lat="42.2838337" lon="14.2538835"><ele>314.0</ele><time>2026-05-01T09:27:08.944Z</time></trkpt><trkpt lat="42.2837082" lon="14.2537993"><ele>314.0</ele><time>2026-05-01T09:27:09.94Z</time></trkpt><trkpt lat="42.2835763" lon="14.253717"><ele>314.0</ele><time>2026-05-01T09:27:10.946Z</time></trkpt><trkpt lat="42.2834474" lon="14.2536353"><ele>314.0</ele><time>2026-05-01T09:27:11.945Z</time></trkpt><trkpt lat="42.2833174" lon="14.2535591"><ele>314.0</ele><time>2026-05-01T09:27:12.935Z</time></trkpt><trkpt lat="42.2831831" lon="14.2534912"><ele>313.5</ele><time>2026-05-01T09:27:13.954Z</time></trkpt><trkpt lat="42.2830468" lon="14.2534232"><ele>313.0</ele><time>2026-05-01T09:27:14.932Z</time></trkpt><trkpt lat="42.2829117" lon="14.2533502"><ele>312.5</ele><time>2026-05-01T09:27:15.944Z</time></trkpt><trkpt lat="42.2827744" lon="14.2532736"><ele>312.0</ele><time>2026-05-01T09:27:16.935Z</time></trkpt><trkpt lat="42.2826349" lon="14.2531991"><ele>312.0</ele><time>2026-05-01T09:27:17.944Z</time></trkpt><trkpt lat="42.2824942" lon="14.2531295"><ele>312.0</ele><time>2026-05-01T09:27:18.953Z</time></trkpt><trkpt lat="42.2823539" lon="14.2530613"><ele>312.0</ele><time>2026-05-01T09:27:19.942Z</time></trkpt><trkpt lat="42.2822135" lon="14.2529986"><ele>312.0</ele><time>2026-05-01T09:27:20.943Z</time></trkpt><trkpt lat="42.2820718" lon="14.2529399"><ele>312.25</ele><time>2026-05-01T09:27:21.941Z</time></trkpt><trkpt lat="42.2819276" lon="14.2528796"><ele>312.5</ele><time>2026-05-01T09:27:22.938Z</time></trkpt><trkpt lat="42.2817868" lon="14.2528207"><ele>312.75</ele><time>2026-05-01T09:27:23.932Z</time></trkpt><trkpt lat="42.2816522" lon="14.2527612"><ele>313.0</ele><time>2026-05-01T09:27:24.945Z</time></trkpt><trkpt lat="42.281523" lon="14.2527041"><ele>313.75</ele><time>2026-05-01T09:27:25.941Z</time></trkpt><trkpt lat="42.2813909" lon="14.2526565"><ele>314.5</ele><time>2026-05-01T09:27:26.943Z</time></trkpt><trkpt lat="42.2812576" lon="14.2526058"><ele>315.25</ele><time>2026-05-01T09:27:27.935Z</time></trkpt><trkpt lat="42.281122" lon="14.2525509"><ele>316.0</ele><time>2026-05-01T09:27:28.937Z</time></trkpt><trkpt lat="42.2809874" lon="14.252491"><ele>316.0</ele><time>2026-05-01T09:27:29.94Z</time></trkpt><trkpt lat="42.2808596" lon="14.2524333"><ele>316.0</ele><time>2026-05-01T09:27:30.939Z</time></trkpt><trkpt lat="42.2807277" lon="14.2523797"><ele>316.0</ele><time>2026-05-01T09:27:31.937Z</time></trkpt><trkpt lat="42.2805939" lon="14.252335"><ele>316.0</ele><time>2026-05-01T09:27:32.941Z</time></trkpt><trkpt lat="42.2804563" lon="14.2522789"><ele>316.0</ele><time>2026-05-01T09:27:33.948Z</time></trkpt><trkpt lat="42.2803227" lon="14.2522198"><ele>316.0</ele><time>2026-05-01T09:27:34.944Z</time></trkpt><trkpt lat="42.2801815" lon="14.2521608"><ele>316.0</ele><time>2026-05-01T09:27:35.938Z</time></trkpt><trkpt lat="42.2800418" lon="14.2520932"><ele>316.0</ele><time>2026-05-01T09:27:36.937Z</time></trkpt><trkpt lat="42.2799016" lon="14.2520233"><ele>317.0</ele><time>2026-05-01T09:27:37.938Z</time></trkpt><trkpt lat="42.2797623" lon="14.2519499"><ele>318.0</ele><time>2026-05-01T09:27:38.928Z</time></trkpt><trkpt lat="42.2796208" lon="14.2518782"><ele>319.0</ele><time>2026-05-01T09:27:39.95Z</time></trkpt><trkpt lat="42.2794777" lon="14.251803"><ele>319.0</ele><time>2026-05-01T09:27:40.935Z</time></trkpt><trkpt lat="42.279333" lon="14.2517287"><ele>319.0</ele><time>2026-05-01T09:27:41.937Z</time></trkpt><trkpt lat="42.2791886" lon="14.2516542"><ele>319.0</ele><time>2026-05-01T09:27:42.934Z</time></trkpt><trkpt lat="42.279049" lon="14.2515863"><ele>319.75</ele><time>2026-05-01T09:27:43.942Z</time></trkpt><trkpt lat="42.2789059" lon="14.2515231"><ele>320.5</ele><time>2026-05-01T09:27:44.944Z</time></trkpt><trkpt lat="42.2787629" lon="14.2514697"><ele>321.25</ele><time>2026-05-01T09:27:45.937Z</time></trkpt><trkpt lat="42.2786185" lon="14.2514122"><ele>322.0</ele><time>2026-05-01T09:27:46.938Z</time></trkpt><trkpt lat="42.2784777" lon="14.2513599"><ele>322.25</ele><time>2026-05-01T09:27:47.938Z</time></trkpt><trkpt lat="42.2783358" lon="14.2513086"><ele>322.5</ele><time>2026-05-01T09:27:48.955Z</time></trkpt><trkpt lat="42.278199" lon="14.2512557"><ele>322.75</ele><time>2026-05-01T09:27:49.935Z</time></trkpt><trkpt lat="42.2780613" lon="14.2511989"><ele>323.0</ele><time>2026-05-01T09:27:50.944Z</time></trkpt><trkpt lat="42.2779232" lon="14.2511427"><ele>324.0</ele><time>2026-05-01T09:27:51.939Z</time></trkpt><trkpt lat="42.2777831" lon="14.2510854"><ele>325.0</ele><time>2026-05-01T09:27:52.939Z</time></trkpt><trkpt lat="42.2776468" lon="14.2510321"><ele>326.0</ele><time>2026-05-01T09:27:53.938Z</time></trkpt><trkpt lat="42.2775069" lon="14.2509787"><ele>327.0</ele><time>2026-05-01T09:27:54.941Z</time></trkpt><trkpt lat="42.2773694" lon="14.2509408"><ele>328.0</ele><time>2026-05-01T09:27:55.944Z</time></trkpt><trkpt lat="42.2772275" lon="14.2509116"><ele>329.0</ele><time>2026-05-01T09:27:56.948Z</time></trkpt><trkpt lat="42.2770857" lon="14.2508931"><ele>330.0</ele><time>2026-05-01T09:27:57.935Z</time></trkpt><trkpt lat="42.276944" lon="14.2508904"><ele>331.0</ele><time>2026-05-01T09:27:58.938Z</time></trkpt><trkpt lat="42.2768061" lon="14.2508928"><ele>331.0</ele><time>2026-05-01T09:27:59.939Z</time></trkpt><trkpt lat="42.2767021" lon="14.250891"><ele>331.0</ele><time>2026-05-01T09:28:00.956Z</time></trkpt><trkpt lat="42.2766166" lon="14.2508928"><ele>331.0</ele><time>2026-05-01T09:28:02.934Z</time></trkpt><trkpt lat="42.2765289" lon="14.2508971"><ele>331.0</ele><time>2026-05-01T09:28:05.93Z</time></trkpt><trkpt lat="42.2766489" lon="14.2509152"><ele>331.0</ele><time>2026-05-01T09:28:20.936Z</time></trkpt><trkpt lat="42.2767161" lon="14.2509237"><ele>331.0</ele><time>2026-05-01T09:28:21.939Z</time></trkpt><trkpt lat="42.2767992" lon="14.2508982"><ele>331.0</ele><time>2026-05-01T09:28:23.938Z</time></trkpt><trkpt lat="42.2767754" lon="14.2508125"><ele>331.0</ele><time>2026-05-01T09:28:25.945Z</time></trkpt><trkpt lat="42.2766904" lon="14.250709"><ele>331.0</ele><time>2026-05-01T09:28:27.936Z</time></trkpt><trkpt lat="42.2766228" lon="14.2506453"><ele>331.0</ele><time>2026-05-01T09:28:28.94Z</time></trkpt><trkpt lat="42.2765543" lon="14.2505718"><ele>331.0</ele><time>2026-05-01T09:28:29.938Z</time></trkpt><trkpt lat="42.2764798" lon="14.2504815"><ele>330.6</ele><time>2026-05-01T09:28:30.936Z</time></trkpt><trkpt lat="42.2764029" lon="14.2503836"><ele>330.20000000000005</ele><time>2026-05-01T09:28:31.948Z</time></trkpt><trkpt lat="42.2763321" lon="14.2502915"><ele>329.79999999999995</ele><time>2026-05-01T09:28:32.934Z</time></trkpt><trkpt lat="42.2762681" lon="14.2501851"><ele>329.4</ele><time>2026-05-01T09:28:33.935Z</time></trkpt><trkpt lat="42.2762099" lon="14.2500654"><ele>329.0</ele><time>2026-05-01T09:28:34.93Z</time></trkpt><trkpt lat="42.2761602" lon="14.2499487"><ele>329.0</ele><time>2026-05-01T09:28:35.931Z</time></trkpt><trkpt lat="42.2761053" lon="14.2498479"><ele>329.0</ele><time>2026-05-01T09:28:36.944Z</time></trkpt><trkpt lat="42.27604" lon="14.2497683"><ele>329.0</ele><time>2026-05-01T09:28:37.933Z</time></trkpt><trkpt lat="42.2759516" lon="14.2497137"><ele>329.0</ele><time>2026-05-01T09:28:38.928Z</time></trkpt><trkpt lat="42.2758478" lon="14.2496652"><ele>329.0</ele><time>2026-05-01T09:28:39.936Z</time></trkpt><trkpt lat="42.2757467" lon="14.2496181"><ele>327.4</ele><time>2026-05-01T09:28:40.933Z</time></trkpt><trkpt lat="42.2756517" lon="14.2495653"><ele>325.79999999999995</ele><time>2026-05-01T09:28:41.932Z</time></trkpt><trkpt lat="42.2755561" lon="14.2495048"><ele>324.20000000000005</ele><time>2026-05-01T09:28:42.939Z</time></trkpt><trkpt lat="42.2754603" lon="14.2494375"><ele>322.6</ele><time>2026-05-01T09:28:43.951Z</time></trkpt><trkpt lat="42.2753744" lon="14.2493575"><ele>321.0</ele><time>2026-05-01T09:28:44.934Z</time></trkpt><trkpt lat="42.2752847" lon="14.2492761"><ele>321.0</ele><time>2026-05-01T09:28:45.928Z</time></trkpt><trkpt lat="42.2751853" lon="14.2492002"><ele>321.0</ele><time>2026-05-01T09:28:46.922Z</time></trkpt><trkpt lat="42.2750818" lon="14.2491295"><ele>321.0</ele><time>2026-05-01T09:28:47.932Z</time></trkpt><trkpt lat="42.2749716" lon="14.2490674"><ele>321.0</ele><time>2026-05-01T09:28:48.934Z</time></trkpt><trkpt lat="42.2748604" lon="14.2490167"><ele>322.0</ele><time>2026-05-01T09:28:49.93Z</time></trkpt><trkpt lat="42.2747524" lon="14.2489682"><ele>323.0</ele><time>2026-05-01T09:28:50.96Z</time></trkpt><trkpt lat="42.2746447" lon="14.2489155"><ele>324.0</ele><time>2026-05-01T09:28:51.932Z</time></trkpt><trkpt lat="42.2745242" lon="14.2488596"><ele>325.0</ele><time>2026-05-01T09:28:52.942Z</time></trkpt><trkpt lat="42.2743986" lon="14.2488109"><ele>320.75</ele><time>2026-05-01T09:28:53.937Z</time></trkpt><trkpt lat="42.2742669" lon="14.2487685"><ele>316.5</ele><time>2026-05-01T09:28:54.932Z</time></trkpt><trkpt lat="42.2741333" lon="14.248719"><ele>312.25</ele><time>2026-05-01T09:28:55.935Z</time></trkpt><trkpt lat="42.2739952" lon="14.2486515"><ele>308.0</ele><time>2026-05-01T09:28:56.938Z</time></trkpt><trkpt lat="42.2738632" lon="14.2485623"><ele>308.0</ele><time>2026-05-01T09:28:57.941Z</time></trkpt><trkpt lat="42.273739" lon="14.248473"><ele>308.0</ele><time>2026-05-01T09:28:58.93Z</time></trkpt><trkpt lat="42.2736224" lon="14.2483856"><ele>308.0</ele><time>2026-05-01T09:28:59.939Z</time></trkpt><trkpt lat="42.2735117" lon="14.2482977"><ele>308.0</ele><time>2026-05-01T09:29:00.935Z</time></trkpt><trkpt lat="42.2734069" lon="14.2482096"><ele>307.25</ele><time>2026-05-01T09:29:01.933Z</time></trkpt><trkpt lat="42.2733103" lon="14.2481185"><ele>306.5</ele><time>2026-05-01T09:29:02.933Z</time></trkpt><trkpt lat="42.2732177" lon="14.2480112"><ele>305.75</ele><time>2026-05-01T09:29:03.931Z</time></trkpt><trkpt lat="42.2731422" lon="14.2478859"><ele>305.0</ele><time>2026-05-01T09:29:04.938Z</time></trkpt><trkpt lat="42.2730858" lon="14.2477354"><ele>305.0</ele><time>2026-05-01T09:29:05.933Z</time></trkpt><trkpt lat="42.2730415" lon="14.2475658"><ele>305.0</ele><time>2026-05-01T09:29:06.941Z</time></trkpt><trkpt lat="42.2730098" lon="14.2473905"><ele>305.0</ele><time>2026-05-01T09:29:07.929Z</time></trkpt><trkpt lat="42.2729836" lon="14.2472203"><ele>305.0</ele><time>2026-05-01T09:29:08.929Z</time></trkpt><trkpt lat="42.2729581" lon="14.2470553"><ele>299.5</ele><time>2026-05-01T09:29:09.934Z</time></trkpt><trkpt lat="42.2729337" lon="14.2468927"><ele>294.0</ele><time>2026-05-01T09:29:10.932Z</time></trkpt><trkpt lat="42.27291" lon="14.2467295"><ele>288.5</ele><time>2026-05-01T09:29:11.937Z</time></trkpt><trkpt lat="42.2728896" lon="14.2465599"><ele>283.0</ele><time>2026-05-01T09:29:12.932Z</time></trkpt><trkpt lat="42.2728669" lon="14.246388"><ele>280.75</ele><time>2026-05-01T09:29:13.947Z</time></trkpt><trkpt lat="42.272851" lon="14.2462274"><ele>278.5</ele><time>2026-05-01T09:29:14.93Z</time></trkpt><trkpt lat="42.2728311" lon="14.2460844"><ele>276.25</ele><time>2026-05-01T09:29:15.936Z</time></trkpt><trkpt lat="42.2727923" lon="14.245946"><ele>274.0</ele><time>2026-05-01T09:29:16.932Z</time></trkpt><trkpt lat="42.2727274" lon="14.2458169"><ele>274.0</ele><time>2026-05-01T09:29:17.928Z</time></trkpt><trkpt lat="42.2726498" lon="14.2456888"><ele>274.0</ele><time>2026-05-01T09:29:18.931Z</time></trkpt><trkpt lat="42.2725709" lon="14.2455605"><ele>274.0</ele><time>2026-05-01T09:29:19.932Z</time></trkpt><trkpt lat="42.2724922" lon="14.2454295"><ele>274.0</ele><time>2026-05-01T09:29:20.933Z</time></trkpt><trkpt lat="42.2724114" lon="14.2452901"><ele>274.25</ele><time>2026-05-01T09:29:21.934Z</time></trkpt><trkpt lat="42.2723366" lon="14.2451438"><ele>274.5</ele><time>2026-05-01T09:29:22.931Z</time></trkpt><trkpt lat="42.2722679" lon="14.2449876"><ele>274.75</ele><time>2026-05-01T09:29:23.932Z</time></trkpt><trkpt lat="42.2721981" lon="14.2448358"><ele>275.0</ele><time>2026-05-01T09:29:24.933Z</time></trkpt><trkpt lat="42.272126" lon="14.2446905"><ele>277.0</ele><time>2026-05-01T09:29:25.941Z</time></trkpt><trkpt lat="42.2720395" lon="14.2445685"><ele>279.0</ele><time>2026-05-01T09:29:26.936Z</time></trkpt><trkpt lat="42.2719609" lon="14.2444795"><ele>281.0</ele><time>2026-05-01T09:29:27.943Z</time></trkpt><trkpt lat="42.2718885" lon="14.2444237"><ele>283.0</ele><time>2026-05-01T09:29:28.933Z</time></trkpt><trkpt lat="42.2718065" lon="14.2443814"><ele>285.0</ele><time>2026-05-01T09:29:29.944Z</time></trkpt><trkpt lat="42.2717144" lon="14.2443416"><ele>285.0</ele><time>2026-05-01T09:29:30.941Z</time></trkpt><trkpt lat="42.2716125" lon="14.2443235"><ele>285.0</ele><time>2026-05-01T09:29:31.939Z</time></trkpt><trkpt lat="42.2715008" lon="14.2443103"><ele>285.0</ele><time>2026-05-01T09:29:32.938Z</time></trkpt><trkpt lat="42.2714002" lon="14.2442948"><ele>285.0</ele><time>2026-05-01T09:29:33.939Z</time></trkpt><trkpt lat="42.2713086" lon="14.2442664"><ele>285.0</ele><time>2026-05-01T09:29:34.932Z</time></trkpt><trkpt lat="42.2712178" lon="14.2442101"><ele>284.2</ele><time>2026-05-01T09:29:35.938Z</time></trkpt><trkpt lat="42.2711284" lon="14.2441334"><ele>283.4</ele><time>2026-05-01T09:29:36.942Z</time></trkpt><trkpt lat="42.2710327" lon="14.2440552"><ele>282.6</ele><time>2026-05-01T09:29:37.945Z</time></trkpt><trkpt lat="42.2709395" lon="14.2439829"><ele>281.8</ele><time>2026-05-01T09:29:38.936Z</time></trkpt><trkpt lat="42.2708504" lon="14.2439175"><ele>281.0</ele><time>2026-05-01T09:29:39.935Z</time></trkpt><trkpt lat="42.2707565" lon="14.2438506"><ele>282.40000000000003</ele><time>2026-05-01T09:29:40.932Z</time></trkpt><trkpt lat="42.2706647" lon="14.2437808"><ele>283.8</ele><time>2026-05-01T09:29:41.931Z</time></trkpt><trkpt lat="42.2705767" lon="14.2436898"><ele>285.20000000000005</ele><time>2026-05-01T09:29:42.934Z</time></trkpt><trkpt lat="42.2704954" lon="14.2435863"><ele>286.6</ele><time>2026-05-01T09:29:43.941Z</time></trkpt><trkpt lat="42.270415" lon="14.2434782"><ele>288.0</ele><time>2026-05-01T09:29:44.937Z</time></trkpt><trkpt lat="42.2703325" lon="14.2433662"><ele>288.0</ele><time>2026-05-01T09:29:45.942Z</time></trkpt><trkpt lat="42.2702415" lon="14.2432517"><ele>288.0</ele><time>2026-05-01T09:29:46.939Z</time></trkpt><trkpt lat="42.2701422" lon="14.2431392"><ele>288.0</ele><time>2026-05-01T09:29:47.937Z</time></trkpt><trkpt lat="42.2700387" lon="14.2430326"><ele>288.0</ele><time>2026-05-01T09:29:48.948Z</time></trkpt><trkpt lat="42.2699387" lon="14.2429276"><ele>289.25</ele><time>2026-05-01T09:29:49.937Z</time></trkpt><trkpt lat="42.2698378" lon="14.2428257"><ele>290.5</ele><time>2026-05-01T09:29:50.936Z</time></trkpt><trkpt lat="42.2697331" lon="14.2427234"><ele>291.75</ele><time>2026-05-01T09:29:51.948Z</time></trkpt><trkpt lat="42.2696184" lon="14.2426234"><ele>293.0</ele><time>2026-05-01T09:29:52.946Z</time></trkpt><trkpt lat="42.2695015" lon="14.2425319"><ele>293.0</ele><time>2026-05-01T09:29:53.936Z</time></trkpt><trkpt lat="42.2693961" lon="14.2424518"><ele>293.0</ele><time>2026-05-01T09:29:54.947Z</time></trkpt><trkpt lat="42.2693032" lon="14.2423689"><ele>293.0</ele><time>2026-05-01T09:29:55.94Z</time></trkpt><trkpt lat="42.2692212" lon="14.2422709"><ele>293.0</ele><time>2026-05-01T09:29:56.946Z</time></trkpt><trkpt lat="42.269147" lon="14.242154"><ele>294.6</ele><time>2026-05-01T09:29:57.947Z</time></trkpt><trkpt lat="42.2690852" lon="14.2420233"><ele>296.20000000000005</ele><time>2026-05-01T09:29:58.951Z</time></trkpt><trkpt lat="42.2690267" lon="14.2418946"><ele>297.8</ele><time>2026-05-01T09:29:59.959Z</time></trkpt><trkpt lat="42.2689676" lon="14.2417717"><ele>299.40000000000003</ele><time>2026-05-01T09:30:00.939Z</time></trkpt><trkpt lat="42.2689075" lon="14.2416661"><ele>301.0</ele><time>2026-05-01T09:30:01.941Z</time></trkpt><trkpt lat="42.2688599" lon="14.2415668"><ele>303.2</ele><time>2026-05-01T09:30:02.95Z</time></trkpt><trkpt lat="42.2688339" lon="14.2414653"><ele>305.40000000000003</ele><time>2026-05-01T09:30:03.948Z</time></trkpt><trkpt lat="42.2688344" lon="14.2413457"><ele>307.6</ele><time>2026-05-01T09:30:04.943Z</time></trkpt><trkpt lat="42.2688589" lon="14.2412196"><ele>309.8</ele><time>2026-05-01T09:30:05.936Z</time></trkpt><trkpt lat="42.2689028" lon="14.2410932"><ele>312.0</ele><time>2026-05-01T09:30:06.944Z</time></trkpt><trkpt lat="42.2689614" lon="14.2409712"><ele>312.0</ele><time>2026-05-01T09:30:07.947Z</time></trkpt><trkpt lat="42.2690344" lon="14.2408628"><ele>312.0</ele><time>2026-05-01T09:30:08.929Z</time></trkpt><trkpt lat="42.2691162" lon="14.2407615"><ele>312.0</ele><time>2026-05-01T09:30:09.937Z</time></trkpt><trkpt lat="42.2691843" lon="14.2406754"><ele>312.0</ele><time>2026-05-01T09:30:10.931Z</time></trkpt><trkpt lat="42.2692477" lon="14.240586"><ele>312.0</ele><time>2026-05-01T09:30:12.933Z</time></trkpt><trkpt lat="42.2691828" lon="14.2406394"><ele>312.0</ele><time>2026-05-01T09:30:26.943Z</time></trkpt><trkpt lat="42.2691069" lon="14.2407568"><ele>312.0</ele><time>2026-05-01T09:30:28.939Z</time></trkpt><trkpt lat="42.2690504" lon="14.2408271"><ele>312.0</ele><time>2026-05-01T09:30:29.942Z</time></trkpt><trkpt lat="42.2689952" lon="14.2409053"><ele>312.0</ele><time>2026-05-01T09:30:30.94Z</time></trkpt><trkpt lat="42.2689391" lon="14.2409942"><ele>312.0</ele><time>2026-05-01T09:30:31.934Z</time></trkpt><trkpt lat="42.2688947" lon="14.2410885"><ele>312.0</ele><time>2026-05-01T09:30:32.942Z</time></trkpt><trkpt lat="42.2688628" lon="14.2411789"><ele>312.1666666666667</ele><time>2026-05-01T09:30:33.943Z</time></trkpt><trkpt lat="42.2688448" lon="14.2412719"><ele>312.3333333333333</ele><time>2026-05-01T09:30:34.935Z</time></trkpt><trkpt lat="42.2688327" lon="14.2413605"><ele>312.5</ele><time>2026-05-01T09:30:35.935Z</time></trkpt><trkpt lat="42.2688226" lon="14.2414986"><ele>312.66666666666663</ele><time>2026-05-01T09:30:37.928Z</time></trkpt><trkpt lat="42.2687465" lon="14.2415443"><ele>312.8333333333333</ele><time>2026-05-01T09:30:40.934Z</time></trkpt><trkpt lat="42.2686463" lon="14.2415163"><ele>313.0</ele><time>2026-05-01T09:30:42.939Z</time></trkpt><trkpt lat="42.2685274" lon="14.2414598"><ele>313.0</ele><time>2026-05-01T09:30:44.945Z</time></trkpt><trkpt lat="42.2684561" lon="14.2414322"><ele>313.0</ele><time>2026-05-01T09:30:45.933Z</time></trkpt><trkpt lat="42.2683783" lon="14.2414018"><ele>313.0</ele><time>2026-05-01T09:30:46.942Z</time></trkpt><trkpt lat="42.2683033" lon="14.2413734"><ele>313.0</ele><time>2026-05-01T09:30:47.929Z</time></trkpt><trkpt lat="42.2682272" lon="14.2413447"><ele>313.0</ele><time>2026-05-01T09:30:48.943Z</time></trkpt><trkpt lat="42.2681541" lon="14.2413102"><ele>313.0</ele><time>2026-05-01T09:30:49.948Z</time></trkpt><trkpt lat="42.2680849" lon="14.2412676"><ele>312.4</ele><time>2026-05-01T09:30:50.949Z</time></trkpt><trkpt lat="42.2680267" lon="14.2412264"><ele>311.8</ele><time>2026-05-01T09:30:51.944Z</time></trkpt><trkpt lat="42.2679221" lon="14.2411407"><ele>311.2</ele><time>2026-05-01T09:30:53.954Z</time></trkpt><trkpt lat="42.2678323" lon="14.2410331"><ele>310.6</ele><time>2026-05-01T09:30:55.943Z</time></trkpt><trkpt lat="42.2677738" lon="14.2409555"><ele>310.0</ele><time>2026-05-01T09:30:56.94Z</time></trkpt><trkpt lat="42.2677141" lon="14.2408811"><ele>310.0</ele><time>2026-05-01T09:30:57.935Z</time></trkpt><trkpt lat="42.2676518" lon="14.2407997"><ele>310.0</ele><time>2026-05-01T09:30:58.942Z</time></trkpt><trkpt lat="42.2675993" lon="14.2407175"><ele>310.0</ele><time>2026-05-01T09:30:59.951Z</time></trkpt><trkpt lat="42.2675604" lon="14.2406418"><ele>310.0</ele><time>2026-05-01T09:31:00.932Z</time></trkpt><trkpt lat="42.2675284" lon="14.240564"><ele>310.0</ele><time>2026-05-01T09:31:01.955Z</time></trkpt><trkpt lat="42.2675003" lon="14.2404809"><ele>310.0</ele><time>2026-05-01T09:31:02.938Z</time></trkpt><trkpt lat="42.2674687" lon="14.240391"><ele>310.0</ele><time>2026-05-01T09:31:03.943Z</time></trkpt><trkpt lat="42.2674311" lon="14.2403004"><ele>310.8333333333333</ele><time>2026-05-01T09:31:04.935Z</time></trkpt><trkpt lat="42.2673888" lon="14.2402233"><ele>311.66666666666663</ele><time>2026-05-01T09:31:05.937Z</time></trkpt><trkpt lat="42.267347" lon="14.2401555"><ele>312.5</ele><time>2026-05-01T09:31:06.935Z</time></trkpt><trkpt lat="42.26728" lon="14.2400327"><ele>313.3333333333333</ele><time>2026-05-01T09:31:08.942Z</time></trkpt><trkpt lat="42.2672508" lon="14.2399157"><ele>314.1666666666667</ele><time>2026-05-01T09:31:10.938Z</time></trkpt><trkpt lat="42.2672283" lon="14.2398237"><ele>315.0</ele><time>2026-05-01T09:31:12.931Z</time></trkpt><trkpt lat="42.2672103" lon="14.2397319"><ele>317.2857142857143</ele><time>2026-05-01T09:31:21.94Z</time></trkpt><trkpt lat="42.2672044" lon="14.2396455"><ele>319.57142857142856</ele><time>2026-05-01T09:31:24.959Z</time></trkpt><trkpt lat="42.2671896" lon="14.2395507"><ele>321.8571428571429</ele><time>2026-05-01T09:31:27.938Z</time></trkpt><trkpt lat="42.2671683" lon="14.2394435"><ele>324.1428571428571</ele><time>2026-05-01T09:31:30.944Z</time></trkpt><trkpt lat="42.2671491" lon="14.2393471"><ele>326.42857142857144</ele><time>2026-05-01T09:31:53.939Z</time></trkpt><trkpt lat="42.2671255" lon="14.2392663"><ele>328.7142857142857</ele><time>2026-05-01T09:32:13.939Z</time></trkpt><trkpt lat="42.2670933" lon="14.2391711"><ele>331.0</ele><time>2026-05-01T09:32:16.935Z</time></trkpt><trkpt lat="42.2670612" lon="14.2390973"><ele>331.0</ele><time>2026-05-01T09:32:20.937Z</time></trkpt><trkpt lat="42.2670423" lon="14.2389938"><ele>331.0</ele><time>2026-05-01T09:33:42.937Z</time></trkpt><trkpt lat="42.2669838" lon="14.2388762"><ele>331.0</ele><time>2026-05-01T09:34:14.939Z</time></trkpt><trkpt lat="42.2669367" lon="14.2388177"><ele>331.0</ele><time>2026-05-01T09:34:18.945Z</time></trkpt><trkpt lat="42.2668532" lon="14.2387639"><ele>331.0</ele><time>2026-05-01T09:34:25.951Z</time></trkpt><trkpt lat="42.2667869" lon="14.2387282"><ele>331.0</ele><time>2026-05-01T09:34:38.946Z</time></trkpt><trkpt lat="42.2667358" lon="14.2386475"><ele>331.16666666666663</ele><time>2026-05-01T09:34:42.947Z</time></trkpt><trkpt lat="42.2666841" lon="14.2385611"><ele>331.3333333333333</ele><time>2026-05-01T09:34:46.943Z</time></trkpt><trkpt lat="42.2666156" lon="14.2384811"><ele>331.5</ele><time>2026-05-01T09:34:49.942Z</time></trkpt><trkpt lat="42.2665528" lon="14.2384041"><ele>331.6666666666667</ele><time>2026-05-01T09:34:52.939Z</time></trkpt><trkpt lat="42.2664445" lon="14.2383424"><ele>331.83333333333337</ele><time>2026-05-01T09:35:52.939Z</time></trkpt><trkpt lat="42.266409" lon="14.2382636"><ele>332.0</ele><time>2026-05-01T09:35:55.939Z</time></trkpt><trkpt lat="42.2663516" lon="14.2382016"><ele>332.83333333333337</ele><time>2026-05-01T09:35:57.939Z</time></trkpt><trkpt lat="42.2663051" lon="14.2381383"><ele>333.6666666666667</ele><time>2026-05-01T09:35:59.938Z</time></trkpt><trkpt lat="42.266249" lon="14.2380743"><ele>334.5</ele><time>2026-05-01T09:36:02.944Z</time></trkpt><trkpt lat="42.2661643" lon="14.2380088"><ele>335.3333333333333</ele><time>2026-05-01T09:36:05.932Z</time></trkpt><trkpt lat="42.2660693" lon="14.2379645"><ele>336.16666666666663</ele><time>2026-05-01T09:36:08.942Z</time></trkpt><trkpt lat="42.2660084" lon="14.2379071"><ele>337.0</ele><time>2026-05-01T09:36:10.941Z</time></trkpt><trkpt lat="42.2659365" lon="14.2378632"><ele>337.0</ele><time>2026-05-01T09:36:12.935Z</time></trkpt><trkpt lat="42.2658734" lon="14.2378256"><ele>337.0</ele><time>2026-05-01T09:36:14.934Z</time></trkpt><trkpt lat="42.265812" lon="14.2377752"><ele>337.0</ele><time>2026-05-01T09:36:23.937Z</time></trkpt><trkpt lat="42.2657419" lon="14.2377184"><ele>337.0</ele><time>2026-05-01T09:36:26.935Z</time></trkpt><trkpt lat="42.2656751" lon="14.2376522"><ele>337.0</ele><time>2026-05-01T09:36:29.937Z</time></trkpt><trkpt lat="42.2656288" lon="14.2375867"><ele>337.0</ele><time>2026-05-01T09:36:31.935Z</time></trkpt><trkpt lat="42.2655864" lon="14.2374957"><ele>339.0</ele><time>2026-05-01T09:36:33.943Z</time></trkpt><trkpt lat="42.2655362" lon="14.237393"><ele>341.0</ele><time>2026-05-01T09:36:35.938Z</time></trkpt><trkpt lat="42.2654834" lon="14.2372751"><ele>343.0</ele><time>2026-05-01T09:36:37.941Z</time></trkpt><trkpt lat="42.2654516" lon="14.2371787"><ele>345.0</ele><time>2026-05-01T09:36:39.939Z</time></trkpt><trkpt lat="42.2654061" lon="14.2370709"><ele>347.0</ele><time>2026-05-01T09:36:41.939Z</time></trkpt><trkpt lat="42.2653583" lon="14.236951"><ele>347.0</ele><time>2026-05-01T09:36:43.944Z</time></trkpt><trkpt lat="42.2653078" lon="14.2368319"><ele>347.0</ele><time>2026-05-01T09:36:45.936Z</time></trkpt><trkpt lat="42.2652609" lon="14.2367117"><ele>347.0</ele><time>2026-05-01T09:36:47.951Z</time></trkpt><trkpt lat="42.2652113" lon="14.23661"><ele>347.0</ele><time>2026-05-01T09:36:49.943Z</time></trkpt><trkpt lat="42.2651623" lon="14.2365123"><ele>347.0</ele><time>2026-05-01T09:36:51.953Z</time></trkpt><trkpt lat="42.2651038" lon="14.2363905"><ele>346.33333333333337</ele><time>2026-05-01T09:36:53.937Z</time></trkpt><trkpt lat="42.2650597" lon="14.2362791"><ele>345.6666666666667</ele><time>2026-05-01T09:36:55.937Z</time></trkpt><trkpt lat="42.264992" lon="14.2363097"><ele>345.0</ele><time>2026-05-01T09:37:48.934Z</time></trkpt><trkpt lat="42.2649642" lon="14.2363867"><ele>344.3333333333333</ele><time>2026-05-01T09:37:52.942Z</time></trkpt><trkpt lat="42.2650023" lon="14.2362845"><ele>343.66666666666663</ele><time>2026-05-01T09:38:32.933Z</time></trkpt><trkpt lat="42.2649803" lon="14.2361802"><ele>343.0</ele><time>2026-05-01T09:38:37.934Z</time></trkpt><trkpt lat="42.2649209" lon="14.2361108"><ele>343.0</ele><time>2026-05-01T09:38:40.941Z</time></trkpt><trkpt lat="42.2648457" lon="14.2360612"><ele>343.0</ele><time>2026-05-01T09:38:43.942Z</time></trkpt><trkpt lat="42.264781" lon="14.2360396"><ele>343.0</ele><time>2026-05-01T09:38:46.938Z</time></trkpt><trkpt lat="42.2647159" lon="14.2360341"><ele>343.0</ele><time>2026-05-01T09:41:26.937Z</time></trkpt><trkpt lat="42.2646487" lon="14.2361061"><ele>343.0</ele><time>2026-05-01T09:41:29.948Z</time></trkpt><trkpt lat="42.264553" lon="14.236222"><ele>343.0</ele><time>2026-05-01T09:41:31.941Z</time></trkpt><trkpt lat="42.2644974" lon="14.2362972"><ele>344.0</ele><time>2026-05-01T09:41:32.93Z</time></trkpt><trkpt lat="42.2644371" lon="14.2363665"><ele>345.0</ele><time>2026-05-01T09:41:33.952Z</time></trkpt><trkpt lat="42.2643644" lon="14.2364156"><ele>346.0</ele><time>2026-05-01T09:41:34.939Z</time></trkpt><trkpt lat="42.2642918" lon="14.2364513"><ele>347.0</ele><time>2026-05-01T09:41:35.941Z</time></trkpt><trkpt lat="42.2642272" lon="14.2364797"><ele>348.0</ele><time>2026-05-01T09:41:36.935Z</time></trkpt><trkpt lat="42.264159" lon="14.2365055"><ele>349.0</ele><time>2026-05-01T09:41:37.934Z</time></trkpt><trkpt lat="42.2640855" lon="14.2365403"><ele>348.99999999999994</ele><time>2026-05-01T09:41:38.939Z</time></trkpt><trkpt lat="42.2640204" lon="14.2365923"><ele>349.0</ele><time>2026-05-01T09:41:39.937Z</time></trkpt><trkpt lat="42.2639589" lon="14.2366542"><ele>349.0</ele><time>2026-05-01T09:41:40.939Z</time></trkpt><trkpt lat="42.263901" lon="14.2367142"><ele>349.0</ele><time>2026-05-01T09:41:41.94Z</time></trkpt><trkpt lat="42.2638448" lon="14.2367591"><ele>349.0</ele><time>2026-05-01T09:41:42.954Z</time></trkpt><trkpt lat="42.2637786" lon="14.2367827"><ele>348.99999999999994</ele><time>2026-05-01T09:41:43.941Z</time></trkpt><trkpt lat="42.2637033" lon="14.2367821"><ele>349.0</ele><time>2026-05-01T09:41:44.943Z</time></trkpt><trkpt lat="42.2636235" lon="14.2367645"><ele>348.3333333333333</ele><time>2026-05-01T09:41:45.94Z</time></trkpt><trkpt lat="42.2635414" lon="14.2367449"><ele>347.66666666666663</ele><time>2026-05-01T09:41:46.942Z</time></trkpt><trkpt lat="42.2634636" lon="14.2367212"><ele>347.0</ele><time>2026-05-01T09:41:47.943Z</time></trkpt><trkpt lat="42.2633864" lon="14.236715"><ele>346.3333333333333</ele><time>2026-05-01T09:41:48.935Z</time></trkpt><trkpt lat="42.2633053" lon="14.2367288"><ele>345.6666666666667</ele><time>2026-05-01T09:41:49.931Z</time></trkpt><trkpt lat="42.2632284" lon="14.2367567"><ele>345.0</ele><time>2026-05-01T09:41:50.94Z</time></trkpt><trkpt lat="42.2631506" lon="14.2367946"><ele>344.6666666666667</ele><time>2026-05-01T09:41:51.969Z</time></trkpt><trkpt lat="42.2630727" lon="14.2368442"><ele>344.3333333333333</ele><time>2026-05-01T09:41:52.932Z</time></trkpt><trkpt lat="42.2629928" lon="14.2368899"><ele>344.0</ele><time>2026-05-01T09:41:53.946Z</time></trkpt><trkpt lat="42.2629115" lon="14.2369427"><ele>343.66666666666663</ele><time>2026-05-01T09:41:54.942Z</time></trkpt><trkpt lat="42.2628311" lon="14.2369851"><ele>343.3333333333333</ele><time>2026-05-01T09:41:55.94Z</time></trkpt><trkpt lat="42.262756" lon="14.2370169"><ele>343.0</ele><time>2026-05-01T09:41:56.941Z</time></trkpt><trkpt lat="42.262683" lon="14.2370389"><ele>343.0</ele><time>2026-05-01T09:41:57.935Z</time></trkpt><trkpt lat="42.2626066" lon="14.2370701"><ele>343.0</ele><time>2026-05-01T09:41:58.943Z</time></trkpt><trkpt lat="42.2625265" lon="14.2371037"><ele>343.0</ele><time>2026-05-01T09:41:59.947Z</time></trkpt><trkpt lat="42.2624414" lon="14.2371274"><ele>343.0</ele><time>2026-05-01T09:42:00.945Z</time></trkpt><trkpt lat="42.2623552" lon="14.2371415"><ele>343.0</ele><time>2026-05-01T09:42:01.94Z</time></trkpt><trkpt lat="42.2622815" lon="14.2371572"><ele>343.0</ele><time>2026-05-01T09:42:02.936Z</time></trkpt><trkpt lat="42.2621734" lon="14.2371773"><ele>341.4</ele><time>2026-05-01T09:42:04.946Z</time></trkpt><trkpt lat="42.2620873" lon="14.2371842"><ele>339.79999999999995</ele><time>2026-05-01T09:42:06.937Z</time></trkpt><trkpt lat="42.2620045" lon="14.2371951"><ele>338.2</ele><time>2026-05-01T09:42:08.935Z</time></trkpt><trkpt lat="42.261915" lon="14.237212"><ele>336.6</ele><time>2026-05-01T09:42:10.936Z</time></trkpt><trkpt lat="42.2617906" lon="14.2372313"><ele>335.0</ele><time>2026-05-01T09:42:12.942Z</time></trkpt><trkpt lat="42.2617124" lon="14.2372567"><ele>335.0</ele><time>2026-05-01T09:42:13.943Z</time></trkpt><trkpt lat="42.2616479" lon="14.2372867"><ele>335.0</ele><time>2026-05-01T09:42:14.948Z</time></trkpt><trkpt lat="42.2615318" lon="14.2373309"><ele>335.0</ele><time>2026-05-01T09:42:16.941Z</time></trkpt><trkpt lat="42.2614738" lon="14.2373673"><ele>335.0</ele><time>2026-05-01T09:42:17.95Z</time></trkpt><trkpt lat="42.2614155" lon="14.2374135"><ele>335.0</ele><time>2026-05-01T09:42:18.937Z</time></trkpt><trkpt lat="42.2613583" lon="14.2374618"><ele>335.0</ele><time>2026-05-01T09:42:19.947Z</time></trkpt><trkpt lat="42.2612936" lon="14.2374892"><ele>337.33333333333337</ele><time>2026-05-01T09:42:20.943Z</time></trkpt><trkpt lat="42.2612315" lon="14.2375071"><ele>339.6666666666667</ele><time>2026-05-01T09:42:21.939Z</time></trkpt><trkpt lat="42.261146" lon="14.2375489"><ele>342.0</ele><time>2026-05-01T09:42:23.962Z</time></trkpt><trkpt lat="42.2610822" lon="14.2376348"><ele>344.3333333333333</ele><time>2026-05-01T09:42:25.936Z</time></trkpt><trkpt lat="42.2610337" lon="14.2377194"><ele>346.66666666666663</ele><time>2026-05-01T09:42:26.938Z</time></trkpt><trkpt lat="42.2609849" lon="14.2378087"><ele>349.0</ele><time>2026-05-01T09:42:27.938Z</time></trkpt><trkpt lat="42.2609381" lon="14.2379013"><ele>349.0</ele><time>2026-05-01T09:42:28.937Z</time></trkpt><trkpt lat="42.2608888" lon="14.2379939"><ele>349.0</ele><time>2026-05-01T09:42:29.938Z</time></trkpt><trkpt lat="42.2608442" lon="14.2380736"><ele>349.0</ele><time>2026-05-01T09:42:30.937Z</time></trkpt><trkpt lat="42.2608005" lon="14.2381613"><ele>349.0</ele><time>2026-05-01T09:42:31.952Z</time></trkpt><trkpt lat="42.2607673" lon="14.2382441"><ele>349.0</ele><time>2026-05-01T09:42:32.946Z</time></trkpt><trkpt lat="42.2607404" lon="14.238327"><ele>349.0</ele><time>2026-05-01T09:42:33.951Z</time></trkpt><trkpt lat="42.260683" lon="14.2384695"><ele>349.1428571428571</ele><time>2026-05-01T09:42:35.942Z</time></trkpt><trkpt lat="42.2606506" lon="14.238548"><ele>349.2857142857143</ele><time>2026-05-01T09:42:36.941Z</time></trkpt><trkpt lat="42.2606196" lon="14.2386331"><ele>349.42857142857144</ele><time>2026-05-01T09:42:37.941Z</time></trkpt><trkpt lat="42.2605873" lon="14.238721"><ele>349.57142857142856</ele><time>2026-05-01T09:42:38.937Z</time></trkpt><trkpt lat="42.2605557" lon="14.238796"><ele>349.7142857142857</ele><time>2026-05-01T09:42:39.943Z</time></trkpt><trkpt lat="42.260519" lon="14.2388681"><ele>349.85714285714283</ele><time>2026-05-01T09:42:40.934Z</time></trkpt><trkpt lat="42.2604687" lon="14.2389322"><ele>350.0</ele><time>2026-05-01T09:42:41.939Z</time></trkpt><trkpt lat="42.260416" lon="14.238991"><ele>350.85714285714283</ele><time>2026-05-01T09:42:42.947Z</time></trkpt><trkpt lat="42.2603532" lon="14.2390393"><ele>351.7142857142857</ele><time>2026-05-01T09:42:43.941Z</time></trkpt><trkpt lat="42.2602903" lon="14.2390856"><ele>352.57142857142856</ele><time>2026-05-01T09:42:44.941Z</time></trkpt><trkpt lat="42.2602307" lon="14.2391276"><ele>353.42857142857144</ele><time>2026-05-01T09:42:45.932Z</time></trkpt><trkpt lat="42.2601698" lon="14.2391773"><ele>354.2857142857143</ele><time>2026-05-01T09:42:46.937Z</time></trkpt><trkpt lat="42.2601101" lon="14.239225"><ele>355.1428571428571</ele><time>2026-05-01T09:42:47.941Z</time></trkpt><trkpt lat="42.2600444" lon="14.2392512"><ele>356.0</ele><time>2026-05-01T09:42:48.947Z</time></trkpt><trkpt lat="42.2599781" lon="14.2392587"><ele>356.0</ele><time>2026-05-01T09:42:49.944Z</time></trkpt><trkpt lat="42.2599114" lon="14.2392466"><ele>356.0</ele><time>2026-05-01T09:42:50.98Z</time></trkpt><trkpt lat="42.2598472" lon="14.2392277"><ele>356.0</ele><time>2026-05-01T09:42:51.941Z</time></trkpt><trkpt lat="42.2597405" lon="14.2391748"><ele>356.0</ele><time>2026-05-01T09:42:53.932Z</time></trkpt><trkpt lat="42.2596213" lon="14.2391358"><ele>356.0</ele><time>2026-05-01T09:42:55.939Z</time></trkpt><trkpt lat="42.2595093" lon="14.2390939"><ele>357.0</ele><time>2026-05-01T09:42:57.951Z</time></trkpt><trkpt lat="42.2594464" lon="14.2390792"><ele>358.0</ele><time>2026-05-01T09:42:58.941Z</time></trkpt><trkpt lat="42.2593324" lon="14.2390816"><ele>359.0</ele><time>2026-05-01T09:43:00.936Z</time></trkpt><trkpt lat="42.2592677" lon="14.2391187"><ele>360.0</ele><time>2026-05-01T09:43:01.932Z</time></trkpt><trkpt lat="42.2591621" lon="14.239166"><ele>361.0</ele><time>2026-05-01T09:43:03.934Z</time></trkpt><trkpt lat="42.25904" lon="14.2391881"><ele>361.0</ele><time>2026-05-01T09:43:05.939Z</time></trkpt><trkpt lat="42.2589711" lon="14.2391803"><ele>361.0</ele><time>2026-05-01T09:43:06.935Z</time></trkpt><trkpt lat="42.2588929" lon="14.2391624"><ele>361.0</ele><time>2026-05-01T09:43:07.943Z</time></trkpt><trkpt lat="42.2588179" lon="14.2391458"><ele>361.0</ele><time>2026-05-01T09:43:08.931Z</time></trkpt><trkpt lat="42.2587492" lon="14.239136"><ele>361.0</ele><time>2026-05-01T09:43:09.938Z</time></trkpt><trkpt lat="42.2586804" lon="14.2391564"><ele>361.0</ele><time>2026-05-01T09:43:10.933Z</time></trkpt><trkpt lat="42.258615" lon="14.2391836"><ele>361.0</ele><time>2026-05-01T09:43:11.976Z</time></trkpt><trkpt lat="42.2585487" lon="14.2392204"><ele>362.3333333333333</ele><time>2026-05-01T09:43:12.936Z</time></trkpt><trkpt lat="42.2584932" lon="14.2392705"><ele>363.66666666666663</ele><time>2026-05-01T09:43:13.95Z</time></trkpt><trkpt lat="42.2584283" lon="14.23932"><ele>365.0</ele><time>2026-05-01T09:43:14.937Z</time></trkpt><trkpt lat="42.2583482" lon="14.2393794"><ele>366.3333333333333</ele><time>2026-05-01T09:43:15.938Z</time></trkpt><trkpt lat="42.25828" lon="14.2394406"><ele>367.6666666666667</ele><time>2026-05-01T09:43:16.947Z</time></trkpt><trkpt lat="42.2582023" lon="14.2394978"><ele>369.0</ele><time>2026-05-01T09:43:17.936Z</time></trkpt><trkpt lat="42.2581231" lon="14.2395642"><ele>368.79999999999995</ele><time>2026-05-01T09:43:18.955Z</time></trkpt><trkpt lat="42.2580502" lon="14.239637"><ele>368.59999999999997</ele><time>2026-05-01T09:43:19.942Z</time></trkpt><trkpt lat="42.2579738" lon="14.2397194"><ele>368.4</ele><time>2026-05-01T09:43:20.947Z</time></trkpt><trkpt lat="42.2579046" lon="14.2398108"><ele>368.2</ele><time>2026-05-01T09:43:21.945Z</time></trkpt><trkpt lat="42.2578513" lon="14.2399237"><ele>368.0</ele><time>2026-05-01T09:43:22.941Z</time></trkpt><trkpt lat="42.257808" lon="14.2400574"><ele>367.0</ele><time>2026-05-01T09:43:23.956Z</time></trkpt><trkpt lat="42.2577717" lon="14.2401665"><ele>366.0</ele><time>2026-05-01T09:43:24.943Z</time></trkpt><trkpt lat="42.2577094" lon="14.2402401"><ele>365.0</ele><time>2026-05-01T09:43:25.94Z</time></trkpt><trkpt lat="42.2576396" lon="14.2402771"><ele>364.0</ele><time>2026-05-01T09:43:26.944Z</time></trkpt><trkpt lat="42.2575517" lon="14.2402962"><ele>363.0</ele><time>2026-05-01T09:43:27.949Z</time></trkpt><trkpt lat="42.2574579" lon="14.240286"><ele>362.0</ele><time>2026-05-01T09:43:28.941Z</time></trkpt><trkpt lat="42.2573722" lon="14.240242"><ele>360.33333333333337</ele><time>2026-05-01T09:43:29.951Z</time></trkpt><trkpt lat="42.2572855" lon="14.2401875"><ele>358.6666666666667</ele><time>2026-05-01T09:43:30.943Z</time></trkpt><trkpt lat="42.2571959" lon="14.2401349"><ele>357.0</ele><time>2026-05-01T09:43:31.942Z</time></trkpt><trkpt lat="42.2571114" lon="14.2400996"><ele>355.3333333333333</ele><time>2026-05-01T09:43:32.945Z</time></trkpt><trkpt lat="42.2570472" lon="14.2400428"><ele>353.66666666666663</ele><time>2026-05-01T09:43:33.953Z</time></trkpt><trkpt lat="42.2569967" lon="14.2399805"><ele>352.0</ele><time>2026-05-01T09:43:34.946Z</time></trkpt><trkpt lat="42.2569477" lon="14.2398237"><ele>353.0</ele><time>2026-05-01T09:43:36.957Z</time></trkpt><trkpt lat="42.2569105" lon="14.2397403"><ele>354.0</ele><time>2026-05-01T09:43:37.944Z</time></trkpt><trkpt lat="42.2568556" lon="14.2396578"><ele>355.0</ele><time>2026-05-01T09:43:38.943Z</time></trkpt><trkpt lat="42.2567999" lon="14.239582"><ele>356.0</ele><time>2026-05-01T09:43:39.95Z</time></trkpt><trkpt lat="42.2567033" lon="14.2395301"><ele>357.0</ele><time>2026-05-01T09:43:41.956Z</time></trkpt><trkpt lat="42.2565777" lon="14.2395221"><ele>357.0</ele><time>2026-05-01T09:43:43.947Z</time></trkpt><trkpt lat="42.2564615" lon="14.2394244"><ele>357.0</ele><time>2026-05-01T09:43:45.943Z</time></trkpt><trkpt lat="42.256379" lon="14.239338"><ele>357.0</ele><time>2026-05-01T09:43:46.948Z</time></trkpt><trkpt lat="42.2562791" lon="14.2392522"><ele>357.0</ele><time>2026-05-01T09:43:47.947Z</time></trkpt><trkpt lat="42.2561776" lon="14.239171"><ele>354.0</ele><time>2026-05-01T09:43:48.953Z</time></trkpt><trkpt lat="42.2560634" lon="14.2390865"><ele>351.0</ele><time>2026-05-01T09:43:49.947Z</time></trkpt><trkpt lat="42.2559473" lon="14.2390101"><ele>348.0</ele><time>2026-05-01T09:43:50.938Z</time></trkpt><trkpt lat="42.2558391" lon="14.2389193"><ele>345.0</ele><time>2026-05-01T09:43:51.942Z</time></trkpt><trkpt lat="42.2557418" lon="14.2388133"><ele>345.0</ele><time>2026-05-01T09:43:52.938Z</time></trkpt><trkpt lat="42.255672" lon="14.2387274"><ele>345.0</ele><time>2026-05-01T09:43:53.958Z</time></trkpt><trkpt lat="42.2556199" lon="14.2386649"><ele>345.0</ele><time>2026-05-01T09:43:54.948Z</time></trkpt><trkpt lat="42.2555653" lon="14.2386143"><ele>345.0</ele><time>2026-05-01T09:43:55.949Z</time></trkpt><trkpt lat="42.2554524" lon="14.2386242"><ele>345.0</ele><time>2026-05-01T09:43:57.946Z</time></trkpt><trkpt lat="42.2553951" lon="14.2387283"><ele>345.0</ele><time>2026-05-01T09:43:59.951Z</time></trkpt><trkpt lat="42.2553936" lon="14.2389088"><ele>344.8571428571429</ele><time>2026-05-01T09:44:01.955Z</time></trkpt><trkpt lat="42.2553934" lon="14.239003"><ele>344.7142857142857</ele><time>2026-05-01T09:44:02.948Z</time></trkpt><trkpt lat="42.2553748" lon="14.2390859"><ele>344.57142857142856</ele><time>2026-05-01T09:44:03.949Z</time></trkpt><trkpt lat="42.2553464" lon="14.2391665"><ele>344.42857142857144</ele><time>2026-05-01T09:44:04.948Z</time></trkpt><trkpt lat="42.2553133" lon="14.2392453"><ele>344.2857142857143</ele><time>2026-05-01T09:44:05.945Z</time></trkpt><trkpt lat="42.2552613" lon="14.2393092"><ele>344.14285714285717</ele><time>2026-05-01T09:44:06.94Z</time></trkpt><trkpt lat="42.2551988" lon="14.2393535"><ele>344.0</ele><time>2026-05-01T09:44:07.946Z</time></trkpt><trkpt lat="42.2551255" lon="14.2393889"><ele>344.0</ele><time>2026-05-01T09:44:08.942Z</time></trkpt><trkpt lat="42.2550363" lon="14.2394224"><ele>344.0</ele><time>2026-05-01T09:44:09.951Z</time></trkpt><trkpt lat="42.2549539" lon="14.239464"><ele>344.0</ele><time>2026-05-01T09:44:10.95Z</time></trkpt><trkpt lat="42.2548741" lon="14.2395016"><ele>344.0</ele><time>2026-05-01T09:44:11.947Z</time></trkpt><trkpt lat="42.254793" lon="14.2395291"><ele>344.0</ele><time>2026-05-01T09:44:12.955Z</time></trkpt><trkpt lat="42.2547054" lon="14.2395275"><ele>344.0</ele><time>2026-05-01T09:44:13.944Z</time></trkpt><trkpt lat="42.2546254" lon="14.2395063"><ele>343.83333333333337</ele><time>2026-05-01T09:44:14.947Z</time></trkpt><trkpt lat="42.2545426" lon="14.2394818"><ele>343.6666666666667</ele><time>2026-05-01T09:44:15.953Z</time></trkpt><trkpt lat="42.2544693" lon="14.2394568"><ele>343.5</ele><time>2026-05-01T09:44:16.957Z</time></trkpt><trkpt lat="42.2543856" lon="14.239411"><ele>343.3333333333333</ele><time>2026-05-01T09:44:17.949Z</time></trkpt><trkpt lat="42.254307" lon="14.2393665"><ele>343.16666666666663</ele><time>2026-05-01T09:44:18.935Z</time></trkpt><trkpt lat="42.2543552" lon="14.2394306"><ele>343.0</ele><time>2026-05-01T09:44:21.944Z</time></trkpt><trkpt lat="42.254424" lon="14.2394652"><ele>343.0</ele><time>2026-05-01T09:44:23.944Z</time></trkpt><trkpt lat="42.2544903" lon="14.2394903"><ele>343.0</ele><time>2026-05-01T09:44:24.941Z</time></trkpt><trkpt lat="42.2545591" lon="14.2395235"><ele>343.0</ele><time>2026-05-01T09:44:25.926Z</time></trkpt><trkpt lat="42.2546379" lon="14.2395512"><ele>343.0</ele><time>2026-05-01T09:44:26.941Z</time></trkpt><trkpt lat="42.2547281" lon="14.2395612"><ele>343.0</ele><time>2026-05-01T09:44:27.935Z</time></trkpt><trkpt lat="42.2548342" lon="14.2395404"><ele>343.0</ele><time>2026-05-01T09:44:28.949Z</time></trkpt><trkpt lat="42.2549402" lon="14.2394981"><ele>343.25</ele><time>2026-05-01T09:44:29.935Z</time></trkpt><trkpt lat="42.2550498" lon="14.2394428"><ele>343.5</ele><time>2026-05-01T09:44:30.943Z</time></trkpt><trkpt lat="42.2551713" lon="14.2393629"><ele>343.75</ele><time>2026-05-01T09:44:31.949Z</time></trkpt><trkpt lat="42.2552858" lon="14.2392754"><ele>344.0</ele><time>2026-05-01T09:44:32.94Z</time></trkpt><trkpt lat="42.2553858" lon="14.2391651"><ele>344.0</ele><time>2026-05-01T09:44:33.941Z</time></trkpt><trkpt lat="42.2554657" lon="14.2390495"><ele>344.0</ele><time>2026-05-01T09:44:34.948Z</time></trkpt><trkpt lat="42.2555237" lon="14.2389225"><ele>344.0</ele><time>2026-05-01T09:44:35.93Z</time></trkpt><trkpt lat="42.2555483" lon="14.2387735"><ele>344.0</ele><time>2026-05-01T09:44:36.931Z</time></trkpt><trkpt lat="42.2555462" lon="14.2386249"><ele>344.2</ele><time>2026-05-01T09:44:37.933Z</time></trkpt><trkpt lat="42.2555238" lon="14.2384927"><ele>344.4</ele><time>2026-05-01T09:44:38.928Z</time></trkpt><trkpt lat="42.25548" lon="14.2383784"><ele>344.6</ele><time>2026-05-01T09:44:39.942Z</time></trkpt><trkpt lat="42.255414" lon="14.238288"><ele>344.8</ele><time>2026-05-01T09:44:40.935Z</time></trkpt><trkpt lat="42.255331" lon="14.2382254"><ele>345.0</ele><time>2026-05-01T09:44:41.932Z</time></trkpt><trkpt lat="42.2552198" lon="14.2381862"><ele>345.0</ele><time>2026-05-01T09:44:42.935Z</time></trkpt><trkpt lat="42.2550899" lon="14.2381551"><ele>345.0</ele><time>2026-05-01T09:44:43.931Z</time></trkpt><trkpt lat="42.2549459" lon="14.2381232"><ele>345.0</ele><time>2026-05-01T09:44:44.932Z</time></trkpt><trkpt lat="42.2547998" lon="14.2381013"><ele>345.0</ele><time>2026-05-01T09:44:45.935Z</time></trkpt><trkpt lat="42.2546614" lon="14.2380809"><ele>340.5</ele><time>2026-05-01T09:44:46.934Z</time></trkpt><trkpt lat="42.2545277" lon="14.2380554"><ele>336.0</ele><time>2026-05-01T09:44:47.947Z</time></trkpt><trkpt lat="42.2543995" lon="14.2380246"><ele>331.5</ele><time>2026-05-01T09:44:48.934Z</time></trkpt><trkpt lat="42.2542723" lon="14.2379691"><ele>327.0</ele><time>2026-05-01T09:44:49.95Z</time></trkpt><trkpt lat="42.2541502" lon="14.2378883"><ele>327.0</ele><time>2026-05-01T09:44:50.936Z</time></trkpt><trkpt lat="42.2540312" lon="14.237772"><ele>327.0</ele><time>2026-05-01T09:44:51.935Z</time></trkpt><trkpt lat="42.2539164" lon="14.2376622"><ele>327.0</ele><time>2026-05-01T09:44:52.928Z</time></trkpt><trkpt lat="42.2538031" lon="14.2375375"><ele>327.0</ele><time>2026-05-01T09:44:53.932Z</time></trkpt><trkpt lat="42.2536946" lon="14.237415"><ele>327.75</ele><time>2026-05-01T09:44:54.97Z</time></trkpt><trkpt lat="42.2535979" lon="14.2372856"><ele>328.5</ele><time>2026-05-01T09:44:55.938Z</time></trkpt><trkpt lat="42.2535222" lon="14.2371205"><ele>329.25</ele><time>2026-05-01T09:44:56.934Z</time></trkpt><trkpt lat="42.2534609" lon="14.2369597"><ele>330.0</ele><time>2026-05-01T09:44:57.933Z</time></trkpt><trkpt lat="42.2534046" lon="14.2367868"><ele>330.0</ele><time>2026-05-01T09:44:58.932Z</time></trkpt><trkpt lat="42.2533544" lon="14.2366119"><ele>330.0</ele><time>2026-05-01T09:44:59.943Z</time></trkpt><trkpt lat="42.2532918" lon="14.23644"><ele>330.0</ele><time>2026-05-01T09:45:00.933Z</time></trkpt><trkpt lat="42.253235" lon="14.2362757"><ele>330.0</ele><time>2026-05-01T09:45:01.938Z</time></trkpt><trkpt lat="42.2531815" lon="14.2361119"><ele>330.5</ele><time>2026-05-01T09:45:02.943Z</time></trkpt><trkpt lat="42.253132" lon="14.2359466"><ele>331.0</ele><time>2026-05-01T09:45:03.93Z</time></trkpt><trkpt lat="42.2530774" lon="14.2357839"><ele>331.5</ele><time>2026-05-01T09:45:04.943Z</time></trkpt><trkpt lat="42.2530252" lon="14.2356259"><ele>332.0</ele><time>2026-05-01T09:45:05.933Z</time></trkpt><trkpt lat="42.2529582" lon="14.2354798"><ele>327.5</ele><time>2026-05-01T09:45:06.934Z</time></trkpt><trkpt lat="42.2528761" lon="14.2353537"><ele>323.0</ele><time>2026-05-01T09:45:07.939Z</time></trkpt><trkpt lat="42.25277" lon="14.2352519"><ele>318.5</ele><time>2026-05-01T09:45:08.936Z</time></trkpt><trkpt lat="42.2526458" lon="14.235181"><ele>314.0</ele><time>2026-05-01T09:45:09.933Z</time></trkpt><trkpt lat="42.2525317" lon="14.2351115"><ele>314.0</ele><time>2026-05-01T09:45:10.943Z</time></trkpt><trkpt lat="42.2524182" lon="14.2350321"><ele>314.0</ele><time>2026-05-01T09:45:11.938Z</time></trkpt><trkpt lat="42.2523107" lon="14.2349308"><ele>314.0</ele><time>2026-05-01T09:45:12.962Z</time></trkpt><trkpt lat="42.2522121" lon="14.2348015"><ele>314.0</ele><time>2026-05-01T09:45:13.936Z</time></trkpt><trkpt lat="42.2521275" lon="14.2346544"><ele>315.0</ele><time>2026-05-01T09:45:14.936Z</time></trkpt><trkpt lat="42.2520361" lon="14.2344958"><ele>316.0</ele><time>2026-05-01T09:45:15.935Z</time></trkpt><trkpt lat="42.2519468" lon="14.2343473"><ele>317.0</ele><time>2026-05-01T09:45:16.932Z</time></trkpt><trkpt lat="42.2518757" lon="14.2342041"><ele>318.0</ele><time>2026-05-01T09:45:17.932Z</time></trkpt><trkpt lat="42.2518144" lon="14.2340822"><ele>315.1666666666667</ele><time>2026-05-01T09:45:18.932Z</time></trkpt><trkpt lat="42.2517892" lon="14.2339574"><ele>312.3333333333333</ele><time>2026-05-01T09:45:19.943Z</time></trkpt><trkpt lat="42.2517928" lon="14.2338388"><ele>309.5</ele><time>2026-05-01T09:45:20.941Z</time></trkpt><trkpt lat="42.2518203" lon="14.2337247"><ele>306.66666666666663</ele><time>2026-05-01T09:45:21.936Z</time></trkpt><trkpt lat="42.2518632" lon="14.2336463"><ele>303.8333333333333</ele><time>2026-05-01T09:45:22.935Z</time></trkpt><trkpt lat="42.2519288" lon="14.2336229"><ele>301.0</ele><time>2026-05-01T09:45:23.93Z</time></trkpt><trkpt lat="42.2519979" lon="14.2336392"><ele>301.0</ele><time>2026-05-01T09:45:24.932Z</time></trkpt><trkpt lat="42.2520667" lon="14.2336964"><ele>301.0</ele><time>2026-05-01T09:45:25.939Z</time></trkpt><trkpt lat="42.2521267" lon="14.2338022"><ele>301.0</ele><time>2026-05-01T09:45:26.948Z</time></trkpt><trkpt lat="42.2521837" lon="14.2339342"><ele>301.0</ele><time>2026-05-01T09:45:27.937Z</time></trkpt><trkpt lat="42.2522492" lon="14.2340833"><ele>301.0</ele><time>2026-05-01T09:45:28.995Z</time></trkpt><trkpt lat="42.2523287" lon="14.2342111"><ele>299.75</ele><time>2026-05-01T09:45:29.928Z</time></trkpt><trkpt lat="42.2524268" lon="14.2343248"><ele>298.5</ele><time>2026-05-01T09:45:30.933Z</time></trkpt><trkpt lat="42.2525499" lon="14.2344107"><ele>297.25</ele><time>2026-05-01T09:45:31.934Z</time></trkpt><trkpt lat="42.2526931" lon="14.2344508"><ele>296.0</ele><time>2026-05-01T09:45:32.931Z</time></trkpt><trkpt lat="42.2528405" lon="14.2344642"><ele>296.0</ele><time>2026-05-01T09:45:33.936Z</time></trkpt><trkpt lat="42.2529921" lon="14.2344635"><ele>296.0</ele><time>2026-05-01T09:45:34.931Z</time></trkpt><trkpt lat="42.2531396" lon="14.2344572"><ele>296.0</ele><time>2026-05-01T09:45:35.934Z</time></trkpt><trkpt lat="42.2532849" lon="14.2344624"><ele>296.0</ele><time>2026-05-01T09:45:36.94Z</time></trkpt><trkpt lat="42.2534205" lon="14.2344765"><ele>294.25</ele><time>2026-05-01T09:45:37.934Z</time></trkpt><trkpt lat="42.253557" lon="14.2345"><ele>292.5</ele><time>2026-05-01T09:45:38.934Z</time></trkpt><trkpt lat="42.2536949" lon="14.2345492"><ele>290.75</ele><time>2026-05-01T09:45:39.939Z</time></trkpt><trkpt lat="42.2538296" lon="14.234618"><ele>289.0</ele><time>2026-05-01T09:45:40.933Z</time></trkpt><trkpt lat="42.2539708" lon="14.2347037"><ele>290.3333333333333</ele><time>2026-05-01T09:45:41.943Z</time></trkpt><trkpt lat="42.25412" lon="14.2347882"><ele>291.6666666666667</ele><time>2026-05-01T09:45:42.935Z</time></trkpt><trkpt lat="42.2542736" lon="14.2348795"><ele>293.0</ele><time>2026-05-01T09:45:43.943Z</time></trkpt><trkpt lat="42.2544185" lon="14.2349739"><ele>293.0</ele><time>2026-05-01T09:45:44.95Z</time></trkpt><trkpt lat="42.254554" lon="14.2350577"><ele>293.0</ele><time>2026-05-01T09:45:45.966Z</time></trkpt><trkpt lat="42.2546917" lon="14.2351369"><ele>293.0</ele><time>2026-05-01T09:45:46.942Z</time></trkpt><trkpt lat="42.2548328" lon="14.2352086"><ele>293.0</ele><time>2026-05-01T09:45:47.946Z</time></trkpt><trkpt lat="42.2549816" lon="14.235253"><ele>290.0</ele><time>2026-05-01T09:45:48.945Z</time></trkpt><trkpt lat="42.2551376" lon="14.2352835"><ele>287.0</ele><time>2026-05-01T09:45:49.934Z</time></trkpt><trkpt lat="42.2553018" lon="14.2353042"><ele>284.0</ele><time>2026-05-01T09:45:50.938Z</time></trkpt><trkpt lat="42.2554567" lon="14.23532"><ele>284.0</ele><time>2026-05-01T09:45:51.946Z</time></trkpt><trkpt lat="42.2556013" lon="14.235331"><ele>284.0</ele><time>2026-05-01T09:45:52.947Z</time></trkpt><trkpt lat="42.2557359" lon="14.2353406"><ele>284.0</ele><time>2026-05-01T09:45:53.946Z</time></trkpt><trkpt lat="42.2558688" lon="14.2353321"><ele>284.0</ele><time>2026-05-01T09:45:54.934Z</time></trkpt><trkpt lat="42.2559985" lon="14.2352829"><ele>281.33333333333337</ele><time>2026-05-01T09:45:55.933Z</time></trkpt><trkpt lat="42.2561352" lon="14.2352117"><ele>278.6666666666667</ele><time>2026-05-01T09:45:56.948Z</time></trkpt><trkpt lat="42.2562724" lon="14.2350857"><ele>276.0</ele><time>2026-05-01T09:45:57.942Z</time></trkpt><trkpt lat="42.2564101" lon="14.2349598"><ele>276.25</ele><time>2026-05-01T09:45:58.938Z</time></trkpt><trkpt lat="42.2565326" lon="14.2348409"><ele>276.5</ele><time>2026-05-01T09:45:59.946Z</time></trkpt><trkpt lat="42.2566446" lon="14.2347321"><ele>276.75</ele><time>2026-05-01T09:46:00.938Z</time></trkpt><trkpt lat="42.2567469" lon="14.2346418"><ele>277.0</ele><time>2026-05-01T09:46:01.942Z</time></trkpt><trkpt lat="42.2568335" lon="14.2345593"><ele>274.8</ele><time>2026-05-01T09:46:02.972Z</time></trkpt><trkpt lat="42.2569205" lon="14.2344757"><ele>272.6</ele><time>2026-05-01T09:46:03.939Z</time></trkpt><trkpt lat="42.2569958" lon="14.23442"><ele>270.40000000000003</ele><time>2026-05-01T09:46:04.941Z</time></trkpt><trkpt lat="42.2569822" lon="14.2343123"><ele>268.2</ele><time>2026-05-01T09:46:07.936Z</time></trkpt><trkpt lat="42.2569063" lon="14.23429"><ele>266.0</ele><time>2026-05-01T09:46:09.93Z</time></trkpt><trkpt lat="42.2567903" lon="14.2343087"><ele>266.0</ele><time>2026-05-01T09:46:11.93Z</time></trkpt><trkpt lat="42.2567112" lon="14.2343102"><ele>266.0</ele><time>2026-05-01T09:46:12.94Z</time></trkpt><trkpt lat="42.2566183" lon="14.2343131"><ele>266.0</ele><time>2026-05-01T09:46:13.936Z</time></trkpt><trkpt lat="42.2565159" lon="14.234331"><ele>266.0</ele><time>2026-05-01T09:46:14.941Z</time></trkpt><trkpt lat="42.2564052" lon="14.2343323"><ele>266.0</ele><time>2026-05-01T09:46:15.942Z</time></trkpt><trkpt lat="42.2563007" lon="14.234334"><ele>266.0</ele><time>2026-05-01T09:46:16.938Z</time></trkpt><trkpt lat="42.2562011" lon="14.2343479"><ele>266.0</ele><time>2026-05-01T09:46:17.943Z</time></trkpt><trkpt lat="42.2561023" lon="14.2343549"><ele>266.0</ele><time>2026-05-01T09:46:18.936Z</time></trkpt><trkpt lat="42.2560015" lon="14.2343361"><ele>266.0</ele><time>2026-05-01T09:46:19.932Z</time></trkpt><trkpt lat="42.2559036" lon="14.234296"><ele>266.0</ele><time>2026-05-01T09:46:20.934Z</time></trkpt><trkpt lat="42.2558262" lon="14.2342115"><ele>266.0</ele><time>2026-05-01T09:46:21.932Z</time></trkpt><trkpt lat="42.255751" lon="14.2341167"><ele>266.0</ele><time>2026-05-01T09:46:22.944Z</time></trkpt><trkpt lat="42.2556976" lon="14.2340004"><ele>266.0</ele><time>2026-05-01T09:46:23.941Z</time></trkpt><trkpt lat="42.2556638" lon="14.2338494"><ele>266.0</ele><time>2026-05-01T09:46:24.935Z</time></trkpt><trkpt lat="42.2556358" lon="14.233687"><ele>266.0</ele><time>2026-05-01T09:46:25.936Z</time></trkpt><trkpt lat="42.2556108" lon="14.233513"><ele>263.5</ele><time>2026-05-01T09:46:26.94Z</time></trkpt><trkpt lat="42.2555948" lon="14.2333439"><ele>261.0</ele><time>2026-05-01T09:46:27.935Z</time></trkpt><trkpt lat="42.2555931" lon="14.2331869"><ele>258.5</ele><time>2026-05-01T09:46:28.933Z</time></trkpt><trkpt lat="42.2556207" lon="14.233046"><ele>256.0</ele><time>2026-05-01T09:46:29.932Z</time></trkpt><trkpt lat="42.2556724" lon="14.2329129"><ele>254.75</ele><time>2026-05-01T09:46:30.93Z</time></trkpt><trkpt lat="42.2557405" lon="14.2327887"><ele>253.5</ele><time>2026-05-01T09:46:31.936Z</time></trkpt><trkpt lat="42.2558324" lon="14.2326846"><ele>252.25</ele><time>2026-05-01T09:46:32.934Z</time></trkpt><trkpt lat="42.2559458" lon="14.2326018"><ele>251.0</ele><time>2026-05-01T09:46:33.935Z</time></trkpt><trkpt lat="42.2560781" lon="14.2325208"><ele>251.0</ele><time>2026-05-01T09:46:34.93Z</time></trkpt><trkpt lat="42.2562026" lon="14.2324484"><ele>251.0</ele><time>2026-05-01T09:46:35.93Z</time></trkpt><trkpt lat="42.2563315" lon="14.2323744"><ele>251.0</ele><time>2026-05-01T09:46:36.938Z</time></trkpt><trkpt lat="42.2564677" lon="14.2323265"><ele>251.0</ele><time>2026-05-01T09:46:37.93Z</time></trkpt><trkpt lat="42.2566015" lon="14.2322874"><ele>249.25</ele><time>2026-05-01T09:46:38.934Z</time></trkpt><trkpt lat="42.2567325" lon="14.232277"><ele>247.5</ele><time>2026-05-01T09:46:39.938Z</time></trkpt><trkpt lat="42.2568545" lon="14.2322618"><ele>245.75</ele><time>2026-05-01T09:46:40.931Z</time></trkpt><trkpt lat="42.2569662" lon="14.2322316"><ele>244.0</ele><time>2026-05-01T09:46:41.935Z</time></trkpt><trkpt lat="42.2570768" lon="14.2321816"><ele>244.0</ele><time>2026-05-01T09:46:42.938Z</time></trkpt><trkpt lat="42.2571856" lon="14.2320942"><ele>244.0</ele><time>2026-05-01T09:46:43.939Z</time></trkpt><trkpt lat="42.2572869" lon="14.2319476"><ele>244.0</ele><time>2026-05-01T09:46:44.932Z</time></trkpt><trkpt lat="42.2573895" lon="14.2317936"><ele>244.0</ele><time>2026-05-01T09:46:45.946Z</time></trkpt><trkpt lat="42.2574898" lon="14.2316474"><ele>242.25</ele><time>2026-05-01T09:46:46.946Z</time></trkpt><trkpt lat="42.2575883" lon="14.2315104"><ele>240.5</ele><time>2026-05-01T09:46:47.938Z</time></trkpt><trkpt lat="42.2576817" lon="14.2313905"><ele>238.75</ele><time>2026-05-01T09:46:48.934Z</time></trkpt><trkpt lat="42.257777" lon="14.2312731"><ele>237.0</ele><time>2026-05-01T09:46:49.938Z</time></trkpt><trkpt lat="42.257879" lon="14.2311555"><ele>236.25</ele><time>2026-05-01T09:46:50.938Z</time></trkpt><trkpt lat="42.2579821" lon="14.2310245"><ele>235.5</ele><time>2026-05-01T09:46:51.938Z</time></trkpt><trkpt lat="42.2580761" lon="14.2308841"><ele>234.75</ele><time>2026-05-01T09:46:52.945Z</time></trkpt><trkpt lat="42.2581588" lon="14.2307265"><ele>234.0</ele><time>2026-05-01T09:46:53.934Z</time></trkpt><trkpt lat="42.2582248" lon="14.2305482"><ele>229.66666666666669</ele><time>2026-05-01T09:46:54.94Z</time></trkpt><trkpt lat="42.2582775" lon="14.2303433"><ele>225.33333333333334</ele><time>2026-05-01T09:46:55.942Z</time></trkpt><trkpt lat="42.2583203" lon="14.230138"><ele>221.0</ele><time>2026-05-01T09:46:56.932Z</time></trkpt><trkpt lat="42.2583555" lon="14.2299326"><ele>220.25</ele><time>2026-05-01T09:46:57.944Z</time></trkpt><trkpt lat="42.2583968" lon="14.2297428"><ele>219.5</ele><time>2026-05-01T09:46:58.937Z</time></trkpt><trkpt lat="42.2584292" lon="14.229563"><ele>218.75</ele><time>2026-05-01T09:46:59.933Z</time></trkpt><trkpt lat="42.2584467" lon="14.2294"><ele>218.0</ele><time>2026-05-01T09:47:00.939Z</time></trkpt><trkpt lat="42.2584385" lon="14.2292481"><ele>218.0</ele><time>2026-05-01T09:47:01.932Z</time></trkpt><trkpt lat="42.2583977" lon="14.2291046"><ele>218.0</ele><time>2026-05-01T09:47:02.943Z</time></trkpt><trkpt lat="42.258325" lon="14.2289905"><ele>218.0</ele><time>2026-05-01T09:47:03.943Z</time></trkpt><trkpt lat="42.2582328" lon="14.2289108"><ele>218.0</ele><time>2026-05-01T09:47:04.935Z</time></trkpt><trkpt lat="42.2581204" lon="14.2288665"><ele>216.25</ele><time>2026-05-01T09:47:05.936Z</time></trkpt><trkpt lat="42.2580019" lon="14.2288813"><ele>214.5</ele><time>2026-05-01T09:47:06.939Z</time></trkpt><trkpt lat="42.2578675" lon="14.2289374"><ele>212.75</ele><time>2026-05-01T09:47:07.936Z</time></trkpt><trkpt lat="42.2577399" lon="14.2290209"><ele>211.0</ele><time>2026-05-01T09:47:08.936Z</time></trkpt><trkpt lat="42.2576129" lon="14.2291193"><ele>211.0</ele><time>2026-05-01T09:47:09.943Z</time></trkpt><trkpt lat="42.257495" lon="14.2292193"><ele>211.0</ele><time>2026-05-01T09:47:10.941Z</time></trkpt><trkpt lat="42.2573756" lon="14.2293061"><ele>211.0</ele><time>2026-05-01T09:47:11.936Z</time></trkpt><trkpt lat="42.2572625" lon="14.2293689"><ele>211.0</ele><time>2026-05-01T09:47:12.939Z</time></trkpt><trkpt lat="42.2571476" lon="14.2294008"><ele>210.8</ele><time>2026-05-01T09:47:13.935Z</time></trkpt><trkpt lat="42.2570373" lon="14.2293958"><ele>210.60000000000002</ele><time>2026-05-01T09:47:14.932Z</time></trkpt><trkpt lat="42.2569317" lon="14.2293474"><ele>210.4</ele><time>2026-05-01T09:47:15.931Z</time></trkpt><trkpt lat="42.2568559" lon="14.2292614"><ele>210.2</ele><time>2026-05-01T09:47:16.936Z</time></trkpt><trkpt lat="42.2568108" lon="14.2291516"><ele>210.0</ele><time>2026-05-01T09:47:17.965Z</time></trkpt><trkpt lat="42.2567787" lon="14.2290146"><ele>209.8</ele><time>2026-05-01T09:47:18.938Z</time></trkpt><trkpt lat="42.2567711" lon="14.2288757"><ele>209.6</ele><time>2026-05-01T09:47:19.943Z</time></trkpt><trkpt lat="42.2567776" lon="14.2287458"><ele>209.39999999999998</ele><time>2026-05-01T09:47:20.935Z</time></trkpt><trkpt lat="42.2568215" lon="14.2286079"><ele>209.2</ele><time>2026-05-01T09:47:21.938Z</time></trkpt><trkpt lat="42.2568904" lon="14.2284665"><ele>209.0</ele><time>2026-05-01T09:47:22.95Z</time></trkpt><trkpt lat="42.2569819" lon="14.2283351"><ele>209.0</ele><time>2026-05-01T09:47:23.946Z</time></trkpt><trkpt lat="42.2570725" lon="14.2281952"><ele>209.0</ele><time>2026-05-01T09:47:24.935Z</time></trkpt><trkpt lat="42.2571687" lon="14.2280523"><ele>209.0</ele><time>2026-05-01T09:47:25.94Z</time></trkpt><trkpt lat="42.2572523" lon="14.2278989"><ele>209.0</ele><time>2026-05-01T09:47:26.946Z</time></trkpt><trkpt lat="42.257321" lon="14.2277408"><ele>207.0</ele><time>2026-05-01T09:47:27.949Z</time></trkpt><trkpt lat="42.2573781" lon="14.2275761"><ele>205.0</ele><time>2026-05-01T09:47:28.942Z</time></trkpt><trkpt lat="42.2574241" lon="14.2274064"><ele>203.0</ele><time>2026-05-01T09:47:29.938Z</time></trkpt><trkpt lat="42.2574531" lon="14.2272174"><ele>201.0</ele><time>2026-05-01T09:47:30.938Z</time></trkpt><trkpt lat="42.2574626" lon="14.2270309"><ele>199.20000000000002</ele><time>2026-05-01T09:47:31.932Z</time></trkpt><trkpt lat="42.2574511" lon="14.2268668"><ele>197.4</ele><time>2026-05-01T09:47:32.941Z</time></trkpt><trkpt lat="42.2574238" lon="14.2267347"><ele>195.6</ele><time>2026-05-01T09:47:33.967Z</time></trkpt><trkpt lat="42.2573698" lon="14.2266243"><ele>193.8</ele><time>2026-05-01T09:47:34.935Z</time></trkpt><trkpt lat="42.2572857" lon="14.2265353"><ele>192.0</ele><time>2026-05-01T09:47:35.935Z</time></trkpt><trkpt lat="42.2571891" lon="14.2264452"><ele>189.75</ele><time>2026-05-01T09:47:36.929Z</time></trkpt><trkpt lat="42.257072" lon="14.2263669"><ele>187.5</ele><time>2026-05-01T09:47:37.942Z</time></trkpt><trkpt lat="42.2569545" lon="14.226301"><ele>185.25</ele><time>2026-05-01T09:47:38.94Z</time></trkpt><trkpt lat="42.2568411" lon="14.2262407"><ele>183.0</ele><time>2026-05-01T09:47:39.946Z</time></trkpt><trkpt lat="42.256743" lon="14.2261847"><ele>183.0</ele><time>2026-05-01T09:47:40.939Z</time></trkpt><trkpt lat="42.2566711" lon="14.2261021"><ele>183.0</ele><time>2026-05-01T09:47:41.948Z</time></trkpt><trkpt lat="42.256624" lon="14.2259984"><ele>183.0</ele><time>2026-05-01T09:47:42.933Z</time></trkpt><trkpt lat="42.2566144" lon="14.2258797"><ele>183.0</ele><time>2026-05-01T09:47:43.941Z</time></trkpt><trkpt lat="42.2566415" lon="14.225764"><ele>183.0</ele><time>2026-05-01T09:47:44.934Z</time></trkpt><trkpt lat="42.2567035" lon="14.2256581"><ele>180.4</ele><time>2026-05-01T09:47:45.932Z</time></trkpt><trkpt lat="42.2567814" lon="14.2255863"><ele>177.8</ele><time>2026-05-01T09:47:46.946Z</time></trkpt><trkpt lat="42.2568759" lon="14.2255543"><ele>175.2</ele><time>2026-05-01T09:47:47.94Z</time></trkpt><trkpt lat="42.2569836" lon="14.2255497"><ele>172.6</ele><time>2026-05-01T09:47:48.97Z</time></trkpt><trkpt lat="42.2571046" lon="14.2255645"><ele>170.0</ele><time>2026-05-01T09:47:49.936Z</time></trkpt><trkpt lat="42.2572364" lon="14.2255757"><ele>170.75</ele><time>2026-05-01T09:47:50.933Z</time></trkpt><trkpt lat="42.2573852" lon="14.2255761"><ele>171.5</ele><time>2026-05-01T09:47:51.933Z</time></trkpt><trkpt lat="42.2575291" lon="14.225582"><ele>172.25</ele><time>2026-05-01T09:47:52.933Z</time></trkpt><trkpt lat="42.2576674" lon="14.2255844"><ele>173.0</ele><time>2026-05-01T09:47:53.936Z</time></trkpt><trkpt lat="42.257789" lon="14.2255809"><ele>173.0</ele><time>2026-05-01T09:47:54.933Z</time></trkpt><trkpt lat="42.2578944" lon="14.2255594"><ele>173.0</ele><time>2026-05-01T09:47:55.941Z</time></trkpt><trkpt lat="42.2579967" lon="14.2254989"><ele>173.0</ele><time>2026-05-01T09:47:56.947Z</time></trkpt><trkpt lat="42.2580669" lon="14.2253944"><ele>173.0</ele><time>2026-05-01T09:47:57.933Z</time></trkpt><trkpt lat="42.2580847" lon="14.2252725"><ele>173.0</ele><time>2026-05-01T09:47:58.935Z</time></trkpt><trkpt lat="42.2580682" lon="14.2251547"><ele>173.0</ele><time>2026-05-01T09:47:59.937Z</time></trkpt><trkpt lat="42.2579988" lon="14.2250406"><ele>173.0</ele><time>2026-05-01T09:48:00.938Z</time></trkpt><trkpt lat="42.2578977" lon="14.2249404"><ele>173.0</ele><time>2026-05-01T09:48:01.94Z</time></trkpt><trkpt lat="42.257778" lon="14.2248737"><ele>173.0</ele><time>2026-05-01T09:48:02.944Z</time></trkpt><trkpt lat="42.2576625" lon="14.2248182"><ele>171.25</ele><time>2026-05-01T09:48:03.945Z</time></trkpt><trkpt lat="42.2575223" lon="14.2247601"><ele>169.5</ele><time>2026-05-01T09:48:04.984Z</time></trkpt><trkpt lat="42.2573796" lon="14.2247007"><ele>167.75</ele><time>2026-05-01T09:48:05.932Z</time></trkpt><trkpt lat="42.2572535" lon="14.2246391"><ele>166.0</ele><time>2026-05-01T09:48:06.952Z</time></trkpt><trkpt lat="42.2571377" lon="14.2245798"><ele>165.4</ele><time>2026-05-01T09:48:07.932Z</time></trkpt><trkpt lat="42.2570532" lon="14.2245175"><ele>164.8</ele><time>2026-05-01T09:48:08.943Z</time></trkpt><trkpt lat="42.2569914" lon="14.2244339"><ele>164.20000000000002</ele><time>2026-05-01T09:48:09.932Z</time></trkpt><trkpt lat="42.2569474" lon="14.2243028"><ele>163.60000000000002</ele><time>2026-05-01T09:48:11.937Z</time></trkpt><trkpt lat="42.2569959" lon="14.2241359"><ele>163.0</ele><time>2026-05-01T09:48:13.934Z</time></trkpt><trkpt lat="42.2570537" lon="14.224057"><ele>163.0</ele><time>2026-05-01T09:48:14.954Z</time></trkpt><trkpt lat="42.257129" lon="14.2239941"><ele>163.0</ele><time>2026-05-01T09:48:15.941Z</time></trkpt><trkpt lat="42.2572308" lon="14.2239368"><ele>163.0</ele><time>2026-05-01T09:48:16.931Z</time></trkpt><trkpt lat="42.2573466" lon="14.2238687"><ele>163.0</ele><time>2026-05-01T09:48:17.938Z</time></trkpt><trkpt lat="42.2574601" lon="14.2237904"><ele>162.20000000000002</ele><time>2026-05-01T09:48:18.935Z</time></trkpt><trkpt lat="42.2575652" lon="14.2237198"><ele>161.4</ele><time>2026-05-01T09:48:19.947Z</time></trkpt><trkpt lat="42.2576567" lon="14.2236407"><ele>160.60000000000002</ele><time>2026-05-01T09:48:20.961Z</time></trkpt><trkpt lat="42.2577253" lon="14.2235464"><ele>159.8</ele><time>2026-05-01T09:48:21.941Z</time></trkpt><trkpt lat="42.257765" lon="14.2234249"><ele>159.0</ele><time>2026-05-01T09:48:22.948Z</time></trkpt><trkpt lat="42.2577655" lon="14.2233059"><ele>159.0</ele><time>2026-05-01T09:48:23.933Z</time></trkpt><trkpt lat="42.2577362" lon="14.2231742"><ele>159.0</ele><time>2026-05-01T09:48:24.943Z</time></trkpt><trkpt lat="42.2576939" lon="14.2230418"><ele>159.0</ele><time>2026-05-01T09:48:25.933Z</time></trkpt><trkpt lat="42.2576446" lon="14.2229031"><ele>159.0</ele><time>2026-05-01T09:48:26.937Z</time></trkpt><trkpt lat="42.2575868" lon="14.222757"><ele>159.0</ele><time>2026-05-01T09:48:27.935Z</time></trkpt><trkpt lat="42.2575261" lon="14.2226048"><ele>158.5</ele><time>2026-05-01T09:48:28.936Z</time></trkpt><trkpt lat="42.2574678" lon="14.2224307"><ele>158.0</ele><time>2026-05-01T09:48:29.943Z</time></trkpt><trkpt lat="42.2574054" lon="14.2222584"><ele>157.5</ele><time>2026-05-01T09:48:30.94Z</time></trkpt><trkpt lat="42.2573461" lon="14.2220927"><ele>157.0</ele><time>2026-05-01T09:48:31.937Z</time></trkpt><trkpt lat="42.2572968" lon="14.2219343"><ele>158.0</ele><time>2026-05-01T09:48:32.939Z</time></trkpt><trkpt lat="42.2572416" lon="14.2217744"><ele>159.0</ele><time>2026-05-01T09:48:33.948Z</time></trkpt><trkpt lat="42.257201" lon="14.221622"><ele>160.0</ele><time>2026-05-01T09:48:34.943Z</time></trkpt><trkpt lat="42.2571946" lon="14.2214762"><ele>161.0</ele><time>2026-05-01T09:48:35.947Z</time></trkpt><trkpt lat="42.2572087" lon="14.221318"><ele>162.0</ele><time>2026-05-01T09:48:36.937Z</time></trkpt><trkpt lat="42.2572512" lon="14.2211851"><ele>163.0</ele><time>2026-05-01T09:48:37.937Z</time></trkpt><trkpt lat="42.2573195" lon="14.2210726"><ele>164.0</ele><time>2026-05-01T09:48:38.969Z</time></trkpt><trkpt lat="42.2574077" lon="14.2209803"><ele>165.0</ele><time>2026-05-01T09:48:39.942Z</time></trkpt><trkpt lat="42.2575177" lon="14.220916"><ele>166.0</ele><time>2026-05-01T09:48:40.949Z</time></trkpt><trkpt lat="42.2576343" lon="14.2208631"><ele>166.0</ele><time>2026-05-01T09:48:41.931Z</time></trkpt><trkpt lat="42.2577558" lon="14.2208051"><ele>166.0</ele><time>2026-05-01T09:48:42.936Z</time></trkpt><trkpt lat="42.2578728" lon="14.2207357"><ele>166.0</ele><time>2026-05-01T09:48:43.932Z</time></trkpt><trkpt lat="42.257975" lon="14.2206714"><ele>166.0</ele><time>2026-05-01T09:48:44.944Z</time></trkpt><trkpt lat="42.2580488" lon="14.2205972"><ele>168.33333333333334</ele><time>2026-05-01T09:48:45.941Z</time></trkpt><trkpt lat="42.258091" lon="14.2205089"><ele>170.66666666666669</ele><time>2026-05-01T09:48:46.935Z</time></trkpt><trkpt lat="42.258094" lon="14.2204171"><ele>173.0</ele><time>2026-05-01T09:48:47.944Z</time></trkpt><trkpt lat="42.2580674" lon="14.2203204"><ele>175.33333333333334</ele><time>2026-05-01T09:48:48.937Z</time></trkpt><trkpt lat="42.2580064" lon="14.2202256"><ele>177.66666666666666</ele><time>2026-05-01T09:48:49.933Z</time></trkpt><trkpt lat="42.2579214" lon="14.2201713"><ele>180.0</ele><time>2026-05-01T09:48:50.939Z</time></trkpt><trkpt lat="42.2578129" lon="14.2201379"><ele>180.0</ele><time>2026-05-01T09:48:51.946Z</time></trkpt><trkpt lat="42.2576874" lon="14.2201206"><ele>180.0</ele><time>2026-05-01T09:48:52.931Z</time></trkpt><trkpt lat="42.2575658" lon="14.2200915"><ele>180.0</ele><time>2026-05-01T09:48:54.002Z</time></trkpt><trkpt lat="42.2574404" lon="14.2200664"><ele>180.0</ele><time>2026-05-01T09:48:54.938Z</time></trkpt><trkpt lat="42.2573019" lon="14.2200293"><ele>179.5</ele><time>2026-05-01T09:48:55.941Z</time></trkpt><trkpt lat="42.2571655" lon="14.2200027"><ele>179.0</ele><time>2026-05-01T09:48:56.939Z</time></trkpt><trkpt lat="42.2570411" lon="14.2199666"><ele>178.5</ele><time>2026-05-01T09:48:57.942Z</time></trkpt><trkpt lat="42.2569429" lon="14.219924"><ele>178.0</ele><time>2026-05-01T09:48:58.947Z</time></trkpt><trkpt lat="42.2568685" lon="14.2198601"><ele>180.66666666666669</ele><time>2026-05-01T09:48:59.95Z</time></trkpt><trkpt lat="42.256826" lon="14.2197795"><ele>183.33333333333334</ele><time>2026-05-01T09:49:00.947Z</time></trkpt><trkpt lat="42.2568038" lon="14.2196834"><ele>186.0</ele><time>2026-05-01T09:49:01.939Z</time></trkpt><trkpt lat="42.2567989" lon="14.2195746"><ele>188.66666666666669</ele><time>2026-05-01T09:49:02.937Z</time></trkpt><trkpt lat="42.2568263" lon="14.2194618"><ele>191.33333333333334</ele><time>2026-05-01T09:49:03.931Z</time></trkpt><trkpt lat="42.2568753" lon="14.2193697"><ele>194.0</ele><time>2026-05-01T09:49:04.931Z</time></trkpt><trkpt lat="42.2569462" lon="14.2192909"><ele>194.0</ele><time>2026-05-01T09:49:05.928Z</time></trkpt><trkpt lat="42.2570327" lon="14.2192048"><ele>194.0</ele><time>2026-05-01T09:49:06.939Z</time></trkpt><trkpt lat="42.2571249" lon="14.2191346"><ele>194.0</ele><time>2026-05-01T09:49:07.967Z</time></trkpt><trkpt lat="42.2571954" lon="14.21908"><ele>194.0</ele><time>2026-05-01T09:49:08.939Z</time></trkpt><trkpt lat="42.2572597" lon="14.2190444"><ele>194.0</ele><time>2026-05-01T09:49:10.941Z</time></trkpt><trkpt lat="42.2571732" lon="14.2190639"><ele>194.0</ele><time>2026-05-01T09:49:20.94Z</time></trkpt><trkpt lat="42.2571089" lon="14.219114"><ele>194.0</ele><time>2026-05-01T09:49:21.929Z</time></trkpt><trkpt lat="42.2570305" lon="14.2191976"><ele>194.0</ele><time>2026-05-01T09:49:22.936Z</time></trkpt><trkpt lat="42.2569506" lon="14.2192709"><ele>194.0</ele><time>2026-05-01T09:49:23.937Z</time></trkpt><trkpt lat="42.2568704" lon="14.2193433"><ele>194.0</ele><time>2026-05-01T09:49:24.94Z</time></trkpt><trkpt lat="42.2568044" lon="14.2194267"><ele>194.00000000000003</ele><time>2026-05-01T09:49:25.939Z</time></trkpt><trkpt lat="42.2567592" lon="14.2195095"><ele>194.0</ele><time>2026-05-01T09:49:26.932Z</time></trkpt><trkpt lat="42.2567055" lon="14.2195772"><ele>194.0</ele><time>2026-05-01T09:49:27.939Z</time></trkpt><trkpt lat="42.2566322" lon="14.2196205"><ele>194.0</ele><time>2026-05-01T09:49:28.939Z</time></trkpt><trkpt lat="42.2565445" lon="14.2196458"><ele>194.00000000000003</ele><time>2026-05-01T09:49:29.943Z</time></trkpt><trkpt lat="42.2564443" lon="14.2196435"><ele>194.0</ele><time>2026-05-01T09:49:30.94Z</time></trkpt><trkpt lat="42.2563576" lon="14.2196208"><ele>193.42857142857142</ele><time>2026-05-01T09:49:31.946Z</time></trkpt><trkpt lat="42.2562855" lon="14.219571"><ele>192.85714285714286</ele><time>2026-05-01T09:49:32.935Z</time></trkpt><trkpt lat="42.2562265" lon="14.2195024"><ele>192.28571428571428</ele><time>2026-05-01T09:49:33.932Z</time></trkpt><trkpt lat="42.2561704" lon="14.2194537"><ele>191.71428571428572</ele><time>2026-05-01T09:49:34.935Z</time></trkpt><trkpt lat="42.2560984" lon="14.2194464"><ele>191.14285714285717</ele><time>2026-05-01T09:49:35.934Z</time></trkpt><trkpt lat="42.2560188" lon="14.2194573"><ele>190.57142857142858</ele><time>2026-05-01T09:49:36.937Z</time></trkpt><trkpt lat="42.2559613" lon="14.2194986"><ele>190.0</ele><time>2026-05-01T09:49:37.935Z</time></trkpt><trkpt lat="42.2559268" lon="14.2196243"><ele>190.0</ele><time>2026-05-01T09:49:39.934Z</time></trkpt><trkpt lat="42.2559498" lon="14.2197438"><ele>190.0</ele><time>2026-05-01T09:49:40.935Z</time></trkpt><trkpt lat="42.2559618" lon="14.2198722"><ele>190.0</ele><time>2026-05-01T09:49:41.934Z</time></trkpt><trkpt lat="42.2559447" lon="14.2200269"><ele>190.0</ele><time>2026-05-01T09:49:42.939Z</time></trkpt><trkpt lat="42.2559287" lon="14.2201884"><ele>190.0</ele><time>2026-05-01T09:49:43.938Z</time></trkpt><trkpt lat="42.2559046" lon="14.2203428"><ele>187.8</ele><time>2026-05-01T09:49:44.94Z</time></trkpt><trkpt lat="42.2558814" lon="14.220499"><ele>185.6</ele><time>2026-05-01T09:49:45.932Z</time></trkpt><trkpt lat="42.2558519" lon="14.2206439"><ele>183.39999999999998</ele><time>2026-05-01T09:49:46.937Z</time></trkpt><trkpt lat="42.2558263" lon="14.2207678"><ele>181.2</ele><time>2026-05-01T09:49:47.938Z</time></trkpt><trkpt lat="42.255791" lon="14.2208818"><ele>179.0</ele><time>2026-05-01T09:49:48.945Z</time></trkpt><trkpt lat="42.2557303" lon="14.2209769"><ele>178.5</ele><time>2026-05-01T09:49:49.939Z</time></trkpt><trkpt lat="42.2556417" lon="14.2210476"><ele>178.0</ele><time>2026-05-01T09:49:50.936Z</time></trkpt><trkpt lat="42.2555261" lon="14.2211078"><ele>177.5</ele><time>2026-05-01T09:49:51.937Z</time></trkpt><trkpt lat="42.2554083" lon="14.221183"><ele>177.0</ele><time>2026-05-01T09:49:52.935Z</time></trkpt><trkpt lat="42.2552823" lon="14.2212671"><ele>177.0</ele><time>2026-05-01T09:49:53.942Z</time></trkpt><trkpt lat="42.2551575" lon="14.2213516"><ele>177.0</ele><time>2026-05-01T09:49:54.932Z</time></trkpt><trkpt lat="42.2550348" lon="14.2214285"><ele>177.0</ele><time>2026-05-01T09:49:55.933Z</time></trkpt><trkpt lat="42.2549204" lon="14.2214977"><ele>177.0</ele><time>2026-05-01T09:49:56.935Z</time></trkpt><trkpt lat="42.2548165" lon="14.2215526"><ele>175.39999999999998</ele><time>2026-05-01T09:49:57.933Z</time></trkpt><trkpt lat="42.2547182" lon="14.2215829"><ele>173.79999999999998</ele><time>2026-05-01T09:49:58.939Z</time></trkpt><trkpt lat="42.2546276" lon="14.2215814"><ele>172.2</ele><time>2026-05-01T09:49:59.945Z</time></trkpt><trkpt lat="42.2545368" lon="14.2215277"><ele>170.6</ele><time>2026-05-01T09:50:00.937Z</time></trkpt><trkpt lat="42.2544565" lon="14.2214376"><ele>169.0</ele><time>2026-05-01T09:50:01.943Z</time></trkpt><trkpt lat="42.254385" lon="14.2213273"><ele>169.0</ele><time>2026-05-01T09:50:02.933Z</time></trkpt><trkpt lat="42.25433" lon="14.2212209"><ele>169.0</ele><time>2026-05-01T09:50:03.928Z</time></trkpt><trkpt lat="42.2542802" lon="14.221157"><ele>169.0</ele><time>2026-05-01T09:50:04.937Z</time></trkpt><trkpt lat="42.2542129" lon="14.2211308"><ele>169.0</ele><time>2026-05-01T09:50:05.936Z</time></trkpt><trkpt lat="42.2541428" lon="14.2211344"><ele>169.0</ele><time>2026-05-01T09:50:06.928Z</time></trkpt><trkpt lat="42.2540629" lon="14.2211542"><ele>169.0</ele><time>2026-05-01T09:50:07.937Z</time></trkpt><trkpt lat="42.2539948" lon="14.2211504"><ele>169.2</ele><time>2026-05-01T09:50:08.938Z</time></trkpt><trkpt lat="42.2538916" lon="14.2210726"><ele>169.39999999999998</ele><time>2026-05-01T09:50:10.945Z</time></trkpt><trkpt lat="42.2538446" lon="14.220975"><ele>169.6</ele><time>2026-05-01T09:50:11.935Z</time></trkpt><trkpt lat="42.2537907" lon="14.2208507"><ele>169.8</ele><time>2026-05-01T09:50:12.943Z</time></trkpt><trkpt lat="42.253733" lon="14.2207362"><ele>170.0</ele><time>2026-05-01T09:50:13.942Z</time></trkpt><trkpt lat="42.2536537" lon="14.2206469"><ele>170.25</ele><time>2026-05-01T09:50:14.934Z</time></trkpt><trkpt lat="42.2535355" lon="14.2206142"><ele>170.5</ele><time>2026-05-01T09:50:15.934Z</time></trkpt><trkpt lat="42.2534163" lon="14.2206161"><ele>170.75</ele><time>2026-05-01T09:50:16.937Z</time></trkpt><trkpt lat="42.2532869" lon="14.2206241"><ele>171.0</ele><time>2026-05-01T09:50:17.951Z</time></trkpt><trkpt lat="42.2531512" lon="14.2206234"><ele>172.5</ele><time>2026-05-01T09:50:18.933Z</time></trkpt><trkpt lat="42.2530115" lon="14.2206137"><ele>174.0</ele><time>2026-05-01T09:50:19.932Z</time></trkpt><trkpt lat="42.2528668" lon="14.2206021"><ele>175.5</ele><time>2026-05-01T09:50:20.931Z</time></trkpt><trkpt lat="42.2527262" lon="14.2205857"><ele>177.0</ele><time>2026-05-01T09:50:21.948Z</time></trkpt><trkpt lat="42.2525847" lon="14.2205681"><ele>177.0</ele><time>2026-05-01T09:50:22.938Z</time></trkpt><trkpt lat="42.252438" lon="14.2205301"><ele>177.0</ele><time>2026-05-01T09:50:23.933Z</time></trkpt><trkpt lat="42.2522908" lon="14.2204806"><ele>177.0</ele><time>2026-05-01T09:50:24.946Z</time></trkpt><trkpt lat="42.2521483" lon="14.220431"><ele>177.0</ele><time>2026-05-01T09:50:25.936Z</time></trkpt><trkpt lat="42.2520056" lon="14.2203612"><ele>179.66666666666666</ele><time>2026-05-01T09:50:26.935Z</time></trkpt><trkpt lat="42.251862" lon="14.2202927"><ele>182.33333333333331</ele><time>2026-05-01T09:50:27.939Z</time></trkpt><trkpt lat="42.2517132" lon="14.2202349"><ele>185.0</ele><time>2026-05-01T09:50:28.935Z</time></trkpt><trkpt lat="42.2515608" lon="14.2201952"><ele>187.66666666666666</ele><time>2026-05-01T09:50:29.954Z</time></trkpt><trkpt lat="42.2514052" lon="14.2201601"><ele>190.33333333333331</ele><time>2026-05-01T09:50:30.938Z</time></trkpt><trkpt lat="42.251242" lon="14.2201364"><ele>193.0</ele><time>2026-05-01T09:50:31.938Z</time></trkpt><trkpt lat="42.2510905" lon="14.2201196"><ele>193.0</ele><time>2026-05-01T09:50:32.937Z</time></trkpt><trkpt lat="42.2509517" lon="14.2201141"><ele>193.0</ele><time>2026-05-01T09:50:33.945Z</time></trkpt><trkpt lat="42.2508331" lon="14.2201369"><ele>193.0</ele><time>2026-05-01T09:50:34.943Z</time></trkpt><trkpt lat="42.2507301" lon="14.2201601"><ele>193.0</ele><time>2026-05-01T09:50:35.938Z</time></trkpt><trkpt lat="42.2506363" lon="14.2201695"><ele>194.25</ele><time>2026-05-01T09:50:36.935Z</time></trkpt><trkpt lat="42.2505264" lon="14.2201602"><ele>195.5</ele><time>2026-05-01T09:50:37.935Z</time></trkpt><trkpt lat="42.2504105" lon="14.220117"><ele>196.75</ele><time>2026-05-01T09:50:38.929Z</time></trkpt><trkpt lat="42.2503033" lon="14.2200543"><ele>198.0</ele><time>2026-05-01T09:50:39.934Z</time></trkpt><trkpt lat="42.2501915" lon="14.2199713"><ele>198.0</ele><time>2026-05-01T09:50:40.932Z</time></trkpt><trkpt lat="42.2500978" lon="14.2199105"><ele>198.0</ele><time>2026-05-01T09:50:41.943Z</time></trkpt><trkpt lat="42.250017" lon="14.2198815"><ele>198.0</ele><time>2026-05-01T09:50:42.936Z</time></trkpt><trkpt lat="42.2499354" lon="14.2198647"><ele>198.0</ele><time>2026-05-01T09:50:43.933Z</time></trkpt><trkpt lat="42.2498685" lon="14.2198683"><ele>198.0</ele><time>2026-05-01T09:50:44.949Z</time></trkpt><trkpt lat="42.2497928" lon="14.2198733"><ele>198.0</ele><time>2026-05-01T09:50:46.938Z</time></trkpt><trkpt lat="42.2497139" lon="14.2199407"><ele>200.60000000000002</ele><time>2026-05-01T09:50:49.944Z</time></trkpt><trkpt lat="42.2496182" lon="14.220013"><ele>203.20000000000002</ele><time>2026-05-01T09:50:51.944Z</time></trkpt><trkpt lat="42.2495281" lon="14.2200597"><ele>205.8</ele><time>2026-05-01T09:50:53.941Z</time></trkpt><trkpt lat="42.2494439" lon="14.2201064"><ele>208.4</ele><time>2026-05-01T09:50:55.942Z</time></trkpt><trkpt lat="42.2493193" lon="14.220131"><ele>211.0</ele><time>2026-05-01T09:50:57.937Z</time></trkpt><trkpt lat="42.2492565" lon="14.220118"><ele>210.99999999999997</ele><time>2026-05-01T09:50:58.939Z</time></trkpt><trkpt lat="42.2492028" lon="14.2200681"><ele>211.0</ele><time>2026-05-01T09:51:00.937Z</time></trkpt><trkpt lat="42.2491119" lon="14.2200872"><ele>211.0</ele><time>2026-05-01T09:51:10.938Z</time></trkpt><trkpt lat="42.249042" lon="14.2200739"><ele>211.0</ele><time>2026-05-01T09:51:12.943Z</time></trkpt><trkpt lat="42.2489474" lon="14.2200581"><ele>210.99999999999997</ele><time>2026-05-01T09:51:42.934Z</time></trkpt><trkpt lat="42.2488925" lon="14.2200051"><ele>211.0</ele><time>2026-05-01T09:51:51.932Z</time></trkpt><trkpt lat="42.2488873" lon="14.2198563"><ele>210.66666666666666</ele><time>2026-05-01T09:51:54.942Z</time></trkpt><trkpt lat="42.2488768" lon="14.2197294"><ele>210.33333333333331</ele><time>2026-05-01T09:51:56.945Z</time></trkpt><trkpt lat="42.2488518" lon="14.2196003"><ele>210.0</ele><time>2026-05-01T09:51:58.949Z</time></trkpt><trkpt lat="42.2488552" lon="14.2194729"><ele>209.66666666666669</ele><time>2026-05-01T09:52:00.947Z</time></trkpt><trkpt lat="42.248875" lon="14.2193663"><ele>209.33333333333334</ele><time>2026-05-01T09:52:02.947Z</time></trkpt><trkpt lat="42.24889" lon="14.2192664"><ele>209.0</ele><time>2026-05-01T09:52:04.937Z</time></trkpt><trkpt lat="42.2488725" lon="14.2191709"><ele>209.00000000000003</ele><time>2026-05-01T09:52:06.953Z</time></trkpt><trkpt lat="42.2488402" lon="14.2190398"><ele>209.0</ele><time>2026-05-01T09:52:08.945Z</time></trkpt><trkpt lat="42.2488352" lon="14.2189407"><ele>209.0</ele><time>2026-05-01T09:52:10.936Z</time></trkpt><trkpt lat="42.2488501" lon="14.2188432"><ele>209.0</ele><time>2026-05-01T09:52:12.95Z</time></trkpt><trkpt lat="42.2488624" lon="14.2187279"><ele>209.00000000000003</ele><time>2026-05-01T09:52:14.956Z</time></trkpt><trkpt lat="42.2488529" lon="14.2185873"><ele>209.0</ele><time>2026-05-01T09:52:16.943Z</time></trkpt><trkpt lat="42.2488281" lon="14.2184584"><ele>210.66666666666669</ele><time>2026-05-01T09:52:18.948Z</time></trkpt><trkpt lat="42.2487991" lon="14.2183478"><ele>212.33333333333334</ele><time>2026-05-01T09:52:20.937Z</time></trkpt><trkpt lat="42.2487776" lon="14.2182455"><ele>214.0</ele><time>2026-05-01T09:52:22.935Z</time></trkpt><trkpt lat="42.2487653" lon="14.2181507"><ele>215.66666666666669</ele><time>2026-05-01T09:52:24.937Z</time></trkpt><trkpt lat="42.2487507" lon="14.2180203"><ele>217.33333333333334</ele><time>2026-05-01T09:52:26.942Z</time></trkpt><trkpt lat="42.2487258" lon="14.2178929"><ele>219.0</ele><time>2026-05-01T09:52:28.951Z</time></trkpt><trkpt lat="42.2487045" lon="14.2177349"><ele>221.66666666666666</ele><time>2026-05-01T09:52:30.945Z</time></trkpt><trkpt lat="42.2486848" lon="14.2176364"><ele>224.33333333333331</ele><time>2026-05-01T09:52:31.942Z</time></trkpt><trkpt lat="42.2486703" lon="14.2175419"><ele>227.0</ele><time>2026-05-01T09:52:32.936Z</time></trkpt><trkpt lat="42.2486597" lon="14.2174466"><ele>229.66666666666666</ele><time>2026-05-01T09:52:33.941Z</time></trkpt><trkpt lat="42.2486514" lon="14.2173504"><ele>232.33333333333331</ele><time>2026-05-01T09:52:34.937Z</time></trkpt><trkpt lat="42.2486165" lon="14.2171848"><ele>235.0</ele><time>2026-05-01T09:52:36.942Z</time></trkpt><trkpt lat="42.2485898" lon="14.217102"><ele>237.49999999999997</ele><time>2026-05-01T09:52:37.933Z</time></trkpt><trkpt lat="42.2485503" lon="14.2170128"><ele>240.0</ele><time>2026-05-01T09:52:38.944Z</time></trkpt><trkpt lat="42.2485124" lon="14.2169257"><ele>242.5</ele><time>2026-05-01T09:52:39.942Z</time></trkpt><trkpt lat="42.248486" lon="14.2168438"><ele>245.0</ele><time>2026-05-01T09:52:40.936Z</time></trkpt><trkpt lat="42.2484579" lon="14.216727"><ele>247.49999999999997</ele><time>2026-05-01T09:52:42.943Z</time></trkpt><trkpt lat="42.2484112" lon="14.2165808"><ele>250.0</ele><time>2026-05-01T09:52:44.942Z</time></trkpt><trkpt lat="42.248388" lon="14.2164907"><ele>251.83333333333331</ele><time>2026-05-01T09:52:45.935Z</time></trkpt><trkpt lat="42.2483642" lon="14.2164021"><ele>253.66666666666666</ele><time>2026-05-01T09:52:46.943Z</time></trkpt><trkpt lat="42.2483461" lon="14.2163146"><ele>255.5</ele><time>2026-05-01T09:52:47.941Z</time></trkpt><trkpt lat="42.2483227" lon="14.2162352"><ele>257.3333333333333</ele><time>2026-05-01T09:52:48.939Z</time></trkpt><trkpt lat="42.2482932" lon="14.2160963"><ele>259.1666666666667</ele><time>2026-05-01T09:52:50.945Z</time></trkpt><trkpt lat="42.2482557" lon="14.2159421"><ele>261.0</ele><time>2026-05-01T09:52:52.937Z</time></trkpt><trkpt lat="42.2482373" lon="14.2158566"><ele>261.0</ele><time>2026-05-01T09:52:53.939Z</time></trkpt><trkpt lat="42.2481899" lon="14.2157457"><ele>261.0</ele><time>2026-05-01T09:52:55.933Z</time></trkpt><trkpt lat="42.2481212" lon="14.2156314"><ele>261.0</ele><time>2026-05-01T09:52:57.934Z</time></trkpt><trkpt lat="42.2480795" lon="14.2155506"><ele>261.0</ele><time>2026-05-01T09:52:58.934Z</time></trkpt><trkpt lat="42.248045" lon="14.2154572"><ele>261.0</ele><time>2026-05-01T09:52:59.949Z</time></trkpt><trkpt lat="42.2480121" lon="14.215364"><ele>261.0</ele><time>2026-05-01T09:53:00.945Z</time></trkpt><trkpt lat="42.2479858" lon="14.2152691"><ele>261.5</ele><time>2026-05-01T09:53:01.942Z</time></trkpt><trkpt lat="42.24795" lon="14.2151796"><ele>262.0</ele><time>2026-05-01T09:53:02.943Z</time></trkpt><trkpt lat="42.2479169" lon="14.2150919"><ele>262.5</ele><time>2026-05-01T09:53:03.943Z</time></trkpt><trkpt lat="42.2478951" lon="14.2149962"><ele>263.0</ele><time>2026-05-01T09:53:04.946Z</time></trkpt><trkpt lat="42.2478949" lon="14.2148967"><ele>263.5</ele><time>2026-05-01T09:53:05.945Z</time></trkpt><trkpt lat="42.2479131" lon="14.2147884"><ele>264.0</ele><time>2026-05-01T09:53:06.976Z</time></trkpt><trkpt lat="42.2479306" lon="14.2146786"><ele>264.0</ele><time>2026-05-01T09:53:07.936Z</time></trkpt><trkpt lat="42.2479334" lon="14.2145687"><ele>264.0</ele><time>2026-05-01T09:53:08.937Z</time></trkpt><trkpt lat="42.2479191" lon="14.214457"><ele>264.0</ele><time>2026-05-01T09:53:09.946Z</time></trkpt><trkpt lat="42.2478957" lon="14.2143514"><ele>264.0</ele><time>2026-05-01T09:53:10.941Z</time></trkpt><trkpt lat="42.2478683" lon="14.2142432"><ele>264.0</ele><time>2026-05-01T09:53:11.942Z</time></trkpt><trkpt lat="42.2478425" lon="14.2141425"><ele>264.0</ele><time>2026-05-01T09:53:12.945Z</time></trkpt><trkpt lat="42.2478164" lon="14.2140441"><ele>265.6666666666667</ele><time>2026-05-01T09:53:13.935Z</time></trkpt><trkpt lat="42.2477899" lon="14.2139478"><ele>267.3333333333333</ele><time>2026-05-01T09:53:14.945Z</time></trkpt><trkpt lat="42.2477573" lon="14.2138579"><ele>269.0</ele><time>2026-05-01T09:53:15.936Z</time></trkpt><trkpt lat="42.247715" lon="14.2137832"><ele>270.66666666666663</ele><time>2026-05-01T09:53:16.937Z</time></trkpt><trkpt lat="42.2476666" lon="14.2137247"><ele>272.3333333333333</ele><time>2026-05-01T09:53:17.944Z</time></trkpt><trkpt lat="42.2476096" lon="14.2136302"><ele>274.0</ele><time>2026-05-01T09:53:19.935Z</time></trkpt><trkpt lat="42.2475939" lon="14.2134746"><ele>274.0</ele><time>2026-05-01T09:53:21.936Z</time></trkpt><trkpt lat="42.2475811" lon="14.2133709"><ele>274.0</ele><time>2026-05-01T09:53:22.938Z</time></trkpt><trkpt lat="42.2475603" lon="14.2132582"><ele>274.0</ele><time>2026-05-01T09:53:23.942Z</time></trkpt><trkpt lat="42.2475428" lon="14.2131443"><ele>274.0</ele><time>2026-05-01T09:53:24.94Z</time></trkpt><trkpt lat="42.2475282" lon="14.2130329"><ele>274.0</ele><time>2026-05-01T09:53:25.944Z</time></trkpt><trkpt lat="42.2475182" lon="14.2129215"><ele>274.0</ele><time>2026-05-01T09:53:26.936Z</time></trkpt><trkpt lat="42.2475081" lon="14.212815"><ele>274.3333333333333</ele><time>2026-05-01T09:53:27.937Z</time></trkpt><trkpt lat="42.2475043" lon="14.2127068"><ele>274.66666666666663</ele><time>2026-05-01T09:53:28.936Z</time></trkpt><trkpt lat="42.2474985" lon="14.2125923"><ele>275.0</ele><time>2026-05-01T09:53:29.942Z</time></trkpt><trkpt lat="42.2474897" lon="14.2124801"><ele>275.3333333333333</ele><time>2026-05-01T09:53:30.938Z</time></trkpt><trkpt lat="42.24747" lon="14.2123702"><ele>275.6666666666667</ele><time>2026-05-01T09:53:31.933Z</time></trkpt><trkpt lat="42.247448" lon="14.2122569"><ele>276.0</ele><time>2026-05-01T09:53:32.949Z</time></trkpt><trkpt lat="42.2474285" lon="14.2121429"><ele>277.3333333333333</ele><time>2026-05-01T09:53:33.936Z</time></trkpt><trkpt lat="42.2474058" lon="14.2120278"><ele>278.6666666666667</ele><time>2026-05-01T09:53:34.941Z</time></trkpt><trkpt lat="42.2473761" lon="14.2119166"><ele>280.0</ele><time>2026-05-01T09:53:35.941Z</time></trkpt><trkpt lat="42.2473444" lon="14.211813"><ele>281.33333333333337</ele><time>2026-05-01T09:53:36.932Z</time></trkpt><trkpt lat="42.2473063" lon="14.2117218"><ele>282.6666666666667</ele><time>2026-05-01T09:53:37.937Z</time></trkpt><trkpt lat="42.247269" lon="14.2116413"><ele>284.0</ele><time>2026-05-01T09:53:38.941Z</time></trkpt><trkpt lat="42.2472309" lon="14.2115209"><ele>283.2</ele><time>2026-05-01T09:53:40.945Z</time></trkpt><trkpt lat="42.2472818" lon="14.2113492"><ele>282.4</ele><time>2026-05-01T09:53:42.942Z</time></trkpt><trkpt lat="42.2473127" lon="14.2112332"><ele>281.6</ele><time>2026-05-01T09:53:43.945Z</time></trkpt><trkpt lat="42.2473322" lon="14.2111351"><ele>280.8</ele><time>2026-05-01T09:53:44.946Z</time></trkpt><trkpt lat="42.2473431" lon="14.2110332"><ele>280.0</ele><time>2026-05-01T09:53:45.943Z</time></trkpt><trkpt lat="42.2473448" lon="14.2109324"><ele>281.7142857142857</ele><time>2026-05-01T09:53:46.946Z</time></trkpt><trkpt lat="42.247353" lon="14.2108296"><ele>283.42857142857144</ele><time>2026-05-01T09:53:47.946Z</time></trkpt><trkpt lat="42.2473495" lon="14.2107367"><ele>285.1428571428571</ele><time>2026-05-01T09:53:48.935Z</time></trkpt><trkpt lat="42.247339" lon="14.2106491"><ele>286.8571428571429</ele><time>2026-05-01T09:53:49.943Z</time></trkpt><trkpt lat="42.2473314" lon="14.2105578"><ele>288.57142857142856</ele><time>2026-05-01T09:53:50.944Z</time></trkpt><trkpt lat="42.2473309" lon="14.2104589"><ele>290.2857142857143</ele><time>2026-05-01T09:53:51.949Z</time></trkpt><trkpt lat="42.2473347" lon="14.2103703"><ele>292.0</ele><time>2026-05-01T09:53:52.946Z</time></trkpt><trkpt lat="42.2473587" lon="14.2102248"><ele>294.16666666666663</ele><time>2026-05-01T09:53:54.941Z</time></trkpt><trkpt lat="42.2473721" lon="14.2101385"><ele>296.3333333333333</ele><time>2026-05-01T09:53:55.937Z</time></trkpt><trkpt lat="42.2473803" lon="14.2100425"><ele>298.5</ele><time>2026-05-01T09:53:56.943Z</time></trkpt><trkpt lat="42.2473788" lon="14.2099385"><ele>300.6666666666667</ele><time>2026-05-01T09:53:57.947Z</time></trkpt><trkpt lat="42.2473809" lon="14.2098302"><ele>302.83333333333337</ele><time>2026-05-01T09:53:58.94Z</time></trkpt><trkpt lat="42.2473821" lon="14.2097146"><ele>305.0</ele><time>2026-05-01T09:53:59.945Z</time></trkpt><trkpt lat="42.2473827" lon="14.2096084"><ele>307.0</ele><time>2026-05-01T09:54:00.951Z</time></trkpt><trkpt lat="42.2473734" lon="14.2095046"><ele>309.0</ele><time>2026-05-01T09:54:01.947Z</time></trkpt><trkpt lat="42.2473556" lon="14.2094086"><ele>311.0</ele><time>2026-05-01T09:54:02.942Z</time></trkpt><trkpt lat="42.2473245" lon="14.2092621"><ele>313.0</ele><time>2026-05-01T09:54:04.939Z</time></trkpt><trkpt lat="42.2472942" lon="14.2091238"><ele>315.0</ele><time>2026-05-01T09:54:06.935Z</time></trkpt><trkpt lat="42.2472553" lon="14.209008"><ele>318.2</ele><time>2026-05-01T09:54:08.931Z</time></trkpt><trkpt lat="42.2471735" lon="14.2089234"><ele>321.4</ele><time>2026-05-01T09:54:10.941Z</time></trkpt><trkpt lat="42.2470539" lon="14.2089441"><ele>324.6</ele><time>2026-05-01T09:54:12.939Z</time></trkpt><trkpt lat="42.2469772" lon="14.2089429"><ele>327.8</ele><time>2026-05-01T09:54:13.944Z</time></trkpt><trkpt lat="42.2469136" lon="14.2089234"><ele>331.0</ele><time>2026-05-01T09:54:14.937Z</time></trkpt><trkpt lat="42.2468287" lon="14.2088479"><ele>331.0</ele><time>2026-05-01T09:54:16.943Z</time></trkpt><trkpt lat="42.2467743" lon="14.2087034"><ele>331.0</ele><time>2026-05-01T09:54:18.946Z</time></trkpt><trkpt lat="42.2467394" lon="14.208612"><ele>331.0</ele><time>2026-05-01T09:54:19.932Z</time></trkpt><trkpt lat="42.2467067" lon="14.2085275"><ele>331.0</ele><time>2026-05-01T09:54:20.942Z</time></trkpt><trkpt lat="42.246665" lon="14.2084491"><ele>331.0</ele><time>2026-05-01T09:54:21.948Z</time></trkpt><trkpt lat="42.2466155" lon="14.2083667"><ele>331.0</ele><time>2026-05-01T09:54:22.949Z</time></trkpt><trkpt lat="42.2465579" lon="14.2082871"><ele>331.0</ele><time>2026-05-01T09:54:23.948Z</time></trkpt><trkpt lat="42.2465074" lon="14.208204"><ele>331.0</ele><time>2026-05-01T09:54:24.933Z</time></trkpt><trkpt lat="42.2464509" lon="14.2081223"><ele>331.0</ele><time>2026-05-01T09:54:25.944Z</time></trkpt><trkpt lat="42.24642" lon="14.2080436"><ele>331.0</ele><time>2026-05-01T09:54:26.942Z</time></trkpt><trkpt lat="42.2463673" lon="14.2078787"><ele>331.0</ele><time>2026-05-01T09:54:28.939Z</time></trkpt><trkpt lat="42.2463558" lon="14.2077896"><ele>331.0</ele><time>2026-05-01T09:54:29.939Z</time></trkpt><trkpt lat="42.2463308" lon="14.2076871"><ele>330.8333333333333</ele><time>2026-05-01T09:54:30.944Z</time></trkpt><trkpt lat="42.2462995" lon="14.2075818"><ele>330.66666666666663</ele><time>2026-05-01T09:54:31.937Z</time></trkpt><trkpt lat="42.2462811" lon="14.2074804"><ele>330.5</ele><time>2026-05-01T09:54:32.936Z</time></trkpt><trkpt lat="42.2462629" lon="14.2073905"><ele>330.3333333333333</ele><time>2026-05-01T09:54:33.945Z</time></trkpt><trkpt lat="42.2462607" lon="14.2072467"><ele>330.1666666666667</ele><time>2026-05-01T09:54:35.938Z</time></trkpt><trkpt lat="42.2462397" lon="14.2071159"><ele>330.0</ele><time>2026-05-01T09:54:37.944Z</time></trkpt><trkpt lat="42.2462502" lon="14.2070048"><ele>332.8</ele><time>2026-05-01T09:54:40.946Z</time></trkpt><trkpt lat="42.2462485" lon="14.2068941"><ele>335.6</ele><time>2026-05-01T09:54:43.937Z</time></trkpt><trkpt lat="42.2462537" lon="14.2067754"><ele>338.4</ele><time>2026-05-01T09:54:45.94Z</time></trkpt><trkpt lat="42.2462503" lon="14.2066421"><ele>341.2</ele><time>2026-05-01T09:54:47.943Z</time></trkpt><trkpt lat="42.2462736" lon="14.2064776"><ele>344.0</ele><time>2026-05-01T09:54:49.938Z</time></trkpt><trkpt lat="42.2463007" lon="14.206384"><ele>345.42857142857144</ele><time>2026-05-01T09:54:50.947Z</time></trkpt><trkpt lat="42.2463319" lon="14.2062827"><ele>346.8571428571429</ele><time>2026-05-01T09:54:51.942Z</time></trkpt><trkpt lat="42.2463673" lon="14.2061884"><ele>348.28571428571433</ele><time>2026-05-01T09:54:52.95Z</time></trkpt><trkpt lat="42.2464046" lon="14.2061013"><ele>349.7142857142857</ele><time>2026-05-01T09:54:53.945Z</time></trkpt><trkpt lat="42.2464393" lon="14.2060079"><ele>351.1428571428571</ele><time>2026-05-01T09:54:54.937Z</time></trkpt><trkpt lat="42.246477" lon="14.2059294"><ele>352.5714285714286</ele><time>2026-05-01T09:54:55.939Z</time></trkpt><trkpt lat="42.2465026" lon="14.2058477"><ele>354.0</ele><time>2026-05-01T09:54:56.939Z</time></trkpt><trkpt lat="42.2464739" lon="14.2057212"><ele>357.8333333333333</ele><time>2026-05-01T09:54:58.94Z</time></trkpt><trkpt lat="42.2463855" lon="14.2055978"><ele>361.6666666666667</ele><time>2026-05-01T09:55:00.939Z</time></trkpt><trkpt lat="42.2463398" lon="14.2055343"><ele>365.5</ele><time>2026-05-01T09:55:01.938Z</time></trkpt><trkpt lat="42.2462859" lon="14.2054642"><ele>369.33333333333337</ele><time>2026-05-01T09:55:02.939Z</time></trkpt><trkpt lat="42.2462388" lon="14.2053969"><ele>373.1666666666667</ele><time>2026-05-01T09:55:03.951Z</time></trkpt><trkpt lat="42.2461968" lon="14.2053327"><ele>377.0</ele><time>2026-05-01T09:55:04.94Z</time></trkpt><trkpt lat="42.2461448" lon="14.2052614"><ele>377.0</ele><time>2026-05-01T09:55:05.942Z</time></trkpt><trkpt lat="42.2460988" lon="14.2051912"><ele>377.0</ele><time>2026-05-01T09:55:06.943Z</time></trkpt><trkpt lat="42.2460102" lon="14.2050843"><ele>377.0</ele><time>2026-05-01T09:55:08.942Z</time></trkpt><trkpt lat="42.2459781" lon="14.2050096"><ele>377.0</ele><time>2026-05-01T09:55:09.942Z</time></trkpt><trkpt lat="42.2459407" lon="14.2049187"><ele>377.0</ele><time>2026-05-01T09:55:10.937Z</time></trkpt><trkpt lat="42.2458972" lon="14.2048022"><ele>377.0</ele><time>2026-05-01T09:55:11.945Z</time></trkpt><trkpt lat="42.2458606" lon="14.204705"><ele>377.6666666666667</ele><time>2026-05-01T09:55:12.932Z</time></trkpt><trkpt lat="42.2458664" lon="14.2045987"><ele>378.33333333333337</ele><time>2026-05-01T09:55:13.944Z</time></trkpt><trkpt lat="42.2458893" lon="14.204499"><ele>379.0</ele><time>2026-05-01T09:55:14.945Z</time></trkpt><trkpt lat="42.2459299" lon="14.2044004"><ele>379.6666666666667</ele><time>2026-05-01T09:55:15.941Z</time></trkpt><trkpt lat="42.2459802" lon="14.2042774"><ele>380.3333333333333</ele><time>2026-05-01T09:55:16.942Z</time></trkpt><trkpt lat="42.2460192" lon="14.2041651"><ele>381.0</ele><time>2026-05-01T09:55:17.944Z</time></trkpt><trkpt lat="42.2460458" lon="14.2040449"><ele>382.75</ele><time>2026-05-01T09:55:18.939Z</time></trkpt><trkpt lat="42.2460598" lon="14.2039118"><ele>384.5</ele><time>2026-05-01T09:55:19.948Z</time></trkpt><trkpt lat="42.2460639" lon="14.2037522"><ele>386.25</ele><time>2026-05-01T09:55:20.931Z</time></trkpt><trkpt lat="42.2460501" lon="14.2035867"><ele>388.0</ele><time>2026-05-01T09:55:21.934Z</time></trkpt><trkpt lat="42.2460293" lon="14.2034309"><ele>388.0</ele><time>2026-05-01T09:55:22.945Z</time></trkpt><trkpt lat="42.2460001" lon="14.2032897"><ele>388.0</ele><time>2026-05-01T09:55:23.941Z</time></trkpt><trkpt lat="42.2459558" lon="14.2031468"><ele>388.0</ele><time>2026-05-01T09:55:24.936Z</time></trkpt><trkpt lat="42.2459035" lon="14.2030213"><ele>388.0</ele><time>2026-05-01T09:55:25.936Z</time></trkpt><trkpt lat="42.2458725" lon="14.2029084"><ele>388.0</ele><time>2026-05-01T09:55:26.938Z</time></trkpt><trkpt lat="42.2458308" lon="14.2028422"><ele>389.00000000000006</ele><time>2026-05-01T09:55:27.932Z</time></trkpt><trkpt lat="42.2457624" lon="14.2028046"><ele>390.0</ele><time>2026-05-01T09:55:28.939Z</time></trkpt><trkpt lat="42.2456824" lon="14.2027848"><ele>391.0</ele><time>2026-05-01T09:55:29.927Z</time></trkpt><trkpt lat="42.2456052" lon="14.2027194"><ele>392.0</ele><time>2026-05-01T09:55:30.935Z</time></trkpt><trkpt lat="42.2455485" lon="14.2026389"><ele>393.00000000000006</ele><time>2026-05-01T09:55:31.943Z</time></trkpt><trkpt lat="42.2454956" lon="14.2025362"><ele>394.0</ele><time>2026-05-01T09:55:32.935Z</time></trkpt><trkpt lat="42.2454549" lon="14.2024417"><ele>395.6</ele><time>2026-05-01T09:55:33.936Z</time></trkpt><trkpt lat="42.2454448" lon="14.2023425"><ele>397.2</ele><time>2026-05-01T09:55:35.938Z</time></trkpt><trkpt lat="42.2453652" lon="14.2024498"><ele>398.8</ele><time>2026-05-01T09:55:38.945Z</time></trkpt><trkpt lat="42.24532" lon="14.2025647"><ele>400.40000000000003</ele><time>2026-05-01T09:55:39.932Z</time></trkpt><trkpt lat="42.2452715" lon="14.2026901"><ele>402.0</ele><time>2026-05-01T09:55:40.943Z</time></trkpt><trkpt lat="42.2451901" lon="14.2028091"><ele>402.0</ele><time>2026-05-01T09:55:41.931Z</time></trkpt><trkpt lat="42.2450722" lon="14.2028859"><ele>402.0</ele><time>2026-05-01T09:55:42.934Z</time></trkpt><trkpt lat="42.2449366" lon="14.2029489"><ele>402.0</ele><time>2026-05-01T09:55:43.937Z</time></trkpt><trkpt lat="42.2448064" lon="14.2030056"><ele>402.0</ele><time>2026-05-01T09:55:44.933Z</time></trkpt><trkpt lat="42.2446907" lon="14.2030768"><ele>401.5</ele><time>2026-05-01T09:55:45.929Z</time></trkpt><trkpt lat="42.2445956" lon="14.2031777"><ele>401.0</ele><time>2026-05-01T09:55:46.943Z</time></trkpt><trkpt lat="42.2445232" lon="14.2033077"><ele>400.5</ele><time>2026-05-01T09:55:47.938Z</time></trkpt><trkpt lat="42.2444753" lon="14.203483"><ele>400.0</ele><time>2026-05-01T09:55:48.931Z</time></trkpt><trkpt lat="42.2444521" lon="14.2036614"><ele>400.0</ele><time>2026-05-01T09:55:49.931Z</time></trkpt><trkpt lat="42.2444226" lon="14.203844"><ele>400.0</ele><time>2026-05-01T09:55:50.938Z</time></trkpt><trkpt lat="42.2443917" lon="14.2040166"><ele>400.0</ele><time>2026-05-01T09:55:51.933Z</time></trkpt><trkpt lat="42.2443517" lon="14.2041691"><ele>400.0</ele><time>2026-05-01T09:55:52.934Z</time></trkpt><trkpt lat="42.2442974" lon="14.2043146"><ele>398.75</ele><time>2026-05-01T09:55:53.943Z</time></trkpt><trkpt lat="42.2442291" lon="14.204452"><ele>397.5</ele><time>2026-05-01T09:55:54.935Z</time></trkpt><trkpt lat="42.2441423" lon="14.2045841"><ele>396.25</ele><time>2026-05-01T09:55:55.938Z</time></trkpt><trkpt lat="42.2440376" lon="14.2047044"><ele>395.0</ele><time>2026-05-01T09:55:56.933Z</time></trkpt><trkpt lat="42.243923" lon="14.2048322"><ele>395.0</ele><time>2026-05-01T09:55:57.938Z</time></trkpt><trkpt lat="42.2438238" lon="14.204966"><ele>395.0</ele><time>2026-05-01T09:55:58.938Z</time></trkpt><trkpt lat="42.2437313" lon="14.2051312"><ele>395.0</ele><time>2026-05-01T09:55:59.937Z</time></trkpt><trkpt lat="42.2436581" lon="14.2053182"><ele>395.0</ele><time>2026-05-01T09:56:00.942Z</time></trkpt><trkpt lat="42.2435984" lon="14.2055091"><ele>395.0</ele><time>2026-05-01T09:56:01.935Z</time></trkpt><trkpt lat="42.2435344" lon="14.2056757"><ele>395.0</ele><time>2026-05-01T09:56:02.931Z</time></trkpt><trkpt lat="42.2434466" lon="14.2058227"><ele>395.0</ele><time>2026-05-01T09:56:03.937Z</time></trkpt><trkpt lat="42.2433476" lon="14.2059748"><ele>396.3333333333333</ele><time>2026-05-01T09:56:04.931Z</time></trkpt><trkpt lat="42.2432296" lon="14.2061009"><ele>397.66666666666663</ele><time>2026-05-01T09:56:05.941Z</time></trkpt><trkpt lat="42.2430902" lon="14.2062203"><ele>399.0</ele><time>2026-05-01T09:56:06.936Z</time></trkpt><trkpt lat="42.2429351" lon="14.2063498"><ele>399.0</ele><time>2026-05-01T09:56:07.942Z</time></trkpt><trkpt lat="42.2427818" lon="14.206478"><ele>399.0</ele><time>2026-05-01T09:56:08.937Z</time></trkpt><trkpt lat="42.2426416" lon="14.2066013"><ele>399.0</ele><time>2026-05-01T09:56:09.944Z</time></trkpt><trkpt lat="42.2425024" lon="14.206714"><ele>392.0</ele><time>2026-05-01T09:56:10.94Z</time></trkpt><trkpt lat="42.2423518" lon="14.2068024"><ele>385.0</ele><time>2026-05-01T09:56:11.933Z</time></trkpt><trkpt lat="42.2421943" lon="14.2068678"><ele>378.0</ele><time>2026-05-01T09:56:12.94Z</time></trkpt><trkpt lat="42.242024" lon="14.2069143"><ele>378.0</ele><time>2026-05-01T09:56:13.941Z</time></trkpt><trkpt lat="42.2418473" lon="14.2069314"><ele>378.0</ele><time>2026-05-01T09:56:14.942Z</time></trkpt><trkpt lat="42.2416725" lon="14.2069511"><ele>378.0</ele><time>2026-05-01T09:56:15.942Z</time></trkpt><trkpt lat="42.2415009" lon="14.2069534"><ele>375.0</ele><time>2026-05-01T09:56:16.936Z</time></trkpt><trkpt lat="42.2413405" lon="14.2069411"><ele>372.0</ele><time>2026-05-01T09:56:17.935Z</time></trkpt><trkpt lat="42.2411914" lon="14.2069111"><ele>369.0</ele><time>2026-05-01T09:56:18.941Z</time></trkpt><trkpt lat="42.2410505" lon="14.206867"><ele>369.0</ele><time>2026-05-01T09:56:19.939Z</time></trkpt><trkpt lat="42.2409219" lon="14.2068094"><ele>369.0</ele><time>2026-05-01T09:56:20.949Z</time></trkpt><trkpt lat="42.240788" lon="14.2067704"><ele>369.0</ele><time>2026-05-01T09:56:21.932Z</time></trkpt><trkpt lat="42.2406621" lon="14.2067908"><ele>369.0</ele><time>2026-05-01T09:56:22.943Z</time></trkpt><trkpt lat="42.2405419" lon="14.2068525"><ele>367.2</ele><time>2026-05-01T09:56:23.926Z</time></trkpt><trkpt lat="42.2404384" lon="14.2069222"><ele>365.4</ele><time>2026-05-01T09:56:24.932Z</time></trkpt><trkpt lat="42.2403323" lon="14.2069567"><ele>363.6</ele><time>2026-05-01T09:56:25.932Z</time></trkpt><trkpt lat="42.2402469" lon="14.2069515"><ele>361.8</ele><time>2026-05-01T09:56:26.934Z</time></trkpt><trkpt lat="42.2401405" lon="14.2068963"><ele>360.0</ele><time>2026-05-01T09:56:27.931Z</time></trkpt><trkpt lat="42.2400465" lon="14.2068608"><ele>360.0</ele><time>2026-05-01T09:56:28.932Z</time></trkpt><trkpt lat="42.2399717" lon="14.2068931"><ele>360.0</ele><time>2026-05-01T09:56:29.938Z</time></trkpt><trkpt lat="42.2399359" lon="14.2070126"><ele>360.0</ele><time>2026-05-01T09:56:31.933Z</time></trkpt><trkpt lat="42.2399822" lon="14.2071112"><ele>360.0</ele><time>2026-05-01T09:56:32.929Z</time></trkpt><trkpt lat="42.2400462" lon="14.2072043"><ele>360.0</ele><time>2026-05-01T09:56:33.933Z</time></trkpt><trkpt lat="42.2401005" lon="14.2073151"><ele>358.4</ele><time>2026-05-01T09:56:34.93Z</time></trkpt><trkpt lat="42.2401231" lon="14.2074379"><ele>356.8</ele><time>2026-05-01T09:56:35.931Z</time></trkpt><trkpt lat="42.2401023" lon="14.2075818"><ele>355.20000000000005</ele><time>2026-05-01T09:56:36.937Z</time></trkpt><trkpt lat="42.2400561" lon="14.2077189"><ele>353.6</ele><time>2026-05-01T09:56:37.929Z</time></trkpt><trkpt lat="42.2399717" lon="14.2078351"><ele>352.0</ele><time>2026-05-01T09:56:38.935Z</time></trkpt><trkpt lat="42.2398722" lon="14.2079413"><ele>349.5</ele><time>2026-05-01T09:56:39.932Z</time></trkpt><trkpt lat="42.2397749" lon="14.2080584"><ele>347.0</ele><time>2026-05-01T09:56:40.942Z</time></trkpt><trkpt lat="42.2396804" lon="14.2082028"><ele>344.5</ele><time>2026-05-01T09:56:41.932Z</time></trkpt><trkpt lat="42.2395942" lon="14.2083579"><ele>342.0</ele><time>2026-05-01T09:56:42.946Z</time></trkpt><trkpt lat="42.2395191" lon="14.2085044"><ele>342.0</ele><time>2026-05-01T09:56:43.936Z</time></trkpt><trkpt lat="42.2394442" lon="14.2086483"><ele>342.0</ele><time>2026-05-01T09:56:44.927Z</time></trkpt><trkpt lat="42.2393727" lon="14.2087799"><ele>342.0</ele><time>2026-05-01T09:56:45.937Z</time></trkpt><trkpt lat="42.2393038" lon="14.2089051"><ele>342.0</ele><time>2026-05-01T09:56:46.927Z</time></trkpt><trkpt lat="42.2392506" lon="14.2090137"><ele>343.20000000000005</ele><time>2026-05-01T09:56:47.943Z</time></trkpt><trkpt lat="42.2391984" lon="14.2091111"><ele>344.4</ele><time>2026-05-01T09:56:48.935Z</time></trkpt><trkpt lat="42.239135" lon="14.209194"><ele>345.6</ele><time>2026-05-01T09:56:49.932Z</time></trkpt><trkpt lat="42.2390591" lon="14.2092555"><ele>346.79999999999995</ele><time>2026-05-01T09:56:50.936Z</time></trkpt><trkpt lat="42.2389629" lon="14.2093139"><ele>348.0</ele><time>2026-05-01T09:56:51.929Z</time></trkpt><trkpt lat="42.2388555" lon="14.209344"><ele>349.0</ele><time>2026-05-01T09:56:52.933Z</time></trkpt><trkpt lat="42.238743" lon="14.2093541"><ele>350.0</ele><time>2026-05-01T09:56:53.934Z</time></trkpt><trkpt lat="42.2386319" lon="14.2093493"><ele>351.0</ele><time>2026-05-01T09:56:54.943Z</time></trkpt><trkpt lat="42.238532" lon="14.2093326"><ele>352.0</ele><time>2026-05-01T09:56:55.932Z</time></trkpt><trkpt lat="42.2384191" lon="14.2092989"><ele>353.0</ele><time>2026-05-01T09:56:56.941Z</time></trkpt><trkpt lat="42.2382945" lon="14.2092668"><ele>353.0</ele><time>2026-05-01T09:56:57.935Z</time></trkpt><trkpt lat="42.2381737" lon="14.2092608"><ele>353.0</ele><time>2026-05-01T09:56:58.938Z</time></trkpt><trkpt lat="42.2380495" lon="14.2092629"><ele>353.0</ele><time>2026-05-01T09:56:59.933Z</time></trkpt><trkpt lat="42.2379262" lon="14.2092659"><ele>353.0</ele><time>2026-05-01T09:57:00.935Z</time></trkpt><trkpt lat="42.2377986" lon="14.2092708"><ele>354.25</ele><time>2026-05-01T09:57:01.941Z</time></trkpt><trkpt lat="42.2376692" lon="14.2092785"><ele>355.5</ele><time>2026-05-01T09:57:02.935Z</time></trkpt><trkpt lat="42.2375338" lon="14.2092899"><ele>356.75</ele><time>2026-05-01T09:57:03.932Z</time></trkpt><trkpt lat="42.237398" lon="14.2093031"><ele>358.0</ele><time>2026-05-01T09:57:04.944Z</time></trkpt><trkpt lat="42.2372621" lon="14.2093383"><ele>358.0</ele><time>2026-05-01T09:57:05.935Z</time></trkpt><trkpt lat="42.2371217" lon="14.2093901"><ele>358.0</ele><time>2026-05-01T09:57:06.947Z</time></trkpt><trkpt lat="42.2369832" lon="14.2094448"><ele>358.0</ele><time>2026-05-01T09:57:07.939Z</time></trkpt><trkpt lat="42.2368445" lon="14.2095043"><ele>358.0</ele><time>2026-05-01T09:57:08.938Z</time></trkpt><trkpt lat="42.2367072" lon="14.2095644"><ele>358.0</ele><time>2026-05-01T09:57:09.933Z</time></trkpt><trkpt lat="42.236574" lon="14.2096304"><ele>358.0</ele><time>2026-05-01T09:57:10.938Z</time></trkpt><trkpt lat="42.236451" lon="14.209695"><ele>358.0</ele><time>2026-05-01T09:57:11.929Z</time></trkpt><trkpt lat="42.2363434" lon="14.2097702"><ele>358.0</ele><time>2026-05-01T09:57:12.939Z</time></trkpt><trkpt lat="42.236243" lon="14.2098654"><ele>359.75</ele><time>2026-05-01T09:57:13.946Z</time></trkpt><trkpt lat="42.2361545" lon="14.2099843"><ele>361.5</ele><time>2026-05-01T09:57:14.936Z</time></trkpt><trkpt lat="42.2360699" lon="14.2101372"><ele>363.25</ele><time>2026-05-01T09:57:15.938Z</time></trkpt><trkpt lat="42.235994" lon="14.2102961"><ele>365.0</ele><time>2026-05-01T09:57:16.938Z</time></trkpt><trkpt lat="42.2359119" lon="14.210446"><ele>365.0</ele><time>2026-05-01T09:57:17.929Z</time></trkpt><trkpt lat="42.2358264" lon="14.2106099"><ele>365.0</ele><time>2026-05-01T09:57:18.938Z</time></trkpt><trkpt lat="42.2357261" lon="14.2107792"><ele>365.0</ele><time>2026-05-01T09:57:19.943Z</time></trkpt><trkpt lat="42.2356128" lon="14.2109428"><ele>367.6666666666667</ele><time>2026-05-01T09:57:20.929Z</time></trkpt><trkpt lat="42.2354802" lon="14.2110891"><ele>370.3333333333333</ele><time>2026-05-01T09:57:21.948Z</time></trkpt><trkpt lat="42.2353524" lon="14.2112277"><ele>373.0</ele><time>2026-05-01T09:57:22.938Z</time></trkpt><trkpt lat="42.235224" lon="14.2113698"><ele>374.3333333333333</ele><time>2026-05-01T09:57:23.936Z</time></trkpt><trkpt lat="42.2351099" lon="14.2115378"><ele>375.6666666666667</ele><time>2026-05-01T09:57:24.936Z</time></trkpt><trkpt lat="42.2350054" lon="14.2117221"><ele>377.0</ele><time>2026-05-01T09:57:25.943Z</time></trkpt><trkpt lat="42.234919" lon="14.2119373"><ele>377.0</ele><time>2026-05-01T09:57:26.943Z</time></trkpt><trkpt lat="42.2348565" lon="14.212149"><ele>377.0</ele><time>2026-05-01T09:57:27.937Z</time></trkpt><trkpt lat="42.2347992" lon="14.2123442"><ele>377.0</ele><time>2026-05-01T09:57:28.942Z</time></trkpt><trkpt lat="42.2347647" lon="14.2125313"><ele>376.0</ele><time>2026-05-01T09:57:29.949Z</time></trkpt><trkpt lat="42.2347587" lon="14.2127156"><ele>375.0</ele><time>2026-05-01T09:57:30.936Z</time></trkpt><trkpt lat="42.2347925" lon="14.2129067"><ele>374.0</ele><time>2026-05-01T09:57:31.942Z</time></trkpt><trkpt lat="42.2348487" lon="14.213089"><ele>373.0</ele><time>2026-05-01T09:57:32.941Z</time></trkpt><trkpt lat="42.2348901" lon="14.2132619"><ele>373.0</ele><time>2026-05-01T09:57:33.947Z</time></trkpt><trkpt lat="42.2348961" lon="14.2134214"><ele>373.0</ele><time>2026-05-01T09:57:34.939Z</time></trkpt><trkpt lat="42.2348758" lon="14.2135701"><ele>373.0</ele><time>2026-05-01T09:57:35.936Z</time></trkpt><trkpt lat="42.2348231" lon="14.2137148"><ele>373.0</ele><time>2026-05-01T09:57:36.935Z</time></trkpt><trkpt lat="42.2347483" lon="14.2138551"><ele>375.0</ele><time>2026-05-01T09:57:37.929Z</time></trkpt><trkpt lat="42.2346746" lon="14.2140022"><ele>377.0</ele><time>2026-05-01T09:57:38.936Z</time></trkpt><trkpt lat="42.2346287" lon="14.2141834"><ele>379.0</ele><time>2026-05-01T09:57:39.932Z</time></trkpt><trkpt lat="42.2345634" lon="14.2143856"><ele>381.0</ele><time>2026-05-01T09:57:40.942Z</time></trkpt><trkpt lat="42.2344977" lon="14.2145798"><ele>381.0</ele><time>2026-05-01T09:57:41.93Z</time></trkpt><trkpt lat="42.2344195" lon="14.214759"><ele>381.0</ele><time>2026-05-01T09:57:42.932Z</time></trkpt><trkpt lat="42.2343423" lon="14.2149364"><ele>381.0</ele><time>2026-05-01T09:57:43.938Z</time></trkpt><trkpt lat="42.2342579" lon="14.2151121"><ele>380.0</ele><time>2026-05-01T09:57:44.929Z</time></trkpt><trkpt lat="42.2341678" lon="14.2152832"><ele>379.0</ele><time>2026-05-01T09:57:45.942Z</time></trkpt><trkpt lat="42.2340624" lon="14.2154568"><ele>378.0</ele><time>2026-05-01T09:57:46.935Z</time></trkpt><trkpt lat="42.2339406" lon="14.2156084"><ele>380.66666666666663</ele><time>2026-05-01T09:57:47.943Z</time></trkpt><trkpt lat="42.233814" lon="14.2157489"><ele>383.3333333333333</ele><time>2026-05-01T09:57:48.934Z</time></trkpt><trkpt lat="42.2336967" lon="14.2158913"><ele>386.0</ele><time>2026-05-01T09:57:49.95Z</time></trkpt><trkpt lat="42.2335856" lon="14.2160296"><ele>386.0</ele><time>2026-05-01T09:57:50.931Z</time></trkpt><trkpt lat="42.2334783" lon="14.2161687"><ele>386.0</ele><time>2026-05-01T09:57:51.936Z</time></trkpt><trkpt lat="42.2333662" lon="14.2163058"><ele>386.0</ele><time>2026-05-01T09:57:52.937Z</time></trkpt><trkpt lat="42.2332493" lon="14.2164223"><ele>386.0</ele><time>2026-05-01T09:57:53.938Z</time></trkpt><trkpt lat="42.2331257" lon="14.2165373"><ele>383.3333333333333</ele><time>2026-05-01T09:57:54.945Z</time></trkpt><trkpt lat="42.2329947" lon="14.2166403"><ele>380.66666666666663</ele><time>2026-05-01T09:57:55.937Z</time></trkpt><trkpt lat="42.2328621" lon="14.2167398"><ele>378.0</ele><time>2026-05-01T09:57:56.938Z</time></trkpt><trkpt lat="42.232723" lon="14.2168333"><ele>378.0</ele><time>2026-05-01T09:57:57.938Z</time></trkpt><trkpt lat="42.2325868" lon="14.2169253"><ele>378.0</ele><time>2026-05-01T09:57:58.936Z</time></trkpt><trkpt lat="42.2324593" lon="14.2170112"><ele>378.0</ele><time>2026-05-01T09:57:59.943Z</time></trkpt><trkpt lat="42.2323304" lon="14.2170938"><ele>378.0</ele><time>2026-05-01T09:58:00.936Z</time></trkpt><trkpt lat="42.2321978" lon="14.2171468"><ele>379.0</ele><time>2026-05-01T09:58:01.939Z</time></trkpt><trkpt lat="42.2320644" lon="14.2171608"><ele>380.0</ele><time>2026-05-01T09:58:02.936Z</time></trkpt><trkpt lat="42.231953" lon="14.2171527"><ele>381.0</ele><time>2026-05-01T09:58:03.929Z</time></trkpt><trkpt lat="42.2318326" lon="14.2171045"><ele>382.0</ele><time>2026-05-01T09:58:04.939Z</time></trkpt><trkpt lat="42.2317159" lon="14.2170299"><ele>382.0</ele><time>2026-05-01T09:58:05.943Z</time></trkpt><trkpt lat="42.2316126" lon="14.2169227"><ele>382.0</ele><time>2026-05-01T09:58:06.93Z</time></trkpt><trkpt lat="42.2315225" lon="14.2167902"><ele>382.0</ele><time>2026-05-01T09:58:07.939Z</time></trkpt><trkpt lat="42.2314332" lon="14.2166511"><ele>382.0</ele><time>2026-05-01T09:58:08.934Z</time></trkpt><trkpt lat="42.2313157" lon="14.2165332"><ele>383.3333333333333</ele><time>2026-05-01T09:58:09.944Z</time></trkpt><trkpt lat="42.2311887" lon="14.2164441"><ele>384.66666666666663</ele><time>2026-05-01T09:58:10.936Z</time></trkpt><trkpt lat="42.23105" lon="14.2163486"><ele>386.0</ele><time>2026-05-01T09:58:11.947Z</time></trkpt><trkpt lat="42.2309078" lon="14.216256"><ele>386.0</ele><time>2026-05-01T09:58:12.938Z</time></trkpt><trkpt lat="42.2307639" lon="14.216157"><ele>386.0</ele><time>2026-05-01T09:58:13.935Z</time></trkpt><trkpt lat="42.230623" lon="14.2160697"><ele>386.0</ele><time>2026-05-01T09:58:14.94Z</time></trkpt><trkpt lat="42.2304971" lon="14.2159952"><ele>385.75</ele><time>2026-05-01T09:58:15.931Z</time></trkpt><trkpt lat="42.2303744" lon="14.2159488"><ele>385.5</ele><time>2026-05-01T09:58:16.941Z</time></trkpt><trkpt lat="42.2302487" lon="14.2159417"><ele>385.25</ele><time>2026-05-01T09:58:17.942Z</time></trkpt><trkpt lat="42.2301184" lon="14.2159929"><ele>385.0</ele><time>2026-05-01T09:58:18.938Z</time></trkpt><trkpt lat="42.2300055" lon="14.2160546"><ele>385.0</ele><time>2026-05-01T09:58:19.929Z</time></trkpt><trkpt lat="42.2298953" lon="14.2160801"><ele>385.0</ele><time>2026-05-01T09:58:20.939Z</time></trkpt><trkpt lat="42.2297852" lon="14.216051"><ele>385.0</ele><time>2026-05-01T09:58:21.939Z</time></trkpt><trkpt lat="42.2296821" lon="14.2160108"><ele>385.0</ele><time>2026-05-01T09:58:22.94Z</time></trkpt><trkpt lat="42.229587" lon="14.2159448"><ele>385.0</ele><time>2026-05-01T09:58:23.936Z</time></trkpt><trkpt lat="42.2294806" lon="14.2159031"><ele>385.75</ele><time>2026-05-01T09:58:24.936Z</time></trkpt><trkpt lat="42.2293699" lon="14.2159049"><ele>386.5</ele><time>2026-05-01T09:58:25.944Z</time></trkpt><trkpt lat="42.229261" lon="14.2159613"><ele>387.25</ele><time>2026-05-01T09:58:26.933Z</time></trkpt><trkpt lat="42.2291699" lon="14.2160605"><ele>388.0</ele><time>2026-05-01T09:58:27.936Z</time></trkpt><trkpt lat="42.2290882" lon="14.2161534"><ele>388.0</ele><time>2026-05-01T09:58:28.935Z</time></trkpt><trkpt lat="42.2290198" lon="14.2162316"><ele>388.0</ele><time>2026-05-01T09:58:29.973Z</time></trkpt><trkpt lat="42.2289338" lon="14.2162999"><ele>388.0</ele><time>2026-05-01T09:58:30.94Z</time></trkpt><trkpt lat="42.2288391" lon="14.2163612"><ele>388.0</ele><time>2026-05-01T09:58:31.931Z</time></trkpt><trkpt lat="42.2287298" lon="14.216409"><ele>388.0</ele><time>2026-05-01T09:58:32.934Z</time></trkpt><trkpt lat="42.2286127" lon="14.2164518"><ele>387.75</ele><time>2026-05-01T09:58:33.944Z</time></trkpt><trkpt lat="42.2284936" lon="14.2165171"><ele>387.5</ele><time>2026-05-01T09:58:34.94Z</time></trkpt><trkpt lat="42.2283754" lon="14.2165988"><ele>387.25</ele><time>2026-05-01T09:58:35.937Z</time></trkpt><trkpt lat="42.2282618" lon="14.2167085"><ele>387.0</ele><time>2026-05-01T09:58:36.935Z</time></trkpt><trkpt lat="42.2281567" lon="14.2168328"><ele>387.75</ele><time>2026-05-01T09:58:37.931Z</time></trkpt><trkpt lat="42.2280426" lon="14.2169493"><ele>388.5</ele><time>2026-05-01T09:58:38.939Z</time></trkpt><trkpt lat="42.2279173" lon="14.2170544"><ele>389.25</ele><time>2026-05-01T09:58:39.944Z</time></trkpt><trkpt lat="42.2277835" lon="14.2171387"><ele>390.0</ele><time>2026-05-01T09:58:40.938Z</time></trkpt><trkpt lat="42.2276402" lon="14.2172159"><ele>390.0</ele><time>2026-05-01T09:58:41.938Z</time></trkpt><trkpt lat="42.2274914" lon="14.2173174"><ele>390.0</ele><time>2026-05-01T09:58:42.933Z</time></trkpt><trkpt lat="42.2273515" lon="14.2174176"><ele>390.0</ele><time>2026-05-01T09:58:43.932Z</time></trkpt><trkpt lat="42.2272182" lon="14.2175179"><ele>389.25</ele><time>2026-05-01T09:58:44.945Z</time></trkpt><trkpt lat="42.2270941" lon="14.2176092"><ele>388.5</ele><time>2026-05-01T09:58:45.935Z</time></trkpt><trkpt lat="42.2269805" lon="14.2176992"><ele>387.75</ele><time>2026-05-01T09:58:46.943Z</time></trkpt><trkpt lat="42.2268714" lon="14.2177774"><ele>387.0</ele><time>2026-05-01T09:58:47.937Z</time></trkpt><trkpt lat="42.2267597" lon="14.2178338"><ele>387.0</ele><time>2026-05-01T09:58:48.929Z</time></trkpt><trkpt lat="42.226645" lon="14.2178634"><ele>387.0</ele><time>2026-05-01T09:58:49.93Z</time></trkpt><trkpt lat="42.2265247" lon="14.2178505"><ele>387.0</ele><time>2026-05-01T09:58:50.939Z</time></trkpt><trkpt lat="42.2263898" lon="14.2178071"><ele>387.0</ele><time>2026-05-01T09:58:51.939Z</time></trkpt><trkpt lat="42.2262489" lon="14.2177542"><ele>385.3333333333333</ele><time>2026-05-01T09:58:52.943Z</time></trkpt><trkpt lat="42.2260992" lon="14.217699"><ele>383.66666666666663</ele><time>2026-05-01T09:58:53.938Z</time></trkpt><trkpt lat="42.2259325" lon="14.217651"><ele>382.0</ele><time>2026-05-01T09:58:54.937Z</time></trkpt><trkpt lat="42.2257594" lon="14.2175997"><ele>380.0</ele><time>2026-05-01T09:58:55.93Z</time></trkpt><trkpt lat="42.225592" lon="14.2175564"><ele>378.0</ele><time>2026-05-01T09:58:56.943Z</time></trkpt><trkpt lat="42.2254134" lon="14.2175118"><ele>376.0</ele><time>2026-05-01T09:58:57.941Z</time></trkpt><trkpt lat="42.2252348" lon="14.21747"><ele>376.0</ele><time>2026-05-01T09:58:58.932Z</time></trkpt><trkpt lat="42.2250496" lon="14.217438"><ele>376.0</ele><time>2026-05-01T09:58:59.935Z</time></trkpt><trkpt lat="42.2248661" lon="14.2174215"><ele>376.0</ele><time>2026-05-01T09:59:00.933Z</time></trkpt><trkpt lat="42.2246838" lon="14.2174179"><ele>376.0</ele><time>2026-05-01T09:59:01.935Z</time></trkpt><trkpt lat="42.2245057" lon="14.2174192"><ele>376.0</ele><time>2026-05-01T09:59:02.947Z</time></trkpt><trkpt lat="42.2243201" lon="14.2174219"><ele>376.0</ele><time>2026-05-01T09:59:03.941Z</time></trkpt><trkpt lat="42.2241306" lon="14.2174256"><ele>377.3333333333333</ele><time>2026-05-01T09:59:04.94Z</time></trkpt><trkpt lat="42.2239351" lon="14.2174225"><ele>378.6666666666667</ele><time>2026-05-01T09:59:05.943Z</time></trkpt><trkpt lat="42.2237368" lon="14.2174407"><ele>380.0</ele><time>2026-05-01T09:59:06.931Z</time></trkpt><trkpt lat="42.2235398" lon="14.21747"><ele>380.0</ele><time>2026-05-01T09:59:07.935Z</time></trkpt><trkpt lat="42.2233543" lon="14.2175196"><ele>380.0</ele><time>2026-05-01T09:59:08.937Z</time></trkpt><trkpt lat="42.2231828" lon="14.2175695"><ele>380.0</ele><time>2026-05-01T09:59:09.934Z</time></trkpt><trkpt lat="42.2230279" lon="14.217622"><ele>380.0</ele><time>2026-05-01T09:59:10.94Z</time></trkpt><trkpt lat="42.2228867" lon="14.2176827"><ele>380.0</ele><time>2026-05-01T09:59:11.948Z</time></trkpt><trkpt lat="42.2227665" lon="14.2177477"><ele>380.0</ele><time>2026-05-01T09:59:12.937Z</time></trkpt><trkpt lat="42.2226434" lon="14.2178033"><ele>380.0</ele><time>2026-05-01T09:59:13.938Z</time></trkpt><trkpt lat="42.222519" lon="14.2178429"><ele>380.0</ele><time>2026-05-01T09:59:14.941Z</time></trkpt><trkpt lat="42.222375" lon="14.2178597"><ele>380.0</ele><time>2026-05-01T09:59:15.943Z</time></trkpt><trkpt lat="42.2222284" lon="14.21786"><ele>380.0</ele><time>2026-05-01T09:59:16.933Z</time></trkpt><trkpt lat="42.2220793" lon="14.2178327"><ele>380.0</ele><time>2026-05-01T09:59:17.942Z</time></trkpt><trkpt lat="42.2219163" lon="14.2178218"><ele>380.6666666666667</ele><time>2026-05-01T09:59:18.933Z</time></trkpt><trkpt lat="42.221749" lon="14.2178199"><ele>381.3333333333333</ele><time>2026-05-01T09:59:19.945Z</time></trkpt><trkpt lat="42.2215824" lon="14.2178344"><ele>382.0</ele><time>2026-05-01T09:59:20.935Z</time></trkpt><trkpt lat="42.221412" lon="14.2178434"><ele>383.0</ele><time>2026-05-01T09:59:21.941Z</time></trkpt><trkpt lat="42.2212464" lon="14.2178575"><ele>384.0</ele><time>2026-05-01T09:59:22.933Z</time></trkpt><trkpt lat="42.221075" lon="14.2178876"><ele>385.0</ele><time>2026-05-01T09:59:23.932Z</time></trkpt><trkpt lat="42.2209045" lon="14.217925"><ele>385.0</ele><time>2026-05-01T09:59:24.939Z</time></trkpt><trkpt lat="42.2207392" lon="14.217967"><ele>385.0</ele><time>2026-05-01T09:59:25.943Z</time></trkpt><trkpt lat="42.2205783" lon="14.2180176"><ele>385.0</ele><time>2026-05-01T09:59:26.936Z</time></trkpt><trkpt lat="42.2204185" lon="14.2180756"><ele>382.33333333333337</ele><time>2026-05-01T09:59:27.945Z</time></trkpt><trkpt lat="42.2202537" lon="14.2181219"><ele>379.6666666666667</ele><time>2026-05-01T09:59:28.94Z</time></trkpt><trkpt lat="42.2200898" lon="14.2181754"><ele>377.0</ele><time>2026-05-01T09:59:29.952Z</time></trkpt><trkpt lat="42.2199252" lon="14.2182266"><ele>377.0</ele><time>2026-05-01T09:59:30.935Z</time></trkpt><trkpt lat="42.2197606" lon="14.2182714"><ele>377.0</ele><time>2026-05-01T09:59:31.937Z</time></trkpt><trkpt lat="42.2195969" lon="14.2183258"><ele>377.0</ele><time>2026-05-01T09:59:32.939Z</time></trkpt><trkpt lat="42.2194367" lon="14.2183715"><ele>377.0</ele><time>2026-05-01T09:59:33.936Z</time></trkpt><trkpt lat="42.21928" lon="14.2184179"><ele>377.0</ele><time>2026-05-01T09:59:34.944Z</time></trkpt><trkpt lat="42.2191312" lon="14.2184658"><ele>377.0</ele><time>2026-05-01T09:59:35.94Z</time></trkpt><trkpt lat="42.2189788" lon="14.2185176"><ele>378.33333333333337</ele><time>2026-05-01T09:59:36.944Z</time></trkpt><trkpt lat="42.2188271" lon="14.2185647"><ele>379.6666666666667</ele><time>2026-05-01T09:59:37.944Z</time></trkpt><trkpt lat="42.2186759" lon="14.2185932"><ele>381.0</ele><time>2026-05-01T09:59:38.949Z</time></trkpt><trkpt lat="42.2185315" lon="14.2185891"><ele>381.0</ele><time>2026-05-01T09:59:39.942Z</time></trkpt><trkpt lat="42.2183855" lon="14.2185594"><ele>381.0</ele><time>2026-05-01T09:59:40.942Z</time></trkpt><trkpt lat="42.2182368" lon="14.2184971"><ele>381.0</ele><time>2026-05-01T09:59:41.934Z</time></trkpt><trkpt lat="42.2180909" lon="14.2184273"><ele>384.33333333333337</ele><time>2026-05-01T09:59:42.938Z</time></trkpt><trkpt lat="42.217939" lon="14.2183578"><ele>387.6666666666667</ele><time>2026-05-01T09:59:43.938Z</time></trkpt><trkpt lat="42.2177883" lon="14.2182842"><ele>391.0</ele><time>2026-05-01T09:59:44.941Z</time></trkpt><trkpt lat="42.2176379" lon="14.2182168"><ele>391.0</ele><time>2026-05-01T09:59:45.943Z</time></trkpt><trkpt lat="42.2175056" lon="14.218156"><ele>391.0</ele><time>2026-05-01T09:59:46.941Z</time></trkpt><trkpt lat="42.2173801" lon="14.2181171"><ele>391.0</ele><time>2026-05-01T09:59:47.941Z</time></trkpt><trkpt lat="42.2172562" lon="14.2181082"><ele>391.0</ele><time>2026-05-01T09:59:48.93Z</time></trkpt><trkpt lat="42.2171369" lon="14.2181521"><ele>389.0</ele><time>2026-05-01T09:59:49.935Z</time></trkpt><trkpt lat="42.2170274" lon="14.2182453"><ele>387.0</ele><time>2026-05-01T09:59:50.939Z</time></trkpt><trkpt lat="42.2169414" lon="14.2183882"><ele>385.0</ele><time>2026-05-01T09:59:51.941Z</time></trkpt><trkpt lat="42.2168868" lon="14.2185439"><ele>383.0</ele><time>2026-05-01T09:59:52.941Z</time></trkpt><trkpt lat="42.2168349" lon="14.2187051"><ele>383.0</ele><time>2026-05-01T09:59:53.934Z</time></trkpt><trkpt lat="42.2167686" lon="14.2188533"><ele>383.0</ele><time>2026-05-01T09:59:54.942Z</time></trkpt><trkpt lat="42.2166833" lon="14.2189524"><ele>383.0</ele><time>2026-05-01T09:59:55.961Z</time></trkpt><trkpt lat="42.2165817" lon="14.2190038"><ele>383.0</ele><time>2026-05-01T09:59:56.936Z</time></trkpt><trkpt lat="42.2164661" lon="14.2190075"><ele>380.25</ele><time>2026-05-01T09:59:57.932Z</time></trkpt><trkpt lat="42.2163458" lon="14.2189703"><ele>377.5</ele><time>2026-05-01T09:59:58.942Z</time></trkpt><trkpt lat="42.2162249" lon="14.2189315"><ele>374.75</ele><time>2026-05-01T09:59:59.934Z</time></trkpt><trkpt lat="42.2161078" lon="14.2189284"><ele>372.0</ele><time>2026-05-01T10:00:00.94Z</time></trkpt><trkpt lat="42.2159999" lon="14.2189689"><ele>373.5</ele><time>2026-05-01T10:00:01.948Z</time></trkpt><trkpt lat="42.2159043" lon="14.2190578"><ele>375.0</ele><time>2026-05-01T10:00:02.947Z</time></trkpt><trkpt lat="42.2158243" lon="14.219186"><ele>376.5</ele><time>2026-05-01T10:00:03.928Z</time></trkpt><trkpt lat="42.2157505" lon="14.2193281"><ele>378.0</ele><time>2026-05-01T10:00:04.939Z</time></trkpt><trkpt lat="42.2156473" lon="14.2194442"><ele>378.0</ele><time>2026-05-01T10:00:05.934Z</time></trkpt><trkpt lat="42.2155178" lon="14.2195253"><ele>378.0</ele><time>2026-05-01T10:00:06.941Z</time></trkpt><trkpt lat="42.2153792" lon="14.2195884"><ele>378.0</ele><time>2026-05-01T10:00:07.936Z</time></trkpt><trkpt lat="42.2152477" lon="14.2196656"><ele>378.0</ele><time>2026-05-01T10:00:08.932Z</time></trkpt><trkpt lat="42.2151143" lon="14.2197477"><ele>380.33333333333337</ele><time>2026-05-01T10:00:09.943Z</time></trkpt><trkpt lat="42.2149834" lon="14.2198524"><ele>382.6666666666667</ele><time>2026-05-01T10:00:10.95Z</time></trkpt><trkpt lat="42.2148568" lon="14.2199876"><ele>385.0</ele><time>2026-05-01T10:00:11.938Z</time></trkpt><trkpt lat="42.2147277" lon="14.2201379"><ele>385.0</ele><time>2026-05-01T10:00:12.947Z</time></trkpt><trkpt lat="42.2146013" lon="14.2202864"><ele>385.0</ele><time>2026-05-01T10:00:13.928Z</time></trkpt><trkpt lat="42.2144777" lon="14.220444"><ele>385.0</ele><time>2026-05-01T10:00:14.935Z</time></trkpt><trkpt lat="42.2143647" lon="14.2206101"><ele>390.0</ele><time>2026-05-01T10:00:15.941Z</time></trkpt><trkpt lat="42.2142607" lon="14.2207873"><ele>395.0</ele><time>2026-05-01T10:00:16.938Z</time></trkpt><trkpt lat="42.2141588" lon="14.2209697"><ele>400.0</ele><time>2026-05-01T10:00:17.949Z</time></trkpt><trkpt lat="42.2140611" lon="14.2211445"><ele>400.75</ele><time>2026-05-01T10:00:18.931Z</time></trkpt><trkpt lat="42.2139657" lon="14.2213136"><ele>401.5</ele><time>2026-05-01T10:00:19.931Z</time></trkpt><trkpt lat="42.2138774" lon="14.221469"><ele>402.25</ele><time>2026-05-01T10:00:20.936Z</time></trkpt><trkpt lat="42.2137882" lon="14.2216078"><ele>403.0</ele><time>2026-05-01T10:00:21.936Z</time></trkpt><trkpt lat="42.2136853" lon="14.2217376"><ele>403.0</ele><time>2026-05-01T10:00:22.941Z</time></trkpt><trkpt lat="42.2135613" lon="14.2218349"><ele>403.0</ele><time>2026-05-01T10:00:23.95Z</time></trkpt><trkpt lat="42.2134264" lon="14.22189"><ele>403.0</ele><time>2026-05-01T10:00:24.931Z</time></trkpt><trkpt lat="42.2132783" lon="14.2219299"><ele>403.0</ele><time>2026-05-01T10:00:25.941Z</time></trkpt><trkpt lat="42.2131215" lon="14.2219675"><ele>401.0</ele><time>2026-05-01T10:00:26.947Z</time></trkpt><trkpt lat="42.2129635" lon="14.2220102"><ele>399.0</ele><time>2026-05-01T10:00:27.934Z</time></trkpt><trkpt lat="42.2127987" lon="14.2220552"><ele>397.0</ele><time>2026-05-01T10:00:28.948Z</time></trkpt><trkpt lat="42.2126362" lon="14.2221022"><ele>397.0</ele><time>2026-05-01T10:00:29.933Z</time></trkpt><trkpt lat="42.2124672" lon="14.2221403"><ele>397.0</ele><time>2026-05-01T10:00:30.942Z</time></trkpt><trkpt lat="42.2123062" lon="14.222163"><ele>397.0</ele><time>2026-05-01T10:00:31.947Z</time></trkpt><trkpt lat="42.2121576" lon="14.2221722"><ele>396.0</ele><time>2026-05-01T10:00:32.938Z</time></trkpt><trkpt lat="42.2120207" lon="14.2221827"><ele>395.0</ele><time>2026-05-01T10:00:33.936Z</time></trkpt><trkpt lat="42.2118986" lon="14.2222002"><ele>394.0</ele><time>2026-05-01T10:00:34.941Z</time></trkpt><trkpt lat="42.2117857" lon="14.2222485"><ele>393.0</ele><time>2026-05-01T10:00:35.93Z</time></trkpt><trkpt lat="42.2116687" lon="14.2223469"><ele>395.75</ele><time>2026-05-01T10:00:36.942Z</time></trkpt><trkpt lat="42.2115595" lon="14.2224696"><ele>398.5</ele><time>2026-05-01T10:00:37.937Z</time></trkpt><trkpt lat="42.211442" lon="14.2225857"><ele>401.25</ele><time>2026-05-01T10:00:38.939Z</time></trkpt><trkpt lat="42.211318" lon="14.2226852"><ele>404.0</ele><time>2026-05-01T10:00:39.94Z</time></trkpt><trkpt lat="42.2111981" lon="14.2227443"><ele>404.0</ele><time>2026-05-01T10:00:40.936Z</time></trkpt><trkpt lat="42.2110697" lon="14.2227795"><ele>404.0</ele><time>2026-05-01T10:00:41.944Z</time></trkpt><trkpt lat="42.2109281" lon="14.2228074"><ele>404.0</ele><time>2026-05-01T10:00:42.939Z</time></trkpt><trkpt lat="42.2107823" lon="14.2228312"><ele>404.0</ele><time>2026-05-01T10:00:43.943Z</time></trkpt><trkpt lat="42.2106384" lon="14.2228611"><ele>404.75</ele><time>2026-05-01T10:00:44.945Z</time></trkpt><trkpt lat="42.2104915" lon="14.2228994"><ele>405.5</ele><time>2026-05-01T10:00:45.947Z</time></trkpt><trkpt lat="42.2103437" lon="14.2229354"><ele>406.25</ele><time>2026-05-01T10:00:46.945Z</time></trkpt><trkpt lat="42.2102029" lon="14.2229673"><ele>407.0</ele><time>2026-05-01T10:00:47.937Z</time></trkpt><trkpt lat="42.2100714" lon="14.2229942"><ele>407.0</ele><time>2026-05-01T10:00:48.945Z</time></trkpt><trkpt lat="42.209942" lon="14.223006"><ele>407.0</ele><time>2026-05-01T10:00:49.944Z</time></trkpt><trkpt lat="42.2098185" lon="14.2229978"><ele>407.0</ele><time>2026-05-01T10:00:50.942Z</time></trkpt><trkpt lat="42.2096962" lon="14.2229658"><ele>407.0</ele><time>2026-05-01T10:00:51.935Z</time></trkpt><trkpt lat="42.2095831" lon="14.2229006"><ele>408.75</ele><time>2026-05-01T10:00:52.942Z</time></trkpt><trkpt lat="42.2094735" lon="14.2228079"><ele>410.5</ele><time>2026-05-01T10:00:53.937Z</time></trkpt><trkpt lat="42.2093647" lon="14.2227021"><ele>412.25</ele><time>2026-05-01T10:00:54.936Z</time></trkpt><trkpt lat="42.2092487" lon="14.2225981"><ele>414.0</ele><time>2026-05-01T10:00:55.941Z</time></trkpt><trkpt lat="42.2091219" lon="14.222521"><ele>414.75</ele><time>2026-05-01T10:00:56.939Z</time></trkpt><trkpt lat="42.2089878" lon="14.2224941"><ele>415.5</ele><time>2026-05-01T10:00:57.942Z</time></trkpt><trkpt lat="42.208856" lon="14.2225066"><ele>416.25</ele><time>2026-05-01T10:00:58.935Z</time></trkpt><trkpt lat="42.208731" lon="14.2225504"><ele>417.0</ele><time>2026-05-01T10:00:59.958Z</time></trkpt><trkpt lat="42.2086278" lon="14.222609"><ele>417.0</ele><time>2026-05-01T10:01:00.938Z</time></trkpt><trkpt lat="42.2085323" lon="14.2226723"><ele>417.0</ele><time>2026-05-01T10:01:01.933Z</time></trkpt><trkpt lat="42.2084426" lon="14.2227392"><ele>417.0</ele><time>2026-05-01T10:01:02.941Z</time></trkpt><trkpt lat="42.2083507" lon="14.2227871"><ele>417.0</ele><time>2026-05-01T10:01:03.936Z</time></trkpt><trkpt lat="42.208245" lon="14.2228031"><ele>417.0</ele><time>2026-05-01T10:01:04.943Z</time></trkpt><trkpt lat="42.2081471" lon="14.2228142"><ele>418.6666666666667</ele><time>2026-05-01T10:01:05.942Z</time></trkpt><trkpt lat="42.208075" lon="14.2228476"><ele>420.33333333333337</ele><time>2026-05-01T10:01:06.939Z</time></trkpt><trkpt lat="42.2080312" lon="14.2229232"><ele>422.0</ele><time>2026-05-01T10:01:07.935Z</time></trkpt><trkpt lat="42.2080069" lon="14.2230236"><ele>423.6666666666667</ele><time>2026-05-01T10:01:08.937Z</time></trkpt><trkpt lat="42.2080229" lon="14.223119"><ele>425.33333333333337</ele><time>2026-05-01T10:01:09.943Z</time></trkpt><trkpt lat="42.2080695" lon="14.2232123"><ele>427.0</ele><time>2026-05-01T10:01:10.932Z</time></trkpt><trkpt lat="42.2081359" lon="14.2232906"><ele>426.5</ele><time>2026-05-01T10:01:11.936Z</time></trkpt><trkpt lat="42.2082219" lon="14.2233336"><ele>426.0</ele><time>2026-05-01T10:01:12.942Z</time></trkpt><trkpt lat="42.2083252" lon="14.223355"><ele>425.5</ele><time>2026-05-01T10:01:13.933Z</time></trkpt><trkpt lat="42.2084436" lon="14.223395"><ele>425.0</ele><time>2026-05-01T10:01:14.943Z</time></trkpt><trkpt lat="42.2085773" lon="14.2234564"><ele>425.0</ele><time>2026-05-01T10:01:15.946Z</time></trkpt><trkpt lat="42.2087169" lon="14.2235096"><ele>425.0</ele><time>2026-05-01T10:01:16.938Z</time></trkpt><trkpt lat="42.2088665" lon="14.2235475"><ele>425.0</ele><time>2026-05-01T10:01:17.96Z</time></trkpt><trkpt lat="42.209028" lon="14.2235691"><ele>421.3333333333333</ele><time>2026-05-01T10:01:18.939Z</time></trkpt><trkpt lat="42.2091979" lon="14.2235755"><ele>417.66666666666663</ele><time>2026-05-01T10:01:19.946Z</time></trkpt><trkpt lat="42.209366" lon="14.2235625"><ele>414.0</ele><time>2026-05-01T10:01:20.941Z</time></trkpt><trkpt lat="42.2095329" lon="14.223532"><ele>414.0</ele><time>2026-05-01T10:01:21.946Z</time></trkpt><trkpt lat="42.2096924" lon="14.2234772"><ele>414.0</ele><time>2026-05-01T10:01:22.941Z</time></trkpt><trkpt lat="42.2098436" lon="14.2234027"><ele>414.0</ele><time>2026-05-01T10:01:23.948Z</time></trkpt><trkpt lat="42.2099984" lon="14.2233104"><ele>413.0</ele><time>2026-05-01T10:01:24.933Z</time></trkpt><trkpt lat="42.2101533" lon="14.2232059"><ele>412.0</ele><time>2026-05-01T10:01:25.934Z</time></trkpt><trkpt lat="42.210302" lon="14.2230837"><ele>411.0</ele><time>2026-05-01T10:01:26.946Z</time></trkpt><trkpt lat="42.2104521" lon="14.2229602"><ele>409.66666666666663</ele><time>2026-05-01T10:01:27.94Z</time></trkpt><trkpt lat="42.210585" lon="14.2228078"><ele>408.3333333333333</ele><time>2026-05-01T10:01:28.934Z</time></trkpt><trkpt lat="42.2107245" lon="14.2226545"><ele>407.0</ele><time>2026-05-01T10:01:29.936Z</time></trkpt><trkpt lat="42.2108556" lon="14.2225076"><ele>406.0</ele><time>2026-05-01T10:01:30.941Z</time></trkpt><trkpt lat="42.2109878" lon="14.2223687"><ele>405.0</ele><time>2026-05-01T10:01:31.939Z</time></trkpt><trkpt lat="42.2111222" lon="14.2222242"><ele>404.0</ele><time>2026-05-01T10:01:32.927Z</time></trkpt><trkpt lat="42.2112584" lon="14.2220829"><ele>400.66666666666663</ele><time>2026-05-01T10:01:33.939Z</time></trkpt><trkpt lat="42.2113996" lon="14.2219442"><ele>397.33333333333337</ele><time>2026-05-01T10:01:34.929Z</time></trkpt><trkpt lat="42.2115442" lon="14.2218024"><ele>394.0</ele><time>2026-05-01T10:01:35.939Z</time></trkpt><trkpt lat="42.2116898" lon="14.2216625"><ele>393.6666666666667</ele><time>2026-05-01T10:01:36.944Z</time></trkpt><trkpt lat="42.2118467" lon="14.2215263"><ele>393.33333333333337</ele><time>2026-05-01T10:01:37.939Z</time></trkpt><trkpt lat="42.2120005" lon="14.2213974"><ele>393.0</ele><time>2026-05-01T10:01:38.932Z</time></trkpt><trkpt lat="42.2121595" lon="14.2212729"><ele>390.33333333333337</ele><time>2026-05-01T10:01:39.952Z</time></trkpt><trkpt lat="42.2123199" lon="14.2211537"><ele>387.6666666666667</ele><time>2026-05-01T10:01:40.946Z</time></trkpt><trkpt lat="42.212478" lon="14.2210374"><ele>385.0</ele><time>2026-05-01T10:01:41.941Z</time></trkpt><trkpt lat="42.2126419" lon="14.2209164"><ele>385.0</ele><time>2026-05-01T10:01:42.938Z</time></trkpt><trkpt lat="42.2128111" lon="14.2207954"><ele>385.0</ele><time>2026-05-01T10:01:43.942Z</time></trkpt><trkpt lat="42.2129714" lon="14.2206801"><ele>385.0</ele><time>2026-05-01T10:01:44.947Z</time></trkpt><trkpt lat="42.2131342" lon="14.220559"><ele>382.0</ele><time>2026-05-01T10:01:45.937Z</time></trkpt><trkpt lat="42.2132997" lon="14.2204342"><ele>379.0</ele><time>2026-05-01T10:01:46.942Z</time></trkpt><trkpt lat="42.2134684" lon="14.2202932"><ele>376.0</ele><time>2026-05-01T10:01:47.939Z</time></trkpt><trkpt lat="42.2136357" lon="14.2201438"><ele>376.0</ele><time>2026-05-01T10:01:48.939Z</time></trkpt><trkpt lat="42.2137923" lon="14.219988"><ele>376.0</ele><time>2026-05-01T10:01:49.936Z</time></trkpt><trkpt lat="42.2139503" lon="14.219823"><ele>376.0</ele><time>2026-05-01T10:01:50.94Z</time></trkpt><trkpt lat="42.2140996" lon="14.2196444"><ele>373.0</ele><time>2026-05-01T10:01:51.942Z</time></trkpt><trkpt lat="42.214249" lon="14.2194608"><ele>370.0</ele><time>2026-05-01T10:01:52.941Z</time></trkpt><trkpt lat="42.2143891" lon="14.2192811"><ele>367.0</ele><time>2026-05-01T10:01:53.94Z</time></trkpt><trkpt lat="42.2145274" lon="14.2191058"><ele>365.0</ele><time>2026-05-01T10:01:54.945Z</time></trkpt><trkpt lat="42.2146628" lon="14.2189276"><ele>363.0</ele><time>2026-05-01T10:01:55.932Z</time></trkpt><trkpt lat="42.2147976" lon="14.2187485"><ele>361.0</ele><time>2026-05-01T10:01:56.942Z</time></trkpt><trkpt lat="42.2149388" lon="14.2185736"><ele>361.0</ele><time>2026-05-01T10:01:57.932Z</time></trkpt><trkpt lat="42.2150831" lon="14.2184037"><ele>361.0</ele><time>2026-05-01T10:01:58.946Z</time></trkpt><trkpt lat="42.2152355" lon="14.2182472"><ele>361.0</ele><time>2026-05-01T10:01:59.944Z</time></trkpt><trkpt lat="42.2153954" lon="14.2180974"><ele>358.0</ele><time>2026-05-01T10:02:00.94Z</time></trkpt><trkpt lat="42.215561" lon="14.2179482"><ele>355.0</ele><time>2026-05-01T10:02:01.939Z</time></trkpt><trkpt lat="42.2157326" lon="14.217808"><ele>352.0</ele><time>2026-05-01T10:02:02.94Z</time></trkpt><trkpt lat="42.2159045" lon="14.2176707"><ele>352.0</ele><time>2026-05-01T10:02:03.933Z</time></trkpt><trkpt lat="42.216085" lon="14.2175475"><ele>352.0</ele><time>2026-05-01T10:02:04.943Z</time></trkpt><trkpt lat="42.2162669" lon="14.217423"><ele>352.0</ele><time>2026-05-01T10:02:05.944Z</time></trkpt><trkpt lat="42.2164508" lon="14.2173061"><ele>348.66666666666663</ele><time>2026-05-01T10:02:06.941Z</time></trkpt><trkpt lat="42.216634" lon="14.2171931"><ele>345.3333333333333</ele><time>2026-05-01T10:02:07.944Z</time></trkpt><trkpt lat="42.2168167" lon="14.2170797"><ele>342.0</ele><time>2026-05-01T10:02:08.945Z</time></trkpt><trkpt lat="42.2169971" lon="14.2169601"><ele>342.0</ele><time>2026-05-01T10:02:09.947Z</time></trkpt><trkpt lat="42.2171751" lon="14.2168452"><ele>342.0</ele><time>2026-05-01T10:02:10.937Z</time></trkpt><trkpt lat="42.2173552" lon="14.2167332"><ele>342.0</ele><time>2026-05-01T10:02:11.944Z</time></trkpt><trkpt lat="42.2175343" lon="14.2166204"><ele>342.6666666666667</ele><time>2026-05-01T10:02:12.944Z</time></trkpt><trkpt lat="42.2177104" lon="14.2165069"><ele>343.33333333333337</ele><time>2026-05-01T10:02:13.934Z</time></trkpt><trkpt lat="42.2178792" lon="14.2163862"><ele>344.0</ele><time>2026-05-01T10:02:14.937Z</time></trkpt><trkpt lat="42.2180393" lon="14.2162608"><ele>341.0</ele><time>2026-05-01T10:02:15.94Z</time></trkpt><trkpt lat="42.2181974" lon="14.2161268"><ele>338.0</ele><time>2026-05-01T10:02:16.951Z</time></trkpt><trkpt lat="42.2183507" lon="14.2159791"><ele>335.0</ele><time>2026-05-01T10:02:17.967Z</time></trkpt><trkpt lat="42.2184945" lon="14.2158212"><ele>335.0</ele><time>2026-05-01T10:02:18.941Z</time></trkpt><trkpt lat="42.2186225" lon="14.215656"><ele>335.0</ele><time>2026-05-01T10:02:19.946Z</time></trkpt><trkpt lat="42.2187347" lon="14.2154855"><ele>335.0</ele><time>2026-05-01T10:02:20.941Z</time></trkpt><trkpt lat="42.2188417" lon="14.2152906"><ele>333.6666666666667</ele><time>2026-05-01T10:02:21.943Z</time></trkpt><trkpt lat="42.2189414" lon="14.2150769"><ele>332.3333333333333</ele><time>2026-05-01T10:02:22.942Z</time></trkpt><trkpt lat="42.2190328" lon="14.214847"><ele>331.0</ele><time>2026-05-01T10:02:23.942Z</time></trkpt><trkpt lat="42.2191091" lon="14.214606"><ele>329.3333333333333</ele><time>2026-05-01T10:02:24.936Z</time></trkpt><trkpt lat="42.2191665" lon="14.2143548"><ele>327.6666666666667</ele><time>2026-05-01T10:02:25.939Z</time></trkpt><trkpt lat="42.2192096" lon="14.2140966"><ele>326.0</ele><time>2026-05-01T10:02:26.934Z</time></trkpt><trkpt lat="42.2192368" lon="14.213826"><ele>326.0</ele><time>2026-05-01T10:02:27.95Z</time></trkpt><trkpt lat="42.2192408" lon="14.2135566"><ele>326.0</ele><time>2026-05-01T10:02:28.934Z</time></trkpt><trkpt lat="42.2192251" lon="14.2132963"><ele>326.0</ele><time>2026-05-01T10:02:29.946Z</time></trkpt><trkpt lat="42.2191944" lon="14.2130618"><ele>326.0</ele><time>2026-05-01T10:02:30.947Z</time></trkpt><trkpt lat="42.219152" lon="14.2128458"><ele>326.0</ele><time>2026-05-01T10:02:31.934Z</time></trkpt><trkpt lat="42.2191066" lon="14.2126342"><ele>326.0</ele><time>2026-05-01T10:02:33.002Z</time></trkpt><trkpt lat="42.2190717" lon="14.2124448"><ele>326.20000000000005</ele><time>2026-05-01T10:02:33.948Z</time></trkpt><trkpt lat="42.2190479" lon="14.2122722"><ele>326.40000000000003</ele><time>2026-05-01T10:02:34.941Z</time></trkpt><trkpt lat="42.2190343" lon="14.2121171"><ele>326.6</ele><time>2026-05-01T10:02:35.943Z</time></trkpt><trkpt lat="42.2190216" lon="14.2119828"><ele>326.8</ele><time>2026-05-01T10:02:36.936Z</time></trkpt><trkpt lat="42.2190226" lon="14.2118654"><ele>327.0</ele><time>2026-05-01T10:02:37.938Z</time></trkpt><trkpt lat="42.2190388" lon="14.2117502"><ele>327.0</ele><time>2026-05-01T10:02:38.947Z</time></trkpt><trkpt lat="42.2190533" lon="14.2116356"><ele>327.0</ele><time>2026-05-01T10:02:39.935Z</time></trkpt><trkpt lat="42.2190487" lon="14.2115362"><ele>327.0</ele><time>2026-05-01T10:02:40.948Z</time></trkpt><trkpt lat="42.2190232" lon="14.2114565"><ele>327.0</ele><time>2026-05-01T10:02:41.945Z</time></trkpt><trkpt lat="42.2189911" lon="14.2113372"><ele>327.0</ele><time>2026-05-01T10:02:43.948Z</time></trkpt><trkpt lat="42.2190453" lon="14.2111588"><ele>327.3333333333333</ele><time>2026-05-01T10:02:45.933Z</time></trkpt><trkpt lat="42.2190949" lon="14.2110497"><ele>327.6666666666667</ele><time>2026-05-01T10:02:46.942Z</time></trkpt><trkpt lat="42.2191437" lon="14.2109379"><ele>328.0</ele><time>2026-05-01T10:02:47.937Z</time></trkpt><trkpt lat="42.2191836" lon="14.2108249"><ele>328.33333333333337</ele><time>2026-05-01T10:02:48.939Z</time></trkpt><trkpt lat="42.2192131" lon="14.2107169"><ele>328.6666666666667</ele><time>2026-05-01T10:02:49.939Z</time></trkpt><trkpt lat="42.2192366" lon="14.2106152"><ele>329.0</ele><time>2026-05-01T10:02:50.942Z</time></trkpt><trkpt lat="42.2192562" lon="14.2105175"><ele>329.2</ele><time>2026-05-01T10:02:51.933Z</time></trkpt><trkpt lat="42.219286" lon="14.2104024"><ele>329.4</ele><time>2026-05-01T10:02:52.939Z</time></trkpt><trkpt lat="42.2193264" lon="14.2102722"><ele>329.6</ele><time>2026-05-01T10:02:53.94Z</time></trkpt><trkpt lat="42.2193639" lon="14.2101426"><ele>329.8</ele><time>2026-05-01T10:02:54.932Z</time></trkpt><trkpt lat="42.2193923" lon="14.2100024"><ele>330.0</ele><time>2026-05-01T10:02:55.939Z</time></trkpt><trkpt lat="42.2194223" lon="14.2098682"><ele>330.4</ele><time>2026-05-01T10:02:56.935Z</time></trkpt><trkpt lat="42.2194612" lon="14.2097352"><ele>330.8</ele><time>2026-05-01T10:02:57.937Z</time></trkpt><trkpt lat="42.2195021" lon="14.2096011"><ele>331.20000000000005</ele><time>2026-05-01T10:02:58.94Z</time></trkpt><trkpt lat="42.2195481" lon="14.2094657"><ele>331.6</ele><time>2026-05-01T10:02:59.939Z</time></trkpt><trkpt lat="42.2196055" lon="14.2093331"><ele>332.0</ele><time>2026-05-01T10:03:00.934Z</time></trkpt><trkpt lat="42.2196772" lon="14.2092085"><ele>332.0</ele><time>2026-05-01T10:03:01.937Z</time></trkpt><trkpt lat="42.2197503" lon="14.2090968"><ele>332.0</ele><time>2026-05-01T10:03:02.94Z</time></trkpt><trkpt lat="42.2198251" lon="14.2089859"><ele>332.0</ele><time>2026-05-01T10:03:03.934Z</time></trkpt><trkpt lat="42.2199077" lon="14.2088824"><ele>332.0</ele><time>2026-05-01T10:03:04.941Z</time></trkpt><trkpt lat="42.2199984" lon="14.2087867"><ele>332.0</ele><time>2026-05-01T10:03:05.935Z</time></trkpt><trkpt lat="42.220089" lon="14.2087033"><ele>332.1666666666667</ele><time>2026-05-01T10:03:06.936Z</time></trkpt><trkpt lat="42.2201737" lon="14.20864"><ele>332.33333333333337</ele><time>2026-05-01T10:03:07.93Z</time></trkpt><trkpt lat="42.2202484" lon="14.2085833"><ele>332.5</ele><time>2026-05-01T10:03:08.938Z</time></trkpt><trkpt lat="42.220309" lon="14.2085354"><ele>332.6666666666667</ele><time>2026-05-01T10:03:09.935Z</time></trkpt><trkpt lat="42.220383" lon="14.2084759"><ele>332.8333333333333</ele><time>2026-05-01T10:03:11.934Z</time></trkpt><trkpt lat="42.2204302" lon="14.2084168"><ele>333.0</ele><time>2026-05-01T10:03:16.936Z</time></trkpt><trkpt lat="42.2203542" lon="14.2083998"><ele>333.0</ele><time>2026-05-01T10:03:19.93Z</time></trkpt><trkpt lat="42.2202357" lon="14.2085008"><ele>333.0</ele><time>2026-05-01T10:03:21.933Z</time></trkpt><trkpt lat="42.2201538" lon="14.2085646"><ele>333.0</ele><time>2026-05-01T10:03:22.931Z</time></trkpt><trkpt lat="42.2200586" lon="14.2086358"><ele>333.0</ele><time>2026-05-01T10:03:23.939Z</time></trkpt><trkpt lat="42.2199498" lon="14.2087159"><ele>333.0</ele><time>2026-05-01T10:03:24.935Z</time></trkpt><trkpt lat="42.219838" lon="14.2088015"><ele>333.0</ele><time>2026-05-01T10:03:25.931Z</time></trkpt><trkpt lat="42.2197071" lon="14.2088797"><ele>333.0</ele><time>2026-05-01T10:03:26.941Z</time></trkpt><trkpt lat="42.2195683" lon="14.2089491"><ele>333.0</ele><time>2026-05-01T10:03:27.934Z</time></trkpt><trkpt lat="42.2194193" lon="14.2090052"><ele>332.6666666666667</ele><time>2026-05-01T10:03:28.939Z</time></trkpt><trkpt lat="42.2192673" lon="14.2090605"><ele>332.33333333333337</ele><time>2026-05-01T10:03:29.938Z</time></trkpt><trkpt lat="42.2191144" lon="14.2090893"><ele>332.0</ele><time>2026-05-01T10:03:30.936Z</time></trkpt><trkpt lat="42.2189592" lon="14.2091015"><ele>332.0</ele><time>2026-05-01T10:03:31.932Z</time></trkpt><trkpt lat="42.2188038" lon="14.2091042"><ele>332.0</ele><time>2026-05-01T10:03:32.944Z</time></trkpt><trkpt lat="42.2186498" lon="14.2090924"><ele>332.0</ele><time>2026-05-01T10:03:33.946Z</time></trkpt><trkpt lat="42.2185032" lon="14.2090704"><ele>332.0</ele><time>2026-05-01T10:03:34.93Z</time></trkpt><trkpt lat="42.2183588" lon="14.2090458"><ele>332.0</ele><time>2026-05-01T10:03:35.936Z</time></trkpt><trkpt lat="42.2182337" lon="14.2090156"><ele>332.0</ele><time>2026-05-01T10:03:36.938Z</time></trkpt><trkpt lat="42.2181242" lon="14.2089767"><ele>332.0</ele><time>2026-05-01T10:03:37.937Z</time></trkpt><trkpt lat="42.218028" lon="14.2089443"><ele>332.83333333333337</ele><time>2026-05-01T10:03:38.943Z</time></trkpt><trkpt lat="42.2179448" lon="14.2089036"><ele>333.6666666666667</ele><time>2026-05-01T10:03:39.945Z</time></trkpt><trkpt lat="42.2178699" lon="14.2088656"><ele>334.5</ele><time>2026-05-01T10:03:40.946Z</time></trkpt><trkpt lat="42.217802" lon="14.2088195"><ele>335.3333333333333</ele><time>2026-05-01T10:03:41.944Z</time></trkpt><trkpt lat="42.2177356" lon="14.2087766"><ele>336.16666666666663</ele><time>2026-05-01T10:03:42.937Z</time></trkpt><trkpt lat="42.217622" lon="14.2087785"><ele>337.0</ele><time>2026-05-01T10:03:44.945Z</time></trkpt><trkpt lat="42.2175481" lon="14.2089024"><ele>336.8</ele><time>2026-05-01T10:03:46.941Z</time></trkpt><trkpt lat="42.2175482" lon="14.2089967"><ele>336.6</ele><time>2026-05-01T10:03:47.937Z</time></trkpt><trkpt lat="42.2175734" lon="14.2091071"><ele>336.40000000000003</ele><time>2026-05-01T10:03:48.939Z</time></trkpt><trkpt lat="42.2176231" lon="14.2092186"><ele>336.20000000000005</ele><time>2026-05-01T10:03:49.952Z</time></trkpt><trkpt lat="42.2176756" lon="14.2093435"><ele>336.0</ele><time>2026-05-01T10:03:50.943Z</time></trkpt><trkpt lat="42.2177256" lon="14.2094906"><ele>336.0</ele><time>2026-05-01T10:03:51.942Z</time></trkpt><trkpt lat="42.2177789" lon="14.2096353"><ele>336.0</ele><time>2026-05-01T10:03:52.94Z</time></trkpt><trkpt lat="42.2178467" lon="14.2097781"><ele>336.0</ele><time>2026-05-01T10:03:53.95Z</time></trkpt><trkpt lat="42.2179075" lon="14.209909"><ele>336.0</ele><time>2026-05-01T10:03:54.94Z</time></trkpt><trkpt lat="42.2179646" lon="14.2100308"><ele>335.8</ele><time>2026-05-01T10:03:55.942Z</time></trkpt><trkpt lat="42.2180184" lon="14.2101496"><ele>335.6</ele><time>2026-05-01T10:03:56.937Z</time></trkpt><trkpt lat="42.2180715" lon="14.2102667"><ele>335.4</ele><time>2026-05-01T10:03:57.933Z</time></trkpt><trkpt lat="42.2181307" lon="14.2103886"><ele>335.2</ele><time>2026-05-01T10:03:58.938Z</time></trkpt><trkpt lat="42.2181885" lon="14.2105252"><ele>335.0</ele><time>2026-05-01T10:03:59.938Z</time></trkpt><trkpt lat="42.2182536" lon="14.2106678"><ele>334.5</ele><time>2026-05-01T10:04:00.944Z</time></trkpt><trkpt lat="42.2183141" lon="14.210803"><ele>334.0</ele><time>2026-05-01T10:04:01.94Z</time></trkpt><trkpt lat="42.2183761" lon="14.2109333"><ele>333.5</ele><time>2026-05-01T10:04:02.934Z</time></trkpt><trkpt lat="42.218444" lon="14.2110644"><ele>333.0</ele><time>2026-05-01T10:04:03.939Z</time></trkpt><trkpt lat="42.2185133" lon="14.2111952"><ele>333.0</ele><time>2026-05-01T10:04:04.935Z</time></trkpt><trkpt lat="42.2185782" lon="14.2113143"><ele>333.0</ele><time>2026-05-01T10:04:05.933Z</time></trkpt><trkpt lat="42.2186398" lon="14.2114197"><ele>333.0</ele><time>2026-05-01T10:04:06.933Z</time></trkpt><trkpt lat="42.2186947" lon="14.2115259"><ele>333.0</ele><time>2026-05-01T10:04:07.94Z</time></trkpt><trkpt lat="42.2187474" lon="14.2116329"><ele>333.0</ele><time>2026-05-01T10:04:08.936Z</time></trkpt><trkpt lat="42.2187983" lon="14.211722"><ele>333.0</ele><time>2026-05-01T10:04:09.942Z</time></trkpt><trkpt lat="42.2188596" lon="14.2117701"><ele>333.0</ele><time>2026-05-01T10:04:10.936Z</time></trkpt><trkpt lat="42.2189699" lon="14.2117569"><ele>333.0</ele><time>2026-05-01T10:04:12.937Z</time></trkpt><trkpt lat="42.2190188" lon="14.2116944"><ele>333.0</ele><time>2026-05-01T10:04:13.947Z</time></trkpt><trkpt lat="42.2190429" lon="14.2115279"><ele>333.0</ele><time>2026-05-01T10:04:15.943Z</time></trkpt><trkpt lat="42.2190081" lon="14.2114526"><ele>333.0</ele><time>2026-05-01T10:04:16.94Z</time></trkpt><trkpt lat="42.2189503" lon="14.2113884"><ele>333.0</ele><time>2026-05-01T10:04:17.94Z</time></trkpt><trkpt lat="42.2188708" lon="14.2113577"><ele>333.0</ele><time>2026-05-01T10:04:18.941Z</time></trkpt><trkpt lat="42.218785" lon="14.2113587"><ele>333.0</ele><time>2026-05-01T10:04:19.943Z</time></trkpt><trkpt lat="42.218692" lon="14.2113778"><ele>333.0</ele><time>2026-05-01T10:04:20.944Z</time></trkpt><trkpt lat="42.2186193" lon="14.211342"><ele>333.0</ele><time>2026-05-01T10:04:21.933Z</time></trkpt><trkpt lat="42.2185565" lon="14.2112452"><ele>333.0</ele><time>2026-05-01T10:04:22.942Z</time></trkpt><trkpt lat="42.2184878" lon="14.2110999"><ele>333.0</ele><time>2026-05-01T10:04:23.939Z</time></trkpt><trkpt lat="42.2184201" lon="14.2109455"><ele>333.0</ele><time>2026-05-01T10:04:24.955Z</time></trkpt><trkpt lat="42.2183511" lon="14.2107792"><ele>333.0</ele><time>2026-05-01T10:04:25.946Z</time></trkpt><trkpt lat="42.218271" lon="14.2106074"><ele>333.0</ele><time>2026-05-01T10:04:26.936Z</time></trkpt><trkpt lat="42.2181934" lon="14.2104381"><ele>333.5</ele><time>2026-05-01T10:04:27.943Z</time></trkpt><trkpt lat="42.2181163" lon="14.210266"><ele>334.0</ele><time>2026-05-01T10:04:28.945Z</time></trkpt><trkpt lat="42.2180425" lon="14.2101003"><ele>334.5</ele><time>2026-05-01T10:04:29.945Z</time></trkpt><trkpt lat="42.2179684" lon="14.2099454"><ele>335.0</ele><time>2026-05-01T10:04:30.943Z</time></trkpt><trkpt lat="42.2179036" lon="14.2097981"><ele>335.2</ele><time>2026-05-01T10:04:31.945Z</time></trkpt><trkpt lat="42.2178476" lon="14.2096559"><ele>335.4</ele><time>2026-05-01T10:04:32.952Z</time></trkpt><trkpt lat="42.2178017" lon="14.209524"><ele>335.6</ele><time>2026-05-01T10:04:33.948Z</time></trkpt><trkpt lat="42.2177719" lon="14.2093992"><ele>335.8</ele><time>2026-05-01T10:04:34.938Z</time></trkpt><trkpt lat="42.2177606" lon="14.2092793"><ele>336.0</ele><time>2026-05-01T10:04:35.942Z</time></trkpt><trkpt lat="42.2177701" lon="14.2091667"><ele>336.0</ele><time>2026-05-01T10:04:36.941Z</time></trkpt><trkpt lat="42.2178077" lon="14.2090602"><ele>336.0</ele><time>2026-05-01T10:04:37.942Z</time></trkpt><trkpt lat="42.2178299" lon="14.2089644"><ele>336.0</ele><time>2026-05-01T10:04:38.936Z</time></trkpt><trkpt lat="42.2178147" lon="14.2088763"><ele>336.0</ele><time>2026-05-01T10:04:39.946Z</time></trkpt><trkpt lat="42.2177672" lon="14.2088046"><ele>336.0</ele><time>2026-05-01T10:04:40.942Z</time></trkpt><trkpt lat="42.2176956" lon="14.2087388"><ele>336.0</ele><time>2026-05-01T10:04:41.943Z</time></trkpt><trkpt lat="42.217611" lon="14.2086803"><ele>336.25</ele><time>2026-05-01T10:04:42.934Z</time></trkpt><trkpt lat="42.2175096" lon="14.2086024"><ele>336.5</ele><time>2026-05-01T10:04:43.941Z</time></trkpt><trkpt lat="42.2174212" lon="14.2084897"><ele>336.75</ele><time>2026-05-01T10:04:44.938Z</time></trkpt><trkpt lat="42.2173289" lon="14.2083647"><ele>337.0</ele><time>2026-05-01T10:04:45.943Z</time></trkpt><trkpt lat="42.2172306" lon="14.208229"><ele>339.25</ele><time>2026-05-01T10:04:46.943Z</time></trkpt><trkpt lat="42.2171263" lon="14.2080937"><ele>341.5</ele><time>2026-05-01T10:04:47.94Z</time></trkpt><trkpt lat="42.2170225" lon="14.2079615"><ele>343.75</ele><time>2026-05-01T10:04:48.946Z</time></trkpt><trkpt lat="42.2169114" lon="14.2078241"><ele>346.0</ele><time>2026-05-01T10:04:49.937Z</time></trkpt><trkpt lat="42.2167905" lon="14.2076856"><ele>346.0</ele><time>2026-05-01T10:04:50.938Z</time></trkpt><trkpt lat="42.2166615" lon="14.207551"><ele>346.0</ele><time>2026-05-01T10:04:51.947Z</time></trkpt><trkpt lat="42.2165279" lon="14.2074346"><ele>346.0</ele><time>2026-05-01T10:04:52.94Z</time></trkpt><trkpt lat="42.2163798" lon="14.207326"><ele>347.66666666666663</ele><time>2026-05-01T10:04:53.943Z</time></trkpt><trkpt lat="42.2162306" lon="14.2072324"><ele>349.3333333333333</ele><time>2026-05-01T10:04:54.937Z</time></trkpt><trkpt lat="42.2160727" lon="14.2071613"><ele>351.0</ele><time>2026-05-01T10:04:55.939Z</time></trkpt><trkpt lat="42.2159097" lon="14.2071081"><ele>351.0</ele><time>2026-05-01T10:04:56.941Z</time></trkpt><trkpt lat="42.2157467" lon="14.2070568"><ele>351.0</ele><time>2026-05-01T10:04:57.942Z</time></trkpt><trkpt lat="42.2155782" lon="14.2070112"><ele>351.0</ele><time>2026-05-01T10:04:58.936Z</time></trkpt><trkpt lat="42.2154078" lon="14.2069688"><ele>352.3333333333333</ele><time>2026-05-01T10:04:59.945Z</time></trkpt><trkpt lat="42.2152405" lon="14.2069211"><ele>353.66666666666663</ele><time>2026-05-01T10:05:00.939Z</time></trkpt><trkpt lat="42.2150693" lon="14.2068713"><ele>355.0</ele><time>2026-05-01T10:05:01.936Z</time></trkpt><trkpt lat="42.2148942" lon="14.2068181"><ele>356.66666666666663</ele><time>2026-05-01T10:05:02.94Z</time></trkpt><trkpt lat="42.2147195" lon="14.2067689"><ele>358.3333333333333</ele><time>2026-05-01T10:05:03.938Z</time></trkpt><trkpt lat="42.2145435" lon="14.2067255"><ele>360.0</ele><time>2026-05-01T10:05:04.938Z</time></trkpt><trkpt lat="42.2143667" lon="14.206677"><ele>360.0</ele><time>2026-05-01T10:05:05.938Z</time></trkpt><trkpt lat="42.2141886" lon="14.2066341"><ele>360.0</ele><time>2026-05-01T10:05:06.939Z</time></trkpt><trkpt lat="42.2140112" lon="14.2065929"><ele>360.0</ele><time>2026-05-01T10:05:07.934Z</time></trkpt><trkpt lat="42.2138351" lon="14.2065454"><ele>361.6666666666667</ele><time>2026-05-01T10:05:08.935Z</time></trkpt><trkpt lat="42.2136636" lon="14.2064946"><ele>363.33333333333337</ele><time>2026-05-01T10:05:09.942Z</time></trkpt><trkpt lat="42.2134906" lon="14.2064448"><ele>365.0</ele><time>2026-05-01T10:05:10.94Z</time></trkpt><trkpt lat="42.2133188" lon="14.2063949"><ele>367.33333333333337</ele><time>2026-05-01T10:05:11.944Z</time></trkpt><trkpt lat="42.2131443" lon="14.2063457"><ele>369.6666666666667</ele><time>2026-05-01T10:05:12.939Z</time></trkpt><trkpt lat="42.2129683" lon="14.2062943"><ele>372.0</ele><time>2026-05-01T10:05:13.935Z</time></trkpt><trkpt lat="42.2127952" lon="14.2062379"><ele>372.0</ele><time>2026-05-01T10:05:14.943Z</time></trkpt><trkpt lat="42.21262" lon="14.2061811"><ele>372.0</ele><time>2026-05-01T10:05:15.939Z</time></trkpt><trkpt lat="42.2124438" lon="14.2061336"><ele>372.0</ele><time>2026-05-01T10:05:16.936Z</time></trkpt><trkpt lat="42.2122672" lon="14.206089"><ele>373.3333333333333</ele><time>2026-05-01T10:05:17.951Z</time></trkpt><trkpt lat="42.2120865" lon="14.2060375"><ele>374.66666666666663</ele><time>2026-05-01T10:05:18.943Z</time></trkpt><trkpt lat="42.2119078" lon="14.2059877"><ele>376.0</ele><time>2026-05-01T10:05:19.942Z</time></trkpt><trkpt lat="42.2117298" lon="14.2059312"><ele>376.0</ele><time>2026-05-01T10:05:20.94Z</time></trkpt><trkpt lat="42.2115473" lon="14.2058858"><ele>376.0</ele><time>2026-05-01T10:05:21.943Z</time></trkpt><trkpt lat="42.2113666" lon="14.2058378"><ele>376.0</ele><time>2026-05-01T10:05:22.955Z</time></trkpt><trkpt lat="42.2111857" lon="14.2057819"><ele>377.3333333333333</ele><time>2026-05-01T10:05:23.941Z</time></trkpt><trkpt lat="42.2110037" lon="14.205731"><ele>378.6666666666667</ele><time>2026-05-01T10:05:24.943Z</time></trkpt><trkpt lat="42.2108164" lon="14.2056751"><ele>380.0</ele><time>2026-05-01T10:05:25.938Z</time></trkpt><trkpt lat="42.2106321" lon="14.2056175"><ele>382.6666666666667</ele><time>2026-05-01T10:05:26.947Z</time></trkpt><trkpt lat="42.2104442" lon="14.2055642"><ele>385.33333333333337</ele><time>2026-05-01T10:05:27.95Z</time></trkpt><trkpt lat="42.2102554" lon="14.2055174"><ele>388.0</ele><time>2026-05-01T10:05:28.938Z</time></trkpt><trkpt lat="42.2100697" lon="14.2054664"><ele>388.0</ele><time>2026-05-01T10:05:29.95Z</time></trkpt><trkpt lat="42.2098816" lon="14.2054126"><ele>388.0</ele><time>2026-05-01T10:05:30.947Z</time></trkpt><trkpt lat="42.2096966" lon="14.205355"><ele>388.0</ele><time>2026-05-01T10:05:31.95Z</time></trkpt><trkpt lat="42.2095107" lon="14.2052914"><ele>389.0</ele><time>2026-05-01T10:05:32.939Z</time></trkpt><trkpt lat="42.2093266" lon="14.2052185"><ele>390.0</ele><time>2026-05-01T10:05:33.948Z</time></trkpt><trkpt lat="42.2091447" lon="14.2051436"><ele>391.0</ele><time>2026-05-01T10:05:34.951Z</time></trkpt><trkpt lat="42.2089642" lon="14.2050645"><ele>391.0</ele><time>2026-05-01T10:05:35.944Z</time></trkpt><trkpt lat="42.2087857" lon="14.2049853"><ele>391.0</ele><time>2026-05-01T10:05:36.953Z</time></trkpt><trkpt lat="42.2086067" lon="14.2048946"><ele>391.0</ele><time>2026-05-01T10:05:37.94Z</time></trkpt><trkpt lat="42.2084321" lon="14.2048008"><ele>395.0</ele><time>2026-05-01T10:05:38.948Z</time></trkpt><trkpt lat="42.2082592" lon="14.2047013"><ele>399.0</ele><time>2026-05-01T10:05:39.949Z</time></trkpt><trkpt lat="42.208088" lon="14.2045995"><ele>403.0</ele><time>2026-05-01T10:05:40.943Z</time></trkpt><trkpt lat="42.2079135" lon="14.2044931"><ele>403.0</ele><time>2026-05-01T10:05:41.94Z</time></trkpt><trkpt lat="42.2077393" lon="14.2043801"><ele>403.0</ele><time>2026-05-01T10:05:42.942Z</time></trkpt><trkpt lat="42.2075696" lon="14.2042667"><ele>403.0</ele><time>2026-05-01T10:05:43.94Z</time></trkpt><trkpt lat="42.2073981" lon="14.2041471"><ele>402.0</ele><time>2026-05-01T10:05:44.944Z</time></trkpt><trkpt lat="42.2072277" lon="14.2040248"><ele>401.0</ele><time>2026-05-01T10:05:45.94Z</time></trkpt><trkpt lat="42.2070578" lon="14.2039046"><ele>400.0</ele><time>2026-05-01T10:05:46.936Z</time></trkpt><trkpt lat="42.2068849" lon="14.2037864"><ele>402.6666666666667</ele><time>2026-05-01T10:05:47.942Z</time></trkpt><trkpt lat="42.2067113" lon="14.2036654"><ele>405.33333333333337</ele><time>2026-05-01T10:05:48.939Z</time></trkpt><trkpt lat="42.2065361" lon="14.2035479"><ele>408.0</ele><time>2026-05-01T10:05:49.95Z</time></trkpt><trkpt lat="42.206361" lon="14.2034354"><ele>408.0</ele><time>2026-05-01T10:05:50.94Z</time></trkpt><trkpt lat="42.206189" lon="14.2033182"><ele>408.0</ele><time>2026-05-01T10:05:51.946Z</time></trkpt><trkpt lat="42.2060178" lon="14.2032008"><ele>408.0</ele><time>2026-05-01T10:05:52.939Z</time></trkpt><trkpt lat="42.2058436" lon="14.2030713"><ele>411.0</ele><time>2026-05-01T10:05:53.943Z</time></trkpt><trkpt lat="42.2056719" lon="14.2029539"><ele>414.0</ele><time>2026-05-01T10:05:54.941Z</time></trkpt><trkpt lat="42.2054993" lon="14.2028325"><ele>417.0</ele><time>2026-05-01T10:05:55.94Z</time></trkpt><trkpt lat="42.205328" lon="14.2027152"><ele>417.0</ele><time>2026-05-01T10:05:56.938Z</time></trkpt><trkpt lat="42.2051496" lon="14.2025986"><ele>417.0</ele><time>2026-05-01T10:05:57.942Z</time></trkpt><trkpt lat="42.2049745" lon="14.2024928"><ele>417.0</ele><time>2026-05-01T10:05:58.931Z</time></trkpt><trkpt lat="42.2047965" lon="14.2023882"><ele>421.0</ele><time>2026-05-01T10:05:59.951Z</time></trkpt><trkpt lat="42.2046143" lon="14.2022921"><ele>425.0</ele><time>2026-05-01T10:06:00.943Z</time></trkpt><trkpt lat="42.2044311" lon="14.2021896"><ele>429.0</ele><time>2026-05-01T10:06:01.94Z</time></trkpt><trkpt lat="42.2042498" lon="14.2020932"><ele>429.0</ele><time>2026-05-01T10:06:02.945Z</time></trkpt><trkpt lat="42.2040597" lon="14.2020028"><ele>429.0</ele><time>2026-05-01T10:06:03.939Z</time></trkpt><trkpt lat="42.2038676" lon="14.2019127"><ele>429.0</ele><time>2026-05-01T10:06:04.944Z</time></trkpt><trkpt lat="42.2036801" lon="14.2018351"><ele>427.0</ele><time>2026-05-01T10:06:05.939Z</time></trkpt><trkpt lat="42.20349" lon="14.2017627"><ele>425.0</ele><time>2026-05-01T10:06:06.947Z</time></trkpt><trkpt lat="42.2032986" lon="14.2016934"><ele>423.0</ele><time>2026-05-01T10:06:07.935Z</time></trkpt><trkpt lat="42.2031051" lon="14.2016307"><ele>424.0</ele><time>2026-05-01T10:06:08.936Z</time></trkpt><trkpt lat="42.2029064" lon="14.2015695"><ele>425.0</ele><time>2026-05-01T10:06:09.944Z</time></trkpt><trkpt lat="42.2027102" lon="14.2015101"><ele>426.0</ele><time>2026-05-01T10:06:10.944Z</time></trkpt><trkpt lat="42.2025169" lon="14.2014627"><ele>427.66666666666663</ele><time>2026-05-01T10:06:11.945Z</time></trkpt><trkpt lat="42.2023262" lon="14.2014124"><ele>429.3333333333333</ele><time>2026-05-01T10:06:12.941Z</time></trkpt><trkpt lat="42.2021356" lon="14.2013619"><ele>431.0</ele><time>2026-05-01T10:06:13.936Z</time></trkpt><trkpt lat="42.2019419" lon="14.2013182"><ele>431.0</ele><time>2026-05-01T10:06:14.943Z</time></trkpt><trkpt lat="42.2017473" lon="14.2012787"><ele>431.0</ele><time>2026-05-01T10:06:15.925Z</time></trkpt><trkpt lat="42.2015534" lon="14.2012375"><ele>431.0</ele><time>2026-05-01T10:06:16.942Z</time></trkpt><trkpt lat="42.2013621" lon="14.2011943"><ele>433.66666666666663</ele><time>2026-05-01T10:06:17.946Z</time></trkpt><trkpt lat="42.201172" lon="14.2011513"><ele>436.33333333333337</ele><time>2026-05-01T10:06:18.94Z</time></trkpt><trkpt lat="42.2009799" lon="14.2011017"><ele>439.0</ele><time>2026-05-01T10:06:19.935Z</time></trkpt><trkpt lat="42.2007883" lon="14.201058"><ele>441.6666666666667</ele><time>2026-05-01T10:06:20.947Z</time></trkpt><trkpt lat="42.200594" lon="14.20102"><ele>444.33333333333337</ele><time>2026-05-01T10:06:21.934Z</time></trkpt><trkpt lat="42.2004056" lon="14.2009825"><ele>447.0</ele><time>2026-05-01T10:06:22.938Z</time></trkpt><trkpt lat="42.2002129" lon="14.2009459"><ele>447.0</ele><time>2026-05-01T10:06:23.942Z</time></trkpt><trkpt lat="42.2000189" lon="14.2008996"><ele>447.0</ele><time>2026-05-01T10:06:24.936Z</time></trkpt><trkpt lat="42.1998307" lon="14.2008596"><ele>447.0</ele><time>2026-05-01T10:06:25.945Z</time></trkpt><trkpt lat="42.1996395" lon="14.2008188"><ele>448.33333333333337</ele><time>2026-05-01T10:06:26.932Z</time></trkpt><trkpt lat="42.1994474" lon="14.2007754"><ele>449.6666666666667</ele><time>2026-05-01T10:06:27.938Z</time></trkpt><trkpt lat="42.1992539" lon="14.200739"><ele>451.0</ele><time>2026-05-01T10:06:28.945Z</time></trkpt><trkpt lat="42.199057" lon="14.2007115"><ele>453.33333333333337</ele><time>2026-05-01T10:06:29.947Z</time></trkpt><trkpt lat="42.1988629" lon="14.2006903"><ele>455.66666666666663</ele><time>2026-05-01T10:06:30.945Z</time></trkpt><trkpt lat="42.1986725" lon="14.2006768"><ele>458.0</ele><time>2026-05-01T10:06:31.932Z</time></trkpt><trkpt lat="42.1984793" lon="14.2006563"><ele>461.3333333333333</ele><time>2026-05-01T10:06:32.941Z</time></trkpt><trkpt lat="42.1982863" lon="14.2006433"><ele>464.66666666666663</ele><time>2026-05-01T10:06:33.95Z</time></trkpt><trkpt lat="42.1980947" lon="14.2006317"><ele>468.0</ele><time>2026-05-01T10:06:34.94Z</time></trkpt><trkpt lat="42.1979052" lon="14.2006258"><ele>469.66666666666663</ele><time>2026-05-01T10:06:35.945Z</time></trkpt><trkpt lat="42.1977116" lon="14.2006282"><ele>471.3333333333333</ele><time>2026-05-01T10:06:36.946Z</time></trkpt><trkpt lat="42.1975153" lon="14.2006333"><ele>473.0</ele><time>2026-05-01T10:06:37.947Z</time></trkpt><trkpt lat="42.1973285" lon="14.2006305"><ele>475.3333333333333</ele><time>2026-05-01T10:06:38.936Z</time></trkpt><trkpt lat="42.1971383" lon="14.2006346"><ele>477.66666666666663</ele><time>2026-05-01T10:06:39.949Z</time></trkpt><trkpt lat="42.1969516" lon="14.2006366"><ele>480.0</ele><time>2026-05-01T10:06:40.931Z</time></trkpt><trkpt lat="42.1967635" lon="14.2006271"><ele>480.0</ele><time>2026-05-01T10:06:41.943Z</time></trkpt><trkpt lat="42.1965755" lon="14.2006137"><ele>480.0</ele><time>2026-05-01T10:06:42.936Z</time></trkpt><trkpt lat="42.1963813" lon="14.2005893"><ele>480.0</ele><time>2026-05-01T10:06:43.934Z</time></trkpt><trkpt lat="42.1961826" lon="14.2005711"><ele>481.0</ele><time>2026-05-01T10:06:44.948Z</time></trkpt><trkpt lat="42.1959939" lon="14.2005248"><ele>482.0</ele><time>2026-05-01T10:06:45.937Z</time></trkpt><trkpt lat="42.1958065" lon="14.2004705"><ele>483.0</ele><time>2026-05-01T10:06:46.948Z</time></trkpt><trkpt lat="42.19562" lon="14.2003912"><ele>483.33333333333337</ele><time>2026-05-01T10:06:47.933Z</time></trkpt><trkpt lat="42.1954344" lon="14.2003059"><ele>483.6666666666667</ele><time>2026-05-01T10:06:48.941Z</time></trkpt><trkpt lat="42.1952484" lon="14.2002213"><ele>484.0</ele><time>2026-05-01T10:06:49.943Z</time></trkpt><trkpt lat="42.195073" lon="14.2001172"><ele>484.0</ele><time>2026-05-01T10:06:50.942Z</time></trkpt><trkpt lat="42.1948992" lon="14.2000008"><ele>484.0</ele><time>2026-05-01T10:06:51.936Z</time></trkpt><trkpt lat="42.194728" lon="14.1998819"><ele>484.0</ele><time>2026-05-01T10:06:52.941Z</time></trkpt><trkpt lat="42.1945663" lon="14.1997519"><ele>487.33333333333337</ele><time>2026-05-01T10:06:53.974Z</time></trkpt><trkpt lat="42.1944077" lon="14.1996174"><ele>490.66666666666663</ele><time>2026-05-01T10:06:54.934Z</time></trkpt><trkpt lat="42.194249" lon="14.1994787"><ele>494.0</ele><time>2026-05-01T10:06:55.949Z</time></trkpt><trkpt lat="42.1940865" lon="14.1993378"><ele>491.66666666666663</ele><time>2026-05-01T10:06:56.944Z</time></trkpt><trkpt lat="42.193923" lon="14.1992007"><ele>489.33333333333337</ele><time>2026-05-01T10:06:57.949Z</time></trkpt><trkpt lat="42.1937589" lon="14.1990693"><ele>487.0</ele><time>2026-05-01T10:06:58.934Z</time></trkpt><trkpt lat="42.1935944" lon="14.1989415"><ele>491.33333333333337</ele><time>2026-05-01T10:06:59.936Z</time></trkpt><trkpt lat="42.1934392" lon="14.1988148"><ele>495.66666666666663</ele><time>2026-05-01T10:07:00.944Z</time></trkpt><trkpt lat="42.1932865" lon="14.198691"><ele>500.0</ele><time>2026-05-01T10:07:01.938Z</time></trkpt><trkpt lat="42.1931317" lon="14.1985575"><ele>500.0</ele><time>2026-05-01T10:07:02.955Z</time></trkpt><trkpt lat="42.1929727" lon="14.1984354"><ele>500.0</ele><time>2026-05-01T10:07:03.94Z</time></trkpt><trkpt lat="42.1928094" lon="14.1983038"><ele>500.0</ele><time>2026-05-01T10:07:04.945Z</time></trkpt><trkpt lat="42.1926499" lon="14.1981723"><ele>503.3333333333333</ele><time>2026-05-01T10:07:05.951Z</time></trkpt><trkpt lat="42.1924905" lon="14.1980445"><ele>506.66666666666663</ele><time>2026-05-01T10:07:06.943Z</time></trkpt><trkpt lat="42.1923313" lon="14.1979178"><ele>510.0</ele><time>2026-05-01T10:07:07.947Z</time></trkpt><trkpt lat="42.1921699" lon="14.1977889"><ele>510.0</ele><time>2026-05-01T10:07:08.946Z</time></trkpt><trkpt lat="42.1920119" lon="14.1976608"><ele>510.0</ele><time>2026-05-01T10:07:09.937Z</time></trkpt><trkpt lat="42.1918582" lon="14.1975375"><ele>510.0</ele><time>2026-05-01T10:07:10.941Z</time></trkpt><trkpt lat="42.1917019" lon="14.1974126"><ele>512.6666666666666</ele><time>2026-05-01T10:07:11.93Z</time></trkpt><trkpt lat="42.1915488" lon="14.1973023"><ele>515.3333333333333</ele><time>2026-05-01T10:07:12.947Z</time></trkpt><trkpt lat="42.191399" lon="14.1972043"><ele>518.0</ele><time>2026-05-01T10:07:13.938Z</time></trkpt><trkpt lat="42.1912579" lon="14.1971107"><ele>518.0</ele><time>2026-05-01T10:07:14.943Z</time></trkpt><trkpt lat="42.1911103" lon="14.1970379"><ele>518.0</ele><time>2026-05-01T10:07:15.941Z</time></trkpt><trkpt lat="42.1909644" lon="14.1969898"><ele>518.0</ele><time>2026-05-01T10:07:16.941Z</time></trkpt><trkpt lat="42.1908358" lon="14.1969609"><ele>518.0</ele><time>2026-05-01T10:07:17.931Z</time></trkpt><trkpt lat="42.1907182" lon="14.1969461"><ele>517.4</ele><time>2026-05-01T10:07:18.936Z</time></trkpt><trkpt lat="42.1906089" lon="14.1969211"><ele>516.8</ele><time>2026-05-01T10:07:19.937Z</time></trkpt><trkpt lat="42.1905071" lon="14.1969127"><ele>516.2</ele><time>2026-05-01T10:07:20.939Z</time></trkpt><trkpt lat="42.190407" lon="14.1969148"><ele>515.6</ele><time>2026-05-01T10:07:21.944Z</time></trkpt><trkpt lat="42.190316" lon="14.1969219"><ele>515.0</ele><time>2026-05-01T10:07:22.941Z</time></trkpt><trkpt lat="42.1902328" lon="14.1969337"><ele>515.0</ele><time>2026-05-01T10:07:23.931Z</time></trkpt><trkpt lat="42.1901504" lon="14.1969452"><ele>515.0</ele><time>2026-05-01T10:07:24.94Z</time></trkpt><trkpt lat="42.1900797" lon="14.1969516"><ele>515.0</ele><time>2026-05-01T10:07:25.969Z</time></trkpt><trkpt lat="42.1900144" lon="14.1969702"><ele>515.0</ele><time>2026-05-01T10:07:26.937Z</time></trkpt><trkpt lat="42.1899263" lon="14.1969466"><ele>515.0</ele><time>2026-05-01T10:07:28.945Z</time></trkpt><trkpt lat="42.189881" lon="14.1968411"><ele>515.0</ele><time>2026-05-01T10:07:30.946Z</time></trkpt><trkpt lat="42.1898293" lon="14.1966988"><ele>515.2</ele><time>2026-05-01T10:07:32.955Z</time></trkpt><trkpt lat="42.1897249" lon="14.1966346"><ele>515.4</ele><time>2026-05-01T10:07:34.936Z</time></trkpt><trkpt lat="42.1896495" lon="14.1966474"><ele>515.6</ele><time>2026-05-01T10:07:35.938Z</time></trkpt><trkpt lat="42.1895788" lon="14.1967005"><ele>515.8</ele><time>2026-05-01T10:07:36.936Z</time></trkpt><trkpt lat="42.1895188" lon="14.1967802"><ele>516.0</ele><time>2026-05-01T10:07:37.935Z</time></trkpt><trkpt lat="42.1894502" lon="14.1968873"><ele>516.0</ele><time>2026-05-01T10:07:38.94Z</time></trkpt><trkpt lat="42.1893759" lon="14.1969632"><ele>516.0</ele><time>2026-05-01T10:07:39.94Z</time></trkpt><trkpt lat="42.1892878" lon="14.1970205"><ele>516.0</ele><time>2026-05-01T10:07:40.935Z</time></trkpt><trkpt lat="42.1891919" lon="14.1970721"><ele>516.0</ele><time>2026-05-01T10:07:41.938Z</time></trkpt><trkpt lat="42.1891101" lon="14.1971279"><ele>516.0</ele><time>2026-05-01T10:07:42.934Z</time></trkpt><trkpt lat="42.1890027" lon="14.1972284"><ele>516.0</ele><time>2026-05-01T10:07:44.928Z</time></trkpt><trkpt lat="42.1889441" lon="14.1972633"><ele>516.0</ele><time>2026-05-01T10:07:45.934Z</time></trkpt><trkpt lat="42.1888336" lon="14.1972999"><ele>516.0</ele><time>2026-05-01T10:07:47.93Z</time></trkpt><trkpt lat="42.1887707" lon="14.1973093"><ele>516.0</ele><time>2026-05-01T10:07:48.941Z</time></trkpt><trkpt lat="42.1886408" lon="14.1972939"><ele>516.0</ele><time>2026-05-01T10:07:50.929Z</time></trkpt><trkpt lat="42.1885808" lon="14.1972652"><ele>516.0</ele><time>2026-05-01T10:07:51.941Z</time></trkpt><trkpt lat="42.1885163" lon="14.1972756"><ele>516.0</ele><time>2026-05-01T10:07:53.946Z</time></trkpt><trkpt lat="42.1886106" lon="14.1973132"><ele>516.0</ele><time>2026-05-01T10:07:57.938Z</time></trkpt><trkpt lat="42.1887333" lon="14.1973381"><ele>516.0</ele><time>2026-05-01T10:07:59.933Z</time></trkpt><trkpt lat="42.1888124" lon="14.1973349"><ele>516.0</ele><time>2026-05-01T10:08:00.942Z</time></trkpt><trkpt lat="42.1888972" lon="14.1973134"><ele>516.0</ele><time>2026-05-01T10:08:01.939Z</time></trkpt><trkpt lat="42.188991" lon="14.1972656"><ele>516.0</ele><time>2026-05-01T10:08:02.936Z</time></trkpt><trkpt lat="42.1890836" lon="14.1972006"><ele>516.0</ele><time>2026-05-01T10:08:03.932Z</time></trkpt><trkpt lat="42.1891853" lon="14.1971151"><ele>516.0</ele><time>2026-05-01T10:08:04.937Z</time></trkpt><trkpt lat="42.1892844" lon="14.1970619"><ele>516.0</ele><time>2026-05-01T10:08:05.944Z</time></trkpt><trkpt lat="42.1893773" lon="14.1970334"><ele>516.0</ele><time>2026-05-01T10:08:06.948Z</time></trkpt><trkpt lat="42.1894606" lon="14.1970353"><ele>516.0</ele><time>2026-05-01T10:08:07.936Z</time></trkpt><trkpt lat="42.1895353" lon="14.1970738"><ele>516.0</ele><time>2026-05-01T10:08:08.934Z</time></trkpt><trkpt lat="42.189609" lon="14.1971228"><ele>516.0</ele><time>2026-05-01T10:08:09.94Z</time></trkpt><trkpt lat="42.1896866" lon="14.1971493"><ele>516.0</ele><time>2026-05-01T10:08:10.945Z</time></trkpt><trkpt lat="42.1897595" lon="14.1971267"><ele>516.0</ele><time>2026-05-01T10:08:11.944Z</time></trkpt><trkpt lat="42.1898167" lon="14.1970736"><ele>516.0</ele><time>2026-05-01T10:08:12.942Z</time></trkpt><trkpt lat="42.1898531" lon="14.1969969"><ele>516.0</ele><time>2026-05-01T10:08:13.936Z</time></trkpt><trkpt lat="42.1898708" lon="14.1969123"><ele>516.0</ele><time>2026-05-01T10:08:14.936Z</time></trkpt><trkpt lat="42.189861" lon="14.1968263"><ele>516.0</ele><time>2026-05-01T10:08:15.94Z</time></trkpt><trkpt lat="42.1897945" lon="14.196684"><ele>516.0</ele><time>2026-05-01T10:08:17.942Z</time></trkpt><trkpt lat="42.189733" lon="14.1966292"><ele>516.0</ele><time>2026-05-01T10:08:18.938Z</time></trkpt><trkpt lat="42.1896622" lon="14.1965768"><ele>516.0</ele><time>2026-05-01T10:08:19.939Z</time></trkpt><trkpt lat="42.1896045" lon="14.1964972"><ele>518.6</ele><time>2026-05-01T10:08:20.936Z</time></trkpt><trkpt lat="42.1895491" lon="14.1963766"><ele>521.2</ele><time>2026-05-01T10:08:21.927Z</time></trkpt><trkpt lat="42.1895039" lon="14.1962486"><ele>523.8</ele><time>2026-05-01T10:08:22.936Z</time></trkpt><trkpt lat="42.1894379" lon="14.1961106"><ele>526.4</ele><time>2026-05-01T10:08:23.942Z</time></trkpt><trkpt lat="42.1893731" lon="14.1959906"><ele>529.0</ele><time>2026-05-01T10:08:24.941Z</time></trkpt><trkpt lat="42.1893027" lon="14.1959192"><ele>529.0</ele><time>2026-05-01T10:08:25.939Z</time></trkpt><trkpt lat="42.1892237" lon="14.19586"><ele>529.0</ele><time>2026-05-01T10:08:26.936Z</time></trkpt><trkpt lat="42.1891377" lon="14.1958174"><ele>529.0</ele><time>2026-05-01T10:08:27.949Z</time></trkpt><trkpt lat="42.1890429" lon="14.1957668"><ele>529.0</ele><time>2026-05-01T10:08:28.943Z</time></trkpt><trkpt lat="42.1889484" lon="14.1957198"><ele>529.0</ele><time>2026-05-01T10:08:29.945Z</time></trkpt><trkpt lat="42.1888484" lon="14.1956638"><ele>530.8</ele><time>2026-05-01T10:08:30.947Z</time></trkpt><trkpt lat="42.1887469" lon="14.1955991"><ele>532.5999999999999</ele><time>2026-05-01T10:08:31.939Z</time></trkpt><trkpt lat="42.1886518" lon="14.1955368"><ele>534.4</ele><time>2026-05-01T10:08:32.953Z</time></trkpt><trkpt lat="42.1885686" lon="14.195487"><ele>536.1999999999999</ele><time>2026-05-01T10:08:33.936Z</time></trkpt><trkpt lat="42.1884984" lon="14.1954544"><ele>538.0</ele><time>2026-05-01T10:08:34.938Z</time></trkpt><trkpt lat="42.1885757" lon="14.1955528"><ele>538.0</ele><time>2026-05-01T10:08:41.939Z</time></trkpt><trkpt lat="42.1886554" lon="14.1956029"><ele>538.0</ele><time>2026-05-01T10:08:42.936Z</time></trkpt><trkpt lat="42.1887562" lon="14.195665"><ele>538.0</ele><time>2026-05-01T10:08:43.948Z</time></trkpt><trkpt lat="42.1888696" lon="14.1957318"><ele>538.0</ele><time>2026-05-01T10:08:44.941Z</time></trkpt><trkpt lat="42.1889806" lon="14.1957943"><ele>538.0</ele><time>2026-05-01T10:08:45.946Z</time></trkpt><trkpt lat="42.1890849" lon="14.1958575"><ele>536.1999999999999</ele><time>2026-05-01T10:08:46.942Z</time></trkpt><trkpt lat="42.1891814" lon="14.1959084"><ele>534.4</ele><time>2026-05-01T10:08:47.941Z</time></trkpt><trkpt lat="42.1892759" lon="14.1959645"><ele>532.5999999999999</ele><time>2026-05-01T10:08:48.939Z</time></trkpt><trkpt lat="42.1893637" lon="14.1960394"><ele>530.8</ele><time>2026-05-01T10:08:49.944Z</time></trkpt><trkpt lat="42.1894355" lon="14.1961537"><ele>529.0</ele><time>2026-05-01T10:08:50.934Z</time></trkpt><trkpt lat="42.1894819" lon="14.1962638"><ele>529.0</ele><time>2026-05-01T10:08:51.953Z</time></trkpt><trkpt lat="42.1895273" lon="14.1963793"><ele>529.0</ele><time>2026-05-01T10:08:52.928Z</time></trkpt><trkpt lat="42.1895634" lon="14.1964814"><ele>529.0</ele><time>2026-05-01T10:08:53.955Z</time></trkpt><trkpt lat="42.189579" lon="14.1965684"><ele>529.0</ele><time>2026-05-01T10:08:54.95Z</time></trkpt><trkpt lat="42.1895643" lon="14.1966672"><ele>529.0</ele><time>2026-05-01T10:08:55.94Z</time></trkpt><trkpt lat="42.1895325" lon="14.1967839"><ele>529.0</ele><time>2026-05-01T10:08:56.938Z</time></trkpt><trkpt lat="42.1895094" lon="14.1969016"><ele>526.8333333333334</ele><time>2026-05-01T10:08:57.945Z</time></trkpt><trkpt lat="42.1895284" lon="14.1969984"><ele>524.6666666666667</ele><time>2026-05-01T10:08:58.942Z</time></trkpt><trkpt lat="42.1895747" lon="14.19708"><ele>522.5</ele><time>2026-05-01T10:08:59.948Z</time></trkpt><trkpt lat="42.1896439" lon="14.1971298"><ele>520.3333333333334</ele><time>2026-05-01T10:09:00.937Z</time></trkpt><trkpt lat="42.1897223" lon="14.1971459"><ele>518.1666666666666</ele><time>2026-05-01T10:09:01.943Z</time></trkpt><trkpt lat="42.1897927" lon="14.1971085"><ele>516.0</ele><time>2026-05-01T10:09:02.948Z</time></trkpt><trkpt lat="42.1898436" lon="14.197034"><ele>515.8333333333334</ele><time>2026-05-01T10:09:03.94Z</time></trkpt><trkpt lat="42.1898787" lon="14.1969363"><ele>515.6666666666666</ele><time>2026-05-01T10:09:04.937Z</time></trkpt><trkpt lat="42.1898837" lon="14.1968306"><ele>515.5</ele><time>2026-05-01T10:09:05.941Z</time></trkpt><trkpt lat="42.1898755" lon="14.1967257"><ele>515.3333333333333</ele><time>2026-05-01T10:09:06.946Z</time></trkpt><trkpt lat="42.1898986" lon="14.1966135"><ele>515.1666666666666</ele><time>2026-05-01T10:09:07.948Z</time></trkpt><trkpt lat="42.1899511" lon="14.1965304"><ele>515.0</ele><time>2026-05-01T10:09:08.94Z</time></trkpt><trkpt lat="42.1900188" lon="14.196462"><ele>518.0</ele><time>2026-05-01T10:09:09.938Z</time></trkpt><trkpt lat="42.1901037" lon="14.1964282"><ele>521.0</ele><time>2026-05-01T10:09:10.937Z</time></trkpt><trkpt lat="42.1902112" lon="14.1964162"><ele>524.0</ele><time>2026-05-01T10:09:11.937Z</time></trkpt><trkpt lat="42.190311" lon="14.1964239"><ele>527.0</ele><time>2026-05-01T10:09:12.947Z</time></trkpt><trkpt lat="42.190416" lon="14.1964455"><ele>530.0</ele><time>2026-05-01T10:09:13.936Z</time></trkpt><trkpt lat="42.1905262" lon="14.1964553"><ele>530.0</ele><time>2026-05-01T10:09:14.935Z</time></trkpt><trkpt lat="42.1906345" lon="14.1964665"><ele>530.0</ele><time>2026-05-01T10:09:15.936Z</time></trkpt><trkpt lat="42.190739" lon="14.1964773"><ele>530.0</ele><time>2026-05-01T10:09:16.938Z</time></trkpt><trkpt lat="42.1908207" lon="14.1964903"><ele>530.0</ele><time>2026-05-01T10:09:17.939Z</time></trkpt><trkpt lat="42.1908879" lon="14.1964974"><ele>530.0</ele><time>2026-05-01T10:09:18.945Z</time></trkpt><trkpt lat="42.1909547" lon="14.1964802"><ele>530.0</ele><time>2026-05-01T10:09:20.948Z</time></trkpt><trkpt lat="42.1909592" lon="14.1963556"><ele>530.0</ele><time>2026-05-01T10:09:23.933Z</time></trkpt><trkpt lat="42.1908747" lon="14.1962439"><ele>530.0</ele><time>2026-05-01T10:09:25.954Z</time></trkpt><trkpt lat="42.1908023" lon="14.1962082"><ele>530.0</ele><time>2026-05-01T10:09:26.936Z</time></trkpt><trkpt lat="42.1907249" lon="14.1962076"><ele>530.0</ele><time>2026-05-01T10:09:27.942Z</time></trkpt><trkpt lat="42.1906391" lon="14.1962239"><ele>530.0</ele><time>2026-05-01T10:09:28.944Z</time></trkpt><trkpt lat="42.1905634" lon="14.1962208"><ele>530.0</ele><time>2026-05-01T10:09:29.939Z</time></trkpt><trkpt lat="42.1904792" lon="14.1961831"><ele>530.0</ele><time>2026-05-01T10:09:30.947Z</time></trkpt><trkpt lat="42.1904022" lon="14.1961023"><ele>530.0</ele><time>2026-05-01T10:09:31.945Z</time></trkpt><trkpt lat="42.1903374" lon="14.1960243"><ele>530.0</ele><time>2026-05-01T10:09:32.935Z</time></trkpt><trkpt lat="42.1902667" lon="14.1959451"><ele>530.0</ele><time>2026-05-01T10:09:33.949Z</time></trkpt><trkpt lat="42.1902011" lon="14.1958982"><ele>530.0</ele><time>2026-05-01T10:09:34.946Z</time></trkpt><trkpt lat="42.1901273" lon="14.1958773"><ele>530.0</ele><time>2026-05-01T10:09:35.934Z</time></trkpt><trkpt lat="42.1900544" lon="14.1958816"><ele>530.0</ele><time>2026-05-01T10:09:36.943Z</time></trkpt><trkpt lat="42.1899828" lon="14.1959152"><ele>530.0</ele><time>2026-05-01T10:09:37.937Z</time></trkpt><trkpt lat="42.189909" lon="14.1959407"><ele>530.0</ele><time>2026-05-01T10:09:38.937Z</time></trkpt><trkpt lat="42.18983" lon="14.1959372"><ele>530.0</ele><time>2026-05-01T10:09:39.941Z</time></trkpt><trkpt lat="42.1897543" lon="14.1959026"><ele>530.0</ele><time>2026-05-01T10:09:40.944Z</time></trkpt><trkpt lat="42.1896778" lon="14.1958422"><ele>530.0</ele><time>2026-05-01T10:09:41.942Z</time></trkpt><trkpt lat="42.1895931" lon="14.1957669"><ele>529.75</ele><time>2026-05-01T10:09:42.941Z</time></trkpt><trkpt lat="42.1895036" lon="14.1956786"><ele>529.5</ele><time>2026-05-01T10:09:43.941Z</time></trkpt><trkpt lat="42.189401" lon="14.1955765"><ele>529.25</ele><time>2026-05-01T10:09:44.933Z</time></trkpt><trkpt lat="42.189302" lon="14.1954745"><ele>529.0</ele><time>2026-05-01T10:09:45.95Z</time></trkpt><trkpt lat="42.1891864" lon="14.1953673"><ele>531.25</ele><time>2026-05-01T10:09:46.94Z</time></trkpt><trkpt lat="42.189076" lon="14.1952679"><ele>533.5</ele><time>2026-05-01T10:09:47.945Z</time></trkpt><trkpt lat="42.1889727" lon="14.1951709"><ele>535.75</ele><time>2026-05-01T10:09:48.948Z</time></trkpt><trkpt lat="42.1888685" lon="14.195061"><ele>538.0</ele><time>2026-05-01T10:09:49.944Z</time></trkpt><trkpt lat="42.1887667" lon="14.1949467"><ele>538.0</ele><time>2026-05-01T10:09:50.943Z</time></trkpt><trkpt lat="42.1886632" lon="14.194842"><ele>538.0</ele><time>2026-05-01T10:09:51.944Z</time></trkpt><trkpt lat="42.188561" lon="14.1947411"><ele>538.0</ele><time>2026-05-01T10:09:52.942Z</time></trkpt><trkpt lat="42.1884604" lon="14.1946467"><ele>538.0</ele><time>2026-05-01T10:09:53.942Z</time></trkpt><trkpt lat="42.1883832" lon="14.1945645"><ele>538.3333333333334</ele><time>2026-05-01T10:09:54.945Z</time></trkpt><trkpt lat="42.1883071" lon="14.1944881"><ele>538.6666666666667</ele><time>2026-05-01T10:09:55.948Z</time></trkpt><trkpt lat="42.1882416" lon="14.1944011"><ele>539.0</ele><time>2026-05-01T10:09:56.939Z</time></trkpt><trkpt lat="42.1881842" lon="14.19432"><ele>539.3333333333334</ele><time>2026-05-01T10:09:57.94Z</time></trkpt><trkpt lat="42.1881237" lon="14.1942448"><ele>539.6666666666666</ele><time>2026-05-01T10:09:58.938Z</time></trkpt><trkpt lat="42.1880618" lon="14.1941756"><ele>540.0</ele><time>2026-05-01T10:09:59.948Z</time></trkpt><trkpt lat="42.1880173" lon="14.1941083"><ele>540.0</ele><time>2026-05-01T10:10:00.943Z</time></trkpt><trkpt lat="42.1879674" lon="14.1940391"><ele>540.0</ele><time>2026-05-01T10:10:01.941Z</time></trkpt><trkpt lat="42.1879233" lon="14.1939618"><ele>540.0</ele><time>2026-05-01T10:10:02.945Z</time></trkpt><trkpt lat="42.1878761" lon="14.1938789"><ele>540.0</ele><time>2026-05-01T10:10:03.944Z</time></trkpt><trkpt lat="42.1878145" lon="14.1937976"><ele>540.0</ele><time>2026-05-01T10:10:04.946Z</time></trkpt><trkpt lat="42.1877536" lon="14.1937058"><ele>540.0</ele><time>2026-05-01T10:10:05.952Z</time></trkpt><trkpt lat="42.1876936" lon="14.1936096"><ele>542.0</ele><time>2026-05-01T10:10:06.949Z</time></trkpt><trkpt lat="42.1876316" lon="14.1935065"><ele>544.0</ele><time>2026-05-01T10:10:07.947Z</time></trkpt><trkpt lat="42.1875553" lon="14.1934076"><ele>546.0</ele><time>2026-05-01T10:10:08.952Z</time></trkpt><trkpt lat="42.18747" lon="14.1932925"><ele>548.0</ele><time>2026-05-01T10:10:09.946Z</time></trkpt><trkpt lat="42.187392" lon="14.19318"><ele>550.0</ele><time>2026-05-01T10:10:10.947Z</time></trkpt><trkpt lat="42.1873229" lon="14.1930709"><ele>550.4</ele><time>2026-05-01T10:10:11.943Z</time></trkpt><trkpt lat="42.1872561" lon="14.1929596"><ele>550.8</ele><time>2026-05-01T10:10:12.942Z</time></trkpt><trkpt lat="42.1871884" lon="14.1928663"><ele>551.2</ele><time>2026-05-01T10:10:13.938Z</time></trkpt><trkpt lat="42.1871428" lon="14.1927825"><ele>551.6</ele><time>2026-05-01T10:10:14.944Z</time></trkpt><trkpt lat="42.187097" lon="14.192677"><ele>552.0</ele><time>2026-05-01T10:10:16.941Z</time></trkpt><trkpt lat="42.1870179" lon="14.1926122"><ele>552.0</ele><time>2026-05-01T10:10:20.938Z</time></trkpt><trkpt lat="42.186927" lon="14.1925237"><ele>552.0</ele><time>2026-05-01T10:10:22.946Z</time></trkpt><trkpt lat="42.1868742" lon="14.1924675"><ele>552.0</ele><time>2026-05-01T10:10:23.947Z</time></trkpt><trkpt lat="42.1868089" lon="14.1924145"><ele>552.0</ele><time>2026-05-01T10:10:24.946Z</time></trkpt><trkpt lat="42.1867387" lon="14.1923775"><ele>552.0</ele><time>2026-05-01T10:10:25.947Z</time></trkpt><trkpt lat="42.1866702" lon="14.1923455"><ele>552.0</ele><time>2026-05-01T10:10:26.947Z</time></trkpt><trkpt lat="42.1865927" lon="14.1923132"><ele>552.5</ele><time>2026-05-01T10:10:27.955Z</time></trkpt><trkpt lat="42.186516" lon="14.1922891"><ele>553.0</ele><time>2026-05-01T10:10:28.967Z</time></trkpt><trkpt lat="42.1864413" lon="14.1922809"><ele>553.5</ele><time>2026-05-01T10:10:29.931Z</time></trkpt><trkpt lat="42.1863806" lon="14.1923048"><ele>554.0</ele><time>2026-05-01T10:10:30.948Z</time></trkpt><trkpt lat="42.1863141" lon="14.1923265"><ele>554.5</ele><time>2026-05-01T10:10:31.948Z</time></trkpt><trkpt lat="42.1861998" lon="14.1923545"><ele>555.0</ele><time>2026-05-01T10:10:33.94Z</time></trkpt><trkpt lat="42.1861366" lon="14.192348"><ele>553.6</ele><time>2026-05-01T10:10:34.94Z</time></trkpt><trkpt lat="42.1860182" lon="14.1923459"><ele>552.2</ele><time>2026-05-01T10:10:36.939Z</time></trkpt><trkpt lat="42.1858991" lon="14.192346"><ele>550.8</ele><time>2026-05-01T10:10:38.942Z</time></trkpt><trkpt lat="42.1858358" lon="14.1923821"><ele>549.4</ele><time>2026-05-01T10:10:41.938Z</time></trkpt><trkpt lat="42.1859442" lon="14.1923885"><ele>548.0</ele><time>2026-05-01T10:10:45.943Z</time></trkpt><trkpt lat="42.1860818" lon="14.1923786"><ele>548.0</ele><time>2026-05-01T10:10:47.929Z</time></trkpt><trkpt lat="42.1861655" lon="14.1923728"><ele>548.0</ele><time>2026-05-01T10:10:48.933Z</time></trkpt><trkpt lat="42.1862413" lon="14.1923386"><ele>548.0</ele><time>2026-05-01T10:10:49.936Z</time></trkpt><trkpt lat="42.1863265" lon="14.1923037"><ele>548.0</ele><time>2026-05-01T10:10:50.932Z</time></trkpt><trkpt lat="42.1864046" lon="14.1922805"><ele>548.0</ele><time>2026-05-01T10:10:51.943Z</time></trkpt><trkpt lat="42.1864737" lon="14.192291"><ele>548.0</ele><time>2026-05-01T10:10:52.95Z</time></trkpt><trkpt lat="42.1865469" lon="14.1923034"><ele>548.8</ele><time>2026-05-01T10:10:53.942Z</time></trkpt><trkpt lat="42.1866269" lon="14.1923331"><ele>549.5999999999999</ele><time>2026-05-01T10:10:54.941Z</time></trkpt><trkpt lat="42.1867067" lon="14.192385"><ele>550.4000000000001</ele><time>2026-05-01T10:10:55.945Z</time></trkpt><trkpt lat="42.1867935" lon="14.1924434"><ele>551.2</ele><time>2026-05-01T10:10:56.937Z</time></trkpt><trkpt lat="42.1868809" lon="14.1925148"><ele>552.0</ele><time>2026-05-01T10:10:57.938Z</time></trkpt><trkpt lat="42.1869509" lon="14.1925781"><ele>552.0</ele><time>2026-05-01T10:10:58.939Z</time></trkpt><trkpt lat="42.1870022" lon="14.192629"><ele>552.0</ele><time>2026-05-01T10:10:59.941Z</time></trkpt><trkpt lat="42.1870675" lon="14.1926412"><ele>552.0</ele><time>2026-05-01T10:11:01.946Z</time></trkpt><trkpt lat="42.1870842" lon="14.1925338"><ele>552.0</ele><time>2026-05-01T10:11:03.937Z</time></trkpt><trkpt lat="42.1870628" lon="14.192447"><ele>552.0</ele><time>2026-05-01T10:11:04.944Z</time></trkpt><trkpt lat="42.1870327" lon="14.1923509"><ele>552.0</ele><time>2026-05-01T10:11:05.944Z</time></trkpt><trkpt lat="42.1869904" lon="14.192259"><ele>552.0</ele><time>2026-05-01T10:11:06.94Z</time></trkpt><trkpt lat="42.1869354" lon="14.1921683"><ele>554.6</ele><time>2026-05-01T10:11:07.943Z</time></trkpt><trkpt lat="42.1868634" lon="14.1920773"><ele>557.2</ele><time>2026-05-01T10:11:08.944Z</time></trkpt><trkpt lat="42.1867934" lon="14.1919903"><ele>559.8</ele><time>2026-05-01T10:11:09.934Z</time></trkpt><trkpt lat="42.1867258" lon="14.1918965"><ele>562.4</ele><time>2026-05-01T10:11:10.93Z</time></trkpt><trkpt lat="42.186659" lon="14.1917898"><ele>565.0</ele><time>2026-05-01T10:11:11.939Z</time></trkpt><trkpt lat="42.1866055" lon="14.1916796"><ele>565.0</ele><time>2026-05-01T10:11:12.935Z</time></trkpt><trkpt lat="42.1865735" lon="14.1915531"><ele>565.0</ele><time>2026-05-01T10:11:13.94Z</time></trkpt><trkpt lat="42.1865614" lon="14.1914252"><ele>565.0</ele><time>2026-05-01T10:11:14.938Z</time></trkpt><trkpt lat="42.1865627" lon="14.1912957"><ele>565.0</ele><time>2026-05-01T10:11:15.941Z</time></trkpt><trkpt lat="42.1865596" lon="14.191157"><ele>565.0</ele><time>2026-05-01T10:11:16.946Z</time></trkpt><trkpt lat="42.1865557" lon="14.1910192"><ele>565.6</ele><time>2026-05-01T10:11:17.931Z</time></trkpt><trkpt lat="42.1865472" lon="14.19088"><ele>566.2</ele><time>2026-05-01T10:11:18.938Z</time></trkpt><trkpt lat="42.1865373" lon="14.1907523"><ele>566.8</ele><time>2026-05-01T10:11:19.943Z</time></trkpt><trkpt lat="42.1865162" lon="14.1906119"><ele>567.4</ele><time>2026-05-01T10:11:20.947Z</time></trkpt><trkpt lat="42.1864921" lon="14.1904596"><ele>568.0</ele><time>2026-05-01T10:11:21.938Z</time></trkpt><trkpt lat="42.1864665" lon="14.1903167"><ele>568.0</ele><time>2026-05-01T10:11:22.933Z</time></trkpt><trkpt lat="42.1864483" lon="14.1901706"><ele>568.0</ele><time>2026-05-01T10:11:23.958Z</time></trkpt><trkpt lat="42.1864416" lon="14.1900311"><ele>568.0</ele><time>2026-05-01T10:11:24.945Z</time></trkpt><trkpt lat="42.1864248" lon="14.1899007"><ele>568.0</ele><time>2026-05-01T10:11:25.943Z</time></trkpt><trkpt lat="42.1864017" lon="14.1897734"><ele>568.0</ele><time>2026-05-01T10:11:26.949Z</time></trkpt><trkpt lat="42.1863751" lon="14.1896451"><ele>569.6</ele><time>2026-05-01T10:11:27.943Z</time></trkpt><trkpt lat="42.1863402" lon="14.1895049"><ele>571.1999999999999</ele><time>2026-05-01T10:11:28.946Z</time></trkpt><trkpt lat="42.1863023" lon="14.1893585"><ele>572.8</ele><time>2026-05-01T10:11:29.945Z</time></trkpt><trkpt lat="42.1862656" lon="14.1892204"><ele>574.4</ele><time>2026-05-01T10:11:30.944Z</time></trkpt><trkpt lat="42.1862311" lon="14.1890915"><ele>576.0</ele><time>2026-05-01T10:11:31.943Z</time></trkpt><trkpt lat="42.186198" lon="14.1889693"><ele>577.2</ele><time>2026-05-01T10:11:32.955Z</time></trkpt><trkpt lat="42.1861547" lon="14.1888438"><ele>578.4000000000001</ele><time>2026-05-01T10:11:33.942Z</time></trkpt><trkpt lat="42.1861163" lon="14.1887166"><ele>579.6</ele><time>2026-05-01T10:11:34.944Z</time></trkpt><trkpt lat="42.1860816" lon="14.1885754"><ele>580.8000000000001</ele><time>2026-05-01T10:11:35.945Z</time></trkpt><trkpt lat="42.1860415" lon="14.1884311"><ele>582.0</ele><time>2026-05-01T10:11:36.948Z</time></trkpt><trkpt lat="42.1860026" lon="14.1882803"><ele>583.8000000000001</ele><time>2026-05-01T10:11:37.944Z</time></trkpt><trkpt lat="42.1859725" lon="14.1881342"><ele>585.6</ele><time>2026-05-01T10:11:38.946Z</time></trkpt><trkpt lat="42.1859429" lon="14.1879883"><ele>587.4000000000001</ele><time>2026-05-01T10:11:39.948Z</time></trkpt><trkpt lat="42.1859105" lon="14.1878503"><ele>589.2</ele><time>2026-05-01T10:11:40.945Z</time></trkpt><trkpt lat="42.1858727" lon="14.1877171"><ele>591.0</ele><time>2026-05-01T10:11:41.953Z</time></trkpt><trkpt lat="42.1858349" lon="14.1875879"><ele>591.0</ele><time>2026-05-01T10:11:42.948Z</time></trkpt><trkpt lat="42.1857963" lon="14.187466"><ele>591.0</ele><time>2026-05-01T10:11:43.943Z</time></trkpt><trkpt lat="42.1857556" lon="14.187336"><ele>591.0</ele><time>2026-05-01T10:11:44.945Z</time></trkpt><trkpt lat="42.1857132" lon="14.1871975"><ele>591.0</ele><time>2026-05-01T10:11:45.955Z</time></trkpt><trkpt lat="42.1856657" lon="14.1870615"><ele>591.0</ele><time>2026-05-01T10:11:46.936Z</time></trkpt><trkpt lat="42.185615" lon="14.1869245"><ele>591.25</ele><time>2026-05-01T10:11:47.934Z</time></trkpt><trkpt lat="42.1855659" lon="14.1867843"><ele>591.5</ele><time>2026-05-01T10:11:48.956Z</time></trkpt><trkpt lat="42.1855132" lon="14.1866401"><ele>591.75</ele><time>2026-05-01T10:11:49.936Z</time></trkpt><trkpt lat="42.1854542" lon="14.1865062"><ele>592.0</ele><time>2026-05-01T10:11:50.935Z</time></trkpt><trkpt lat="42.1853891" lon="14.1863771"><ele>595.6</ele><time>2026-05-01T10:11:51.931Z</time></trkpt><trkpt lat="42.1853136" lon="14.1862565"><ele>599.2</ele><time>2026-05-01T10:11:52.937Z</time></trkpt><trkpt lat="42.1852391" lon="14.1861458"><ele>602.8</ele><time>2026-05-01T10:11:53.945Z</time></trkpt><trkpt lat="42.185171" lon="14.1860494"><ele>606.4</ele><time>2026-05-01T10:11:54.941Z</time></trkpt><trkpt lat="42.1851035" lon="14.1859436"><ele>610.0</ele><time>2026-05-01T10:11:55.943Z</time></trkpt><trkpt lat="42.1850365" lon="14.1858427"><ele>610.0</ele><time>2026-05-01T10:11:56.946Z</time></trkpt><trkpt lat="42.1849667" lon="14.185747"><ele>610.0</ele><time>2026-05-01T10:11:57.938Z</time></trkpt><trkpt lat="42.1848963" lon="14.1856613"><ele>610.0</ele><time>2026-05-01T10:11:58.936Z</time></trkpt><trkpt lat="42.1848267" lon="14.185566"><ele>610.0</ele><time>2026-05-01T10:11:59.933Z</time></trkpt><trkpt lat="42.184768" lon="14.1854598"><ele>610.0</ele><time>2026-05-01T10:12:00.937Z</time></trkpt><trkpt lat="42.1847157" lon="14.185351"><ele>609.6</ele><time>2026-05-01T10:12:01.945Z</time></trkpt><trkpt lat="42.1846706" lon="14.1852451"><ele>609.2</ele><time>2026-05-01T10:12:02.937Z</time></trkpt><trkpt lat="42.1846205" lon="14.185125"><ele>608.8</ele><time>2026-05-01T10:12:03.942Z</time></trkpt><trkpt lat="42.1845713" lon="14.1849964"><ele>608.4</ele><time>2026-05-01T10:12:04.942Z</time></trkpt><trkpt lat="42.1845279" lon="14.1848734"><ele>608.0</ele><time>2026-05-01T10:12:05.935Z</time></trkpt><trkpt lat="42.1844834" lon="14.1847453"><ele>610.3333333333333</ele><time>2026-05-01T10:12:06.942Z</time></trkpt><trkpt lat="42.1844382" lon="14.1846134"><ele>612.6666666666666</ele><time>2026-05-01T10:12:07.93Z</time></trkpt><trkpt lat="42.1843977" lon="14.1844903"><ele>615.0</ele><time>2026-05-01T10:12:08.941Z</time></trkpt><trkpt lat="42.1843595" lon="14.1843831"><ele>617.3333333333334</ele><time>2026-05-01T10:12:09.944Z</time></trkpt><trkpt lat="42.1843274" lon="14.1842926"><ele>619.6666666666667</ele><time>2026-05-01T10:12:10.931Z</time></trkpt><trkpt lat="42.1842917" lon="14.184217"><ele>622.0</ele><time>2026-05-01T10:12:11.932Z</time></trkpt><trkpt lat="42.1842618" lon="14.1841378"><ele>622.0</ele><time>2026-05-01T10:12:12.974Z</time></trkpt><trkpt lat="42.1842088" lon="14.1840327"><ele>622.0</ele><time>2026-05-01T10:12:13.94Z</time></trkpt><trkpt lat="42.1841512" lon="14.1839119"><ele>622.0</ele><time>2026-05-01T10:12:14.94Z</time></trkpt><trkpt lat="42.1840837" lon="14.1837789"><ele>622.0</ele><time>2026-05-01T10:12:15.934Z</time></trkpt><trkpt lat="42.1840247" lon="14.1836334"><ele>622.0</ele><time>2026-05-01T10:12:16.943Z</time></trkpt><trkpt lat="42.1839635" lon="14.1834879"><ele>620.0</ele><time>2026-05-01T10:12:17.934Z</time></trkpt><trkpt lat="42.1839056" lon="14.1833261"><ele>618.0</ele><time>2026-05-01T10:12:18.933Z</time></trkpt><trkpt lat="42.1838536" lon="14.1831712"><ele>616.0</ele><time>2026-05-01T10:12:19.941Z</time></trkpt><trkpt lat="42.1838104" lon="14.1830197"><ele>614.0</ele><time>2026-05-01T10:12:20.938Z</time></trkpt><trkpt lat="42.1837708" lon="14.1829003"><ele>617.6</ele><time>2026-05-01T10:12:21.935Z</time></trkpt><trkpt lat="42.1837303" lon="14.1827853"><ele>621.2</ele><time>2026-05-01T10:12:22.95Z</time></trkpt><trkpt lat="42.1836851" lon="14.1826735"><ele>624.8000000000001</ele><time>2026-05-01T10:12:23.941Z</time></trkpt><trkpt lat="42.183631" lon="14.1825572"><ele>628.4</ele><time>2026-05-01T10:12:24.94Z</time></trkpt><trkpt lat="42.183564" lon="14.1824435"><ele>632.0</ele><time>2026-05-01T10:12:25.938Z</time></trkpt><trkpt lat="42.1834927" lon="14.1823343"><ele>632.6666666666666</ele><time>2026-05-01T10:12:26.938Z</time></trkpt><trkpt lat="42.183426" lon="14.1822467"><ele>633.3333333333333</ele><time>2026-05-01T10:12:27.943Z</time></trkpt><trkpt lat="42.1833852" lon="14.1821808"><ele>634.0</ele><time>2026-05-01T10:12:28.946Z</time></trkpt><trkpt lat="42.1833484" lon="14.1821031"><ele>634.6666666666666</ele><time>2026-05-01T10:12:30.933Z</time></trkpt><trkpt lat="42.1833041" lon="14.1820258"><ele>635.3333333333334</ele><time>2026-05-01T10:12:32.946Z</time></trkpt><trkpt lat="42.1832264" lon="14.1819419"><ele>636.0</ele><time>2026-05-01T10:12:34.938Z</time></trkpt><trkpt lat="42.1831322" lon="14.1818365"><ele>636.0</ele><time>2026-05-01T10:12:36.945Z</time></trkpt><trkpt lat="42.1830646" lon="14.1817847"><ele>636.0</ele><time>2026-05-01T10:12:37.93Z</time></trkpt><trkpt lat="42.1830006" lon="14.1817152"><ele>636.0</ele><time>2026-05-01T10:12:38.943Z</time></trkpt><trkpt lat="42.1829239" lon="14.1816321"><ele>636.0</ele><time>2026-05-01T10:12:39.942Z</time></trkpt><trkpt lat="42.1828444" lon="14.1815392"><ele>636.0</ele><time>2026-05-01T10:12:40.943Z</time></trkpt><trkpt lat="42.1827591" lon="14.1814476"><ele>638.25</ele><time>2026-05-01T10:12:41.928Z</time></trkpt><trkpt lat="42.1826699" lon="14.1813529"><ele>640.5</ele><time>2026-05-01T10:12:42.948Z</time></trkpt><trkpt lat="42.1825734" lon="14.1812617"><ele>642.75</ele><time>2026-05-01T10:12:43.944Z</time></trkpt><trkpt lat="42.1824674" lon="14.1811852"><ele>645.0</ele><time>2026-05-01T10:12:44.942Z</time></trkpt><trkpt lat="42.1823524" lon="14.1811"><ele>643.5</ele><time>2026-05-01T10:12:45.938Z</time></trkpt><trkpt lat="42.1822315" lon="14.1810158"><ele>642.0</ele><time>2026-05-01T10:12:46.942Z</time></trkpt><trkpt lat="42.1821117" lon="14.1809179"><ele>640.5</ele><time>2026-05-01T10:12:47.933Z</time></trkpt><trkpt lat="42.1819835" lon="14.1808138"><ele>639.0</ele><time>2026-05-01T10:12:48.94Z</time></trkpt><trkpt lat="42.1818581" lon="14.1807049"><ele>645.0</ele><time>2026-05-01T10:12:49.934Z</time></trkpt><trkpt lat="42.1817328" lon="14.1805764"><ele>651.0</ele><time>2026-05-01T10:12:50.94Z</time></trkpt><trkpt lat="42.181608" lon="14.180447"><ele>657.0</ele><time>2026-05-01T10:12:51.942Z</time></trkpt><trkpt lat="42.1814821" lon="14.1803256"><ele>657.0</ele><time>2026-05-01T10:12:52.935Z</time></trkpt><trkpt lat="42.1813655" lon="14.1802151"><ele>657.0</ele><time>2026-05-01T10:12:53.945Z</time></trkpt><trkpt lat="42.1812518" lon="14.1801138"><ele>657.0</ele><time>2026-05-01T10:12:54.931Z</time></trkpt><trkpt lat="42.1811241" lon="14.1800446"><ele>657.0</ele><time>2026-05-01T10:12:55.98Z</time></trkpt><trkpt lat="42.1809894" lon="14.1800132"><ele>657.0</ele><time>2026-05-01T10:12:56.943Z</time></trkpt><trkpt lat="42.1808499" lon="14.1800207"><ele>657.0</ele><time>2026-05-01T10:12:57.932Z</time></trkpt><trkpt lat="42.1807047" lon="14.1800693"><ele>657.0</ele><time>2026-05-01T10:12:58.935Z</time></trkpt><trkpt lat="42.1805726" lon="14.1801303"><ele>657.0</ele><time>2026-05-01T10:12:59.941Z</time></trkpt><trkpt lat="42.1804469" lon="14.1801802"><ele>655.75</ele><time>2026-05-01T10:13:00.934Z</time></trkpt><trkpt lat="42.1803252" lon="14.1802155"><ele>654.5</ele><time>2026-05-01T10:13:01.934Z</time></trkpt><trkpt lat="42.1802167" lon="14.1802211"><ele>653.25</ele><time>2026-05-01T10:13:02.945Z</time></trkpt><trkpt lat="42.1801085" lon="14.1801963"><ele>652.0</ele><time>2026-05-01T10:13:03.939Z</time></trkpt><trkpt lat="42.1799992" lon="14.1801391"><ele>652.0</ele><time>2026-05-01T10:13:04.94Z</time></trkpt><trkpt lat="42.1798918" lon="14.1800538"><ele>652.0</ele><time>2026-05-01T10:13:05.934Z</time></trkpt><trkpt lat="42.1797836" lon="14.1799484"><ele>652.0</ele><time>2026-05-01T10:13:06.935Z</time></trkpt><trkpt lat="42.1796817" lon="14.1798447"><ele>652.0</ele><time>2026-05-01T10:13:07.935Z</time></trkpt><trkpt lat="42.1795851" lon="14.1797325"><ele>656.4000000000001</ele><time>2026-05-01T10:13:08.934Z</time></trkpt><trkpt lat="42.1794924" lon="14.1796328"><ele>660.8000000000001</ele><time>2026-05-01T10:13:09.933Z</time></trkpt><trkpt lat="42.1794048" lon="14.1795602"><ele>665.2</ele><time>2026-05-01T10:13:10.937Z</time></trkpt><trkpt lat="42.1793074" lon="14.1795293"><ele>669.6</ele><time>2026-05-01T10:13:11.962Z</time></trkpt><trkpt lat="42.1791949" lon="14.1795612"><ele>674.0</ele><time>2026-05-01T10:13:12.932Z</time></trkpt><trkpt lat="42.1790844" lon="14.1796525"><ele>671.4000000000001</ele><time>2026-05-01T10:13:13.931Z</time></trkpt><trkpt lat="42.1789838" lon="14.1797204"><ele>668.8</ele><time>2026-05-01T10:13:14.926Z</time></trkpt><trkpt lat="42.1788887" lon="14.1797822"><ele>666.2</ele><time>2026-05-01T10:13:15.932Z</time></trkpt><trkpt lat="42.1788033" lon="14.1798418"><ele>663.5999999999999</ele><time>2026-05-01T10:13:16.936Z</time></trkpt><trkpt lat="42.1787186" lon="14.1799243"><ele>661.0</ele><time>2026-05-01T10:13:17.929Z</time></trkpt><trkpt lat="42.1786633" lon="14.1800173"><ele>660.8333333333334</ele><time>2026-05-01T10:13:18.925Z</time></trkpt><trkpt lat="42.1786324" lon="14.180125"><ele>660.6666666666667</ele><time>2026-05-01T10:13:19.933Z</time></trkpt><trkpt lat="42.1786209" lon="14.180247"><ele>660.5</ele><time>2026-05-01T10:13:20.934Z</time></trkpt><trkpt lat="42.1786208" lon="14.1803504"><ele>660.3333333333334</ele><time>2026-05-01T10:13:21.933Z</time></trkpt><trkpt lat="42.1786332" lon="14.1804502"><ele>660.1666666666666</ele><time>2026-05-01T10:13:22.934Z</time></trkpt><trkpt lat="42.1786581" lon="14.1805505"><ele>660.0</ele><time>2026-05-01T10:13:23.948Z</time></trkpt><trkpt lat="42.1786863" lon="14.1806505"><ele>661.6</ele><time>2026-05-01T10:13:24.935Z</time></trkpt><trkpt lat="42.178716" lon="14.1807636"><ele>663.2</ele><time>2026-05-01T10:13:25.944Z</time></trkpt><trkpt lat="42.1787535" lon="14.1808786"><ele>664.8</ele><time>2026-05-01T10:13:26.927Z</time></trkpt><trkpt lat="42.1787928" lon="14.1810043"><ele>666.4</ele><time>2026-05-01T10:13:27.951Z</time></trkpt><trkpt lat="42.1788386" lon="14.1811373"><ele>668.0</ele><time>2026-05-01T10:13:29Z</time></trkpt><trkpt lat="42.1788881" lon="14.1812786"><ele>668.0</ele><time>2026-05-01T10:13:29.936Z</time></trkpt><trkpt lat="42.1789339" lon="14.1814302"><ele>668.0</ele><time>2026-05-01T10:13:30.941Z</time></trkpt><trkpt lat="42.1789886" lon="14.1815872"><ele>668.0</ele><time>2026-05-01T10:13:31.934Z</time></trkpt><trkpt lat="42.1790439" lon="14.1817658"><ele>668.0</ele><time>2026-05-01T10:13:32.944Z</time></trkpt><trkpt lat="42.1790995" lon="14.1819536"><ele>658.3333333333333</ele><time>2026-05-01T10:13:33.939Z</time></trkpt><trkpt lat="42.1791617" lon="14.1821595"><ele>648.6666666666666</ele><time>2026-05-01T10:13:34.942Z</time></trkpt><trkpt lat="42.1792218" lon="14.1823716"><ele>639.0</ele><time>2026-05-01T10:13:35.943Z</time></trkpt><trkpt lat="42.1792868" lon="14.1825763"><ele>639.0</ele><time>2026-05-01T10:13:36.937Z</time></trkpt><trkpt lat="42.179346" lon="14.1827787"><ele>639.0</ele><time>2026-05-01T10:13:37.931Z</time></trkpt><trkpt lat="42.1794048" lon="14.1829685"><ele>639.0</ele><time>2026-05-01T10:13:38.932Z</time></trkpt><trkpt lat="42.179466" lon="14.183155"><ele>639.75</ele><time>2026-05-01T10:13:39.945Z</time></trkpt><trkpt lat="42.1795283" lon="14.1833295"><ele>640.5</ele><time>2026-05-01T10:13:40.936Z</time></trkpt><trkpt lat="42.1795896" lon="14.1834984"><ele>641.25</ele><time>2026-05-01T10:13:41.927Z</time></trkpt><trkpt lat="42.1796572" lon="14.1836577"><ele>642.0</ele><time>2026-05-01T10:13:42.936Z</time></trkpt><trkpt lat="42.1797201" lon="14.1838089"><ele>642.0</ele><time>2026-05-01T10:13:43.946Z</time></trkpt><trkpt lat="42.1797763" lon="14.1839516"><ele>642.0</ele><time>2026-05-01T10:13:44.939Z</time></trkpt><trkpt lat="42.1798073" lon="14.1841053"><ele>642.0</ele><time>2026-05-01T10:13:45.94Z</time></trkpt><trkpt lat="42.1798218" lon="14.1842777"><ele>642.0</ele><time>2026-05-01T10:13:46.938Z</time></trkpt><trkpt lat="42.1798227" lon="14.1844585"><ele>641.75</ele><time>2026-05-01T10:13:47.941Z</time></trkpt><trkpt lat="42.1798197" lon="14.1846312"><ele>641.5</ele><time>2026-05-01T10:13:48.94Z</time></trkpt><trkpt lat="42.1798204" lon="14.1848022"><ele>641.25</ele><time>2026-05-01T10:13:49.947Z</time></trkpt><trkpt lat="42.1798182" lon="14.1849756"><ele>641.0</ele><time>2026-05-01T10:13:50.934Z</time></trkpt><trkpt lat="42.1798189" lon="14.1851414"><ele>641.0</ele><time>2026-05-01T10:13:51.944Z</time></trkpt><trkpt lat="42.1798183" lon="14.1853227"><ele>641.0</ele><time>2026-05-01T10:13:52.936Z</time></trkpt><trkpt lat="42.1797949" lon="14.1855002"><ele>641.0</ele><time>2026-05-01T10:13:53.939Z</time></trkpt><trkpt lat="42.1797654" lon="14.1856869"><ele>641.0</ele><time>2026-05-01T10:13:54.934Z</time></trkpt><trkpt lat="42.1797246" lon="14.1858676"><ele>637.75</ele><time>2026-05-01T10:13:55.937Z</time></trkpt><trkpt lat="42.1796893" lon="14.1860389"><ele>634.5</ele><time>2026-05-01T10:13:56.938Z</time></trkpt><trkpt lat="42.1796509" lon="14.1862179"><ele>631.25</ele><time>2026-05-01T10:13:57.94Z</time></trkpt><trkpt lat="42.1796129" lon="14.1864056"><ele>628.0</ele><time>2026-05-01T10:13:58.947Z</time></trkpt><trkpt lat="42.1795737" lon="14.1865984"><ele>625.3333333333334</ele><time>2026-05-01T10:13:59.967Z</time></trkpt><trkpt lat="42.1795379" lon="14.1867975"><ele>622.6666666666666</ele><time>2026-05-01T10:14:00.947Z</time></trkpt><trkpt lat="42.1795022" lon="14.1870068"><ele>620.0</ele><time>2026-05-01T10:14:01.931Z</time></trkpt><trkpt lat="42.1794572" lon="14.1872108"><ele>618.0</ele><time>2026-05-01T10:14:02.937Z</time></trkpt><trkpt lat="42.1794045" lon="14.1874053"><ele>616.0</ele><time>2026-05-01T10:14:03.948Z</time></trkpt><trkpt lat="42.1793527" lon="14.1875968"><ele>614.0</ele><time>2026-05-01T10:14:04.94Z</time></trkpt><trkpt lat="42.1793009" lon="14.1877898"><ele>614.0</ele><time>2026-05-01T10:14:05.938Z</time></trkpt><trkpt lat="42.1792592" lon="14.1879702"><ele>614.0</ele><time>2026-05-01T10:14:06.936Z</time></trkpt><trkpt lat="42.1792156" lon="14.1881514"><ele>614.0</ele><time>2026-05-01T10:14:07.948Z</time></trkpt><trkpt lat="42.1791929" lon="14.1883178"><ele>614.0</ele><time>2026-05-01T10:14:08.942Z</time></trkpt><trkpt lat="42.1792029" lon="14.1884764"><ele>613.0</ele><time>2026-05-01T10:14:09.931Z</time></trkpt><trkpt lat="42.1792491" lon="14.18863"><ele>612.0</ele><time>2026-05-01T10:14:10.949Z</time></trkpt><trkpt lat="42.1793162" lon="14.1887613"><ele>611.0</ele><time>2026-05-01T10:14:11.941Z</time></trkpt><trkpt lat="42.1794087" lon="14.1888896"><ele>610.0</ele><time>2026-05-01T10:14:12.934Z</time></trkpt><trkpt lat="42.1795067" lon="14.189016"><ele>608.5</ele><time>2026-05-01T10:14:13.934Z</time></trkpt><trkpt lat="42.179607" lon="14.1891332"><ele>607.0</ele><time>2026-05-01T10:14:14.935Z</time></trkpt><trkpt lat="42.1796934" lon="14.1892484"><ele>605.5</ele><time>2026-05-01T10:14:15.941Z</time></trkpt><trkpt lat="42.1797692" lon="14.1893635"><ele>604.0</ele><time>2026-05-01T10:14:16.98Z</time></trkpt><trkpt lat="42.1798298" lon="14.1894898"><ele>602.8</ele><time>2026-05-01T10:14:17.94Z</time></trkpt><trkpt lat="42.1798586" lon="14.1896171"><ele>601.5999999999999</ele><time>2026-05-01T10:14:18.946Z</time></trkpt><trkpt lat="42.1798523" lon="14.18976"><ele>600.4</ele><time>2026-05-01T10:14:19.939Z</time></trkpt><trkpt lat="42.1798164" lon="14.1898978"><ele>599.1999999999999</ele><time>2026-05-01T10:14:20.936Z</time></trkpt><trkpt lat="42.1797648" lon="14.1900386"><ele>598.0</ele><time>2026-05-01T10:14:21.935Z</time></trkpt><trkpt lat="42.1797071" lon="14.1901533"><ele>597.6</ele><time>2026-05-01T10:14:22.938Z</time></trkpt><trkpt lat="42.1796248" lon="14.1902231"><ele>597.1999999999999</ele><time>2026-05-01T10:14:23.934Z</time></trkpt><trkpt lat="42.1795232" lon="14.1902354"><ele>596.8</ele><time>2026-05-01T10:14:24.938Z</time></trkpt><trkpt lat="42.179442" lon="14.1901824"><ele>596.4</ele><time>2026-05-01T10:14:25.938Z</time></trkpt><trkpt lat="42.1793378" lon="14.1900976"><ele>596.0</ele><time>2026-05-01T10:14:26.936Z</time></trkpt><trkpt lat="42.1792517" lon="14.1899947"><ele>596.0</ele><time>2026-05-01T10:14:27.942Z</time></trkpt><trkpt lat="42.1791374" lon="14.189925"><ele>596.0</ele><time>2026-05-01T10:14:28.934Z</time></trkpt><trkpt lat="42.1790086" lon="14.1898884"><ele>596.0</ele><time>2026-05-01T10:14:29.945Z</time></trkpt><trkpt lat="42.1788865" lon="14.1898582"><ele>596.0</ele><time>2026-05-01T10:14:30.939Z</time></trkpt><trkpt lat="42.1787695" lon="14.1898492"><ele>595.8</ele><time>2026-05-01T10:14:31.932Z</time></trkpt><trkpt lat="42.1786729" lon="14.1898787"><ele>595.6</ele><time>2026-05-01T10:14:32.937Z</time></trkpt><trkpt lat="42.1786065" lon="14.1899535"><ele>595.4</ele><time>2026-05-01T10:14:33.935Z</time></trkpt><trkpt lat="42.1785779" lon="14.190064"><ele>595.2</ele><time>2026-05-01T10:14:34.937Z</time></trkpt><trkpt lat="42.1785994" lon="14.1901852"><ele>595.0</ele><time>2026-05-01T10:14:35.936Z</time></trkpt><trkpt lat="42.1786465" lon="14.1902851"><ele>595.0</ele><time>2026-05-01T10:14:36.941Z</time></trkpt><trkpt lat="42.1787144" lon="14.1903624"><ele>595.0</ele><time>2026-05-01T10:14:37.93Z</time></trkpt><trkpt lat="42.1788072" lon="14.190411"><ele>595.0</ele><time>2026-05-01T10:14:38.941Z</time></trkpt><trkpt lat="42.1789206" lon="14.190471"><ele>595.0</ele><time>2026-05-01T10:14:39.944Z</time></trkpt><trkpt lat="42.179031" lon="14.1905378"><ele>595.0</ele><time>2026-05-01T10:14:40.942Z</time></trkpt><trkpt lat="42.1791663" lon="14.1906177"><ele>591.3333333333334</ele><time>2026-05-01T10:14:41.947Z</time></trkpt><trkpt lat="42.1793108" lon="14.1906849"><ele>587.6666666666666</ele><time>2026-05-01T10:14:42.937Z</time></trkpt><trkpt lat="42.1794601" lon="14.1907476"><ele>584.0</ele><time>2026-05-01T10:14:43.938Z</time></trkpt><trkpt lat="42.1796142" lon="14.1907885"><ele>584.0</ele><time>2026-05-01T10:14:44.934Z</time></trkpt><trkpt lat="42.1797649" lon="14.1908056"><ele>584.0</ele><time>2026-05-01T10:14:45.947Z</time></trkpt><trkpt lat="42.1799122" lon="14.1907957"><ele>584.0</ele><time>2026-05-01T10:14:46.931Z</time></trkpt><trkpt lat="42.1800504" lon="14.190777"><ele>584.0</ele><time>2026-05-01T10:14:47.932Z</time></trkpt><trkpt lat="42.1801738" lon="14.1907552"><ele>583.5</ele><time>2026-05-01T10:14:48.935Z</time></trkpt><trkpt lat="42.1803105" lon="14.1907708"><ele>583.0</ele><time>2026-05-01T10:14:49.938Z</time></trkpt><trkpt lat="42.1804497" lon="14.1908289"><ele>582.5</ele><time>2026-05-01T10:14:50.933Z</time></trkpt><trkpt lat="42.1805543" lon="14.1909209"><ele>582.0</ele><time>2026-05-01T10:14:51.942Z</time></trkpt><trkpt lat="42.1806627" lon="14.1910171"><ele>581.0</ele><time>2026-05-01T10:14:52.934Z</time></trkpt><trkpt lat="42.1807589" lon="14.1910968"><ele>580.0</ele><time>2026-05-01T10:14:53.94Z</time></trkpt><trkpt lat="42.1808705" lon="14.1911204"><ele>579.0</ele><time>2026-05-01T10:14:54.933Z</time></trkpt><trkpt lat="42.1809813" lon="14.1910823"><ele>578.0</ele><time>2026-05-01T10:14:55.944Z</time></trkpt><trkpt lat="42.1810828" lon="14.1909952"><ele>578.0</ele><time>2026-05-01T10:14:56.93Z</time></trkpt><trkpt lat="42.1811596" lon="14.1909176"><ele>578.0</ele><time>2026-05-01T10:14:57.937Z</time></trkpt><trkpt lat="42.1812275" lon="14.190874"><ele>578.0</ele><time>2026-05-01T10:14:58.935Z</time></trkpt><trkpt lat="42.1813082" lon="14.1908723"><ele>578.0</ele><time>2026-05-01T10:14:59.932Z</time></trkpt><trkpt lat="42.1813598" lon="14.1909231"><ele>578.0</ele><time>2026-05-01T10:15:00.94Z</time></trkpt><trkpt lat="42.1813945" lon="14.1910077"><ele>578.0</ele><time>2026-05-01T10:15:01.938Z</time></trkpt><trkpt lat="42.1813849" lon="14.1911102"><ele>578.0</ele><time>2026-05-01T10:15:02.941Z</time></trkpt><trkpt lat="42.181345" lon="14.1912112"><ele>578.0</ele><time>2026-05-01T10:15:03.941Z</time></trkpt><trkpt lat="42.1812729" lon="14.1913076"><ele>578.0</ele><time>2026-05-01T10:15:04.941Z</time></trkpt><trkpt lat="42.1811841" lon="14.1914003"><ele>578.0</ele><time>2026-05-01T10:15:05.935Z</time></trkpt><trkpt lat="42.1810714" lon="14.1914865"><ele>578.0</ele><time>2026-05-01T10:15:06.948Z</time></trkpt><trkpt lat="42.1809396" lon="14.1915629"><ele>575.3333333333333</ele><time>2026-05-01T10:15:07.935Z</time></trkpt><trkpt lat="42.1808032" lon="14.1916374"><ele>572.6666666666666</ele><time>2026-05-01T10:15:08.936Z</time></trkpt><trkpt lat="42.1806609" lon="14.1917313"><ele>570.0</ele><time>2026-05-01T10:15:09.939Z</time></trkpt><trkpt lat="42.1805074" lon="14.191834"><ele>570.0</ele><time>2026-05-01T10:15:10.946Z</time></trkpt><trkpt lat="42.1803527" lon="14.1919449"><ele>570.0</ele><time>2026-05-01T10:15:11.94Z</time></trkpt><trkpt lat="42.1801984" lon="14.1920667"><ele>570.0</ele><time>2026-05-01T10:15:12.945Z</time></trkpt><trkpt lat="42.1800508" lon="14.1921783"><ele>570.0</ele><time>2026-05-01T10:15:13.937Z</time></trkpt><trkpt lat="42.1799042" lon="14.1922911"><ele>570.0</ele><time>2026-05-01T10:15:14.941Z</time></trkpt><trkpt lat="42.1797649" lon="14.1923967"><ele>570.0</ele><time>2026-05-01T10:15:15.931Z</time></trkpt><trkpt lat="42.1796456" lon="14.1924902"><ele>568.0</ele><time>2026-05-01T10:15:16.955Z</time></trkpt><trkpt lat="42.1795365" lon="14.1925821"><ele>566.0</ele><time>2026-05-01T10:15:17.94Z</time></trkpt><trkpt lat="42.1794362" lon="14.1926856"><ele>564.0</ele><time>2026-05-01T10:15:18.953Z</time></trkpt><trkpt lat="42.1793541" lon="14.1928255"><ele>562.0</ele><time>2026-05-01T10:15:19.938Z</time></trkpt><trkpt lat="42.179306" lon="14.1929769"><ele>561.0</ele><time>2026-05-01T10:15:20.934Z</time></trkpt><trkpt lat="42.1792774" lon="14.1931791"><ele>560.0</ele><time>2026-05-01T10:15:21.939Z</time></trkpt><trkpt lat="42.1792629" lon="14.1933751"><ele>559.0</ele><time>2026-05-01T10:15:22.935Z</time></trkpt><trkpt lat="42.1792426" lon="14.1935603"><ele>558.0</ele><time>2026-05-01T10:15:23.938Z</time></trkpt><trkpt lat="42.1792321" lon="14.1937303"><ele>558.0</ele><time>2026-05-01T10:15:24.939Z</time></trkpt><trkpt lat="42.1792545" lon="14.1938908"><ele>558.0</ele><time>2026-05-01T10:15:25.937Z</time></trkpt><trkpt lat="42.1793181" lon="14.1940422"><ele>558.0</ele><time>2026-05-01T10:15:26.938Z</time></trkpt><trkpt lat="42.1794159" lon="14.194165"><ele>558.0</ele><time>2026-05-01T10:15:27.931Z</time></trkpt><trkpt lat="42.1795448" lon="14.1942747"><ele>555.0</ele><time>2026-05-01T10:15:28.931Z</time></trkpt><trkpt lat="42.1796814" lon="14.1943785"><ele>552.0</ele><time>2026-05-01T10:15:30.01Z</time></trkpt><trkpt lat="42.1798118" lon="14.1944912"><ele>549.0</ele><time>2026-05-01T10:15:30.951Z</time></trkpt><trkpt lat="42.1799449" lon="14.1945999"><ele>549.0</ele><time>2026-05-01T10:15:31.95Z</time></trkpt><trkpt lat="42.1800894" lon="14.1947081"><ele>549.0</ele><time>2026-05-01T10:15:32.946Z</time></trkpt><trkpt lat="42.1802437" lon="14.1948078"><ele>549.0</ele><time>2026-05-01T10:15:33.931Z</time></trkpt><trkpt lat="42.1803939" lon="14.1949019"><ele>548.25</ele><time>2026-05-01T10:15:34.946Z</time></trkpt><trkpt lat="42.1805245" lon="14.1949905"><ele>547.5</ele><time>2026-05-01T10:15:35.939Z</time></trkpt><trkpt lat="42.1806612" lon="14.19507"><ele>546.75</ele><time>2026-05-01T10:15:36.936Z</time></trkpt><trkpt lat="42.1807873" lon="14.195169"><ele>546.0</ele><time>2026-05-01T10:15:37.944Z</time></trkpt><trkpt lat="42.1808985" lon="14.1952893"><ele>546.0</ele><time>2026-05-01T10:15:38.941Z</time></trkpt><trkpt lat="42.1810034" lon="14.1954236"><ele>546.0</ele><time>2026-05-01T10:15:39.941Z</time></trkpt><trkpt lat="42.1811039" lon="14.1955627"><ele>546.0</ele><time>2026-05-01T10:15:40.944Z</time></trkpt><trkpt lat="42.1812249" lon="14.1956772"><ele>546.0</ele><time>2026-05-01T10:15:41.942Z</time></trkpt><trkpt lat="42.1813656" lon="14.1957588"><ele>547.0</ele><time>2026-05-01T10:15:42.935Z</time></trkpt><trkpt lat="42.1815108" lon="14.1957902"><ele>548.0</ele><time>2026-05-01T10:15:43.933Z</time></trkpt><trkpt lat="42.1816503" lon="14.19579"><ele>549.0</ele><time>2026-05-01T10:15:44.938Z</time></trkpt><trkpt lat="42.1817885" lon="14.1957619"><ele>550.0</ele><time>2026-05-01T10:15:45.964Z</time></trkpt><trkpt lat="42.1819117" lon="14.1957516"><ele>550.5</ele><time>2026-05-01T10:15:46.944Z</time></trkpt><trkpt lat="42.1820425" lon="14.1957607"><ele>551.0</ele><time>2026-05-01T10:15:47.939Z</time></trkpt><trkpt lat="42.182171" lon="14.195822"><ele>551.5</ele><time>2026-05-01T10:15:48.944Z</time></trkpt><trkpt lat="42.1822981" lon="14.1959161"><ele>552.0</ele><time>2026-05-01T10:15:49.934Z</time></trkpt><trkpt lat="42.1824294" lon="14.196013"><ele>552.0</ele><time>2026-05-01T10:15:50.938Z</time></trkpt><trkpt lat="42.1825654" lon="14.1961064"><ele>552.0</ele><time>2026-05-01T10:15:51.943Z</time></trkpt><trkpt lat="42.1827048" lon="14.1962014"><ele>552.0</ele><time>2026-05-01T10:15:52.949Z</time></trkpt><trkpt lat="42.1828524" lon="14.1963003"><ele>552.0</ele><time>2026-05-01T10:15:53.948Z</time></trkpt><trkpt lat="42.1830083" lon="14.1964084"><ele>552.0</ele><time>2026-05-01T10:15:54.947Z</time></trkpt><trkpt lat="42.1831456" lon="14.196503"><ele>552.0</ele><time>2026-05-01T10:15:55.939Z</time></trkpt><trkpt lat="42.1832751" lon="14.1965922"><ele>553.5</ele><time>2026-05-01T10:15:56.937Z</time></trkpt><trkpt lat="42.1833927" lon="14.1966796"><ele>555.0</ele><time>2026-05-01T10:15:57.943Z</time></trkpt><trkpt lat="42.1834916" lon="14.1967731"><ele>556.5</ele><time>2026-05-01T10:15:58.947Z</time></trkpt><trkpt lat="42.183574" lon="14.196894"><ele>558.0</ele><time>2026-05-01T10:15:59.932Z</time></trkpt><trkpt lat="42.1836422" lon="14.1970324"><ele>558.0</ele><time>2026-05-01T10:16:00.941Z</time></trkpt><trkpt lat="42.1837002" lon="14.1971853"><ele>558.0</ele><time>2026-05-01T10:16:01.944Z</time></trkpt><trkpt lat="42.1837486" lon="14.1973661"><ele>558.0</ele><time>2026-05-01T10:16:02.938Z</time></trkpt><trkpt lat="42.1837855" lon="14.1975529"><ele>558.0</ele><time>2026-05-01T10:16:03.979Z</time></trkpt><trkpt lat="42.183839" lon="14.1977146"><ele>558.25</ele><time>2026-05-01T10:16:04.934Z</time></trkpt><trkpt lat="42.183912" lon="14.1978692"><ele>558.5</ele><time>2026-05-01T10:16:05.942Z</time></trkpt><trkpt lat="42.1840015" lon="14.1980037"><ele>558.75</ele><time>2026-05-01T10:16:06.956Z</time></trkpt><trkpt lat="42.1841085" lon="14.1981044"><ele>559.0</ele><time>2026-05-01T10:16:07.939Z</time></trkpt><trkpt lat="42.1842198" lon="14.1982075"><ele>559.0</ele><time>2026-05-01T10:16:08.942Z</time></trkpt><trkpt lat="42.1843304" lon="14.1983077"><ele>559.0</ele><time>2026-05-01T10:16:09.956Z</time></trkpt><trkpt lat="42.1844295" lon="14.1984206"><ele>559.0</ele><time>2026-05-01T10:16:10.943Z</time></trkpt><trkpt lat="42.1845118" lon="14.1985494"><ele>559.0</ele><time>2026-05-01T10:16:11.947Z</time></trkpt><trkpt lat="42.1845729" lon="14.1987006"><ele>559.0</ele><time>2026-05-01T10:16:12.945Z</time></trkpt><trkpt lat="42.1846331" lon="14.198862"><ele>559.0</ele><time>2026-05-01T10:16:13.948Z</time></trkpt><trkpt lat="42.1847006" lon="14.1990148"><ele>559.0</ele><time>2026-05-01T10:16:14.949Z</time></trkpt><trkpt lat="42.1848005" lon="14.1991501"><ele>559.0</ele><time>2026-05-01T10:16:15.94Z</time></trkpt><trkpt lat="42.1849264" lon="14.1992513"><ele>558.3333333333334</ele><time>2026-05-01T10:16:16.945Z</time></trkpt><trkpt lat="42.1850721" lon="14.1993306"><ele>557.6666666666666</ele><time>2026-05-01T10:16:17.933Z</time></trkpt><trkpt lat="42.185223" lon="14.1994068"><ele>557.0</ele><time>2026-05-01T10:16:18.934Z</time></trkpt><trkpt lat="42.1853751" lon="14.1994811"><ele>557.0</ele><time>2026-05-01T10:16:19.938Z</time></trkpt><trkpt lat="42.1855143" lon="14.199553"><ele>557.0</ele><time>2026-05-01T10:16:20.972Z</time></trkpt><trkpt lat="42.1856349" lon="14.1996196"><ele>557.0</ele><time>2026-05-01T10:16:21.932Z</time></trkpt><trkpt lat="42.1857466" lon="14.1996975"><ele>557.0</ele><time>2026-05-01T10:16:22.935Z</time></trkpt><trkpt lat="42.1858412" lon="14.1998085"><ele>555.5</ele><time>2026-05-01T10:16:23.944Z</time></trkpt><trkpt lat="42.1859151" lon="14.1999478"><ele>554.0</ele><time>2026-05-01T10:16:24.94Z</time></trkpt><trkpt lat="42.1859717" lon="14.2001092"><ele>552.5</ele><time>2026-05-01T10:16:25.947Z</time></trkpt><trkpt lat="42.1860079" lon="14.2002927"><ele>551.0</ele><time>2026-05-01T10:16:26.942Z</time></trkpt><trkpt lat="42.1860334" lon="14.2004874"><ele>549.75</ele><time>2026-05-01T10:16:27.944Z</time></trkpt><trkpt lat="42.1860577" lon="14.2006817"><ele>548.5</ele><time>2026-05-01T10:16:28.938Z</time></trkpt><trkpt lat="42.1860891" lon="14.200881"><ele>547.25</ele><time>2026-05-01T10:16:29.949Z</time></trkpt><trkpt lat="42.1861291" lon="14.2010768"><ele>546.0</ele><time>2026-05-01T10:16:30.937Z</time></trkpt><trkpt lat="42.1861749" lon="14.2012672"><ele>546.0</ele><time>2026-05-01T10:16:31.933Z</time></trkpt><trkpt lat="42.1862354" lon="14.2014555"><ele>546.0</ele><time>2026-05-01T10:16:32.949Z</time></trkpt><trkpt lat="42.1863209" lon="14.2016303"><ele>546.0</ele><time>2026-05-01T10:16:33.936Z</time></trkpt><trkpt lat="42.1864316" lon="14.2017938"><ele>545.3333333333334</ele><time>2026-05-01T10:16:34.935Z</time></trkpt><trkpt lat="42.1865572" lon="14.2019557"><ele>544.6666666666667</ele><time>2026-05-01T10:16:35.942Z</time></trkpt><trkpt lat="42.1866856" lon="14.2021091"><ele>544.0</ele><time>2026-05-01T10:16:36.959Z</time></trkpt><trkpt lat="42.186802" lon="14.2022343"><ele>544.0</ele><time>2026-05-01T10:16:37.957Z</time></trkpt><trkpt lat="42.1869171" lon="14.2023238"><ele>544.0</ele><time>2026-05-01T10:16:38.947Z</time></trkpt><trkpt lat="42.1870399" lon="14.2024688"><ele>544.0</ele><time>2026-05-01T10:16:39.94Z</time></trkpt><trkpt lat="42.1871598" lon="14.20263"><ele>544.0</ele><time>2026-05-01T10:16:40.946Z</time></trkpt><trkpt lat="42.187278" lon="14.2027941"><ele>544.0</ele><time>2026-05-01T10:16:41.944Z</time></trkpt><trkpt lat="42.1873991" lon="14.202957"><ele>544.0</ele><time>2026-05-01T10:16:42.935Z</time></trkpt><trkpt lat="42.1875203" lon="14.2031188"><ele>545.3333333333334</ele><time>2026-05-01T10:16:43.956Z</time></trkpt><trkpt lat="42.1876445" lon="14.2032772"><ele>546.6666666666666</ele><time>2026-05-01T10:16:44.944Z</time></trkpt><trkpt lat="42.187768" lon="14.2034252"><ele>548.0</ele><time>2026-05-01T10:16:45.945Z</time></trkpt><trkpt lat="42.1878854" lon="14.2035718"><ele>548.0</ele><time>2026-05-01T10:16:46.942Z</time></trkpt><trkpt lat="42.1880049" lon="14.2037151"><ele>548.0</ele><time>2026-05-01T10:16:47.948Z</time></trkpt><trkpt lat="42.1881162" lon="14.2038567"><ele>548.0</ele><time>2026-05-01T10:16:48.944Z</time></trkpt><trkpt lat="42.1882294" lon="14.203989"><ele>549.5</ele><time>2026-05-01T10:16:49.94Z</time></trkpt><trkpt lat="42.1883346" lon="14.2041148"><ele>551.0</ele><time>2026-05-01T10:16:50.935Z</time></trkpt><trkpt lat="42.1884214" lon="14.2042576"><ele>552.5</ele><time>2026-05-01T10:16:51.941Z</time></trkpt><trkpt lat="42.1884978" lon="14.2044171"><ele>554.0</ele><time>2026-05-01T10:16:52.938Z</time></trkpt><trkpt lat="42.1885635" lon="14.2045908"><ele>554.0</ele><time>2026-05-01T10:16:53.95Z</time></trkpt><trkpt lat="42.1886215" lon="14.2047639"><ele>554.0</ele><time>2026-05-01T10:16:54.946Z</time></trkpt><trkpt lat="42.1886815" lon="14.2049451"><ele>554.0</ele><time>2026-05-01T10:16:55.933Z</time></trkpt><trkpt lat="42.1887401" lon="14.2051361"><ele>554.0</ele><time>2026-05-01T10:16:56.935Z</time></trkpt><trkpt lat="42.1888" lon="14.2053287"><ele>554.5</ele><time>2026-05-01T10:16:57.944Z</time></trkpt><trkpt lat="42.1888592" lon="14.205505"><ele>555.0</ele><time>2026-05-01T10:16:58.948Z</time></trkpt><trkpt lat="42.1889246" lon="14.205657"><ele>555.5</ele><time>2026-05-01T10:16:59.937Z</time></trkpt><trkpt lat="42.1890159" lon="14.2057885"><ele>556.0</ele><time>2026-05-01T10:17:00.932Z</time></trkpt><trkpt lat="42.1891342" lon="14.205879"><ele>556.0</ele><time>2026-05-01T10:17:01.938Z</time></trkpt><trkpt lat="42.1892575" lon="14.2059492"><ele>556.0</ele><time>2026-05-01T10:17:02.942Z</time></trkpt><trkpt lat="42.1893782" lon="14.2060401"><ele>556.0</ele><time>2026-05-01T10:17:03.943Z</time></trkpt><trkpt lat="42.1894763" lon="14.2061643"><ele>556.0</ele><time>2026-05-01T10:17:04.937Z</time></trkpt><trkpt lat="42.1895549" lon="14.2063112"><ele>556.0</ele><time>2026-05-01T10:17:05.938Z</time></trkpt><trkpt lat="42.1896194" lon="14.2064762"><ele>556.0</ele><time>2026-05-01T10:17:06.939Z</time></trkpt><trkpt lat="42.1896754" lon="14.2066517"><ele>556.0</ele><time>2026-05-01T10:17:07.939Z</time></trkpt><trkpt lat="42.1897326" lon="14.2068058"><ele>556.0</ele><time>2026-05-01T10:17:08.946Z</time></trkpt><trkpt lat="42.1897803" lon="14.2069435"><ele>558.25</ele><time>2026-05-01T10:17:09.937Z</time></trkpt><trkpt lat="42.1898154" lon="14.2070802"><ele>560.5</ele><time>2026-05-01T10:17:10.943Z</time></trkpt><trkpt lat="42.189827" lon="14.2072341"><ele>562.75</ele><time>2026-05-01T10:17:11.935Z</time></trkpt><trkpt lat="42.1898185" lon="14.2073889"><ele>565.0</ele><time>2026-05-01T10:17:12.935Z</time></trkpt><trkpt lat="42.1897908" lon="14.2075437"><ele>566.25</ele><time>2026-05-01T10:17:13.941Z</time></trkpt><trkpt lat="42.1897458" lon="14.2076952"><ele>567.5</ele><time>2026-05-01T10:17:14.937Z</time></trkpt><trkpt lat="42.1896869" lon="14.2078543"><ele>568.75</ele><time>2026-05-01T10:17:15.943Z</time></trkpt><trkpt lat="42.189628" lon="14.2080314"><ele>570.0</ele><time>2026-05-01T10:17:16.942Z</time></trkpt><trkpt lat="42.1895716" lon="14.2082146"><ele>570.3333333333334</ele><time>2026-05-01T10:17:17.945Z</time></trkpt><trkpt lat="42.1895101" lon="14.2083978"><ele>570.6666666666667</ele><time>2026-05-01T10:17:18.937Z</time></trkpt><trkpt lat="42.1894474" lon="14.2085899"><ele>571.0</ele><time>2026-05-01T10:17:19.936Z</time></trkpt><trkpt lat="42.1893847" lon="14.2087823"><ele>571.0</ele><time>2026-05-01T10:17:20.939Z</time></trkpt><trkpt lat="42.189324" lon="14.2089676"><ele>571.0</ele><time>2026-05-01T10:17:21.943Z</time></trkpt><trkpt lat="42.1892641" lon="14.2091291"><ele>571.0</ele><time>2026-05-01T10:17:22.946Z</time></trkpt><trkpt lat="42.1892095" lon="14.2092846"><ele>571.0</ele><time>2026-05-01T10:17:23.945Z</time></trkpt><trkpt lat="42.1891514" lon="14.2094465"><ele>570.0</ele><time>2026-05-01T10:17:24.934Z</time></trkpt><trkpt lat="42.1890788" lon="14.2096038"><ele>569.0</ele><time>2026-05-01T10:17:25.981Z</time></trkpt><trkpt lat="42.188989" lon="14.209748"><ele>568.0</ele><time>2026-05-01T10:17:26.934Z</time></trkpt><trkpt lat="42.1888863" lon="14.2098843"><ele>567.0</ele><time>2026-05-01T10:17:27.938Z</time></trkpt><trkpt lat="42.1887745" lon="14.2100199"><ele>569.6666666666666</ele><time>2026-05-01T10:17:28.938Z</time></trkpt><trkpt lat="42.1886633" lon="14.2101581"><ele>572.3333333333333</ele><time>2026-05-01T10:17:29.936Z</time></trkpt><trkpt lat="42.1885485" lon="14.2102998"><ele>575.0</ele><time>2026-05-01T10:17:30.934Z</time></trkpt><trkpt lat="42.1884315" lon="14.210447"><ele>575.0</ele><time>2026-05-01T10:17:31.938Z</time></trkpt><trkpt lat="42.1883165" lon="14.2105923"><ele>575.0</ele><time>2026-05-01T10:17:32.943Z</time></trkpt><trkpt lat="42.188206" lon="14.2107337"><ele>575.0</ele><time>2026-05-01T10:17:33.936Z</time></trkpt><trkpt lat="42.1880956" lon="14.210874"><ele>575.5</ele><time>2026-05-01T10:17:34.943Z</time></trkpt><trkpt lat="42.1879888" lon="14.2110146"><ele>576.0</ele><time>2026-05-01T10:17:35.937Z</time></trkpt><trkpt lat="42.1878806" lon="14.2111529"><ele>576.5</ele><time>2026-05-01T10:17:36.948Z</time></trkpt><trkpt lat="42.1877706" lon="14.2112804"><ele>577.0</ele><time>2026-05-01T10:17:37.945Z</time></trkpt><trkpt lat="42.1876556" lon="14.2113943"><ele>576.75</ele><time>2026-05-01T10:17:38.934Z</time></trkpt><trkpt lat="42.1875414" lon="14.2115055"><ele>576.5</ele><time>2026-05-01T10:17:39.943Z</time></trkpt><trkpt lat="42.1874366" lon="14.2116012"><ele>576.25</ele><time>2026-05-01T10:17:40.934Z</time></trkpt><trkpt lat="42.1873368" lon="14.2116835"><ele>576.0</ele><time>2026-05-01T10:17:41.947Z</time></trkpt><trkpt lat="42.1872437" lon="14.2117567"><ele>576.0</ele><time>2026-05-01T10:17:42.94Z</time></trkpt><trkpt lat="42.1871494" lon="14.2118352"><ele>576.0</ele><time>2026-05-01T10:17:43.94Z</time></trkpt><trkpt lat="42.1870586" lon="14.2119132"><ele>576.0</ele><time>2026-05-01T10:17:44.946Z</time></trkpt><trkpt lat="42.1869748" lon="14.2119868"><ele>576.0</ele><time>2026-05-01T10:17:45.941Z</time></trkpt><trkpt lat="42.1869038" lon="14.2120412"><ele>576.0</ele><time>2026-05-01T10:17:46.947Z</time></trkpt><trkpt lat="42.1868178" lon="14.2121253"><ele>576.0</ele><time>2026-05-01T10:17:48.935Z</time></trkpt><trkpt lat="42.1867302" lon="14.2121921"><ele>576.0</ele><time>2026-05-01T10:17:50.952Z</time></trkpt><trkpt lat="42.1866205" lon="14.2122892"><ele>576.0</ele><time>2026-05-01T10:17:52.986Z</time></trkpt><trkpt lat="42.1865498" lon="14.2123581"><ele>576.0</ele><time>2026-05-01T10:17:53.931Z</time></trkpt><trkpt lat="42.1864742" lon="14.2124491"><ele>576.0</ele><time>2026-05-01T10:17:54.943Z</time></trkpt><trkpt lat="42.1864059" lon="14.2125651"><ele>575.25</ele><time>2026-05-01T10:17:55.945Z</time></trkpt><trkpt lat="42.1863485" lon="14.2127051"><ele>574.5</ele><time>2026-05-01T10:17:56.939Z</time></trkpt><trkpt lat="42.1863081" lon="14.212878"><ele>573.75</ele><time>2026-05-01T10:17:57.944Z</time></trkpt><trkpt lat="42.1862909" lon="14.2130661"><ele>573.0</ele><time>2026-05-01T10:17:58.935Z</time></trkpt><trkpt lat="42.1862892" lon="14.2132621"><ele>571.6666666666666</ele><time>2026-05-01T10:17:59.947Z</time></trkpt><trkpt lat="42.1862954" lon="14.2134632"><ele>570.3333333333333</ele><time>2026-05-01T10:18:00.937Z</time></trkpt><trkpt lat="42.1863143" lon="14.2136707"><ele>569.0</ele><time>2026-05-01T10:18:01.937Z</time></trkpt><trkpt lat="42.1863285" lon="14.213868"><ele>568.25</ele><time>2026-05-01T10:18:02.942Z</time></trkpt><trkpt lat="42.1863476" lon="14.2140517"><ele>567.5</ele><time>2026-05-01T10:18:03.946Z</time></trkpt><trkpt lat="42.1863669" lon="14.2142362"><ele>566.75</ele><time>2026-05-01T10:18:04.936Z</time></trkpt><trkpt lat="42.1863902" lon="14.2144216"><ele>566.0</ele><time>2026-05-01T10:18:05.948Z</time></trkpt><trkpt lat="42.1864131" lon="14.2146064"><ele>566.0</ele><time>2026-05-01T10:18:06.931Z</time></trkpt><trkpt lat="42.1864295" lon="14.214801"><ele>566.0</ele><time>2026-05-01T10:18:07.931Z</time></trkpt><trkpt lat="42.1864401" lon="14.2149874"><ele>566.0</ele><time>2026-05-01T10:18:08.932Z</time></trkpt><trkpt lat="42.1864556" lon="14.2151609"><ele>566.0</ele><time>2026-05-01T10:18:09.938Z</time></trkpt><trkpt lat="42.1864687" lon="14.215324"><ele>564.2</ele><time>2026-05-01T10:18:10.966Z</time></trkpt><trkpt lat="42.186476" lon="14.2154869"><ele>562.4000000000001</ele><time>2026-05-01T10:18:11.947Z</time></trkpt><trkpt lat="42.1864852" lon="14.2156479"><ele>560.6</ele><time>2026-05-01T10:18:12.943Z</time></trkpt><trkpt lat="42.1864771" lon="14.2157836"><ele>558.8000000000001</ele><time>2026-05-01T10:18:13.947Z</time></trkpt><trkpt lat="42.1864816" lon="14.2159225"><ele>557.0</ele><time>2026-05-01T10:18:14.953Z</time></trkpt><trkpt lat="42.186501" lon="14.2160664"><ele>557.5</ele><time>2026-05-01T10:18:15.938Z</time></trkpt><trkpt lat="42.1865294" lon="14.2162175"><ele>558.0</ele><time>2026-05-01T10:18:16.948Z</time></trkpt><trkpt lat="42.1865611" lon="14.2163679"><ele>558.5</ele><time>2026-05-01T10:18:17.94Z</time></trkpt><trkpt lat="42.1866016" lon="14.2165233"><ele>559.0</ele><time>2026-05-01T10:18:18.941Z</time></trkpt><trkpt lat="42.1866434" lon="14.2166689"><ele>559.0</ele><time>2026-05-01T10:18:19.937Z</time></trkpt><trkpt lat="42.1866751" lon="14.2168027"><ele>559.0</ele><time>2026-05-01T10:18:20.939Z</time></trkpt><trkpt lat="42.1867132" lon="14.2169356"><ele>559.0</ele><time>2026-05-01T10:18:21.946Z</time></trkpt><trkpt lat="42.1867431" lon="14.2170605"><ele>559.0</ele><time>2026-05-01T10:18:22.94Z</time></trkpt><trkpt lat="42.1867757" lon="14.2171801"><ele>559.0</ele><time>2026-05-01T10:18:23.945Z</time></trkpt><trkpt lat="42.1868191" lon="14.2172915"><ele>558.2</ele><time>2026-05-01T10:18:24.94Z</time></trkpt><trkpt lat="42.1868556" lon="14.2173864"><ele>557.4</ele><time>2026-05-01T10:18:25.944Z</time></trkpt><trkpt lat="42.1869053" lon="14.2174835"><ele>556.6</ele><time>2026-05-01T10:18:26.946Z</time></trkpt><trkpt lat="42.1869763" lon="14.2175723"><ele>555.8</ele><time>2026-05-01T10:18:27.946Z</time></trkpt><trkpt lat="42.1870579" lon="14.2176313"><ele>555.0</ele><time>2026-05-01T10:18:28.956Z</time></trkpt><trkpt lat="42.1871521" lon="14.2176656"><ele>555.0</ele><time>2026-05-01T10:18:29.948Z</time></trkpt><trkpt lat="42.1872509" lon="14.2177113"><ele>555.0</ele><time>2026-05-01T10:18:30.951Z</time></trkpt><trkpt lat="42.1873513" lon="14.2177511"><ele>555.0</ele><time>2026-05-01T10:18:31.947Z</time></trkpt><trkpt lat="42.1874562" lon="14.217794"><ele>555.0</ele><time>2026-05-01T10:18:32.954Z</time></trkpt><trkpt lat="42.1875567" lon="14.2178463"><ele>555.0</ele><time>2026-05-01T10:18:33.949Z</time></trkpt><trkpt lat="42.1876533" lon="14.217885"><ele>556.0</ele><time>2026-05-01T10:18:34.951Z</time></trkpt><trkpt lat="42.1877457" lon="14.2179285"><ele>557.0</ele><time>2026-05-01T10:18:35.955Z</time></trkpt><trkpt lat="42.1878256" lon="14.2179814"><ele>558.0</ele><time>2026-05-01T10:18:36.946Z</time></trkpt><trkpt lat="42.1878935" lon="14.2180385"><ele>559.0</ele><time>2026-05-01T10:18:37.965Z</time></trkpt><trkpt lat="42.1879552" lon="14.2180906"><ele>560.0</ele><time>2026-05-01T10:18:38.948Z</time></trkpt><trkpt lat="42.1880404" lon="14.2181184"><ele>561.0</ele><time>2026-05-01T10:18:39.929Z</time></trkpt><trkpt lat="42.1881178" lon="14.2181594"><ele>562.8</ele><time>2026-05-01T10:18:40.946Z</time></trkpt><trkpt lat="42.1881931" lon="14.218197"><ele>564.6</ele><time>2026-05-01T10:18:41.932Z</time></trkpt><trkpt lat="42.1882835" lon="14.2182441"><ele>566.4</ele><time>2026-05-01T10:18:42.95Z</time></trkpt><trkpt lat="42.1883744" lon="14.2182933"><ele>568.2</ele><time>2026-05-01T10:18:43.929Z</time></trkpt><trkpt lat="42.1884711" lon="14.2183495"><ele>570.0</ele><time>2026-05-01T10:18:44.943Z</time></trkpt><trkpt lat="42.1885697" lon="14.2184059"><ele>570.0</ele><time>2026-05-01T10:18:45.946Z</time></trkpt><trkpt lat="42.1886719" lon="14.2184739"><ele>570.0</ele><time>2026-05-01T10:18:46.937Z</time></trkpt><trkpt lat="42.1887609" lon="14.2185415"><ele>570.0</ele><time>2026-05-01T10:18:47.937Z</time></trkpt><trkpt lat="42.188851" lon="14.2186198"><ele>570.0</ele><time>2026-05-01T10:18:48.942Z</time></trkpt><trkpt lat="42.1889353" lon="14.218711"><ele>570.0</ele><time>2026-05-01T10:18:49.941Z</time></trkpt><trkpt lat="42.1890117" lon="14.2188088"><ele>569.5</ele><time>2026-05-01T10:18:50.951Z</time></trkpt><trkpt lat="42.1890836" lon="14.218906"><ele>569.0</ele><time>2026-05-01T10:18:51.942Z</time></trkpt><trkpt lat="42.189139" lon="14.2189965"><ele>568.5</ele><time>2026-05-01T10:18:52.94Z</time></trkpt><trkpt lat="42.1891907" lon="14.2190837"><ele>568.0</ele><time>2026-05-01T10:18:53.94Z</time></trkpt><trkpt lat="42.1892414" lon="14.2191693"><ele>567.5</ele><time>2026-05-01T10:18:54.946Z</time></trkpt><trkpt lat="42.1892937" lon="14.2192675"><ele>567.0</ele><time>2026-05-01T10:18:55.935Z</time></trkpt><trkpt lat="42.1893551" lon="14.2193648"><ele>567.0</ele><time>2026-05-01T10:18:56.94Z</time></trkpt><trkpt lat="42.1894188" lon="14.2194671"><ele>567.0</ele><time>2026-05-01T10:18:57.936Z</time></trkpt><trkpt lat="42.1894846" lon="14.2195638"><ele>567.0</ele><time>2026-05-01T10:18:58.932Z</time></trkpt><trkpt lat="42.1895523" lon="14.2196567"><ele>567.0</ele><time>2026-05-01T10:18:59.938Z</time></trkpt><trkpt lat="42.189625" lon="14.2197394"><ele>567.0</ele><time>2026-05-01T10:19:00.938Z</time></trkpt><trkpt lat="42.1896823" lon="14.2198225"><ele>567.6666666666666</ele><time>2026-05-01T10:19:01.939Z</time></trkpt><trkpt lat="42.1897428" lon="14.2198897"><ele>568.3333333333334</ele><time>2026-05-01T10:19:02.931Z</time></trkpt><trkpt lat="42.1898143" lon="14.2199419"><ele>569.0</ele><time>2026-05-01T10:19:03.937Z</time></trkpt><trkpt lat="42.1899017" lon="14.2199643"><ele>569.6666666666667</ele><time>2026-05-01T10:19:04.938Z</time></trkpt><trkpt lat="42.1899777" lon="14.2199653"><ele>570.3333333333334</ele><time>2026-05-01T10:19:05.937Z</time></trkpt><trkpt lat="42.1900626" lon="14.2199232"><ele>571.0</ele><time>2026-05-01T10:19:06.939Z</time></trkpt><trkpt lat="42.1901324" lon="14.2198882"><ele>571.0</ele><time>2026-05-01T10:19:07.936Z</time></trkpt><trkpt lat="42.1902038" lon="14.2198577"><ele>571.0</ele><time>2026-05-01T10:19:08.939Z</time></trkpt><trkpt lat="42.19027" lon="14.2198189"><ele>571.0</ele><time>2026-05-01T10:19:09.933Z</time></trkpt><trkpt lat="42.190339" lon="14.2197821"><ele>571.0</ele><time>2026-05-01T10:19:10.933Z</time></trkpt><trkpt lat="42.1904224" lon="14.2197388"><ele>571.0</ele><time>2026-05-01T10:19:11.939Z</time></trkpt><trkpt lat="42.190509" lon="14.2197124"><ele>571.0</ele><time>2026-05-01T10:19:12.941Z</time></trkpt><trkpt lat="42.1906052" lon="14.2196966"><ele>567.4</ele><time>2026-05-01T10:19:13.94Z</time></trkpt><trkpt lat="42.1907049" lon="14.2196966"><ele>563.8</ele><time>2026-05-01T10:19:14.932Z</time></trkpt><trkpt lat="42.1908006" lon="14.2197002"><ele>560.1999999999999</ele><time>2026-05-01T10:19:15.929Z</time></trkpt><trkpt lat="42.1908842" lon="14.2196971"><ele>556.6</ele><time>2026-05-01T10:19:16.936Z</time></trkpt><trkpt lat="42.1909703" lon="14.2197212"><ele>553.0</ele><time>2026-05-01T10:19:17.938Z</time></trkpt><trkpt lat="42.1910587" lon="14.2197344"><ele>553.0</ele><time>2026-05-01T10:19:18.938Z</time></trkpt><trkpt lat="42.1911555" lon="14.2197437"><ele>553.0</ele><time>2026-05-01T10:19:19.939Z</time></trkpt><trkpt lat="42.1912499" lon="14.2197498"><ele>553.0</ele><time>2026-05-01T10:19:20.938Z</time></trkpt><trkpt lat="42.1913452" lon="14.2197553"><ele>553.0</ele><time>2026-05-01T10:19:21.94Z</time></trkpt><trkpt lat="42.1914403" lon="14.2197678"><ele>553.0</ele><time>2026-05-01T10:19:22.944Z</time></trkpt><trkpt lat="42.191537" lon="14.2197862"><ele>552.3333333333334</ele><time>2026-05-01T10:19:23.943Z</time></trkpt><trkpt lat="42.1916292" lon="14.2197955"><ele>551.6666666666667</ele><time>2026-05-01T10:19:24.94Z</time></trkpt><trkpt lat="42.1917117" lon="14.2198047"><ele>551.0</ele><time>2026-05-01T10:19:25.935Z</time></trkpt><trkpt lat="42.1917834" lon="14.2198138"><ele>550.3333333333334</ele><time>2026-05-01T10:19:26.934Z</time></trkpt><trkpt lat="42.1918502" lon="14.2198195"><ele>549.6666666666666</ele><time>2026-05-01T10:19:27.931Z</time></trkpt><trkpt lat="42.1919711" lon="14.2198124"><ele>549.0</ele><time>2026-05-01T10:19:29.932Z</time></trkpt><trkpt lat="42.1920927" lon="14.2198172"><ele>551.2</ele><time>2026-05-01T10:19:31.932Z</time></trkpt><trkpt lat="42.1922242" lon="14.2198281"><ele>553.4</ele><time>2026-05-01T10:19:33.933Z</time></trkpt><trkpt lat="42.192301" lon="14.2198506"><ele>555.6</ele><time>2026-05-01T10:19:34.937Z</time></trkpt><trkpt lat="42.1923821" lon="14.2198813"><ele>557.8</ele><time>2026-05-01T10:19:35.932Z</time></trkpt><trkpt lat="42.1924691" lon="14.2199084"><ele>560.0</ele><time>2026-05-01T10:19:36.938Z</time></trkpt><trkpt lat="42.1925472" lon="14.219938"><ele>560.0</ele><time>2026-05-01T10:19:37.966Z</time></trkpt><trkpt lat="42.1926329" lon="14.2199736"><ele>560.0</ele><time>2026-05-01T10:19:38.928Z</time></trkpt><trkpt lat="42.1927096" lon="14.220011"><ele>560.0</ele><time>2026-05-01T10:19:39.936Z</time></trkpt><trkpt lat="42.1927902" lon="14.2200635"><ele>560.0</ele><time>2026-05-01T10:19:40.942Z</time></trkpt><trkpt lat="42.1928592" lon="14.2201175"><ele>560.0</ele><time>2026-05-01T10:19:41.934Z</time></trkpt><trkpt lat="42.1929194" lon="14.2201791"><ele>560.0</ele><time>2026-05-01T10:19:42.937Z</time></trkpt><trkpt lat="42.1929735" lon="14.2202369"><ele>560.0</ele><time>2026-05-01T10:19:43.934Z</time></trkpt><trkpt lat="42.193028" lon="14.2202888"><ele>560.0</ele><time>2026-05-01T10:19:44.941Z</time></trkpt><trkpt lat="42.1931251" lon="14.2203887"><ele>560.0</ele><time>2026-05-01T10:19:46.939Z</time></trkpt><trkpt lat="42.1931882" lon="14.2204281"><ele>560.0</ele><time>2026-05-01T10:19:47.937Z</time></trkpt><trkpt lat="42.1932502" lon="14.2204627"><ele>560.0</ele><time>2026-05-01T10:19:48.934Z</time></trkpt><trkpt lat="42.1933349" lon="14.2205191"><ele>560.0</ele><time>2026-05-01T10:19:50.925Z</time></trkpt><trkpt lat="42.1933557" lon="14.2206313"><ele>559.3333333333333</ele><time>2026-05-01T10:19:55.935Z</time></trkpt><trkpt lat="42.1933243" lon="14.220759"><ele>558.6666666666666</ele><time>2026-05-01T10:19:57.962Z</time></trkpt><trkpt lat="42.1933145" lon="14.2208492"><ele>558.0</ele><time>2026-05-01T10:19:58.933Z</time></trkpt><trkpt lat="42.1932963" lon="14.2209539"><ele>557.3333333333334</ele><time>2026-05-01T10:19:59.943Z</time></trkpt><trkpt lat="42.1932713" lon="14.221076"><ele>556.6666666666667</ele><time>2026-05-01T10:20:00.943Z</time></trkpt><trkpt lat="42.1932389" lon="14.2212016"><ele>556.0</ele><time>2026-05-01T10:20:01.935Z</time></trkpt><trkpt lat="42.1932129" lon="14.2213172"><ele>556.0</ele><time>2026-05-01T10:20:02.94Z</time></trkpt><trkpt lat="42.1931816" lon="14.2214197"><ele>556.0</ele><time>2026-05-01T10:20:03.941Z</time></trkpt><trkpt lat="42.1931587" lon="14.2215047"><ele>556.0</ele><time>2026-05-01T10:20:04.95Z</time></trkpt><trkpt lat="42.1931301" lon="14.221634"><ele>556.0</ele><time>2026-05-01T10:20:06.936Z</time></trkpt><trkpt lat="42.1930911" lon="14.2217654"><ele>556.0</ele><time>2026-05-01T10:20:08.937Z</time></trkpt><trkpt lat="42.1930779" lon="14.2218546"><ele>556.0</ele><time>2026-05-01T10:20:10.938Z</time></trkpt><trkpt lat="42.1930512" lon="14.2219319"><ele>557.8</ele><time>2026-05-01T10:20:15.931Z</time></trkpt><trkpt lat="42.1930373" lon="14.2220448"><ele>559.6</ele><time>2026-05-01T10:20:18.939Z</time></trkpt><trkpt lat="42.1929942" lon="14.2222228"><ele>561.4</ele><time>2026-05-01T10:20:20.933Z</time></trkpt><trkpt lat="42.1929692" lon="14.2223254"><ele>563.2</ele><time>2026-05-01T10:20:21.971Z</time></trkpt><trkpt lat="42.1929333" lon="14.2224398"><ele>565.0</ele><time>2026-05-01T10:20:23.947Z</time></trkpt><trkpt lat="42.1928604" lon="14.222466"><ele>565.0</ele><time>2026-05-01T10:20:26.95Z</time></trkpt><trkpt lat="42.1927885" lon="14.2224188"><ele>565.0</ele><time>2026-05-01T10:20:28.954Z</time></trkpt><trkpt lat="42.1926993" lon="14.2224006"><ele>565.0</ele><time>2026-05-01T10:20:30.946Z</time></trkpt><trkpt lat="42.1925884" lon="14.2223961"><ele>565.0</ele><time>2026-05-01T10:20:32.947Z</time></trkpt><trkpt lat="42.1925002" lon="14.2223706"><ele>565.0</ele><time>2026-05-01T10:20:34.949Z</time></trkpt><trkpt lat="42.1924194" lon="14.2223478"><ele>564.8</ele><time>2026-05-01T10:20:36.945Z</time></trkpt><trkpt lat="42.1923385" lon="14.2223174"><ele>564.6</ele><time>2026-05-01T10:20:38.947Z</time></trkpt><trkpt lat="42.1922457" lon="14.2222861"><ele>564.4</ele><time>2026-05-01T10:20:40.943Z</time></trkpt><trkpt lat="42.1921434" lon="14.2222475"><ele>564.2</ele><time>2026-05-01T10:20:42.94Z</time></trkpt><trkpt lat="42.1920492" lon="14.2222093"><ele>564.0</ele><time>2026-05-01T10:20:44.938Z</time></trkpt><trkpt lat="42.1919714" lon="14.2222009"><ele>566.0</ele><time>2026-05-01T10:20:47.943Z</time></trkpt><trkpt lat="42.1919054" lon="14.2221924"><ele>568.0</ele><time>2026-05-01T10:20:50.937Z</time></trkpt><trkpt lat="42.1918307" lon="14.2222079"><ele>570.0</ele><time>2026-05-01T10:20:52.94Z</time></trkpt><trkpt lat="42.191745" lon="14.2221908"><ele>572.0</ele><time>2026-05-01T10:20:54.939Z</time></trkpt><trkpt lat="42.191646" lon="14.2221111"><ele>574.0</ele><time>2026-05-01T10:20:56.949Z</time></trkpt><trkpt lat="42.1915893" lon="14.2220634"><ele>576.0</ele><time>2026-05-01T10:20:57.944Z</time></trkpt><trkpt lat="42.191522" lon="14.2220309"><ele>576.5714285714287</ele><time>2026-05-01T10:20:58.938Z</time></trkpt><trkpt lat="42.1914511" lon="14.2220141"><ele>577.1428571428571</ele><time>2026-05-01T10:20:59.938Z</time></trkpt><trkpt lat="42.1913834" lon="14.2219823"><ele>577.7142857142858</ele><time>2026-05-01T10:21:00.943Z</time></trkpt><trkpt lat="42.1913215" lon="14.2219579"><ele>578.2857142857143</ele><time>2026-05-01T10:21:01.939Z</time></trkpt><trkpt lat="42.1912578" lon="14.2219212"><ele>578.8571428571429</ele><time>2026-05-01T10:21:02.941Z</time></trkpt><trkpt lat="42.1911957" lon="14.2218943"><ele>579.4285714285714</ele><time>2026-05-01T10:21:03.947Z</time></trkpt><trkpt lat="42.1910942" lon="14.2218619"><ele>580.0</ele><time>2026-05-01T10:21:05.939Z</time></trkpt><trkpt lat="42.1909956" lon="14.2218703"><ele>580.0</ele><time>2026-05-01T10:21:07.934Z</time></trkpt><trkpt lat="42.1909931" lon="14.2219628"><ele>580.0</ele><time>2026-05-01T10:21:10.936Z</time></trkpt><trkpt lat="42.1909762" lon="14.2220949"><ele>580.0</ele><time>2026-05-01T10:21:12.935Z</time></trkpt><trkpt lat="42.1909373" lon="14.2221785"><ele>580.0</ele><time>2026-05-01T10:21:13.932Z</time></trkpt><trkpt lat="42.1908256" lon="14.2222506"><ele>580.0</ele><time>2026-05-01T10:21:15.93Z</time></trkpt><trkpt lat="42.1907574" lon="14.2222675"><ele>580.0</ele><time>2026-05-01T10:21:16.944Z</time></trkpt><trkpt lat="42.1906772" lon="14.2223058"><ele>578.6</ele><time>2026-05-01T10:21:17.936Z</time></trkpt><trkpt lat="42.1905837" lon="14.222366"><ele>577.2</ele><time>2026-05-01T10:21:18.937Z</time></trkpt><trkpt lat="42.1904832" lon="14.2224122"><ele>575.8</ele><time>2026-05-01T10:21:19.939Z</time></trkpt><trkpt lat="42.1903864" lon="14.2224612"><ele>574.4</ele><time>2026-05-01T10:21:20.939Z</time></trkpt><trkpt lat="42.1902973" lon="14.222496"><ele>573.0</ele><time>2026-05-01T10:21:21.943Z</time></trkpt><trkpt lat="42.1902095" lon="14.2225234"><ele>573.0</ele><time>2026-05-01T10:21:22.939Z</time></trkpt><trkpt lat="42.1901198" lon="14.2225558"><ele>573.0</ele><time>2026-05-01T10:21:23.933Z</time></trkpt><trkpt lat="42.1900296" lon="14.2225902"><ele>573.0</ele><time>2026-05-01T10:21:24.937Z</time></trkpt><trkpt lat="42.1899381" lon="14.2226303"><ele>573.0</ele><time>2026-05-01T10:21:25.933Z</time></trkpt><trkpt lat="42.1898424" lon="14.2226734"><ele>573.0</ele><time>2026-05-01T10:21:26.934Z</time></trkpt><trkpt lat="42.1897528" lon="14.2226854"><ele>572.6666666666666</ele><time>2026-05-01T10:21:27.932Z</time></trkpt><trkpt lat="42.1896606" lon="14.2226662"><ele>572.3333333333334</ele><time>2026-05-01T10:21:28.935Z</time></trkpt><trkpt lat="42.1895661" lon="14.2226383"><ele>572.0</ele><time>2026-05-01T10:21:29.937Z</time></trkpt><trkpt lat="42.1894767" lon="14.2226192"><ele>571.6666666666667</ele><time>2026-05-01T10:21:30.938Z</time></trkpt><trkpt lat="42.1894121" lon="14.2226018"><ele>571.3333333333334</ele><time>2026-05-01T10:21:31.947Z</time></trkpt><trkpt lat="42.1893501" lon="14.2225801"><ele>571.0</ele><time>2026-05-01T10:21:32.937Z</time></trkpt><trkpt lat="42.1892851" lon="14.2225457"><ele>571.0</ele><time>2026-05-01T10:21:33.936Z</time></trkpt><trkpt lat="42.189178" lon="14.222469"><ele>571.0</ele><time>2026-05-01T10:21:35.932Z</time></trkpt><trkpt lat="42.1890764" lon="14.2223631"><ele>571.0</ele><time>2026-05-01T10:21:37.934Z</time></trkpt><trkpt lat="42.1890196" lon="14.2223042"><ele>571.0</ele><time>2026-05-01T10:21:38.937Z</time></trkpt><trkpt lat="42.1889663" lon="14.2222504"><ele>571.0</ele><time>2026-05-01T10:21:39.936Z</time></trkpt><trkpt lat="42.1889052" lon="14.2221884"><ele>571.1428571428571</ele><time>2026-05-01T10:21:40.933Z</time></trkpt><trkpt lat="42.1888524" lon="14.222133"><ele>571.2857142857142</ele><time>2026-05-01T10:21:41.939Z</time></trkpt><trkpt lat="42.1887968" lon="14.2220856"><ele>571.4285714285713</ele><time>2026-05-01T10:21:42.932Z</time></trkpt><trkpt lat="42.1887429" lon="14.2220284"><ele>571.5714285714286</ele><time>2026-05-01T10:21:43.943Z</time></trkpt><trkpt lat="42.188686" lon="14.2219611"><ele>571.7142857142857</ele><time>2026-05-01T10:21:44.939Z</time></trkpt><trkpt lat="42.1886209" lon="14.2218973"><ele>571.8571428571428</ele><time>2026-05-01T10:21:45.937Z</time></trkpt><trkpt lat="42.1885552" lon="14.2218282"><ele>572.0</ele><time>2026-05-01T10:21:46.945Z</time></trkpt><trkpt lat="42.1884829" lon="14.2217481"><ele>572.0</ele><time>2026-05-01T10:21:47.932Z</time></trkpt><trkpt lat="42.1884021" lon="14.2216618"><ele>572.0</ele><time>2026-05-01T10:21:48.937Z</time></trkpt><trkpt lat="42.1883229" lon="14.221565"><ele>572.0</ele><time>2026-05-01T10:21:49.938Z</time></trkpt><trkpt lat="42.1882483" lon="14.2214837"><ele>572.0</ele><time>2026-05-01T10:21:50.945Z</time></trkpt><trkpt lat="42.1881754" lon="14.2214062"><ele>572.0</ele><time>2026-05-01T10:21:51.936Z</time></trkpt><trkpt lat="42.1881141" lon="14.2213364"><ele>571.9999999999999</ele><time>2026-05-01T10:21:52.946Z</time></trkpt><trkpt lat="42.1880502" lon="14.2212618"><ele>572.0</ele><time>2026-05-01T10:21:53.936Z</time></trkpt><trkpt lat="42.1879966" lon="14.2212018"><ele>572.0</ele><time>2026-05-01T10:21:54.931Z</time></trkpt><trkpt lat="42.1879428" lon="14.22114"><ele>572.0</ele><time>2026-05-01T10:21:55.935Z</time></trkpt><trkpt lat="42.1878827" lon="14.2210892"><ele>572.0</ele><time>2026-05-01T10:21:56.937Z</time></trkpt><trkpt lat="42.1878242" lon="14.2210376"><ele>571.9999999999999</ele><time>2026-05-01T10:21:57.935Z</time></trkpt><trkpt lat="42.1877674" lon="14.2209811"><ele>572.0</ele><time>2026-05-01T10:21:58.945Z</time></trkpt><trkpt lat="42.187709" lon="14.22092"><ele>572.0</ele><time>2026-05-01T10:21:59.941Z</time></trkpt><trkpt lat="42.1876584" lon="14.2208676"><ele>572.0</ele><time>2026-05-01T10:22:00.934Z</time></trkpt><trkpt lat="42.1876072" lon="14.2208173"><ele>572.0</ele><time>2026-05-01T10:22:01.935Z</time></trkpt><trkpt lat="42.1875605" lon="14.220757"><ele>572.0</ele><time>2026-05-01T10:22:02.927Z</time></trkpt><trkpt lat="42.1875016" lon="14.220677"><ele>572.0</ele><time>2026-05-01T10:22:03.938Z</time></trkpt><trkpt lat="42.187423" lon="14.2205838"><ele>572.0</ele><time>2026-05-01T10:22:04.937Z</time></trkpt><trkpt lat="42.1873397" lon="14.2204871"><ele>570.0</ele><time>2026-05-01T10:22:05.934Z</time></trkpt><trkpt lat="42.18727" lon="14.2204085"><ele>568.0</ele><time>2026-05-01T10:22:06.937Z</time></trkpt><trkpt lat="42.1872112" lon="14.2203503"><ele>566.0</ele><time>2026-05-01T10:22:07.937Z</time></trkpt><trkpt lat="42.1871052" lon="14.22024"><ele>564.0</ele><time>2026-05-01T10:22:09.942Z</time></trkpt><trkpt lat="42.1870543" lon="14.2201639"><ele>562.0</ele><time>2026-05-01T10:22:10.933Z</time></trkpt><trkpt lat="42.1870159" lon="14.2200687"><ele>562.0</ele><time>2026-05-01T10:22:11.937Z</time></trkpt><trkpt lat="42.1869926" lon="14.2199623"><ele>562.0</ele><time>2026-05-01T10:22:12.98Z</time></trkpt><trkpt lat="42.1869944" lon="14.2198505"><ele>562.0</ele><time>2026-05-01T10:22:13.934Z</time></trkpt><trkpt lat="42.1870237" lon="14.2197158"><ele>562.0</ele><time>2026-05-01T10:22:14.935Z</time></trkpt><trkpt lat="42.1870571" lon="14.2195996"><ele>562.0</ele><time>2026-05-01T10:22:15.933Z</time></trkpt><trkpt lat="42.1870828" lon="14.2194708"><ele>561.2</ele><time>2026-05-01T10:22:16.939Z</time></trkpt><trkpt lat="42.1871002" lon="14.2193303"><ele>560.4000000000001</ele><time>2026-05-01T10:22:17.936Z</time></trkpt><trkpt lat="42.1871027" lon="14.2191882"><ele>559.5999999999999</ele><time>2026-05-01T10:22:18.937Z</time></trkpt><trkpt lat="42.1870992" lon="14.2190352"><ele>558.8</ele><time>2026-05-01T10:22:19.934Z</time></trkpt><trkpt lat="42.1870914" lon="14.2188879"><ele>558.0</ele><time>2026-05-01T10:22:20.937Z</time></trkpt><trkpt lat="42.1870823" lon="14.2187472"><ele>557.5</ele><time>2026-05-01T10:22:21.948Z</time></trkpt><trkpt lat="42.1870752" lon="14.2186289"><ele>557.0</ele><time>2026-05-01T10:22:22.937Z</time></trkpt><trkpt lat="42.18706" lon="14.218515"><ele>556.5</ele><time>2026-05-01T10:22:23.934Z</time></trkpt><trkpt lat="42.1870475" lon="14.2184104"><ele>556.0</ele><time>2026-05-01T10:22:24.938Z</time></trkpt><trkpt lat="42.1870373" lon="14.2182975"><ele>555.5</ele><time>2026-05-01T10:22:25.935Z</time></trkpt><trkpt lat="42.1870196" lon="14.2181768"><ele>555.0</ele><time>2026-05-01T10:22:26.947Z</time></trkpt><trkpt lat="42.1870027" lon="14.2180444"><ele>555.0</ele><time>2026-05-01T10:22:27.939Z</time></trkpt><trkpt lat="42.1869918" lon="14.2179322"><ele>555.0</ele><time>2026-05-01T10:22:28.939Z</time></trkpt><trkpt lat="42.1869814" lon="14.2178343"><ele>555.0</ele><time>2026-05-01T10:22:29.943Z</time></trkpt><trkpt lat="42.1869705" lon="14.2177479"><ele>555.0</ele><time>2026-05-01T10:22:30.972Z</time></trkpt><trkpt lat="42.1869626" lon="14.2176421"><ele>555.0</ele><time>2026-05-01T10:22:32.945Z</time></trkpt><trkpt lat="42.1870315" lon="14.2176"><ele>555.0</ele><time>2026-05-01T10:22:35.934Z</time></trkpt><trkpt lat="42.1871283" lon="14.2176215"><ele>555.0</ele><time>2026-05-01T10:22:37.937Z</time></trkpt><trkpt lat="42.187203" lon="14.2176533"><ele>555.0</ele><time>2026-05-01T10:22:38.938Z</time></trkpt><trkpt lat="42.1872845" lon="14.2176919"><ele>555.0</ele><time>2026-05-01T10:22:39.937Z</time></trkpt><trkpt lat="42.1873726" lon="14.2177401"><ele>555.0</ele><time>2026-05-01T10:22:40.938Z</time></trkpt><trkpt lat="42.187463" lon="14.2177793"><ele>555.0</ele><time>2026-05-01T10:22:41.939Z</time></trkpt><trkpt lat="42.1875535" lon="14.2178339"><ele>556.2</ele><time>2026-05-01T10:22:42.95Z</time></trkpt><trkpt lat="42.1876513" lon="14.2178855"><ele>557.4</ele><time>2026-05-01T10:22:43.938Z</time></trkpt><trkpt lat="42.1877414" lon="14.2179297"><ele>558.6</ele><time>2026-05-01T10:22:44.939Z</time></trkpt><trkpt lat="42.187834" lon="14.2179846"><ele>559.8</ele><time>2026-05-01T10:22:45.943Z</time></trkpt><trkpt lat="42.1879245" lon="14.21804"><ele>561.0</ele><time>2026-05-01T10:22:46.937Z</time></trkpt><trkpt lat="42.1880277" lon="14.2180999"><ele>562.8</ele><time>2026-05-01T10:22:47.936Z</time></trkpt><trkpt lat="42.1881246" lon="14.2181596"><ele>564.6</ele><time>2026-05-01T10:22:48.94Z</time></trkpt><trkpt lat="42.1882233" lon="14.2182119"><ele>566.4</ele><time>2026-05-01T10:22:49.941Z</time></trkpt><trkpt lat="42.1883301" lon="14.21827"><ele>568.2</ele><time>2026-05-01T10:22:50.942Z</time></trkpt><trkpt lat="42.1884363" lon="14.2183332"><ele>570.0</ele><time>2026-05-01T10:22:51.934Z</time></trkpt><trkpt lat="42.1885393" lon="14.2183911"><ele>570.0</ele><time>2026-05-01T10:22:52.943Z</time></trkpt><trkpt lat="42.1886464" lon="14.2184544"><ele>570.0</ele><time>2026-05-01T10:22:53.932Z</time></trkpt><trkpt lat="42.1887373" lon="14.2185188"><ele>570.0</ele><time>2026-05-01T10:22:54.938Z</time></trkpt><trkpt lat="42.18882" lon="14.2185935"><ele>570.0</ele><time>2026-05-01T10:22:55.94Z</time></trkpt><trkpt lat="42.188895" lon="14.2186756"><ele>570.0</ele><time>2026-05-01T10:22:56.931Z</time></trkpt><trkpt lat="42.1889684" lon="14.2187646"><ele>569.4</ele><time>2026-05-01T10:22:57.946Z</time></trkpt><trkpt lat="42.1890321" lon="14.2188553"><ele>568.8</ele><time>2026-05-01T10:22:58.93Z</time></trkpt><trkpt lat="42.1890971" lon="14.2189502"><ele>568.2</ele><time>2026-05-01T10:22:59.933Z</time></trkpt><trkpt lat="42.1891662" lon="14.2190554"><ele>567.6</ele><time>2026-05-01T10:23:00.935Z</time></trkpt><trkpt lat="42.1892402" lon="14.2191664"><ele>567.0</ele><time>2026-05-01T10:23:01.937Z</time></trkpt><trkpt lat="42.1893124" lon="14.219278"><ele>567.0</ele><time>2026-05-01T10:23:02.928Z</time></trkpt><trkpt lat="42.189383" lon="14.2193974"><ele>567.0</ele><time>2026-05-01T10:23:03.946Z</time></trkpt><trkpt lat="42.1894529" lon="14.2195178"><ele>567.0</ele><time>2026-05-01T10:23:04.935Z</time></trkpt><trkpt lat="42.1895292" lon="14.219629"><ele>567.0</ele><time>2026-05-01T10:23:05.941Z</time></trkpt><trkpt lat="42.1896014" lon="14.2197372"><ele>567.0</ele><time>2026-05-01T10:23:06.932Z</time></trkpt><trkpt lat="42.1896817" lon="14.2198315"><ele>567.8000000000001</ele><time>2026-05-01T10:23:07.936Z</time></trkpt><trkpt lat="42.1897493" lon="14.2199133"><ele>568.6</ele><time>2026-05-01T10:23:08.935Z</time></trkpt><trkpt lat="42.1898142" lon="14.219977"><ele>569.4000000000001</ele><time>2026-05-01T10:23:09.937Z</time></trkpt><trkpt lat="42.1899075" lon="14.2199969"><ele>570.2</ele><time>2026-05-01T10:23:10.934Z</time></trkpt><trkpt lat="42.190023" lon="14.219985"><ele>571.0</ele><time>2026-05-01T10:23:11.937Z</time></trkpt><trkpt lat="42.1901365" lon="14.2199759"><ele>571.0</ele><time>2026-05-01T10:23:12.941Z</time></trkpt><trkpt lat="42.1902357" lon="14.2199392"><ele>571.0</ele><time>2026-05-01T10:23:13.933Z</time></trkpt><trkpt lat="42.1903172" lon="14.2199176"><ele>571.0</ele><time>2026-05-01T10:23:14.939Z</time></trkpt><trkpt lat="42.1904007" lon="14.2198888"><ele>571.0</ele><time>2026-05-01T10:23:15.938Z</time></trkpt><trkpt lat="42.1904818" lon="14.2198679"><ele>571.0</ele><time>2026-05-01T10:23:16.945Z</time></trkpt><trkpt lat="42.1905857" lon="14.2198641"><ele>570.4</ele><time>2026-05-01T10:23:17.935Z</time></trkpt><trkpt lat="42.1906991" lon="14.219867"><ele>569.8</ele><time>2026-05-01T10:23:18.934Z</time></trkpt><trkpt lat="42.1908104" lon="14.2198806"><ele>569.1999999999999</ele><time>2026-05-01T10:23:19.936Z</time></trkpt><trkpt lat="42.1909132" lon="14.2198785"><ele>568.6</ele><time>2026-05-01T10:23:20.94Z</time></trkpt><trkpt lat="42.1910176" lon="14.2198907"><ele>568.0</ele><time>2026-05-01T10:23:21.936Z</time></trkpt><trkpt lat="42.1911131" lon="14.2198999"><ele>568.0</ele><time>2026-05-01T10:23:22.939Z</time></trkpt><trkpt lat="42.1912158" lon="14.2198919"><ele>568.0</ele><time>2026-05-01T10:23:23.934Z</time></trkpt><trkpt lat="42.1913188" lon="14.2199027"><ele>568.0</ele><time>2026-05-01T10:23:24.964Z</time></trkpt><trkpt lat="42.1914209" lon="14.2199162"><ele>568.0</ele><time>2026-05-01T10:23:25.936Z</time></trkpt><trkpt lat="42.1915305" lon="14.2199161"><ele>568.0</ele><time>2026-05-01T10:23:26.933Z</time></trkpt><trkpt lat="42.1916353" lon="14.2199009"><ele>567.6</ele><time>2026-05-01T10:23:27.933Z</time></trkpt><trkpt lat="42.191743" lon="14.2198874"><ele>567.1999999999999</ele><time>2026-05-01T10:23:28.936Z</time></trkpt><trkpt lat="42.1918445" lon="14.2198768"><ele>566.8</ele><time>2026-05-01T10:23:29.937Z</time></trkpt><trkpt lat="42.1919482" lon="14.2198698"><ele>566.4</ele><time>2026-05-01T10:23:30.938Z</time></trkpt><trkpt lat="42.1920462" lon="14.2198658"><ele>566.0</ele><time>2026-05-01T10:23:31.932Z</time></trkpt><trkpt lat="42.1921393" lon="14.2198616"><ele>566.0</ele><time>2026-05-01T10:23:32.942Z</time></trkpt><trkpt lat="42.1922317" lon="14.2198615"><ele>566.0</ele><time>2026-05-01T10:23:33.931Z</time></trkpt><trkpt lat="42.1923285" lon="14.2198787"><ele>566.0</ele><time>2026-05-01T10:23:34.935Z</time></trkpt><trkpt lat="42.1924302" lon="14.2199092"><ele>566.0</ele><time>2026-05-01T10:23:35.936Z</time></trkpt><trkpt lat="42.1925337" lon="14.219944"><ele>566.0</ele><time>2026-05-01T10:23:36.936Z</time></trkpt><trkpt lat="42.1926321" lon="14.2199811"><ele>564.8</ele><time>2026-05-01T10:23:37.934Z</time></trkpt><trkpt lat="42.1927195" lon="14.2200182"><ele>563.6</ele><time>2026-05-01T10:23:38.933Z</time></trkpt><trkpt lat="42.192804" lon="14.2200764"><ele>562.4</ele><time>2026-05-01T10:23:39.936Z</time></trkpt><trkpt lat="42.1928892" lon="14.2201484"><ele>561.2</ele><time>2026-05-01T10:23:40.934Z</time></trkpt><trkpt lat="42.1929749" lon="14.2202327"><ele>560.0</ele><time>2026-05-01T10:23:41.935Z</time></trkpt><trkpt lat="42.193054" lon="14.2202996"><ele>560.0</ele><time>2026-05-01T10:23:42.937Z</time></trkpt><trkpt lat="42.1931264" lon="14.220362"><ele>560.0</ele><time>2026-05-01T10:23:43.939Z</time></trkpt><trkpt lat="42.1931903" lon="14.2204159"><ele>560.0</ele><time>2026-05-01T10:23:44.95Z</time></trkpt><trkpt lat="42.193252" lon="14.2204559"><ele>560.0</ele><time>2026-05-01T10:23:45.936Z</time></trkpt><trkpt lat="42.1933317" lon="14.2205225"><ele>560.0</ele><time>2026-05-01T10:23:47.934Z</time></trkpt><trkpt lat="42.1933288" lon="14.2206397"><ele>560.0</ele><time>2026-05-01T10:23:53.934Z</time></trkpt><trkpt lat="42.1932508" lon="14.2206313"><ele>560.0</ele><time>2026-05-01T10:23:56.933Z</time></trkpt><trkpt lat="42.1931673" lon="14.220581"><ele>560.0</ele><time>2026-05-01T10:23:58.933Z</time></trkpt><trkpt lat="42.1930967" lon="14.2205402"><ele>560.0</ele><time>2026-05-01T10:24:01.939Z</time></trkpt><trkpt lat="42.193007" lon="14.2205184"><ele>560.0</ele><time>2026-05-01T10:24:04.935Z</time></trkpt><trkpt lat="42.1929321" lon="14.2205323"><ele>560.0</ele><time>2026-05-01T10:24:16.927Z</time></trkpt><trkpt lat="42.1928436" lon="14.2204544"><ele>560.0</ele><time>2026-05-01T10:24:19.935Z</time></trkpt><trkpt lat="42.1927729" lon="14.220393"><ele>560.0</ele><time>2026-05-01T10:24:21.938Z</time></trkpt><trkpt lat="42.1927004" lon="14.2203363"><ele>560.0</ele><time>2026-05-01T10:24:24.94Z</time></trkpt><trkpt lat="42.1927961" lon="14.220386"><ele>560.0</ele><time>2026-05-01T10:24:37.934Z</time></trkpt><trkpt lat="42.1928813" lon="14.2204484"><ele>560.0</ele><time>2026-05-01T10:24:39.951Z</time></trkpt><trkpt lat="42.1929632" lon="14.2204989"><ele>560.0</ele><time>2026-05-01T10:24:41.939Z</time></trkpt><trkpt lat="42.1929216" lon="14.2205638"><ele>560.0</ele><time>2026-05-01T10:24:52.949Z</time></trkpt><trkpt lat="42.1930157" lon="14.2205479"><ele>560.0</ele><time>2026-05-01T10:25:06.936Z</time></trkpt><trkpt lat="42.1931193" lon="14.220555"><ele>560.0</ele><time>2026-05-01T10:25:08.944Z</time></trkpt><trkpt lat="42.1932158" lon="14.2205834"><ele>560.0</ele><time>2026-05-01T10:25:10.944Z</time></trkpt><trkpt lat="42.1932999" lon="14.2206041"><ele>560.0</ele><time>2026-05-01T10:25:12.936Z</time></trkpt><trkpt lat="42.1933712" lon="14.2206489"><ele>560.0</ele><time>2026-05-01T10:25:15.935Z</time></trkpt><trkpt lat="42.1933665" lon="14.220738"><ele>560.0</ele><time>2026-05-01T10:25:17.953Z</time></trkpt><trkpt lat="42.19334" lon="14.2208523"><ele>559.3333333333333</ele><time>2026-05-01T10:25:19.94Z</time></trkpt><trkpt lat="42.1932963" lon="14.2209764"><ele>558.6666666666666</ele><time>2026-05-01T10:25:21.943Z</time></trkpt><trkpt lat="42.1932497" lon="14.2211337"><ele>558.0</ele><time>2026-05-01T10:25:23.939Z</time></trkpt><trkpt lat="42.193216" lon="14.2212243"><ele>557.3333333333334</ele><time>2026-05-01T10:25:24.937Z</time></trkpt><trkpt lat="42.1931867" lon="14.2213181"><ele>556.6666666666667</ele><time>2026-05-01T10:25:25.939Z</time></trkpt><trkpt lat="42.1931678" lon="14.2214053"><ele>556.0</ele><time>2026-05-01T10:25:26.95Z</time></trkpt><trkpt lat="42.1931316" lon="14.2215351"><ele>558.3333333333334</ele><time>2026-05-01T10:25:28.938Z</time></trkpt><trkpt lat="42.1930459" lon="14.2215471"><ele>560.6666666666667</ele><time>2026-05-01T10:25:42.939Z</time></trkpt><trkpt lat="42.1929558" lon="14.2215029"><ele>563.0</ele><time>2026-05-01T10:25:44.933Z</time></trkpt><trkpt lat="42.1928927" lon="14.2214923"><ele>565.3333333333334</ele><time>2026-05-01T10:25:45.934Z</time></trkpt><trkpt lat="42.1928287" lon="14.2214946"><ele>567.6666666666666</ele><time>2026-05-01T10:25:46.943Z</time></trkpt><trkpt lat="42.1927641" lon="14.221493"><ele>570.0</ele><time>2026-05-01T10:25:47.939Z</time></trkpt><trkpt lat="42.1926423" lon="14.2214864"><ele>570.0</ele><time>2026-05-01T10:25:49.941Z</time></trkpt><trkpt lat="42.1925721" lon="14.2214791"><ele>570.0</ele><time>2026-05-01T10:25:50.94Z</time></trkpt><trkpt lat="42.192506" lon="14.2214661"><ele>570.0</ele><time>2026-05-01T10:25:51.94Z</time></trkpt><trkpt lat="42.1924337" lon="14.2214501"><ele>570.0</ele><time>2026-05-01T10:25:52.935Z</time></trkpt><trkpt lat="42.1923662" lon="14.2214307"><ele>570.0</ele><time>2026-05-01T10:25:53.936Z</time></trkpt><trkpt lat="42.1922943" lon="14.22141"><ele>570.0</ele><time>2026-05-01T10:25:54.938Z</time></trkpt><trkpt lat="42.1922254" lon="14.2214066"><ele>570.0</ele><time>2026-05-01T10:25:55.943Z</time></trkpt><trkpt lat="42.1921191" lon="14.221415"><ele>570.5714285714286</ele><time>2026-05-01T10:25:57.95Z</time></trkpt><trkpt lat="42.1920312" lon="14.2214189"><ele>571.1428571428571</ele><time>2026-05-01T10:25:59.945Z</time></trkpt><trkpt lat="42.1919558" lon="14.2214491"><ele>571.7142857142858</ele><time>2026-05-01T10:26:02.943Z</time></trkpt><trkpt lat="42.1919005" lon="14.2215015"><ele>572.2857142857142</ele><time>2026-05-01T10:26:15.937Z</time></trkpt><trkpt lat="42.1918281" lon="14.2214864"><ele>572.8571428571429</ele><time>2026-05-01T10:26:18.938Z</time></trkpt><trkpt lat="42.1917635" lon="14.2214783"><ele>573.4285714285714</ele><time>2026-05-01T10:26:21.937Z</time></trkpt><trkpt lat="42.1917755" lon="14.221392"><ele>574.0</ele><time>2026-05-01T10:26:25.93Z</time></trkpt><trkpt lat="42.1918142" lon="14.2213102"><ele>574.0</ele><time>2026-05-01T10:26:27.942Z</time></trkpt><trkpt lat="42.1918245" lon="14.2211978"><ele>574.0</ele><time>2026-05-01T10:26:29.936Z</time></trkpt><trkpt lat="42.1918375" lon="14.2210891"><ele>574.0</ele><time>2026-05-01T10:26:31.945Z</time></trkpt><trkpt lat="42.1918533" lon="14.2209956"><ele>574.0</ele><time>2026-05-01T10:26:33.941Z</time></trkpt><trkpt lat="42.1918169" lon="14.2209244"><ele>574.0</ele><time>2026-05-01T10:27:23.938Z</time></trkpt><trkpt lat="42.1917334" lon="14.2209424"><ele>574.0</ele><time>2026-05-01T10:27:26.939Z</time></trkpt><trkpt lat="42.1916539" lon="14.220941"><ele>574.0</ele><time>2026-05-01T10:27:28.938Z</time></trkpt><trkpt lat="42.1915418" lon="14.2209096"><ele>574.0</ele><time>2026-05-01T10:27:30.943Z</time></trkpt><trkpt lat="42.1914658" lon="14.2209206"><ele>574.0</ele><time>2026-05-01T10:27:32.935Z</time></trkpt><trkpt lat="42.191397" lon="14.2209139"><ele>574.0</ele><time>2026-05-01T10:27:34.932Z</time></trkpt><trkpt lat="42.1913283" lon="14.220933"><ele>574.0</ele><time>2026-05-01T10:27:37.937Z</time></trkpt><trkpt lat="42.191349" lon="14.2208219"><ele>574.0</ele><time>2026-05-01T10:27:49.942Z</time></trkpt><trkpt lat="42.1913669" lon="14.2207315"><ele>579.0</ele><time>2026-05-01T10:27:51.937Z</time></trkpt><trkpt lat="42.1913584" lon="14.2206406"><ele>568.0</ele><time>2026-05-01T10:27:54.935Z</time></trkpt><trkpt lat="42.1913362" lon="14.2205583"><ele>568.0</ele><time>2026-05-01T10:27:59.95Z</time></trkpt><trkpt lat="42.1912927" lon="14.2204923"><ele>568.0</ele><time>2026-05-01T10:28:02.932Z</time></trkpt><trkpt lat="42.1912226" lon="14.2204903"><ele>568.0</ele><time>2026-05-01T10:28:07.943Z</time></trkpt></trkseg></trk></gpx>